<?xml version='1.0' encoding='UTF-8'?><gpx version="1.1" creator="JPX - https://github.com/jenetics/jpx" xmlns="http://www.topografix.com/GPX/1/1"><trk><trkseg><trkpt lat="43.79356779231043" lon="11.219483208148036"><ele>40.99999999999999</ele><time>2026-04-06T08:16:36Z</time></trkpt><trkpt lat="43.7936134343975" lon="11.21954894386958"><ele>41.0</ele><time>2026-04-06T08:16:47Z</time></trkpt><trkpt lat="43.79363208508066" lon="11.219633492806524"><ele>41.0</ele><time>2026-04-06T08:16:53Z</time></trkpt><trkpt lat="43.79363595264527" lon="11.2197211495419"><ele>41.0</ele><time>2026-04-06T08:16:56Z</time></trkpt><trkpt lat="43.7936130492415" lon="11.219814017775276"><ele>41.0</ele><time>2026-04-06T08:16:57Z</time></trkpt><trkpt lat="43.79356086207098" lon="11.219920087048504"><ele>40.99999999999999</ele><time>2026-04-06T08:16:58Z</time></trkpt><trkpt lat="43.793515806446244" lon="11.219982640136777"><ele>41.0</ele><time>2026-04-06T08:16:59Z</time></trkpt><trkpt lat="43.79343830671522" lon="11.21999805259819"><ele>41.666666666666664</ele><time>2026-04-06T08:17:01Z</time></trkpt><trkpt lat="43.793373145558924" lon="11.220040883809355"><ele>42.33333333333333</ele><time>2026-04-06T08:17:03Z</time></trkpt><trkpt lat="43.79331109521031" lon="11.2200570745241"><ele>43.0</ele><time>2026-04-06T08:17:04Z</time></trkpt><trkpt lat="43.79322267736133" lon="11.22004216575263"><ele>43.666666666666664</ele><time>2026-04-06T08:17:06Z</time></trkpt><trkpt lat="43.793155646859965" lon="11.220011974639336"><ele>44.333333333333336</ele><time>2026-04-06T08:17:08Z</time></trkpt><trkpt lat="43.793073806851105" lon="11.2199639791341"><ele>45.0</ele><time>2026-04-06T08:17:11Z</time></trkpt><trkpt lat="43.793017367235734" lon="11.219910025716286"><ele>45.0</ele><time>2026-04-06T08:17:13Z</time></trkpt><trkpt lat="43.79294345408413" lon="11.219846095145469"><ele>45.0</ele><time>2026-04-06T08:17:15Z</time></trkpt><trkpt lat="43.792876139181544" lon="11.219789658289637"><ele>45.0</ele><time>2026-04-06T08:17:17Z</time></trkpt><trkpt lat="43.79280278349299" lon="11.219745303715559"><ele>45.0</ele><time>2026-04-06T08:17:19Z</time></trkpt><trkpt lat="43.792777267717156" lon="11.219634985584323"><ele>45.0</ele><time>2026-04-06T08:17:21Z</time></trkpt><trkpt lat="43.79270786360768" lon="11.219566139653816"><ele>45.0</ele><time>2026-04-06T08:17:23Z</time></trkpt><trkpt lat="43.792635355638964" lon="11.219490454624706"><ele>45.2</ele><time>2026-04-06T08:17:25Z</time></trkpt><trkpt lat="43.792549703942825" lon="11.219415152268574"><ele>45.4</ele><time>2026-04-06T08:17:27Z</time></trkpt><trkpt lat="43.79244525340434" lon="11.219354034545972"><ele>45.599999999999994</ele><time>2026-04-06T08:17:29Z</time></trkpt><trkpt lat="43.792360769306384" lon="11.219299499679698"><ele>45.8</ele><time>2026-04-06T08:17:31Z</time></trkpt><trkpt lat="43.79229657255519" lon="11.219230029940134"><ele>46.0</ele><time>2026-04-06T08:17:33Z</time></trkpt><trkpt lat="43.79222491370859" lon="11.219176845005393"><ele>46.0</ele><time>2026-04-06T08:17:35Z</time></trkpt><trkpt lat="43.79216840820868" lon="11.219068565052826"><ele>46.0</ele><time>2026-04-06T08:17:38Z</time></trkpt><trkpt lat="43.79219148654545" lon="11.218980681001236"><ele>46.0</ele><time>2026-04-06T08:17:40Z</time></trkpt><trkpt lat="43.79221853199665" lon="11.218878047339537"><ele>46.0</ele><time>2026-04-06T08:17:42Z</time></trkpt><trkpt lat="43.792261639257724" lon="11.218783712463484"><ele>46.0</ele><time>2026-04-06T08:17:43.999Z</time></trkpt><trkpt lat="43.79230850217867" lon="11.218673443602357"><ele>46.0</ele><time>2026-04-06T08:17:45.999Z</time></trkpt><trkpt lat="43.79234983663051" lon="11.218562639210942"><ele>45.66666666666667</ele><time>2026-04-06T08:17:47.999Z</time></trkpt><trkpt lat="43.792385620673" lon="11.218475289723061"><ele>45.333333333333336</ele><time>2026-04-06T08:17:49.999Z</time></trkpt><trkpt lat="43.792385714715586" lon="11.21837534132668"><ele>45.0</ele><time>2026-04-06T08:17:52.999Z</time></trkpt><trkpt lat="43.79232768346752" lon="11.21829665291604"><ele>44.666666666666664</ele><time>2026-04-06T08:17:54.999Z</time></trkpt><trkpt lat="43.79224297191735" lon="11.218237104835332"><ele>44.33333333333333</ele><time>2026-04-06T08:17:56.999Z</time></trkpt><trkpt lat="43.79216521274581" lon="11.218174440884404"><ele>44.0</ele><time>2026-04-06T08:17:58.999Z</time></trkpt><trkpt lat="43.792082106667124" lon="11.21809354540344"><ele>44.0</ele><time>2026-04-06T08:18:00.999Z</time></trkpt><trkpt lat="43.79199500248752" lon="11.218021257669955"><ele>44.0</ele><time>2026-04-06T08:18:02.999Z</time></trkpt><trkpt lat="43.791928220915025" lon="11.217969194117853"><ele>44.0</ele><time>2026-04-06T08:18:04.999Z</time></trkpt><trkpt lat="43.79186059339585" lon="11.21793134907463"><ele>44.0</ele><time>2026-04-06T08:18:09.999Z</time></trkpt><trkpt lat="43.79180711045563" lon="11.217878287254596"><ele>44.0</ele><time>2026-04-06T08:18:53Z</time></trkpt><trkpt lat="43.791765373156736" lon="11.217803582256915"><ele>44.0</ele><time>2026-04-06T08:18:55Z</time></trkpt><trkpt lat="43.79177788755913" lon="11.217673136852392"><ele>44.0</ele><time>2026-04-06T08:18:57Z</time></trkpt><trkpt lat="43.791834512544646" lon="11.217525322721007"><ele>44.0</ele><time>2026-04-06T08:18:59Z</time></trkpt><trkpt lat="43.79187884134875" lon="11.217386295492734"><ele>44.0</ele><time>2026-04-06T08:19:01Z</time></trkpt><trkpt lat="43.79190381035506" lon="11.21730265848918"><ele>44.0</ele><time>2026-04-06T08:19:02Z</time></trkpt><trkpt lat="43.791928004483495" lon="11.217215863277163"><ele>44.0</ele><time>2026-04-06T08:19:03Z</time></trkpt><trkpt lat="43.791956179021795" lon="11.217125247952515"><ele>44.0</ele><time>2026-04-06T08:19:04Z</time></trkpt><trkpt lat="43.7919869049326" lon="11.217029801128717"><ele>44.0</ele><time>2026-04-06T08:19:05Z</time></trkpt><trkpt lat="43.792014768919515" lon="11.216932984740081"><ele>44.0</ele><time>2026-04-06T08:19:06Z</time></trkpt><trkpt lat="43.79204788372466" lon="11.216836267774994"><ele>44.0</ele><time>2026-04-06T08:19:07Z</time></trkpt><trkpt lat="43.79206943624796" lon="11.216732689313975"><ele>44.0</ele><time>2026-04-06T08:19:08Z</time></trkpt><trkpt lat="43.792106571056365" lon="11.21663097955014"><ele>44.0</ele><time>2026-04-06T08:19:09Z</time></trkpt><trkpt lat="43.79213532977075" lon="11.216528971299859"><ele>44.0</ele><time>2026-04-06T08:19:10Z</time></trkpt><trkpt lat="43.7921655211009" lon="11.21643037781269"><ele>44.0</ele><time>2026-04-06T08:19:11Z</time></trkpt><trkpt lat="43.79219293280301" lon="11.216323396692523"><ele>44.0</ele><time>2026-04-06T08:19:12Z</time></trkpt><trkpt lat="43.792220283489" lon="11.2162270427157"><ele>44.0</ele><time>2026-04-06T08:19:13Z</time></trkpt><trkpt lat="43.79225042000574" lon="11.216137658885046"><ele>44.0</ele><time>2026-04-06T08:19:14Z</time></trkpt><trkpt lat="43.792276991588736" lon="11.21604317615761"><ele>44.0</ele><time>2026-04-06T08:19:15Z</time></trkpt><trkpt lat="43.792304943552324" lon="11.215958500456406"><ele>44.0</ele><time>2026-04-06T08:19:16Z</time></trkpt><trkpt lat="43.79233093465004" lon="11.215873696548508"><ele>44.0</ele><time>2026-04-06T08:19:17Z</time></trkpt><trkpt lat="43.79235735402706" lon="11.215788514576031"><ele>44.0</ele><time>2026-04-06T08:19:18Z</time></trkpt><trkpt lat="43.792383546608" lon="11.215694388969082"><ele>44.0</ele><time>2026-04-06T08:19:19Z</time></trkpt><trkpt lat="43.79241066789411" lon="11.215604626455313"><ele>44.0</ele><time>2026-04-06T08:19:20Z</time></trkpt><trkpt lat="43.79244022808914" lon="11.215507926595732"><ele>44.0</ele><time>2026-04-06T08:19:21Z</time></trkpt><trkpt lat="43.79247265972295" lon="11.215412233638341"><ele>44.0</ele><time>2026-04-06T08:19:22Z</time></trkpt><trkpt lat="43.79250664430863" lon="11.215307504505006"><ele>44.0</ele><time>2026-04-06T08:19:23Z</time></trkpt><trkpt lat="43.79254091895131" lon="11.215186773242776"><ele>43.83333333333333</ele><time>2026-04-06T08:19:24Z</time></trkpt><trkpt lat="43.79258113057836" lon="11.21506265543181"><ele>43.666666666666664</ele><time>2026-04-06T08:19:25Z</time></trkpt><trkpt lat="43.792617499441114" lon="11.214943144256914"><ele>43.5</ele><time>2026-04-06T08:19:26Z</time></trkpt><trkpt lat="43.79265003624224" lon="11.2148276068217"><ele>43.333333333333336</ele><time>2026-04-06T08:19:27Z</time></trkpt><trkpt lat="43.792684927270486" lon="11.214714360009713"><ele>43.16666666666667</ele><time>2026-04-06T08:19:28Z</time></trkpt><trkpt lat="43.79270937764898" lon="11.214621171126916"><ele>43.0</ele><time>2026-04-06T08:19:29Z</time></trkpt><trkpt lat="43.792735112824076" lon="11.21453457001466"><ele>43.0</ele><time>2026-04-06T08:19:30Z</time></trkpt><trkpt lat="43.79277160274984" lon="11.214409155253865"><ele>43.0</ele><time>2026-04-06T08:19:32Z</time></trkpt><trkpt lat="43.792795854789844" lon="11.214301799239088"><ele>43.0</ele><time>2026-04-06T08:19:35Z</time></trkpt><trkpt lat="43.79281990911661" lon="11.214220953707462"><ele>43.0</ele><time>2026-04-06T08:20:06.999Z</time></trkpt><trkpt lat="43.79285829354305" lon="11.214095583012405"><ele>43.0</ele><time>2026-04-06T08:20:08.999Z</time></trkpt><trkpt lat="43.79290431083184" lon="11.213937423771215"><ele>43.0</ele><time>2026-04-06T08:20:10.999Z</time></trkpt><trkpt lat="43.79293415189754" lon="11.213833981538574"><ele>43.0</ele><time>2026-04-06T08:20:11.999Z</time></trkpt><trkpt lat="43.79296853216768" lon="11.213717336154268"><ele>43.0</ele><time>2026-04-06T08:20:12.999Z</time></trkpt><trkpt lat="43.79300560512457" lon="11.213594089204726"><ele>43.0</ele><time>2026-04-06T08:20:13.999Z</time></trkpt><trkpt lat="43.79304217369103" lon="11.213468339373035"><ele>43.0</ele><time>2026-04-06T08:20:14.999Z</time></trkpt><trkpt lat="43.793081626206565" lon="11.213344889693387"><ele>43.0</ele><time>2026-04-06T08:20:15.999Z</time></trkpt><trkpt lat="43.79312315505132" lon="11.2132127644437"><ele>43.0</ele><time>2026-04-06T08:20:16.999Z</time></trkpt><trkpt lat="43.793165132578" lon="11.213083366605293"><ele>43.0</ele><time>2026-04-06T08:20:17.999Z</time></trkpt><trkpt lat="43.79320620470421" lon="11.212953504530235"><ele>43.0</ele><time>2026-04-06T08:20:18.999Z</time></trkpt><trkpt lat="43.793244195717605" lon="11.212822515158868"><ele>43.0</ele><time>2026-04-06T08:20:19.999Z</time></trkpt><trkpt lat="43.793278018161956" lon="11.212710640483126"><ele>43.0</ele><time>2026-04-06T08:20:20.999Z</time></trkpt><trkpt lat="43.79331106198766" lon="11.212608140591437"><ele>43.0</ele><time>2026-04-06T08:20:21.999Z</time></trkpt><trkpt lat="43.79333960075147" lon="11.212520883223908"><ele>43.0</ele><time>2026-04-06T08:20:22.999Z</time></trkpt><trkpt lat="43.7933857613556" lon="11.212381587240333"><ele>43.0</ele><time>2026-04-06T08:20:24.999Z</time></trkpt><trkpt lat="43.793415796741336" lon="11.212296278798062"><ele>43.0</ele><time>2026-04-06T08:20:27.999Z</time></trkpt><trkpt lat="43.793456775914606" lon="11.212185122973626"><ele>43.0</ele><time>2026-04-06T08:20:32.999Z</time></trkpt><trkpt lat="43.79349781701646" lon="11.212061000088926"><ele>42.833333333333336</ele><time>2026-04-06T08:20:34.999Z</time></trkpt><trkpt lat="43.79353969940977" lon="11.211925487134126"><ele>42.66666666666667</ele><time>2026-04-06T08:20:36.999Z</time></trkpt><trkpt lat="43.793565107144964" lon="11.211838077763414"><ele>42.5</ele><time>2026-04-06T08:20:37.999Z</time></trkpt><trkpt lat="43.79361793428622" lon="11.21167287405104"><ele>42.333333333333336</ele><time>2026-04-06T08:20:39.999Z</time></trkpt><trkpt lat="43.79364876598459" lon="11.211580662296532"><ele>42.166666666666664</ele><time>2026-04-06T08:20:40.999Z</time></trkpt><trkpt lat="43.79367788684954" lon="11.211492935447442"><ele>42.0</ele><time>2026-04-06T08:20:41.999Z</time></trkpt><trkpt lat="43.79370559445262" lon="11.211401876472134"><ele>42.0</ele><time>2026-04-06T08:20:42.999Z</time></trkpt><trkpt lat="43.7937329559636" lon="11.2113182539706"><ele>42.0</ele><time>2026-04-06T08:20:44Z</time></trkpt><trkpt lat="43.7937760140121" lon="11.211190973113176"><ele>42.0</ele><time>2026-04-06T08:20:46Z</time></trkpt><trkpt lat="43.79381791069258" lon="11.211061576124482"><ele>42.0</ele><time>2026-04-06T08:20:48Z</time></trkpt><trkpt lat="43.7938470587074" lon="11.210976275931543"><ele>42.0</ele><time>2026-04-06T08:20:49Z</time></trkpt><trkpt lat="43.79387958054398" lon="11.210886427797744"><ele>42.0</ele><time>2026-04-06T08:20:50Z</time></trkpt><trkpt lat="43.79391304408873" lon="11.21078359586475"><ele>42.0</ele><time>2026-04-06T08:20:51Z</time></trkpt><trkpt lat="43.793948035009535" lon="11.210668787581708"><ele>42.0</ele><time>2026-04-06T08:20:52Z</time></trkpt><trkpt lat="43.793979626483555" lon="11.210548546798782"><ele>42.0</ele><time>2026-04-06T08:20:53Z</time></trkpt><trkpt lat="43.79401600059158" lon="11.210420152440198"><ele>42.0</ele><time>2026-04-06T08:20:54Z</time></trkpt><trkpt lat="43.79406181144752" lon="11.210296929995502"><ele>42.0</ele><time>2026-04-06T08:20:55Z</time></trkpt><trkpt lat="43.794102160990704" lon="11.21017066242933"><ele>42.0</ele><time>2026-04-06T08:20:56Z</time></trkpt><trkpt lat="43.79414587620406" lon="11.21004393373372"><ele>42.0</ele><time>2026-04-06T08:20:57Z</time></trkpt><trkpt lat="43.794190152997274" lon="11.209913976891132"><ele>42.0</ele><time>2026-04-06T08:20:58Z</time></trkpt><trkpt lat="43.79423285218303" lon="11.209780508684265"><ele>42.0</ele><time>2026-04-06T08:20:59Z</time></trkpt><trkpt lat="43.7942781572165" lon="11.209648885899522"><ele>42.0</ele><time>2026-04-06T08:21:00Z</time></trkpt><trkpt lat="43.79432086965387" lon="11.209517389790575"><ele>42.0</ele><time>2026-04-06T08:21:01Z</time></trkpt><trkpt lat="43.79436041705066" lon="11.209396453484862"><ele>42.0</ele><time>2026-04-06T08:21:02Z</time></trkpt><trkpt lat="43.79439496594949" lon="11.2092880806532"><ele>42.0</ele><time>2026-04-06T08:21:03Z</time></trkpt><trkpt lat="43.79442076590157" lon="11.209204279372436"><ele>42.0</ele><time>2026-04-06T08:21:04Z</time></trkpt><trkpt lat="43.794473669419844" lon="11.20904658791097"><ele>42.0</ele><time>2026-04-06T08:21:06Z</time></trkpt><trkpt lat="43.794520528292516" lon="11.20890638300295"><ele>42.0</ele><time>2026-04-06T08:21:08Z</time></trkpt><trkpt lat="43.79456775649813" lon="11.208752429892629"><ele>42.0</ele><time>2026-04-06T08:21:10Z</time></trkpt><trkpt lat="43.794593785363055" lon="11.208667277818101"><ele>42.0</ele><time>2026-04-06T08:21:11Z</time></trkpt><trkpt lat="43.79462060922099" lon="11.208585458979435"><ele>42.0</ele><time>2026-04-06T08:21:12Z</time></trkpt><trkpt lat="43.794643800019486" lon="11.208499574545876"><ele>42.0</ele><time>2026-04-06T08:21:13Z</time></trkpt><trkpt lat="43.794680253487634" lon="11.20838893082982"><ele>42.0</ele><time>2026-04-06T08:21:15Z</time></trkpt><trkpt lat="43.79471056342569" lon="11.208306040297716"><ele>42.0</ele><time>2026-04-06T08:21:20Z</time></trkpt><trkpt lat="43.79474457312926" lon="11.208191431498738"><ele>42.0</ele><time>2026-04-06T08:21:22Z</time></trkpt><trkpt lat="43.794783054963325" lon="11.20804005976918"><ele>42.0</ele><time>2026-04-06T08:21:24Z</time></trkpt><trkpt lat="43.79483696215314" lon="11.207879801474874"><ele>42.0</ele><time>2026-04-06T08:21:26Z</time></trkpt><trkpt lat="43.794863999183896" lon="11.207795103201045"><ele>42.0</ele><time>2026-04-06T08:21:27Z</time></trkpt><trkpt lat="43.79489615459097" lon="11.207697338169222"><ele>41.833333333333336</ele><time>2026-04-06T08:21:28Z</time></trkpt><trkpt lat="43.79492520438308" lon="11.207599886805811"><ele>41.666666666666664</ele><time>2026-04-06T08:21:29Z</time></trkpt><trkpt lat="43.79496353542174" lon="11.207490729012104"><ele>41.5</ele><time>2026-04-06T08:21:30Z</time></trkpt><trkpt lat="43.79500489137134" lon="11.207385735759688"><ele>41.33333333333333</ele><time>2026-04-06T08:21:31Z</time></trkpt><trkpt lat="43.79504497638542" lon="11.207261294088008"><ele>41.166666666666664</ele><time>2026-04-06T08:21:32Z</time></trkpt><trkpt lat="43.79508983590263" lon="11.207150443313196"><ele>41.0</ele><time>2026-04-06T08:21:33Z</time></trkpt><trkpt lat="43.79513752756741" lon="11.207026783062208"><ele>41.0</ele><time>2026-04-06T08:21:34Z</time></trkpt><trkpt lat="43.795178467429515" lon="11.206893986383088"><ele>41.0</ele><time>2026-04-06T08:21:35Z</time></trkpt><trkpt lat="43.79521909856098" lon="11.206759921680304"><ele>41.0</ele><time>2026-04-06T08:21:36Z</time></trkpt><trkpt lat="43.79526497398303" lon="11.206625265208071"><ele>41.0</ele><time>2026-04-06T08:21:37Z</time></trkpt><trkpt lat="43.79531431345916" lon="11.206508477514397"><ele>41.0</ele><time>2026-04-06T08:21:38Z</time></trkpt><trkpt lat="43.79538118641191" lon="11.206404363215665"><ele>41.0</ele><time>2026-04-06T08:21:39Z</time></trkpt><trkpt lat="43.79545255500078" lon="11.206322506257349"><ele>41.0</ele><time>2026-04-06T08:21:40Z</time></trkpt><trkpt lat="43.79551904206279" lon="11.206256022185352"><ele>41.0</ele><time>2026-04-06T08:21:41Z</time></trkpt><trkpt lat="43.7955660502784" lon="11.206184346462761"><ele>41.0</ele><time>2026-04-06T08:21:42Z</time></trkpt><trkpt lat="43.79556836278118" lon="11.206014201636673"><ele>41.0</ele><time>2026-04-06T08:21:44Z</time></trkpt><trkpt lat="43.795547675251086" lon="11.205920629423128"><ele>41.0</ele><time>2026-04-06T08:21:45Z</time></trkpt><trkpt lat="43.795567231224595" lon="11.20578745057603"><ele>41.0</ele><time>2026-04-06T08:21:46Z</time></trkpt><trkpt lat="43.795591907993774" lon="11.205665386681227"><ele>41.0</ele><time>2026-04-06T08:21:47Z</time></trkpt><trkpt lat="43.79564657862782" lon="11.205553466524897"><ele>41.0</ele><time>2026-04-06T08:21:48Z</time></trkpt><trkpt lat="43.79569062416927" lon="11.205427686394938"><ele>41.0</ele><time>2026-04-06T08:21:49Z</time></trkpt><trkpt lat="43.795739693922876" lon="11.205293630211983"><ele>41.0</ele><time>2026-04-06T08:21:50Z</time></trkpt><trkpt lat="43.79578630868477" lon="11.205155297790947"><ele>40.8</ele><time>2026-04-06T08:21:51Z</time></trkpt><trkpt lat="43.795830704451745" lon="11.205012978570148"><ele>40.599999999999994</ele><time>2026-04-06T08:21:52Z</time></trkpt><trkpt lat="43.79585816957102" lon="11.204863873090092"><ele>40.4</ele><time>2026-04-06T08:21:53Z</time></trkpt><trkpt lat="43.7959027228743" lon="11.204734381390171"><ele>40.2</ele><time>2026-04-06T08:21:54Z</time></trkpt><trkpt lat="43.79594076543034" lon="11.204621596760193"><ele>40.0</ele><time>2026-04-06T08:21:55Z</time></trkpt><trkpt lat="43.795969566137195" lon="11.204525145659982"><ele>40.0</ele><time>2026-04-06T08:21:56Z</time></trkpt><trkpt lat="43.795979447188735" lon="11.204437425985656"><ele>40.0</ele><time>2026-04-06T08:21:57Z</time></trkpt><trkpt lat="43.79593578395028" lon="11.204305157564335"><ele>40.0</ele><time>2026-04-06T08:21:58.999Z</time></trkpt><trkpt lat="43.795874940999255" lon="11.204224176328701"><ele>40.0</ele><time>2026-04-06T08:22:00.999Z</time></trkpt><trkpt lat="43.79587175680091" lon="11.20411803542663"><ele>40.0</ele><time>2026-04-06T08:22:04.999Z</time></trkpt><trkpt lat="43.79586045581326" lon="11.204022380584412"><ele>40.0</ele><time>2026-04-06T08:22:06.999Z</time></trkpt><trkpt lat="43.795849935317115" lon="11.203933332044715"><ele>40.2</ele><time>2026-04-06T08:22:07.999Z</time></trkpt><trkpt lat="43.79583575075676" lon="11.203820227117319"><ele>40.4</ele><time>2026-04-06T08:22:08.999Z</time></trkpt><trkpt lat="43.795819006665326" lon="11.203690355338708"><ele>40.599999999999994</ele><time>2026-04-06T08:22:09.999Z</time></trkpt><trkpt lat="43.79580125640972" lon="11.20355279083316"><ele>40.8</ele><time>2026-04-06T08:22:10.999Z</time></trkpt><trkpt lat="43.79578309631753" lon="11.203412050128522"><ele>41.0</ele><time>2026-04-06T08:22:11.999Z</time></trkpt><trkpt lat="43.79576307620997" lon="11.203256894305012"><ele>41.0</ele><time>2026-04-06T08:22:12.999Z</time></trkpt><trkpt lat="43.79574131525224" lon="11.203088663080452"><ele>41.0</ele><time>2026-04-06T08:22:13.999Z</time></trkpt><trkpt lat="43.79571819456971" lon="11.202912170921575"><ele>41.0</ele><time>2026-04-06T08:22:14.999Z</time></trkpt><trkpt lat="43.795694333963695" lon="11.202730030602291"><ele>41.0</ele><time>2026-04-06T08:22:15.999Z</time></trkpt><trkpt lat="43.79566718300678" lon="11.202541822280592"><ele>41.0</ele><time>2026-04-06T08:22:16.999Z</time></trkpt><trkpt lat="43.79564175831523" lon="11.20236464816924"><ele>41.0</ele><time>2026-04-06T08:22:17.999Z</time></trkpt><trkpt lat="43.79561937738591" lon="11.202189240824932"><ele>41.0</ele><time>2026-04-06T08:22:18.999Z</time></trkpt><trkpt lat="43.79559792621724" lon="11.20201390994122"><ele>41.0</ele><time>2026-04-06T08:22:19.999Z</time></trkpt><trkpt lat="43.79555649217582" lon="11.201842105408689"><ele>40.75</ele><time>2026-04-06T08:22:20.999Z</time></trkpt><trkpt lat="43.79554510935466" lon="11.201670497924654"><ele>40.5</ele><time>2026-04-06T08:22:21.999Z</time></trkpt><trkpt lat="43.79552782427649" lon="11.201498589726606"><ele>40.25</ele><time>2026-04-06T08:22:22.999Z</time></trkpt><trkpt lat="43.79550278980368" lon="11.201320929477411"><ele>40.0</ele><time>2026-04-06T08:22:23.999Z</time></trkpt><trkpt lat="43.79548897415579" lon="11.201129250446725"><ele>40.0</ele><time>2026-04-06T08:22:24.999Z</time></trkpt><trkpt lat="43.795464817921314" lon="11.200931766999128"><ele>40.0</ele><time>2026-04-06T08:22:25.999Z</time></trkpt><trkpt lat="43.7954390665886" lon="11.200737505150517"><ele>40.0</ele><time>2026-04-06T08:22:26.999Z</time></trkpt><trkpt lat="43.79541409039455" lon="11.200549090745447"><ele>40.0</ele><time>2026-04-06T08:22:27.999Z</time></trkpt><trkpt lat="43.7953625070077" lon="11.200369385426596"><ele>40.0</ele><time>2026-04-06T08:22:28.999Z</time></trkpt><trkpt lat="43.795337808101586" lon="11.200190645378868"><ele>40.0</ele><time>2026-04-06T08:22:29.999Z</time></trkpt><trkpt lat="43.79531446689609" lon="11.200013898666963"><ele>40.0</ele><time>2026-04-06T08:22:30.999Z</time></trkpt><trkpt lat="43.79529209633534" lon="11.199837999627345"><ele>40.0</ele><time>2026-04-06T08:22:31.999Z</time></trkpt><trkpt lat="43.79527117389777" lon="11.199663152371702"><ele>39.8</ele><time>2026-04-06T08:22:32.999Z</time></trkpt><trkpt lat="43.79525243209297" lon="11.199498452929229"><ele>39.6</ele><time>2026-04-06T08:22:33.999Z</time></trkpt><trkpt lat="43.79522976248321" lon="11.199342395946184"><ele>39.4</ele><time>2026-04-06T08:22:34.999Z</time></trkpt><trkpt lat="43.79520830327466" lon="11.199192800611863"><ele>39.2</ele><time>2026-04-06T08:22:35.999Z</time></trkpt><trkpt lat="43.79518860237931" lon="11.199053658268452"><ele>39.0</ele><time>2026-04-06T08:22:36.999Z</time></trkpt><trkpt lat="43.7951658641257" lon="11.198930693177298"><ele>39.0</ele><time>2026-04-06T08:22:37.999Z</time></trkpt><trkpt lat="43.79512748809322" lon="11.19882468163963"><ele>39.0</ele><time>2026-04-06T08:22:38.999Z</time></trkpt><trkpt lat="43.79517149453859" lon="11.198722657851464"><ele>39.0</ele><time>2026-04-06T08:22:39.999Z</time></trkpt><trkpt lat="43.79499918393779" lon="11.198762268520284"><ele>39.0</ele><time>2026-04-06T08:22:40.999Z</time></trkpt><trkpt lat="43.794920356331254" lon="11.198786585056352"><ele>39.0</ele><time>2026-04-06T08:22:41.999Z</time></trkpt><trkpt lat="43.794830955072726" lon="11.198822883677716"><ele>39.0</ele><time>2026-04-06T08:22:42.999Z</time></trkpt><trkpt lat="43.794708423261774" lon="11.198767597182977"><ele>39.0</ele><time>2026-04-06T08:22:43.999Z</time></trkpt><trkpt lat="43.79459812352882" lon="11.198772320828658"><ele>39.0</ele><time>2026-04-06T08:22:44.999Z</time></trkpt><trkpt lat="43.79448809324743" lon="11.198762353032857"><ele>39.0</ele><time>2026-04-06T08:22:45.999Z</time></trkpt><trkpt lat="43.79438533173922" lon="11.198753314133445"><ele>39.0</ele><time>2026-04-06T08:22:46.999Z</time></trkpt><trkpt lat="43.79429174488667" lon="11.198741817677709"><ele>39.0</ele><time>2026-04-06T08:22:47.999Z</time></trkpt><trkpt lat="43.79420141242229" lon="11.198729245296073"><ele>39.0</ele><time>2026-04-06T08:22:48.999Z</time></trkpt><trkpt lat="43.79411892209132" lon="11.198725245549408"><ele>39.0</ele><time>2026-04-06T08:22:50Z</time></trkpt><trkpt lat="43.794027057322346" lon="11.198715329478638"><ele>39.0</ele><time>2026-04-06T08:22:51Z</time></trkpt><trkpt lat="43.79393172740478" lon="11.19870556324551"><ele>39.0</ele><time>2026-04-06T08:22:52Z</time></trkpt><trkpt lat="43.79383306488314" lon="11.198694824862333"><ele>39.0</ele><time>2026-04-06T08:22:53Z</time></trkpt><trkpt lat="43.7937279676457" lon="11.19867809921322"><ele>39.0</ele><time>2026-04-06T08:22:54Z</time></trkpt><trkpt lat="43.79362934395496" lon="11.198650432461621"><ele>39.0</ele><time>2026-04-06T08:22:55Z</time></trkpt><trkpt lat="43.79351547188065" lon="11.198600583746712"><ele>39.0</ele><time>2026-04-06T08:22:56Z</time></trkpt><trkpt lat="43.7934063129809" lon="11.198536418365935"><ele>39.25</ele><time>2026-04-06T08:22:57Z</time></trkpt><trkpt lat="43.79329890474207" lon="11.198464347002435"><ele>39.5</ele><time>2026-04-06T08:22:58Z</time></trkpt><trkpt lat="43.79319219613725" lon="11.198390572719656"><ele>39.75</ele><time>2026-04-06T08:22:59Z</time></trkpt><trkpt lat="43.793084209420705" lon="11.198311420089116"><ele>40.0</ele><time>2026-04-06T08:23:00Z</time></trkpt><trkpt lat="43.79297685633012" lon="11.198227713862899"><ele>39.75</ele><time>2026-04-06T08:23:01Z</time></trkpt><trkpt lat="43.79287000582163" lon="11.198143746005275"><ele>39.5</ele><time>2026-04-06T08:23:02Z</time></trkpt><trkpt lat="43.79275466766439" lon="11.198056859550075"><ele>39.25</ele><time>2026-04-06T08:23:03Z</time></trkpt><trkpt lat="43.792638328939006" lon="11.197968775124691"><ele>39.0</ele><time>2026-04-06T08:23:04Z</time></trkpt><trkpt lat="43.792519570038046" lon="11.197880190055796"><ele>39.75</ele><time>2026-04-06T08:23:05Z</time></trkpt><trkpt lat="43.79239752990057" lon="11.19778963077022"><ele>40.5</ele><time>2026-04-06T08:23:06Z</time></trkpt><trkpt lat="43.79227786191761" lon="11.19770059364199"><ele>41.25</ele><time>2026-04-06T08:23:07Z</time></trkpt><trkpt lat="43.79215458005057" lon="11.197610861470242"><ele>42.0</ele><time>2026-04-06T08:23:08Z</time></trkpt><trkpt lat="43.79203026591882" lon="11.197521399705225"><ele>42.0</ele><time>2026-04-06T08:23:09Z</time></trkpt><trkpt lat="43.79190079997199" lon="11.197428379298707"><ele>42.0</ele><time>2026-04-06T08:23:10Z</time></trkpt><trkpt lat="43.79177200066843" lon="11.197336900569375"><ele>42.0</ele><time>2026-04-06T08:23:11Z</time></trkpt><trkpt lat="43.79164112235017" lon="11.197242061980893"><ele>42.0</ele><time>2026-04-06T08:23:12Z</time></trkpt><trkpt lat="43.791516873732554" lon="11.1971470695553"><ele>41.25</ele><time>2026-04-06T08:23:13Z</time></trkpt><trkpt lat="43.79138741291293" lon="11.197051623960458"><ele>40.5</ele><time>2026-04-06T08:23:14Z</time></trkpt><trkpt lat="43.791256544811475" lon="11.19695307903089"><ele>39.75</ele><time>2026-04-06T08:23:15Z</time></trkpt><trkpt lat="43.7911256484638" lon="11.196855142134256"><ele>39.0</ele><time>2026-04-06T08:23:16Z</time></trkpt><trkpt lat="43.790993981709555" lon="11.196754552669992"><ele>37.75</ele><time>2026-04-06T08:23:17Z</time></trkpt><trkpt lat="43.79086166624" lon="11.196655730375296"><ele>36.5</ele><time>2026-04-06T08:23:18Z</time></trkpt><trkpt lat="43.79073167546927" lon="11.196561736985876"><ele>35.25</ele><time>2026-04-06T08:23:19Z</time></trkpt><trkpt lat="43.790608568268375" lon="11.196472152385875"><ele>34.0</ele><time>2026-04-06T08:23:20Z</time></trkpt><trkpt lat="43.79048514588013" lon="11.196383487393968"><ele>34.0</ele><time>2026-04-06T08:23:21Z</time></trkpt><trkpt lat="43.79036423260985" lon="11.196296849873296"><ele>34.0</ele><time>2026-04-06T08:23:22Z</time></trkpt><trkpt lat="43.79023844318499" lon="11.196205752992007"><ele>34.0</ele><time>2026-04-06T08:23:23Z</time></trkpt><trkpt lat="43.790115551223394" lon="11.196115694048267"><ele>34.0</ele><time>2026-04-06T08:23:24Z</time></trkpt><trkpt lat="43.7899920133813" lon="11.196025615615262"><ele>32.5</ele><time>2026-04-06T08:23:25Z</time></trkpt><trkpt lat="43.78986948693201" lon="11.195935519295695"><ele>31.0</ele><time>2026-04-06T08:23:26Z</time></trkpt><trkpt lat="43.78975081741267" lon="11.195848822283555"><ele>29.5</ele><time>2026-04-06T08:23:27Z</time></trkpt><trkpt lat="43.78962865124574" lon="11.19575854709683"><ele>28.0</ele><time>2026-04-06T08:23:28Z</time></trkpt><trkpt lat="43.78950847126636" lon="11.19567055346179"><ele>29.0</ele><time>2026-04-06T08:23:29Z</time></trkpt><trkpt lat="43.789387964151956" lon="11.19558170607732"><ele>30.0</ele><time>2026-04-06T08:23:30Z</time></trkpt><trkpt lat="43.78927043665206" lon="11.195494539764523"><ele>31.0</ele><time>2026-04-06T08:23:31Z</time></trkpt><trkpt lat="43.78915126044723" lon="11.195409676386925"><ele>32.0</ele><time>2026-04-06T08:23:32Z</time></trkpt><trkpt lat="43.78903091514967" lon="11.195323939359414"><ele>34.25</ele><time>2026-04-06T08:23:33Z</time></trkpt><trkpt lat="43.78890631054367" lon="11.19523689462812"><ele>36.5</ele><time>2026-04-06T08:23:34Z</time></trkpt><trkpt lat="43.788780677610475" lon="11.195145353235452"><ele>38.75</ele><time>2026-04-06T08:23:35Z</time></trkpt><trkpt lat="43.78864606805182" lon="11.195052045705586"><ele>41.0</ele><time>2026-04-06T08:23:36Z</time></trkpt><trkpt lat="43.78851317311996" lon="11.194954398406976"><ele>41.0</ele><time>2026-04-06T08:23:37Z</time></trkpt><trkpt lat="43.78837849760409" lon="11.194857580219352"><ele>41.0</ele><time>2026-04-06T08:23:38Z</time></trkpt><trkpt lat="43.788241446728236" lon="11.194759211721236"><ele>41.0</ele><time>2026-04-06T08:23:39Z</time></trkpt><trkpt lat="43.788100272223495" lon="11.19465582213526"><ele>40.33333333333333</ele><time>2026-04-06T08:23:40Z</time></trkpt><trkpt lat="43.78796106796283" lon="11.194553857553753"><ele>39.666666666666664</ele><time>2026-04-06T08:23:41Z</time></trkpt><trkpt lat="43.787821064681985" lon="11.194453739975554"><ele>39.0</ele><time>2026-04-06T08:23:42Z</time></trkpt><trkpt lat="43.787674519855344" lon="11.194347879619967"><ele>38.666666666666664</ele><time>2026-04-06T08:23:43Z</time></trkpt><trkpt lat="43.78753249579806" lon="11.19424619518269"><ele>38.33333333333333</ele><time>2026-04-06T08:23:44Z</time></trkpt><trkpt lat="43.78739077197794" lon="11.19414375351412"><ele>38.0</ele><time>2026-04-06T08:23:45Z</time></trkpt><trkpt lat="43.7872546188368" lon="11.194045082003571"><ele>38.0</ele><time>2026-04-06T08:23:46Z</time></trkpt><trkpt lat="43.787106755036675" lon="11.193935737228701"><ele>38.0</ele><time>2026-04-06T08:23:47Z</time></trkpt><trkpt lat="43.78696399056921" lon="11.193830352583054"><ele>38.0</ele><time>2026-04-06T08:23:48Z</time></trkpt><trkpt lat="43.78682169685727" lon="11.193723365407783"><ele>38.0</ele><time>2026-04-06T08:23:49Z</time></trkpt><trkpt lat="43.78668164239086" lon="11.193610358835013"><ele>38.0</ele><time>2026-04-06T08:23:50Z</time></trkpt><trkpt lat="43.78654554814279" lon="11.193490630987625"><ele>38.0</ele><time>2026-04-06T08:23:51Z</time></trkpt><trkpt lat="43.78641484609677" lon="11.193364962122214"><ele>38.0</ele><time>2026-04-06T08:23:52Z</time></trkpt><trkpt lat="43.78628892580389" lon="11.193237118689481"><ele>38.0</ele><time>2026-04-06T08:23:53Z</time></trkpt><trkpt lat="43.78616939695629" lon="11.193107920698615"><ele>38.0</ele><time>2026-04-06T08:23:54Z</time></trkpt><trkpt lat="43.7860582477342" lon="11.192976678109694"><ele>38.25</ele><time>2026-04-06T08:23:55Z</time></trkpt><trkpt lat="43.78595059987386" lon="11.192839927002348"><ele>38.5</ele><time>2026-04-06T08:23:56Z</time></trkpt><trkpt lat="43.785846116455076" lon="11.192700386682372"><ele>38.75</ele><time>2026-04-06T08:23:57Z</time></trkpt><trkpt lat="43.78574227515402" lon="11.192546935361223"><ele>39.0</ele><time>2026-04-06T08:23:58Z</time></trkpt><trkpt lat="43.785640881188" lon="11.192387553187029"><ele>39.0</ele><time>2026-04-06T08:23:59Z</time></trkpt><trkpt lat="43.78554388856654" lon="11.192223365861004"><ele>39.0</ele><time>2026-04-06T08:23:59.999Z</time></trkpt><trkpt lat="43.78545469042281" lon="11.192057702285632"><ele>39.0</ele><time>2026-04-06T08:24:00.999Z</time></trkpt><trkpt lat="43.785365459549055" lon="11.191884923161435"><ele>39.0</ele><time>2026-04-06T08:24:01.999Z</time></trkpt><trkpt lat="43.78528068822477" lon="11.191706477785873"><ele>39.0</ele><time>2026-04-06T08:24:02.999Z</time></trkpt><trkpt lat="43.78519795924466" lon="11.191523338338182"><ele>39.0</ele><time>2026-04-06T08:24:03.999Z</time></trkpt><trkpt lat="43.78512032348828" lon="11.191340615905089"><ele>39.0</ele><time>2026-04-06T08:24:04.999Z</time></trkpt><trkpt lat="43.78504861157807" lon="11.191156006709646"><ele>39.0</ele><time>2026-04-06T08:24:05.999Z</time></trkpt><trkpt lat="43.78497250009934" lon="11.19097052946943"><ele>39.0</ele><time>2026-04-06T08:24:06.999Z</time></trkpt><trkpt lat="43.78489645910585" lon="11.190789808824947"><ele>38.75</ele><time>2026-04-06T08:24:07.999Z</time></trkpt><trkpt lat="43.78482228337823" lon="11.190613549972866"><ele>38.5</ele><time>2026-04-06T08:24:08.999Z</time></trkpt><trkpt lat="43.78475142515565" lon="11.19044560618257"><ele>38.25</ele><time>2026-04-06T08:24:09.999Z</time></trkpt><trkpt lat="43.78468134944312" lon="11.190281511838922"><ele>38.0</ele><time>2026-04-06T08:24:10.999Z</time></trkpt><trkpt lat="43.784613133878814" lon="11.190117088451496"><ele>38.0</ele><time>2026-04-06T08:24:11.999Z</time></trkpt><trkpt lat="43.78454642342396" lon="11.189958700616037"><ele>38.0</ele><time>2026-04-06T08:24:12.999Z</time></trkpt><trkpt lat="43.78447885339427" lon="11.189803587377787"><ele>38.0</ele><time>2026-04-06T08:24:13.999Z</time></trkpt><trkpt lat="43.784408603527325" lon="11.189651464820502"><ele>38.0</ele><time>2026-04-06T08:24:14.999Z</time></trkpt><trkpt lat="43.7843378046194" lon="11.189505621112446"><ele>38.75</ele><time>2026-04-06T08:24:15.999Z</time></trkpt><trkpt lat="43.78426422169196" lon="11.189367043102177"><ele>39.5</ele><time>2026-04-06T08:24:16.999Z</time></trkpt><trkpt lat="43.78418750395183" lon="11.18923795589301"><ele>40.25</ele><time>2026-04-06T08:24:17.999Z</time></trkpt><trkpt lat="43.78410607908496" lon="11.18911547158109"><ele>41.0</ele><time>2026-04-06T08:24:18.999Z</time></trkpt><trkpt lat="43.78401991328405" lon="11.188998615300386"><ele>41.25</ele><time>2026-04-06T08:24:19.999Z</time></trkpt><trkpt lat="43.78392803461384" lon="11.188883193274346"><ele>41.5</ele><time>2026-04-06T08:24:20.999Z</time></trkpt><trkpt lat="43.78382904190872" lon="11.188769992604835"><ele>41.75</ele><time>2026-04-06T08:24:21.999Z</time></trkpt><trkpt lat="43.783722667968235" lon="11.188663538745477"><ele>42.0</ele><time>2026-04-06T08:24:22.999Z</time></trkpt><trkpt lat="43.78360818007207" lon="11.188558869454262"><ele>42.0</ele><time>2026-04-06T08:24:23.999Z</time></trkpt><trkpt lat="43.78348947948258" lon="11.188457432325958"><ele>42.0</ele><time>2026-04-06T08:24:24.999Z</time></trkpt><trkpt lat="43.783359278217716" lon="11.188353297157049"><ele>42.0</ele><time>2026-04-06T08:24:25.999Z</time></trkpt><trkpt lat="43.78321846873275" lon="11.188247662014605"><ele>41.666666666666664</ele><time>2026-04-06T08:24:26.999Z</time></trkpt><trkpt lat="43.78307177282983" lon="11.188134356108439"><ele>41.33333333333333</ele><time>2026-04-06T08:24:27.999Z</time></trkpt><trkpt lat="43.78292077861911" lon="11.188011403587268"><ele>41.0</ele><time>2026-04-06T08:24:28.999Z</time></trkpt><trkpt lat="43.78277502439892" lon="11.187863070530954"><ele>40.666666666666664</ele><time>2026-04-06T08:24:29.999Z</time></trkpt><trkpt lat="43.78261823481249" lon="11.187730746241499"><ele>40.333333333333336</ele><time>2026-04-06T08:24:30.999Z</time></trkpt><trkpt lat="43.78246442269103" lon="11.187602116834974"><ele>40.0</ele><time>2026-04-06T08:24:31.999Z</time></trkpt><trkpt lat="43.782303861654405" lon="11.18746784346591"><ele>39.66666666666667</ele><time>2026-04-06T08:24:32.999Z</time></trkpt><trkpt lat="43.782147160654745" lon="11.187336100850345"><ele>39.333333333333336</ele><time>2026-04-06T08:24:33.999Z</time></trkpt><trkpt lat="43.78198989589889" lon="11.18720468603279"><ele>39.0</ele><time>2026-04-06T08:24:34.999Z</time></trkpt><trkpt lat="43.781827772114866" lon="11.18706912939835"><ele>39.0</ele><time>2026-04-06T08:24:35.999Z</time></trkpt><trkpt lat="43.78166247888093" lon="11.18693092271971"><ele>39.0</ele><time>2026-04-06T08:24:36.999Z</time></trkpt><trkpt lat="43.78149223952165" lon="11.186788580447713"><ele>39.0</ele><time>2026-04-06T08:24:37.999Z</time></trkpt><trkpt lat="43.78132555281972" lon="11.186649001124254"><ele>38.666666666666664</ele><time>2026-04-06T08:24:38.999Z</time></trkpt><trkpt lat="43.7811547669488" lon="11.186506124896347"><ele>38.33333333333333</ele><time>2026-04-06T08:24:39.999Z</time></trkpt><trkpt lat="43.78097671475879" lon="11.18638535232481"><ele>38.0</ele><time>2026-04-06T08:24:40.999Z</time></trkpt><trkpt lat="43.780806935197674" lon="11.186245332672465"><ele>38.0</ele><time>2026-04-06T08:24:41.999Z</time></trkpt><trkpt lat="43.780632555852705" lon="11.186105251537734"><ele>38.0</ele><time>2026-04-06T08:24:42.999Z</time></trkpt><trkpt lat="43.78045529332911" lon="11.185977969382092"><ele>38.0</ele><time>2026-04-06T08:24:43.999Z</time></trkpt><trkpt lat="43.78027302669553" lon="11.185871228670786"><ele>38.666666666666664</ele><time>2026-04-06T08:24:44.999Z</time></trkpt><trkpt lat="43.78008504426841" lon="11.185783335304833"><ele>39.333333333333336</ele><time>2026-04-06T08:24:45.999Z</time></trkpt><trkpt lat="43.77989270794116" lon="11.185718324389747"><ele>40.0</ele><time>2026-04-06T08:24:46.999Z</time></trkpt><trkpt lat="43.77969983156323" lon="11.185679260661045"><ele>40.0</ele><time>2026-04-06T08:24:47.999Z</time></trkpt><trkpt lat="43.77950855668855" lon="11.185665226551638"><ele>40.0</ele><time>2026-04-06T08:24:48.999Z</time></trkpt><trkpt lat="43.77931541122012" lon="11.18567298378539"><ele>40.0</ele><time>2026-04-06T08:24:49.999Z</time></trkpt><trkpt lat="43.77912696808044" lon="11.185696640666182"><ele>39.0</ele><time>2026-04-06T08:24:50.999Z</time></trkpt><trkpt lat="43.778943345630196" lon="11.185742452009015"><ele>38.0</ele><time>2026-04-06T08:24:51.999Z</time></trkpt><trkpt lat="43.778759837455894" lon="11.185807068838908"><ele>37.0</ele><time>2026-04-06T08:24:52.999Z</time></trkpt><trkpt lat="43.7785820740244" lon="11.185891189494395"><ele>36.66666666666667</ele><time>2026-04-06T08:24:53.999Z</time></trkpt><trkpt lat="43.77840076585669" lon="11.185991863948631"><ele>36.333333333333336</ele><time>2026-04-06T08:24:54.999Z</time></trkpt><trkpt lat="43.778215745340965" lon="11.18610420972243"><ele>36.0</ele><time>2026-04-06T08:24:56Z</time></trkpt><trkpt lat="43.77802784473943" lon="11.186223169769736"><ele>36.0</ele><time>2026-04-06T08:24:57Z</time></trkpt><trkpt lat="43.77783934349836" lon="11.186342057671228"><ele>36.0</ele><time>2026-04-06T08:24:58Z</time></trkpt><trkpt lat="43.77764965427638" lon="11.186458277721467"><ele>36.0</ele><time>2026-04-06T08:24:59Z</time></trkpt><trkpt lat="43.77745065086882" lon="11.186564207696486"><ele>35.666666666666664</ele><time>2026-04-06T08:25:00Z</time></trkpt><trkpt lat="43.77724683822727" lon="11.186655192462423"><ele>35.33333333333333</ele><time>2026-04-06T08:25:01Z</time></trkpt><trkpt lat="43.7770402106766" lon="11.186721411892158"><ele>35.0</ele><time>2026-04-06T08:25:02Z</time></trkpt><trkpt lat="43.77682549796249" lon="11.186770329782627"><ele>35.0</ele><time>2026-04-06T08:25:03Z</time></trkpt><trkpt lat="43.77661084899046" lon="11.186802271631498"><ele>35.0</ele><time>2026-04-06T08:25:04Z</time></trkpt><trkpt lat="43.7763955882558" lon="11.186823300460114"><ele>35.0</ele><time>2026-04-06T08:25:05Z</time></trkpt><trkpt lat="43.77617955548493" lon="11.1867969070347"><ele>35.666666666666664</ele><time>2026-04-06T08:25:06Z</time></trkpt><trkpt lat="43.77596193376234" lon="11.186782503151372"><ele>36.333333333333336</ele><time>2026-04-06T08:25:07Z</time></trkpt><trkpt lat="43.775747110089526" lon="11.18677885485162"><ele>37.0</ele><time>2026-04-06T08:25:08Z</time></trkpt><trkpt lat="43.77553094889929" lon="11.18675935011043"><ele>37.0</ele><time>2026-04-06T08:25:09Z</time></trkpt><trkpt lat="43.775319077957356" lon="11.186736146433049"><ele>37.0</ele><time>2026-04-06T08:25:10Z</time></trkpt><trkpt lat="43.77511600819654" lon="11.186715604153065"><ele>37.0</ele><time>2026-04-06T08:25:11Z</time></trkpt><trkpt lat="43.77490722861826" lon="11.186694474575653"><ele>37.0</ele><time>2026-04-06T08:25:12Z</time></trkpt><trkpt lat="43.774698504382215" lon="11.186671242101202"><ele>37.0</ele><time>2026-04-06T08:25:13Z</time></trkpt><trkpt lat="43.77449437344593" lon="11.186644854910583"><ele>37.0</ele><time>2026-04-06T08:25:14Z</time></trkpt><trkpt lat="43.77428905855593" lon="11.186611225517856"><ele>37.0</ele><time>2026-04-06T08:25:15Z</time></trkpt><trkpt lat="43.774085026846336" lon="11.186574364391873"><ele>37.0</ele><time>2026-04-06T08:25:16Z</time></trkpt><trkpt lat="43.77388370304374" lon="11.186537174817952"><ele>37.0</ele><time>2026-04-06T08:25:17Z</time></trkpt><trkpt lat="43.77368926868618" lon="11.186501755854238"><ele>37.0</ele><time>2026-04-06T08:25:18Z</time></trkpt><trkpt lat="43.77350020027692" lon="11.186471086495846"><ele>37.0</ele><time>2026-04-06T08:25:19Z</time></trkpt><trkpt lat="43.77331626881193" lon="11.18644790396197"><ele>37.0</ele><time>2026-04-06T08:25:20Z</time></trkpt><trkpt lat="43.773137491039556" lon="11.186431643385976"><ele>37.0</ele><time>2026-04-06T08:25:21Z</time></trkpt><trkpt lat="43.77296486046499" lon="11.186417525286995"><ele>37.0</ele><time>2026-04-06T08:25:22Z</time></trkpt><trkpt lat="43.77279559024124" lon="11.186405490799983"><ele>37.0</ele><time>2026-04-06T08:25:23Z</time></trkpt><trkpt lat="43.772634713293264" lon="11.186397367431292"><ele>37.333333333333336</ele><time>2026-04-06T08:25:24Z</time></trkpt><trkpt lat="43.77248159831661" lon="11.186399711041226"><ele>37.666666666666664</ele><time>2026-04-06T08:25:25Z</time></trkpt><trkpt lat="43.772328733137456" lon="11.186423914708394"><ele>38.0</ele><time>2026-04-06T08:25:26Z</time></trkpt><trkpt lat="43.7721849130575" lon="11.186469546822467"><ele>38.0</ele><time>2026-04-06T08:25:27Z</time></trkpt><trkpt lat="43.77204205181634" lon="11.1865260970497"><ele>38.0</ele><time>2026-04-06T08:25:28Z</time></trkpt><trkpt lat="43.77190108482133" lon="11.186585460554191"><ele>38.0</ele><time>2026-04-06T08:25:29Z</time></trkpt><trkpt lat="43.77176734995238" lon="11.186645906147145"><ele>38.0</ele><time>2026-04-06T08:25:30Z</time></trkpt><trkpt lat="43.77164270893957" lon="11.186708085065126"><ele>38.25</ele><time>2026-04-06T08:25:31Z</time></trkpt><trkpt lat="43.77152239544076" lon="11.186766295704155"><ele>38.5</ele><time>2026-04-06T08:25:32Z</time></trkpt><trkpt lat="43.7714060286262" lon="11.18681340273591"><ele>38.75</ele><time>2026-04-06T08:25:33Z</time></trkpt><trkpt lat="43.771293168265245" lon="11.186836458429791"><ele>39.0</ele><time>2026-04-06T08:25:34Z</time></trkpt><trkpt lat="43.77119165825972" lon="11.186833984866096"><ele>39.0</ele><time>2026-04-06T08:25:35Z</time></trkpt><trkpt lat="43.77109916396515" lon="11.186813924669963"><ele>39.0</ele><time>2026-04-06T08:25:36Z</time></trkpt><trkpt lat="43.77101210121709" lon="11.186766720673958"><ele>39.0</ele><time>2026-04-06T08:25:37Z</time></trkpt><trkpt lat="43.77092599407531" lon="11.186733533079703"><ele>39.0</ele><time>2026-04-06T08:25:38Z</time></trkpt><trkpt lat="43.77087588375499" lon="11.18655537552253"><ele>39.0</ele><time>2026-04-06T08:25:39Z</time></trkpt><trkpt lat="43.770842355168575" lon="11.186404146486435"><ele>39.0</ele><time>2026-04-06T08:25:40Z</time></trkpt><trkpt lat="43.77082520921338" lon="11.186243587547395"><ele>39.0</ele><time>2026-04-06T08:25:41Z</time></trkpt><trkpt lat="43.7708094651901" lon="11.186087287155484"><ele>39.0</ele><time>2026-04-06T08:25:42Z</time></trkpt><trkpt lat="43.770790202130954" lon="11.18593863026844"><ele>39.0</ele><time>2026-04-06T08:25:43Z</time></trkpt><trkpt lat="43.77076805320705" lon="11.185800223919712"><ele>39.0</ele><time>2026-04-06T08:25:44Z</time></trkpt><trkpt lat="43.77074645293692" lon="11.185676517046224"><ele>38.8</ele><time>2026-04-06T08:25:45Z</time></trkpt><trkpt lat="43.77072527668035" lon="11.18554114798909"><ele>38.599999999999994</ele><time>2026-04-06T08:25:46Z</time></trkpt><trkpt lat="43.77070494642786" lon="11.185399490320494"><ele>38.4</ele><time>2026-04-06T08:25:47Z</time></trkpt><trkpt lat="43.77068547170343" lon="11.18524729012647"><ele>38.199999999999996</ele><time>2026-04-06T08:25:48Z</time></trkpt><trkpt lat="43.77066543593114" lon="11.18509204559334"><ele>38.0</ele><time>2026-04-06T08:25:49Z</time></trkpt><trkpt lat="43.77064533057145" lon="11.184938586966618"><ele>38.25</ele><time>2026-04-06T08:25:50Z</time></trkpt><trkpt lat="43.77062425896549" lon="11.184782412567278"><ele>38.5</ele><time>2026-04-06T08:25:51Z</time></trkpt><trkpt lat="43.770605148915415" lon="11.184628093538135"><ele>38.75</ele><time>2026-04-06T08:25:52Z</time></trkpt><trkpt lat="43.77058296802779" lon="11.184463213228746"><ele>39.0</ele><time>2026-04-06T08:25:53Z</time></trkpt><trkpt lat="43.77055803900431" lon="11.18429468833572"><ele>39.0</ele><time>2026-04-06T08:25:54Z</time></trkpt><trkpt lat="43.770531035848386" lon="11.184117388503036"><ele>39.0</ele><time>2026-04-06T08:25:55Z</time></trkpt><trkpt lat="43.77050386535115" lon="11.183934459933118"><ele>39.0</ele><time>2026-04-06T08:25:56Z</time></trkpt><trkpt lat="43.77047632288688" lon="11.18373500264154"><ele>39.0</ele><time>2026-04-06T08:25:57Z</time></trkpt><trkpt lat="43.77045337317949" lon="11.183527992384935"><ele>39.0</ele><time>2026-04-06T08:25:58Z</time></trkpt><trkpt lat="43.7704279423416" lon="11.183306805306735"><ele>39.0</ele><time>2026-04-06T08:25:59Z</time></trkpt><trkpt lat="43.77040526629775" lon="11.18308068636102"><ele>39.0</ele><time>2026-04-06T08:26:00Z</time></trkpt><trkpt lat="43.7703806596627" lon="11.182852242213954"><ele>39.0</ele><time>2026-04-06T08:26:00.999Z</time></trkpt><trkpt lat="43.770357932242646" lon="11.182614064061358"><ele>39.0</ele><time>2026-04-06T08:26:01.999Z</time></trkpt><trkpt lat="43.77033593120155" lon="11.182362408915875"><ele>39.0</ele><time>2026-04-06T08:26:02.999Z</time></trkpt><trkpt lat="43.77031604781576" lon="11.182110124201424"><ele>38.666666666666664</ele><time>2026-04-06T08:26:03.999Z</time></trkpt><trkpt lat="43.77030152323812" lon="11.181860041477224"><ele>38.33333333333333</ele><time>2026-04-06T08:26:04.999Z</time></trkpt><trkpt lat="43.77029167626536" lon="11.181607653809326"><ele>38.0</ele><time>2026-04-06T08:26:05.999Z</time></trkpt><trkpt lat="43.7702853250917" lon="11.181350499078029"><ele>37.666666666666664</ele><time>2026-04-06T08:26:06.999Z</time></trkpt><trkpt lat="43.77027915462864" lon="11.181104432343453"><ele>37.333333333333336</ele><time>2026-04-06T08:26:07.999Z</time></trkpt><trkpt lat="43.77027294935866" lon="11.180852985877408"><ele>37.0</ele><time>2026-04-06T08:26:08.999Z</time></trkpt><trkpt lat="43.77026969552092" lon="11.180603329434788"><ele>36.333333333333336</ele><time>2026-04-06T08:26:09.999Z</time></trkpt><trkpt lat="43.7702685014328" lon="11.180353404967974"><ele>35.666666666666664</ele><time>2026-04-06T08:26:10.999Z</time></trkpt><trkpt lat="43.77027056174629" lon="11.180096560221696"><ele>35.0</ele><time>2026-04-06T08:26:11.999Z</time></trkpt><trkpt lat="43.77027494823329" lon="11.179834886420332"><ele>35.0</ele><time>2026-04-06T08:26:12.999Z</time></trkpt><trkpt lat="43.770282059229004" lon="11.179572958681119"><ele>35.0</ele><time>2026-04-06T08:26:13.999Z</time></trkpt><trkpt lat="43.77029124753142" lon="11.179305162558933"><ele>35.0</ele><time>2026-04-06T08:26:14.999Z</time></trkpt><trkpt lat="43.77030016047595" lon="11.179039027134781"><ele>36.33333333333333</ele><time>2026-04-06T08:26:15.999Z</time></trkpt><trkpt lat="43.7703095280072" lon="11.178765666955579"><ele>37.666666666666664</ele><time>2026-04-06T08:26:16.999Z</time></trkpt><trkpt lat="43.77032036167245" lon="11.178498225945155"><ele>39.0</ele><time>2026-04-06T08:26:17.999Z</time></trkpt><trkpt lat="43.77033550965282" lon="11.178218504508935"><ele>39.0</ele><time>2026-04-06T08:26:18.999Z</time></trkpt><trkpt lat="43.770354188386904" lon="11.177936268292216"><ele>39.0</ele><time>2026-04-06T08:26:19.999Z</time></trkpt><trkpt lat="43.7703754355684" lon="11.17765055765061"><ele>39.0</ele><time>2026-04-06T08:26:20.999Z</time></trkpt><trkpt lat="43.77039828039417" lon="11.177358806053363"><ele>38.333333333333336</ele><time>2026-04-06T08:26:21.999Z</time></trkpt><trkpt lat="43.770424158657924" lon="11.177065642873268"><ele>37.66666666666667</ele><time>2026-04-06T08:26:22.999Z</time></trkpt><trkpt lat="43.770452804695154" lon="11.176768483553904"><ele>37.0</ele><time>2026-04-06T08:26:23.999Z</time></trkpt><trkpt lat="43.77048534670709" lon="11.17646786416552"><ele>37.0</ele><time>2026-04-06T08:26:24.999Z</time></trkpt><trkpt lat="43.770522336750005" lon="11.176165025396408"><ele>37.0</ele><time>2026-04-06T08:26:25.999Z</time></trkpt><trkpt lat="43.77056141199222" lon="11.175860374216715"><ele>37.0</ele><time>2026-04-06T08:26:26.999Z</time></trkpt><trkpt lat="43.77060288172554" lon="11.17555505035756"><ele>37.5</ele><time>2026-04-06T08:26:27.999Z</time></trkpt><trkpt lat="43.770645526160614" lon="11.175247120659042"><ele>38.0</ele><time>2026-04-06T08:26:28.999Z</time></trkpt><trkpt lat="43.77069044003433" lon="11.174935686135818"><ele>37.5</ele><time>2026-04-06T08:26:29.999Z</time></trkpt><trkpt lat="43.77073742296069" lon="11.174623132854379"><ele>37.0</ele><time>2026-04-06T08:26:30.999Z</time></trkpt><trkpt lat="43.77078591709499" lon="11.174308861101085"><ele>36.0</ele><time>2026-04-06T08:26:31.999Z</time></trkpt><trkpt lat="43.77083779185232" lon="11.17399481015686"><ele>35.0</ele><time>2026-04-06T08:26:32.999Z</time></trkpt><trkpt lat="43.77089046642253" lon="11.173681101798866"><ele>35.0</ele><time>2026-04-06T08:26:33.999Z</time></trkpt><trkpt lat="43.77094489265266" lon="11.173365612759422"><ele>35.0</ele><time>2026-04-06T08:26:34.999Z</time></trkpt><trkpt lat="43.770997985752615" lon="11.173050383748938"><ele>36.0</ele><time>2026-04-06T08:26:35.999Z</time></trkpt><trkpt lat="43.77105085512455" lon="11.172733349970978"><ele>37.0</ele><time>2026-04-06T08:26:36.999Z</time></trkpt><trkpt lat="43.7711019767335" lon="11.172414179498254"><ele>36.5</ele><time>2026-04-06T08:26:37.999Z</time></trkpt><trkpt lat="43.77115353479488" lon="11.172086746035966"><ele>36.0</ele><time>2026-04-06T08:26:38.999Z</time></trkpt><trkpt lat="43.7712079723401" lon="11.171762292728054"><ele>35.0</ele><time>2026-04-06T08:26:39.999Z</time></trkpt><trkpt lat="43.77126820900564" lon="11.171434484135798"><ele>34.0</ele><time>2026-04-06T08:26:40.999Z</time></trkpt><trkpt lat="43.771329776480506" lon="11.171104006692827"><ele>34.0</ele><time>2026-04-06T08:26:41.999Z</time></trkpt><trkpt lat="43.771393162041484" lon="11.170771183384906"><ele>34.0</ele><time>2026-04-06T08:26:42.999Z</time></trkpt><trkpt lat="43.771456749467106" lon="11.170436194139667"><ele>35.0</ele><time>2026-04-06T08:26:43.999Z</time></trkpt><trkpt lat="43.77151915412867" lon="11.17010059205569"><ele>36.0</ele><time>2026-04-06T08:26:44.999Z</time></trkpt><trkpt lat="43.77158211430668" lon="11.169764677904439"><ele>36.0</ele><time>2026-04-06T08:26:45.999Z</time></trkpt><trkpt lat="43.77164626748676" lon="11.169423113286232"><ele>36.0</ele><time>2026-04-06T08:26:46.999Z</time></trkpt><trkpt lat="43.77171006796129" lon="11.169079243520711"><ele>36.0</ele><time>2026-04-06T08:26:47.999Z</time></trkpt><trkpt lat="43.77177241773046" lon="11.168731868691275"><ele>36.0</ele><time>2026-04-06T08:26:48.999Z</time></trkpt><trkpt lat="43.77183681900082" lon="11.168381749084206"><ele>35.0</ele><time>2026-04-06T08:26:49.999Z</time></trkpt><trkpt lat="43.771903270291865" lon="11.168032091066117"><ele>34.0</ele><time>2026-04-06T08:26:50.999Z</time></trkpt><trkpt lat="43.77197001928149" lon="11.167678612386096"><ele>36.0</ele><time>2026-04-06T08:26:51.999Z</time></trkpt><trkpt lat="43.77203475941011" lon="11.167327454975702"><ele>38.0</ele><time>2026-04-06T08:26:52.999Z</time></trkpt><trkpt lat="43.772101754915084" lon="11.166972113882759"><ele>38.0</ele><time>2026-04-06T08:26:53.999Z</time></trkpt><trkpt lat="43.77216641705109" lon="11.166623873678386"><ele>38.0</ele><time>2026-04-06T08:26:54.999Z</time></trkpt><trkpt lat="43.77223058958998" lon="11.166276659493576"><ele>38.0</ele><time>2026-04-06T08:26:55.999Z</time></trkpt><trkpt lat="43.77229248184278" lon="11.16593300118574"><ele>38.0</ele><time>2026-04-06T08:26:56.999Z</time></trkpt><trkpt lat="43.77235547555729" lon="11.16559420872217"><ele>36.0</ele><time>2026-04-06T08:26:57.999Z</time></trkpt><trkpt lat="43.77241753691331" lon="11.165260877827697"><ele>34.0</ele><time>2026-04-06T08:26:58.999Z</time></trkpt><trkpt lat="43.772480053677555" lon="11.164928090696517"><ele>34.0</ele><time>2026-04-06T08:26:59.999Z</time></trkpt><trkpt lat="43.77254239561075" lon="11.164595325542285"><ele>34.0</ele><time>2026-04-06T08:27:00.999Z</time></trkpt><trkpt lat="43.77260348729337" lon="11.164267150148245"><ele>34.5</ele><time>2026-04-06T08:27:02Z</time></trkpt><trkpt lat="43.772665480255775" lon="11.163937610484492"><ele>35.0</ele><time>2026-04-06T08:27:03Z</time></trkpt><trkpt lat="43.772728123950316" lon="11.163605500441951"><ele>35.0</ele><time>2026-04-06T08:27:04Z</time></trkpt><trkpt lat="43.77278897848099" lon="11.163275471688108"><ele>35.0</ele><time>2026-04-06T08:27:05Z</time></trkpt><trkpt lat="43.77284833426353" lon="11.162946891436219"><ele>35.0</ele><time>2026-04-06T08:27:06Z</time></trkpt><trkpt lat="43.77290923436317" lon="11.162617147408922"><ele>35.0</ele><time>2026-04-06T08:27:07Z</time></trkpt><trkpt lat="43.77296762702275" lon="11.162293131069141"><ele>35.0</ele><time>2026-04-06T08:27:08Z</time></trkpt><trkpt lat="43.773024646487826" lon="11.16197815134911"><ele>35.0</ele><time>2026-04-06T08:27:09Z</time></trkpt><trkpt lat="43.7730796453905" lon="11.161674928276318"><ele>35.33333333333333</ele><time>2026-04-06T08:27:10Z</time></trkpt><trkpt lat="43.773134284199195" lon="11.16138917733626"><ele>35.666666666666664</ele><time>2026-04-06T08:27:11Z</time></trkpt><trkpt lat="43.773183833852165" lon="11.161119520219705"><ele>36.0</ele><time>2026-04-06T08:27:12Z</time></trkpt><trkpt lat="43.77322977332243" lon="11.160864104412555"><ele>36.333333333333336</ele><time>2026-04-06T08:27:13Z</time></trkpt><trkpt lat="43.773277206968814" lon="11.160612712154249"><ele>36.66666666666667</ele><time>2026-04-06T08:27:14Z</time></trkpt><trkpt lat="43.7733215474418" lon="11.160372223574354"><ele>37.0</ele><time>2026-04-06T08:27:15Z</time></trkpt><trkpt lat="43.77336480001007" lon="11.160135905404381"><ele>37.0</ele><time>2026-04-06T08:27:16Z</time></trkpt><trkpt lat="43.773408341239495" lon="11.159897731134738"><ele>37.0</ele><time>2026-04-06T08:27:17Z</time></trkpt><trkpt lat="43.77345271198954" lon="11.159661223804887"><ele>37.0</ele><time>2026-04-06T08:27:18Z</time></trkpt><trkpt lat="43.77349709715447" lon="11.159425845673995"><ele>36.333333333333336</ele><time>2026-04-06T08:27:19Z</time></trkpt><trkpt lat="43.7735407308483" lon="11.159191968733408"><ele>35.666666666666664</ele><time>2026-04-06T08:27:20Z</time></trkpt><trkpt lat="43.77358232050111" lon="11.158966523354247"><ele>35.0</ele><time>2026-04-06T08:27:21Z</time></trkpt><trkpt lat="43.7736242327097" lon="11.158732410433307"><ele>35.0</ele><time>2026-04-06T08:27:22Z</time></trkpt><trkpt lat="43.77367029741256" lon="11.158485740076035"><ele>35.0</ele><time>2026-04-06T08:27:23Z</time></trkpt><trkpt lat="43.77371821125343" lon="11.158233488482109"><ele>35.0</ele><time>2026-04-06T08:27:24Z</time></trkpt><trkpt lat="43.77376684444074" lon="11.157977664107113"><ele>35.0</ele><time>2026-04-06T08:27:25Z</time></trkpt><trkpt lat="43.773814220496156" lon="11.157715628958027"><ele>35.0</ele><time>2026-04-06T08:27:26Z</time></trkpt><trkpt lat="43.77386066074095" lon="11.157450590490178"><ele>35.0</ele><time>2026-04-06T08:27:27Z</time></trkpt><trkpt lat="43.77390629148066" lon="11.157180783480316"><ele>35.33333333333333</ele><time>2026-04-06T08:27:28Z</time></trkpt><trkpt lat="43.77394869217938" lon="11.156905822508064"><ele>35.666666666666664</ele><time>2026-04-06T08:27:29Z</time></trkpt><trkpt lat="43.773985385149736" lon="11.15662753385856"><ele>36.0</ele><time>2026-04-06T08:27:30Z</time></trkpt><trkpt lat="43.77402400267068" lon="11.156333109947175"><ele>36.0</ele><time>2026-04-06T08:27:31Z</time></trkpt><trkpt lat="43.7740581096762" lon="11.156037147358651"><ele>36.0</ele><time>2026-04-06T08:27:32Z</time></trkpt><trkpt lat="43.77408264416953" lon="11.155730166549821"><ele>36.0</ele><time>2026-04-06T08:27:33Z</time></trkpt><trkpt lat="43.77410655230708" lon="11.155428375527652"><ele>36.0</ele><time>2026-04-06T08:27:34Z</time></trkpt><trkpt lat="43.77412878290797" lon="11.155122754844513"><ele>36.0</ele><time>2026-04-06T08:27:35Z</time></trkpt><trkpt lat="43.77414765410647" lon="11.15480935167313"><ele>36.0</ele><time>2026-04-06T08:27:36Z</time></trkpt><trkpt lat="43.77416150511237" lon="11.154498775466104"><ele>36.0</ele><time>2026-04-06T08:27:37Z</time></trkpt><trkpt lat="43.774166039614194" lon="11.154182313756158"><ele>36.0</ele><time>2026-04-06T08:27:38Z</time></trkpt><trkpt lat="43.774163042949866" lon="11.153872817046704"><ele>36.333333333333336</ele><time>2026-04-06T08:27:39Z</time></trkpt><trkpt lat="43.77415869631892" lon="11.153573141658295"><ele>36.66666666666667</ele><time>2026-04-06T08:27:40Z</time></trkpt><trkpt lat="43.77415509433225" lon="11.153286626282139"><ele>37.0</ele><time>2026-04-06T08:27:41Z</time></trkpt><trkpt lat="43.77414753660249" lon="11.153001915323756"><ele>36.66666666666667</ele><time>2026-04-06T08:27:42Z</time></trkpt><trkpt lat="43.77414025249085" lon="11.15273078177389"><ele>36.333333333333336</ele><time>2026-04-06T08:27:43Z</time></trkpt><trkpt lat="43.77413589978877" lon="11.152464844166335"><ele>36.0</ele><time>2026-04-06T08:27:44Z</time></trkpt><trkpt lat="43.77413135755985" lon="11.152206129530338"><ele>36.0</ele><time>2026-04-06T08:27:45Z</time></trkpt><trkpt lat="43.77412667187383" lon="11.15195302525625"><ele>36.0</ele><time>2026-04-06T08:27:46Z</time></trkpt><trkpt lat="43.77412177735531" lon="11.151709449214062"><ele>36.0</ele><time>2026-04-06T08:27:47Z</time></trkpt><trkpt lat="43.77411783775422" lon="11.151479781574421"><ele>36.333333333333336</ele><time>2026-04-06T08:27:48Z</time></trkpt><trkpt lat="43.7741138786876" lon="11.151242321952422"><ele>36.66666666666667</ele><time>2026-04-06T08:27:49Z</time></trkpt><trkpt lat="43.77411011428854" lon="11.151001480619286"><ele>37.0</ele><time>2026-04-06T08:27:50Z</time></trkpt><trkpt lat="43.774106229744724" lon="11.15075814234732"><ele>36.0</ele><time>2026-04-06T08:27:51Z</time></trkpt><trkpt lat="43.774102350950685" lon="11.150511442283412"><ele>35.0</ele><time>2026-04-06T08:27:52Z</time></trkpt><trkpt lat="43.77409788286141" lon="11.150259288770657"><ele>34.0</ele><time>2026-04-06T08:27:53Z</time></trkpt><trkpt lat="43.774092271697704" lon="11.150002792599068"><ele>34.333333333333336</ele><time>2026-04-06T08:27:54Z</time></trkpt><trkpt lat="43.774087137954496" lon="11.149739151112291"><ele>34.666666666666664</ele><time>2026-04-06T08:27:55Z</time></trkpt><trkpt lat="43.77408177642021" lon="11.149471814604714"><ele>35.0</ele><time>2026-04-06T08:27:56Z</time></trkpt><trkpt lat="43.774077768642194" lon="11.149202848961139"><ele>35.0</ele><time>2026-04-06T08:27:57Z</time></trkpt><trkpt lat="43.77407350710555" lon="11.148926217315115"><ele>35.0</ele><time>2026-04-06T08:27:58Z</time></trkpt><trkpt lat="43.77406827319211" lon="11.148638395149515"><ele>35.0</ele><time>2026-04-06T08:27:59Z</time></trkpt><trkpt lat="43.774062261786604" lon="11.14834791254283"><ele>34.33333333333333</ele><time>2026-04-06T08:28:00Z</time></trkpt><trkpt lat="43.774056430782686" lon="11.148045555057502"><ele>33.666666666666664</ele><time>2026-04-06T08:28:01Z</time></trkpt><trkpt lat="43.77405001101802" lon="11.147738239388651"><ele>33.0</ele><time>2026-04-06T08:28:02Z</time></trkpt><trkpt lat="43.77404433929454" lon="11.147424589098051"><ele>33.5</ele><time>2026-04-06T08:28:03Z</time></trkpt><trkpt lat="43.774038926722106" lon="11.147109509743634"><ele>34.0</ele><time>2026-04-06T08:28:04Z</time></trkpt><trkpt lat="43.774032860754346" lon="11.14679834704843"><ele>33.66666666666667</ele><time>2026-04-06T08:28:05Z</time></trkpt><trkpt lat="43.77402731617606" lon="11.146488090044631"><ele>33.333333333333336</ele><time>2026-04-06T08:28:06Z</time></trkpt><trkpt lat="43.77402331849259" lon="11.146186918745771"><ele>33.0</ele><time>2026-04-06T08:28:07Z</time></trkpt><trkpt lat="43.77401919207164" lon="11.145886773555224"><ele>34.0</ele><time>2026-04-06T08:28:08Z</time></trkpt><trkpt lat="43.77401445216779" lon="11.145594728619118"><ele>35.0</ele><time>2026-04-06T08:28:09Z</time></trkpt><trkpt lat="43.77400924889902" lon="11.14531095858991"><ele>36.0</ele><time>2026-04-06T08:28:10Z</time></trkpt><trkpt lat="43.77400325851998" lon="11.145041792581306"><ele>35.666666666666664</ele><time>2026-04-06T08:28:11Z</time></trkpt><trkpt lat="43.77399787424707" lon="11.144783511843766"><ele>35.33333333333333</ele><time>2026-04-06T08:28:12Z</time></trkpt><trkpt lat="43.7739926781772" lon="11.144528493491107"><ele>35.0</ele><time>2026-04-06T08:28:13Z</time></trkpt><trkpt lat="43.77398851930875" lon="11.144271940682733"><ele>35.33333333333333</ele><time>2026-04-06T08:28:14Z</time></trkpt><trkpt lat="43.77398457383625" lon="11.144012431371578"><ele>35.666666666666664</ele><time>2026-04-06T08:28:15Z</time></trkpt><trkpt lat="43.773980759364605" lon="11.143751259503825"><ele>36.0</ele><time>2026-04-06T08:28:16Z</time></trkpt><trkpt lat="43.7739762989114" lon="11.143483535536438"><ele>36.666666666666664</ele><time>2026-04-06T08:28:17Z</time></trkpt><trkpt lat="43.773971623074" lon="11.143211348003666"><ele>37.33333333333333</ele><time>2026-04-06T08:28:18Z</time></trkpt><trkpt lat="43.7739638862452" lon="11.142937169288317"><ele>38.0</ele><time>2026-04-06T08:28:19Z</time></trkpt><trkpt lat="43.77395415281583" lon="11.142656704916838"><ele>37.33333333333333</ele><time>2026-04-06T08:28:20Z</time></trkpt><trkpt lat="43.77394254078576" lon="11.142365088357632"><ele>36.666666666666664</ele><time>2026-04-06T08:28:20.999Z</time></trkpt><trkpt lat="43.77392732351705" lon="11.142073228003877"><ele>36.0</ele><time>2026-04-06T08:28:21.999Z</time></trkpt><trkpt lat="43.7739110075707" lon="11.141782330098914"><ele>36.333333333333336</ele><time>2026-04-06T08:28:22.999Z</time></trkpt><trkpt lat="43.77389279507739" lon="11.141483343803586"><ele>36.66666666666667</ele><time>2026-04-06T08:28:23.999Z</time></trkpt><trkpt lat="43.773872468733764" lon="11.141181304019414"><ele>37.0</ele><time>2026-04-06T08:28:24.999Z</time></trkpt><trkpt lat="43.77385095151692" lon="11.140880172865163"><ele>37.0</ele><time>2026-04-06T08:28:25.999Z</time></trkpt><trkpt lat="43.773828327677855" lon="11.140577453558068"><ele>37.0</ele><time>2026-04-06T08:28:26.999Z</time></trkpt><trkpt lat="43.77380501213193" lon="11.14027213967807"><ele>37.0</ele><time>2026-04-06T08:28:27.999Z</time></trkpt><trkpt lat="43.77378434973011" lon="11.139982071892847"><ele>36.66666666666667</ele><time>2026-04-06T08:28:28.999Z</time></trkpt><trkpt lat="43.77376420187881" lon="11.139681827626227"><ele>36.333333333333336</ele><time>2026-04-06T08:28:29.999Z</time></trkpt><trkpt lat="43.77374180298344" lon="11.139386801539594"><ele>36.0</ele><time>2026-04-06T08:28:30.999Z</time></trkpt><trkpt lat="43.77371994647609" lon="11.139097338239477"><ele>35.333333333333336</ele><time>2026-04-06T08:28:31.999Z</time></trkpt><trkpt lat="43.77369744070111" lon="11.138803411777989"><ele>34.66666666666667</ele><time>2026-04-06T08:28:32.999Z</time></trkpt><trkpt lat="43.77367681909227" lon="11.138513070460478"><ele>34.0</ele><time>2026-04-06T08:28:33.999Z</time></trkpt><trkpt lat="43.77365453533118" lon="11.138218354267314"><ele>34.333333333333336</ele><time>2026-04-06T08:28:34.999Z</time></trkpt><trkpt lat="43.77363357787028" lon="11.137924428758565"><ele>34.666666666666664</ele><time>2026-04-06T08:28:35.999Z</time></trkpt><trkpt lat="43.77361259597518" lon="11.137626570583913"><ele>35.0</ele><time>2026-04-06T08:28:36.999Z</time></trkpt><trkpt lat="43.77359001763497" lon="11.1373248864177"><ele>35.33333333333333</ele><time>2026-04-06T08:28:37.999Z</time></trkpt><trkpt lat="43.773566161059414" lon="11.137025535793061"><ele>35.666666666666664</ele><time>2026-04-06T08:28:38.999Z</time></trkpt><trkpt lat="43.77354284540233" lon="11.136725481521708"><ele>36.0</ele><time>2026-04-06T08:28:39.999Z</time></trkpt><trkpt lat="43.77352362492927" lon="11.136422858577237"><ele>35.666666666666664</ele><time>2026-04-06T08:28:40.999Z</time></trkpt><trkpt lat="43.77350251844747" lon="11.13611686595915"><ele>35.33333333333333</ele><time>2026-04-06T08:28:41.999Z</time></trkpt><trkpt lat="43.77348011313676" lon="11.135808679527592"><ele>35.0</ele><time>2026-04-06T08:28:42.999Z</time></trkpt><trkpt lat="43.773454414607706" lon="11.135496962626766"><ele>34.5</ele><time>2026-04-06T08:28:43.999Z</time></trkpt><trkpt lat="43.77343236288777" lon="11.135182129708205"><ele>34.0</ele><time>2026-04-06T08:28:44.999Z</time></trkpt><trkpt lat="43.77341047304911" lon="11.134867298016392"><ele>35.5</ele><time>2026-04-06T08:28:45.999Z</time></trkpt><trkpt lat="43.77338736214223" lon="11.134543921835318"><ele>37.0</ele><time>2026-04-06T08:28:46.999Z</time></trkpt><trkpt lat="43.7733649892866" lon="11.134219193930535"><ele>37.5</ele><time>2026-04-06T08:28:47.999Z</time></trkpt><trkpt lat="43.77334194645688" lon="11.13389341674333"><ele>38.0</ele><time>2026-04-06T08:28:48.999Z</time></trkpt><trkpt lat="43.77331768483152" lon="11.133562209548208"><ele>38.0</ele><time>2026-04-06T08:28:49.999Z</time></trkpt><trkpt lat="43.773293179352805" lon="11.133225110481241"><ele>38.0</ele><time>2026-04-06T08:28:50.999Z</time></trkpt><trkpt lat="43.773268250585986" lon="11.132883565012431"><ele>37.0</ele><time>2026-04-06T08:28:51.999Z</time></trkpt><trkpt lat="43.77324200096289" lon="11.132544663873375"><ele>36.0</ele><time>2026-04-06T08:28:52.999Z</time></trkpt><trkpt lat="43.77321515852016" lon="11.132197119712982"><ele>35.5</ele><time>2026-04-06T08:28:53.999Z</time></trkpt><trkpt lat="43.77318651742667" lon="11.131844471750957"><ele>35.0</ele><time>2026-04-06T08:28:54.999Z</time></trkpt><trkpt lat="43.77314908299941" lon="11.131489443569006"><ele>34.5</ele><time>2026-04-06T08:28:55.999Z</time></trkpt><trkpt lat="43.77309488470989" lon="11.131142648802737"><ele>34.0</ele><time>2026-04-06T08:28:56.999Z</time></trkpt><trkpt lat="43.773021884728664" lon="11.130802941419583"><ele>34.0</ele><time>2026-04-06T08:28:57.999Z</time></trkpt><trkpt lat="43.77293473422923" lon="11.130465511327087"><ele>34.0</ele><time>2026-04-06T08:28:58.999Z</time></trkpt><trkpt lat="43.77283411994812" lon="11.130139344818204"><ele>34.5</ele><time>2026-04-06T08:28:59.999Z</time></trkpt><trkpt lat="43.77272096691892" lon="11.129817790483996"><ele>35.0</ele><time>2026-04-06T08:29:00.999Z</time></trkpt><trkpt lat="43.77259406859502" lon="11.129503420321125"><ele>35.5</ele><time>2026-04-06T08:29:01.999Z</time></trkpt><trkpt lat="43.77245578618259" lon="11.129196031410926"><ele>36.0</ele><time>2026-04-06T08:29:02.999Z</time></trkpt><trkpt lat="43.772302017875774" lon="11.128898115183048"><ele>36.0</ele><time>2026-04-06T08:29:03.999Z</time></trkpt><trkpt lat="43.772138853123415" lon="11.128617311368371"><ele>36.0</ele><time>2026-04-06T08:29:04.999Z</time></trkpt><trkpt lat="43.77196279738214" lon="11.128343925275006"><ele>36.0</ele><time>2026-04-06T08:29:05.999Z</time></trkpt><trkpt lat="43.77177474146582" lon="11.128085664514327"><ele>36.0</ele><time>2026-04-06T08:29:06.999Z</time></trkpt><trkpt lat="43.77158003998782" lon="11.127852808402965"><ele>36.0</ele><time>2026-04-06T08:29:08Z</time></trkpt><trkpt lat="43.77137519718528" lon="11.127636796096311"><ele>36.0</ele><time>2026-04-06T08:29:09Z</time></trkpt><trkpt lat="43.77115950128428" lon="11.127429327265355"><ele>37.5</ele><time>2026-04-06T08:29:10Z</time></trkpt><trkpt lat="43.770938244502354" lon="11.127258741721564"><ele>39.0</ele><time>2026-04-06T08:29:11Z</time></trkpt><trkpt lat="43.77070964845423" lon="11.127091324343851"><ele>39.0</ele><time>2026-04-06T08:29:12Z</time></trkpt><trkpt lat="43.77047420158544" lon="11.126944233238055"><ele>39.0</ele><time>2026-04-06T08:29:13Z</time></trkpt><trkpt lat="43.77023755461382" lon="11.126816083446291"><ele>38.5</ele><time>2026-04-06T08:29:14Z</time></trkpt><trkpt lat="43.76999554974501" lon="11.126715014664699"><ele>38.0</ele><time>2026-04-06T08:29:15Z</time></trkpt><trkpt lat="43.76975556027388" lon="11.126625749701702"><ele>37.5</ele><time>2026-04-06T08:29:16Z</time></trkpt><trkpt lat="43.769519160837476" lon="11.126544701587617"><ele>37.0</ele><time>2026-04-06T08:29:17Z</time></trkpt><trkpt lat="43.76928732758942" lon="11.126473393976655"><ele>36.0</ele><time>2026-04-06T08:29:18Z</time></trkpt><trkpt lat="43.76905819553758" lon="11.126407060860274"><ele>35.0</ele><time>2026-04-06T08:29:19Z</time></trkpt><trkpt lat="43.76882634833295" lon="11.126336446464764"><ele>35.0</ele><time>2026-04-06T08:29:20Z</time></trkpt><trkpt lat="43.768601907381004" lon="11.126268596425147"><ele>35.0</ele><time>2026-04-06T08:29:21Z</time></trkpt><trkpt lat="43.768377248848495" lon="11.126198894850846"><ele>35.33333333333333</ele><time>2026-04-06T08:29:22Z</time></trkpt><trkpt lat="43.768156432725426" lon="11.126131474491782"><ele>35.666666666666664</ele><time>2026-04-06T08:29:23Z</time></trkpt><trkpt lat="43.767939675016905" lon="11.126067401119418"><ele>36.0</ele><time>2026-04-06T08:29:24Z</time></trkpt><trkpt lat="43.767726715378245" lon="11.126004232373255"><ele>36.333333333333336</ele><time>2026-04-06T08:29:25Z</time></trkpt><trkpt lat="43.76752869131793" lon="11.125945413461809"><ele>36.66666666666667</ele><time>2026-04-06T08:29:26Z</time></trkpt><trkpt lat="43.767352798196654" lon="11.125893838943645"><ele>37.0</ele><time>2026-04-06T08:29:27Z</time></trkpt><trkpt lat="43.767190408645895" lon="11.125846268879743"><ele>37.0</ele><time>2026-04-06T08:29:28Z</time></trkpt><trkpt lat="43.76703187787406" lon="11.125802647154797"><ele>37.0</ele><time>2026-04-06T08:29:29Z</time></trkpt><trkpt lat="43.76687578289732" lon="11.125759452717771"><ele>37.0</ele><time>2026-04-06T08:29:30Z</time></trkpt><trkpt lat="43.76671760733789" lon="11.125719031343262"><ele>38.0</ele><time>2026-04-06T08:29:31Z</time></trkpt><trkpt lat="43.76655326447278" lon="11.125684225034504"><ele>39.0</ele><time>2026-04-06T08:29:32Z</time></trkpt><trkpt lat="43.76638007958109" lon="11.125662522447662"><ele>40.0</ele><time>2026-04-06T08:29:33Z</time></trkpt><trkpt lat="43.76620342761685" lon="11.125650536239611"><ele>39.66666666666667</ele><time>2026-04-06T08:29:34Z</time></trkpt><trkpt lat="43.76602120958946" lon="11.125643529305796"><ele>39.333333333333336</ele><time>2026-04-06T08:29:35Z</time></trkpt><trkpt lat="43.76583247643147" lon="11.125642671246148"><ele>39.0</ele><time>2026-04-06T08:29:36Z</time></trkpt><trkpt lat="43.76564004780874" lon="11.125650704676808"><ele>39.0</ele><time>2026-04-06T08:29:37Z</time></trkpt><trkpt lat="43.765441072548704" lon="11.125672941716182"><ele>39.0</ele><time>2026-04-06T08:29:38Z</time></trkpt><trkpt lat="43.76523910049535" lon="11.125710455586521"><ele>39.0</ele><time>2026-04-06T08:29:39Z</time></trkpt><trkpt lat="43.76503449478927" lon="11.125763945419635"><ele>39.666666666666664</ele><time>2026-04-06T08:29:40Z</time></trkpt><trkpt lat="43.76482373545172" lon="11.125834430999904"><ele>40.33333333333333</ele><time>2026-04-06T08:29:41Z</time></trkpt><trkpt lat="43.76461448803299" lon="11.125924063032564"><ele>41.0</ele><time>2026-04-06T08:29:42Z</time></trkpt><trkpt lat="43.764402677438305" lon="11.126025150691778"><ele>43.0</ele><time>2026-04-06T08:29:43Z</time></trkpt><trkpt lat="43.764190705177484" lon="11.126139031120749"><ele>45.0</ele><time>2026-04-06T08:29:44Z</time></trkpt><trkpt lat="43.76397986858161" lon="11.12625826683907"><ele>45.0</ele><time>2026-04-06T08:29:45Z</time></trkpt><trkpt lat="43.763769894751945" lon="11.12638327726594"><ele>45.0</ele><time>2026-04-06T08:29:46Z</time></trkpt><trkpt lat="43.76356307222355" lon="11.126508704795729"><ele>47.0</ele><time>2026-04-06T08:29:47Z</time></trkpt><trkpt lat="43.763351207468105" lon="11.126636817345467"><ele>49.0</ele><time>2026-04-06T08:29:48Z</time></trkpt><trkpt lat="43.76313290000748" lon="11.126765416196195"><ele>49.0</ele><time>2026-04-06T08:29:49Z</time></trkpt><trkpt lat="43.76291408984931" lon="11.126895282665432"><ele>49.0</ele><time>2026-04-06T08:29:50Z</time></trkpt><trkpt lat="43.76269472706781" lon="11.127024691106227"><ele>52.0</ele><time>2026-04-06T08:29:51Z</time></trkpt><trkpt lat="43.76247074626503" lon="11.127156513029274"><ele>55.0</ele><time>2026-04-06T08:29:52Z</time></trkpt><trkpt lat="43.76224504210092" lon="11.127291236989757"><ele>54.0</ele><time>2026-04-06T08:29:53Z</time></trkpt><trkpt lat="43.76201745624873" lon="11.127416779294474"><ele>53.0</ele><time>2026-04-06T08:29:54Z</time></trkpt><trkpt lat="43.761782866385495" lon="11.127526766052638"><ele>53.0</ele><time>2026-04-06T08:29:55Z</time></trkpt><trkpt lat="43.7615414473589" lon="11.12760781672065"><ele>53.0</ele><time>2026-04-06T08:29:56Z</time></trkpt><trkpt lat="43.76130372548437" lon="11.127681357233135"><ele>53.0</ele><time>2026-04-06T08:29:57Z</time></trkpt><trkpt lat="43.76106007923911" lon="11.127741361344206"><ele>53.0</ele><time>2026-04-06T08:29:58Z</time></trkpt><trkpt lat="43.760816298514044" lon="11.127779980539223"><ele>55.5</ele><time>2026-04-06T08:29:59Z</time></trkpt><trkpt lat="43.76057428880732" lon="11.127790929007794"><ele>58.0</ele><time>2026-04-06T08:30:00Z</time></trkpt><trkpt lat="43.760328976768854" lon="11.127789773060675"><ele>61.0</ele><time>2026-04-06T08:30:01Z</time></trkpt><trkpt lat="43.760088022307535" lon="11.127766855276858"><ele>64.0</ele><time>2026-04-06T08:30:02Z</time></trkpt><trkpt lat="43.75984864161388" lon="11.127730263386342"><ele>64.0</ele><time>2026-04-06T08:30:03Z</time></trkpt><trkpt lat="43.759614838442246" lon="11.127673965921675"><ele>64.0</ele><time>2026-04-06T08:30:04Z</time></trkpt><trkpt lat="43.75938604043408" lon="11.127601328182623"><ele>64.66666666666666</ele><time>2026-04-06T08:30:05Z</time></trkpt><trkpt lat="43.759168272647315" lon="11.127515003818209"><ele>65.33333333333333</ele><time>2026-04-06T08:30:06Z</time></trkpt><trkpt lat="43.75895799669571" lon="11.12741643295797"><ele>66.0</ele><time>2026-04-06T08:30:07Z</time></trkpt><trkpt lat="43.758754470956966" lon="11.127315019282204"><ele>69.66666666666667</ele><time>2026-04-06T08:30:08Z</time></trkpt><trkpt lat="43.75855463069403" lon="11.127214423227418"><ele>73.33333333333334</ele><time>2026-04-06T08:30:09Z</time></trkpt><trkpt lat="43.758351234252245" lon="11.127113632230374"><ele>77.0</ele><time>2026-04-06T08:30:10Z</time></trkpt><trkpt lat="43.758153636997434" lon="11.127020704967332"><ele>77.33333333333334</ele><time>2026-04-06T08:30:11Z</time></trkpt><trkpt lat="43.757956495146" lon="11.12692940699042"><ele>77.66666666666667</ele><time>2026-04-06T08:30:12Z</time></trkpt><trkpt lat="43.75775853096171" lon="11.126849525034618"><ele>78.0</ele><time>2026-04-06T08:30:13Z</time></trkpt><trkpt lat="43.75756480213325" lon="11.126783677432384"><ele>77.33333333333333</ele><time>2026-04-06T08:30:14Z</time></trkpt><trkpt lat="43.757368457123896" lon="11.126731997088791"><ele>76.66666666666666</ele><time>2026-04-06T08:30:15Z</time></trkpt><trkpt lat="43.75717073424464" lon="11.126690013239305"><ele>76.0</ele><time>2026-04-06T08:30:16Z</time></trkpt><trkpt lat="43.75697441226402" lon="11.126660104434157"><ele>74.66666666666666</ele><time>2026-04-06T08:30:17Z</time></trkpt><trkpt lat="43.75677956512262" lon="11.126635920392978"><ele>73.33333333333333</ele><time>2026-04-06T08:30:18Z</time></trkpt><trkpt lat="43.7565861257616" lon="11.126612521227624"><ele>72.0</ele><time>2026-04-06T08:30:19Z</time></trkpt><trkpt lat="43.75638970799152" lon="11.126589724763855"><ele>72.0</ele><time>2026-04-06T08:30:20Z</time></trkpt><trkpt lat="43.756197201944154" lon="11.126568328407505"><ele>72.0</ele><time>2026-04-06T08:30:21Z</time></trkpt><trkpt lat="43.75600201679983" lon="11.12654199956666"><ele>72.0</ele><time>2026-04-06T08:30:22Z</time></trkpt><trkpt lat="43.75580447002099" lon="11.12651512173063"><ele>78.33333333333333</ele><time>2026-04-06T08:30:23Z</time></trkpt><trkpt lat="43.75560829918881" lon="11.12649110759095"><ele>84.66666666666666</ele><time>2026-04-06T08:30:24Z</time></trkpt><trkpt lat="43.7554084774839" lon="11.126468772769188"><ele>91.0</ele><time>2026-04-06T08:30:25Z</time></trkpt><trkpt lat="43.755211576499114" lon="11.126444635339238"><ele>91.0</ele><time>2026-04-06T08:30:26Z</time></trkpt><trkpt lat="43.75501324068747" lon="11.126419752304452"><ele>91.0</ele><time>2026-04-06T08:30:27Z</time></trkpt><trkpt lat="43.75481268434251" lon="11.126394360895222"><ele>91.0</ele><time>2026-04-06T08:30:28Z</time></trkpt><trkpt lat="43.754610947404" lon="11.126367113722662"><ele>91.0</ele><time>2026-04-06T08:30:29Z</time></trkpt><trkpt lat="43.75440761734858" lon="11.126338144177009"><ele>91.0</ele><time>2026-04-06T08:30:30Z</time></trkpt><trkpt lat="43.754205204366656" lon="11.12630163783155"><ele>91.0</ele><time>2026-04-06T08:30:31Z</time></trkpt><trkpt lat="43.75400553848333" lon="11.126249543782441"><ele>91.33333333333333</ele><time>2026-04-06T08:30:32Z</time></trkpt><trkpt lat="43.75380218734825" lon="11.126184792374914"><ele>91.66666666666667</ele><time>2026-04-06T08:30:32.999Z</time></trkpt><trkpt lat="43.75359670377775" lon="11.12610035272476"><ele>92.0</ele><time>2026-04-06T08:30:33.999Z</time></trkpt><trkpt lat="43.753397427717196" lon="11.126004255813369"><ele>92.0</ele><time>2026-04-06T08:30:34.999Z</time></trkpt><trkpt lat="43.75319935714399" lon="11.125903254763635"><ele>92.0</ele><time>2026-04-06T08:30:35.999Z</time></trkpt><trkpt lat="43.75300235624513" lon="11.125783895269356"><ele>92.0</ele><time>2026-04-06T08:30:36.999Z</time></trkpt><trkpt lat="43.75280617022873" lon="11.125646944701314"><ele>94.66666666666667</ele><time>2026-04-06T08:30:37.999Z</time></trkpt><trkpt lat="43.75261091119699" lon="11.125494312699006"><ele>97.33333333333334</ele><time>2026-04-06T08:30:38.999Z</time></trkpt><trkpt lat="43.75241973326052" lon="11.125335136174566"><ele>100.0</ele><time>2026-04-06T08:30:39.999Z</time></trkpt><trkpt lat="43.75222485700447" lon="11.125166990087864"><ele>100.0</ele><time>2026-04-06T08:30:40.999Z</time></trkpt><trkpt lat="43.75203026441377" lon="11.124993362898893"><ele>100.0</ele><time>2026-04-06T08:30:41.999Z</time></trkpt><trkpt lat="43.751833389350054" lon="11.124817263138947"><ele>105.0</ele><time>2026-04-06T08:30:42.999Z</time></trkpt><trkpt lat="43.751636475303634" lon="11.124639252358827"><ele>110.0</ele><time>2026-04-06T08:30:43.999Z</time></trkpt><trkpt lat="43.75143623414424" lon="11.124457936880757"><ele>110.0</ele><time>2026-04-06T08:30:44.999Z</time></trkpt><trkpt lat="43.751235203504066" lon="11.124278774352714"><ele>110.0</ele><time>2026-04-06T08:30:45.999Z</time></trkpt><trkpt lat="43.75103531425152" lon="11.124099866160257"><ele>110.0</ele><time>2026-04-06T08:30:46.999Z</time></trkpt><trkpt lat="43.7508341062403" lon="11.12392076258181"><ele>110.0</ele><time>2026-04-06T08:30:47.999Z</time></trkpt><trkpt lat="43.75063489394474" lon="11.1237461209411"><ele>110.0</ele><time>2026-04-06T08:30:48.999Z</time></trkpt><trkpt lat="43.7504354709939" lon="11.123572068895436"><ele>110.0</ele><time>2026-04-06T08:30:49.999Z</time></trkpt><trkpt lat="43.75023714980276" lon="11.12339872298269"><ele>111.5</ele><time>2026-04-06T08:30:50.999Z</time></trkpt><trkpt lat="43.75004033458929" lon="11.12322207134435"><ele>113.0</ele><time>2026-04-06T08:30:51.999Z</time></trkpt><trkpt lat="43.749845426807994" lon="11.123048190910637"><ele>113.0</ele><time>2026-04-06T08:30:52.999Z</time></trkpt><trkpt lat="43.749650133108425" lon="11.122874802017947"><ele>113.0</ele><time>2026-04-06T08:30:53.999Z</time></trkpt><trkpt lat="43.74945716621007" lon="11.122704210052133"><ele>112.0</ele><time>2026-04-06T08:30:54.999Z</time></trkpt><trkpt lat="43.749265101415176" lon="11.12253208562779"><ele>111.0</ele><time>2026-04-06T08:30:55.999Z</time></trkpt><trkpt lat="43.74907314394922" lon="11.12235854873347"><ele>117.0</ele><time>2026-04-06T08:30:56.999Z</time></trkpt><trkpt lat="43.74888005504073" lon="11.122185521319524"><ele>123.0</ele><time>2026-04-06T08:30:57.999Z</time></trkpt><trkpt lat="43.74869053544916" lon="11.12201864597178"><ele>122.66666666666666</ele><time>2026-04-06T08:30:58.999Z</time></trkpt><trkpt lat="43.74850394876604" lon="11.121853098420434"><ele>122.33333333333333</ele><time>2026-04-06T08:30:59.999Z</time></trkpt><trkpt lat="43.7483285857092" lon="11.12169310149605"><ele>122.0</ele><time>2026-04-06T08:31:00.999Z</time></trkpt><trkpt lat="43.748147995484864" lon="11.121540229920699"><ele>124.33333333333333</ele><time>2026-04-06T08:31:01.999Z</time></trkpt><trkpt lat="43.74797797290619" lon="11.121397417613409"><ele>126.66666666666666</ele><time>2026-04-06T08:31:02.999Z</time></trkpt><trkpt lat="43.74780776322115" lon="11.121270388155176"><ele>129.0</ele><time>2026-04-06T08:31:03.999Z</time></trkpt><trkpt lat="43.74763883937179" lon="11.121156704748428"><ele>129.0</ele><time>2026-04-06T08:31:04.999Z</time></trkpt><trkpt lat="43.74746731125733" lon="11.121051297690135"><ele>129.0</ele><time>2026-04-06T08:31:05.999Z</time></trkpt><trkpt lat="43.74729149801893" lon="11.120953716698178"><ele>129.0</ele><time>2026-04-06T08:31:06.999Z</time></trkpt><trkpt lat="43.747111067822324" lon="11.12086560397694"><ele>129.0</ele><time>2026-04-06T08:31:07.999Z</time></trkpt><trkpt lat="43.746923474489726" lon="11.120783100978544"><ele>129.0</ele><time>2026-04-06T08:31:08.999Z</time></trkpt><trkpt lat="43.74673216076221" lon="11.120705314552453"><ele>129.0</ele><time>2026-04-06T08:31:09.999Z</time></trkpt><trkpt lat="43.74653419685558" lon="11.120631976493975"><ele>127.0</ele><time>2026-04-06T08:31:10.999Z</time></trkpt><trkpt lat="43.74633356509127" lon="11.120555983087256"><ele>125.0</ele><time>2026-04-06T08:31:11.999Z</time></trkpt><trkpt lat="43.746131178590005" lon="11.120479735717195"><ele>123.0</ele><time>2026-04-06T08:31:12.999Z</time></trkpt><trkpt lat="43.74592494358099" lon="11.12039709203555"><ele>122.66666666666666</ele><time>2026-04-06T08:31:14Z</time></trkpt><trkpt lat="43.74571542881558" lon="11.120311186707893"><ele>122.33333333333333</ele><time>2026-04-06T08:31:15Z</time></trkpt><trkpt lat="43.74550485092861" lon="11.120217153539565"><ele>122.0</ele><time>2026-04-06T08:31:16Z</time></trkpt><trkpt lat="43.74529563588403" lon="11.120110249032411"><ele>127.5</ele><time>2026-04-06T08:31:17Z</time></trkpt><trkpt lat="43.74508508494029" lon="11.119989117946528"><ele>133.0</ele><time>2026-04-06T08:31:18Z</time></trkpt><trkpt lat="43.74487711540293" lon="11.11985781035361"><ele>138.5</ele><time>2026-04-06T08:31:19Z</time></trkpt><trkpt lat="43.74466922442803" lon="11.119715284977362"><ele>144.0</ele><time>2026-04-06T08:31:20Z</time></trkpt><trkpt lat="43.74446228322416" lon="11.11956116584609"><ele>143.0</ele><time>2026-04-06T08:31:21Z</time></trkpt><trkpt lat="43.74425851027281" lon="11.119394925481627"><ele>142.0</ele><time>2026-04-06T08:31:22Z</time></trkpt><trkpt lat="43.74405897024365" lon="11.119218979117242"><ele>146.5</ele><time>2026-04-06T08:31:23Z</time></trkpt><trkpt lat="43.74386413538316" lon="11.119031892973904"><ele>151.0</ele><time>2026-04-06T08:31:24Z</time></trkpt><trkpt lat="43.74367195661215" lon="11.118838489312996"><ele>149.0</ele><time>2026-04-06T08:31:25Z</time></trkpt><trkpt lat="43.74348594050948" lon="11.118628777310638"><ele>147.0</ele><time>2026-04-06T08:31:26Z</time></trkpt><trkpt lat="43.74330313938094" lon="11.118406446650807"><ele>150.0</ele><time>2026-04-06T08:31:27Z</time></trkpt><trkpt lat="43.74312285037131" lon="11.118179690590043"><ele>153.0</ele><time>2026-04-06T08:31:28Z</time></trkpt><trkpt lat="43.74294595508058" lon="11.117949733556213"><ele>153.0</ele><time>2026-04-06T08:31:29Z</time></trkpt><trkpt lat="43.74276439790673" lon="11.117715263096706"><ele>153.0</ele><time>2026-04-06T08:31:30Z</time></trkpt><trkpt lat="43.742586420883434" lon="11.11748945508583"><ele>154.0</ele><time>2026-04-06T08:31:31Z</time></trkpt><trkpt lat="43.7424053685485" lon="11.117258707374148"><ele>155.0</ele><time>2026-04-06T08:31:32Z</time></trkpt><trkpt lat="43.742224522049696" lon="11.117027441035223"><ele>155.0</ele><time>2026-04-06T08:31:33Z</time></trkpt><trkpt lat="43.742043836275485" lon="11.116793440602345"><ele>155.0</ele><time>2026-04-06T08:31:34Z</time></trkpt><trkpt lat="43.74186443414057" lon="11.116562966704587"><ele>155.0</ele><time>2026-04-06T08:31:35Z</time></trkpt><trkpt lat="43.74168395368983" lon="11.116328234803635"><ele>155.0</ele><time>2026-04-06T08:31:36Z</time></trkpt><trkpt lat="43.74150663266142" lon="11.116096776125053"><ele>155.0</ele><time>2026-04-06T08:31:37Z</time></trkpt><trkpt lat="43.74133042782633" lon="11.115857327483267"><ele>155.0</ele><time>2026-04-06T08:31:38Z</time></trkpt><trkpt lat="43.74116200361204" lon="11.11561011186338"><ele>155.0</ele><time>2026-04-06T08:31:39Z</time></trkpt><trkpt lat="43.74099917375147" lon="11.115354875236603"><ele>155.0</ele><time>2026-04-06T08:31:40Z</time></trkpt><trkpt lat="43.74083897739379" lon="11.115091616142667"><ele>158.0</ele><time>2026-04-06T08:31:41Z</time></trkpt><trkpt lat="43.740680404873416" lon="11.114826624752489"><ele>161.0</ele><time>2026-04-06T08:31:42Z</time></trkpt><trkpt lat="43.74052283186149" lon="11.114555391258222"><ele>161.0</ele><time>2026-04-06T08:31:43Z</time></trkpt><trkpt lat="43.7403671375102" lon="11.11428045773581"><ele>161.0</ele><time>2026-04-06T08:31:44Z</time></trkpt><trkpt lat="43.74020776556285" lon="11.114006765200651"><ele>158.5</ele><time>2026-04-06T08:31:45Z</time></trkpt><trkpt lat="43.74005219582696" lon="11.113728702559685"><ele>156.0</ele><time>2026-04-06T08:31:46Z</time></trkpt><trkpt lat="43.7398942644669" lon="11.113449287606947"><ele>157.5</ele><time>2026-04-06T08:31:47Z</time></trkpt><trkpt lat="43.73973538310102" lon="11.11317134430729"><ele>159.0</ele><time>2026-04-06T08:31:48Z</time></trkpt><trkpt lat="43.739575921808374" lon="11.11289409762028"><ele>159.0</ele><time>2026-04-06T08:31:49Z</time></trkpt><trkpt lat="43.73941791209383" lon="11.112619094427886"><ele>159.0</ele><time>2026-04-06T08:31:50Z</time></trkpt><trkpt lat="43.73926052148737" lon="11.112340405143593"><ele>156.5</ele><time>2026-04-06T08:31:51Z</time></trkpt><trkpt lat="43.73910545324102" lon="11.112065345507801"><ele>154.0</ele><time>2026-04-06T08:31:52Z</time></trkpt><trkpt lat="43.73894867517722" lon="11.111787720230495"><ele>156.0</ele><time>2026-04-06T08:31:53Z</time></trkpt><trkpt lat="43.73879337647763" lon="11.111507893515011"><ele>158.0</ele><time>2026-04-06T08:31:54Z</time></trkpt><trkpt lat="43.73863497276715" lon="11.111231678083413"><ele>152.0</ele><time>2026-04-06T08:31:55Z</time></trkpt><trkpt lat="43.7384782070045" lon="11.110955241040724"><ele>146.0</ele><time>2026-04-06T08:31:56Z</time></trkpt><trkpt lat="43.73831364360109" lon="11.110670004517399"><ele>145.5</ele><time>2026-04-06T08:31:57Z</time></trkpt><trkpt lat="43.73814724336288" lon="11.11038121285978"><ele>145.0</ele><time>2026-04-06T08:31:58Z</time></trkpt><trkpt lat="43.73798036195542" lon="11.110091206480805"><ele>145.0</ele><time>2026-04-06T08:31:59Z</time></trkpt><trkpt lat="43.73781598677248" lon="11.109803673467798"><ele>145.0</ele><time>2026-04-06T08:32:00Z</time></trkpt><trkpt lat="43.737654470917064" lon="11.10952307306111"><ele>145.0</ele><time>2026-04-06T08:32:01Z</time></trkpt><trkpt lat="43.73750976274933" lon="11.109261050910183"><ele>145.0</ele><time>2026-04-06T08:32:02Z</time></trkpt><trkpt lat="43.73737586950814" lon="11.109028324598588"><ele>146.33333333333334</ele><time>2026-04-06T08:32:03Z</time></trkpt><trkpt lat="43.73724745143323" lon="11.108800508431624"><ele>147.66666666666666</ele><time>2026-04-06T08:32:04Z</time></trkpt><trkpt lat="43.737128556982206" lon="11.108592556299204"><ele>149.0</ele><time>2026-04-06T08:32:05Z</time></trkpt><trkpt lat="43.73701272760792" lon="11.108389088036617"><ele>150.33333333333331</ele><time>2026-04-06T08:32:06Z</time></trkpt><trkpt lat="43.736906743694995" lon="11.108198273123469"><ele>151.66666666666666</ele><time>2026-04-06T08:32:07Z</time></trkpt><trkpt lat="43.73680799361435" lon="11.108019956692536"><ele>153.0</ele><time>2026-04-06T08:32:08Z</time></trkpt><trkpt lat="43.736710558147685" lon="11.107846586245463"><ele>153.0</ele><time>2026-04-06T08:32:09Z</time></trkpt><trkpt lat="43.73660698469995" lon="11.107680725625746"><ele>153.0</ele><time>2026-04-06T08:32:10Z</time></trkpt><trkpt lat="43.73649585855436" lon="11.107526548871625"><ele>153.0</ele><time>2026-04-06T08:32:11Z</time></trkpt><trkpt lat="43.73638879747852" lon="11.107386005089218"><ele>153.0</ele><time>2026-04-06T08:32:12Z</time></trkpt><trkpt lat="43.7362904256623" lon="11.107263349932891"><ele>153.0</ele><time>2026-04-06T08:32:13Z</time></trkpt><trkpt lat="43.73619567534511" lon="11.107149581070741"><ele>153.0</ele><time>2026-04-06T08:32:14Z</time></trkpt><trkpt lat="43.73610731050725" lon="11.10704659493352"><ele>153.0</ele><time>2026-04-06T08:32:15Z</time></trkpt><trkpt lat="43.736022156564886" lon="11.106954917297372"><ele>153.0</ele><time>2026-04-06T08:32:16Z</time></trkpt><trkpt lat="43.735939545266156" lon="11.106868727664448"><ele>153.0</ele><time>2026-04-06T08:32:17Z</time></trkpt><trkpt lat="43.73586442209749" lon="11.106784735247409"><ele>153.0</ele><time>2026-04-06T08:32:18Z</time></trkpt><trkpt lat="43.73580783786824" lon="11.106692249886601"><ele>153.0</ele><time>2026-04-06T08:32:19Z</time></trkpt><trkpt lat="43.73578239071595" lon="11.106592634022839"><ele>153.0</ele><time>2026-04-06T08:32:20Z</time></trkpt><trkpt lat="43.73577696926401" lon="11.106442945853814"><ele>153.66666666666666</ele><time>2026-04-06T08:32:22Z</time></trkpt><trkpt lat="43.73573528368309" lon="11.10636442978772"><ele>154.33333333333334</ele><time>2026-04-06T08:32:32Z</time></trkpt><trkpt lat="43.735695496869425" lon="11.106274754532258"><ele>155.0</ele><time>2026-04-06T08:32:35Z</time></trkpt><trkpt lat="43.73561675802779" lon="11.106202574435688"><ele>155.66666666666669</ele><time>2026-04-06T08:36:46Z</time></trkpt><trkpt lat="43.735552631573825" lon="11.106208457008076"><ele>156.33333333333334</ele><time>2026-04-06T08:36:51Z</time></trkpt><trkpt lat="43.73546812818132" lon="11.106265409854007"><ele>157.0</ele><time>2026-04-06T08:36:53Z</time></trkpt><trkpt lat="43.73540756020566" lon="11.106295147496427"><ele>157.0</ele><time>2026-04-06T08:36:55Z</time></trkpt><trkpt lat="43.73532518391418" lon="11.106305589840828"><ele>157.0</ele><time>2026-04-06T08:36:57Z</time></trkpt><trkpt lat="43.735222019515085" lon="11.106274802644082"><ele>157.0</ele><time>2026-04-06T08:36:59Z</time></trkpt><trkpt lat="43.735135634440944" lon="11.106215235077856"><ele>157.0</ele><time>2026-04-06T08:37:01Z</time></trkpt><trkpt lat="43.735076656000174" lon="11.106177244397013"><ele>157.0</ele><time>2026-04-06T08:37:02Z</time></trkpt><trkpt lat="43.73500038518364" lon="11.106156843653709"><ele>157.0</ele><time>2026-04-06T08:37:03Z</time></trkpt><trkpt lat="43.73495583074519" lon="11.106076037756814"><ele>157.0</ele><time>2026-04-06T08:37:04Z</time></trkpt><trkpt lat="43.73488985611717" lon="11.106026350999876"><ele>157.0</ele><time>2026-04-06T08:37:05Z</time></trkpt><trkpt lat="43.734815602134844" lon="11.105968919123537"><ele>157.0</ele><time>2026-04-06T08:37:06Z</time></trkpt><trkpt lat="43.73472751162386" lon="11.10590581085705"><ele>157.0</ele><time>2026-04-06T08:37:07Z</time></trkpt><trkpt lat="43.734637292854906" lon="11.105844630834122"><ele>157.0</ele><time>2026-04-06T08:37:08Z</time></trkpt><trkpt lat="43.734540912291365" lon="11.105771736487142"><ele>159.5</ele><time>2026-04-06T08:37:09Z</time></trkpt><trkpt lat="43.73442696430279" lon="11.105681177703998"><ele>162.0</ele><time>2026-04-06T08:37:10Z</time></trkpt><trkpt lat="43.73431406479648" lon="11.105586074790947"><ele>164.5</ele><time>2026-04-06T08:37:11Z</time></trkpt><trkpt lat="43.73419268788041" lon="11.105480393831623"><ele>167.0</ele><time>2026-04-06T08:37:12Z</time></trkpt><trkpt lat="43.73406627287808" lon="11.105366167557982"><ele>167.0</ele><time>2026-04-06T08:37:13Z</time></trkpt><trkpt lat="43.733943379242234" lon="11.105238957761056"><ele>167.0</ele><time>2026-04-06T08:37:14Z</time></trkpt><trkpt lat="43.73382613301089" lon="11.105109818380056"><ele>167.0</ele><time>2026-04-06T08:37:15Z</time></trkpt><trkpt lat="43.73370648115532" lon="11.104968355351126"><ele>166.33333333333331</ele><time>2026-04-06T08:37:16Z</time></trkpt><trkpt lat="43.7335875717541" lon="11.104817903079171"><ele>165.66666666666666</ele><time>2026-04-06T08:37:17Z</time></trkpt><trkpt lat="43.733466349591026" lon="11.104651800713802"><ele>165.0</ele><time>2026-04-06T08:37:18Z</time></trkpt><trkpt lat="43.73334641709201" lon="11.104470798462945"><ele>165.0</ele><time>2026-04-06T08:37:19Z</time></trkpt><trkpt lat="43.73322888180963" lon="11.104276310037724"><ele>165.0</ele><time>2026-04-06T08:37:20Z</time></trkpt><trkpt lat="43.733107400733424" lon="11.104064381444667"><ele>165.0</ele><time>2026-04-06T08:37:21Z</time></trkpt><trkpt lat="43.732991553711976" lon="11.10385056321596"><ele>164.0</ele><time>2026-04-06T08:37:22Z</time></trkpt><trkpt lat="43.73287009770486" lon="11.103620743263194"><ele>163.0</ele><time>2026-04-06T08:37:23Z</time></trkpt><trkpt lat="43.7327486499788" lon="11.1033894610657"><ele>162.0</ele><time>2026-04-06T08:37:24Z</time></trkpt><trkpt lat="43.73262728670976" lon="11.103156578915742"><ele>162.0</ele><time>2026-04-06T08:37:25Z</time></trkpt><trkpt lat="43.73250460933769" lon="11.102918323744344"><ele>162.0</ele><time>2026-04-06T08:37:26Z</time></trkpt><trkpt lat="43.73238442361839" lon="11.10269097662713"><ele>162.0</ele><time>2026-04-06T08:37:27Z</time></trkpt><trkpt lat="43.73226815983037" lon="11.102465734004474"><ele>161.66666666666666</ele><time>2026-04-06T08:37:28Z</time></trkpt><trkpt lat="43.73215221792069" lon="11.102248175882965"><ele>161.33333333333331</ele><time>2026-04-06T08:37:29Z</time></trkpt><trkpt lat="43.732037124871425" lon="11.102030487678087"><ele>161.0</ele><time>2026-04-06T08:37:30Z</time></trkpt><trkpt lat="43.73192357121733" lon="11.101813676100297"><ele>158.33333333333331</ele><time>2026-04-06T08:37:31Z</time></trkpt><trkpt lat="43.731804886511995" lon="11.10159957946494"><ele>155.66666666666666</ele><time>2026-04-06T08:37:32Z</time></trkpt><trkpt lat="43.731686915028696" lon="11.101388410694579"><ele>153.0</ele><time>2026-04-06T08:37:33Z</time></trkpt><trkpt lat="43.731567449757485" lon="11.101180017773002"><ele>153.0</ele><time>2026-04-06T08:37:34Z</time></trkpt><trkpt lat="43.73144694580856" lon="11.100972552448559"><ele>153.0</ele><time>2026-04-06T08:37:35Z</time></trkpt><trkpt lat="43.7313253675397" lon="11.100773259839437"><ele>153.0</ele><time>2026-04-06T08:37:36Z</time></trkpt><trkpt lat="43.73119838757392" lon="11.100564051110121"><ele>151.33333333333334</ele><time>2026-04-06T08:37:37Z</time></trkpt><trkpt lat="43.73106844637304" lon="11.100362683703528"><ele>149.66666666666669</ele><time>2026-04-06T08:37:38Z</time></trkpt><trkpt lat="43.730936643699366" lon="11.100157195955607"><ele>148.0</ele><time>2026-04-06T08:37:39Z</time></trkpt><trkpt lat="43.73080477878485" lon="11.099951616862409"><ele>144.33333333333334</ele><time>2026-04-06T08:37:40Z</time></trkpt><trkpt lat="43.730672744524234" lon="11.099748276573921"><ele>140.66666666666666</ele><time>2026-04-06T08:37:41Z</time></trkpt><trkpt lat="43.7305395908487" lon="11.099537523687529"><ele>137.0</ele><time>2026-04-06T08:37:42Z</time></trkpt><trkpt lat="43.7304044825736" lon="11.09933202451206"><ele>137.0</ele><time>2026-04-06T08:37:43Z</time></trkpt><trkpt lat="43.730267796282206" lon="11.099121833063448"><ele>137.0</ele><time>2026-04-06T08:37:44Z</time></trkpt><trkpt lat="43.73012863947566" lon="11.098906905922611"><ele>137.0</ele><time>2026-04-06T08:37:45Z</time></trkpt><trkpt lat="43.72999023934295" lon="11.098693458724703"><ele>136.66666666666666</ele><time>2026-04-06T08:37:46Z</time></trkpt><trkpt lat="43.729847303812626" lon="11.098470296272687"><ele>136.33333333333334</ele><time>2026-04-06T08:37:47Z</time></trkpt><trkpt lat="43.72970397348824" lon="11.098244432332105"><ele>136.0</ele><time>2026-04-06T08:37:48Z</time></trkpt><trkpt lat="43.729561880997444" lon="11.098015546041811"><ele>136.0</ele><time>2026-04-06T08:37:49Z</time></trkpt><trkpt lat="43.729422824083365" lon="11.097782361317925"><ele>136.0</ele><time>2026-04-06T08:37:50Z</time></trkpt><trkpt lat="43.72928602695308" lon="11.097541238607862"><ele>136.0</ele><time>2026-04-06T08:37:51Z</time></trkpt><trkpt lat="43.72915425860755" lon="11.097296532500739"><ele>137.33333333333334</ele><time>2026-04-06T08:37:52Z</time></trkpt><trkpt lat="43.72903014145857" lon="11.09704803352958"><ele>138.66666666666666</ele><time>2026-04-06T08:37:53Z</time></trkpt><trkpt lat="43.728908973695674" lon="11.096798072975226"><ele>140.0</ele><time>2026-04-06T08:37:54Z</time></trkpt><trkpt lat="43.7287933889123" lon="11.096539472368203"><ele>140.0</ele><time>2026-04-06T08:37:55Z</time></trkpt><trkpt lat="43.728679423561694" lon="11.096288320684666"><ele>140.0</ele><time>2026-04-06T08:37:56Z</time></trkpt><trkpt lat="43.728563272445264" lon="11.096029624288379"><ele>140.0</ele><time>2026-04-06T08:37:57Z</time></trkpt><trkpt lat="43.728449854913116" lon="11.095777371363917"><ele>137.66666666666666</ele><time>2026-04-06T08:37:58Z</time></trkpt><trkpt lat="43.72833729023343" lon="11.095531735413136"><ele>135.33333333333334</ele><time>2026-04-06T08:37:59Z</time></trkpt><trkpt lat="43.72822605542823" lon="11.095279365599271"><ele>133.0</ele><time>2026-04-06T08:38:00Z</time></trkpt><trkpt lat="43.72811377549381" lon="11.095034020433973"><ele>130.33333333333334</ele><time>2026-04-06T08:38:01Z</time></trkpt><trkpt lat="43.72799816752964" lon="11.094790297992029"><ele>127.66666666666666</ele><time>2026-04-06T08:38:02Z</time></trkpt><trkpt lat="43.72789144279696" lon="11.094549593876675"><ele>125.0</ele><time>2026-04-06T08:38:03Z</time></trkpt><trkpt lat="43.727781892994656" lon="11.094308415366699"><ele>126.33333333333333</ele><time>2026-04-06T08:38:04Z</time></trkpt><trkpt lat="43.72767376505603" lon="11.094064338554384"><ele>127.66666666666666</ele><time>2026-04-06T08:38:04.999Z</time></trkpt><trkpt lat="43.727567805434894" lon="11.093825513850181"><ele>129.0</ele><time>2026-04-06T08:38:05.999Z</time></trkpt><trkpt lat="43.72746062632823" lon="11.093578643110384"><ele>129.0</ele><time>2026-04-06T08:38:06.999Z</time></trkpt><trkpt lat="43.72735051784031" lon="11.093328869311236"><ele>129.0</ele><time>2026-04-06T08:38:07.999Z</time></trkpt><trkpt lat="43.72724212171314" lon="11.093082111441685"><ele>129.0</ele><time>2026-04-06T08:38:08.999Z</time></trkpt><trkpt lat="43.72713289880701" lon="11.092835128786339"><ele>126.66666666666666</ele><time>2026-04-06T08:38:09.999Z</time></trkpt><trkpt lat="43.72702057052685" lon="11.092585300913736"><ele>124.33333333333333</ele><time>2026-04-06T08:38:10.999Z</time></trkpt><trkpt lat="43.72690604329261" lon="11.09233555246053"><ele>122.0</ele><time>2026-04-06T08:38:11.999Z</time></trkpt><trkpt lat="43.72679413459793" lon="11.092086355404627"><ele>120.0</ele><time>2026-04-06T08:38:12.999Z</time></trkpt><trkpt lat="43.72668136241019" lon="11.091830347919089"><ele>118.0</ele><time>2026-04-06T08:38:13.999Z</time></trkpt><trkpt lat="43.72656737577474" lon="11.091578852215507"><ele>116.0</ele><time>2026-04-06T08:38:14.999Z</time></trkpt><trkpt lat="43.72645316876726" lon="11.09132386677592"><ele>115.0</ele><time>2026-04-06T08:38:15.999Z</time></trkpt><trkpt lat="43.726340421998785" lon="11.091069743109383"><ele>114.0</ele><time>2026-04-06T08:38:16.999Z</time></trkpt><trkpt lat="43.72622822799227" lon="11.090819045001926"><ele>113.0</ele><time>2026-04-06T08:38:17.999Z</time></trkpt><trkpt lat="43.726117929941495" lon="11.090568012948427"><ele>112.33333333333333</ele><time>2026-04-06T08:38:18.999Z</time></trkpt><trkpt lat="43.726009394286265" lon="11.090324050979874"><ele>111.66666666666666</ele><time>2026-04-06T08:38:19.999Z</time></trkpt><trkpt lat="43.72589997233661" lon="11.090077694005005"><ele>111.0</ele><time>2026-04-06T08:38:20.999Z</time></trkpt><trkpt lat="43.72579206787077" lon="11.089837016377054"><ele>111.0</ele><time>2026-04-06T08:38:21.999Z</time></trkpt><trkpt lat="43.72568584136508" lon="11.089596717933714"><ele>111.0</ele><time>2026-04-06T08:38:22.999Z</time></trkpt><trkpt lat="43.72558066792123" lon="11.089362690710036"><ele>111.0</ele><time>2026-04-06T08:38:23.999Z</time></trkpt><trkpt lat="43.72547502871192" lon="11.089124040626865"><ele>110.66666666666666</ele><time>2026-04-06T08:38:24.999Z</time></trkpt><trkpt lat="43.725367548096436" lon="11.08888327824295"><ele>110.33333333333333</ele><time>2026-04-06T08:38:25.999Z</time></trkpt><trkpt lat="43.7252564290879" lon="11.088642747910704"><ele>110.0</ele><time>2026-04-06T08:38:26.999Z</time></trkpt><trkpt lat="43.72514891076692" lon="11.088402403619767"><ele>108.66666666666666</ele><time>2026-04-06T08:38:27.999Z</time></trkpt><trkpt lat="43.725037666784274" lon="11.088160711774844"><ele>107.33333333333334</ele><time>2026-04-06T08:38:28.999Z</time></trkpt><trkpt lat="43.7249275309256" lon="11.087918011287792"><ele>106.0</ele><time>2026-04-06T08:38:29.999Z</time></trkpt><trkpt lat="43.724820351478854" lon="11.087676757843797"><ele>106.0</ele><time>2026-04-06T08:38:30.999Z</time></trkpt><trkpt lat="43.72471874950651" lon="11.087442578885888"><ele>106.0</ele><time>2026-04-06T08:38:31.999Z</time></trkpt><trkpt lat="43.724621239243234" lon="11.087220973944849"><ele>106.0</ele><time>2026-04-06T08:38:32.999Z</time></trkpt><trkpt lat="43.724526084520036" lon="11.087008915267951"><ele>106.33333333333334</ele><time>2026-04-06T08:38:33.999Z</time></trkpt><trkpt lat="43.72443564675495" lon="11.086807449123373"><ele>106.66666666666666</ele><time>2026-04-06T08:38:34.999Z</time></trkpt><trkpt lat="43.724347844724264" lon="11.086610388592812"><ele>107.0</ele><time>2026-04-06T08:38:35.999Z</time></trkpt><trkpt lat="43.72426186783949" lon="11.08641972030437"><ele>107.66666666666666</ele><time>2026-04-06T08:38:36.999Z</time></trkpt><trkpt lat="43.7241742225462" lon="11.086224667929953"><ele>108.33333333333334</ele><time>2026-04-06T08:38:38.001Z</time></trkpt><trkpt lat="43.72408475574275" lon="11.086023226886557"><ele>109.0</ele><time>2026-04-06T08:38:39.001Z</time></trkpt><trkpt lat="43.72399057646497" lon="11.085811174178923"><ele>104.66666666666667</ele><time>2026-04-06T08:38:40.001Z</time></trkpt><trkpt lat="43.72389620002182" lon="11.085595516826729"><ele>100.33333333333334</ele><time>2026-04-06T08:38:41.001Z</time></trkpt><trkpt lat="43.72379900622515" lon="11.085374697992423"><ele>96.0</ele><time>2026-04-06T08:38:42.001Z</time></trkpt><trkpt lat="43.72369975801201" lon="11.085149386198598"><ele>95.66666666666667</ele><time>2026-04-06T08:38:43.001Z</time></trkpt><trkpt lat="43.72359655721509" lon="11.084920145708832"><ele>95.33333333333334</ele><time>2026-04-06T08:38:44.001Z</time></trkpt><trkpt lat="43.72348869453346" lon="11.084680231198536"><ele>95.0</ele><time>2026-04-06T08:38:45.001Z</time></trkpt><trkpt lat="43.72338285104687" lon="11.084443260542095"><ele>96.0</ele><time>2026-04-06T08:38:46.001Z</time></trkpt><trkpt lat="43.72327172837223" lon="11.084192086586441"><ele>97.0</ele><time>2026-04-06T08:38:47.001Z</time></trkpt><trkpt lat="43.723160811961144" lon="11.083948277993077"><ele>98.0</ele><time>2026-04-06T08:38:48.001Z</time></trkpt><trkpt lat="43.723049197770024" lon="11.083691588369861"><ele>98.0</ele><time>2026-04-06T08:38:49.001Z</time></trkpt><trkpt lat="43.72293331677546" lon="11.083433671441696"><ele>98.0</ele><time>2026-04-06T08:38:50.001Z</time></trkpt><trkpt lat="43.722818928477146" lon="11.08317185145213"><ele>98.0</ele><time>2026-04-06T08:38:51.001Z</time></trkpt><trkpt lat="43.72270714135286" lon="11.082914139419904"><ele>97.0</ele><time>2026-04-06T08:38:52Z</time></trkpt><trkpt lat="43.72258933262561" lon="11.082654902273598"><ele>96.0</ele><time>2026-04-06T08:38:53Z</time></trkpt><trkpt lat="43.722474644484244" lon="11.082391815827563"><ele>95.0</ele><time>2026-04-06T08:38:54Z</time></trkpt><trkpt lat="43.72235717290354" lon="11.08213225699567"><ele>95.0</ele><time>2026-04-06T08:38:55Z</time></trkpt><trkpt lat="43.7222403813206" lon="11.081870466867837"><ele>95.0</ele><time>2026-04-06T08:38:56Z</time></trkpt><trkpt lat="43.72212219116187" lon="11.081609934773342"><ele>95.0</ele><time>2026-04-06T08:38:57Z</time></trkpt><trkpt lat="43.72200450101763" lon="11.081348162047176"><ele>99.0</ele><time>2026-04-06T08:38:58Z</time></trkpt><trkpt lat="43.721885794165296" lon="11.08107884878833"><ele>103.0</ele><time>2026-04-06T08:38:59Z</time></trkpt><trkpt lat="43.72176898956624" lon="11.080818171483637"><ele>99.66666666666667</ele><time>2026-04-06T08:39:00Z</time></trkpt><trkpt lat="43.72165347946258" lon="11.08055718232319"><ele>96.33333333333334</ele><time>2026-04-06T08:39:01Z</time></trkpt><trkpt lat="43.721539819406075" lon="11.080299524972336"><ele>93.0</ele><time>2026-04-06T08:39:02Z</time></trkpt><trkpt lat="43.721424517397786" lon="11.080042998392376"><ele>91.66666666666667</ele><time>2026-04-06T08:39:03Z</time></trkpt><trkpt lat="43.72131247794928" lon="11.07978726473884"><ele>90.33333333333334</ele><time>2026-04-06T08:39:04Z</time></trkpt><trkpt lat="43.72119963163326" lon="11.079529510872533"><ele>89.0</ele><time>2026-04-06T08:39:05Z</time></trkpt><trkpt lat="43.721083964709806" lon="11.079270886957737"><ele>89.0</ele><time>2026-04-06T08:39:06Z</time></trkpt><trkpt lat="43.72097407115475" lon="11.079023920573809"><ele>89.0</ele><time>2026-04-06T08:39:07Z</time></trkpt><trkpt lat="43.72086204296266" lon="11.078778495938735"><ele>89.0</ele><time>2026-04-06T08:39:08Z</time></trkpt><trkpt lat="43.72075066743786" lon="11.078540113737024"><ele>89.0</ele><time>2026-04-06T08:39:09Z</time></trkpt><trkpt lat="43.720635364219824" lon="11.078302661029628"><ele>89.0</ele><time>2026-04-06T08:39:10Z</time></trkpt><trkpt lat="43.7205146934275" lon="11.078065896769695"><ele>89.0</ele><time>2026-04-06T08:39:11Z</time></trkpt><trkpt lat="43.720389789626864" lon="11.077835367962019"><ele>88.0</ele><time>2026-04-06T08:39:12Z</time></trkpt><trkpt lat="43.720259633791116" lon="11.077615054340901"><ele>87.0</ele><time>2026-04-06T08:39:13Z</time></trkpt><trkpt lat="43.72011406042154" lon="11.077401160424145"><ele>86.0</ele><time>2026-04-06T08:39:14Z</time></trkpt><trkpt lat="43.71996737745293" lon="11.077200283684054"><ele>85.0</ele><time>2026-04-06T08:39:15Z</time></trkpt><trkpt lat="43.719812812966246" lon="11.077002421281943"><ele>84.0</ele><time>2026-04-06T08:39:16Z</time></trkpt><trkpt lat="43.719653015054206" lon="11.076812569440621"><ele>83.0</ele><time>2026-04-06T08:39:17Z</time></trkpt><trkpt lat="43.719485488093795" lon="11.076626971626402"><ele>82.0</ele><time>2026-04-06T08:39:18Z</time></trkpt><trkpt lat="43.71931199861979" lon="11.076449151651895"><ele>81.0</ele><time>2026-04-06T08:39:19Z</time></trkpt><trkpt lat="43.719134122193516" lon="11.076270126064427"><ele>80.0</ele><time>2026-04-06T08:39:20Z</time></trkpt><trkpt lat="43.71896018477507" lon="11.076099814989925"><ele>80.0</ele><time>2026-04-06T08:39:21Z</time></trkpt><trkpt lat="43.71879271644717" lon="11.075938646353329"><ele>80.0</ele><time>2026-04-06T08:39:22Z</time></trkpt><trkpt lat="43.71863128319224" lon="11.075787844791853"><ele>80.0</ele><time>2026-04-06T08:39:23Z</time></trkpt><trkpt lat="43.718478455353456" lon="11.07563873984444"><ele>79.66666666666667</ele><time>2026-04-06T08:39:24Z</time></trkpt><trkpt lat="43.71832855639639" lon="11.075493836269716"><ele>79.33333333333333</ele><time>2026-04-06T08:39:25Z</time></trkpt><trkpt lat="43.71817727298511" lon="11.07534695426177"><ele>79.0</ele><time>2026-04-06T08:39:26Z</time></trkpt><trkpt lat="43.718021977339156" lon="11.075193348453691"><ele>79.0</ele><time>2026-04-06T08:39:27Z</time></trkpt><trkpt lat="43.717863833429256" lon="11.075042231632054"><ele>79.0</ele><time>2026-04-06T08:39:28Z</time></trkpt><trkpt lat="43.717702252835075" lon="11.074885143713095"><ele>79.0</ele><time>2026-04-06T08:39:29Z</time></trkpt><trkpt lat="43.717543880846975" lon="11.074734417059902"><ele>77.66666666666666</ele><time>2026-04-06T08:39:30Z</time></trkpt><trkpt lat="43.71738751265464" lon="11.074584629532039"><ele>76.33333333333333</ele><time>2026-04-06T08:39:31Z</time></trkpt><trkpt lat="43.71723872807348" lon="11.074439596828197"><ele>75.0</ele><time>2026-04-06T08:39:32Z</time></trkpt><trkpt lat="43.717092543826766" lon="11.074295592962914"><ele>75.0</ele><time>2026-04-06T08:39:33Z</time></trkpt><trkpt lat="43.71694783213424" lon="11.07415163192627"><ele>75.0</ele><time>2026-04-06T08:39:34Z</time></trkpt><trkpt lat="43.71680370795719" lon="11.07401314510369"><ele>75.0</ele><time>2026-04-06T08:39:35Z</time></trkpt><trkpt lat="43.71665954997967" lon="11.073875060096263"><ele>73.66666666666667</ele><time>2026-04-06T08:39:36Z</time></trkpt><trkpt lat="43.7165141478351" lon="11.073735009413864"><ele>72.33333333333334</ele><time>2026-04-06T08:39:37Z</time></trkpt><trkpt lat="43.716371305290345" lon="11.073595664832931"><ele>71.0</ele><time>2026-04-06T08:39:38Z</time></trkpt><trkpt lat="43.716227383324366" lon="11.073455183855337"><ele>71.0</ele><time>2026-04-06T08:39:39Z</time></trkpt><trkpt lat="43.71608493471022" lon="11.073313796052929"><ele>71.0</ele><time>2026-04-06T08:39:40Z</time></trkpt><trkpt lat="43.71593912644466" lon="11.07317225796128"><ele>71.0</ele><time>2026-04-06T08:39:41Z</time></trkpt><trkpt lat="43.715791692684576" lon="11.07303103964286"><ele>72.0</ele><time>2026-04-06T08:39:42Z</time></trkpt><trkpt lat="43.71564262212968" lon="11.072887428778339"><ele>73.0</ele><time>2026-04-06T08:39:43Z</time></trkpt><trkpt lat="43.71549695615153" lon="11.072749146728954"><ele>74.0</ele><time>2026-04-06T08:39:44Z</time></trkpt><trkpt lat="43.71535187630331" lon="11.0726103750032"><ele>73.33333333333334</ele><time>2026-04-06T08:39:45Z</time></trkpt><trkpt lat="43.71520787097069" lon="11.07247133695016"><ele>72.66666666666667</ele><time>2026-04-06T08:39:46Z</time></trkpt><trkpt lat="43.71506245985163" lon="11.072330042858276"><ele>72.0</ele><time>2026-04-06T08:39:47Z</time></trkpt><trkpt lat="43.71491752893552" lon="11.072189802007493"><ele>72.0</ele><time>2026-04-06T08:39:48Z</time></trkpt><trkpt lat="43.714771921086566" lon="11.072048911063264"><ele>72.0</ele><time>2026-04-06T08:39:49Z</time></trkpt><trkpt lat="43.714623504146466" lon="11.071904955169733"><ele>72.0</ele><time>2026-04-06T08:39:50Z</time></trkpt><trkpt lat="43.714478581012294" lon="11.071765353766041"><ele>71.0</ele><time>2026-04-06T08:39:51Z</time></trkpt><trkpt lat="43.71432933036037" lon="11.071623210617556"><ele>70.0</ele><time>2026-04-06T08:39:52Z</time></trkpt><trkpt lat="43.71418066413366" lon="11.071481213612618"><ele>69.0</ele><time>2026-04-06T08:39:53Z</time></trkpt><trkpt lat="43.714033234994695" lon="11.07133956499121"><ele>69.0</ele><time>2026-04-06T08:39:54Z</time></trkpt><trkpt lat="43.71388277613671" lon="11.0711934053001"><ele>69.0</ele><time>2026-04-06T08:39:55Z</time></trkpt><trkpt lat="43.713727515707355" lon="11.07103971601488"><ele>69.0</ele><time>2026-04-06T08:39:56Z</time></trkpt><trkpt lat="43.713576024905535" lon="11.070888100535631"><ele>67.33333333333333</ele><time>2026-04-06T08:39:57Z</time></trkpt><trkpt lat="43.713422489286515" lon="11.070727141502196"><ele>65.66666666666666</ele><time>2026-04-06T08:39:58Z</time></trkpt><trkpt lat="43.71326988586587" lon="11.070560875654444"><ele>64.0</ele><time>2026-04-06T08:39:59Z</time></trkpt><trkpt lat="43.713120668617286" lon="11.070383832795434"><ele>64.0</ele><time>2026-04-06T08:39:59.999Z</time></trkpt><trkpt lat="43.712977957106105" lon="11.070195727322732"><ele>64.0</ele><time>2026-04-06T08:40:00.999Z</time></trkpt><trkpt lat="43.712840699052265" lon="11.069992865516621"><ele>64.0</ele><time>2026-04-06T08:40:01.999Z</time></trkpt><trkpt lat="43.71271355735498" lon="11.0697832043909"><ele>63.33333333333333</ele><time>2026-04-06T08:40:02.999Z</time></trkpt><trkpt lat="43.71259314176542" lon="11.069566270550698"><ele>62.66666666666667</ele><time>2026-04-06T08:40:03.999Z</time></trkpt><trkpt lat="43.712479131101006" lon="11.069347149538004"><ele>62.0</ele><time>2026-04-06T08:40:04.999Z</time></trkpt><trkpt lat="43.71237573877606" lon="11.0691157004679"><ele>66.0</ele><time>2026-04-06T08:40:05.999Z</time></trkpt><trkpt lat="43.7122795937004" lon="11.06887390714567"><ele>70.0</ele><time>2026-04-06T08:40:06.999Z</time></trkpt><trkpt lat="43.712194502265746" lon="11.068630861115517"><ele>74.0</ele><time>2026-04-06T08:40:07.999Z</time></trkpt><trkpt lat="43.71211401553939" lon="11.068377648998188"><ele>77.66666666666667</ele><time>2026-04-06T08:40:08.999Z</time></trkpt><trkpt lat="43.71204781251056" lon="11.068125287820173"><ele>81.33333333333333</ele><time>2026-04-06T08:40:09.999Z</time></trkpt><trkpt lat="43.71198655515849" lon="11.067866298944214"><ele>85.0</ele><time>2026-04-06T08:40:10.999Z</time></trkpt><trkpt lat="43.71193639439125" lon="11.067604135396538"><ele>79.33333333333333</ele><time>2026-04-06T08:40:11.999Z</time></trkpt><trkpt lat="43.71189950462873" lon="11.067344972315178"><ele>73.66666666666667</ele><time>2026-04-06T08:40:12.999Z</time></trkpt><trkpt lat="43.71187076125875" lon="11.067086052317075"><ele>68.0</ele><time>2026-04-06T08:40:13.999Z</time></trkpt><trkpt lat="43.71185099415245" lon="11.066827756501866"><ele>67.0</ele><time>2026-04-06T08:40:14.999Z</time></trkpt><trkpt lat="43.71183449678447" lon="11.066565353081755"><ele>66.0</ele><time>2026-04-06T08:40:15.999Z</time></trkpt><trkpt lat="43.71182836122628" lon="11.066295328910721"><ele>65.0</ele><time>2026-04-06T08:40:16.999Z</time></trkpt><trkpt lat="43.711826369479915" lon="11.066020738554322"><ele>63.66666666666667</ele><time>2026-04-06T08:40:17.999Z</time></trkpt><trkpt lat="43.71183682074951" lon="11.065748997498469"><ele>62.33333333333333</ele><time>2026-04-06T08:40:18.999Z</time></trkpt><trkpt lat="43.71185488659408" lon="11.065466760508889"><ele>61.0</ele><time>2026-04-06T08:40:19.999Z</time></trkpt><trkpt lat="43.711883972470964" lon="11.06518237523606"><ele>68.0</ele><time>2026-04-06T08:40:20.999Z</time></trkpt><trkpt lat="43.71192381703041" lon="11.064894189363685"><ele>75.0</ele><time>2026-04-06T08:40:21.999Z</time></trkpt><trkpt lat="43.71197132514704" lon="11.064600427454721"><ele>82.0</ele><time>2026-04-06T08:40:22.999Z</time></trkpt><trkpt lat="43.71202122517423" lon="11.064303216342976"><ele>80.0</ele><time>2026-04-06T08:40:23.999Z</time></trkpt><trkpt lat="43.71207117389925" lon="11.064002559607164"><ele>78.0</ele><time>2026-04-06T08:40:24.999Z</time></trkpt><trkpt lat="43.71212267010321" lon="11.063702050227407"><ele>76.0</ele><time>2026-04-06T08:40:25.999Z</time></trkpt><trkpt lat="43.71217045535708" lon="11.063405274528307"><ele>72.66666666666666</ele><time>2026-04-06T08:40:26.999Z</time></trkpt><trkpt lat="43.71221450160455" lon="11.063109476937594"><ele>69.33333333333333</ele><time>2026-04-06T08:40:27.999Z</time></trkpt><trkpt lat="43.712257750583966" lon="11.062804291113192"><ele>66.0</ele><time>2026-04-06T08:40:28.999Z</time></trkpt><trkpt lat="43.71229690618227" lon="11.062503662275251"><ele>60.5</ele><time>2026-04-06T08:40:29.999Z</time></trkpt><trkpt lat="43.712330433125004" lon="11.062188569377085"><ele>55.0</ele><time>2026-04-06T08:40:30.999Z</time></trkpt><trkpt lat="43.712357576934345" lon="11.061872236532212"><ele>53.0</ele><time>2026-04-06T08:40:31.999Z</time></trkpt><trkpt lat="43.712376452162545" lon="11.061549730153134"><ele>51.0</ele><time>2026-04-06T08:40:32.999Z</time></trkpt><trkpt lat="43.71238994783189" lon="11.061229259338532"><ele>51.0</ele><time>2026-04-06T08:40:33.999Z</time></trkpt><trkpt lat="43.7124030158751" lon="11.060902701211406"><ele>51.0</ele><time>2026-04-06T08:40:34.999Z</time></trkpt><trkpt lat="43.71240909397423" lon="11.06057578767111"><ele>50.5</ele><time>2026-04-06T08:40:35.999Z</time></trkpt><trkpt lat="43.71240464607826" lon="11.060249050490743"><ele>50.0</ele><time>2026-04-06T08:40:36.999Z</time></trkpt><trkpt lat="43.712393428725846" lon="11.059922245996535"><ele>49.5</ele><time>2026-04-06T08:40:37.999Z</time></trkpt><trkpt lat="43.712375161424546" lon="11.05960834479332"><ele>49.0</ele><time>2026-04-06T08:40:38.999Z</time></trkpt><trkpt lat="43.712356744371235" lon="11.059275979766477"><ele>50.0</ele><time>2026-04-06T08:40:39.999Z</time></trkpt><trkpt lat="43.712329058778195" lon="11.058956325727454"><ele>51.0</ele><time>2026-04-06T08:40:40.999Z</time></trkpt><trkpt lat="43.71229365829153" lon="11.058639331694152"><ele>51.0</ele><time>2026-04-06T08:40:41.999Z</time></trkpt><trkpt lat="43.712256445015456" lon="11.058326548396195"><ele>51.0</ele><time>2026-04-06T08:40:43Z</time></trkpt><trkpt lat="43.71221403523154" lon="11.0580206048313"><ele>51.0</ele><time>2026-04-06T08:40:44Z</time></trkpt><trkpt lat="43.71216682596861" lon="11.057713274786515"><ele>51.0</ele><time>2026-04-06T08:40:45Z</time></trkpt><trkpt lat="43.712116675341285" lon="11.057405803967407"><ele>50.0</ele><time>2026-04-06T08:40:46Z</time></trkpt><trkpt lat="43.712063354841845" lon="11.057101263085233"><ele>49.0</ele><time>2026-04-06T08:40:47Z</time></trkpt><trkpt lat="43.712014670452895" lon="11.056791327207993"><ele>49.0</ele><time>2026-04-06T08:40:48Z</time></trkpt><trkpt lat="43.71196264380532" lon="11.056485711493403"><ele>49.0</ele><time>2026-04-06T08:40:49Z</time></trkpt><trkpt lat="43.71191118451832" lon="11.056173738163718"><ele>48.5</ele><time>2026-04-06T08:40:50Z</time></trkpt><trkpt lat="43.711860208784316" lon="11.055861937800751"><ele>48.0</ele><time>2026-04-06T08:40:51Z</time></trkpt><trkpt lat="43.711809456911396" lon="11.05555236311355"><ele>48.0</ele><time>2026-04-06T08:40:52Z</time></trkpt><trkpt lat="43.71176120342079" lon="11.05524533176219"><ele>48.0</ele><time>2026-04-06T08:40:53Z</time></trkpt><trkpt lat="43.711713317112874" lon="11.05494047165232"><ele>47.666666666666664</ele><time>2026-04-06T08:40:54Z</time></trkpt><trkpt lat="43.71166285001318" lon="11.054639277048127"><ele>47.33333333333333</ele><time>2026-04-06T08:40:55Z</time></trkpt><trkpt lat="43.71161358851569" lon="11.054336616365035"><ele>47.0</ele><time>2026-04-06T08:40:56Z</time></trkpt><trkpt lat="43.71156530261159" lon="11.054032332561023"><ele>47.0</ele><time>2026-04-06T08:40:57Z</time></trkpt><trkpt lat="43.71151838261539" lon="11.053729598219462"><ele>47.0</ele><time>2026-04-06T08:40:58Z</time></trkpt><trkpt lat="43.71148206341504" lon="11.053427597733295"><ele>47.0</ele><time>2026-04-06T08:40:59Z</time></trkpt><trkpt lat="43.71145996389186" lon="11.053123063771027"><ele>47.0</ele><time>2026-04-06T08:41:00Z</time></trkpt><trkpt lat="43.711440733563414" lon="11.05282320084112"><ele>47.0</ele><time>2026-04-06T08:41:01Z</time></trkpt><trkpt lat="43.711430711838055" lon="11.052520595227767"><ele>47.0</ele><time>2026-04-06T08:41:02Z</time></trkpt><trkpt lat="43.711428255524936" lon="11.052215604095538"><ele>47.5</ele><time>2026-04-06T08:41:03Z</time></trkpt><trkpt lat="43.71143365245424" lon="11.051903940555203"><ele>48.0</ele><time>2026-04-06T08:41:04Z</time></trkpt><trkpt lat="43.711445269247" lon="11.051592558579632"><ele>48.5</ele><time>2026-04-06T08:41:05Z</time></trkpt><trkpt lat="43.7114676029366" lon="11.051277645858404"><ele>49.0</ele><time>2026-04-06T08:41:06Z</time></trkpt><trkpt lat="43.71150193445039" lon="11.05096333188171"><ele>48.0</ele><time>2026-04-06T08:41:07Z</time></trkpt><trkpt lat="43.711544756780846" lon="11.050644249457006"><ele>47.0</ele><time>2026-04-06T08:41:08Z</time></trkpt><trkpt lat="43.711590736611825" lon="11.050329673020062"><ele>47.0</ele><time>2026-04-06T08:41:09Z</time></trkpt><trkpt lat="43.71164148058214" lon="11.050006023198497"><ele>47.0</ele><time>2026-04-06T08:41:10Z</time></trkpt><trkpt lat="43.71168877115716" lon="11.04968239424573"><ele>49.0</ele><time>2026-04-06T08:41:11Z</time></trkpt><trkpt lat="43.7117339783197" lon="11.04935471203009"><ele>51.0</ele><time>2026-04-06T08:41:12Z</time></trkpt><trkpt lat="43.71177886347692" lon="11.049024638050561"><ele>51.5</ele><time>2026-04-06T08:41:13Z</time></trkpt><trkpt lat="43.71182642947885" lon="11.048688236816984"><ele>52.0</ele><time>2026-04-06T08:41:14Z</time></trkpt><trkpt lat="43.711874333991034" lon="11.048353125038565"><ele>47.5</ele><time>2026-04-06T08:41:15Z</time></trkpt><trkpt lat="43.71192551900544" lon="11.048015631933472"><ele>43.0</ele><time>2026-04-06T08:41:16Z</time></trkpt><trkpt lat="43.71198226221192" lon="11.047679036075397"><ele>45.5</ele><time>2026-04-06T08:41:17Z</time></trkpt><trkpt lat="43.71205934270233" lon="11.047345648242299"><ele>48.0</ele><time>2026-04-06T08:41:18Z</time></trkpt><trkpt lat="43.71215364484172" lon="11.047017726778197"><ele>48.0</ele><time>2026-04-06T08:41:19Z</time></trkpt><trkpt lat="43.712261834002106" lon="11.04669274802011"><ele>48.0</ele><time>2026-04-06T08:41:20Z</time></trkpt><trkpt lat="43.71238574202805" lon="11.046375274716803"><ele>51.5</ele><time>2026-04-06T08:41:21Z</time></trkpt><trkpt lat="43.712526578929804" lon="11.04605882142272"><ele>55.0</ele><time>2026-04-06T08:41:22Z</time></trkpt><trkpt lat="43.7126780305973" lon="11.045746099634282"><ele>50.0</ele><time>2026-04-06T08:41:23Z</time></trkpt><trkpt lat="43.71283695631538" lon="11.045436363593506"><ele>45.0</ele><time>2026-04-06T08:41:24Z</time></trkpt><trkpt lat="43.71299549280835" lon="11.045121657958234"><ele>47.5</ele><time>2026-04-06T08:41:25Z</time></trkpt><trkpt lat="43.71314980724439" lon="11.044802858532197"><ele>50.0</ele><time>2026-04-06T08:41:26Z</time></trkpt><trkpt lat="43.71330306481121" lon="11.044487407306093"><ele>50.0</ele><time>2026-04-06T08:41:27Z</time></trkpt><trkpt lat="43.713457911111504" lon="11.044172246257876"><ele>50.0</ele><time>2026-04-06T08:41:28Z</time></trkpt><trkpt lat="43.71361015631285" lon="11.043855644377322"><ele>49.5</ele><time>2026-04-06T08:41:29Z</time></trkpt><trkpt lat="43.71376113486352" lon="11.043544425541588"><ele>49.0</ele><time>2026-04-06T08:41:30Z</time></trkpt><trkpt lat="43.71391365346499" lon="11.043229424135703"><ele>49.0</ele><time>2026-04-06T08:41:31Z</time></trkpt><trkpt lat="43.71407024853431" lon="11.042913129681754"><ele>49.0</ele><time>2026-04-06T08:41:32Z</time></trkpt><trkpt lat="43.71422641997635" lon="11.042597109714704"><ele>49.5</ele><time>2026-04-06T08:41:33Z</time></trkpt><trkpt lat="43.714382237391206" lon="11.042277627712028"><ele>50.0</ele><time>2026-04-06T08:41:34Z</time></trkpt><trkpt lat="43.714538082665605" lon="11.041956325043984"><ele>51.0</ele><time>2026-04-06T08:41:35Z</time></trkpt><trkpt lat="43.714695068307726" lon="11.041633560487703"><ele>52.0</ele><time>2026-04-06T08:41:36Z</time></trkpt><trkpt lat="43.714854655571656" lon="11.041305010883741"><ele>52.0</ele><time>2026-04-06T08:41:37Z</time></trkpt><trkpt lat="43.715015883845936" lon="11.040974828360676"><ele>52.0</ele><time>2026-04-06T08:41:38Z</time></trkpt><trkpt lat="43.71517503093657" lon="11.040647145955496"><ele>48.5</ele><time>2026-04-06T08:41:39Z</time></trkpt><trkpt lat="43.71533739739586" lon="11.0403191669293"><ele>45.0</ele><time>2026-04-06T08:41:40Z</time></trkpt><trkpt lat="43.715496686760254" lon="11.039991875083025"><ele>49.0</ele><time>2026-04-06T08:41:41Z</time></trkpt><trkpt lat="43.71565026700903" lon="11.03966184668743"><ele>53.0</ele><time>2026-04-06T08:41:42Z</time></trkpt><trkpt lat="43.71579182970897" lon="11.039328345080131"><ele>58.5</ele><time>2026-04-06T08:41:43Z</time></trkpt><trkpt lat="43.715920673614" lon="11.038978471483325"><ele>64.0</ele><time>2026-04-06T08:41:44Z</time></trkpt><trkpt lat="43.71603294190237" lon="11.038619644890945"><ele>55.5</ele><time>2026-04-06T08:41:45Z</time></trkpt><trkpt lat="43.7161281559942" lon="11.038255699878789"><ele>47.0</ele><time>2026-04-06T08:41:46Z</time></trkpt><trkpt lat="43.71620393550009" lon="11.037882911381868"><ele>47.0</ele><time>2026-04-06T08:41:47Z</time></trkpt><trkpt lat="43.71626263229783" lon="11.037502725120557"><ele>47.0</ele><time>2026-04-06T08:41:48Z</time></trkpt><trkpt lat="43.71631160328143" lon="11.03712712772512"><ele>51.0</ele><time>2026-04-06T08:41:49Z</time></trkpt><trkpt lat="43.716366754095766" lon="11.036751323865738"><ele>55.0</ele><time>2026-04-06T08:41:50Z</time></trkpt><trkpt lat="43.716429648435266" lon="11.036374771693403"><ele>58.0</ele><time>2026-04-06T08:41:51Z</time></trkpt><trkpt lat="43.7165080835298" lon="11.036006825875107"><ele>61.0</ele><time>2026-04-06T08:41:52Z</time></trkpt><trkpt lat="43.71660947603193" lon="11.035649258094098"><ele>61.0</ele><time>2026-04-06T08:41:53Z</time></trkpt><trkpt lat="43.71672628090768" lon="11.035297140471014"><ele>61.0</ele><time>2026-04-06T08:41:54Z</time></trkpt><trkpt lat="43.71685542546502" lon="11.034963025419342"><ele>53.0</ele><time>2026-04-06T08:41:55Z</time></trkpt><trkpt lat="43.71700799696943" lon="11.034633332484956"><ele>45.0</ele><time>2026-04-06T08:41:56Z</time></trkpt><trkpt lat="43.71717189354552" lon="11.03431093678981"><ele>45.0</ele><time>2026-04-06T08:41:57Z</time></trkpt><trkpt lat="43.71733724417446" lon="11.033998154925111"><ele>45.0</ele><time>2026-04-06T08:41:58Z</time></trkpt><trkpt lat="43.71750162644081" lon="11.033676386516989"><ele>45.0</ele><time>2026-04-06T08:41:59Z</time></trkpt><trkpt lat="43.71766127158196" lon="11.033357607772343"><ele>45.0</ele><time>2026-04-06T08:42:00Z</time></trkpt><trkpt lat="43.71781936287387" lon="11.033043180824908"><ele>52.0</ele><time>2026-04-06T08:42:01Z</time></trkpt><trkpt lat="43.717975300306385" lon="11.032732816589133"><ele>59.0</ele><time>2026-04-06T08:42:02Z</time></trkpt><trkpt lat="43.71812622290237" lon="11.0324343135684"><ele>63.0</ele><time>2026-04-06T08:42:03Z</time></trkpt><trkpt lat="43.71827031557496" lon="11.032144369813487"><ele>67.0</ele><time>2026-04-06T08:42:03.999Z</time></trkpt><trkpt lat="43.71841103851323" lon="11.031862484257044"><ele>65.0</ele><time>2026-04-06T08:42:04.999Z</time></trkpt><trkpt lat="43.71855037020637" lon="11.03158018757397"><ele>63.0</ele><time>2026-04-06T08:42:05.999Z</time></trkpt><trkpt lat="43.7186867251667" lon="11.031307068479352"><ele>63.0</ele><time>2026-04-06T08:42:06.999Z</time></trkpt><trkpt lat="43.718820211721926" lon="11.031046571627902"><ele>63.0</ele><time>2026-04-06T08:42:07.999Z</time></trkpt><trkpt lat="43.71894894036191" lon="11.030791204775594"><ele>64.33333333333333</ele><time>2026-04-06T08:42:08.999Z</time></trkpt><trkpt lat="43.71907510983023" lon="11.030542008584506"><ele>65.66666666666666</ele><time>2026-04-06T08:42:09.999Z</time></trkpt><trkpt lat="43.719200685577185" lon="11.030292067747407"><ele>67.0</ele><time>2026-04-06T08:42:10.999Z</time></trkpt><trkpt lat="43.71932920161147" lon="11.030039460055724"><ele>66.0</ele><time>2026-04-06T08:42:11.999Z</time></trkpt><trkpt lat="43.719454782176435" lon="11.02978423106839"><ele>65.0</ele><time>2026-04-06T08:42:12.999Z</time></trkpt><trkpt lat="43.71958095494393" lon="11.029531830659716"><ele>64.0</ele><time>2026-04-06T08:42:13.999Z</time></trkpt><trkpt lat="43.71970690586316" lon="11.029276602904398"><ele>68.5</ele><time>2026-04-06T08:42:14.999Z</time></trkpt><trkpt lat="43.7198396982019" lon="11.0290178881585"><ele>73.0</ele><time>2026-04-06T08:42:15.999Z</time></trkpt><trkpt lat="43.71997525116505" lon="11.02875517924928"><ele>73.0</ele><time>2026-04-06T08:42:16.999Z</time></trkpt><trkpt lat="43.72010614993637" lon="11.028491402781965"><ele>73.0</ele><time>2026-04-06T08:42:17.999Z</time></trkpt><trkpt lat="43.72023923679498" lon="11.028225750475436"><ele>70.5</ele><time>2026-04-06T08:42:18.999Z</time></trkpt><trkpt lat="43.720372142880315" lon="11.027962699668123"><ele>68.0</ele><time>2026-04-06T08:42:19.999Z</time></trkpt><trkpt lat="43.720507058689485" lon="11.027692467383087"><ele>70.0</ele><time>2026-04-06T08:42:20.999Z</time></trkpt><trkpt lat="43.720642300729956" lon="11.027424749359085"><ele>72.0</ele><time>2026-04-06T08:42:21.999Z</time></trkpt><trkpt lat="43.720775994130726" lon="11.027158184406415"><ele>72.0</ele><time>2026-04-06T08:42:22.999Z</time></trkpt><trkpt lat="43.72090627964344" lon="11.02689636481213"><ele>72.0</ele><time>2026-04-06T08:42:23.999Z</time></trkpt><trkpt lat="43.72103520369766" lon="11.02664119494839"><ele>67.66666666666667</ele><time>2026-04-06T08:42:24.999Z</time></trkpt><trkpt lat="43.721158957353275" lon="11.026390521698119"><ele>63.333333333333336</ele><time>2026-04-06T08:42:25.999Z</time></trkpt><trkpt lat="43.72128110058975" lon="11.026147147023746"><ele>59.0</ele><time>2026-04-06T08:42:26.999Z</time></trkpt><trkpt lat="43.721399968243425" lon="11.025911723649552"><ele>61.333333333333336</ele><time>2026-04-06T08:42:27.999Z</time></trkpt><trkpt lat="43.72152111468158" lon="11.02567521145407"><ele>63.66666666666667</ele><time>2026-04-06T08:42:28.999Z</time></trkpt><trkpt lat="43.7216441355606" lon="11.025434611597685"><ele>66.0</ele><time>2026-04-06T08:42:29.999Z</time></trkpt><trkpt lat="43.72177078878912" lon="11.025193527638171"><ele>62.66666666666667</ele><time>2026-04-06T08:42:30.999Z</time></trkpt><trkpt lat="43.721904242871084" lon="11.024955574295548"><ele>59.333333333333336</ele><time>2026-04-06T08:42:31.999Z</time></trkpt><trkpt lat="43.722041886463714" lon="11.024722005349496"><ele>56.0</ele><time>2026-04-06T08:42:32.999Z</time></trkpt><trkpt lat="43.72218443991447" lon="11.024484935915883"><ele>56.0</ele><time>2026-04-06T08:42:33.999Z</time></trkpt><trkpt lat="43.72233099619923" lon="11.024247342864069"><ele>56.0</ele><time>2026-04-06T08:42:34.999Z</time></trkpt><trkpt lat="43.72248247595516" lon="11.024010871809411"><ele>57.0</ele><time>2026-04-06T08:42:35.999Z</time></trkpt><trkpt lat="43.7226345973514" lon="11.023778071993991"><ele>58.0</ele><time>2026-04-06T08:42:36.999Z</time></trkpt><trkpt lat="43.72279011796757" lon="11.023549264694747"><ele>58.0</ele><time>2026-04-06T08:42:37.999Z</time></trkpt><trkpt lat="43.722948942550616" lon="11.023327324673753"><ele>58.0</ele><time>2026-04-06T08:42:38.999Z</time></trkpt><trkpt lat="43.72311068309214" lon="11.023111908791854"><ele>57.666666666666664</ele><time>2026-04-06T08:42:39.999Z</time></trkpt><trkpt lat="43.72327058843086" lon="11.022897468383599"><ele>57.33333333333333</ele><time>2026-04-06T08:42:40.999Z</time></trkpt><trkpt lat="43.72342796799931" lon="11.022688472794034"><ele>57.0</ele><time>2026-04-06T08:42:41.999Z</time></trkpt><trkpt lat="43.72358308086277" lon="11.022484332245932"><ele>60.33333333333333</ele><time>2026-04-06T08:42:42.999Z</time></trkpt><trkpt lat="43.72373599779475" lon="11.022283150228839"><ele>63.666666666666664</ele><time>2026-04-06T08:42:43.999Z</time></trkpt><trkpt lat="43.7238886507172" lon="11.022083846561895"><ele>67.0</ele><time>2026-04-06T08:42:44.999Z</time></trkpt><trkpt lat="43.72403343061758" lon="11.0218763940052"><ele>67.0</ele><time>2026-04-06T08:42:45.999Z</time></trkpt><trkpt lat="43.72416844030122" lon="11.02166160056666"><ele>67.0</ele><time>2026-04-06T08:42:46.999Z</time></trkpt><trkpt lat="43.724299764791645" lon="11.021434387904586"><ele>67.0</ele><time>2026-04-06T08:42:47.999Z</time></trkpt><trkpt lat="43.72442345536193" lon="11.02119738411985"><ele>68.0</ele><time>2026-04-06T08:42:49Z</time></trkpt><trkpt lat="43.72454074400626" lon="11.020953772878203"><ele>69.0</ele><time>2026-04-06T08:42:50Z</time></trkpt><trkpt lat="43.72465183487853" lon="11.020700122666211"><ele>70.0</ele><time>2026-04-06T08:42:51Z</time></trkpt><trkpt lat="43.72475387071659" lon="11.02043948736538"><ele>70.0</ele><time>2026-04-06T08:42:52Z</time></trkpt><trkpt lat="43.7248446917692" lon="11.020170684514353"><ele>70.0</ele><time>2026-04-06T08:42:53Z</time></trkpt><trkpt lat="43.72492398099716" lon="11.019898759940036"><ele>70.0</ele><time>2026-04-06T08:42:54Z</time></trkpt><trkpt lat="43.72499292358027" lon="11.019626924439649"><ele>72.66666666666666</ele><time>2026-04-06T08:42:55Z</time></trkpt><trkpt lat="43.725058798592144" lon="11.019349572746421"><ele>75.33333333333333</ele><time>2026-04-06T08:42:56Z</time></trkpt><trkpt lat="43.725112774626666" lon="11.019070367038346"><ele>78.0</ele><time>2026-04-06T08:42:57Z</time></trkpt><trkpt lat="43.72515763196039" lon="11.018784447560169"><ele>80.0</ele><time>2026-04-06T08:42:58Z</time></trkpt><trkpt lat="43.72518843635904" lon="11.018495392524851"><ele>82.0</ele><time>2026-04-06T08:42:59Z</time></trkpt><trkpt lat="43.72521180834001" lon="11.018202952471073"><ele>84.0</ele><time>2026-04-06T08:43:00Z</time></trkpt><trkpt lat="43.72522368261188" lon="11.017910873924523"><ele>80.33333333333333</ele><time>2026-04-06T08:43:01Z</time></trkpt><trkpt lat="43.72523009024316" lon="11.017616459290846"><ele>76.66666666666666</ele><time>2026-04-06T08:43:02Z</time></trkpt><trkpt lat="43.72522501004396" lon="11.01731889940038"><ele>73.0</ele><time>2026-04-06T08:43:03Z</time></trkpt><trkpt lat="43.725205383982" lon="11.017019662012276"><ele>73.0</ele><time>2026-04-06T08:43:04Z</time></trkpt><trkpt lat="43.725181511513874" lon="11.016713227927568"><ele>73.0</ele><time>2026-04-06T08:43:05Z</time></trkpt><trkpt lat="43.725144854335284" lon="11.016405050116722"><ele>73.0</ele><time>2026-04-06T08:43:06Z</time></trkpt><trkpt lat="43.72509674037836" lon="11.016097502089265"><ele>66.0</ele><time>2026-04-06T08:43:07Z</time></trkpt><trkpt lat="43.725030458792695" lon="11.015790637908792"><ele>59.0</ele><time>2026-04-06T08:43:08Z</time></trkpt><trkpt lat="43.72495241421836" lon="11.015482181993459"><ele>59.0</ele><time>2026-04-06T08:43:09Z</time></trkpt><trkpt lat="43.7248646293707" lon="11.015177418976824"><ele>59.0</ele><time>2026-04-06T08:43:10Z</time></trkpt><trkpt lat="43.7247632219887" lon="11.014876883474075"><ele>57.0</ele><time>2026-04-06T08:43:11Z</time></trkpt><trkpt lat="43.724645006207574" lon="11.014583313076745"><ele>55.0</ele><time>2026-04-06T08:43:12Z</time></trkpt><trkpt lat="43.72451688754321" lon="11.014295560819267"><ele>55.5</ele><time>2026-04-06T08:43:13Z</time></trkpt><trkpt lat="43.72438027581768" lon="11.014012022647297"><ele>56.0</ele><time>2026-04-06T08:43:14Z</time></trkpt><trkpt lat="43.72424459634595" lon="11.0137334643515"><ele>56.0</ele><time>2026-04-06T08:43:15Z</time></trkpt><trkpt lat="43.72411170947402" lon="11.013458129572838"><ele>56.0</ele><time>2026-04-06T08:43:16Z</time></trkpt><trkpt lat="43.72397956538772" lon="11.013182681169187"><ele>54.0</ele><time>2026-04-06T08:43:17Z</time></trkpt><trkpt lat="43.72384681137807" lon="11.012909844480621"><ele>52.0</ele><time>2026-04-06T08:43:18Z</time></trkpt><trkpt lat="43.72371383337214" lon="11.012641158633034"><ele>52.5</ele><time>2026-04-06T08:43:19Z</time></trkpt><trkpt lat="43.72357956501773" lon="11.012372992938106"><ele>53.0</ele><time>2026-04-06T08:43:20Z</time></trkpt><trkpt lat="43.723445583308454" lon="11.01210162116165"><ele>53.0</ele><time>2026-04-06T08:43:21Z</time></trkpt><trkpt lat="43.72330916868517" lon="11.011822783688698"><ele>53.0</ele><time>2026-04-06T08:43:22Z</time></trkpt><trkpt lat="43.72317664846242" lon="11.01154797765176"><ele>48.0</ele><time>2026-04-06T08:43:23Z</time></trkpt><trkpt lat="43.72304322593066" lon="11.011267228263426"><ele>43.0</ele><time>2026-04-06T08:43:24Z</time></trkpt><trkpt lat="43.72290749946262" lon="11.010982962712498"><ele>39.0</ele><time>2026-04-06T08:43:25Z</time></trkpt><trkpt lat="43.722775531308415" lon="11.01070050838319"><ele>35.0</ele><time>2026-04-06T08:43:26Z</time></trkpt><trkpt lat="43.72264846803439" lon="11.01040224299521"><ele>35.0</ele><time>2026-04-06T08:43:27Z</time></trkpt><trkpt lat="43.722532192909235" lon="11.010094222440646"><ele>35.0</ele><time>2026-04-06T08:43:28Z</time></trkpt><trkpt lat="43.72242886151125" lon="11.00977898372707"><ele>33.0</ele><time>2026-04-06T08:43:29Z</time></trkpt><trkpt lat="43.72233756715764" lon="11.00946157079305"><ele>31.0</ele><time>2026-04-06T08:43:30Z</time></trkpt><trkpt lat="43.72226089602412" lon="11.009144313460785"><ele>30.0</ele><time>2026-04-06T08:43:31Z</time></trkpt><trkpt lat="43.72219431311914" lon="11.008822220934858"><ele>29.0</ele><time>2026-04-06T08:43:32Z</time></trkpt><trkpt lat="43.72214069501736" lon="11.008502344011653"><ele>28.5</ele><time>2026-04-06T08:43:33Z</time></trkpt><trkpt lat="43.72209555799052" lon="11.008182215187308"><ele>28.0</ele><time>2026-04-06T08:43:34Z</time></trkpt><trkpt lat="43.722055573419475" lon="11.007859452830683"><ele>28.0</ele><time>2026-04-06T08:43:35Z</time></trkpt><trkpt lat="43.72201878533926" lon="11.00753553700185"><ele>28.0</ele><time>2026-04-06T08:43:36Z</time></trkpt><trkpt lat="43.72198455072388" lon="11.007210055428937"><ele>28.0</ele><time>2026-04-06T08:43:37Z</time></trkpt><trkpt lat="43.721951356810926" lon="11.006890657505954"><ele>28.0</ele><time>2026-04-06T08:43:38Z</time></trkpt><trkpt lat="43.72191654078906" lon="11.00657623295742"><ele>28.0</ele><time>2026-04-06T08:43:39Z</time></trkpt><trkpt lat="43.72188388760896" lon="11.006270850701997"><ele>28.0</ele><time>2026-04-06T08:43:40Z</time></trkpt><trkpt lat="43.7218504029365" lon="11.005968384135873"><ele>28.0</ele><time>2026-04-06T08:43:41Z</time></trkpt><trkpt lat="43.72181801496396" lon="11.005674813779558"><ele>28.0</ele><time>2026-04-06T08:43:42Z</time></trkpt><trkpt lat="43.72178607544909" lon="11.00538295465336"><ele>28.0</ele><time>2026-04-06T08:43:43Z</time></trkpt><trkpt lat="43.72175486414233" lon="11.005095214233334"><ele>28.0</ele><time>2026-04-06T08:43:44Z</time></trkpt><trkpt lat="43.72172439970191" lon="11.004810051984348"><ele>28.333333333333336</ele><time>2026-04-06T08:43:45Z</time></trkpt><trkpt lat="43.721692533032666" lon="11.004526012962787"><ele>28.666666666666664</ele><time>2026-04-06T08:43:46Z</time></trkpt><trkpt lat="43.72165920710921" lon="11.004235429729519"><ele>29.0</ele><time>2026-04-06T08:43:47Z</time></trkpt><trkpt lat="43.72162556197723" lon="11.003944477156274"><ele>29.666666666666664</ele><time>2026-04-06T08:43:48Z</time></trkpt><trkpt lat="43.72159199379898" lon="11.00365456656082"><ele>30.333333333333336</ele><time>2026-04-06T08:43:49Z</time></trkpt><trkpt lat="43.721561578852125" lon="11.003359314776176"><ele>31.0</ele><time>2026-04-06T08:43:50Z</time></trkpt><trkpt lat="43.72152996752273" lon="11.00306256431976"><ele>31.0</ele><time>2026-04-06T08:43:51Z</time></trkpt><trkpt lat="43.721496796235265" lon="11.002769053771216"><ele>31.0</ele><time>2026-04-06T08:43:52Z</time></trkpt><trkpt lat="43.72146445438814" lon="11.002476406053214"><ele>31.0</ele><time>2026-04-06T08:43:53Z</time></trkpt><trkpt lat="43.721430896059005" lon="11.002179578719131"><ele>31.0</ele><time>2026-04-06T08:43:54Z</time></trkpt><trkpt lat="43.72139796015489" lon="11.001891191172893"><ele>31.0</ele><time>2026-04-06T08:43:55Z</time></trkpt><trkpt lat="43.72136771239394" lon="11.001606417328455"><ele>31.0</ele><time>2026-04-06T08:43:56Z</time></trkpt><trkpt lat="43.72133847931098" lon="11.001325008686049"><ele>30.666666666666668</ele><time>2026-04-06T08:43:57Z</time></trkpt><trkpt lat="43.72130783896019" lon="11.001042294945515"><ele>30.333333333333336</ele><time>2026-04-06T08:43:58Z</time></trkpt><trkpt lat="43.72127565530659" lon="11.000759187107251"><ele>30.0</ele><time>2026-04-06T08:43:59Z</time></trkpt><trkpt lat="43.72124405018943" lon="11.00047256828385"><ele>29.666666666666664</ele><time>2026-04-06T08:44:00Z</time></trkpt><trkpt lat="43.7212130052724" lon="11.000183812575088"><ele>29.333333333333332</ele><time>2026-04-06T08:44:01Z</time></trkpt><trkpt lat="43.72117994549049" lon="10.99989883527002"><ele>29.0</ele><time>2026-04-06T08:44:02Z</time></trkpt><trkpt lat="43.72114891548115" lon="10.999615939829487"><ele>29.0</ele><time>2026-04-06T08:44:03Z</time></trkpt><trkpt lat="43.72111840136991" lon="10.999335137846218"><ele>29.0</ele><time>2026-04-06T08:44:03.999Z</time></trkpt><trkpt lat="43.72108760993413" lon="10.999057098603938"><ele>29.0</ele><time>2026-04-06T08:44:04.999Z</time></trkpt><trkpt lat="43.72105688297304" lon="10.998783059920017"><ele>29.333333333333332</ele><time>2026-04-06T08:44:05.999Z</time></trkpt><trkpt lat="43.7210263382159" lon="10.998508317192696"><ele>29.666666666666664</ele><time>2026-04-06T08:44:06.999Z</time></trkpt><trkpt lat="43.720997675051606" lon="10.998235059961717"><ele>30.0</ele><time>2026-04-06T08:44:07.999Z</time></trkpt><trkpt lat="43.72096715692954" lon="10.997961683494427"><ele>30.0</ele><time>2026-04-06T08:44:08.999Z</time></trkpt><trkpt lat="43.72093689823314" lon="10.997684893921386"><ele>30.0</ele><time>2026-04-06T08:44:09.999Z</time></trkpt><trkpt lat="43.72090569158847" lon="10.99740432488299"><ele>30.0</ele><time>2026-04-06T08:44:10.999Z</time></trkpt><trkpt lat="43.72087463243466" lon="10.997118686842915"><ele>29.666666666666664</ele><time>2026-04-06T08:44:11.999Z</time></trkpt><trkpt lat="43.720842921492505" lon="10.99682990088901"><ele>29.333333333333332</ele><time>2026-04-06T08:44:12.999Z</time></trkpt><trkpt lat="43.7208102107527" lon="10.996539766681648"><ele>29.0</ele><time>2026-04-06T08:44:13.999Z</time></trkpt><trkpt lat="43.72077743833474" lon="10.996243895577923"><ele>29.0</ele><time>2026-04-06T08:44:14.999Z</time></trkpt><trkpt lat="43.72074456503381" lon="10.995938310660264"><ele>29.0</ele><time>2026-04-06T08:44:15.999Z</time></trkpt><trkpt lat="43.72071104939464" lon="10.995663164212614"><ele>29.0</ele><time>2026-04-06T08:44:16.999Z</time></trkpt><trkpt lat="43.720677629697754" lon="10.995371428356512"><ele>29.0</ele><time>2026-04-06T08:44:17.999Z</time></trkpt><trkpt lat="43.72064528643126" lon="10.995078338314423"><ele>29.0</ele><time>2026-04-06T08:44:18.999Z</time></trkpt><trkpt lat="43.72061167529005" lon="10.994782935066198"><ele>29.0</ele><time>2026-04-06T08:44:19.999Z</time></trkpt><trkpt lat="43.72057952010627" lon="10.99448479878703"><ele>28.666666666666664</ele><time>2026-04-06T08:44:20.999Z</time></trkpt><trkpt lat="43.72054835488423" lon="10.994195445726799"><ele>28.333333333333336</ele><time>2026-04-06T08:44:21.999Z</time></trkpt><trkpt lat="43.720518222951604" lon="10.993910509333698"><ele>28.0</ele><time>2026-04-06T08:44:22.999Z</time></trkpt><trkpt lat="43.720490062309686" lon="10.993654231867234"><ele>28.0</ele><time>2026-04-06T08:44:23.999Z</time></trkpt><trkpt lat="43.7204618626055" lon="10.993392999900644"><ele>28.0</ele><time>2026-04-06T08:44:24.999Z</time></trkpt><trkpt lat="43.72043276331216" lon="10.993139058997885"><ele>28.0</ele><time>2026-04-06T08:44:25.999Z</time></trkpt><trkpt lat="43.72040187812005" lon="10.992874614647295"><ele>28.666666666666668</ele><time>2026-04-06T08:44:26.999Z</time></trkpt><trkpt lat="43.7203706882472" lon="10.99260701966758"><ele>29.333333333333336</ele><time>2026-04-06T08:44:27.999Z</time></trkpt><trkpt lat="43.7203411740161" lon="10.992334318459234"><ele>30.0</ele><time>2026-04-06T08:44:28.999Z</time></trkpt><trkpt lat="43.72031138014345" lon="10.99205690641656"><ele>30.0</ele><time>2026-04-06T08:44:29.999Z</time></trkpt><trkpt lat="43.72028013036293" lon="10.991782327786158"><ele>30.0</ele><time>2026-04-06T08:44:30.999Z</time></trkpt><trkpt lat="43.72024795311861" lon="10.991510634038134"><ele>30.0</ele><time>2026-04-06T08:44:31.999Z</time></trkpt><trkpt lat="43.720216399819115" lon="10.991226870969939"><ele>29.333333333333336</ele><time>2026-04-06T08:44:32.999Z</time></trkpt><trkpt lat="43.720183875757314" lon="10.990950159820645"><ele>28.666666666666668</ele><time>2026-04-06T08:44:33.999Z</time></trkpt><trkpt lat="43.72015293915955" lon="10.990682278066066"><ele>28.0</ele><time>2026-04-06T08:44:34.999Z</time></trkpt><trkpt lat="43.720122273497026" lon="10.99043077678279"><ele>28.0</ele><time>2026-04-06T08:44:35.999Z</time></trkpt><trkpt lat="43.72009037690783" lon="10.99019010126906"><ele>28.0</ele><time>2026-04-06T08:44:36.999Z</time></trkpt><trkpt lat="43.72005995400554" lon="10.989961533349367"><ele>28.0</ele><time>2026-04-06T08:44:37.999Z</time></trkpt><trkpt lat="43.720029850602224" lon="10.989741729425868"><ele>27.666666666666668</ele><time>2026-04-06T08:44:38.999Z</time></trkpt><trkpt lat="43.71999657241481" lon="10.989537298706688"><ele>27.333333333333336</ele><time>2026-04-06T08:44:39.999Z</time></trkpt><trkpt lat="43.71996128729153" lon="10.989325043336704"><ele>27.0</ele><time>2026-04-06T08:44:40.999Z</time></trkpt><trkpt lat="43.71992566903531" lon="10.98911765742605"><ele>27.0</ele><time>2026-04-06T08:44:41.999Z</time></trkpt><trkpt lat="43.719885178689196" lon="10.988890016604163"><ele>27.0</ele><time>2026-04-06T08:44:42.999Z</time></trkpt><trkpt lat="43.719842229002204" lon="10.988661602075771"><ele>27.0</ele><time>2026-04-06T08:44:43.999Z</time></trkpt><trkpt lat="43.719798188175915" lon="10.988420910131763"><ele>27.333333333333336</ele><time>2026-04-06T08:44:44.999Z</time></trkpt><trkpt lat="43.71975054936827" lon="10.988177230422455"><ele>27.666666666666668</ele><time>2026-04-06T08:44:45.999Z</time></trkpt><trkpt lat="43.71969862134381" lon="10.98792342276611"><ele>28.0</ele><time>2026-04-06T08:44:46.999Z</time></trkpt><trkpt lat="43.71964429011582" lon="10.987661340414421"><ele>28.0</ele><time>2026-04-06T08:44:47.999Z</time></trkpt><trkpt lat="43.71959312360886" lon="10.987397517334163"><ele>28.0</ele><time>2026-04-06T08:44:48.999Z</time></trkpt><trkpt lat="43.719539467126715" lon="10.987129859298777"><ele>28.0</ele><time>2026-04-06T08:44:49.999Z</time></trkpt><trkpt lat="43.71948544492324" lon="10.986857048986035"><ele>27.666666666666668</ele><time>2026-04-06T08:44:50.999Z</time></trkpt><trkpt lat="43.71942825482805" lon="10.986579426919697"><ele>27.333333333333336</ele><time>2026-04-06T08:44:51.999Z</time></trkpt><trkpt lat="43.71937303582411" lon="10.98630294589639"><ele>27.0</ele><time>2026-04-06T08:44:52.999Z</time></trkpt><trkpt lat="43.719319951927055" lon="10.986034185930487"><ele>27.0</ele><time>2026-04-06T08:44:53.999Z</time></trkpt><trkpt lat="43.719265804588666" lon="10.98576424526891"><ele>27.0</ele><time>2026-04-06T08:44:55Z</time></trkpt><trkpt lat="43.719213367628015" lon="10.985500957990165"><ele>27.0</ele><time>2026-04-06T08:44:56Z</time></trkpt><trkpt lat="43.71916035522336" lon="10.985235575149996"><ele>26.666666666666664</ele><time>2026-04-06T08:44:57Z</time></trkpt><trkpt lat="43.71910664834116" lon="10.9849703847739"><ele>26.333333333333332</ele><time>2026-04-06T08:44:58Z</time></trkpt><trkpt lat="43.71905392594147" lon="10.984712233105242"><ele>26.0</ele><time>2026-04-06T08:44:59Z</time></trkpt><trkpt lat="43.719000290907864" lon="10.984447602167569"><ele>26.0</ele><time>2026-04-06T08:45:00Z</time></trkpt><trkpt lat="43.71894759216428" lon="10.984181377662726"><ele>26.0</ele><time>2026-04-06T08:45:01Z</time></trkpt><trkpt lat="43.71889687526445" lon="10.983918938701732"><ele>26.0</ele><time>2026-04-06T08:45:02Z</time></trkpt><trkpt lat="43.71884550571967" lon="10.983656071372984"><ele>26.333333333333332</ele><time>2026-04-06T08:45:03Z</time></trkpt><trkpt lat="43.718791379691524" lon="10.983384512382095"><ele>26.666666666666664</ele><time>2026-04-06T08:45:04Z</time></trkpt><trkpt lat="43.71873828896363" lon="10.983111145095313"><ele>27.0</ele><time>2026-04-06T08:45:05Z</time></trkpt><trkpt lat="43.71868423528895" lon="10.982840131516301"><ele>27.0</ele><time>2026-04-06T08:45:06Z</time></trkpt><trkpt lat="43.71862657596023" lon="10.982552794949658"><ele>27.0</ele><time>2026-04-06T08:45:07Z</time></trkpt><trkpt lat="43.718566595226704" lon="10.98226322736822"><ele>27.0</ele><time>2026-04-06T08:45:08Z</time></trkpt><trkpt lat="43.718507806376316" lon="10.981970417361287"><ele>26.666666666666664</ele><time>2026-04-06T08:45:09Z</time></trkpt><trkpt lat="43.71844734487811" lon="10.98167232951754"><ele>26.333333333333332</ele><time>2026-04-06T08:45:10Z</time></trkpt><trkpt lat="43.71839231455549" lon="10.981379716786805"><ele>26.0</ele><time>2026-04-06T08:45:11Z</time></trkpt><trkpt lat="43.71833655892606" lon="10.981078792993285"><ele>26.0</ele><time>2026-04-06T08:45:12Z</time></trkpt><trkpt lat="43.71828452995613" lon="10.98077355907813"><ele>26.0</ele><time>2026-04-06T08:45:13Z</time></trkpt><trkpt lat="43.718227372054386" lon="10.980469783025"><ele>26.0</ele><time>2026-04-06T08:45:14Z</time></trkpt><trkpt lat="43.718165691876756" lon="10.980169529483934"><ele>26.0</ele><time>2026-04-06T08:45:15Z</time></trkpt><trkpt lat="43.71810833375565" lon="10.9798736665854"><ele>26.0</ele><time>2026-04-06T08:45:16Z</time></trkpt><trkpt lat="43.71804937142327" lon="10.9795863508719"><ele>25.666666666666664</ele><time>2026-04-06T08:45:17Z</time></trkpt><trkpt lat="43.71799091060685" lon="10.979306676187749"><ele>25.333333333333336</ele><time>2026-04-06T08:45:18Z</time></trkpt><trkpt lat="43.71793639677964" lon="10.979026333233541"><ele>25.0</ele><time>2026-04-06T08:45:19Z</time></trkpt><trkpt lat="43.717881466332265" lon="10.97874106965368"><ele>25.0</ele><time>2026-04-06T08:45:20Z</time></trkpt><trkpt lat="43.71783108667779" lon="10.978451052288607"><ele>25.0</ele><time>2026-04-06T08:45:21Z</time></trkpt><trkpt lat="43.71777674906108" lon="10.978167331324489"><ele>25.0</ele><time>2026-04-06T08:45:22Z</time></trkpt><trkpt lat="43.71771760396832" lon="10.977876557230788"><ele>25.0</ele><time>2026-04-06T08:45:23Z</time></trkpt><trkpt lat="43.71765657210609" lon="10.977592115758604"><ele>25.0</ele><time>2026-04-06T08:45:24Z</time></trkpt><trkpt lat="43.71758700258206" lon="10.977310910029733"><ele>25.0</ele><time>2026-04-06T08:45:25Z</time></trkpt><trkpt lat="43.717511121234104" lon="10.977046577307554"><ele>25.0</ele><time>2026-04-06T08:45:26Z</time></trkpt><trkpt lat="43.717430828264426" lon="10.976783482671037"><ele>25.0</ele><time>2026-04-06T08:45:27Z</time></trkpt><trkpt lat="43.717344163179796" lon="10.97653380106559"><ele>25.0</ele><time>2026-04-06T08:45:28Z</time></trkpt><trkpt lat="43.71725715639662" lon="10.976308338875192"><ele>25.0</ele><time>2026-04-06T08:45:29Z</time></trkpt><trkpt lat="43.71716678179632" lon="10.976100687222749"><ele>25.0</ele><time>2026-04-06T08:45:30Z</time></trkpt><trkpt lat="43.71706971874245" lon="10.975888728106467"><ele>25.0</ele><time>2026-04-06T08:45:31Z</time></trkpt><trkpt lat="43.7169618845338" lon="10.975665127684437"><ele>25.333333333333336</ele><time>2026-04-06T08:45:32Z</time></trkpt><trkpt lat="43.716846887646724" lon="10.975440867907945"><ele>25.666666666666664</ele><time>2026-04-06T08:45:33Z</time></trkpt><trkpt lat="43.71672910724955" lon="10.97522094124279"><ele>26.0</ele><time>2026-04-06T08:45:34Z</time></trkpt><trkpt lat="43.71661117858796" lon="10.974996946512158"><ele>26.0</ele><time>2026-04-06T08:45:35Z</time></trkpt><trkpt lat="43.71648014153441" lon="10.974776955938752"><ele>26.0</ele><time>2026-04-06T08:45:36Z</time></trkpt><trkpt lat="43.716349183180505" lon="10.974564870018856"><ele>26.0</ele><time>2026-04-06T08:45:37Z</time></trkpt><trkpt lat="43.71620952091927" lon="10.97435919283867"><ele>26.333333333333332</ele><time>2026-04-06T08:45:38Z</time></trkpt><trkpt lat="43.716069281587586" lon="10.974165808371673"><ele>26.666666666666664</ele><time>2026-04-06T08:45:39Z</time></trkpt><trkpt lat="43.715928053794954" lon="10.973970237870528"><ele>27.0</ele><time>2026-04-06T08:45:40Z</time></trkpt><trkpt lat="43.71578872991436" lon="10.97377427339775"><ele>27.0</ele><time>2026-04-06T08:45:41Z</time></trkpt><trkpt lat="43.71564731312316" lon="10.973575133438885"><ele>27.0</ele><time>2026-04-06T08:45:42Z</time></trkpt><trkpt lat="43.71550354420746" lon="10.973366682166949"><ele>27.0</ele><time>2026-04-06T08:45:43Z</time></trkpt><trkpt lat="43.71536069561906" lon="10.973159389137578"><ele>27.0</ele><time>2026-04-06T08:45:44Z</time></trkpt><trkpt lat="43.71521937105607" lon="10.972959105545051"><ele>27.0</ele><time>2026-04-06T08:45:45Z</time></trkpt><trkpt lat="43.715075510802464" lon="10.97275846382792"><ele>27.0</ele><time>2026-04-06T08:45:46Z</time></trkpt><trkpt lat="43.71493130505376" lon="10.972558901650547"><ele>27.0</ele><time>2026-04-06T08:45:47Z</time></trkpt><trkpt lat="43.71478707428692" lon="10.972358619134042"><ele>27.0</ele><time>2026-04-06T08:45:48Z</time></trkpt><trkpt lat="43.71463671739683" lon="10.972149915575708"><ele>27.0</ele><time>2026-04-06T08:45:49Z</time></trkpt><trkpt lat="43.71448794554629" lon="10.971942098779941"><ele>27.0</ele><time>2026-04-06T08:45:50Z</time></trkpt><trkpt lat="43.7143412149941" lon="10.971736771190075"><ele>27.0</ele><time>2026-04-06T08:45:51Z</time></trkpt><trkpt lat="43.71419156906725" lon="10.971526862519436"><ele>27.0</ele><time>2026-04-06T08:45:52Z</time></trkpt><trkpt lat="43.71404270940254" lon="10.971317316803283"><ele>26.666666666666664</ele><time>2026-04-06T08:45:53Z</time></trkpt><trkpt lat="43.71389204733966" lon="10.971105929530228"><ele>26.333333333333332</ele><time>2026-04-06T08:45:54Z</time></trkpt><trkpt lat="43.71373867471901" lon="10.97089245460845"><ele>26.0</ele><time>2026-04-06T08:45:55Z</time></trkpt><trkpt lat="43.71358353541406" lon="10.970674352910097"><ele>26.666666666666664</ele><time>2026-04-06T08:45:56Z</time></trkpt><trkpt lat="43.71342896807171" lon="10.970454019823938"><ele>27.333333333333336</ele><time>2026-04-06T08:45:57Z</time></trkpt><trkpt lat="43.71327415616128" lon="10.970224374210579"><ele>28.0</ele><time>2026-04-06T08:45:58Z</time></trkpt><trkpt lat="43.71311638242909" lon="10.969993973483996"><ele>28.5</ele><time>2026-04-06T08:45:59Z</time></trkpt><trkpt lat="43.71295634660638" lon="10.96976469675626"><ele>29.0</ele><time>2026-04-06T08:46:00Z</time></trkpt><trkpt lat="43.7127956689248" lon="10.969541012945683"><ele>29.5</ele><time>2026-04-06T08:46:01Z</time></trkpt><trkpt lat="43.71263258326902" lon="10.969309396934502"><ele>30.0</ele><time>2026-04-06T08:46:02Z</time></trkpt><trkpt lat="43.71247649258888" lon="10.96908562911846"><ele>30.0</ele><time>2026-04-06T08:46:03Z</time></trkpt><trkpt lat="43.71231177156779" lon="10.968850682922659"><ele>30.0</ele><time>2026-04-06T08:46:04Z</time></trkpt><trkpt lat="43.71213553908577" lon="10.968597215683094"><ele>29.0</ele><time>2026-04-06T08:46:05Z</time></trkpt><trkpt lat="43.71196255933431" lon="10.968355867450118"><ele>28.0</ele><time>2026-04-06T08:46:06Z</time></trkpt><trkpt lat="43.71177988725417" lon="10.968103812983585"><ele>28.0</ele><time>2026-04-06T08:46:07Z</time></trkpt><trkpt lat="43.71159607644695" lon="10.967839389164707"><ele>28.0</ele><time>2026-04-06T08:46:08Z</time></trkpt><trkpt lat="43.711411971373906" lon="10.967580688984633"><ele>27.5</ele><time>2026-04-06T08:46:09Z</time></trkpt><trkpt lat="43.71122951146786" lon="10.967329126153336"><ele>27.0</ele><time>2026-04-06T08:46:10Z</time></trkpt><trkpt lat="43.71104435094492" lon="10.967081246113976"><ele>28.0</ele><time>2026-04-06T08:46:11Z</time></trkpt><trkpt lat="43.71085827995282" lon="10.966820926524893"><ele>29.0</ele><time>2026-04-06T08:46:12Z</time></trkpt><trkpt lat="43.71067339497261" lon="10.9665605456374"><ele>29.0</ele><time>2026-04-06T08:46:12.999Z</time></trkpt><trkpt lat="43.71049088351953" lon="10.966316468859"><ele>29.0</ele><time>2026-04-06T08:46:13.999Z</time></trkpt><trkpt lat="43.71030996732314" lon="10.966073499021475"><ele>28.5</ele><time>2026-04-06T08:46:14.999Z</time></trkpt><trkpt lat="43.71013179852628" lon="10.96583568755242"><ele>28.0</ele><time>2026-04-06T08:46:15.999Z</time></trkpt><trkpt lat="43.70995460843137" lon="10.965577575622408"><ele>28.0</ele><time>2026-04-06T08:46:16.999Z</time></trkpt><trkpt lat="43.70979501774529" lon="10.965314937849412"><ele>28.0</ele><time>2026-04-06T08:46:17.999Z</time></trkpt><trkpt lat="43.70965427948408" lon="10.965039382662587"><ele>27.5</ele><time>2026-04-06T08:46:18.999Z</time></trkpt><trkpt lat="43.7095308921265" lon="10.964752412549759"><ele>27.0</ele><time>2026-04-06T08:46:19.999Z</time></trkpt><trkpt lat="43.70942483499759" lon="10.964470045175757"><ele>27.0</ele><time>2026-04-06T08:46:20.999Z</time></trkpt><trkpt lat="43.70933150971127" lon="10.964180392953978"><ele>27.0</ele><time>2026-04-06T08:46:21.999Z</time></trkpt><trkpt lat="43.709248392879324" lon="10.963880030614343"><ele>27.0</ele><time>2026-04-06T08:46:22.999Z</time></trkpt><trkpt lat="43.70917537562569" lon="10.963576470445666"><ele>27.0</ele><time>2026-04-06T08:46:23.999Z</time></trkpt><trkpt lat="43.709108239121164" lon="10.96326733854054"><ele>27.5</ele><time>2026-04-06T08:46:24.999Z</time></trkpt><trkpt lat="43.70905791272673" lon="10.962953828932445"><ele>28.0</ele><time>2026-04-06T08:46:25.999Z</time></trkpt><trkpt lat="43.70901850827051" lon="10.962636262262127"><ele>28.5</ele><time>2026-04-06T08:46:26.999Z</time></trkpt><trkpt lat="43.70899428982367" lon="10.962316558932196"><ele>29.0</ele><time>2026-04-06T08:46:27.999Z</time></trkpt><trkpt lat="43.70898213150854" lon="10.961981610874032"><ele>29.0</ele><time>2026-04-06T08:46:28.999Z</time></trkpt><trkpt lat="43.70898868363478" lon="10.96164877538901"><ele>29.0</ele><time>2026-04-06T08:46:29.999Z</time></trkpt><trkpt lat="43.709004101625965" lon="10.961319603110164"><ele>29.0</ele><time>2026-04-06T08:46:30.999Z</time></trkpt><trkpt lat="43.70902940694096" lon="10.960988190410534"><ele>29.0</ele><time>2026-04-06T08:46:31.999Z</time></trkpt><trkpt lat="43.709063653651654" lon="10.960651070221752"><ele>29.0</ele><time>2026-04-06T08:46:32.999Z</time></trkpt><trkpt lat="43.709096610816495" lon="10.960316680479144"><ele>29.0</ele><time>2026-04-06T08:46:33.999Z</time></trkpt><trkpt lat="43.70912627317209" lon="10.959983278365488"><ele>29.5</ele><time>2026-04-06T08:46:34.999Z</time></trkpt><trkpt lat="43.70915527071193" lon="10.959646903823744"><ele>30.0</ele><time>2026-04-06T08:46:35.999Z</time></trkpt><trkpt lat="43.70917917913906" lon="10.959323647870551"><ele>30.5</ele><time>2026-04-06T08:46:36.999Z</time></trkpt><trkpt lat="43.709209229698814" lon="10.958980972176663"><ele>31.0</ele><time>2026-04-06T08:46:37.999Z</time></trkpt><trkpt lat="43.709238378010006" lon="10.95864034980752"><ele>31.0</ele><time>2026-04-06T08:46:38.999Z</time></trkpt><trkpt lat="43.70926899739199" lon="10.958289196230686"><ele>31.0</ele><time>2026-04-06T08:46:39.999Z</time></trkpt><trkpt lat="43.70929571549164" lon="10.957965572405504"><ele>31.0</ele><time>2026-04-06T08:46:40.999Z</time></trkpt><trkpt lat="43.70932334654217" lon="10.957650412533571"><ele>31.0</ele><time>2026-04-06T08:46:41.999Z</time></trkpt><trkpt lat="43.709348618949235" lon="10.957341198710607"><ele>30.333333333333336</ele><time>2026-04-06T08:46:42.999Z</time></trkpt><trkpt lat="43.709374435376574" lon="10.957034557013658"><ele>29.666666666666664</ele><time>2026-04-06T08:46:43.999Z</time></trkpt><trkpt lat="43.709398778903996" lon="10.95672545487937"><ele>29.0</ele><time>2026-04-06T08:46:44.999Z</time></trkpt><trkpt lat="43.70942726631566" lon="10.95640878083996"><ele>28.5</ele><time>2026-04-06T08:46:45.999Z</time></trkpt><trkpt lat="43.70945384322031" lon="10.956092676942284"><ele>28.0</ele><time>2026-04-06T08:46:46.999Z</time></trkpt><trkpt lat="43.70948103691661" lon="10.955772265671134"><ele>28.0</ele><time>2026-04-06T08:46:47.999Z</time></trkpt><trkpt lat="43.709505174145995" lon="10.95546579722384"><ele>28.0</ele><time>2026-04-06T08:46:48.999Z</time></trkpt><trkpt lat="43.70953005054508" lon="10.955168715555565"><ele>28.0</ele><time>2026-04-06T08:46:49.999Z</time></trkpt><trkpt lat="43.709556757445405" lon="10.954869243638601"><ele>28.0</ele><time>2026-04-06T08:46:50.999Z</time></trkpt><trkpt lat="43.709578261923" lon="10.954594358033518"><ele>28.0</ele><time>2026-04-06T08:46:51.999Z</time></trkpt><trkpt lat="43.70960338873424" lon="10.954304915495824"><ele>28.0</ele><time>2026-04-06T08:46:52.999Z</time></trkpt><trkpt lat="43.70962395145174" lon="10.954015831315052"><ele>27.666666666666668</ele><time>2026-04-06T08:46:53.999Z</time></trkpt><trkpt lat="43.70964054324325" lon="10.953726465945936"><ele>27.333333333333336</ele><time>2026-04-06T08:46:54.999Z</time></trkpt><trkpt lat="43.70965222986529" lon="10.95342830804687"><ele>27.0</ele><time>2026-04-06T08:46:55.999Z</time></trkpt><trkpt lat="43.70965644577647" lon="10.953128719109985"><ele>27.0</ele><time>2026-04-06T08:46:56.999Z</time></trkpt><trkpt lat="43.70965314894435" lon="10.952819902367837"><ele>27.0</ele><time>2026-04-06T08:46:57.999Z</time></trkpt><trkpt lat="43.70964301994885" lon="10.95250978738175"><ele>27.0</ele><time>2026-04-06T08:46:58.999Z</time></trkpt><trkpt lat="43.70962714709517" lon="10.952191453233423"><ele>27.0</ele><time>2026-04-06T08:46:59.999Z</time></trkpt><trkpt lat="43.70960793368426" lon="10.951869978748004"><ele>27.0</ele><time>2026-04-06T08:47:01Z</time></trkpt><trkpt lat="43.709587104057974" lon="10.951557839321227"><ele>27.0</ele><time>2026-04-06T08:47:02Z</time></trkpt><trkpt lat="43.70956677285628" lon="10.95124033197054"><ele>27.0</ele><time>2026-04-06T08:47:03Z</time></trkpt><trkpt lat="43.709548098902914" lon="10.950936885227453"><ele>27.0</ele><time>2026-04-06T08:47:04Z</time></trkpt><trkpt lat="43.70953716658085" lon="10.95067160932007"><ele>27.0</ele><time>2026-04-06T08:47:05Z</time></trkpt><trkpt lat="43.70952614806803" lon="10.950435702167999"><ele>27.0</ele><time>2026-04-06T08:47:06Z</time></trkpt><trkpt lat="43.709513398653804" lon="10.950215092889424"><ele>27.0</ele><time>2026-04-06T08:47:07Z</time></trkpt><trkpt lat="43.70950001953486" lon="10.950005685570913"><ele>27.0</ele><time>2026-04-06T08:47:08Z</time></trkpt><trkpt lat="43.70948862410128" lon="10.949814114406525"><ele>27.0</ele><time>2026-04-06T08:47:09Z</time></trkpt><trkpt lat="43.70948244493733" lon="10.949680688350355"><ele>27.0</ele><time>2026-04-06T08:47:10Z</time></trkpt><trkpt lat="43.709476045326916" lon="10.949574549824732"><ele>27.0</ele><time>2026-04-06T08:47:11Z</time></trkpt><trkpt lat="43.709470391255486" lon="10.94947620125316"><ele>27.0</ele><time>2026-04-06T08:47:12Z</time></trkpt><trkpt lat="43.70946362749396" lon="10.949347596082562"><ele>27.0</ele><time>2026-04-06T08:47:14Z</time></trkpt><trkpt lat="43.709459467519764" lon="10.949219845195076"><ele>27.0</ele><time>2026-04-06T08:47:19Z</time></trkpt><trkpt lat="43.70945418048279" lon="10.94912019584378"><ele>27.0</ele><time>2026-04-06T08:47:21Z</time></trkpt><trkpt lat="43.709446460448454" lon="10.949021964323"><ele>27.0</ele><time>2026-04-06T08:47:32Z</time></trkpt><trkpt lat="43.709441553736646" lon="10.948925149406874"><ele>27.0</ele><time>2026-04-06T08:47:34Z</time></trkpt><trkpt lat="43.70943461018475" lon="10.948784860620444"><ele>27.000000000000004</ele><time>2026-04-06T08:47:36Z</time></trkpt><trkpt lat="43.70942264902577" lon="10.948616001593976"><ele>27.000000000000004</ele><time>2026-04-06T08:47:38Z</time></trkpt><trkpt lat="43.70941601399904" lon="10.948522949065042"><ele>27.0</ele><time>2026-04-06T08:47:39Z</time></trkpt><trkpt lat="43.70941118487826" lon="10.948434889543991"><ele>27.0</ele><time>2026-04-06T08:47:40Z</time></trkpt><trkpt lat="43.7094028926531" lon="10.948281071866514"><ele>27.0</ele><time>2026-04-06T08:47:42Z</time></trkpt><trkpt lat="43.70939321050287" lon="10.94817404424527"><ele>27.0</ele><time>2026-04-06T08:47:44Z</time></trkpt><trkpt lat="43.709385818950025" lon="10.948055105323037"><ele>27.0</ele><time>2026-04-06T08:47:47Z</time></trkpt><trkpt lat="43.70936979687596" lon="10.947942170793366"><ele>27.0</ele><time>2026-04-06T08:47:50Z</time></trkpt><trkpt lat="43.709360494147155" lon="10.947854124137162"><ele>27.0</ele><time>2026-04-06T08:47:52Z</time></trkpt><trkpt lat="43.70935287853675" lon="10.947752570593815"><ele>27.0</ele><time>2026-04-06T08:47:54Z</time></trkpt><trkpt lat="43.70934665966479" lon="10.947640404383387"><ele>27.333333333333332</ele><time>2026-04-06T08:47:56Z</time></trkpt><trkpt lat="43.70934198071552" lon="10.94753998000235"><ele>27.666666666666664</ele><time>2026-04-06T08:47:58Z</time></trkpt><trkpt lat="43.70933420294109" lon="10.947444955333484"><ele>28.0</ele><time>2026-04-06T08:48:00Z</time></trkpt><trkpt lat="43.70932555288434" lon="10.947332231303388"><ele>28.333333333333332</ele><time>2026-04-06T08:48:02Z</time></trkpt><trkpt lat="43.70931816891691" lon="10.947215155181718"><ele>28.666666666666664</ele><time>2026-04-06T08:48:04Z</time></trkpt><trkpt lat="43.709306641091636" lon="10.947097172986936"><ele>29.0</ele><time>2026-04-06T08:48:06Z</time></trkpt><trkpt lat="43.70930354036743" lon="10.946979192593007"><ele>28.999999999999996</ele><time>2026-04-06T08:48:08Z</time></trkpt><trkpt lat="43.70930134475622" lon="10.946854343359446"><ele>29.0</ele><time>2026-04-06T08:48:10Z</time></trkpt><trkpt lat="43.70929204183392" lon="10.94671924304308"><ele>29.0</ele><time>2026-04-06T08:48:12Z</time></trkpt><trkpt lat="43.709285987769974" lon="10.946608163401146"><ele>29.0</ele><time>2026-04-06T08:48:14Z</time></trkpt><trkpt lat="43.70927629287663" lon="10.946496410989377"><ele>28.999999999999996</ele><time>2026-04-06T08:48:18Z</time></trkpt><trkpt lat="43.709273297592475" lon="10.946404838325668"><ele>29.0</ele><time>2026-04-06T08:48:28.999Z</time></trkpt><trkpt lat="43.70927501856914" lon="10.946311139253199"><ele>28.799999999999997</ele><time>2026-04-06T08:48:32.999Z</time></trkpt><trkpt lat="43.70927004808362" lon="10.94621469631228"><ele>28.599999999999998</ele><time>2026-04-06T08:48:34.999Z</time></trkpt><trkpt lat="43.709265622594096" lon="10.946066589779727"><ele>28.4</ele><time>2026-04-06T08:48:36.999Z</time></trkpt><trkpt lat="43.709257461722615" lon="10.945905710153461"><ele>28.2</ele><time>2026-04-06T08:48:38.999Z</time></trkpt><trkpt lat="43.709251217133904" lon="10.94574990223554"><ele>28.0</ele><time>2026-04-06T08:48:40.999Z</time></trkpt><trkpt lat="43.70924379137654" lon="10.945604598670188"><ele>27.833333333333336</ele><time>2026-04-06T08:48:42.999Z</time></trkpt><trkpt lat="43.70923710471756" lon="10.945488967163085"><ele>27.666666666666668</ele><time>2026-04-06T08:48:44.999Z</time></trkpt><trkpt lat="43.709232075753434" lon="10.945401259738778"><ele>27.5</ele><time>2026-04-06T08:48:46.999Z</time></trkpt><trkpt lat="43.70922586320395" lon="10.945290987832067"><ele>27.333333333333336</ele><time>2026-04-06T08:48:49.999Z</time></trkpt><trkpt lat="43.70920906438019" lon="10.945165860002438"><ele>27.166666666666668</ele><time>2026-04-06T08:48:51.999Z</time></trkpt><trkpt lat="43.70919010604548" lon="10.945039703588675"><ele>27.0</ele><time>2026-04-06T08:48:53.999Z</time></trkpt><trkpt lat="43.709189630342735" lon="10.944946028676112"><ele>27.0</ele><time>2026-04-06T08:48:58.999Z</time></trkpt><trkpt lat="43.70918487647426" lon="10.944828922020001"><ele>27.0</ele><time>2026-04-06T08:49:02.999Z</time></trkpt><trkpt lat="43.70917818022533" lon="10.944742017781161"><ele>27.0</ele><time>2026-04-06T08:49:04.999Z</time></trkpt><trkpt lat="43.7091718386741" lon="10.944643342893654"><ele>27.0</ele><time>2026-04-06T08:49:07Z</time></trkpt><trkpt lat="43.70916732970918" lon="10.944543672657971"><ele>27.0</ele><time>2026-04-06T08:49:09Z</time></trkpt><trkpt lat="43.7091617207712" lon="10.944442464843469"><ele>27.0</ele><time>2026-04-06T08:49:11Z</time></trkpt><trkpt lat="43.70915773906287" lon="10.944346055372876"><ele>27.0</ele><time>2026-04-06T08:49:13Z</time></trkpt><trkpt lat="43.70915316852359" lon="10.944243692058212"><ele>27.0</ele><time>2026-04-06T08:49:17Z</time></trkpt><trkpt lat="43.70915030427415" lon="10.944147480300176"><ele>27.0</ele><time>2026-04-06T08:49:20Z</time></trkpt><trkpt lat="43.70914811633224" lon="10.944050045283799"><ele>27.0</ele><time>2026-04-06T08:49:22Z</time></trkpt><trkpt lat="43.70914482150533" lon="10.943938210792798"><ele>27.0</ele><time>2026-04-06T08:49:24Z</time></trkpt><trkpt lat="43.709140197135895" lon="10.94381025883501"><ele>27.0</ele><time>2026-04-06T08:49:26Z</time></trkpt><trkpt lat="43.70913496240908" lon="10.943676563288271"><ele>27.0</ele><time>2026-04-06T08:49:28Z</time></trkpt><trkpt lat="43.709128337324394" lon="10.943523003262632"><ele>26.6</ele><time>2026-04-06T08:49:30Z</time></trkpt><trkpt lat="43.70912185163838" lon="10.943354661102655"><ele>26.200000000000003</ele><time>2026-04-06T08:49:32Z</time></trkpt><trkpt lat="43.70911568650685" lon="10.943167725812744"><ele>25.8</ele><time>2026-04-06T08:49:34Z</time></trkpt><trkpt lat="43.709111901202654" lon="10.943056689156425"><ele>25.4</ele><time>2026-04-06T08:49:35Z</time></trkpt><trkpt lat="43.7091085009738" lon="10.942930064554028"><ele>25.0</ele><time>2026-04-06T08:49:36Z</time></trkpt><trkpt lat="43.7091048762876" lon="10.942801822520638"><ele>25.0</ele><time>2026-04-06T08:49:37Z</time></trkpt><trkpt lat="43.709100890743734" lon="10.94267125889869"><ele>25.0</ele><time>2026-04-06T08:49:38Z</time></trkpt><trkpt lat="43.70909705606731" lon="10.942534264384395"><ele>25.0</ele><time>2026-04-06T08:49:39Z</time></trkpt><trkpt lat="43.70909185036545" lon="10.942392188399687"><ele>25.0</ele><time>2026-04-06T08:49:40Z</time></trkpt><trkpt lat="43.70908743343861" lon="10.942241809125663"><ele>25.0</ele><time>2026-04-06T08:49:41Z</time></trkpt><trkpt lat="43.70908064455339" lon="10.94208035938862"><ele>24.75</ele><time>2026-04-06T08:49:42Z</time></trkpt><trkpt lat="43.70907537761595" lon="10.941907597551438"><ele>24.5</ele><time>2026-04-06T08:49:43Z</time></trkpt><trkpt lat="43.70906883031186" lon="10.941728925718671"><ele>24.25</ele><time>2026-04-06T08:49:44Z</time></trkpt><trkpt lat="43.709061697284994" lon="10.941540319670334"><ele>24.0</ele><time>2026-04-06T08:49:45Z</time></trkpt><trkpt lat="43.70905484455049" lon="10.941346319005369"><ele>24.0</ele><time>2026-04-06T08:49:46Z</time></trkpt><trkpt lat="43.70904969737566" lon="10.941161597898423"><ele>24.0</ele><time>2026-04-06T08:49:47Z</time></trkpt><trkpt lat="43.70904357749199" lon="10.940979135065918"><ele>24.0</ele><time>2026-04-06T08:49:48Z</time></trkpt><trkpt lat="43.70903744106285" lon="10.940791144710378"><ele>24.0</ele><time>2026-04-06T08:49:49Z</time></trkpt><trkpt lat="43.7090300365878" lon="10.940604194662258"><ele>23.75</ele><time>2026-04-06T08:49:50Z</time></trkpt><trkpt lat="43.709026314989615" lon="10.940412812071378"><ele>23.5</ele><time>2026-04-06T08:49:51Z</time></trkpt><trkpt lat="43.70901751645099" lon="10.940218653788499"><ele>23.25</ele><time>2026-04-06T08:49:52Z</time></trkpt><trkpt lat="43.709008666492146" lon="10.94001661650796"><ele>23.0</ele><time>2026-04-06T08:49:53Z</time></trkpt><trkpt lat="43.709002120213604" lon="10.939811358774373"><ele>23.666666666666668</ele><time>2026-04-06T08:49:54Z</time></trkpt><trkpt lat="43.70899559124806" lon="10.939597857461964"><ele>24.333333333333336</ele><time>2026-04-06T08:49:55Z</time></trkpt><trkpt lat="43.708989491834856" lon="10.939384998904204"><ele>25.0</ele><time>2026-04-06T08:49:56Z</time></trkpt><trkpt lat="43.70898300779075" lon="10.9391657938165"><ele>25.0</ele><time>2026-04-06T08:49:57Z</time></trkpt><trkpt lat="43.70897787454453" lon="10.938935532152973"><ele>25.0</ele><time>2026-04-06T08:49:58Z</time></trkpt><trkpt lat="43.70896918459209" lon="10.938696260923344"><ele>25.0</ele><time>2026-04-06T08:49:59Z</time></trkpt><trkpt lat="43.7089602069607" lon="10.938460490917272"><ele>25.0</ele><time>2026-04-06T08:50:00Z</time></trkpt><trkpt lat="43.708949823963295" lon="10.93821568713294"><ele>25.0</ele><time>2026-04-06T08:50:01Z</time></trkpt><trkpt lat="43.70894398025087" lon="10.937944408639517"><ele>25.0</ele><time>2026-04-06T08:50:02Z</time></trkpt><trkpt lat="43.70893362083301" lon="10.937691584416797"><ele>25.0</ele><time>2026-04-06T08:50:03Z</time></trkpt><trkpt lat="43.708926415443834" lon="10.937430908644426"><ele>25.0</ele><time>2026-04-06T08:50:04Z</time></trkpt><trkpt lat="43.70891894158671" lon="10.93717275351209"><ele>25.0</ele><time>2026-04-06T08:50:05Z</time></trkpt><trkpt lat="43.7089115950269" lon="10.936914258408404"><ele>25.0</ele><time>2026-04-06T08:50:06Z</time></trkpt><trkpt lat="43.70890531589107" lon="10.936657093546508"><ele>25.0</ele><time>2026-04-06T08:50:07Z</time></trkpt><trkpt lat="43.708893566180855" lon="10.936390510703443"><ele>25.0</ele><time>2026-04-06T08:50:08Z</time></trkpt><trkpt lat="43.70888681235838" lon="10.936119715908479"><ele>25.0</ele><time>2026-04-06T08:50:09Z</time></trkpt><trkpt lat="43.70887702315801" lon="10.935846713291458"><ele>25.0</ele><time>2026-04-06T08:50:10Z</time></trkpt><trkpt lat="43.708863969009585" lon="10.93557346552925"><ele>25.0</ele><time>2026-04-06T08:50:11Z</time></trkpt><trkpt lat="43.70885552570695" lon="10.935288300387267"><ele>24.666666666666668</ele><time>2026-04-06T08:50:12Z</time></trkpt><trkpt lat="43.70884224538472" lon="10.935007307909391"><ele>24.333333333333336</ele><time>2026-04-06T08:50:13Z</time></trkpt><trkpt lat="43.70883315331238" lon="10.934713490201997"><ele>24.0</ele><time>2026-04-06T08:50:14Z</time></trkpt><trkpt lat="43.70882465252084" lon="10.93441471323186"><ele>24.0</ele><time>2026-04-06T08:50:15Z</time></trkpt><trkpt lat="43.70881287611334" lon="10.934131229836476"><ele>24.0</ele><time>2026-04-06T08:50:16Z</time></trkpt><trkpt lat="43.70880601415305" lon="10.933836970420975"><ele>24.0</ele><time>2026-04-06T08:50:17Z</time></trkpt><trkpt lat="43.708797881332124" lon="10.933551754279433"><ele>24.333333333333336</ele><time>2026-04-06T08:50:17.999Z</time></trkpt><trkpt lat="43.708789006945224" lon="10.933264046061774"><ele>24.666666666666668</ele><time>2026-04-06T08:50:18.999Z</time></trkpt><trkpt lat="43.708780099185205" lon="10.93297970111922"><ele>25.0</ele><time>2026-04-06T08:50:19.999Z</time></trkpt><trkpt lat="43.70877148586376" lon="10.93269368950427"><ele>25.0</ele><time>2026-04-06T08:50:20.999Z</time></trkpt><trkpt lat="43.708764806110395" lon="10.93241458294093"><ele>25.0</ele><time>2026-04-06T08:50:21.999Z</time></trkpt><trkpt lat="43.708757371129224" lon="10.932130631400522"><ele>25.0</ele><time>2026-04-06T08:50:22.999Z</time></trkpt><trkpt lat="43.70875618226082" lon="10.931834712334009"><ele>24.666666666666668</ele><time>2026-04-06T08:50:23.999Z</time></trkpt><trkpt lat="43.70874897047548" lon="10.931551080222162"><ele>24.333333333333336</ele><time>2026-04-06T08:50:24.999Z</time></trkpt><trkpt lat="43.70874050291353" lon="10.931267053500202"><ele>24.0</ele><time>2026-04-06T08:50:25.999Z</time></trkpt><trkpt lat="43.70874029397138" lon="10.9309781348372"><ele>24.0</ele><time>2026-04-06T08:50:26.999Z</time></trkpt><trkpt lat="43.70873576440159" lon="10.930693535494232"><ele>24.0</ele><time>2026-04-06T08:50:27.999Z</time></trkpt><trkpt lat="43.70872427362575" lon="10.930409411035138"><ele>24.0</ele><time>2026-04-06T08:50:28.999Z</time></trkpt><trkpt lat="43.70871495081253" lon="10.930131022537635"><ele>23.666666666666668</ele><time>2026-04-06T08:50:29.999Z</time></trkpt><trkpt lat="43.708704012157725" lon="10.929852984388024"><ele>23.333333333333336</ele><time>2026-04-06T08:50:30.999Z</time></trkpt><trkpt lat="43.70869365421551" lon="10.92957595985337"><ele>23.0</ele><time>2026-04-06T08:50:31.999Z</time></trkpt><trkpt lat="43.70868436212521" lon="10.929297700297765"><ele>23.666666666666668</ele><time>2026-04-06T08:50:32.999Z</time></trkpt><trkpt lat="43.70867534076397" lon="10.929016629293411"><ele>24.333333333333336</ele><time>2026-04-06T08:50:33.999Z</time></trkpt><trkpt lat="43.70866876323402" lon="10.928736399311164"><ele>25.0</ele><time>2026-04-06T08:50:34.999Z</time></trkpt><trkpt lat="43.70865997831584" lon="10.928447747949093"><ele>24.666666666666668</ele><time>2026-04-06T08:50:35.999Z</time></trkpt><trkpt lat="43.70865004582575" lon="10.928162226878117"><ele>24.333333333333336</ele><time>2026-04-06T08:50:36.999Z</time></trkpt><trkpt lat="43.70864085435528" lon="10.927875035022431"><ele>24.0</ele><time>2026-04-06T08:50:37.999Z</time></trkpt><trkpt lat="43.70863374279973" lon="10.927588717541658"><ele>24.0</ele><time>2026-04-06T08:50:38.999Z</time></trkpt><trkpt lat="43.708622389152936" lon="10.927295182014705"><ele>24.0</ele><time>2026-04-06T08:50:39.999Z</time></trkpt><trkpt lat="43.708615181980214" lon="10.927000793816047"><ele>24.0</ele><time>2026-04-06T08:50:40.999Z</time></trkpt><trkpt lat="43.70860540243185" lon="10.926710599765368"><ele>24.0</ele><time>2026-04-06T08:50:41.999Z</time></trkpt><trkpt lat="43.70859468486171" lon="10.926417054443714"><ele>24.0</ele><time>2026-04-06T08:50:42.999Z</time></trkpt><trkpt lat="43.70858251096547" lon="10.926116932145229"><ele>24.0</ele><time>2026-04-06T08:50:43.999Z</time></trkpt><trkpt lat="43.70857581160397" lon="10.925831757377212"><ele>24.333333333333336</ele><time>2026-04-06T08:50:44.999Z</time></trkpt><trkpt lat="43.708565058375925" lon="10.925533879893393"><ele>24.666666666666668</ele><time>2026-04-06T08:50:45.999Z</time></trkpt><trkpt lat="43.708548744119526" lon="10.925242208234527"><ele>25.0</ele><time>2026-04-06T08:50:46.999Z</time></trkpt><trkpt lat="43.708540244715984" lon="10.924949254408066"><ele>25.0</ele><time>2026-04-06T08:50:47.999Z</time></trkpt><trkpt lat="43.708527868863676" lon="10.924646543027555"><ele>25.0</ele><time>2026-04-06T08:50:48.999Z</time></trkpt><trkpt lat="43.70851341430619" lon="10.924338180474047"><ele>25.0</ele><time>2026-04-06T08:50:49.999Z</time></trkpt><trkpt lat="43.708490349532816" lon="10.924024349537582"><ele>25.0</ele><time>2026-04-06T08:50:50.999Z</time></trkpt><trkpt lat="43.708467257476386" lon="10.923723074834227"><ele>25.0</ele><time>2026-04-06T08:50:51.999Z</time></trkpt><trkpt lat="43.70843550321901" lon="10.923400545217369"><ele>25.0</ele><time>2026-04-06T08:50:52.999Z</time></trkpt><trkpt lat="43.70840658095539" lon="10.923073773068847"><ele>25.0</ele><time>2026-04-06T08:50:53.999Z</time></trkpt><trkpt lat="43.708378036053006" lon="10.922740395584373"><ele>24.5</ele><time>2026-04-06T08:50:54.999Z</time></trkpt><trkpt lat="43.70834131525243" lon="10.922389589882203"><ele>24.0</ele><time>2026-04-06T08:50:55.999Z</time></trkpt><trkpt lat="43.70830850007997" lon="10.922041060290084"><ele>24.5</ele><time>2026-04-06T08:50:56.999Z</time></trkpt><trkpt lat="43.70827131366197" lon="10.921688239400092"><ele>25.0</ele><time>2026-04-06T08:50:57.999Z</time></trkpt><trkpt lat="43.70823623490451" lon="10.921328280238766"><ele>25.0</ele><time>2026-04-06T08:50:58.999Z</time></trkpt><trkpt lat="43.7082023466886" lon="10.920963017771571"><ele>25.0</ele><time>2026-04-06T08:50:59.999Z</time></trkpt><trkpt lat="43.7081671313236" lon="10.920592438114447"><ele>24.0</ele><time>2026-04-06T08:51:00.999Z</time></trkpt><trkpt lat="43.70813465377674" lon="10.920225277555664"><ele>23.0</ele><time>2026-04-06T08:51:01.999Z</time></trkpt><trkpt lat="43.70810443626929" lon="10.919858064732821"><ele>22.5</ele><time>2026-04-06T08:51:02.999Z</time></trkpt><trkpt lat="43.70808315106948" lon="10.919485437839809"><ele>22.0</ele><time>2026-04-06T08:51:03.999Z</time></trkpt><trkpt lat="43.7080776553121" lon="10.919125887090022"><ele>22.666666666666664</ele><time>2026-04-06T08:51:04.999Z</time></trkpt><trkpt lat="43.70808468379735" lon="10.918796527551594"><ele>23.333333333333332</ele><time>2026-04-06T08:51:05.999Z</time></trkpt><trkpt lat="43.708109077384535" lon="10.91850956448884"><ele>24.0</ele><time>2026-04-06T08:51:06.999Z</time></trkpt><trkpt lat="43.70813895759719" lon="10.918258188179298"><ele>24.0</ele><time>2026-04-06T08:51:07.999Z</time></trkpt><trkpt lat="43.70817048781739" lon="10.918044368648854"><ele>24.0</ele><time>2026-04-06T08:51:08.999Z</time></trkpt><trkpt lat="43.70819932861683" lon="10.917874286884103"><ele>24.0</ele><time>2026-04-06T08:51:09.999Z</time></trkpt><trkpt lat="43.70822444101885" lon="10.917741731426139"><ele>24.0</ele><time>2026-04-06T08:51:10.999Z</time></trkpt><trkpt lat="43.70824304878841" lon="10.917647907208822"><ele>24.2</ele><time>2026-04-06T08:51:11.999Z</time></trkpt><trkpt lat="43.70827108889704" lon="10.917518401391519"><ele>24.4</ele><time>2026-04-06T08:51:14Z</time></trkpt><trkpt lat="43.70830308576867" lon="10.917372671769002"><ele>24.6</ele><time>2026-04-06T08:51:16Z</time></trkpt><trkpt lat="43.70832684301541" lon="10.91727553286239"><ele>24.8</ele><time>2026-04-06T08:51:17Z</time></trkpt><trkpt lat="43.70835693748165" lon="10.917164687761309"><ele>25.0</ele><time>2026-04-06T08:51:18Z</time></trkpt><trkpt lat="43.708390202778524" lon="10.917047523273617"><ele>25.000000000000004</ele><time>2026-04-06T08:51:19Z</time></trkpt><trkpt lat="43.70842827218835" lon="10.916925433414292"><ele>25.0</ele><time>2026-04-06T08:51:20Z</time></trkpt><trkpt lat="43.70846761172393" lon="10.916804544705952"><ele>25.0</ele><time>2026-04-06T08:51:21Z</time></trkpt><trkpt lat="43.70850381227375" lon="10.916699871601729"><ele>25.0</ele><time>2026-04-06T08:51:22Z</time></trkpt><trkpt lat="43.70853899129736" lon="10.916598232077964"><ele>25.000000000000004</ele><time>2026-04-06T08:51:23Z</time></trkpt><trkpt lat="43.70857072735536" lon="10.916508966426155"><ele>25.0</ele><time>2026-04-06T08:51:24Z</time></trkpt><trkpt lat="43.708619908558916" lon="10.916367474874319"><ele>25.0</ele><time>2026-04-06T08:51:26Z</time></trkpt><trkpt lat="43.70866951402876" lon="10.916237010940632"><ele>25.0</ele><time>2026-04-06T08:51:28Z</time></trkpt><trkpt lat="43.708729780281125" lon="10.916091295984549"><ele>25.0</ele><time>2026-04-06T08:51:30Z</time></trkpt><trkpt lat="43.70876659165387" lon="10.916009667640704"><ele>25.0</ele><time>2026-04-06T08:51:31Z</time></trkpt><trkpt lat="43.708807572714775" lon="10.915921379151944"><ele>25.0</ele><time>2026-04-06T08:51:32Z</time></trkpt><trkpt lat="43.70885275471373" lon="10.91582331126459"><ele>25.0</ele><time>2026-04-06T08:51:33Z</time></trkpt><trkpt lat="43.708899773636574" lon="10.915719863907213"><ele>25.0</ele><time>2026-04-06T08:51:34Z</time></trkpt><trkpt lat="43.70894973193441" lon="10.915610766373673"><ele>25.0</ele><time>2026-04-06T08:51:35Z</time></trkpt><trkpt lat="43.7089994487627" lon="10.915500747283447"><ele>25.0</ele><time>2026-04-06T08:51:36Z</time></trkpt><trkpt lat="43.70907323469694" lon="10.915329702519788"><ele>25.0</ele><time>2026-04-06T08:51:37Z</time></trkpt><trkpt lat="43.70912915622053" lon="10.915200565228101"><ele>25.000000000000004</ele><time>2026-04-06T08:51:38Z</time></trkpt><trkpt lat="43.70918085578837" lon="10.915084756997373"><ele>25.0</ele><time>2026-04-06T08:51:39Z</time></trkpt><trkpt lat="43.709222608299825" lon="10.914987559500261"><ele>25.0</ele><time>2026-04-06T08:51:40Z</time></trkpt><trkpt lat="43.7092582827067" lon="10.914912578757024"><ele>25.0</ele><time>2026-04-06T08:51:41Z</time></trkpt><trkpt lat="43.70929899792945" lon="10.914819008078844"><ele>25.000000000000004</ele><time>2026-04-06T08:51:43Z</time></trkpt><trkpt lat="43.709321926355294" lon="10.914734534257208"><ele>25.0</ele><time>2026-04-06T08:51:46Z</time></trkpt><trkpt lat="43.709357866044165" lon="10.914644083261582"><ele>25.166666666666668</ele><time>2026-04-06T08:51:49Z</time></trkpt><trkpt lat="43.70939467968815" lon="10.914562383892402"><ele>25.333333333333336</ele><time>2026-04-06T08:51:53Z</time></trkpt><trkpt lat="43.709429831058934" lon="10.914486884830964"><ele>25.5</ele><time>2026-04-06T08:51:57Z</time></trkpt><trkpt lat="43.70947349544334" lon="10.914390661014052"><ele>25.666666666666664</ele><time>2026-04-06T08:52:00Z</time></trkpt><trkpt lat="43.70952018776953" lon="10.91429015775"><ele>25.833333333333332</ele><time>2026-04-06T08:52:03Z</time></trkpt><trkpt lat="43.70956104825808" lon="10.914189405461244"><ele>26.0</ele><time>2026-04-06T08:52:07Z</time></trkpt><trkpt lat="43.709601269451966" lon="10.914117550903688"><ele>25.666666666666664</ele><time>2026-04-06T08:52:10Z</time></trkpt><trkpt lat="43.70963916786055" lon="10.914047553971896"><ele>25.333333333333332</ele><time>2026-04-06T08:52:16Z</time></trkpt><trkpt lat="43.70968259072042" lon="10.913933057464394"><ele>25.0</ele><time>2026-04-06T08:52:20.999Z</time></trkpt><trkpt lat="43.70973830070947" lon="10.913811671918294"><ele>24.666666666666664</ele><time>2026-04-06T08:52:22.999Z</time></trkpt><trkpt lat="43.70977328462696" lon="10.913730854395565"><ele>24.333333333333332</ele><time>2026-04-06T08:52:23.999Z</time></trkpt><trkpt lat="43.70980619167228" lon="10.913655511361467"><ele>24.0</ele><time>2026-04-06T08:52:24.999Z</time></trkpt><trkpt lat="43.70984417494053" lon="10.913575342388251"><ele>24.0</ele><time>2026-04-06T08:52:25.999Z</time></trkpt><trkpt lat="43.70988372362547" lon="10.913478785523427"><ele>24.0</ele><time>2026-04-06T08:52:26.999Z</time></trkpt><trkpt lat="43.70992655629891" lon="10.913367377630609"><ele>24.0</ele><time>2026-04-06T08:52:27.999Z</time></trkpt><trkpt lat="43.7099693503139" lon="10.913245780676663"><ele>24.0</ele><time>2026-04-06T08:52:28.999Z</time></trkpt><trkpt lat="43.71001389216848" lon="10.913114844931753"><ele>24.0</ele><time>2026-04-06T08:52:29.999Z</time></trkpt><trkpt lat="43.7100640647384" lon="10.912960933411973"><ele>24.0</ele><time>2026-04-06T08:52:30.999Z</time></trkpt><trkpt lat="43.71011153696472" lon="10.91280129367486"><ele>24.0</ele><time>2026-04-06T08:52:31.999Z</time></trkpt><trkpt lat="43.71015995422449" lon="10.912634071395209"><ele>24.0</ele><time>2026-04-06T08:52:32.999Z</time></trkpt><trkpt lat="43.71020635258231" lon="10.912456830259593"><ele>24.0</ele><time>2026-04-06T08:52:33.999Z</time></trkpt><trkpt lat="43.7102544754906" lon="10.91226663998598"><ele>24.0</ele><time>2026-04-06T08:52:34.999Z</time></trkpt><trkpt lat="43.7102997124003" lon="10.912074502363776"><ele>24.0</ele><time>2026-04-06T08:52:35.999Z</time></trkpt><trkpt lat="43.71034465316565" lon="10.91186664075806"><ele>24.0</ele><time>2026-04-06T08:52:36.999Z</time></trkpt><trkpt lat="43.710383454838286" lon="10.911654056112909"><ele>24.333333333333336</ele><time>2026-04-06T08:52:37.999Z</time></trkpt><trkpt lat="43.71042176978269" lon="10.911423773636075"><ele>24.666666666666668</ele><time>2026-04-06T08:52:38.999Z</time></trkpt><trkpt lat="43.710456372702865" lon="10.911186030730338"><ele>25.0</ele><time>2026-04-06T08:52:39.999Z</time></trkpt><trkpt lat="43.71048626290708" lon="10.910931889840779"><ele>25.333333333333336</ele><time>2026-04-06T08:52:40.999Z</time></trkpt><trkpt lat="43.71050988708971" lon="10.910670562299467"><ele>25.666666666666664</ele><time>2026-04-06T08:52:41.999Z</time></trkpt><trkpt lat="43.71052587454217" lon="10.910409573300548"><ele>26.0</ele><time>2026-04-06T08:52:42.999Z</time></trkpt><trkpt lat="43.710538470136854" lon="10.910123584933066"><ele>25.666666666666664</ele><time>2026-04-06T08:52:43.999Z</time></trkpt><trkpt lat="43.710543172775424" lon="10.909866373145405"><ele>25.333333333333336</ele><time>2026-04-06T08:52:44.999Z</time></trkpt><trkpt lat="43.71054171900504" lon="10.909598486903754"><ele>25.0</ele><time>2026-04-06T08:52:45.999Z</time></trkpt><trkpt lat="43.710537759150945" lon="10.909317426523891"><ele>24.333333333333336</ele><time>2026-04-06T08:52:46.999Z</time></trkpt><trkpt lat="43.71052541700579" lon="10.909040455324647"><ele>23.666666666666668</ele><time>2026-04-06T08:52:47.999Z</time></trkpt><trkpt lat="43.710503849170316" lon="10.908768260759466"><ele>23.0</ele><time>2026-04-06T08:52:48.999Z</time></trkpt><trkpt lat="43.71046930257923" lon="10.908501575755684"><ele>22.666666666666668</ele><time>2026-04-06T08:52:49.999Z</time></trkpt><trkpt lat="43.71042720999028" lon="10.908256068787514"><ele>22.333333333333332</ele><time>2026-04-06T08:52:50.999Z</time></trkpt><trkpt lat="43.71038728549159" lon="10.908031778803673"><ele>22.0</ele><time>2026-04-06T08:52:51.999Z</time></trkpt><trkpt lat="43.71034952581436" lon="10.907828825914178"><ele>22.0</ele><time>2026-04-06T08:52:52.999Z</time></trkpt><trkpt lat="43.710308582992965" lon="10.90763925521015"><ele>22.0</ele><time>2026-04-06T08:52:53.999Z</time></trkpt><trkpt lat="43.71026399782376" lon="10.907444933783072"><ele>22.0</ele><time>2026-04-06T08:52:54.999Z</time></trkpt><trkpt lat="43.71022044194369" lon="10.907255436435511"><ele>22.0</ele><time>2026-04-06T08:52:55.999Z</time></trkpt><trkpt lat="43.710180839970704" lon="10.907079305316232"><ele>22.5</ele><time>2026-04-06T08:52:56.999Z</time></trkpt><trkpt lat="43.71014062211665" lon="10.90690467618746"><ele>23.0</ele><time>2026-04-06T08:52:57.999Z</time></trkpt><trkpt lat="43.71010535312515" lon="10.906746274129116"><ele>23.5</ele><time>2026-04-06T08:52:58.999Z</time></trkpt><trkpt lat="43.71006961964502" lon="10.906593228501896"><ele>24.0</ele><time>2026-04-06T08:52:59.999Z</time></trkpt><trkpt lat="43.71003395007134" lon="10.906443131240662"><ele>24.2</ele><time>2026-04-06T08:53:00.999Z</time></trkpt><trkpt lat="43.71000284251461" lon="10.90629760650016"><ele>24.4</ele><time>2026-04-06T08:53:01.999Z</time></trkpt><trkpt lat="43.70996937603802" lon="10.90615190544018"><ele>24.6</ele><time>2026-04-06T08:53:02.999Z</time></trkpt><trkpt lat="43.709936308731805" lon="10.906004168395105"><ele>24.8</ele><time>2026-04-06T08:53:03.999Z</time></trkpt><trkpt lat="43.70990525651914" lon="10.905855561620543"><ele>25.0</ele><time>2026-04-06T08:53:04.999Z</time></trkpt><trkpt lat="43.70987192771837" lon="10.905704354506694"><ele>25.0</ele><time>2026-04-06T08:53:05.999Z</time></trkpt><trkpt lat="43.70983813552875" lon="10.905550048577965"><ele>25.0</ele><time>2026-04-06T08:53:06.999Z</time></trkpt><trkpt lat="43.7098048984539" lon="10.905391003735996"><ele>25.0</ele><time>2026-04-06T08:53:07.999Z</time></trkpt><trkpt lat="43.709768950555315" lon="10.905226780633862"><ele>25.0</ele><time>2026-04-06T08:53:08.999Z</time></trkpt><trkpt lat="43.709731823601096" lon="10.905060827999247"><ele>24.5</ele><time>2026-04-06T08:53:09.999Z</time></trkpt><trkpt lat="43.70969521551521" lon="10.904893364944567"><ele>24.0</ele><time>2026-04-06T08:53:10.999Z</time></trkpt><trkpt lat="43.709656348171166" lon="10.904731510747604"><ele>23.5</ele><time>2026-04-06T08:53:11.999Z</time></trkpt><trkpt lat="43.7096181445888" lon="10.904559116555182"><ele>23.0</ele><time>2026-04-06T08:53:12.999Z</time></trkpt><trkpt lat="43.70958363937323" lon="10.90438897229458"><ele>23.0</ele><time>2026-04-06T08:53:13.999Z</time></trkpt><trkpt lat="43.70954298948469" lon="10.904217778728277"><ele>23.0</ele><time>2026-04-06T08:53:14.999Z</time></trkpt><trkpt lat="43.70950507487127" lon="10.904041843924528"><ele>23.0</ele><time>2026-04-06T08:53:15.999Z</time></trkpt><trkpt lat="43.70946846529928" lon="10.903867827319637"><ele>23.0</ele><time>2026-04-06T08:53:16.999Z</time></trkpt><trkpt lat="43.70943038540835" lon="10.90368382266108"><ele>23.0</ele><time>2026-04-06T08:53:17.999Z</time></trkpt><trkpt lat="43.70938388483137" lon="10.903494355067744"><ele>23.0</ele><time>2026-04-06T08:53:19Z</time></trkpt><trkpt lat="43.70934146226633" lon="10.90331039781623"><ele>23.0</ele><time>2026-04-06T08:53:20Z</time></trkpt><trkpt lat="43.70930156301055" lon="10.903132530595066"><ele>23.0</ele><time>2026-04-06T08:53:21Z</time></trkpt><trkpt lat="43.70925312934916" lon="10.902907773716802"><ele>23.0</ele><time>2026-04-06T08:53:22Z</time></trkpt><trkpt lat="43.70920822035665" lon="10.902704607987708"><ele>23.0</ele><time>2026-04-06T08:53:23Z</time></trkpt><trkpt lat="43.709160256955776" lon="10.902491833164527"><ele>23.0</ele><time>2026-04-06T08:53:24Z</time></trkpt><trkpt lat="43.70911377180443" lon="10.902279005601795"><ele>23.0</ele><time>2026-04-06T08:53:25Z</time></trkpt><trkpt lat="43.70906341050175" lon="10.902054423875736"><ele>23.0</ele><time>2026-04-06T08:53:26Z</time></trkpt><trkpt lat="43.70901590784751" lon="10.90182815661742"><ele>23.0</ele><time>2026-04-06T08:53:27Z</time></trkpt><trkpt lat="43.708965976329566" lon="10.901611052979312"><ele>23.0</ele><time>2026-04-06T08:53:28Z</time></trkpt><trkpt lat="43.70891796077255" lon="10.901376244462819"><ele>23.0</ele><time>2026-04-06T08:53:29Z</time></trkpt><trkpt lat="43.708865246427244" lon="10.901145612703363"><ele>23.0</ele><time>2026-04-06T08:53:30Z</time></trkpt><trkpt lat="43.70881025390852" lon="10.900905699875722"><ele>23.0</ele><time>2026-04-06T08:53:31Z</time></trkpt><trkpt lat="43.70875606327249" lon="10.900661182185036"><ele>23.0</ele><time>2026-04-06T08:53:32Z</time></trkpt><trkpt lat="43.70870057975122" lon="10.900413858464553"><ele>23.0</ele><time>2026-04-06T08:53:33Z</time></trkpt><trkpt lat="43.7086455121293" lon="10.900163403173751"><ele>23.0</ele><time>2026-04-06T08:53:34Z</time></trkpt><trkpt lat="43.7085897667319" lon="10.899910011766345"><ele>23.0</ele><time>2026-04-06T08:53:35Z</time></trkpt><trkpt lat="43.70853232842507" lon="10.89965009939446"><ele>23.0</ele><time>2026-04-06T08:53:36Z</time></trkpt><trkpt lat="43.70847706105347" lon="10.899400676150963"><ele>23.0</ele><time>2026-04-06T08:53:37Z</time></trkpt><trkpt lat="43.70841802191297" lon="10.899147745934092"><ele>23.0</ele><time>2026-04-06T08:53:38Z</time></trkpt><trkpt lat="43.708362618753135" lon="10.898896580408973"><ele>23.0</ele><time>2026-04-06T08:53:39Z</time></trkpt><trkpt lat="43.70830730868598" lon="10.898644847847075"><ele>23.333333333333336</ele><time>2026-04-06T08:53:40Z</time></trkpt><trkpt lat="43.7082516496467" lon="10.89839606298396"><ele>23.666666666666668</ele><time>2026-04-06T08:53:41Z</time></trkpt><trkpt lat="43.70819537512264" lon="10.898144215974328"><ele>24.0</ele><time>2026-04-06T08:53:42Z</time></trkpt><trkpt lat="43.70813983644539" lon="10.89788964645677"><ele>24.0</ele><time>2026-04-06T08:53:43Z</time></trkpt><trkpt lat="43.708084803404574" lon="10.89763858658254"><ele>24.0</ele><time>2026-04-06T08:53:44Z</time></trkpt><trkpt lat="43.70803124699549" lon="10.897399685885643"><ele>24.0</ele><time>2026-04-06T08:53:45Z</time></trkpt><trkpt lat="43.70797824564593" lon="10.89716892155968"><ele>24.0</ele><time>2026-04-06T08:53:46Z</time></trkpt><trkpt lat="43.70792668242577" lon="10.896944001754385"><ele>24.0</ele><time>2026-04-06T08:53:47Z</time></trkpt><trkpt lat="43.70787677049283" lon="10.896723813370965"><ele>24.0</ele><time>2026-04-06T08:53:48Z</time></trkpt><trkpt lat="43.70782918239486" lon="10.89650494680115"><ele>24.0</ele><time>2026-04-06T08:53:49Z</time></trkpt><trkpt lat="43.70778275342807" lon="10.896284380302085"><ele>24.0</ele><time>2026-04-06T08:53:50Z</time></trkpt><trkpt lat="43.70773630493962" lon="10.896063228318829"><ele>24.0</ele><time>2026-04-06T08:53:51Z</time></trkpt><trkpt lat="43.70768803133653" lon="10.895842888548664"><ele>24.0</ele><time>2026-04-06T08:53:52Z</time></trkpt><trkpt lat="43.70763850979599" lon="10.89562143362456"><ele>24.0</ele><time>2026-04-06T08:53:53Z</time></trkpt><trkpt lat="43.707590261608225" lon="10.895405792833941"><ele>24.0</ele><time>2026-04-06T08:53:54Z</time></trkpt><trkpt lat="43.707543772000406" lon="10.895204899598351"><ele>24.5</ele><time>2026-04-06T08:53:55Z</time></trkpt><trkpt lat="43.70749998287949" lon="10.895007471185075"><ele>25.0</ele><time>2026-04-06T08:53:56Z</time></trkpt><trkpt lat="43.70746027624047" lon="10.89484037055831"><ele>25.5</ele><time>2026-04-06T08:53:57Z</time></trkpt><trkpt lat="43.707422894051774" lon="10.894673407085222"><ele>26.0</ele><time>2026-04-06T08:53:58Z</time></trkpt><trkpt lat="43.70738914076034" lon="10.894518479037028"><ele>26.0</ele><time>2026-04-06T08:53:59Z</time></trkpt><trkpt lat="43.707356595672366" lon="10.89436909092675"><ele>26.0</ele><time>2026-04-06T08:54:00Z</time></trkpt><trkpt lat="43.707327753676665" lon="10.89423198308489"><ele>26.0</ele><time>2026-04-06T08:54:01Z</time></trkpt><trkpt lat="43.707300962250414" lon="10.894109700249258"><ele>26.0</ele><time>2026-04-06T08:54:02Z</time></trkpt><trkpt lat="43.707276149067546" lon="10.89399645134492"><ele>26.0</ele><time>2026-04-06T08:54:03Z</time></trkpt><trkpt lat="43.707254317744336" lon="10.893899166966593"><ele>25.999999999999996</ele><time>2026-04-06T08:54:04Z</time></trkpt><trkpt lat="43.70723382632499" lon="10.89380213917988"><ele>26.0</ele><time>2026-04-06T08:54:05Z</time></trkpt><trkpt lat="43.7072115066799" lon="10.893703815319547"><ele>26.0</ele><time>2026-04-06T08:54:06Z</time></trkpt><trkpt lat="43.70718742316359" lon="10.893597574245604"><ele>26.0</ele><time>2026-04-06T08:54:07Z</time></trkpt><trkpt lat="43.70716231702397" lon="10.893486115342926"><ele>25.999999999999996</ele><time>2026-04-06T08:54:08Z</time></trkpt><trkpt lat="43.70713445452965" lon="10.893365661091282"><ele>26.0</ele><time>2026-04-06T08:54:09Z</time></trkpt><trkpt lat="43.70710801423956" lon="10.893245708252659"><ele>25.833333333333332</ele><time>2026-04-06T08:54:10Z</time></trkpt><trkpt lat="43.707081584429915" lon="10.89311848351034"><ele>25.666666666666664</ele><time>2026-04-06T08:54:11Z</time></trkpt><trkpt lat="43.70705724304507" lon="10.893003492211673"><ele>25.5</ele><time>2026-04-06T08:54:12Z</time></trkpt><trkpt lat="43.707033197463566" lon="10.89288933714582"><ele>25.333333333333336</ele><time>2026-04-06T08:54:13Z</time></trkpt><trkpt lat="43.70701096615995" lon="10.892792642310777"><ele>25.166666666666668</ele><time>2026-04-06T08:54:14Z</time></trkpt><trkpt lat="43.70699161789307" lon="10.892699945890488"><ele>25.0</ele><time>2026-04-06T08:54:15Z</time></trkpt><trkpt lat="43.70697001205584" lon="10.892610231347751"><ele>25.000000000000004</ele><time>2026-04-06T08:54:16Z</time></trkpt><trkpt lat="43.70695011295791" lon="10.892524642579733"><ele>25.0</ele><time>2026-04-06T08:54:17Z</time></trkpt><trkpt lat="43.706919964862806" lon="10.892383219186437"><ele>25.0</ele><time>2026-04-06T08:54:19Z</time></trkpt><trkpt lat="43.70689929885154" lon="10.892288888597223"><ele>25.0</ele><time>2026-04-06T08:54:20.999Z</time></trkpt><trkpt lat="43.70687463281128" lon="10.892200445992907"><ele>25.000000000000004</ele><time>2026-04-06T08:54:33.999Z</time></trkpt><trkpt lat="43.7068515632444" lon="10.892109384333617"><ele>25.0</ele><time>2026-04-06T08:54:35.999Z</time></trkpt><trkpt lat="43.70682542746494" lon="10.891987636135491"><ele>25.0</ele><time>2026-04-06T08:54:37.999Z</time></trkpt><trkpt lat="43.7067948714674" lon="10.89185661526764"><ele>25.0</ele><time>2026-04-06T08:54:39.999Z</time></trkpt><trkpt lat="43.706763794912156" lon="10.891713204573609"><ele>25.0</ele><time>2026-04-06T08:54:41.999Z</time></trkpt><trkpt lat="43.70673112569198" lon="10.891547671695108"><ele>25.0</ele><time>2026-04-06T08:54:43.999Z</time></trkpt><trkpt lat="43.70671220858444" lon="10.891455815689204"><ele>25.0</ele><time>2026-04-06T08:54:44.999Z</time></trkpt><trkpt lat="43.70667575001171" lon="10.891319927602384"><ele>25.000000000000004</ele><time>2026-04-06T08:54:46.999Z</time></trkpt><trkpt lat="43.70664809938548" lon="10.891189215616679"><ele>25.0</ele><time>2026-04-06T08:54:48.999Z</time></trkpt><trkpt lat="43.70663038126005" lon="10.89110511415636"><ele>25.0</ele><time>2026-04-06T08:54:51.999Z</time></trkpt><trkpt lat="43.7066079966826" lon="10.890993796702553"><ele>25.0</ele><time>2026-04-06T08:54:56.999Z</time></trkpt><trkpt lat="43.706587223360366" lon="10.890877538195161"><ele>25.000000000000004</ele><time>2026-04-06T08:54:59.999Z</time></trkpt><trkpt lat="43.70655737157624" lon="10.890766762628031"><ele>25.0</ele><time>2026-04-06T08:55:02.999Z</time></trkpt><trkpt lat="43.706532268397886" lon="10.890666719733769"><ele>24.500000000000004</ele><time>2026-04-06T08:55:05.999Z</time></trkpt><trkpt lat="43.70650812078199" lon="10.890558240745865"><ele>24.0</ele><time>2026-04-06T08:55:22.999Z</time></trkpt><trkpt lat="43.706486615882234" lon="10.890466359659188"><ele>23.5</ele><time>2026-04-06T08:55:25Z</time></trkpt><trkpt lat="43.7064680837252" lon="10.890357483919635"><ele>23.0</ele><time>2026-04-06T08:55:28Z</time></trkpt><trkpt lat="43.706440287261984" lon="10.890232993629485"><ele>22.5</ele><time>2026-04-06T08:55:31Z</time></trkpt><trkpt lat="43.70640961259305" lon="10.890123354277003"><ele>22.0</ele><time>2026-04-06T08:55:33Z</time></trkpt><trkpt lat="43.70638353346233" lon="10.89000237072931"><ele>22.0</ele><time>2026-04-06T08:55:35Z</time></trkpt><trkpt lat="43.706355134602845" lon="10.889864805712493"><ele>22.0</ele><time>2026-04-06T08:55:37Z</time></trkpt><trkpt lat="43.70632144635957" lon="10.889722154285684"><ele>22.0</ele><time>2026-04-06T08:55:39Z</time></trkpt><trkpt lat="43.70630208173236" lon="10.889637674676491"><ele>22.0</ele><time>2026-04-06T08:55:40Z</time></trkpt><trkpt lat="43.706265808969015" lon="10.88948403204408"><ele>22.0</ele><time>2026-04-06T08:55:42Z</time></trkpt><trkpt lat="43.70624795310724" lon="10.889398535982307"><ele>22.0</ele><time>2026-04-06T08:55:43Z</time></trkpt><trkpt lat="43.70622257985708" lon="10.889295213747108"><ele>22.0</ele><time>2026-04-06T08:55:44Z</time></trkpt><trkpt lat="43.70619234712659" lon="10.889164978370589"><ele>22.0</ele><time>2026-04-06T08:55:45Z</time></trkpt><trkpt lat="43.706157215304096" lon="10.889015591514283"><ele>22.0</ele><time>2026-04-06T08:55:46Z</time></trkpt><trkpt lat="43.706123455118004" lon="10.888864557108336"><ele>22.0</ele><time>2026-04-06T08:55:47Z</time></trkpt><trkpt lat="43.70609115731637" lon="10.888718016566514"><ele>23.0</ele><time>2026-04-06T08:55:48Z</time></trkpt><trkpt lat="43.706057547871616" lon="10.88856418442065"><ele>24.0</ele><time>2026-04-06T08:55:49Z</time></trkpt><trkpt lat="43.70602228154122" lon="10.888407972796577"><ele>25.0</ele><time>2026-04-06T08:55:50Z</time></trkpt><trkpt lat="43.70598968474443" lon="10.888253567820112"><ele>26.0</ele><time>2026-04-06T08:55:51Z</time></trkpt><trkpt lat="43.70595754305345" lon="10.88809835174218"><ele>26.25</ele><time>2026-04-06T08:55:52Z</time></trkpt><trkpt lat="43.705924453246624" lon="10.887939731449414"><ele>26.5</ele><time>2026-04-06T08:55:53Z</time></trkpt><trkpt lat="43.70589143715383" lon="10.887776462840105"><ele>26.75</ele><time>2026-04-06T08:55:54Z</time></trkpt><trkpt lat="43.7058567843946" lon="10.88760968645791"><ele>27.0</ele><time>2026-04-06T08:55:55Z</time></trkpt><trkpt lat="43.7058212736247" lon="10.887434693304705"><ele>27.25</ele><time>2026-04-06T08:55:56Z</time></trkpt><trkpt lat="43.7057826108089" lon="10.887250435447656"><ele>27.5</ele><time>2026-04-06T08:55:57Z</time></trkpt><trkpt lat="43.705741857265544" lon="10.887065016762959"><ele>27.75</ele><time>2026-04-06T08:55:58Z</time></trkpt><trkpt lat="43.70570493744305" lon="10.886858753620142"><ele>28.0</ele><time>2026-04-06T08:55:59Z</time></trkpt><trkpt lat="43.7056620826426" lon="10.886653366943252"><ele>28.0</ele><time>2026-04-06T08:56:00Z</time></trkpt><trkpt lat="43.70562574221266" lon="10.886450307932206"><ele>28.0</ele><time>2026-04-06T08:56:01Z</time></trkpt><trkpt lat="43.70558800801163" lon="10.886229591636981"><ele>28.0</ele><time>2026-04-06T08:56:02Z</time></trkpt><trkpt lat="43.70555120258422" lon="10.886008623438922"><ele>27.333333333333336</ele><time>2026-04-06T08:56:03Z</time></trkpt><trkpt lat="43.7055139084356" lon="10.885781456034328"><ele>26.666666666666664</ele><time>2026-04-06T08:56:04Z</time></trkpt><trkpt lat="43.70548673676507" lon="10.885542454301122"><ele>26.0</ele><time>2026-04-06T08:56:05Z</time></trkpt><trkpt lat="43.705447905731525" lon="10.885314516584039"><ele>25.666666666666664</ele><time>2026-04-06T08:56:06Z</time></trkpt><trkpt lat="43.705415700295745" lon="10.885072847915113"><ele>25.333333333333336</ele><time>2026-04-06T08:56:07Z</time></trkpt><trkpt lat="43.705383059334395" lon="10.884841970621618"><ele>25.0</ele><time>2026-04-06T08:56:08Z</time></trkpt><trkpt lat="43.705352737035504" lon="10.884603746066048"><ele>25.0</ele><time>2026-04-06T08:56:09Z</time></trkpt><trkpt lat="43.705325114706724" lon="10.884380116984417"><ele>25.0</ele><time>2026-04-06T08:56:10Z</time></trkpt><trkpt lat="43.70529391524792" lon="10.884156389425925"><ele>25.0</ele><time>2026-04-06T08:56:11Z</time></trkpt><trkpt lat="43.70526296637231" lon="10.88392754630058"><ele>25.0</ele><time>2026-04-06T08:56:12Z</time></trkpt><trkpt lat="43.70523136674886" lon="10.883691450313718"><ele>25.0</ele><time>2026-04-06T08:56:13Z</time></trkpt><trkpt lat="43.70519976782331" lon="10.883452251907771"><ele>25.0</ele><time>2026-04-06T08:56:14Z</time></trkpt><trkpt lat="43.70516745917451" lon="10.883209431195956"><ele>25.0</ele><time>2026-04-06T08:56:15Z</time></trkpt><trkpt lat="43.705135643465844" lon="10.88296840258728"><ele>25.0</ele><time>2026-04-06T08:56:16Z</time></trkpt><trkpt lat="43.705104644276595" lon="10.882726929332186"><ele>25.0</ele><time>2026-04-06T08:56:17Z</time></trkpt><trkpt lat="43.70507465487751" lon="10.882495292106118"><ele>24.666666666666668</ele><time>2026-04-06T08:56:18Z</time></trkpt><trkpt lat="43.70504457381749" lon="10.882269163539375"><ele>24.333333333333336</ele><time>2026-04-06T08:56:19Z</time></trkpt><trkpt lat="43.705013524396875" lon="10.882036606350818"><ele>24.0</ele><time>2026-04-06T08:56:20Z</time></trkpt><trkpt lat="43.70498175013972" lon="10.881802733565294"><ele>23.666666666666668</ele><time>2026-04-06T08:56:21Z</time></trkpt><trkpt lat="43.70495003874183" lon="10.88157028652882"><ele>23.333333333333336</ele><time>2026-04-06T08:56:22Z</time></trkpt><trkpt lat="43.70491991275248" lon="10.881336618448303"><ele>23.0</ele><time>2026-04-06T08:56:23Z</time></trkpt><trkpt lat="43.70488875185694" lon="10.881100681087158"><ele>23.666666666666668</ele><time>2026-04-06T08:56:24Z</time></trkpt><trkpt lat="43.704859388387675" lon="10.880869062175329"><ele>24.333333333333336</ele><time>2026-04-06T08:56:25Z</time></trkpt><trkpt lat="43.70482977278524" lon="10.880636660394106"><ele>25.0</ele><time>2026-04-06T08:56:26Z</time></trkpt><trkpt lat="43.70479897585448" lon="10.880404288944025"><ele>25.0</ele><time>2026-04-06T08:56:27Z</time></trkpt><trkpt lat="43.70476718496217" lon="10.8801677143181"><ele>25.0</ele><time>2026-04-06T08:56:28Z</time></trkpt><trkpt lat="43.704736522436065" lon="10.879927758640202"><ele>25.0</ele><time>2026-04-06T08:56:29Z</time></trkpt><trkpt lat="43.70470502674827" lon="10.879691266046486"><ele>24.666666666666668</ele><time>2026-04-06T08:56:30Z</time></trkpt><trkpt lat="43.704672304747625" lon="10.879448986324043"><ele>24.333333333333336</ele><time>2026-04-06T08:56:31Z</time></trkpt><trkpt lat="43.704638941368046" lon="10.879200411244211"><ele>24.0</ele><time>2026-04-06T08:56:32Z</time></trkpt><trkpt lat="43.70460774996908" lon="10.878952322782217"><ele>24.0</ele><time>2026-04-06T08:56:33Z</time></trkpt><trkpt lat="43.70457385087985" lon="10.878698058472459"><ele>24.0</ele><time>2026-04-06T08:56:34Z</time></trkpt><trkpt lat="43.70454185843305" lon="10.878452409091205"><ele>24.0</ele><time>2026-04-06T08:56:35Z</time></trkpt><trkpt lat="43.70451043007123" lon="10.878206600800725"><ele>24.0</ele><time>2026-04-06T08:56:36Z</time></trkpt><trkpt lat="43.704478742446604" lon="10.877955206008231"><ele>24.0</ele><time>2026-04-06T08:56:37Z</time></trkpt><trkpt lat="43.704443975063505" lon="10.877702373161823"><ele>24.0</ele><time>2026-04-06T08:56:38Z</time></trkpt><trkpt lat="43.704411202225636" lon="10.877452773103506"><ele>24.0</ele><time>2026-04-06T08:56:39Z</time></trkpt><trkpt lat="43.70437961932133" lon="10.877203393966775"><ele>24.0</ele><time>2026-04-06T08:56:39.999Z</time></trkpt><trkpt lat="43.70434619327477" lon="10.876952506376906"><ele>24.0</ele><time>2026-04-06T08:56:40.999Z</time></trkpt><trkpt lat="43.704312880678266" lon="10.87669962867741"><ele>23.666666666666668</ele><time>2026-04-06T08:56:41.999Z</time></trkpt><trkpt lat="43.70427882685111" lon="10.876440340973186"><ele>23.333333333333336</ele><time>2026-04-06T08:56:42.999Z</time></trkpt><trkpt lat="43.7042458354868" lon="10.876188569571651"><ele>23.0</ele><time>2026-04-06T08:56:43.999Z</time></trkpt><trkpt lat="43.70421465136349" lon="10.875937675879264"><ele>23.333333333333336</ele><time>2026-04-06T08:56:44.999Z</time></trkpt><trkpt lat="43.704181044110015" lon="10.87568200137398"><ele>23.666666666666668</ele><time>2026-04-06T08:56:45.999Z</time></trkpt><trkpt lat="43.70414875289904" lon="10.875431789417528"><ele>24.0</ele><time>2026-04-06T08:56:46.999Z</time></trkpt><trkpt lat="43.70411697298387" lon="10.875185619375207"><ele>23.333333333333332</ele><time>2026-04-06T08:56:47.999Z</time></trkpt><trkpt lat="43.70408574021753" lon="10.874940750895314"><ele>22.666666666666664</ele><time>2026-04-06T08:56:48.999Z</time></trkpt><trkpt lat="43.704054011351815" lon="10.87469701241184"><ele>22.0</ele><time>2026-04-06T08:56:49.999Z</time></trkpt><trkpt lat="43.70402296415856" lon="10.87445752781296"><ele>22.333333333333332</ele><time>2026-04-06T08:56:50.999Z</time></trkpt><trkpt lat="43.70399061812595" lon="10.874222591887555"><ele>22.666666666666668</ele><time>2026-04-06T08:56:51.999Z</time></trkpt><trkpt lat="43.70395494890918" lon="10.873975445909148"><ele>23.0</ele><time>2026-04-06T08:56:52.999Z</time></trkpt><trkpt lat="43.703926362516555" lon="10.873740545393241"><ele>23.0</ele><time>2026-04-06T08:56:53.999Z</time></trkpt><trkpt lat="43.70389577456811" lon="10.873499092929205"><ele>23.0</ele><time>2026-04-06T08:56:54.999Z</time></trkpt><trkpt lat="43.7038634445148" lon="10.873262374369148"><ele>23.0</ele><time>2026-04-06T08:56:55.999Z</time></trkpt><trkpt lat="43.70383404936021" lon="10.8730260540548"><ele>23.666666666666668</ele><time>2026-04-06T08:56:56.999Z</time></trkpt><trkpt lat="43.70380302985542" lon="10.872785292881685"><ele>24.333333333333336</ele><time>2026-04-06T08:56:57.999Z</time></trkpt><trkpt lat="43.703772325571826" lon="10.872542120166386"><ele>25.0</ele><time>2026-04-06T08:56:58.999Z</time></trkpt><trkpt lat="43.70374202088943" lon="10.87230094238579"><ele>25.0</ele><time>2026-04-06T08:56:59.999Z</time></trkpt><trkpt lat="43.703712230224006" lon="10.872061927589892"><ele>25.0</ele><time>2026-04-06T08:57:00.999Z</time></trkpt><trkpt lat="43.703682778039024" lon="10.871828765244056"><ele>25.0</ele><time>2026-04-06T08:57:01.999Z</time></trkpt><trkpt lat="43.70365310846122" lon="10.871586614163617"><ele>24.666666666666668</ele><time>2026-04-06T08:57:02.999Z</time></trkpt><trkpt lat="43.7036219325703" lon="10.871344378764128"><ele>24.333333333333336</ele><time>2026-04-06T08:57:03.999Z</time></trkpt><trkpt lat="43.70359140350883" lon="10.871103143050572"><ele>24.0</ele><time>2026-04-06T08:57:04.999Z</time></trkpt><trkpt lat="43.703561580996904" lon="10.870862238359207"><ele>24.666666666666664</ele><time>2026-04-06T08:57:05.999Z</time></trkpt><trkpt lat="43.70353643421173" lon="10.870617490181141"><ele>25.333333333333332</ele><time>2026-04-06T08:57:06.999Z</time></trkpt><trkpt lat="43.703515215734505" lon="10.870368177139508"><ele>26.0</ele><time>2026-04-06T08:57:07.999Z</time></trkpt><trkpt lat="43.70350012162416" lon="10.870123401272087"><ele>25.666666666666664</ele><time>2026-04-06T08:57:08.999Z</time></trkpt><trkpt lat="43.70348766214227" lon="10.86986847837044"><ele>25.333333333333336</ele><time>2026-04-06T08:57:09.999Z</time></trkpt><trkpt lat="43.70348204620246" lon="10.869607854819545"><ele>25.0</ele><time>2026-04-06T08:57:10.999Z</time></trkpt><trkpt lat="43.703484388420634" lon="10.869357645206659"><ele>24.666666666666668</ele><time>2026-04-06T08:57:11.999Z</time></trkpt><trkpt lat="43.70349275550491" lon="10.86910029199217"><ele>24.333333333333336</ele><time>2026-04-06T08:57:12.999Z</time></trkpt><trkpt lat="43.703506228339876" lon="10.868840277329715"><ele>24.0</ele><time>2026-04-06T08:57:13.999Z</time></trkpt><trkpt lat="43.70352664177283" lon="10.868578943217216"><ele>23.666666666666668</ele><time>2026-04-06T08:57:14.999Z</time></trkpt><trkpt lat="43.70355159465824" lon="10.86831391409101"><ele>23.333333333333336</ele><time>2026-04-06T08:57:15.999Z</time></trkpt><trkpt lat="43.703583308187106" lon="10.868055659692494"><ele>23.0</ele><time>2026-04-06T08:57:16.999Z</time></trkpt><trkpt lat="43.70361978687235" lon="10.867790932373056"><ele>23.666666666666668</ele><time>2026-04-06T08:57:17.999Z</time></trkpt><trkpt lat="43.70366134157653" lon="10.867530037851768"><ele>24.333333333333336</ele><time>2026-04-06T08:57:18.999Z</time></trkpt><trkpt lat="43.70370165849517" lon="10.867264663895577"><ele>25.0</ele><time>2026-04-06T08:57:19.999Z</time></trkpt><trkpt lat="43.70374396034933" lon="10.866996594449676"><ele>24.666666666666668</ele><time>2026-04-06T08:57:20.999Z</time></trkpt><trkpt lat="43.70378111833392" lon="10.866722308889436"><ele>24.333333333333336</ele><time>2026-04-06T08:57:21.999Z</time></trkpt><trkpt lat="43.703823441699456" lon="10.866456506997897"><ele>24.0</ele><time>2026-04-06T08:57:22.999Z</time></trkpt><trkpt lat="43.703866047700025" lon="10.86618398667067"><ele>24.0</ele><time>2026-04-06T08:57:23.999Z</time></trkpt><trkpt lat="43.70390818038585" lon="10.865907861568488"><ele>24.0</ele><time>2026-04-06T08:57:24.999Z</time></trkpt><trkpt lat="43.70395469369962" lon="10.865644517256209"><ele>24.0</ele><time>2026-04-06T08:57:25.999Z</time></trkpt><trkpt lat="43.703999445716036" lon="10.865375150946528"><ele>23.333333333333332</ele><time>2026-04-06T08:57:26.999Z</time></trkpt><trkpt lat="43.70404064523493" lon="10.865093482162983"><ele>22.666666666666664</ele><time>2026-04-06T08:57:27.999Z</time></trkpt><trkpt lat="43.704082707026465" lon="10.864820707686823"><ele>22.0</ele><time>2026-04-06T08:57:28.999Z</time></trkpt><trkpt lat="43.70412380518821" lon="10.86454739163775"><ele>22.0</ele><time>2026-04-06T08:57:29.999Z</time></trkpt><trkpt lat="43.70416533012766" lon="10.864277314790835"><ele>22.0</ele><time>2026-04-06T08:57:31Z</time></trkpt><trkpt lat="43.704199962327" lon="10.86400195877599"><ele>22.0</ele><time>2026-04-06T08:57:32Z</time></trkpt><trkpt lat="43.70423178122474" lon="10.86372544920423"><ele>22.0</ele><time>2026-04-06T08:57:33Z</time></trkpt><trkpt lat="43.704260667175056" lon="10.863450719329176"><ele>22.0</ele><time>2026-04-06T08:57:34Z</time></trkpt><trkpt lat="43.70428393809065" lon="10.863171805146422"><ele>22.0</ele><time>2026-04-06T08:57:35Z</time></trkpt><trkpt lat="43.70430395198536" lon="10.86289535479074"><ele>21.666666666666664</ele><time>2026-04-06T08:57:36Z</time></trkpt><trkpt lat="43.70431844944461" lon="10.862617150508072"><ele>21.333333333333332</ele><time>2026-04-06T08:57:37Z</time></trkpt><trkpt lat="43.70432861311574" lon="10.862333594517482"><ele>21.0</ele><time>2026-04-06T08:57:38Z</time></trkpt><trkpt lat="43.704335121325634" lon="10.86205340757283"><ele>21.333333333333332</ele><time>2026-04-06T08:57:39Z</time></trkpt><trkpt lat="43.704332138072935" lon="10.861770940306695"><ele>21.666666666666664</ele><time>2026-04-06T08:57:40Z</time></trkpt><trkpt lat="43.70432482671043" lon="10.861489720991992"><ele>22.0</ele><time>2026-04-06T08:57:41Z</time></trkpt><trkpt lat="43.704312977433666" lon="10.861208449369196"><ele>22.0</ele><time>2026-04-06T08:57:42Z</time></trkpt><trkpt lat="43.70429660687992" lon="10.860924460148969"><ele>22.0</ele><time>2026-04-06T08:57:43Z</time></trkpt><trkpt lat="43.70427946838406" lon="10.860645521804827"><ele>22.0</ele><time>2026-04-06T08:57:44Z</time></trkpt><trkpt lat="43.70425849314808" lon="10.860369265053693"><ele>21.666666666666664</ele><time>2026-04-06T08:57:45Z</time></trkpt><trkpt lat="43.704228868226316" lon="10.860087930338274"><ele>21.333333333333332</ele><time>2026-04-06T08:57:46Z</time></trkpt><trkpt lat="43.70419572890657" lon="10.859807627630218"><ele>21.0</ele><time>2026-04-06T08:57:47Z</time></trkpt><trkpt lat="43.70416129184449" lon="10.859525182284406"><ele>21.333333333333332</ele><time>2026-04-06T08:57:48Z</time></trkpt><trkpt lat="43.70412956642441" lon="10.85924989088787"><ele>21.666666666666664</ele><time>2026-04-06T08:57:49Z</time></trkpt><trkpt lat="43.70409357532956" lon="10.858964638975438"><ele>22.0</ele><time>2026-04-06T08:57:50Z</time></trkpt><trkpt lat="43.7040590917537" lon="10.858681936482991"><ele>22.0</ele><time>2026-04-06T08:57:51Z</time></trkpt><trkpt lat="43.70402478044277" lon="10.858399950092062"><ele>22.0</ele><time>2026-04-06T08:57:52Z</time></trkpt><trkpt lat="43.70398786274207" lon="10.858112960162927"><ele>22.0</ele><time>2026-04-06T08:57:53Z</time></trkpt><trkpt lat="43.70395305227498" lon="10.85782991758852"><ele>22.0</ele><time>2026-04-06T08:57:54Z</time></trkpt><trkpt lat="43.70391731197564" lon="10.857540649740526"><ele>22.0</ele><time>2026-04-06T08:57:55Z</time></trkpt><trkpt lat="43.703883927261025" lon="10.85725638782107"><ele>22.0</ele><time>2026-04-06T08:57:56Z</time></trkpt><trkpt lat="43.70384288757737" lon="10.856964258311846"><ele>21.666666666666664</ele><time>2026-04-06T08:57:57Z</time></trkpt><trkpt lat="43.70380657450947" lon="10.856676735551558"><ele>21.333333333333332</ele><time>2026-04-06T08:57:58Z</time></trkpt><trkpt lat="43.703767756722826" lon="10.856388442857392"><ele>21.0</ele><time>2026-04-06T08:57:59Z</time></trkpt><trkpt lat="43.703727855163194" lon="10.856096078990854"><ele>21.333333333333332</ele><time>2026-04-06T08:58:00Z</time></trkpt><trkpt lat="43.703690330002445" lon="10.855809113779351"><ele>21.666666666666664</ele><time>2026-04-06T08:58:01Z</time></trkpt><trkpt lat="43.703653587286475" lon="10.855520936744815"><ele>22.0</ele><time>2026-04-06T08:58:02Z</time></trkpt><trkpt lat="43.7036140058474" lon="10.855229172635665"><ele>22.0</ele><time>2026-04-06T08:58:03Z</time></trkpt><trkpt lat="43.70357261662985" lon="10.854934154600098"><ele>22.0</ele><time>2026-04-06T08:58:04Z</time></trkpt><trkpt lat="43.703537822138365" lon="10.854647819469575"><ele>22.0</ele><time>2026-04-06T08:58:05Z</time></trkpt><trkpt lat="43.70349991276524" lon="10.85435128691978"><ele>21.333333333333332</ele><time>2026-04-06T08:58:06Z</time></trkpt><trkpt lat="43.703462410345495" lon="10.854051705012383"><ele>20.666666666666668</ele><time>2026-04-06T08:58:07Z</time></trkpt><trkpt lat="43.70342578908754" lon="10.853756068153931"><ele>20.0</ele><time>2026-04-06T08:58:08Z</time></trkpt><trkpt lat="43.70338733448708" lon="10.853464996235909"><ele>20.666666666666668</ele><time>2026-04-06T08:58:09Z</time></trkpt><trkpt lat="43.70335068088936" lon="10.853164758604485"><ele>21.333333333333332</ele><time>2026-04-06T08:58:10Z</time></trkpt><trkpt lat="43.70331375916997" lon="10.852865934714067"><ele>22.0</ele><time>2026-04-06T08:58:11Z</time></trkpt><trkpt lat="43.70327546917735" lon="10.852571141488871"><ele>22.0</ele><time>2026-04-06T08:58:12Z</time></trkpt><trkpt lat="43.70323674661569" lon="10.852273216623978"><ele>22.0</ele><time>2026-04-06T08:58:13Z</time></trkpt><trkpt lat="43.70320065109797" lon="10.851972470369939"><ele>22.0</ele><time>2026-04-06T08:58:14Z</time></trkpt><trkpt lat="43.70316183072642" lon="10.85167096843537"><ele>22.333333333333332</ele><time>2026-04-06T08:58:15Z</time></trkpt><trkpt lat="43.70312443297751" lon="10.85137688918574"><ele>22.666666666666668</ele><time>2026-04-06T08:58:16Z</time></trkpt><trkpt lat="43.70308833783555" lon="10.85107230534199"><ele>23.0</ele><time>2026-04-06T08:58:17Z</time></trkpt><trkpt lat="43.70305003368967" lon="10.85076586954859"><ele>22.666666666666668</ele><time>2026-04-06T08:58:18Z</time></trkpt><trkpt lat="43.70301059756747" lon="10.850469972156686"><ele>22.333333333333332</ele><time>2026-04-06T08:58:19Z</time></trkpt><trkpt lat="43.70297349928264" lon="10.850177379396927"><ele>22.0</ele><time>2026-04-06T08:58:20Z</time></trkpt><trkpt lat="43.70293630830837" lon="10.849888427298263"><ele>22.0</ele><time>2026-04-06T08:58:21Z</time></trkpt><trkpt lat="43.70289970404502" lon="10.849598887753132"><ele>22.0</ele><time>2026-04-06T08:58:22Z</time></trkpt><trkpt lat="43.70286501149946" lon="10.849313847622131"><ele>22.0</ele><time>2026-04-06T08:58:23Z</time></trkpt><trkpt lat="43.70283011995692" lon="10.849030748189163"><ele>22.0</ele><time>2026-04-06T08:58:24Z</time></trkpt><trkpt lat="43.70279304734108" lon="10.84874842599727"><ele>22.0</ele><time>2026-04-06T08:58:25Z</time></trkpt><trkpt lat="43.702757214880606" lon="10.848466890726964"><ele>22.0</ele><time>2026-04-06T08:58:26Z</time></trkpt><trkpt lat="43.702721204148474" lon="10.84818302570903"><ele>22.333333333333332</ele><time>2026-04-06T08:58:27Z</time></trkpt><trkpt lat="43.702686062722044" lon="10.847895003622614"><ele>22.666666666666668</ele><time>2026-04-06T08:58:28Z</time></trkpt><trkpt lat="43.70264890298707" lon="10.847608746001876"><ele>23.0</ele><time>2026-04-06T08:58:29Z</time></trkpt><trkpt lat="43.70260934645436" lon="10.847326743075932"><ele>23.0</ele><time>2026-04-06T08:58:30Z</time></trkpt><trkpt lat="43.70257343139142" lon="10.84703882344531"><ele>23.0</ele><time>2026-04-06T08:58:31Z</time></trkpt><trkpt lat="43.70253641888385" lon="10.846748998234824"><ele>23.0</ele><time>2026-04-06T08:58:32Z</time></trkpt><trkpt lat="43.70250175075851" lon="10.846455914529571"><ele>22.666666666666668</ele><time>2026-04-06T08:58:33Z</time></trkpt><trkpt lat="43.7024665159138" lon="10.846161989397103"><ele>22.333333333333332</ele><time>2026-04-06T08:58:34Z</time></trkpt><trkpt lat="43.70242912250014" lon="10.845877349128962"><ele>22.0</ele><time>2026-04-06T08:58:35Z</time></trkpt><trkpt lat="43.70239134706511" lon="10.845584703749594"><ele>22.0</ele><time>2026-04-06T08:58:36Z</time></trkpt><trkpt lat="43.70235395377758" lon="10.845299242957191"><ele>22.0</ele><time>2026-04-06T08:58:37Z</time></trkpt><trkpt lat="43.70231630470274" lon="10.845012680151616"><ele>22.0</ele><time>2026-04-06T08:58:38Z</time></trkpt><trkpt lat="43.702274744774655" lon="10.844739514944697"><ele>22.0</ele><time>2026-04-06T08:58:39Z</time></trkpt><trkpt lat="43.70223157861195" lon="10.844470257720905"><ele>22.0</ele><time>2026-04-06T08:58:40Z</time></trkpt><trkpt lat="43.7021859110366" lon="10.844195196200705"><ele>22.0</ele><time>2026-04-06T08:58:41Z</time></trkpt><trkpt lat="43.70213127525703" lon="10.843928318630784"><ele>21.666666666666664</ele><time>2026-04-06T08:58:42Z</time></trkpt><trkpt lat="43.70207045424566" lon="10.843666300243163"><ele>21.333333333333332</ele><time>2026-04-06T08:58:43Z</time></trkpt><trkpt lat="43.70200423116311" lon="10.843391973533363"><ele>21.0</ele><time>2026-04-06T08:58:44Z</time></trkpt><trkpt lat="43.70192557144143" lon="10.843119748168277"><ele>21.0</ele><time>2026-04-06T08:58:45Z</time></trkpt><trkpt lat="43.70183482784615" lon="10.842844878105305"><ele>21.0</ele><time>2026-04-06T08:58:46Z</time></trkpt><trkpt lat="43.70173493538165" lon="10.842571088704199"><ele>21.0</ele><time>2026-04-06T08:58:47Z</time></trkpt><trkpt lat="43.70162927004469" lon="10.842295700963374"><ele>21.5</ele><time>2026-04-06T08:58:48Z</time></trkpt><trkpt lat="43.701521437767646" lon="10.842014322870575"><ele>22.0</ele><time>2026-04-06T08:58:49Z</time></trkpt><trkpt lat="43.70141087753631" lon="10.841735494006153"><ele>22.0</ele><time>2026-04-06T08:58:50Z</time></trkpt><trkpt lat="43.701288001870985" lon="10.841464282072431"><ele>22.0</ele><time>2026-04-06T08:58:51Z</time></trkpt><trkpt lat="43.70116014302511" lon="10.841191611764897"><ele>21.5</ele><time>2026-04-06T08:58:52Z</time></trkpt><trkpt lat="43.70102863180148" lon="10.840915067511942"><ele>21.0</ele><time>2026-04-06T08:58:52.999Z</time></trkpt><trkpt lat="43.70090056014015" lon="10.84064965330709"><ele>21.0</ele><time>2026-04-06T08:58:53.999Z</time></trkpt><trkpt lat="43.70076910988096" lon="10.840382067357442"><ele>21.0</ele><time>2026-04-06T08:58:54.999Z</time></trkpt><trkpt lat="43.70064025054678" lon="10.84011914684819"><ele>20.5</ele><time>2026-04-06T08:58:55.999Z</time></trkpt><trkpt lat="43.70050609801417" lon="10.83984665643779"><ele>20.0</ele><time>2026-04-06T08:58:56.999Z</time></trkpt><trkpt lat="43.70038241390993" lon="10.839587556002202"><ele>20.0</ele><time>2026-04-06T08:58:57.999Z</time></trkpt><trkpt lat="43.700265723666526" lon="10.839330178860937"><ele>20.0</ele><time>2026-04-06T08:58:58.999Z</time></trkpt><trkpt lat="43.700144121319184" lon="10.839067140189124"><ele>20.0</ele><time>2026-04-06T08:58:59.999Z</time></trkpt><trkpt lat="43.70003142561279" lon="10.838830492506109"><ele>20.666666666666668</ele><time>2026-04-06T08:59:00.999Z</time></trkpt><trkpt lat="43.69991293298555" lon="10.838586357290414"><ele>21.333333333333332</ele><time>2026-04-06T08:59:01.999Z</time></trkpt><trkpt lat="43.69980101701837" lon="10.838365185862115"><ele>22.0</ele><time>2026-04-06T08:59:02.999Z</time></trkpt><trkpt lat="43.699694282343074" lon="10.838151365821828"><ele>22.0</ele><time>2026-04-06T08:59:03.999Z</time></trkpt><trkpt lat="43.69958762594506" lon="10.83793751545507"><ele>22.0</ele><time>2026-04-06T08:59:04.999Z</time></trkpt><trkpt lat="43.699480180140995" lon="10.837722205920365"><ele>22.0</ele><time>2026-04-06T08:59:05.999Z</time></trkpt><trkpt lat="43.69937377260278" lon="10.83751013407456"><ele>21.333333333333332</ele><time>2026-04-06T08:59:06.999Z</time></trkpt><trkpt lat="43.69926644713849" lon="10.837297287699343"><ele>20.666666666666668</ele><time>2026-04-06T08:59:07.999Z</time></trkpt><trkpt lat="43.6991592883705" lon="10.837082420375559"><ele>20.0</ele><time>2026-04-06T08:59:08.999Z</time></trkpt><trkpt lat="43.69905166669628" lon="10.836865094163237"><ele>20.666666666666668</ele><time>2026-04-06T08:59:09.999Z</time></trkpt><trkpt lat="43.69894683560323" lon="10.836652433220076"><ele>21.333333333333332</ele><time>2026-04-06T08:59:10.999Z</time></trkpt><trkpt lat="43.69884002378757" lon="10.83643334350838"><ele>22.0</ele><time>2026-04-06T08:59:11.999Z</time></trkpt><trkpt lat="43.69873296974692" lon="10.836217176443807"><ele>22.0</ele><time>2026-04-06T08:59:12.999Z</time></trkpt><trkpt lat="43.69862491587817" lon="10.835997762166997"><ele>22.0</ele><time>2026-04-06T08:59:13.999Z</time></trkpt><trkpt lat="43.69851584771427" lon="10.83577676067146"><ele>22.0</ele><time>2026-04-06T08:59:14.999Z</time></trkpt><trkpt lat="43.698408685064045" lon="10.835566689869392"><ele>22.0</ele><time>2026-04-06T08:59:15.999Z</time></trkpt><trkpt lat="43.698305618605595" lon="10.835362119823234"><ele>22.0</ele><time>2026-04-06T08:59:16.999Z</time></trkpt><trkpt lat="43.69819430438575" lon="10.83513595828812"><ele>22.0</ele><time>2026-04-06T08:59:17.999Z</time></trkpt><trkpt lat="43.698085457185655" lon="10.834912136841163"><ele>22.666666666666664</ele><time>2026-04-06T08:59:18.999Z</time></trkpt><trkpt lat="43.69797778234089" lon="10.834686010051312"><ele>23.333333333333332</ele><time>2026-04-06T08:59:19.999Z</time></trkpt><trkpt lat="43.69786945534369" lon="10.834463642993555"><ele>24.0</ele><time>2026-04-06T08:59:20.999Z</time></trkpt><trkpt lat="43.69776056225019" lon="10.834234886402166"><ele>23.666666666666668</ele><time>2026-04-06T08:59:21.999Z</time></trkpt><trkpt lat="43.69765456413878" lon="10.8340035022046"><ele>23.333333333333336</ele><time>2026-04-06T08:59:22.999Z</time></trkpt><trkpt lat="43.697548562365036" lon="10.83376453020161"><ele>23.0</ele><time>2026-04-06T08:59:23.999Z</time></trkpt><trkpt lat="43.697443900180915" lon="10.83351684180713"><ele>23.0</ele><time>2026-04-06T08:59:24.999Z</time></trkpt><trkpt lat="43.69734928782326" lon="10.83326192975746"><ele>23.0</ele><time>2026-04-06T08:59:25.999Z</time></trkpt><trkpt lat="43.69725961959552" lon="10.833012004836782"><ele>23.0</ele><time>2026-04-06T08:59:26.999Z</time></trkpt><trkpt lat="43.6971787041124" lon="10.832747683387037"><ele>23.0</ele><time>2026-04-06T08:59:27.999Z</time></trkpt><trkpt lat="43.697104332050415" lon="10.832483719585438"><ele>23.0</ele><time>2026-04-06T08:59:28.999Z</time></trkpt><trkpt lat="43.6970359302063" lon="10.832219347864726"><ele>23.0</ele><time>2026-04-06T08:59:29.999Z</time></trkpt><trkpt lat="43.69697414806242" lon="10.83195287563645"><ele>22.333333333333336</ele><time>2026-04-06T08:59:30.999Z</time></trkpt><trkpt lat="43.69691391825797" lon="10.83167677715647"><ele>21.666666666666668</ele><time>2026-04-06T08:59:31.999Z</time></trkpt><trkpt lat="43.69686529535625" lon="10.831408299106416"><ele>21.0</ele><time>2026-04-06T08:59:32.999Z</time></trkpt><trkpt lat="43.696819286262695" lon="10.831133010013927"><ele>21.0</ele><time>2026-04-06T08:59:33.999Z</time></trkpt><trkpt lat="43.696780543599196" lon="10.830857789088686"><ele>21.0</ele><time>2026-04-06T08:59:34.999Z</time></trkpt><trkpt lat="43.696751849226935" lon="10.830580554970267"><ele>21.0</ele><time>2026-04-06T08:59:35.999Z</time></trkpt><trkpt lat="43.69673405520435" lon="10.830296860566943"><ele>21.333333333333332</ele><time>2026-04-06T08:59:37Z</time></trkpt><trkpt lat="43.69672220831573" lon="10.83000820721964"><ele>21.666666666666664</ele><time>2026-04-06T08:59:38Z</time></trkpt><trkpt lat="43.69671551230087" lon="10.82972150158671"><ele>22.0</ele><time>2026-04-06T08:59:39Z</time></trkpt><trkpt lat="43.696710442930566" lon="10.82943107969729"><ele>22.333333333333332</ele><time>2026-04-06T08:59:40Z</time></trkpt><trkpt lat="43.69670779530505" lon="10.829139053962399"><ele>22.666666666666668</ele><time>2026-04-06T08:59:41Z</time></trkpt><trkpt lat="43.69671324301695" lon="10.828845421217128"><ele>23.0</ele><time>2026-04-06T08:59:42Z</time></trkpt><trkpt lat="43.69672619731876" lon="10.828546414091493"><ele>23.0</ele><time>2026-04-06T08:59:43Z</time></trkpt><trkpt lat="43.696753020407954" lon="10.828255343764681"><ele>23.0</ele><time>2026-04-06T08:59:44Z</time></trkpt><trkpt lat="43.69678878783735" lon="10.82795978642029"><ele>23.0</ele><time>2026-04-06T08:59:45Z</time></trkpt><trkpt lat="43.69683289098437" lon="10.827671441340739"><ele>22.666666666666668</ele><time>2026-04-06T08:59:46Z</time></trkpt><trkpt lat="43.696879019209725" lon="10.82738302311059"><ele>22.333333333333332</ele><time>2026-04-06T08:59:47Z</time></trkpt><trkpt lat="43.69692875638993" lon="10.827094110998466"><ele>22.0</ele><time>2026-04-06T08:59:48Z</time></trkpt><trkpt lat="43.69697916645016" lon="10.826808255172088"><ele>21.666666666666664</ele><time>2026-04-06T08:59:49Z</time></trkpt><trkpt lat="43.69703507502279" lon="10.826517675951058"><ele>21.333333333333332</ele><time>2026-04-06T08:59:50Z</time></trkpt><trkpt lat="43.69708964458637" lon="10.826244800105082"><ele>21.0</ele><time>2026-04-06T08:59:51Z</time></trkpt><trkpt lat="43.69715074631176" lon="10.825948943255048"><ele>20.666666666666668</ele><time>2026-04-06T08:59:52Z</time></trkpt><trkpt lat="43.69720555677194" lon="10.825668798203932"><ele>20.333333333333336</ele><time>2026-04-06T08:59:53Z</time></trkpt><trkpt lat="43.69726270475387" lon="10.82538478769409"><ele>20.0</ele><time>2026-04-06T08:59:54Z</time></trkpt><trkpt lat="43.69731819439492" lon="10.825101804848451"><ele>19.666666666666668</ele><time>2026-04-06T08:59:55Z</time></trkpt><trkpt lat="43.69737368254948" lon="10.824822584223504"><ele>19.333333333333332</ele><time>2026-04-06T08:59:56Z</time></trkpt><trkpt lat="43.697429228094585" lon="10.82454014307668"><ele>19.0</ele><time>2026-04-06T08:59:57Z</time></trkpt><trkpt lat="43.69748246988679" lon="10.824264267414188"><ele>19.0</ele><time>2026-04-06T08:59:58Z</time></trkpt><trkpt lat="43.69753354092577" lon="10.82399543992504"><ele>19.0</ele><time>2026-04-06T08:59:59Z</time></trkpt><trkpt lat="43.69758512154836" lon="10.82372975230768"><ele>19.0</ele><time>2026-04-06T09:00:00Z</time></trkpt><trkpt lat="43.69763680830033" lon="10.82346514435259"><ele>19.0</ele><time>2026-04-06T09:00:01Z</time></trkpt><trkpt lat="43.69768746911112" lon="10.82320130673741"><ele>19.0</ele><time>2026-04-06T09:00:02Z</time></trkpt><trkpt lat="43.69773775742664" lon="10.822942888759721"><ele>19.0</ele><time>2026-04-06T09:00:03Z</time></trkpt><trkpt lat="43.69778973299144" lon="10.82267942550874"><ele>19.333333333333332</ele><time>2026-04-06T09:00:04Z</time></trkpt><trkpt lat="43.69783811537796" lon="10.82242382433664"><ele>19.666666666666668</ele><time>2026-04-06T09:00:05Z</time></trkpt><trkpt lat="43.697885609991786" lon="10.822176193013606"><ele>20.0</ele><time>2026-04-06T09:00:06Z</time></trkpt><trkpt lat="43.69793226124723" lon="10.821939511167217"><ele>20.0</ele><time>2026-04-06T09:00:07Z</time></trkpt><trkpt lat="43.69797678777633" lon="10.821716035250384"><ele>20.0</ele><time>2026-04-06T09:00:08Z</time></trkpt><trkpt lat="43.69801874056849" lon="10.821504966543587"><ele>20.0</ele><time>2026-04-06T09:00:09Z</time></trkpt><trkpt lat="43.69805836794209" lon="10.821302078292387"><ele>20.0</ele><time>2026-04-06T09:00:10Z</time></trkpt><trkpt lat="43.69809577868593" lon="10.821109583788"><ele>20.0</ele><time>2026-04-06T09:00:11Z</time></trkpt><trkpt lat="43.69813163122925" lon="10.82092366897151"><ele>20.0</ele><time>2026-04-06T09:00:12Z</time></trkpt><trkpt lat="43.69816722821558" lon="10.820745178620015"><ele>20.0</ele><time>2026-04-06T09:00:13Z</time></trkpt><trkpt lat="43.698203429666016" lon="10.820564633351593"><ele>20.0</ele><time>2026-04-06T09:00:14Z</time></trkpt><trkpt lat="43.698236093461716" lon="10.820394503441019"><ele>20.0</ele><time>2026-04-06T09:00:15Z</time></trkpt><trkpt lat="43.698269700208236" lon="10.820222649660613"><ele>20.0</ele><time>2026-04-06T09:00:16Z</time></trkpt><trkpt lat="43.69830203805206" lon="10.820053048260975"><ele>20.0</ele><time>2026-04-06T09:00:17Z</time></trkpt><trkpt lat="43.698333199402946" lon="10.819886362673346"><ele>20.0</ele><time>2026-04-06T09:00:18Z</time></trkpt><trkpt lat="43.69836500360954" lon="10.819722244127448"><ele>20.0</ele><time>2026-04-06T09:00:19Z</time></trkpt><trkpt lat="43.69839634351769" lon="10.819561744450176"><ele>20.0</ele><time>2026-04-06T09:00:20Z</time></trkpt><trkpt lat="43.698428382698054" lon="10.819405401843172"><ele>20.0</ele><time>2026-04-06T09:00:21Z</time></trkpt><trkpt lat="43.69845553858521" lon="10.819265198645338"><ele>20.0</ele><time>2026-04-06T09:00:22Z</time></trkpt><trkpt lat="43.69847458078676" lon="10.819152004298374"><ele>20.0</ele><time>2026-04-06T09:00:23Z</time></trkpt><trkpt lat="43.69849302866369" lon="10.819040378824575"><ele>20.0</ele><time>2026-04-06T09:00:24Z</time></trkpt><trkpt lat="43.6985113851707" lon="10.818931575865243"><ele>20.0</ele><time>2026-04-06T09:00:25Z</time></trkpt><trkpt lat="43.69852867837152" lon="10.81882696304642"><ele>20.0</ele><time>2026-04-06T09:00:26Z</time></trkpt><trkpt lat="43.69854242073188" lon="10.818726815727128"><ele>20.0</ele><time>2026-04-06T09:00:27Z</time></trkpt><trkpt lat="43.69855488469913" lon="10.818638164853331"><ele>20.166666666666668</ele><time>2026-04-06T09:00:28Z</time></trkpt><trkpt lat="43.69858085984216" lon="10.818466321557791"><ele>20.333333333333336</ele><time>2026-04-06T09:00:30Z</time></trkpt><trkpt lat="43.69859438724933" lon="10.818379858775227"><ele>20.5</ele><time>2026-04-06T09:00:31Z</time></trkpt><trkpt lat="43.698606897013114" lon="10.818290106651279"><ele>20.666666666666668</ele><time>2026-04-06T09:00:32Z</time></trkpt><trkpt lat="43.69861937075496" lon="10.81819890882216"><ele>20.833333333333332</ele><time>2026-04-06T09:00:33Z</time></trkpt><trkpt lat="43.69863012805702" lon="10.818108061682981"><ele>21.0</ele><time>2026-04-06T09:00:34Z</time></trkpt><trkpt lat="43.69864335828421" lon="10.818021371373197"><ele>21.0</ele><time>2026-04-06T09:00:35Z</time></trkpt><trkpt lat="43.69865543735925" lon="10.81793207708325"><ele>21.0</ele><time>2026-04-06T09:00:36Z</time></trkpt><trkpt lat="43.69866618864028" lon="10.817843507791007"><ele>21.0</ele><time>2026-04-06T09:00:37Z</time></trkpt><trkpt lat="43.69867649964392" lon="10.81775426131522"><ele>21.0</ele><time>2026-04-06T09:00:38Z</time></trkpt><trkpt lat="43.6986852245088" lon="10.817667350042367"><ele>21.0</ele><time>2026-04-06T09:00:39Z</time></trkpt><trkpt lat="43.69869427222509" lon="10.817577541901414"><ele>21.0</ele><time>2026-04-06T09:00:40Z</time></trkpt><trkpt lat="43.69870292600156" lon="10.817487978066596"><ele>21.0</ele><time>2026-04-06T09:00:41Z</time></trkpt><trkpt lat="43.698711731894704" lon="10.817399869888852"><ele>21.166666666666668</ele><time>2026-04-06T09:00:42Z</time></trkpt><trkpt lat="43.69872184192415" lon="10.817312953916069"><ele>21.333333333333332</ele><time>2026-04-06T09:00:43Z</time></trkpt><trkpt lat="43.69873250374524" lon="10.817226855693155"><ele>21.5</ele><time>2026-04-06T09:00:44Z</time></trkpt><trkpt lat="43.698741567862214" lon="10.81714055550498"><ele>21.666666666666664</ele><time>2026-04-06T09:00:45Z</time></trkpt><trkpt lat="43.69875748118543" lon="10.816969104596398"><ele>21.833333333333332</ele><time>2026-04-06T09:00:47Z</time></trkpt><trkpt lat="43.69877071337016" lon="10.8167976828403"><ele>22.0</ele><time>2026-04-06T09:00:49Z</time></trkpt><trkpt lat="43.69878668689791" lon="10.816633637062703"><ele>22.0</ele><time>2026-04-06T09:00:51Z</time></trkpt><trkpt lat="43.69879607709791" lon="10.816489606603074"><ele>22.0</ele><time>2026-04-06T09:00:53Z</time></trkpt><trkpt lat="43.698801982898395" lon="10.81637677662535"><ele>22.0</ele><time>2026-04-06T09:00:55Z</time></trkpt><trkpt lat="43.69880658876014" lon="10.816273158326075"><ele>22.0</ele><time>2026-04-06T09:00:57Z</time></trkpt><trkpt lat="43.69881291191174" lon="10.8161653235885"><ele>22.0</ele><time>2026-04-06T09:00:59Z</time></trkpt><trkpt lat="43.69882126243283" lon="10.816036131127428"><ele>22.0</ele><time>2026-04-06T09:01:01Z</time></trkpt><trkpt lat="43.698826886400006" lon="10.815904949434042"><ele>21.833333333333332</ele><time>2026-04-06T09:01:03Z</time></trkpt><trkpt lat="43.69883266874235" lon="10.815784692379463"><ele>21.666666666666664</ele><time>2026-04-06T09:01:05Z</time></trkpt><trkpt lat="43.69883374954136" lon="10.815666884852211"><ele>21.5</ele><time>2026-04-06T09:01:08Z</time></trkpt><trkpt lat="43.698837823122155" lon="10.815549049928386"><ele>21.333333333333332</ele><time>2026-04-06T09:01:11Z</time></trkpt><trkpt lat="43.69884416411876" lon="10.815450110984306"><ele>21.166666666666668</ele><time>2026-04-06T09:01:13Z</time></trkpt><trkpt lat="43.698853114920766" lon="10.815342462720205"><ele>21.0</ele><time>2026-04-06T09:01:15Z</time></trkpt><trkpt lat="43.698854634485954" lon="10.815228024783988"><ele>20.8</ele><time>2026-04-06T09:01:16.999Z</time></trkpt><trkpt lat="43.69885491620558" lon="10.815107595839368"><ele>20.6</ele><time>2026-04-06T09:01:18.999Z</time></trkpt><trkpt lat="43.69885536576154" lon="10.814976568627621"><ele>20.4</ele><time>2026-04-06T09:01:20.999Z</time></trkpt><trkpt lat="43.69885578029088" lon="10.814839026227459"><ele>20.2</ele><time>2026-04-06T09:01:22.999Z</time></trkpt><trkpt lat="43.698854285298864" lon="10.814687659242466"><ele>20.0</ele><time>2026-04-06T09:01:24.999Z</time></trkpt><trkpt lat="43.69884947642731" lon="10.814515466811322"><ele>20.0</ele><time>2026-04-06T09:01:26.999Z</time></trkpt><trkpt lat="43.69884874873168" lon="10.814424051133003"><ele>20.0</ele><time>2026-04-06T09:01:27.999Z</time></trkpt><trkpt lat="43.69884807768101" lon="10.814333362314663"><ele>20.0</ele><time>2026-04-06T09:01:28.999Z</time></trkpt><trkpt lat="43.698847733759" lon="10.814240889252112"><ele>20.0</ele><time>2026-04-06T09:01:29.999Z</time></trkpt><trkpt lat="43.69884699444099" lon="10.814147205674391"><ele>20.0</ele><time>2026-04-06T09:01:30.999Z</time></trkpt><trkpt lat="43.69884520741532" lon="10.814045905975629"><ele>20.0</ele><time>2026-04-06T09:01:31.999Z</time></trkpt><trkpt lat="43.69884086339281" lon="10.813936744183694"><ele>20.0</ele><time>2026-04-06T09:01:32.999Z</time></trkpt><trkpt lat="43.69883548429944" lon="10.813823914040372"><ele>20.0</ele><time>2026-04-06T09:01:33.999Z</time></trkpt><trkpt lat="43.69883189614608" lon="10.813707842993898"><ele>20.0</ele><time>2026-04-06T09:01:34.999Z</time></trkpt><trkpt lat="43.69882670484176" lon="10.813587669533568"><ele>20.0</ele><time>2026-04-06T09:01:35.999Z</time></trkpt><trkpt lat="43.698821503057935" lon="10.813464862293158"><ele>20.0</ele><time>2026-04-06T09:01:36.999Z</time></trkpt><trkpt lat="43.698814720435614" lon="10.813337977628239"><ele>20.0</ele><time>2026-04-06T09:01:37.999Z</time></trkpt><trkpt lat="43.698807709162836" lon="10.813220232031721"><ele>20.0</ele><time>2026-04-06T09:01:38.999Z</time></trkpt><trkpt lat="43.698799666038894" lon="10.813110733009793"><ele>20.142857142857142</ele><time>2026-04-06T09:01:39.999Z</time></trkpt><trkpt lat="43.69879010880848" lon="10.813006297645044"><ele>20.285714285714285</ele><time>2026-04-06T09:01:40.999Z</time></trkpt><trkpt lat="43.69878059217974" lon="10.812903219004127"><ele>20.42857142857143</ele><time>2026-04-06T09:01:42Z</time></trkpt><trkpt lat="43.69877376810492" lon="10.812800925296862"><ele>20.57142857142857</ele><time>2026-04-06T09:01:43Z</time></trkpt><trkpt lat="43.69876582999407" lon="10.812701927079727"><ele>20.714285714285715</ele><time>2026-04-06T09:01:44Z</time></trkpt><trkpt lat="43.69875573978605" lon="10.812605715126628"><ele>20.857142857142858</ele><time>2026-04-06T09:01:45Z</time></trkpt><trkpt lat="43.69874783638373" lon="10.812511820275821"><ele>21.0</ele><time>2026-04-06T09:01:46Z</time></trkpt><trkpt lat="43.69874111151525" lon="10.812419264808568"><ele>21.142857142857142</ele><time>2026-04-06T09:01:47Z</time></trkpt><trkpt lat="43.69873356827145" lon="10.812322249465357"><ele>21.285714285714285</ele><time>2026-04-06T09:01:48Z</time></trkpt><trkpt lat="43.6987265947664" lon="10.812217621834089"><ele>21.42857142857143</ele><time>2026-04-06T09:01:49Z</time></trkpt><trkpt lat="43.69871867725023" lon="10.812119469207094"><ele>21.57142857142857</ele><time>2026-04-06T09:01:50Z</time></trkpt><trkpt lat="43.69870902676072" lon="10.81202136725715"><ele>21.714285714285715</ele><time>2026-04-06T09:01:51Z</time></trkpt><trkpt lat="43.698699762413355" lon="10.811928844329916"><ele>21.857142857142858</ele><time>2026-04-06T09:01:52Z</time></trkpt><trkpt lat="43.69868979963863" lon="10.811842373623396"><ele>22.0</ele><time>2026-04-06T09:01:53Z</time></trkpt><trkpt lat="43.69867310246675" lon="10.811719039581472"><ele>22.0</ele><time>2026-04-06T09:01:55Z</time></trkpt><trkpt lat="43.69865825574162" lon="10.811631439972674"><ele>22.0</ele><time>2026-04-06T09:02:24Z</time></trkpt><trkpt lat="43.698645524242735" lon="10.811504886988535"><ele>22.0</ele><time>2026-04-06T09:02:27Z</time></trkpt><trkpt lat="43.698632269519344" lon="10.811393778840024"><ele>22.0</ele><time>2026-04-06T09:02:30Z</time></trkpt><trkpt lat="43.69862087619678" lon="10.811297521368447"><ele>22.0</ele><time>2026-04-06T09:02:32Z</time></trkpt><trkpt lat="43.69860577928865" lon="10.811186879231759"><ele>22.0</ele><time>2026-04-06T09:02:34Z</time></trkpt><trkpt lat="43.69859266573486" lon="10.811067152321339"><ele>22.400000000000002</ele><time>2026-04-06T09:02:36Z</time></trkpt><trkpt lat="43.69858091517117" lon="10.81094821110052"><ele>22.8</ele><time>2026-04-06T09:02:38Z</time></trkpt><trkpt lat="43.698567130222365" lon="10.810826868901893"><ele>23.2</ele><time>2026-04-06T09:02:40Z</time></trkpt><trkpt lat="43.69855380610745" lon="10.810706152313337"><ele>23.6</ele><time>2026-04-06T09:02:42Z</time></trkpt><trkpt lat="43.6985402283112" lon="10.810578116493458"><ele>24.0</ele><time>2026-04-06T09:02:44Z</time></trkpt><trkpt lat="43.69852353640232" lon="10.810444899641276"><ele>24.0</ele><time>2026-04-06T09:02:46Z</time></trkpt><trkpt lat="43.69850877582075" lon="10.810316441623245"><ele>24.0</ele><time>2026-04-06T09:02:48Z</time></trkpt><trkpt lat="43.69849612626461" lon="10.810223752115986"><ele>24.0</ele><time>2026-04-06T09:02:50Z</time></trkpt><trkpt lat="43.69848324875128" lon="10.810116591005972"><ele>24.0</ele><time>2026-04-06T09:02:53Z</time></trkpt><trkpt lat="43.69846740558158" lon="10.810014271917096"><ele>24.0</ele><time>2026-04-06T09:02:56Z</time></trkpt><trkpt lat="43.69845558192179" lon="10.809905700184391"><ele>24.0</ele><time>2026-04-06T09:02:59Z</time></trkpt><trkpt lat="43.6984400099454" lon="10.809797697943859"><ele>23.799999999999997</ele><time>2026-04-06T09:03:10Z</time></trkpt><trkpt lat="43.69842350296691" lon="10.809673951809597"><ele>23.599999999999998</ele><time>2026-04-06T09:03:12Z</time></trkpt><trkpt lat="43.698407856992226" lon="10.809533049568525"><ele>23.4</ele><time>2026-04-06T09:03:14Z</time></trkpt><trkpt lat="43.69838956226945" lon="10.809372288123486"><ele>23.2</ele><time>2026-04-06T09:03:16Z</time></trkpt><trkpt lat="43.69837811840575" lon="10.809286587185444"><ele>23.0</ele><time>2026-04-06T09:03:17Z</time></trkpt><trkpt lat="43.69835515598343" lon="10.80911696788046"><ele>22.857142857142858</ele><time>2026-04-06T09:03:19Z</time></trkpt><trkpt lat="43.698344053477015" lon="10.809025095279413"><ele>22.71428571428571</ele><time>2026-04-06T09:03:20Z</time></trkpt><trkpt lat="43.698334624551" lon="10.80892734929838"><ele>22.57142857142857</ele><time>2026-04-06T09:03:21Z</time></trkpt><trkpt lat="43.69832486256951" lon="10.808830038276847"><ele>22.42857142857143</ele><time>2026-04-06T09:03:22Z</time></trkpt><trkpt lat="43.69831433399612" lon="10.808735495080905"><ele>22.285714285714285</ele><time>2026-04-06T09:03:23Z</time></trkpt><trkpt lat="43.69830214605287" lon="10.80863499756612"><ele>22.142857142857142</ele><time>2026-04-06T09:03:24Z</time></trkpt><trkpt lat="43.69828894574155" lon="10.80853162498961"><ele>22.0</ele><time>2026-04-06T09:03:25Z</time></trkpt><trkpt lat="43.69827581440072" lon="10.808426804636989"><ele>21.833333333333332</ele><time>2026-04-06T09:03:26Z</time></trkpt><trkpt lat="43.69826220828032" lon="10.80831726424565"><ele>21.666666666666664</ele><time>2026-04-06T09:03:27Z</time></trkpt><trkpt lat="43.698248458025326" lon="10.808208064617194"><ele>21.5</ele><time>2026-04-06T09:03:28Z</time></trkpt><trkpt lat="43.698234845492244" lon="10.80810087114823"><ele>21.333333333333332</ele><time>2026-04-06T09:03:29Z</time></trkpt><trkpt lat="43.69821965043822" lon="10.807988945076074"><ele>21.166666666666668</ele><time>2026-04-06T09:03:29.999Z</time></trkpt><trkpt lat="43.6982065158531" lon="10.807881815649555"><ele>21.0</ele><time>2026-04-06T09:03:30.999Z</time></trkpt><trkpt lat="43.69819352668554" lon="10.807775068495335"><ele>21.0</ele><time>2026-04-06T09:03:31.999Z</time></trkpt><trkpt lat="43.6981818379115" lon="10.807672899730527"><ele>21.0</ele><time>2026-04-06T09:03:32.999Z</time></trkpt><trkpt lat="43.69817032047587" lon="10.807571273788744"><ele>21.0</ele><time>2026-04-06T09:03:33.999Z</time></trkpt><trkpt lat="43.69815939111822" lon="10.807473213441726"><ele>21.0</ele><time>2026-04-06T09:03:34.999Z</time></trkpt><trkpt lat="43.69814890673666" lon="10.807376915193615"><ele>21.0</ele><time>2026-04-06T09:03:35.999Z</time></trkpt><trkpt lat="43.698137936175186" lon="10.807280506119545"><ele>21.0</ele><time>2026-04-06T09:03:36.999Z</time></trkpt><trkpt lat="43.69812548860644" lon="10.807181263742955"><ele>21.0</ele><time>2026-04-06T09:03:37.999Z</time></trkpt><trkpt lat="43.69811251873477" lon="10.807081796788433"><ele>21.0</ele><time>2026-04-06T09:03:38.999Z</time></trkpt><trkpt lat="43.698098994943464" lon="10.806979602657442"><ele>21.0</ele><time>2026-04-06T09:03:39.999Z</time></trkpt><trkpt lat="43.69808456706418" lon="10.806873236125103"><ele>21.0</ele><time>2026-04-06T09:03:40.999Z</time></trkpt><trkpt lat="43.698069368030914" lon="10.806762631590066"><ele>21.0</ele><time>2026-04-06T09:03:41.999Z</time></trkpt><trkpt lat="43.69805433678241" lon="10.806650871714899"><ele>21.0</ele><time>2026-04-06T09:03:42.999Z</time></trkpt><trkpt lat="43.69804348613979" lon="10.806545494139248"><ele>21.0</ele><time>2026-04-06T09:04:03Z</time></trkpt><trkpt lat="43.69802943096185" lon="10.806401237111007"><ele>21.0</ele><time>2026-04-06T09:04:06Z</time></trkpt><trkpt lat="43.69801315787551" lon="10.806278403021352"><ele>21.0</ele><time>2026-04-06T09:04:08Z</time></trkpt><trkpt lat="43.697994636645234" lon="10.80613364475807"><ele>21.0</ele><time>2026-04-06T09:04:10Z</time></trkpt><trkpt lat="43.69797718421099" lon="10.8059808387648"><ele>21.0</ele><time>2026-04-06T09:04:12Z</time></trkpt><trkpt lat="43.697960117059765" lon="10.805827655606635"><ele>21.0</ele><time>2026-04-06T09:04:14Z</time></trkpt><trkpt lat="43.69794921643587" lon="10.805732155942184"><ele>21.0</ele><time>2026-04-06T09:04:15Z</time></trkpt><trkpt lat="43.697937499975914" lon="10.805623989757338"><ele>21.0</ele><time>2026-04-06T09:04:16Z</time></trkpt><trkpt lat="43.69792308782349" lon="10.805505636073628"><ele>21.0</ele><time>2026-04-06T09:04:17Z</time></trkpt><trkpt lat="43.69790983073452" lon="10.805380724600925"><ele>21.0</ele><time>2026-04-06T09:04:18Z</time></trkpt><trkpt lat="43.69789598065487" lon="10.805254919747354"><ele>21.0</ele><time>2026-04-06T09:04:19Z</time></trkpt><trkpt lat="43.69788054801528" lon="10.805133737787454"><ele>21.0</ele><time>2026-04-06T09:04:20Z</time></trkpt><trkpt lat="43.69786545265292" lon="10.805005055007115"><ele>21.0</ele><time>2026-04-06T09:04:21Z</time></trkpt><trkpt lat="43.69784628445121" lon="10.804859471670198"><ele>21.0</ele><time>2026-04-06T09:04:22Z</time></trkpt><trkpt lat="43.697826141855195" lon="10.804709395368521"><ele>21.0</ele><time>2026-04-06T09:04:23Z</time></trkpt><trkpt lat="43.69780719281127" lon="10.804547935404987"><ele>21.0</ele><time>2026-04-06T09:04:24Z</time></trkpt><trkpt lat="43.69778633117061" lon="10.804385983498081"><ele>21.0</ele><time>2026-04-06T09:04:25Z</time></trkpt><trkpt lat="43.697765639813035" lon="10.804215259880777"><ele>21.0</ele><time>2026-04-06T09:04:26Z</time></trkpt><trkpt lat="43.697746052593885" lon="10.804047420041078"><ele>21.0</ele><time>2026-04-06T09:04:27Z</time></trkpt><trkpt lat="43.69772511128458" lon="10.803871944621182"><ele>21.0</ele><time>2026-04-06T09:04:28Z</time></trkpt><trkpt lat="43.69770434647193" lon="10.803701297274165"><ele>21.0</ele><time>2026-04-06T09:04:29Z</time></trkpt><trkpt lat="43.697682525889384" lon="10.803525680155344"><ele>21.0</ele><time>2026-04-06T09:04:30Z</time></trkpt><trkpt lat="43.69766106006433" lon="10.803344640273197"><ele>21.0</ele><time>2026-04-06T09:04:31Z</time></trkpt><trkpt lat="43.697638590500866" lon="10.803157357852186"><ele>21.0</ele><time>2026-04-06T09:04:32Z</time></trkpt><trkpt lat="43.69761720745544" lon="10.802969342874299"><ele>21.0</ele><time>2026-04-06T09:04:33Z</time></trkpt><trkpt lat="43.69759486438503" lon="10.80278574782561"><ele>21.0</ele><time>2026-04-06T09:04:34Z</time></trkpt><trkpt lat="43.697570435428936" lon="10.802597872192734"><ele>21.0</ele><time>2026-04-06T09:04:35Z</time></trkpt><trkpt lat="43.697547001611106" lon="10.802403652684196"><ele>21.0</ele><time>2026-04-06T09:04:36Z</time></trkpt><trkpt lat="43.697523457714745" lon="10.802212173398706"><ele>21.25</ele><time>2026-04-06T09:04:37Z</time></trkpt><trkpt lat="43.697500052628854" lon="10.802026576301866"><ele>21.5</ele><time>2026-04-06T09:04:38Z</time></trkpt><trkpt lat="43.697478300546436" lon="10.801830239250085"><ele>21.75</ele><time>2026-04-06T09:04:39Z</time></trkpt><trkpt lat="43.6974544689699" lon="10.801640825467347"><ele>22.0</ele><time>2026-04-06T09:04:40Z</time></trkpt><trkpt lat="43.69743019588458" lon="10.801439570322719"><ele>22.25</ele><time>2026-04-06T09:04:41Z</time></trkpt><trkpt lat="43.69740800531329" lon="10.801244431085108"><ele>22.5</ele><time>2026-04-06T09:04:42Z</time></trkpt><trkpt lat="43.69738351232222" lon="10.801040680243062"><ele>22.75</ele><time>2026-04-06T09:04:43Z</time></trkpt><trkpt lat="43.69736066330564" lon="10.800845815766179"><ele>23.0</ele><time>2026-04-06T09:04:44Z</time></trkpt><trkpt lat="43.697332586846215" lon="10.800644033886687"><ele>23.0</ele><time>2026-04-06T09:04:45Z</time></trkpt><trkpt lat="43.69731293864686" lon="10.800440175315245"><ele>23.0</ele><time>2026-04-06T09:04:46Z</time></trkpt><trkpt lat="43.69728839573516" lon="10.80023975332388"><ele>23.0</ele><time>2026-04-06T09:04:47Z</time></trkpt><trkpt lat="43.697265058229284" lon="10.80004503608106"><ele>23.0</ele><time>2026-04-06T09:04:48Z</time></trkpt><trkpt lat="43.69724351518333" lon="10.799849030165163"><ele>22.5</ele><time>2026-04-06T09:04:49Z</time></trkpt><trkpt lat="43.69721921587477" lon="10.799651747381525"><ele>22.0</ele><time>2026-04-06T09:04:50Z</time></trkpt><trkpt lat="43.69719213861762" lon="10.799442007000886"><ele>21.5</ele><time>2026-04-06T09:04:51Z</time></trkpt><trkpt lat="43.697167711490636" lon="10.799242298835548"><ele>21.0</ele><time>2026-04-06T09:04:52Z</time></trkpt><trkpt lat="43.69714203030292" lon="10.799026070889997"><ele>21.0</ele><time>2026-04-06T09:04:53Z</time></trkpt><trkpt lat="43.69711579526868" lon="10.798801146096014"><ele>21.0</ele><time>2026-04-06T09:04:54Z</time></trkpt><trkpt lat="43.69709170503218" lon="10.798581906988609"><ele>21.0</ele><time>2026-04-06T09:04:55Z</time></trkpt><trkpt lat="43.69706346381895" lon="10.798342746879845"><ele>21.0</ele><time>2026-04-06T09:04:56Z</time></trkpt><trkpt lat="43.69703380868934" lon="10.798110197328242"><ele>21.0</ele><time>2026-04-06T09:04:57Z</time></trkpt><trkpt lat="43.69700245016091" lon="10.79785943704812"><ele>21.0</ele><time>2026-04-06T09:04:58Z</time></trkpt><trkpt lat="43.696973658935" lon="10.797610721839789"><ele>21.0</ele><time>2026-04-06T09:04:59Z</time></trkpt><trkpt lat="43.69694159565276" lon="10.797363803242023"><ele>21.0</ele><time>2026-04-06T09:05:00Z</time></trkpt><trkpt lat="43.69690941836721" lon="10.79711537624467"><ele>21.0</ele><time>2026-04-06T09:05:01Z</time></trkpt><trkpt lat="43.6968786863828" lon="10.796861471408741"><ele>21.333333333333332</ele><time>2026-04-06T09:05:02Z</time></trkpt><trkpt lat="43.69684837666661" lon="10.796605909374966"><ele>21.666666666666664</ele><time>2026-04-06T09:05:03Z</time></trkpt><trkpt lat="43.69681466693889" lon="10.796348709048404"><ele>22.0</ele><time>2026-04-06T09:05:04Z</time></trkpt><trkpt lat="43.69678320066512" lon="10.79608968270867"><ele>22.333333333333332</ele><time>2026-04-06T09:05:05Z</time></trkpt><trkpt lat="43.69674760576577" lon="10.795836321007629"><ele>22.666666666666668</ele><time>2026-04-06T09:05:06Z</time></trkpt><trkpt lat="43.696708717304276" lon="10.795580780484855"><ele>23.0</ele><time>2026-04-06T09:05:07Z</time></trkpt><trkpt lat="43.6966674588584" lon="10.795328688293408"><ele>22.333333333333336</ele><time>2026-04-06T09:05:08Z</time></trkpt><trkpt lat="43.69662209169264" lon="10.795075594232786"><ele>21.666666666666668</ele><time>2026-04-06T09:05:09Z</time></trkpt><trkpt lat="43.696570416814865" lon="10.794823940291135"><ele>21.0</ele><time>2026-04-06T09:05:10Z</time></trkpt><trkpt lat="43.696516194977754" lon="10.794574301271494"><ele>20.666666666666668</ele><time>2026-04-06T09:05:11Z</time></trkpt><trkpt lat="43.69645953639241" lon="10.794313588942652"><ele>20.333333333333336</ele><time>2026-04-06T09:05:12Z</time></trkpt><trkpt lat="43.69639863288715" lon="10.79405562865409"><ele>20.0</ele><time>2026-04-06T09:05:13Z</time></trkpt><trkpt lat="43.696330840907535" lon="10.793790664240147"><ele>20.0</ele><time>2026-04-06T09:05:14Z</time></trkpt><trkpt lat="43.69626110035378" lon="10.793532263042247"><ele>20.0</ele><time>2026-04-06T09:05:15Z</time></trkpt><trkpt lat="43.69618516900422" lon="10.79327263265872"><ele>20.0</ele><time>2026-04-06T09:05:16Z</time></trkpt><trkpt lat="43.696105294670524" lon="10.793018119155798"><ele>20.666666666666668</ele><time>2026-04-06T09:05:17Z</time></trkpt><trkpt lat="43.69601559499211" lon="10.792764109875703"><ele>21.333333333333332</ele><time>2026-04-06T09:05:18Z</time></trkpt><trkpt lat="43.69592239088626" lon="10.792517485517791"><ele>22.0</ele><time>2026-04-06T09:05:19Z</time></trkpt><trkpt lat="43.695823537186996" lon="10.792272616477764"><ele>22.0</ele><time>2026-04-06T09:05:20Z</time></trkpt><trkpt lat="43.695723521335005" lon="10.792028896277944"><ele>22.0</ele><time>2026-04-06T09:05:21Z</time></trkpt><trkpt lat="43.69561775851745" lon="10.791781368845099"><ele>22.0</ele><time>2026-04-06T09:05:22Z</time></trkpt><trkpt lat="43.69550843694854" lon="10.791537803223829"><ele>21.333333333333332</ele><time>2026-04-06T09:05:23Z</time></trkpt><trkpt lat="43.69539687142277" lon="10.79129705053988"><ele>20.666666666666668</ele><time>2026-04-06T09:05:24Z</time></trkpt><trkpt lat="43.695279909092434" lon="10.791058929852609"><ele>20.0</ele><time>2026-04-06T09:05:25Z</time></trkpt><trkpt lat="43.695160736085604" lon="10.790822605223255"><ele>20.0</ele><time>2026-04-06T09:05:26Z</time></trkpt><trkpt lat="43.69503589231513" lon="10.79058346114686"><ele>20.0</ele><time>2026-04-06T09:05:27Z</time></trkpt><trkpt lat="43.69490574904952" lon="10.790345416977374"><ele>20.0</ele><time>2026-04-06T09:05:28Z</time></trkpt><trkpt lat="43.694774510053044" lon="10.790115272210079"><ele>20.333333333333336</ele><time>2026-04-06T09:05:29Z</time></trkpt><trkpt lat="43.69463908463077" lon="10.789884543618006"><ele>20.666666666666668</ele><time>2026-04-06T09:05:29.999Z</time></trkpt><trkpt lat="43.69450130359093" lon="10.789651069371557"><ele>21.0</ele><time>2026-04-06T09:05:30.999Z</time></trkpt><trkpt lat="43.69436497783924" lon="10.789427686131342"><ele>21.666666666666668</ele><time>2026-04-06T09:05:31.999Z</time></trkpt><trkpt lat="43.69422844756331" lon="10.789200386488908"><ele>22.333333333333336</ele><time>2026-04-06T09:05:32.999Z</time></trkpt><trkpt lat="43.69409329033313" lon="10.788963749780727"><ele>23.0</ele><time>2026-04-06T09:05:33.999Z</time></trkpt><trkpt lat="43.69395555734908" lon="10.78873212631053"><ele>23.0</ele><time>2026-04-06T09:05:34.999Z</time></trkpt><trkpt lat="43.69382129901363" lon="10.788501170605558"><ele>23.0</ele><time>2026-04-06T09:05:35.999Z</time></trkpt><trkpt lat="43.693691595056485" lon="10.788277614194062"><ele>23.0</ele><time>2026-04-06T09:05:36.999Z</time></trkpt><trkpt lat="43.693563583819824" lon="10.788056306883897"><ele>23.0</ele><time>2026-04-06T09:05:37.999Z</time></trkpt><trkpt lat="43.69343563863974" lon="10.787833699559949"><ele>23.0</ele><time>2026-04-06T09:05:38.999Z</time></trkpt><trkpt lat="43.693310900406054" lon="10.787614969902059"><ele>23.0</ele><time>2026-04-06T09:05:39.999Z</time></trkpt><trkpt lat="43.69318745709334" lon="10.78740224238335"><ele>23.0</ele><time>2026-04-06T09:05:40.999Z</time></trkpt><trkpt lat="43.69306027168658" lon="10.787177252143913"><ele>23.0</ele><time>2026-04-06T09:05:41.999Z</time></trkpt><trkpt lat="43.69293599216739" lon="10.786970559120325"><ele>23.0</ele><time>2026-04-06T09:05:42.999Z</time></trkpt><trkpt lat="43.69280743424468" lon="10.78675139725676"><ele>22.333333333333336</ele><time>2026-04-06T09:05:43.999Z</time></trkpt><trkpt lat="43.69268263984838" lon="10.786538285307396"><ele>21.666666666666668</ele><time>2026-04-06T09:05:44.999Z</time></trkpt><trkpt lat="43.692557416884426" lon="10.786323653383825"><ele>21.0</ele><time>2026-04-06T09:05:45.999Z</time></trkpt><trkpt lat="43.69242812625359" lon="10.786101959209569"><ele>21.666666666666668</ele><time>2026-04-06T09:05:46.999Z</time></trkpt><trkpt lat="43.692298374812076" lon="10.785890008497097"><ele>22.333333333333336</ele><time>2026-04-06T09:05:47.999Z</time></trkpt><trkpt lat="43.6921676947177" lon="10.785666942863683"><ele>23.0</ele><time>2026-04-06T09:05:48.999Z</time></trkpt><trkpt lat="43.692039603813434" lon="10.785451910248907"><ele>23.0</ele><time>2026-04-06T09:05:49.999Z</time></trkpt><trkpt lat="43.69190830179385" lon="10.785226647671266"><ele>23.0</ele><time>2026-04-06T09:05:50.999Z</time></trkpt><trkpt lat="43.6917770331113" lon="10.785002649867819"><ele>23.0</ele><time>2026-04-06T09:05:51.999Z</time></trkpt><trkpt lat="43.691644441744" lon="10.784774138649322"><ele>23.0</ele><time>2026-04-06T09:05:52.999Z</time></trkpt><trkpt lat="43.69151211809213" lon="10.784548125798011"><ele>23.0</ele><time>2026-04-06T09:05:54Z</time></trkpt><trkpt lat="43.69137872699875" lon="10.784318945936135"><ele>23.0</ele><time>2026-04-06T09:05:55Z</time></trkpt><trkpt lat="43.69124512154334" lon="10.784093262771414"><ele>23.0</ele><time>2026-04-06T09:05:56Z</time></trkpt><trkpt lat="43.691111408167856" lon="10.783865161454015"><ele>23.0</ele><time>2026-04-06T09:05:57Z</time></trkpt><trkpt lat="43.69097792789539" lon="10.783633415622578"><ele>23.0</ele><time>2026-04-06T09:05:58Z</time></trkpt><trkpt lat="43.690845451146686" lon="10.783409706201569"><ele>23.0</ele><time>2026-04-06T09:05:59Z</time></trkpt><trkpt lat="43.690712099392286" lon="10.783178856619893"><ele>23.0</ele><time>2026-04-06T09:06:00Z</time></trkpt><trkpt lat="43.690578176812465" lon="10.782948229760192"><ele>23.0</ele><time>2026-04-06T09:06:01Z</time></trkpt><trkpt lat="43.69044234863765" lon="10.782721745151887"><ele>22.666666666666668</ele><time>2026-04-06T09:06:02Z</time></trkpt><trkpt lat="43.69030551275133" lon="10.782492894040306"><ele>22.333333333333332</ele><time>2026-04-06T09:06:03Z</time></trkpt><trkpt lat="43.69017144164302" lon="10.782263154748676"><ele>22.0</ele><time>2026-04-06T09:06:04Z</time></trkpt><trkpt lat="43.69003813382727" lon="10.782035298974165"><ele>22.0</ele><time>2026-04-06T09:06:05Z</time></trkpt><trkpt lat="43.68990631361246" lon="10.78181000096752"><ele>22.0</ele><time>2026-04-06T09:06:06Z</time></trkpt><trkpt lat="43.68977785639207" lon="10.78158578544596"><ele>22.0</ele><time>2026-04-06T09:06:07Z</time></trkpt><trkpt lat="43.68965312396682" lon="10.78137601421485"><ele>22.0</ele><time>2026-04-06T09:06:08Z</time></trkpt><trkpt lat="43.68953608543218" lon="10.781177474050008"><ele>22.0</ele><time>2026-04-06T09:06:09Z</time></trkpt><trkpt lat="43.68942773784608" lon="10.780989754883029"><ele>22.0</ele><time>2026-04-06T09:06:10Z</time></trkpt><trkpt lat="43.68932267183841" lon="10.780814620606337"><ele>22.75</ele><time>2026-04-06T09:06:11Z</time></trkpt><trkpt lat="43.6892239798303" lon="10.780650439802782"><ele>23.5</ele><time>2026-04-06T09:06:12Z</time></trkpt><trkpt lat="43.689132999257716" lon="10.780499557394517"><ele>24.25</ele><time>2026-04-06T09:06:13Z</time></trkpt><trkpt lat="43.6890480578838" lon="10.780348877558108"><ele>25.0</ele><time>2026-04-06T09:06:14Z</time></trkpt><trkpt lat="43.688965227317894" lon="10.780210760339983"><ele>24.8</ele><time>2026-04-06T09:06:15Z</time></trkpt><trkpt lat="43.688891865185646" lon="10.780085213300561"><ele>24.6</ele><time>2026-04-06T09:06:16Z</time></trkpt><trkpt lat="43.68882528416959" lon="10.779967645881195"><ele>24.4</ele><time>2026-04-06T09:06:17Z</time></trkpt><trkpt lat="43.68876331876497" lon="10.779857197110246"><ele>24.2</ele><time>2026-04-06T09:06:18Z</time></trkpt><trkpt lat="43.68870311006938" lon="10.779753340599257"><ele>24.0</ele><time>2026-04-06T09:06:19Z</time></trkpt><trkpt lat="43.6886498296156" lon="10.779662108813604"><ele>24.0</ele><time>2026-04-06T09:06:20Z</time></trkpt><trkpt lat="43.68860651283268" lon="10.779592166888479"><ele>24.0</ele><time>2026-04-06T09:06:21Z</time></trkpt><trkpt lat="43.688556842666685" lon="10.77950522255968"><ele>24.0</ele><time>2026-04-06T09:06:22Z</time></trkpt><trkpt lat="43.6885097067832" lon="10.779429626744665"><ele>24.0</ele><time>2026-04-06T09:06:23Z</time></trkpt><trkpt lat="43.68845841588498" lon="10.779344317381565"><ele>24.0</ele><time>2026-04-06T09:06:24Z</time></trkpt><trkpt lat="43.68840512759877" lon="10.779254062901643"><ele>24.0</ele><time>2026-04-06T09:06:25Z</time></trkpt><trkpt lat="43.68834985109968" lon="10.779163142763277"><ele>25.166666666666668</ele><time>2026-04-06T09:06:26Z</time></trkpt><trkpt lat="43.68829446990558" lon="10.779069434347969"><ele>26.333333333333336</ele><time>2026-04-06T09:06:27Z</time></trkpt><trkpt lat="43.68823642840916" lon="10.778968986858603"><ele>27.5</ele><time>2026-04-06T09:06:28Z</time></trkpt><trkpt lat="43.68818410240108" lon="10.778874178615691"><ele>28.666666666666668</ele><time>2026-04-06T09:06:29Z</time></trkpt><trkpt lat="43.68813700829215" lon="10.778787389823762"><ele>29.833333333333336</ele><time>2026-04-06T09:06:30Z</time></trkpt><trkpt lat="43.68809119223384" lon="10.778706788369618"><ele>31.0</ele><time>2026-04-06T09:06:31Z</time></trkpt><trkpt lat="43.68804960226253" lon="10.778636100807875"><ele>31.0</ele><time>2026-04-06T09:06:32Z</time></trkpt><trkpt lat="43.6879809113911" lon="10.778517665284896"><ele>31.0</ele><time>2026-04-06T09:06:34Z</time></trkpt><trkpt lat="43.68792664432083" lon="10.778426475069189"><ele>31.0</ele><time>2026-04-06T09:06:36Z</time></trkpt><trkpt lat="43.68787140945363" lon="10.778329503493278"><ele>31.0</ele><time>2026-04-06T09:06:38Z</time></trkpt><trkpt lat="43.687809366630404" lon="10.778220510349259"><ele>31.0</ele><time>2026-04-06T09:06:40Z</time></trkpt><trkpt lat="43.68774879382052" lon="10.778119762824058"><ele>32.142857142857146</ele><time>2026-04-06T09:06:42Z</time></trkpt><trkpt lat="43.68770301861558" lon="10.778039613737826"><ele>33.28571428571429</ele><time>2026-04-06T09:06:45Z</time></trkpt><trkpt lat="43.68764990958186" lon="10.777952176721632"><ele>34.42857142857143</ele><time>2026-04-06T09:06:50Z</time></trkpt><trkpt lat="43.68760496171565" lon="10.77787858520322"><ele>35.57142857142857</ele><time>2026-04-06T09:06:52Z</time></trkpt><trkpt lat="43.687555199207104" lon="10.777795573186028"><ele>36.71428571428571</ele><time>2026-04-06T09:06:55Z</time></trkpt><trkpt lat="43.68751290611881" lon="10.777717213757716"><ele>37.85714285714286</ele><time>2026-04-06T09:06:57Z</time></trkpt><trkpt lat="43.68746524937292" lon="10.777638244703226"><ele>39.0</ele><time>2026-04-06T09:06:59Z</time></trkpt><trkpt lat="43.68741802437525" lon="10.77755719077119"><ele>39.0</ele><time>2026-04-06T09:07:01Z</time></trkpt><trkpt lat="43.68736894161358" lon="10.777477666766327"><ele>39.0</ele><time>2026-04-06T09:07:03Z</time></trkpt><trkpt lat="43.68732218199062" lon="10.777394176311008"><ele>39.0</ele><time>2026-04-06T09:07:05Z</time></trkpt><trkpt lat="43.6872749317064" lon="10.777308935589991"><ele>39.0</ele><time>2026-04-06T09:07:07Z</time></trkpt><trkpt lat="43.68722832520256" lon="10.777223180343219"><ele>39.0</ele><time>2026-04-06T09:07:09Z</time></trkpt><trkpt lat="43.6871852693417" lon="10.777145902958067"><ele>39.0</ele><time>2026-04-06T09:07:11Z</time></trkpt><trkpt lat="43.68714631097956" lon="10.777076532101198"><ele>39.0</ele><time>2026-04-06T09:07:14Z</time></trkpt><trkpt lat="43.68708926509632" lon="10.776978996989385"><ele>39.0</ele><time>2026-04-06T09:07:17Z</time></trkpt><trkpt lat="43.68704140043094" lon="10.776880628012542"><ele>39.0</ele><time>2026-04-06T09:07:19Z</time></trkpt><trkpt lat="43.68699555291502" lon="10.776783064911653"><ele>39.0</ele><time>2026-04-06T09:07:21Z</time></trkpt><trkpt lat="43.6869391079618" lon="10.776667835140046"><ele>39.0</ele><time>2026-04-06T09:07:23Z</time></trkpt><trkpt lat="43.68688122780766" lon="10.776549106021927"><ele>39.0</ele><time>2026-04-06T09:07:25Z</time></trkpt><trkpt lat="43.686828021398966" lon="10.776433244143108"><ele>40.2</ele><time>2026-04-06T09:07:27Z</time></trkpt><trkpt lat="43.68678120851813" lon="10.776322203699017"><ele>41.4</ele><time>2026-04-06T09:07:29Z</time></trkpt><trkpt lat="43.68673940153604" lon="10.776219294645978"><ele>42.6</ele><time>2026-04-06T09:07:31Z</time></trkpt><trkpt lat="43.68668776570942" lon="10.776096445126795"><ele>43.8</ele><time>2026-04-06T09:07:32.999Z</time></trkpt><trkpt lat="43.68663109249921" lon="10.775937462229441"><ele>45.0</ele><time>2026-04-06T09:07:36.999Z</time></trkpt><trkpt lat="43.68662590530545" lon="10.775850094893917"><ele>50.0</ele><time>2026-04-06T09:07:38.999Z</time></trkpt><trkpt lat="43.6866049734618" lon="10.775766904929053"><ele>55.0</ele><time>2026-04-06T09:07:41.999Z</time></trkpt><trkpt lat="43.68641058965048" lon="10.77524756532067"><ele>54.75</ele><time>2026-04-06T09:07:43.999Z</time></trkpt><trkpt lat="43.68629572237761" lon="10.775116050618694"><ele>54.5</ele><time>2026-04-06T09:07:44.999Z</time></trkpt><trkpt lat="43.68632364779492" lon="10.774929469032838"><ele>54.25</ele><time>2026-04-06T09:07:45.999Z</time></trkpt><trkpt lat="43.68629534427727" lon="10.774807108111073"><ele>54.0</ele><time>2026-04-06T09:07:46.999Z</time></trkpt><trkpt lat="43.68626113527451" lon="10.774686529871465"><ele>54.0</ele><time>2026-04-06T09:07:47.999Z</time></trkpt><trkpt lat="43.68621662833395" lon="10.774545971275318"><ele>54.0</ele><time>2026-04-06T09:07:48.999Z</time></trkpt><trkpt lat="43.68616921237629" lon="10.774390500414624"><ele>54.0</ele><time>2026-04-06T09:07:49.999Z</time></trkpt><trkpt lat="43.6861189241043" lon="10.774219101618437"><ele>54.0</ele><time>2026-04-06T09:07:50.999Z</time></trkpt><trkpt lat="43.68606376440203" lon="10.774038141770022"><ele>53.0</ele><time>2026-04-06T09:07:51.999Z</time></trkpt><trkpt lat="43.68600434544119" lon="10.773851543404296"><ele>52.0</ele><time>2026-04-06T09:07:52.999Z</time></trkpt><trkpt lat="43.68594586729838" lon="10.773676602534675"><ele>51.0</ele><time>2026-04-06T09:07:53.999Z</time></trkpt><trkpt lat="43.68588608868167" lon="10.773503853897653"><ele>50.0</ele><time>2026-04-06T09:07:54.999Z</time></trkpt><trkpt lat="43.68582659967885" lon="10.773328371321497"><ele>49.25</ele><time>2026-04-06T09:07:55.999Z</time></trkpt><trkpt lat="43.685757460949375" lon="10.773156679086897"><ele>48.5</ele><time>2026-04-06T09:07:56.999Z</time></trkpt><trkpt lat="43.68569103335378" lon="10.77297364775076"><ele>47.75</ele><time>2026-04-06T09:07:57.999Z</time></trkpt><trkpt lat="43.68562188079346" lon="10.772790839095892"><ele>47.0</ele><time>2026-04-06T09:07:58.999Z</time></trkpt><trkpt lat="43.685551317661066" lon="10.772611028927134"><ele>46.666666666666664</ele><time>2026-04-06T09:08:00Z</time></trkpt><trkpt lat="43.68547593403254" lon="10.77241521846561"><ele>46.333333333333336</ele><time>2026-04-06T09:08:01Z</time></trkpt><trkpt lat="43.68540648605991" lon="10.772222092209086"><ele>46.0</ele><time>2026-04-06T09:08:02Z</time></trkpt><trkpt lat="43.68533555206387" lon="10.772035108361056"><ele>44.0</ele><time>2026-04-06T09:08:03Z</time></trkpt><trkpt lat="43.68525824840914" lon="10.771833484636703"><ele>42.0</ele><time>2026-04-06T09:08:04Z</time></trkpt><trkpt lat="43.68517933423725" lon="10.771637731802434"><ele>40.0</ele><time>2026-04-06T09:08:05Z</time></trkpt><trkpt lat="43.68510596406006" lon="10.771437980267027"><ele>40.0</ele><time>2026-04-06T09:08:06Z</time></trkpt><trkpt lat="43.68502577019297" lon="10.77123127126236"><ele>40.0</ele><time>2026-04-06T09:08:07Z</time></trkpt><trkpt lat="43.68494392166965" lon="10.77102283170672"><ele>40.0</ele><time>2026-04-06T09:08:08Z</time></trkpt><trkpt lat="43.68487302959769" lon="10.77080672445696"><ele>39.66666666666667</ele><time>2026-04-06T09:08:09Z</time></trkpt><trkpt lat="43.68479951717242" lon="10.77059074554723"><ele>39.333333333333336</ele><time>2026-04-06T09:08:10Z</time></trkpt><trkpt lat="43.6847219572321" lon="10.77037227222202"><ele>39.0</ele><time>2026-04-06T09:08:11Z</time></trkpt><trkpt lat="43.684647231392795" lon="10.770150426995224"><ele>39.0</ele><time>2026-04-06T09:08:12Z</time></trkpt><trkpt lat="43.68459015198129" lon="10.769910856108623"><ele>39.0</ele><time>2026-04-06T09:08:13Z</time></trkpt><trkpt lat="43.68451860403599" lon="10.769673368989858"><ele>39.0</ele><time>2026-04-06T09:08:14Z</time></trkpt><trkpt lat="43.68445902401197" lon="10.769435160211096"><ele>37.666666666666664</ele><time>2026-04-06T09:08:15Z</time></trkpt><trkpt lat="43.68440049650745" lon="10.769189004291585"><ele>36.33333333333333</ele><time>2026-04-06T09:08:16Z</time></trkpt><trkpt lat="43.68435086387575" lon="10.768941189497049"><ele>35.0</ele><time>2026-04-06T09:08:17Z</time></trkpt><trkpt lat="43.68430674330386" lon="10.76869418521824"><ele>35.33333333333333</ele><time>2026-04-06T09:08:18Z</time></trkpt><trkpt lat="43.68426744844683" lon="10.76844469435803"><ele>35.666666666666664</ele><time>2026-04-06T09:08:19Z</time></trkpt><trkpt lat="43.68423230351623" lon="10.768192202078906"><ele>36.0</ele><time>2026-04-06T09:08:20Z</time></trkpt><trkpt lat="43.68419991659393" lon="10.76794022027012"><ele>36.333333333333336</ele><time>2026-04-06T09:08:21Z</time></trkpt><trkpt lat="43.684170537265395" lon="10.767687982207454"><ele>36.66666666666667</ele><time>2026-04-06T09:08:22Z</time></trkpt><trkpt lat="43.68414304028622" lon="10.767428661134792"><ele>37.0</ele><time>2026-04-06T09:08:23Z</time></trkpt><trkpt lat="43.68412340875913" lon="10.767172932492633"><ele>37.0</ele><time>2026-04-06T09:08:24Z</time></trkpt><trkpt lat="43.684104715082384" lon="10.766905984221287"><ele>37.0</ele><time>2026-04-06T09:08:25Z</time></trkpt><trkpt lat="43.684089846616295" lon="10.766642540704764"><ele>37.0</ele><time>2026-04-06T09:08:26Z</time></trkpt><trkpt lat="43.684076347599294" lon="10.766376549621306"><ele>36.0</ele><time>2026-04-06T09:08:27Z</time></trkpt><trkpt lat="43.68406320048183" lon="10.766110038011407"><ele>35.0</ele><time>2026-04-06T09:08:28Z</time></trkpt><trkpt lat="43.68404838461743" lon="10.76583973715899"><ele>34.0</ele><time>2026-04-06T09:08:29Z</time></trkpt><trkpt lat="43.684036415269745" lon="10.765577259780978"><ele>33.66666666666667</ele><time>2026-04-06T09:08:30Z</time></trkpt><trkpt lat="43.68402434064316" lon="10.76531262252499"><ele>33.333333333333336</ele><time>2026-04-06T09:08:31Z</time></trkpt><trkpt lat="43.684008672962406" lon="10.765048605862649"><ele>33.0</ele><time>2026-04-06T09:08:32Z</time></trkpt><trkpt lat="43.683992436304564" lon="10.764782918675488"><ele>33.0</ele><time>2026-04-06T09:08:33Z</time></trkpt><trkpt lat="43.68397604070305" lon="10.764514608520438"><ele>33.0</ele><time>2026-04-06T09:08:34Z</time></trkpt><trkpt lat="43.68396077121183" lon="10.764253925336641"><ele>33.0</ele><time>2026-04-06T09:08:35Z</time></trkpt><trkpt lat="43.68394321423992" lon="10.763990138339295"><ele>32.666666666666664</ele><time>2026-04-06T09:08:36Z</time></trkpt><trkpt lat="43.6839259159303" lon="10.763730810169625"><ele>32.33333333333333</ele><time>2026-04-06T09:08:37Z</time></trkpt><trkpt lat="43.683902411370035" lon="10.763473969921604"><ele>32.0</ele><time>2026-04-06T09:08:38Z</time></trkpt><trkpt lat="43.68387598499007" lon="10.763219426876443"><ele>32.0</ele><time>2026-04-06T09:08:39Z</time></trkpt><trkpt lat="43.6838481759813" lon="10.762976275175662"><ele>32.0</ele><time>2026-04-06T09:08:40Z</time></trkpt><trkpt lat="43.68381401360775" lon="10.762728170742642"><ele>32.0</ele><time>2026-04-06T09:08:41Z</time></trkpt><trkpt lat="43.68377506626431" lon="10.762485048047816"><ele>32.0</ele><time>2026-04-06T09:08:42Z</time></trkpt><trkpt lat="43.68373842786612" lon="10.762254205112397"><ele>32.0</ele><time>2026-04-06T09:08:43Z</time></trkpt><trkpt lat="43.68369556870982" lon="10.762020515062344"><ele>32.0</ele><time>2026-04-06T09:08:44Z</time></trkpt><trkpt lat="43.68365545819374" lon="10.761792487914454"><ele>32.0</ele><time>2026-04-06T09:08:45Z</time></trkpt><trkpt lat="43.68361415359324" lon="10.761570922822436"><ele>32.0</ele><time>2026-04-06T09:08:46Z</time></trkpt><trkpt lat="43.68356982844626" lon="10.761346256216378"><ele>32.0</ele><time>2026-04-06T09:08:47Z</time></trkpt><trkpt lat="43.68352675172261" lon="10.761126625958058"><ele>33.33333333333333</ele><time>2026-04-06T09:08:48Z</time></trkpt><trkpt lat="43.68348268429871" lon="10.760914507007667"><ele>34.666666666666664</ele><time>2026-04-06T09:08:49Z</time></trkpt><trkpt lat="43.68343698039145" lon="10.760697509233502"><ele>36.0</ele><time>2026-04-06T09:08:50Z</time></trkpt><trkpt lat="43.68339494081115" lon="10.760485510120418"><ele>36.0</ele><time>2026-04-06T09:08:51Z</time></trkpt><trkpt lat="43.683357517873034" lon="10.76027935399142"><ele>36.0</ele><time>2026-04-06T09:08:52Z</time></trkpt><trkpt lat="43.68331582188066" lon="10.760067786036268"><ele>36.0</ele><time>2026-04-06T09:08:53Z</time></trkpt><trkpt lat="43.683270432813295" lon="10.759853030173755"><ele>35.666666666666664</ele><time>2026-04-06T09:08:54Z</time></trkpt><trkpt lat="43.68322769936839" lon="10.75964003391421"><ele>35.33333333333333</ele><time>2026-04-06T09:08:55Z</time></trkpt><trkpt lat="43.683182914879644" lon="10.759425445538943"><ele>35.0</ele><time>2026-04-06T09:08:56Z</time></trkpt><trkpt lat="43.683136012031895" lon="10.75920351589992"><ele>34.33333333333333</ele><time>2026-04-06T09:08:57Z</time></trkpt><trkpt lat="43.683086027886716" lon="10.758988702985226"><ele>33.666666666666664</ele><time>2026-04-06T09:08:58Z</time></trkpt><trkpt lat="43.68303039916252" lon="10.758776106814095"><ele>33.0</ele><time>2026-04-06T09:08:59Z</time></trkpt><trkpt lat="43.68297338027378" lon="10.758564820219451"><ele>33.0</ele><time>2026-04-06T09:09:00Z</time></trkpt><trkpt lat="43.682910115612096" lon="10.758358547854195"><ele>33.0</ele><time>2026-04-06T09:09:01Z</time></trkpt><trkpt lat="43.682847402099895" lon="10.758149029477309"><ele>33.0</ele><time>2026-04-06T09:09:02Z</time></trkpt><trkpt lat="43.68278448613625" lon="10.757942624624162"><ele>32.333333333333336</ele><time>2026-04-06T09:09:03Z</time></trkpt><trkpt lat="43.68271739155371" lon="10.757735936977655"><ele>31.666666666666668</ele><time>2026-04-06T09:09:04Z</time></trkpt><trkpt lat="43.682641672735336" lon="10.75753118956192"><ele>31.0</ele><time>2026-04-06T09:09:05Z</time></trkpt><trkpt lat="43.68256440818928" lon="10.757326492374128"><ele>31.0</ele><time>2026-04-06T09:09:06Z</time></trkpt><trkpt lat="43.682483184299635" lon="10.757124635918236"><ele>31.0</ele><time>2026-04-06T09:09:07Z</time></trkpt><trkpt lat="43.68239970612031" lon="10.756920597109747"><ele>31.0</ele><time>2026-04-06T09:09:08Z</time></trkpt><trkpt lat="43.68231089836442" lon="10.756724747223263"><ele>30.333333333333336</ele><time>2026-04-06T09:09:09Z</time></trkpt><trkpt lat="43.68221828856037" lon="10.756525484326572"><ele>29.666666666666664</ele><time>2026-04-06T09:09:10Z</time></trkpt><trkpt lat="43.682123315084354" lon="10.756325198046776"><ele>29.0</ele><time>2026-04-06T09:09:11Z</time></trkpt><trkpt lat="43.68203057488527" lon="10.756135443959064"><ele>29.666666666666664</ele><time>2026-04-06T09:09:12Z</time></trkpt><trkpt lat="43.68193109689513" lon="10.755939189018182"><ele>30.333333333333336</ele><time>2026-04-06T09:09:13Z</time></trkpt><trkpt lat="43.681828607486516" lon="10.755737250356024"><ele>31.0</ele><time>2026-04-06T09:09:14Z</time></trkpt><trkpt lat="43.681733638495174" lon="10.755556487832665"><ele>31.0</ele><time>2026-04-06T09:09:15Z</time></trkpt><trkpt lat="43.68163328627496" lon="10.755363228869935"><ele>31.0</ele><time>2026-04-06T09:09:16Z</time></trkpt><trkpt lat="43.6815372190916" lon="10.755174585702761"><ele>31.0</ele><time>2026-04-06T09:09:17Z</time></trkpt><trkpt lat="43.68144088900063" lon="10.754981734323755"><ele>31.333333333333336</ele><time>2026-04-06T09:09:18Z</time></trkpt><trkpt lat="43.6813475727055" lon="10.754796033241762"><ele>31.666666666666664</ele><time>2026-04-06T09:09:19Z</time></trkpt><trkpt lat="43.681253030108486" lon="10.754605616260658"><ele>32.0</ele><time>2026-04-06T09:09:20Z</time></trkpt><trkpt lat="43.68115805818508" lon="10.754415379296514"><ele>32.33333333333333</ele><time>2026-04-06T09:09:21Z</time></trkpt><trkpt lat="43.6810630299525" lon="10.754230382145144"><ele>32.666666666666664</ele><time>2026-04-06T09:09:22Z</time></trkpt><trkpt lat="43.68096702950388" lon="10.75404425392424"><ele>33.0</ele><time>2026-04-06T09:09:23Z</time></trkpt><trkpt lat="43.68087165643651" lon="10.753861558854588"><ele>33.0</ele><time>2026-04-06T09:09:24Z</time></trkpt><trkpt lat="43.68077464829137" lon="10.753671487616149"><ele>33.0</ele><time>2026-04-06T09:09:25Z</time></trkpt><trkpt lat="43.68067996595093" lon="10.753492239899185"><ele>33.0</ele><time>2026-04-06T09:09:26Z</time></trkpt><trkpt lat="43.68058485347914" lon="10.75330620894144"><ele>32.333333333333336</ele><time>2026-04-06T09:09:27Z</time></trkpt><trkpt lat="43.68049309796914" lon="10.753128058745471"><ele>31.666666666666668</ele><time>2026-04-06T09:09:28Z</time></trkpt><trkpt lat="43.680398479041074" lon="10.752939992170328"><ele>31.0</ele><time>2026-04-06T09:09:29Z</time></trkpt><trkpt lat="43.68030209192945" lon="10.75274935382837"><ele>33.333333333333336</ele><time>2026-04-06T09:09:30Z</time></trkpt><trkpt lat="43.68020566440216" lon="10.752555737029466"><ele>35.666666666666664</ele><time>2026-04-06T09:09:31Z</time></trkpt><trkpt lat="43.68010815384406" lon="10.752364959345226"><ele>38.0</ele><time>2026-04-06T09:09:32Z</time></trkpt><trkpt lat="43.680007206152055" lon="10.752169325200532"><ele>38.0</ele><time>2026-04-06T09:09:33Z</time></trkpt><trkpt lat="43.67990540603389" lon="10.7519701459415"><ele>38.0</ele><time>2026-04-06T09:09:34Z</time></trkpt><trkpt lat="43.67980278925503" lon="10.751770443859463"><ele>38.0</ele><time>2026-04-06T09:09:35Z</time></trkpt><trkpt lat="43.67969989404044" lon="10.751574615995368"><ele>37.666666666666664</ele><time>2026-04-06T09:09:36Z</time></trkpt><trkpt lat="43.67959653050893" lon="10.751369537207282"><ele>37.333333333333336</ele><time>2026-04-06T09:09:37Z</time></trkpt><trkpt lat="43.679491094768224" lon="10.751163998451227"><ele>37.0</ele><time>2026-04-06T09:09:38Z</time></trkpt><trkpt lat="43.67938604901616" lon="10.750955900110593"><ele>37.0</ele><time>2026-04-06T09:09:39Z</time></trkpt><trkpt lat="43.67927711659416" lon="10.750739673279197"><ele>37.0</ele><time>2026-04-06T09:09:40Z</time></trkpt><trkpt lat="43.67917411459387" lon="10.750539134260327"><ele>37.0</ele><time>2026-04-06T09:09:41Z</time></trkpt><trkpt lat="43.67906344887858" lon="10.7503258235097"><ele>35.66666666666667</ele><time>2026-04-06T09:09:42Z</time></trkpt><trkpt lat="43.67895777036207" lon="10.750116960958131"><ele>34.333333333333336</ele><time>2026-04-06T09:09:43Z</time></trkpt><trkpt lat="43.67885434499956" lon="10.749913315673304"><ele>33.0</ele><time>2026-04-06T09:09:44Z</time></trkpt><trkpt lat="43.67875300436185" lon="10.749711315175354"><ele>33.0</ele><time>2026-04-06T09:09:45Z</time></trkpt><trkpt lat="43.678646576934646" lon="10.749501869526279"><ele>33.0</ele><time>2026-04-06T09:09:46Z</time></trkpt><trkpt lat="43.67853571491308" lon="10.74928964928144"><ele>33.0</ele><time>2026-04-06T09:09:47Z</time></trkpt><trkpt lat="43.67842731908081" lon="10.749077484972583"><ele>36.666666666666664</ele><time>2026-04-06T09:09:47.999Z</time></trkpt><trkpt lat="43.67832262770964" lon="10.748870571419435"><ele>40.33333333333333</ele><time>2026-04-06T09:09:48.999Z</time></trkpt><trkpt lat="43.678207884530806" lon="10.748653711618367"><ele>44.0</ele><time>2026-04-06T09:09:49.999Z</time></trkpt><trkpt lat="43.67808837937693" lon="10.748440537776633"><ele>46.33333333333333</ele><time>2026-04-06T09:09:50.999Z</time></trkpt><trkpt lat="43.67796141810155" lon="10.748233190978434"><ele>48.666666666666664</ele><time>2026-04-06T09:09:51.999Z</time></trkpt><trkpt lat="43.677830835337424" lon="10.74803001081471"><ele>51.0</ele><time>2026-04-06T09:09:52.999Z</time></trkpt><trkpt lat="43.67769486267443" lon="10.74782204419632"><ele>49.0</ele><time>2026-04-06T09:09:53.999Z</time></trkpt><trkpt lat="43.6775571472464" lon="10.747619667617077"><ele>47.0</ele><time>2026-04-06T09:09:54.999Z</time></trkpt><trkpt lat="43.67741374661581" lon="10.747420797241336"><ele>45.0</ele><time>2026-04-06T09:09:55.999Z</time></trkpt><trkpt lat="43.67725882710387" lon="10.7472258769413"><ele>45.0</ele><time>2026-04-06T09:09:56.999Z</time></trkpt><trkpt lat="43.67710419450815" lon="10.747034082694311"><ele>45.0</ele><time>2026-04-06T09:09:57.999Z</time></trkpt><trkpt lat="43.67694600292235" lon="10.746843326886287"><ele>45.0</ele><time>2026-04-06T09:09:58.999Z</time></trkpt><trkpt lat="43.676786384163634" lon="10.746653909244968"><ele>43.0</ele><time>2026-04-06T09:09:59.999Z</time></trkpt><trkpt lat="43.67662594388769" lon="10.74647180466178"><ele>41.0</ele><time>2026-04-06T09:10:00.999Z</time></trkpt><trkpt lat="43.67646095306209" lon="10.746286784854926"><ele>39.0</ele><time>2026-04-06T09:10:01.999Z</time></trkpt><trkpt lat="43.67629907523846" lon="10.74610575925637"><ele>38.0</ele><time>2026-04-06T09:10:02.999Z</time></trkpt><trkpt lat="43.676140454771726" lon="10.745926374242103"><ele>37.0</ele><time>2026-04-06T09:10:03.999Z</time></trkpt><trkpt lat="43.67598210322679" lon="10.745745415843627"><ele>36.0</ele><time>2026-04-06T09:10:04.999Z</time></trkpt><trkpt lat="43.67582625684314" lon="10.745570568805348"><ele>38.333333333333336</ele><time>2026-04-06T09:10:06Z</time></trkpt><trkpt lat="43.67566981706605" lon="10.745390317686484"><ele>40.66666666666667</ele><time>2026-04-06T09:10:07Z</time></trkpt><trkpt lat="43.67551620548786" lon="10.745215234519208"><ele>43.0</ele><time>2026-04-06T09:10:08Z</time></trkpt><trkpt lat="43.675359927238596" lon="10.74503706263099"><ele>44.0</ele><time>2026-04-06T09:10:09Z</time></trkpt><trkpt lat="43.67520603127244" lon="10.74486202957502"><ele>45.0</ele><time>2026-04-06T09:10:10Z</time></trkpt><trkpt lat="43.675051230488265" lon="10.74468563956722"><ele>46.0</ele><time>2026-04-06T09:10:11Z</time></trkpt><trkpt lat="43.67489292704518" lon="10.744507974467684"><ele>46.0</ele><time>2026-04-06T09:10:12Z</time></trkpt><trkpt lat="43.67474165376241" lon="10.744334992029781"><ele>46.0</ele><time>2026-04-06T09:10:13Z</time></trkpt><trkpt lat="43.674586075356856" lon="10.744154920811075"><ele>46.0</ele><time>2026-04-06T09:10:14Z</time></trkpt><trkpt lat="43.67443751857403" lon="10.743987176711046"><ele>45.0</ele><time>2026-04-06T09:10:15Z</time></trkpt><trkpt lat="43.674282490816694" lon="10.743810871690957"><ele>44.0</ele><time>2026-04-06T09:10:16Z</time></trkpt><trkpt lat="43.67413441456832" lon="10.74363623304959"><ele>43.0</ele><time>2026-04-06T09:10:17Z</time></trkpt><trkpt lat="43.67398395709148" lon="10.743466848839766"><ele>42.66666666666667</ele><time>2026-04-06T09:10:18Z</time></trkpt><trkpt lat="43.673836022440085" lon="10.743294427388"><ele>42.333333333333336</ele><time>2026-04-06T09:10:19Z</time></trkpt><trkpt lat="43.673690219405024" lon="10.743125179197268"><ele>42.0</ele><time>2026-04-06T09:10:20Z</time></trkpt><trkpt lat="43.6735442423705" lon="10.74295522343584"><ele>39.666666666666664</ele><time>2026-04-06T09:10:21Z</time></trkpt><trkpt lat="43.67340186108985" lon="10.742789601617869"><ele>37.33333333333333</ele><time>2026-04-06T09:10:22Z</time></trkpt><trkpt lat="43.67326608908131" lon="10.742634354748992"><ele>35.0</ele><time>2026-04-06T09:10:23Z</time></trkpt><trkpt lat="43.67313974123712" lon="10.742482442799174"><ele>35.0</ele><time>2026-04-06T09:10:24Z</time></trkpt><trkpt lat="43.673019503849154" lon="10.742332350326715"><ele>35.0</ele><time>2026-04-06T09:10:25Z</time></trkpt><trkpt lat="43.67290721384396" lon="10.74218484675058"><ele>35.0</ele><time>2026-04-06T09:10:26Z</time></trkpt><trkpt lat="43.672797878352775" lon="10.742043442692006"><ele>34.0</ele><time>2026-04-06T09:10:27Z</time></trkpt><trkpt lat="43.672697019185684" lon="10.741907715376518"><ele>33.0</ele><time>2026-04-06T09:10:28Z</time></trkpt><trkpt lat="43.67259858716127" lon="10.741769991323862"><ele>32.0</ele><time>2026-04-06T09:10:29Z</time></trkpt><trkpt lat="43.67250933468699" lon="10.741634957599466"><ele>31.0</ele><time>2026-04-06T09:10:30Z</time></trkpt><trkpt lat="43.672426958428375" lon="10.741510283923253"><ele>31.0</ele><time>2026-04-06T09:10:31Z</time></trkpt><trkpt lat="43.672350773145546" lon="10.741386092964703"><ele>31.0</ele><time>2026-04-06T09:10:32Z</time></trkpt><trkpt lat="43.67228077683391" lon="10.741265248055194"><ele>31.0</ele><time>2026-04-06T09:10:33Z</time></trkpt><trkpt lat="43.672214276195035" lon="10.741149577102433"><ele>31.0</ele><time>2026-04-06T09:10:34Z</time></trkpt><trkpt lat="43.67215227825472" lon="10.74103691479852"><ele>31.0</ele><time>2026-04-06T09:10:35Z</time></trkpt><trkpt lat="43.67209166086898" lon="10.740928957726359"><ele>31.000000000000004</ele><time>2026-04-06T09:10:36Z</time></trkpt><trkpt lat="43.672038366530074" lon="10.740826103482393"><ele>31.0</ele><time>2026-04-06T09:10:37Z</time></trkpt><trkpt lat="43.67199079500757" lon="10.740730525163682"><ele>31.0</ele><time>2026-04-06T09:10:38Z</time></trkpt><trkpt lat="43.67194470535804" lon="10.74063663534614"><ele>31.0</ele><time>2026-04-06T09:10:39Z</time></trkpt><trkpt lat="43.671900236161626" lon="10.740536919667882"><ele>31.000000000000004</ele><time>2026-04-06T09:10:40Z</time></trkpt><trkpt lat="43.67185716866095" lon="10.74044379632034"><ele>31.0</ele><time>2026-04-06T09:10:41Z</time></trkpt><trkpt lat="43.671810361649094" lon="10.74034403654719"><ele>31.000000000000004</ele><time>2026-04-06T09:10:42Z</time></trkpt><trkpt lat="43.6717754425679" lon="10.740255261345501"><ele>31.0</ele><time>2026-04-06T09:10:43Z</time></trkpt><trkpt lat="43.67173356539076" lon="10.740153303078571"><ele>31.0</ele><time>2026-04-06T09:10:44Z</time></trkpt><trkpt lat="43.67168951143409" lon="10.74004744088524"><ele>31.0</ele><time>2026-04-06T09:10:45Z</time></trkpt><trkpt lat="43.67164690931969" lon="10.739937083028577"><ele>31.000000000000004</ele><time>2026-04-06T09:10:46Z</time></trkpt><trkpt lat="43.67160419709398" lon="10.739826733834747"><ele>31.0</ele><time>2026-04-06T09:10:47Z</time></trkpt><trkpt lat="43.671568382932676" lon="10.739712469790724"><ele>30.8</ele><time>2026-04-06T09:10:48Z</time></trkpt><trkpt lat="43.67153547973969" lon="10.73960260371412"><ele>30.6</ele><time>2026-04-06T09:10:49Z</time></trkpt><trkpt lat="43.67149806867974" lon="10.739479707637265"><ele>30.4</ele><time>2026-04-06T09:10:50Z</time></trkpt><trkpt lat="43.67145807537357" lon="10.739349231338103"><ele>30.2</ele><time>2026-04-06T09:10:51Z</time></trkpt><trkpt lat="43.671420655297936" lon="10.739215172432841"><ele>30.0</ele><time>2026-04-06T09:10:52Z</time></trkpt><trkpt lat="43.67138293635533" lon="10.739071109632437"><ele>30.0</ele><time>2026-04-06T09:10:53Z</time></trkpt><trkpt lat="43.67134810527797" lon="10.738925374730888"><ele>30.0</ele><time>2026-04-06T09:10:54Z</time></trkpt><trkpt lat="43.671315069577616" lon="10.738779762898739"><ele>30.0</ele><time>2026-04-06T09:10:55Z</time></trkpt><trkpt lat="43.671280969896415" lon="10.738624060818196"><ele>30.0</ele><time>2026-04-06T09:10:56Z</time></trkpt><trkpt lat="43.67125010095372" lon="10.738465657321093"><ele>30.0</ele><time>2026-04-06T09:10:57Z</time></trkpt><trkpt lat="43.67121759127622" lon="10.738299922733761"><ele>30.0</ele><time>2026-04-06T09:10:58Z</time></trkpt><trkpt lat="43.67118910735137" lon="10.738131777637811"><ele>30.0</ele><time>2026-04-06T09:10:59Z</time></trkpt><trkpt lat="43.671160761054324" lon="10.737963101147349"><ele>30.0</ele><time>2026-04-06T09:11:00Z</time></trkpt><trkpt lat="43.671141283622845" lon="10.737791252836473"><ele>29.75</ele><time>2026-04-06T09:11:01Z</time></trkpt><trkpt lat="43.67112508367594" lon="10.73761987154265"><ele>29.5</ele><time>2026-04-06T09:11:02Z</time></trkpt><trkpt lat="43.671112126092986" lon="10.737444389057694"><ele>29.25</ele><time>2026-04-06T09:11:03Z</time></trkpt><trkpt lat="43.671105567356626" lon="10.737273166784622"><ele>29.0</ele><time>2026-04-06T09:11:04Z</time></trkpt><trkpt lat="43.671095466756114" lon="10.73709884821377"><ele>28.25</ele><time>2026-04-06T09:11:05Z</time></trkpt><trkpt lat="43.67108796929957" lon="10.736906802718845"><ele>27.5</ele><time>2026-04-06T09:11:06Z</time></trkpt><trkpt lat="43.6710812078373" lon="10.736718376030446"><ele>26.75</ele><time>2026-04-06T09:11:07Z</time></trkpt><trkpt lat="43.671080747629155" lon="10.7365270500438"><ele>26.0</ele><time>2026-04-06T09:11:08Z</time></trkpt><trkpt lat="43.67107811853568" lon="10.736335316596303"><ele>25.75</ele><time>2026-04-06T09:11:09Z</time></trkpt><trkpt lat="43.67108272770256" lon="10.736139465759225"><ele>25.5</ele><time>2026-04-06T09:11:10Z</time></trkpt><trkpt lat="43.67108271384348" lon="10.735944887061157"><ele>25.25</ele><time>2026-04-06T09:11:11Z</time></trkpt><trkpt lat="43.67109740869944" lon="10.73575197044953"><ele>25.0</ele><time>2026-04-06T09:11:12Z</time></trkpt><trkpt lat="43.67111077016277" lon="10.735560643571358"><ele>25.0</ele><time>2026-04-06T09:11:13Z</time></trkpt><trkpt lat="43.6711246138357" lon="10.735366249179355"><ele>25.0</ele><time>2026-04-06T09:11:14Z</time></trkpt><trkpt lat="43.6711368581423" lon="10.735170445195674"><ele>25.0</ele><time>2026-04-06T09:11:15Z</time></trkpt><trkpt lat="43.67114968438728" lon="10.734981184584722"><ele>25.0</ele><time>2026-04-06T09:11:16Z</time></trkpt><trkpt lat="43.67116918114373" lon="10.734791938038757"><ele>25.0</ele><time>2026-04-06T09:11:17Z</time></trkpt><trkpt lat="43.6711770968024" lon="10.734606839956056"><ele>25.0</ele><time>2026-04-06T09:11:18Z</time></trkpt><trkpt lat="43.671190146893885" lon="10.734441964890925"><ele>25.0</ele><time>2026-04-06T09:11:19Z</time></trkpt><trkpt lat="43.67119685060961" lon="10.734281240402181"><ele>25.0</ele><time>2026-04-06T09:11:20Z</time></trkpt><trkpt lat="43.67120690843027" lon="10.734128402599167"><ele>25.0</ele><time>2026-04-06T09:11:21Z</time></trkpt><trkpt lat="43.671224373160214" lon="10.733976762583927"><ele>25.0</ele><time>2026-04-06T09:11:22Z</time></trkpt><trkpt lat="43.671244633426376" lon="10.733824645179395"><ele>25.0</ele><time>2026-04-06T09:11:23Z</time></trkpt><trkpt lat="43.67125993861391" lon="10.733669195883705"><ele>25.0</ele><time>2026-04-06T09:11:24Z</time></trkpt><trkpt lat="43.67127082769578" lon="10.733519503853273"><ele>25.0</ele><time>2026-04-06T09:11:25Z</time></trkpt><trkpt lat="43.671284843235384" lon="10.733373327388671"><ele>25.0</ele><time>2026-04-06T09:11:26Z</time></trkpt><trkpt lat="43.67129582364389" lon="10.733220685126975"><ele>25.0</ele><time>2026-04-06T09:11:27Z</time></trkpt><trkpt lat="43.67131005379424" lon="10.733078410822477"><ele>25.0</ele><time>2026-04-06T09:11:28Z</time></trkpt><trkpt lat="43.671323990474995" lon="10.732934363259078"><ele>25.0</ele><time>2026-04-06T09:11:29Z</time></trkpt><trkpt lat="43.67133778798372" lon="10.732794471590854"><ele>25.0</ele><time>2026-04-06T09:11:30Z</time></trkpt><trkpt lat="43.67134993637899" lon="10.732655962057935"><ele>24.8</ele><time>2026-04-06T09:11:31Z</time></trkpt><trkpt lat="43.67136468777078" lon="10.7325164556755"><ele>24.6</ele><time>2026-04-06T09:11:32Z</time></trkpt><trkpt lat="43.671373925793475" lon="10.732373109434187"><ele>24.4</ele><time>2026-04-06T09:11:33Z</time></trkpt><trkpt lat="43.671387393550845" lon="10.732238251794948"><ele>24.2</ele><time>2026-04-06T09:11:34Z</time></trkpt><trkpt lat="43.67139956424362" lon="10.732093171939043"><ele>24.0</ele><time>2026-04-06T09:11:35Z</time></trkpt><trkpt lat="43.67141215185492" lon="10.731952008329069"><ele>23.6</ele><time>2026-04-06T09:11:36Z</time></trkpt><trkpt lat="43.671423310890404" lon="10.731812408635886"><ele>23.2</ele><time>2026-04-06T09:11:37Z</time></trkpt><trkpt lat="43.67143682052916" lon="10.731669930436029"><ele>22.8</ele><time>2026-04-06T09:11:38Z</time></trkpt><trkpt lat="43.67144767001739" lon="10.731529625313078"><ele>22.400000000000002</ele><time>2026-04-06T09:11:39Z</time></trkpt><trkpt lat="43.671458378062766" lon="10.731400910222394"><ele>22.0</ele><time>2026-04-06T09:11:40Z</time></trkpt><trkpt lat="43.671467698811774" lon="10.731284956568777"><ele>22.0</ele><time>2026-04-06T09:11:41Z</time></trkpt><trkpt lat="43.67147587518866" lon="10.73117422209384"><ele>22.0</ele><time>2026-04-06T09:11:42Z</time></trkpt><trkpt lat="43.67148399095307" lon="10.731071238192563"><ele>22.0</ele><time>2026-04-06T09:11:43Z</time></trkpt><trkpt lat="43.67149291773034" lon="10.730973045843598"><ele>22.0</ele><time>2026-04-06T09:11:44Z</time></trkpt><trkpt lat="43.67150255978271" lon="10.730874496671651"><ele>22.0</ele><time>2026-04-06T09:11:45Z</time></trkpt><trkpt lat="43.6715116196443" lon="10.730782148583879"><ele>22.0</ele><time>2026-04-06T09:11:46Z</time></trkpt><trkpt lat="43.67152027373872" lon="10.730691988664136"><ele>22.0</ele><time>2026-04-06T09:11:47Z</time></trkpt><trkpt lat="43.671533707274946" lon="10.730536777521753"><ele>22.333333333333332</ele><time>2026-04-06T09:11:49Z</time></trkpt><trkpt lat="43.67154537047355" lon="10.730393786959256"><ele>22.666666666666664</ele><time>2026-04-06T09:11:51Z</time></trkpt><trkpt lat="43.67155569810075" lon="10.730264884396263"><ele>23.0</ele><time>2026-04-06T09:11:53Z</time></trkpt><trkpt lat="43.67156296173227" lon="10.730165979506966"><ele>23.333333333333332</ele><time>2026-04-06T09:11:55Z</time></trkpt><trkpt lat="43.671570026918324" lon="10.730073234016904"><ele>23.666666666666668</ele><time>2026-04-06T09:11:57Z</time></trkpt><trkpt lat="43.671579200159634" lon="10.72994657917576"><ele>24.0</ele><time>2026-04-06T09:11:59.999Z</time></trkpt><trkpt lat="43.67159432703366" lon="10.729815808392601"><ele>24.2</ele><time>2026-04-06T09:12:01.999Z</time></trkpt><trkpt lat="43.671608563897934" lon="10.729661872019845"><ele>24.4</ele><time>2026-04-06T09:12:03.999Z</time></trkpt><trkpt lat="43.67161972287814" lon="10.72950304151447"><ele>24.6</ele><time>2026-04-06T09:12:05.999Z</time></trkpt><trkpt lat="43.67163329588898" lon="10.72932893440583"><ele>24.8</ele><time>2026-04-06T09:12:07.999Z</time></trkpt><trkpt lat="43.67164274162644" lon="10.729228294152753"><ele>25.0</ele><time>2026-04-06T09:12:08.999Z</time></trkpt><trkpt lat="43.67165290789528" lon="10.729121214433281"><ele>25.000000000000004</ele><time>2026-04-06T09:12:09.999Z</time></trkpt><trkpt lat="43.67166318036385" lon="10.729004469643035"><ele>25.0</ele><time>2026-04-06T09:12:10.999Z</time></trkpt><trkpt lat="43.67167634777182" lon="10.72889784436613"><ele>25.0</ele><time>2026-04-06T09:12:12.001Z</time></trkpt><trkpt lat="43.67168355087876" lon="10.728775576446978"><ele>25.0</ele><time>2026-04-06T09:12:13.001Z</time></trkpt><trkpt lat="43.67169481625992" lon="10.72866258331125"><ele>25.000000000000004</ele><time>2026-04-06T09:12:14.001Z</time></trkpt><trkpt lat="43.67170666085728" lon="10.72854306522785"><ele>25.0</ele><time>2026-04-06T09:12:15.001Z</time></trkpt><trkpt lat="43.6717156271703" lon="10.72840386768476"><ele>25.2</ele><time>2026-04-06T09:12:16.001Z</time></trkpt><trkpt lat="43.671728369151474" lon="10.728262392847423"><ele>25.4</ele><time>2026-04-06T09:12:17.001Z</time></trkpt><trkpt lat="43.67174119025953" lon="10.72811542596622"><ele>25.6</ele><time>2026-04-06T09:12:18.001Z</time></trkpt><trkpt lat="43.671754349491586" lon="10.727965582130333"><ele>25.8</ele><time>2026-04-06T09:12:19.001Z</time></trkpt><trkpt lat="43.67176738374673" lon="10.727812728547118"><ele>26.0</ele><time>2026-04-06T09:12:20.001Z</time></trkpt><trkpt lat="43.67178086874798" lon="10.727659600613622"><ele>26.0</ele><time>2026-04-06T09:12:21.001Z</time></trkpt><trkpt lat="43.6718072615339" lon="10.727495068030134"><ele>26.0</ele><time>2026-04-06T09:12:22.001Z</time></trkpt><trkpt lat="43.6718053718924" lon="10.727370464699078"><ele>26.0</ele><time>2026-04-06T09:12:23.001Z</time></trkpt><trkpt lat="43.67181870325944" lon="10.727245537292927"><ele>26.0</ele><time>2026-04-06T09:12:24.001Z</time></trkpt><trkpt lat="43.67183189532745" lon="10.727134866271522"><ele>26.0</ele><time>2026-04-06T09:12:25.001Z</time></trkpt><trkpt lat="43.67183772853304" lon="10.727039670717112"><ele>25.166666666666664</ele><time>2026-04-06T09:12:26.001Z</time></trkpt><trkpt lat="43.67184867999753" lon="10.7268767569163"><ele>24.333333333333332</ele><time>2026-04-06T09:12:28.001Z</time></trkpt><trkpt lat="43.671858316681025" lon="10.726741493880315"><ele>23.5</ele><time>2026-04-06T09:12:30Z</time></trkpt><trkpt lat="43.67186423976235" lon="10.726628259051113"><ele>22.666666666666664</ele><time>2026-04-06T09:12:32Z</time></trkpt><trkpt lat="43.67186520204726" lon="10.72653605271495"><ele>21.833333333333332</ele><time>2026-04-06T09:12:34Z</time></trkpt><trkpt lat="43.67186764969557" lon="10.726444003892679"><ele>21.0</ele><time>2026-04-06T09:12:37Z</time></trkpt><trkpt lat="43.67186747280162" lon="10.72632490090616"><ele>21.0</ele><time>2026-04-06T09:12:41Z</time></trkpt><trkpt lat="43.6718720679395" lon="10.726189336849151"><ele>21.0</ele><time>2026-04-06T09:12:43Z</time></trkpt><trkpt lat="43.67187396838341" lon="10.726083211798098"><ele>21.0</ele><time>2026-04-06T09:12:45Z</time></trkpt><trkpt lat="43.67187719538134" lon="10.725995627707995"><ele>21.0</ele><time>2026-04-06T09:12:47Z</time></trkpt><trkpt lat="43.67188050804293" lon="10.725905923686692"><ele>21.0</ele><time>2026-04-06T09:12:49Z</time></trkpt><trkpt lat="43.67187838991168" lon="10.72577541165186"><ele>21.0</ele><time>2026-04-06T09:12:52Z</time></trkpt><trkpt lat="43.671876883459234" lon="10.725661183118408"><ele>21.0</ele><time>2026-04-06T09:12:54Z</time></trkpt><trkpt lat="43.67187207835687" lon="10.725556336151476"><ele>21.0</ele><time>2026-04-06T09:12:56Z</time></trkpt><trkpt lat="43.67186759589455" lon="10.725434671544644"><ele>21.0</ele><time>2026-04-06T09:12:58Z</time></trkpt><trkpt lat="43.67186909280373" lon="10.725318276528428"><ele>21.0</ele><time>2026-04-06T09:13:00Z</time></trkpt><trkpt lat="43.671863669544436" lon="10.725221122436068"><ele>21.0</ele><time>2026-04-06T09:13:02Z</time></trkpt><trkpt lat="43.67185757656066" lon="10.72512790676868"><ele>21.0</ele><time>2026-04-06T09:13:04Z</time></trkpt><trkpt lat="43.67185149522996" lon="10.725034362996372"><ele>21.142857142857142</ele><time>2026-04-06T09:13:06Z</time></trkpt><trkpt lat="43.67184310103558" lon="10.724939387953505"><ele>21.285714285714285</ele><time>2026-04-06T09:13:13Z</time></trkpt><trkpt lat="43.67183127085776" lon="10.724827995192488"><ele>21.42857142857143</ele><time>2026-04-06T09:13:31Z</time></trkpt><trkpt lat="43.67182847990522" lon="10.724712785627709"><ele>21.57142857142857</ele><time>2026-04-06T09:13:34Z</time></trkpt><trkpt lat="43.671823895401246" lon="10.724625842803844"><ele>21.714285714285715</ele><time>2026-04-06T09:13:37Z</time></trkpt><trkpt lat="43.67180330134944" lon="10.724522225021783"><ele>21.857142857142858</ele><time>2026-04-06T09:14:04Z</time></trkpt><trkpt lat="43.67179069506247" lon="10.724427647734078"><ele>22.0</ele><time>2026-04-06T09:14:06Z</time></trkpt><trkpt lat="43.671775783824046" lon="10.724297360836173"><ele>22.0</ele><time>2026-04-06T09:14:08Z</time></trkpt><trkpt lat="43.67176139894723" lon="10.724157564676181"><ele>22.0</ele><time>2026-04-06T09:14:10Z</time></trkpt><trkpt lat="43.671758547720955" lon="10.724042053523174"><ele>22.0</ele><time>2026-04-06T09:14:12.999Z</time></trkpt><trkpt lat="43.67176510235046" lon="10.724161798838296"><ele>22.0</ele><time>2026-04-06T09:14:13.999Z</time></trkpt><trkpt lat="43.6717355572703" lon="10.724039865832777"><ele>22.0</ele><time>2026-04-06T09:14:35Z</time></trkpt><trkpt lat="43.67172348886153" lon="10.72394380977716"><ele>22.0</ele><time>2026-04-06T09:14:37Z</time></trkpt><trkpt lat="43.67169986268083" lon="10.723829273152672"><ele>22.0</ele><time>2026-04-06T09:14:40Z</time></trkpt><trkpt lat="43.67168446968353" lon="10.723738323752098"><ele>22.0</ele><time>2026-04-06T09:14:45Z</time></trkpt><trkpt lat="43.67166390322197" lon="10.723652626110638"><ele>22.0</ele><time>2026-04-06T09:15:00Z</time></trkpt><trkpt lat="43.67164590936116" lon="10.723548962032629"><ele>22.0</ele><time>2026-04-06T09:15:02Z</time></trkpt><trkpt lat="43.67162617913853" lon="10.723452691397565"><ele>22.0</ele><time>2026-04-06T09:15:04Z</time></trkpt><trkpt lat="43.67160472087661" lon="10.723342219759367"><ele>22.0</ele><time>2026-04-06T09:15:06Z</time></trkpt><trkpt lat="43.67157829807099" lon="10.723212740234498"><ele>21.857142857142858</ele><time>2026-04-06T09:15:08Z</time></trkpt><trkpt lat="43.67154424225169" lon="10.72306494697082"><ele>21.714285714285715</ele><time>2026-04-06T09:15:10Z</time></trkpt><trkpt lat="43.67152314262724" lon="10.722980668475603"><ele>21.57142857142857</ele><time>2026-04-06T09:15:11Z</time></trkpt><trkpt lat="43.67150326597599" lon="10.722896156664678"><ele>21.42857142857143</ele><time>2026-04-06T09:15:12Z</time></trkpt><trkpt lat="43.671482476351024" lon="10.722809125060914"><ele>21.285714285714285</ele><time>2026-04-06T09:15:13Z</time></trkpt><trkpt lat="43.67146187189787" lon="10.722722982724376"><ele>21.142857142857142</ele><time>2026-04-06T09:15:14Z</time></trkpt><trkpt lat="43.67144147415199" lon="10.722631939677907"><ele>21.0</ele><time>2026-04-06T09:15:15Z</time></trkpt><trkpt lat="43.67142547470436" lon="10.72253966972544"><ele>21.0</ele><time>2026-04-06T09:15:16Z</time></trkpt><trkpt lat="43.67141389663126" lon="10.722443440703566"><ele>21.0</ele><time>2026-04-06T09:15:17Z</time></trkpt><trkpt lat="43.67138882349779" lon="10.722299070232632"><ele>21.0</ele><time>2026-04-06T09:15:19Z</time></trkpt><trkpt lat="43.671369343999366" lon="10.722202784695128"><ele>21.0</ele><time>2026-04-06T09:15:22Z</time></trkpt><trkpt lat="43.67131659355128" lon="10.722063911633152"><ele>21.0</ele><time>2026-04-06T09:16:57Z</time></trkpt><trkpt lat="43.67128429772307" lon="10.721963627591727"><ele>21.0</ele><time>2026-04-06T09:16:58Z</time></trkpt><trkpt lat="43.671240971541586" lon="10.721828545048878"><ele>21.0</ele><time>2026-04-06T09:16:59Z</time></trkpt><trkpt lat="43.67119992306763" lon="10.721688504802257"><ele>21.0</ele><time>2026-04-06T09:17:00Z</time></trkpt><trkpt lat="43.67115891356423" lon="10.721535504316572"><ele>21.0</ele><time>2026-04-06T09:17:01Z</time></trkpt><trkpt lat="43.6711151002997" lon="10.721377538488282"><ele>21.0</ele><time>2026-04-06T09:17:02Z</time></trkpt><trkpt lat="43.67107261183308" lon="10.721205944752242"><ele>21.5</ele><time>2026-04-06T09:17:03Z</time></trkpt><trkpt lat="43.671030785861646" lon="10.721033567134349"><ele>22.0</ele><time>2026-04-06T09:17:04Z</time></trkpt><trkpt lat="43.67098616992808" lon="10.720854659194368"><ele>22.5</ele><time>2026-04-06T09:17:05Z</time></trkpt><trkpt lat="43.670946021459926" lon="10.720690586803899"><ele>23.0</ele><time>2026-04-06T09:17:06Z</time></trkpt><trkpt lat="43.67090655617182" lon="10.720519246577016"><ele>23.0</ele><time>2026-04-06T09:17:07Z</time></trkpt><trkpt lat="43.67086526561134" lon="10.72034496245538"><ele>23.0</ele><time>2026-04-06T09:17:08Z</time></trkpt><trkpt lat="43.67082199200255" lon="10.720168475857069"><ele>23.0</ele><time>2026-04-06T09:17:09Z</time></trkpt><trkpt lat="43.670777611548864" lon="10.719986903728845"><ele>23.0</ele><time>2026-04-06T09:17:10Z</time></trkpt><trkpt lat="43.67073158942714" lon="10.719802235354065"><ele>22.75</ele><time>2026-04-06T09:17:11Z</time></trkpt><trkpt lat="43.670682347041634" lon="10.719610955243482"><ele>22.5</ele><time>2026-04-06T09:17:12Z</time></trkpt><trkpt lat="43.670635478241074" lon="10.719415166823852"><ele>22.25</ele><time>2026-04-06T09:17:13Z</time></trkpt><trkpt lat="43.67058678579978" lon="10.719215884654464"><ele>22.0</ele><time>2026-04-06T09:17:14Z</time></trkpt><trkpt lat="43.67053607264437" lon="10.719008927002243"><ele>21.333333333333332</ele><time>2026-04-06T09:17:15Z</time></trkpt><trkpt lat="43.67048428098531" lon="10.718802699877157"><ele>20.666666666666668</ele><time>2026-04-06T09:17:16Z</time></trkpt><trkpt lat="43.67043082926176" lon="10.718590154328668"><ele>20.0</ele><time>2026-04-06T09:17:17Z</time></trkpt><trkpt lat="43.670376277399406" lon="10.718379645340391"><ele>20.0</ele><time>2026-04-06T09:17:18Z</time></trkpt><trkpt lat="43.670317733402776" lon="10.718160530304552"><ele>20.0</ele><time>2026-04-06T09:17:19Z</time></trkpt><trkpt lat="43.670259928530754" lon="10.717947465801956"><ele>20.0</ele><time>2026-04-06T09:17:20Z</time></trkpt><trkpt lat="43.67020160878931" lon="10.717732817549193"><ele>20.0</ele><time>2026-04-06T09:17:21Z</time></trkpt><trkpt lat="43.67014468750822" lon="10.717514630144326"><ele>20.0</ele><time>2026-04-06T09:17:22Z</time></trkpt><trkpt lat="43.67008840333275" lon="10.717291006432973"><ele>20.0</ele><time>2026-04-06T09:17:23Z</time></trkpt><trkpt lat="43.67003194707085" lon="10.717067747408807"><ele>20.0</ele><time>2026-04-06T09:17:24Z</time></trkpt><trkpt lat="43.669975669884025" lon="10.716844897920721"><ele>20.0</ele><time>2026-04-06T09:17:25Z</time></trkpt><trkpt lat="43.66992330239363" lon="10.716633261340071"><ele>20.0</ele><time>2026-04-06T09:17:26Z</time></trkpt><trkpt lat="43.66987453602765" lon="10.716434728679705"><ele>20.0</ele><time>2026-04-06T09:17:27Z</time></trkpt><trkpt lat="43.66982841452738" lon="10.716250275985328"><ele>20.0</ele><time>2026-04-06T09:17:28Z</time></trkpt><trkpt lat="43.669779155308" lon="10.71606676950378"><ele>20.0</ele><time>2026-04-06T09:17:29Z</time></trkpt><trkpt lat="43.66973392222512" lon="10.715887196870488"><ele>20.0</ele><time>2026-04-06T09:17:30Z</time></trkpt><trkpt lat="43.669683591889424" lon="10.715696147156317"><ele>20.0</ele><time>2026-04-06T09:17:31Z</time></trkpt><trkpt lat="43.66962938272962" lon="10.715499201737531"><ele>20.0</ele><time>2026-04-06T09:17:32Z</time></trkpt><trkpt lat="43.66957321520862" lon="10.715304221537073"><ele>20.0</ele><time>2026-04-06T09:17:33Z</time></trkpt><trkpt lat="43.669511844879345" lon="10.715110173739157"><ele>20.0</ele><time>2026-04-06T09:17:34Z</time></trkpt><trkpt lat="43.669451652387274" lon="10.714926211966922"><ele>20.0</ele><time>2026-04-06T09:17:35Z</time></trkpt><trkpt lat="43.6693916736742" lon="10.714754010806507"><ele>20.0</ele><time>2026-04-06T09:17:36Z</time></trkpt><trkpt lat="43.66933290012152" lon="10.714591848846784"><ele>20.0</ele><time>2026-04-06T09:17:37Z</time></trkpt><trkpt lat="43.6692715118915" lon="10.714426977241002"><ele>19.75</ele><time>2026-04-06T09:17:38Z</time></trkpt><trkpt lat="43.66920826151901" lon="10.714260661826808"><ele>19.5</ele><time>2026-04-06T09:17:39Z</time></trkpt><trkpt lat="43.669141613817146" lon="10.714089637914153"><ele>19.25</ele><time>2026-04-06T09:17:40Z</time></trkpt><trkpt lat="43.66906860430861" lon="10.713919782179484"><ele>19.0</ele><time>2026-04-06T09:17:41Z</time></trkpt><trkpt lat="43.66899091484328" lon="10.713751660249741"><ele>19.0</ele><time>2026-04-06T09:17:42Z</time></trkpt><trkpt lat="43.66891149756625" lon="10.713589826050235"><ele>19.0</ele><time>2026-04-06T09:17:43Z</time></trkpt><trkpt lat="43.668825477986765" lon="10.713428130662498"><ele>19.0</ele><time>2026-04-06T09:17:44Z</time></trkpt><trkpt lat="43.668735770352605" lon="10.713270189409643"><ele>19.0</ele><time>2026-04-06T09:17:45Z</time></trkpt><trkpt lat="43.66864494375492" lon="10.71311776729388"><ele>19.25</ele><time>2026-04-06T09:17:46Z</time></trkpt><trkpt lat="43.66855645834282" lon="10.712973282603008"><ele>19.5</ele><time>2026-04-06T09:17:47Z</time></trkpt><trkpt lat="43.66846890776191" lon="10.712838002384073"><ele>19.75</ele><time>2026-04-06T09:17:48Z</time></trkpt><trkpt lat="43.66838040277948" lon="10.712698816682495"><ele>20.0</ele><time>2026-04-06T09:17:49Z</time></trkpt><trkpt lat="43.66828660913668" lon="10.712565113304706"><ele>20.25</ele><time>2026-04-06T09:17:50Z</time></trkpt><trkpt lat="43.66819360235129" lon="10.712431040287052"><ele>20.5</ele><time>2026-04-06T09:17:51Z</time></trkpt><trkpt lat="43.668095030782276" lon="10.712303240975386"><ele>20.75</ele><time>2026-04-06T09:17:52Z</time></trkpt><trkpt lat="43.667995964347796" lon="10.7121777521638"><ele>21.0</ele><time>2026-04-06T09:17:53Z</time></trkpt><trkpt lat="43.66789492356184" lon="10.712054110759015"><ele>21.0</ele><time>2026-04-06T09:17:54Z</time></trkpt><trkpt lat="43.66779347115204" lon="10.711935884097455"><ele>21.0</ele><time>2026-04-06T09:17:55Z</time></trkpt><trkpt lat="43.667691367227825" lon="10.711823365054864"><ele>21.0</ele><time>2026-04-06T09:17:56Z</time></trkpt><trkpt lat="43.66758700101386" lon="10.71171192045894"><ele>21.0</ele><time>2026-04-06T09:17:57Z</time></trkpt><trkpt lat="43.66748585420165" lon="10.711597261679888"><ele>20.5</ele><time>2026-04-06T09:17:58Z</time></trkpt><trkpt lat="43.66738419554601" lon="10.71148994551401"><ele>20.0</ele><time>2026-04-06T09:17:59Z</time></trkpt><trkpt lat="43.66727575970707" lon="10.711386060461782"><ele>19.5</ele><time>2026-04-06T09:18:00Z</time></trkpt><trkpt lat="43.6671653944249" lon="10.711282313141803"><ele>19.0</ele><time>2026-04-06T09:18:01Z</time></trkpt><trkpt lat="43.66705229412298" lon="10.711183482267558"><ele>19.25</ele><time>2026-04-06T09:18:02Z</time></trkpt><trkpt lat="43.666931785996496" lon="10.711092067393743"><ele>19.5</ele><time>2026-04-06T09:18:03Z</time></trkpt><trkpt lat="43.666817484185536" lon="10.710998226992379"><ele>19.75</ele><time>2026-04-06T09:18:04Z</time></trkpt><trkpt lat="43.66670652590302" lon="10.710895827096937"><ele>20.0</ele><time>2026-04-06T09:18:05Z</time></trkpt><trkpt lat="43.66659174021719" lon="10.710804085737236"><ele>20.25</ele><time>2026-04-06T09:18:06Z</time></trkpt><trkpt lat="43.666478418480594" lon="10.710708211171896"><ele>20.5</ele><time>2026-04-06T09:18:07Z</time></trkpt><trkpt lat="43.66636703959312" lon="10.710610298967731"><ele>20.75</ele><time>2026-04-06T09:18:08Z</time></trkpt><trkpt lat="43.66625184557519" lon="10.710518230781966"><ele>21.0</ele><time>2026-04-06T09:18:09Z</time></trkpt><trkpt lat="43.666134923903456" lon="10.710424736752639"><ele>21.0</ele><time>2026-04-06T09:18:10Z</time></trkpt><trkpt lat="43.66601657595007" lon="10.710332531027742"><ele>21.0</ele><time>2026-04-06T09:18:11Z</time></trkpt><trkpt lat="43.665899956278416" lon="10.710236010371835"><ele>21.0</ele><time>2026-04-06T09:18:12Z</time></trkpt><trkpt lat="43.66578430456764" lon="10.710136730107934"><ele>21.0</ele><time>2026-04-06T09:18:13Z</time></trkpt><trkpt lat="43.665668402769214" lon="10.710031936993865"><ele>21.0</ele><time>2026-04-06T09:18:14Z</time></trkpt><trkpt lat="43.66555837487674" lon="10.709929468312252"><ele>21.0</ele><time>2026-04-06T09:18:15Z</time></trkpt><trkpt lat="43.6654512371894" lon="10.709830766591594"><ele>21.0</ele><time>2026-04-06T09:18:16Z</time></trkpt><trkpt lat="43.665352516807836" lon="10.709740120863641"><ele>21.0</ele><time>2026-04-06T09:18:17Z</time></trkpt><trkpt lat="43.66526329940686" lon="10.709649529078938"><ele>21.6</ele><time>2026-04-06T09:18:18Z</time></trkpt><trkpt lat="43.66517964601439" lon="10.709564997756154"><ele>22.200000000000003</ele><time>2026-04-06T09:18:19Z</time></trkpt><trkpt lat="43.66510127986761" lon="10.709480496897045"><ele>22.799999999999997</ele><time>2026-04-06T09:18:19.999Z</time></trkpt><trkpt lat="43.66502805807128" lon="10.709394241079542"><ele>23.4</ele><time>2026-04-06T09:18:20.999Z</time></trkpt><trkpt lat="43.66496207142364" lon="10.709314265189683"><ele>24.0</ele><time>2026-04-06T09:18:21.999Z</time></trkpt><trkpt lat="43.66489504777161" lon="10.70923469935904"><ele>24.0</ele><time>2026-04-06T09:18:22.999Z</time></trkpt><trkpt lat="43.66482641025701" lon="10.709146688255352"><ele>24.0</ele><time>2026-04-06T09:18:23.999Z</time></trkpt><trkpt lat="43.66475320757699" lon="10.709055410599294"><ele>24.0</ele><time>2026-04-06T09:18:24.999Z</time></trkpt><trkpt lat="43.66468214529098" lon="10.708962267985038"><ele>24.0</ele><time>2026-04-06T09:18:25.999Z</time></trkpt><trkpt lat="43.66461170090961" lon="10.708864779116327"><ele>24.0</ele><time>2026-04-06T09:18:26.999Z</time></trkpt><trkpt lat="43.6645467383947" lon="10.708772344911733"><ele>24.0</ele><time>2026-04-06T09:18:27.999Z</time></trkpt><trkpt lat="43.66448097024232" lon="10.708669998617168"><ele>24.0</ele><time>2026-04-06T09:18:28.999Z</time></trkpt><trkpt lat="43.66442061831122" lon="10.708574653921394"><ele>24.0</ele><time>2026-04-06T09:18:30Z</time></trkpt><trkpt lat="43.6643602374644" lon="10.708480191628535"><ele>24.0</ele><time>2026-04-06T09:18:31Z</time></trkpt><trkpt lat="43.664304290537665" lon="10.708386127892853"><ele>24.0</ele><time>2026-04-06T09:18:32Z</time></trkpt><trkpt lat="43.664250467961956" lon="10.708294510709758"><ele>24.2</ele><time>2026-04-06T09:18:33Z</time></trkpt><trkpt lat="43.664196953713855" lon="10.708199457366216"><ele>24.4</ele><time>2026-04-06T09:18:34Z</time></trkpt><trkpt lat="43.664142546604765" lon="10.708102143480202"><ele>24.6</ele><time>2026-04-06T09:18:35Z</time></trkpt><trkpt lat="43.66408968124023" lon="10.70800157349326"><ele>24.8</ele><time>2026-04-06T09:18:36Z</time></trkpt><trkpt lat="43.66403724977242" lon="10.707897711204014"><ele>25.0</ele><time>2026-04-06T09:18:37Z</time></trkpt><trkpt lat="43.6639836773282" lon="10.707790658328229"><ele>25.166666666666668</ele><time>2026-04-06T09:18:38Z</time></trkpt><trkpt lat="43.66393459689935" lon="10.707682860188546"><ele>25.333333333333336</ele><time>2026-04-06T09:18:39Z</time></trkpt><trkpt lat="43.66388764348465" lon="10.707581808698622"><ele>25.5</ele><time>2026-04-06T09:18:40Z</time></trkpt><trkpt lat="43.66384795720832" lon="10.70749546087673"><ele>25.666666666666664</ele><time>2026-04-06T09:18:41Z</time></trkpt><trkpt lat="43.66381300058563" lon="10.70741433417896"><ele>25.833333333333332</ele><time>2026-04-06T09:18:42Z</time></trkpt><trkpt lat="43.66377998948261" lon="10.70733494493618"><ele>26.0</ele><time>2026-04-06T09:18:43Z</time></trkpt><trkpt lat="43.663720320592994" lon="10.707187587212205"><ele>25.999999999999996</ele><time>2026-04-06T09:18:45Z</time></trkpt><trkpt lat="43.66366764874215" lon="10.707059253485525"><ele>26.0</ele><time>2026-04-06T09:18:47Z</time></trkpt><trkpt lat="43.66360742342291" lon="10.706907850783834"><ele>26.0</ele><time>2026-04-06T09:18:49Z</time></trkpt><trkpt lat="43.66357550500769" lon="10.70682705990131"><ele>26.0</ele><time>2026-04-06T09:18:50Z</time></trkpt><trkpt lat="43.663544797829786" lon="10.706749623590014"><ele>25.999999999999996</ele><time>2026-04-06T09:18:51Z</time></trkpt><trkpt lat="43.66351333440328" lon="10.706672532272542"><ele>26.0</ele><time>2026-04-06T09:18:52Z</time></trkpt><trkpt lat="43.66345222196919" lon="10.706521198690357"><ele>25.999999999999996</ele><time>2026-04-06T09:18:54Z</time></trkpt><trkpt lat="43.663393060827104" lon="10.70637353340471"><ele>26.0</ele><time>2026-04-06T09:18:56Z</time></trkpt><trkpt lat="43.663331010559915" lon="10.706220175943688"><ele>26.0</ele><time>2026-04-06T09:18:58Z</time></trkpt><trkpt lat="43.66330062715706" lon="10.706139696413356"><ele>26.0</ele><time>2026-04-06T09:18:59Z</time></trkpt><trkpt lat="43.66327139457926" lon="10.70605904345402"><ele>25.999999999999996</ele><time>2026-04-06T09:19:00Z</time></trkpt><trkpt lat="43.66324307993356" lon="10.705975032918214"><ele>26.0</ele><time>2026-04-06T09:19:01Z</time></trkpt><trkpt lat="43.66321336272181" lon="10.705892925271268"><ele>26.0</ele><time>2026-04-06T09:19:02Z</time></trkpt><trkpt lat="43.663153239774736" lon="10.705743684692777"><ele>26.0</ele><time>2026-04-06T09:19:04Z</time></trkpt><trkpt lat="43.663094356130124" lon="10.705595485255035"><ele>26.0</ele><time>2026-04-06T09:19:06Z</time></trkpt><trkpt lat="43.663040931869254" lon="10.705458249446847"><ele>26.0</ele><time>2026-04-06T09:19:08Z</time></trkpt><trkpt lat="43.66299303943238" lon="10.705335638926547"><ele>26.666666666666664</ele><time>2026-04-06T09:19:10Z</time></trkpt><trkpt lat="43.662942855360356" lon="10.705209864142503"><ele>27.333333333333332</ele><time>2026-04-06T09:19:12Z</time></trkpt><trkpt lat="43.66289321606861" lon="10.705087387536649"><ele>28.0</ele><time>2026-04-06T09:19:14Z</time></trkpt><trkpt lat="43.66285259158871" lon="10.704983654087634"><ele>28.666666666666664</ele><time>2026-04-06T09:19:16Z</time></trkpt><trkpt lat="43.66281739515437" lon="10.704893152857835"><ele>29.333333333333332</ele><time>2026-04-06T09:19:18Z</time></trkpt><trkpt lat="43.66278240181917" lon="10.704810229754779"><ele>30.0</ele><time>2026-04-06T09:19:20Z</time></trkpt><trkpt lat="43.66273969943807" lon="10.70470952769428"><ele>29.833333333333332</ele><time>2026-04-06T09:19:22Z</time></trkpt><trkpt lat="43.662690034434576" lon="10.704589420984863"><ele>29.666666666666664</ele><time>2026-04-06T09:19:24Z</time></trkpt><trkpt lat="43.66264484283849" lon="10.704478229613587"><ele>29.5</ele><time>2026-04-06T09:19:26Z</time></trkpt><trkpt lat="43.66260971463866" lon="10.704393797870031"><ele>29.333333333333332</ele><time>2026-04-06T09:19:28Z</time></trkpt><trkpt lat="43.662574343789636" lon="10.704311846499131"><ele>29.166666666666664</ele><time>2026-04-06T09:19:55Z</time></trkpt><trkpt lat="43.6625219071239" lon="10.704201626803822"><ele>29.0</ele><time>2026-04-06T09:19:57Z</time></trkpt><trkpt lat="43.662460796741215" lon="10.704067775209309"><ele>28.999999999999996</ele><time>2026-04-06T09:19:59Z</time></trkpt><trkpt lat="43.66239979990555" lon="10.70393558628234"><ele>29.0</ele><time>2026-04-06T09:20:01Z</time></trkpt><trkpt lat="43.662353879803746" lon="10.703841751275029"><ele>29.0</ele><time>2026-04-06T09:20:02.999Z</time></trkpt><trkpt lat="43.662306226728276" lon="10.703743262773827"><ele>29.0</ele><time>2026-04-06T09:20:05.999Z</time></trkpt><trkpt lat="43.662264801331276" lon="10.703652002178151"><ele>28.999999999999996</ele><time>2026-04-06T09:20:07.999Z</time></trkpt><trkpt lat="43.66222004577461" lon="10.703561087915302"><ele>29.0</ele><time>2026-04-06T09:20:09.999Z</time></trkpt><trkpt lat="43.66217728704126" lon="10.703470917920976"><ele>29.285714285714292</ele><time>2026-04-06T09:20:11.999Z</time></trkpt><trkpt lat="43.6621351410263" lon="10.703379724149643"><ele>29.571428571428573</ele><time>2026-04-06T09:20:13.999Z</time></trkpt><trkpt lat="43.662100844538706" lon="10.703297375806768"><ele>29.85714285714286</ele><time>2026-04-06T09:20:15.999Z</time></trkpt><trkpt lat="43.66206804258534" lon="10.703216925050553"><ele>30.142857142857146</ele><time>2026-04-06T09:20:19.999Z</time></trkpt><trkpt lat="43.66202717823355" lon="10.703121100244541"><ele>30.42857142857143</ele><time>2026-04-06T09:20:22.999Z</time></trkpt><trkpt lat="43.6619842107223" lon="10.7030351012196"><ele>30.714285714285715</ele><time>2026-04-06T09:20:25.999Z</time></trkpt><trkpt lat="43.66194506598221" lon="10.702951128339953"><ele>31.0</ele><time>2026-04-06T09:20:28.999Z</time></trkpt><trkpt lat="43.66190216959139" lon="10.70285512760216"><ele>32.4</ele><time>2026-04-06T09:20:30.999Z</time></trkpt><trkpt lat="43.66184871384241" lon="10.702740037186729"><ele>33.8</ele><time>2026-04-06T09:20:32.999Z</time></trkpt><trkpt lat="43.661784372351505" lon="10.702596161127852"><ele>35.199999999999996</ele><time>2026-04-06T09:20:34.999Z</time></trkpt><trkpt lat="43.66174614767025" lon="10.70251046375985"><ele>36.6</ele><time>2026-04-06T09:20:36Z</time></trkpt><trkpt lat="43.661702597079234" lon="10.702415034754592"><ele>38.0</ele><time>2026-04-06T09:20:37Z</time></trkpt><trkpt lat="43.66165431479164" lon="10.702309904447189"><ele>38.0</ele><time>2026-04-06T09:20:38Z</time></trkpt><trkpt lat="43.66160387008801" lon="10.702199636102522"><ele>38.0</ele><time>2026-04-06T09:20:39Z</time></trkpt><trkpt lat="43.66155166169474" lon="10.702082069692082"><ele>38.0</ele><time>2026-04-06T09:20:40Z</time></trkpt><trkpt lat="43.66149715752458" lon="10.701957941104009"><ele>38.0</ele><time>2026-04-06T09:20:41Z</time></trkpt><trkpt lat="43.66143576532076" lon="10.701819475938526"><ele>38.0</ele><time>2026-04-06T09:20:42Z</time></trkpt><trkpt lat="43.66136788898293" lon="10.70166820602046"><ele>39.25</ele><time>2026-04-06T09:20:43Z</time></trkpt><trkpt lat="43.66129865318736" lon="10.701510560352"><ele>40.5</ele><time>2026-04-06T09:20:44Z</time></trkpt><trkpt lat="43.66123137600198" lon="10.701350508545046"><ele>41.75</ele><time>2026-04-06T09:20:45Z</time></trkpt><trkpt lat="43.66115768999127" lon="10.701176436626021"><ele>43.0</ele><time>2026-04-06T09:20:46Z</time></trkpt><trkpt lat="43.661093868907805" lon="10.700995532373252"><ele>43.0</ele><time>2026-04-06T09:20:47Z</time></trkpt><trkpt lat="43.66101170188675" lon="10.700820071611606"><ele>43.0</ele><time>2026-04-06T09:20:48Z</time></trkpt><trkpt lat="43.660947360323235" lon="10.700663247435696"><ele>43.0</ele><time>2026-04-06T09:20:49Z</time></trkpt><trkpt lat="43.6608972074449" lon="10.700511176926149"><ele>43.0</ele><time>2026-04-06T09:20:50Z</time></trkpt><trkpt lat="43.660855330345946" lon="10.700371567541907"><ele>42.199999999999996</ele><time>2026-04-06T09:20:51Z</time></trkpt><trkpt lat="43.660817659375525" lon="10.700240572552412"><ele>41.4</ele><time>2026-04-06T09:20:52Z</time></trkpt><trkpt lat="43.660781656377495" lon="10.70011223312381"><ele>40.599999999999994</ele><time>2026-04-06T09:20:53Z</time></trkpt><trkpt lat="43.66074391096069" lon="10.699976969847945"><ele>39.8</ele><time>2026-04-06T09:20:54Z</time></trkpt><trkpt lat="43.660704342952684" lon="10.69983430460304"><ele>39.0</ele><time>2026-04-06T09:20:55Z</time></trkpt><trkpt lat="43.66066990550026" lon="10.699699702267388"><ele>39.0</ele><time>2026-04-06T09:20:56Z</time></trkpt><trkpt lat="43.660634525150144" lon="10.69956109557379"><ele>39.0</ele><time>2026-04-06T09:20:57Z</time></trkpt><trkpt lat="43.66059959608968" lon="10.699425302501337"><ele>39.0</ele><time>2026-04-06T09:20:58Z</time></trkpt><trkpt lat="43.6605659064327" lon="10.699288351510706"><ele>39.0</ele><time>2026-04-06T09:20:59Z</time></trkpt><trkpt lat="43.660532256912404" lon="10.69914461135235"><ele>39.0</ele><time>2026-04-06T09:21:00Z</time></trkpt><trkpt lat="43.66049818727769" lon="10.698994133914114"><ele>40.0</ele><time>2026-04-06T09:21:01Z</time></trkpt><trkpt lat="43.660459852101205" lon="10.698829113674064"><ele>41.0</ele><time>2026-04-06T09:21:02Z</time></trkpt><trkpt lat="43.660419962303955" lon="10.698659769448605"><ele>42.0</ele><time>2026-04-06T09:21:03Z</time></trkpt><trkpt lat="43.660379035854255" lon="10.69848262388725"><ele>43.0</ele><time>2026-04-06T09:21:04Z</time></trkpt><trkpt lat="43.66033599576701" lon="10.698308494206582"><ele>45.25</ele><time>2026-04-06T09:21:05Z</time></trkpt><trkpt lat="43.6602921913259" lon="10.698131639925176"><ele>47.5</ele><time>2026-04-06T09:21:06Z</time></trkpt><trkpt lat="43.66025074754239" lon="10.697958036930778"><ele>49.75</ele><time>2026-04-06T09:21:07Z</time></trkpt><trkpt lat="43.66020276247645" lon="10.697781275973405"><ele>52.0</ele><time>2026-04-06T09:21:08Z</time></trkpt><trkpt lat="43.660156275498274" lon="10.69759789599863"><ele>52.0</ele><time>2026-04-06T09:21:09Z</time></trkpt><trkpt lat="43.660098509966105" lon="10.697412375765278"><ele>52.0</ele><time>2026-04-06T09:21:10Z</time></trkpt><trkpt lat="43.66005902004619" lon="10.69720127355285"><ele>52.0</ele><time>2026-04-06T09:21:11Z</time></trkpt><trkpt lat="43.66001568962417" lon="10.696962668812212"><ele>50.33333333333333</ele><time>2026-04-06T09:21:12Z</time></trkpt><trkpt lat="43.65996923402093" lon="10.696749600884045"><ele>48.666666666666664</ele><time>2026-04-06T09:21:13Z</time></trkpt><trkpt lat="43.65992292283372" lon="10.696549434260469"><ele>47.0</ele><time>2026-04-06T09:21:14Z</time></trkpt><trkpt lat="43.65988209194259" lon="10.696349034079327"><ele>47.0</ele><time>2026-04-06T09:21:15Z</time></trkpt><trkpt lat="43.65983423244107" lon="10.696159630420626"><ele>47.0</ele><time>2026-04-06T09:21:16Z</time></trkpt><trkpt lat="43.6597893008989" lon="10.695967849565205"><ele>47.0</ele><time>2026-04-06T09:21:17Z</time></trkpt><trkpt lat="43.659742914076084" lon="10.695774513609019"><ele>47.0</ele><time>2026-04-06T09:21:18Z</time></trkpt><trkpt lat="43.659699728579405" lon="10.695593478986119"><ele>46.5</ele><time>2026-04-06T09:21:19Z</time></trkpt><trkpt lat="43.65965511859187" lon="10.695405087311705"><ele>46.0</ele><time>2026-04-06T09:21:20Z</time></trkpt><trkpt lat="43.659609404936035" lon="10.695213501234258"><ele>45.5</ele><time>2026-04-06T09:21:21Z</time></trkpt><trkpt lat="43.659568162067245" lon="10.695028148493979"><ele>45.0</ele><time>2026-04-06T09:21:22Z</time></trkpt><trkpt lat="43.659523508247645" lon="10.694835928516943"><ele>45.0</ele><time>2026-04-06T09:21:23Z</time></trkpt><trkpt lat="43.65947931774111" lon="10.694641646347797"><ele>45.0</ele><time>2026-04-06T09:21:24Z</time></trkpt><trkpt lat="43.659432991534906" lon="10.694450424959596"><ele>45.0</ele><time>2026-04-06T09:21:25Z</time></trkpt><trkpt lat="43.659386801550255" lon="10.694245307817273"><ele>45.0</ele><time>2026-04-06T09:21:26Z</time></trkpt><trkpt lat="43.65934139304885" lon="10.694055047819097"><ele>43.75</ele><time>2026-04-06T09:21:27Z</time></trkpt><trkpt lat="43.65929614803614" lon="10.693853809554488"><ele>42.5</ele><time>2026-04-06T09:21:28Z</time></trkpt><trkpt lat="43.6592499344181" lon="10.693655981919822"><ele>41.25</ele><time>2026-04-06T09:21:29Z</time></trkpt><trkpt lat="43.65920671572137" lon="10.69347002289021"><ele>40.0</ele><time>2026-04-06T09:21:30Z</time></trkpt><trkpt lat="43.659167696847064" lon="10.693292010532957"><ele>39.0</ele><time>2026-04-06T09:21:31Z</time></trkpt><trkpt lat="43.65912568707527" lon="10.693114234467288"><ele>38.0</ele><time>2026-04-06T09:21:32Z</time></trkpt><trkpt lat="43.65908377787735" lon="10.692932085027113"><ele>37.0</ele><time>2026-04-06T09:21:33Z</time></trkpt><trkpt lat="43.659035759656135" lon="10.692745189717751"><ele>36.0</ele><time>2026-04-06T09:21:34Z</time></trkpt><trkpt lat="43.65899460378856" lon="10.692560860467065"><ele>35.5</ele><time>2026-04-06T09:21:35Z</time></trkpt><trkpt lat="43.658948834116735" lon="10.692374069352018"><ele>35.0</ele><time>2026-04-06T09:21:36Z</time></trkpt><trkpt lat="43.658902322003215" lon="10.692181977309671"><ele>34.5</ele><time>2026-04-06T09:21:37Z</time></trkpt><trkpt lat="43.65885622242915" lon="10.691989635122408"><ele>34.0</ele><time>2026-04-06T09:21:38Z</time></trkpt><trkpt lat="43.65880962487235" lon="10.691788563879989"><ele>31.0</ele><time>2026-04-06T09:21:39Z</time></trkpt><trkpt lat="43.658762198985485" lon="10.691584009598374"><ele>28.0</ele><time>2026-04-06T09:21:40Z</time></trkpt><trkpt lat="43.65871410326017" lon="10.691376424065645"><ele>25.0</ele><time>2026-04-06T09:21:41Z</time></trkpt><trkpt lat="43.65866647863199" lon="10.691171938655192"><ele>23.666666666666668</ele><time>2026-04-06T09:21:42Z</time></trkpt><trkpt lat="43.658620293220004" lon="10.690960557412987"><ele>22.333333333333336</ele><time>2026-04-06T09:21:43Z</time></trkpt><trkpt lat="43.65856962423301" lon="10.69074266250457"><ele>21.0</ele><time>2026-04-06T09:21:44Z</time></trkpt><trkpt lat="43.65851861507776" lon="10.690521833663658"><ele>21.0</ele><time>2026-04-06T09:21:45Z</time></trkpt><trkpt lat="43.658464088950204" lon="10.69029682811007"><ele>21.0</ele><time>2026-04-06T09:21:46Z</time></trkpt><trkpt lat="43.65840933725879" lon="10.690065051614292"><ele>21.0</ele><time>2026-04-06T09:21:47Z</time></trkpt><trkpt lat="43.65835372122856" lon="10.689823459912358"><ele>20.333333333333332</ele><time>2026-04-06T09:21:48Z</time></trkpt><trkpt lat="43.65829807946052" lon="10.689581510416998"><ele>19.666666666666664</ele><time>2026-04-06T09:21:49Z</time></trkpt><trkpt lat="43.65824440275238" lon="10.689343412285787"><ele>19.0</ele><time>2026-04-06T09:21:50Z</time></trkpt><trkpt lat="43.65818694524922" lon="10.689101007550514"><ele>19.0</ele><time>2026-04-06T09:21:51Z</time></trkpt><trkpt lat="43.658133001366274" lon="10.688864576818542"><ele>19.0</ele><time>2026-04-06T09:21:52Z</time></trkpt><trkpt lat="43.65807496129151" lon="10.68862234102108"><ele>19.0</ele><time>2026-04-06T09:21:53Z</time></trkpt><trkpt lat="43.65802009220235" lon="10.688387967892016"><ele>18.666666666666664</ele><time>2026-04-06T09:21:54Z</time></trkpt><trkpt lat="43.6579652856868" lon="10.68815114684562"><ele>18.333333333333332</ele><time>2026-04-06T09:21:55Z</time></trkpt><trkpt lat="43.657911600899645" lon="10.687918943847142"><ele>18.0</ele><time>2026-04-06T09:21:56Z</time></trkpt><trkpt lat="43.657858168412034" lon="10.687687580629628"><ele>18.0</ele><time>2026-04-06T09:21:57Z</time></trkpt><trkpt lat="43.657806702522215" lon="10.687461187487365"><ele>18.0</ele><time>2026-04-06T09:21:58Z</time></trkpt><trkpt lat="43.65775428807947" lon="10.687232468330773"><ele>18.0</ele><time>2026-04-06T09:21:59Z</time></trkpt><trkpt lat="43.65770330005192" lon="10.687008492058421"><ele>22.0</ele><time>2026-04-06T09:22:00Z</time></trkpt><trkpt lat="43.65765213417443" lon="10.686783987001427"><ele>26.0</ele><time>2026-04-06T09:22:01Z</time></trkpt><trkpt lat="43.65759793153437" lon="10.686560882954153"><ele>30.0</ele><time>2026-04-06T09:22:02Z</time></trkpt><trkpt lat="43.65753686049112" lon="10.686340219440423"><ele>30.0</ele><time>2026-04-06T09:22:03Z</time></trkpt><trkpt lat="43.6574621761538" lon="10.68612861791366"><ele>30.0</ele><time>2026-04-06T09:22:04Z</time></trkpt><trkpt lat="43.65737551771665" lon="10.685926438651261"><ele>30.0</ele><time>2026-04-06T09:22:05Z</time></trkpt><trkpt lat="43.657284760085055" lon="10.685734641114571"><ele>29.0</ele><time>2026-04-06T09:22:06Z</time></trkpt><trkpt lat="43.657189273630514" lon="10.685549769548642"><ele>28.0</ele><time>2026-04-06T09:22:07Z</time></trkpt><trkpt lat="43.6570898980308" lon="10.685371686176182"><ele>27.0</ele><time>2026-04-06T09:22:08Z</time></trkpt><trkpt lat="43.65699007845907" lon="10.685204070485598"><ele>30.666666666666664</ele><time>2026-04-06T09:22:09Z</time></trkpt><trkpt lat="43.65688390936907" lon="10.68503132189683"><ele>34.33333333333333</ele><time>2026-04-06T09:22:10Z</time></trkpt><trkpt lat="43.6567773272112" lon="10.684857344666863"><ele>38.0</ele><time>2026-04-06T09:22:11Z</time></trkpt><trkpt lat="43.65666936604797" lon="10.684688160826171"><ele>38.0</ele><time>2026-04-06T09:22:12Z</time></trkpt><trkpt lat="43.656558579742146" lon="10.684519414807292"><ele>38.0</ele><time>2026-04-06T09:22:13Z</time></trkpt><trkpt lat="43.65644422914025" lon="10.684352544447409"><ele>38.0</ele><time>2026-04-06T09:22:14Z</time></trkpt><trkpt lat="43.656331556076935" lon="10.684184777299567"><ele>37.33333333333333</ele><time>2026-04-06T09:22:15Z</time></trkpt><trkpt lat="43.656218692722156" lon="10.684012738916364"><ele>36.666666666666664</ele><time>2026-04-06T09:22:16Z</time></trkpt><trkpt lat="43.65610553536634" lon="10.68384018752128"><ele>36.0</ele><time>2026-04-06T09:22:17Z</time></trkpt><trkpt lat="43.65599105956567" lon="10.683666032779882"><ele>37.333333333333336</ele><time>2026-04-06T09:22:18Z</time></trkpt><trkpt lat="43.6558808109658" lon="10.683502946942514"><ele>38.66666666666667</ele><time>2026-04-06T09:22:19Z</time></trkpt><trkpt lat="43.65577305121663" lon="10.683342364111116"><ele>40.0</ele><time>2026-04-06T09:22:20Z</time></trkpt><trkpt lat="43.65566596058227" lon="10.683181124109584"><ele>40.0</ele><time>2026-04-06T09:22:21Z</time></trkpt><trkpt lat="43.6555605313897" lon="10.683023224540879"><ele>40.0</ele><time>2026-04-06T09:22:22Z</time></trkpt><trkpt lat="43.655465909095874" lon="10.682880654620662"><ele>40.0</ele><time>2026-04-06T09:22:23Z</time></trkpt><trkpt lat="43.655384901523846" lon="10.682752221385536"><ele>40.0</ele><time>2026-04-06T09:22:24Z</time></trkpt><trkpt lat="43.65531807085191" lon="10.682641321397277"><ele>40.2</ele><time>2026-04-06T09:22:25Z</time></trkpt><trkpt lat="43.655252160570576" lon="10.682528330638469"><ele>40.4</ele><time>2026-04-06T09:22:26Z</time></trkpt><trkpt lat="43.655193528974266" lon="10.682426431859104"><ele>40.599999999999994</ele><time>2026-04-06T09:22:27Z</time></trkpt><trkpt lat="43.65513889048926" lon="10.682328558554753"><ele>40.8</ele><time>2026-04-06T09:22:28Z</time></trkpt><trkpt lat="43.65508608096398" lon="10.68223437977673"><ele>41.0</ele><time>2026-04-06T09:22:29Z</time></trkpt><trkpt lat="43.65503929657281" lon="10.682145523622715"><ele>40.99999999999999</ele><time>2026-04-06T09:22:30Z</time></trkpt><trkpt lat="43.654994932173636" lon="10.682061941075952"><ele>41.0</ele><time>2026-04-06T09:22:31Z</time></trkpt><trkpt lat="43.654952497382006" lon="10.681982393361777"><ele>41.0</ele><time>2026-04-06T09:22:32Z</time></trkpt><trkpt lat="43.654913074602945" lon="10.681902366574981"><ele>41.0</ele><time>2026-04-06T09:22:33Z</time></trkpt><trkpt lat="43.65487242060952" lon="10.681821996133419"><ele>41.0</ele><time>2026-04-06T09:22:34Z</time></trkpt><trkpt lat="43.65483314298547" lon="10.68173955900474"><ele>40.99999999999999</ele><time>2026-04-06T09:22:35Z</time></trkpt><trkpt lat="43.65479622605124" lon="10.681659224774446"><ele>41.0</ele><time>2026-04-06T09:22:36Z</time></trkpt><trkpt lat="43.65476115287568" lon="10.681580474769364"><ele>41.166666666666664</ele><time>2026-04-06T09:22:37Z</time></trkpt><trkpt lat="43.654723358503134" lon="10.681493533679824"><ele>41.33333333333333</ele><time>2026-04-06T09:22:38Z</time></trkpt><trkpt lat="43.65468201708659" lon="10.68140087439571"><ele>41.5</ele><time>2026-04-06T09:22:39Z</time></trkpt><trkpt lat="43.65464024092781" lon="10.681303127416996"><ele>41.666666666666664</ele><time>2026-04-06T09:22:39.999Z</time></trkpt><trkpt lat="43.654601445429584" lon="10.68120476086833"><ele>41.833333333333336</ele><time>2026-04-06T09:22:40.999Z</time></trkpt><trkpt lat="43.65456815200825" lon="10.681117079535326"><ele>42.0</ele><time>2026-04-06T09:22:42Z</time></trkpt><trkpt lat="43.65453503691289" lon="10.681030647601208"><ele>41.333333333333336</ele><time>2026-04-06T09:22:43Z</time></trkpt><trkpt lat="43.654505770164214" lon="10.680951348187566"><ele>40.666666666666664</ele><time>2026-04-06T09:22:44Z</time></trkpt><trkpt lat="43.654478693689526" lon="10.680871667587962"><ele>40.0</ele><time>2026-04-06T09:22:45Z</time></trkpt><trkpt lat="43.654427594785204" lon="10.680710183388847"><ele>39.33333333333333</ele><time>2026-04-06T09:22:47Z</time></trkpt><trkpt lat="43.654395570603825" lon="10.68061997920655"><ele>38.666666666666664</ele><time>2026-04-06T09:22:48Z</time></trkpt><trkpt lat="43.654360970234734" lon="10.680523841571393"><ele>38.0</ele><time>2026-04-06T09:22:49Z</time></trkpt><trkpt lat="43.65432798686839" lon="10.68042132025785"><ele>36.0</ele><time>2026-04-06T09:22:50Z</time></trkpt><trkpt lat="43.654293244943766" lon="10.680316104267286"><ele>34.0</ele><time>2026-04-06T09:22:51Z</time></trkpt><trkpt lat="43.65426496613075" lon="10.680214877538157"><ele>32.0</ele><time>2026-04-06T09:22:52Z</time></trkpt><trkpt lat="43.65423872433256" lon="10.680118165892253"><ele>30.0</ele><time>2026-04-06T09:22:53Z</time></trkpt><trkpt lat="43.6542138541346" lon="10.680019037256615"><ele>27.999999999999996</ele><time>2026-04-06T09:22:54Z</time></trkpt><trkpt lat="43.65418844880079" lon="10.679919439994222"><ele>26.0</ele><time>2026-04-06T09:22:55Z</time></trkpt><trkpt lat="43.65416168523153" lon="10.679817237146098"><ele>25.666666666666664</ele><time>2026-04-06T09:22:56Z</time></trkpt><trkpt lat="43.654137624863935" lon="10.67971897738024"><ele>25.333333333333332</ele><time>2026-04-06T09:22:57Z</time></trkpt><trkpt lat="43.65411493980841" lon="10.67961702291187"><ele>25.0</ele><time>2026-04-06T09:22:58Z</time></trkpt><trkpt lat="43.65409215525391" lon="10.679506970960842"><ele>24.666666666666664</ele><time>2026-04-06T09:22:59Z</time></trkpt><trkpt lat="43.65406768035099" lon="10.679392719123888"><ele>24.333333333333332</ele><time>2026-04-06T09:23:00Z</time></trkpt><trkpt lat="43.65404317353567" lon="10.679275722342794"><ele>24.0</ele><time>2026-04-06T09:23:01Z</time></trkpt><trkpt lat="43.654018130641944" lon="10.679154097129937"><ele>23.6</ele><time>2026-04-06T09:23:02Z</time></trkpt><trkpt lat="43.65399428581542" lon="10.679030648256907"><ele>23.2</ele><time>2026-04-06T09:23:03Z</time></trkpt><trkpt lat="43.65397174849558" lon="10.67890362176207"><ele>22.8</ele><time>2026-04-06T09:23:04Z</time></trkpt><trkpt lat="43.65394957017318" lon="10.678769927714068"><ele>22.400000000000002</ele><time>2026-04-06T09:23:05Z</time></trkpt><trkpt lat="43.653929669754184" lon="10.678637316192482"><ele>22.0</ele><time>2026-04-06T09:23:06Z</time></trkpt><trkpt lat="43.65391194987794" lon="10.678498327330672"><ele>22.0</ele><time>2026-04-06T09:23:07Z</time></trkpt><trkpt lat="43.653895091675196" lon="10.678341939539143"><ele>22.0</ele><time>2026-04-06T09:23:08Z</time></trkpt><trkpt lat="43.65387386219201" lon="10.678178487987108"><ele>22.0</ele><time>2026-04-06T09:23:09Z</time></trkpt><trkpt lat="43.65386522640427" lon="10.678007317864612"><ele>22.0</ele><time>2026-04-06T09:23:10Z</time></trkpt><trkpt lat="43.653850365616194" lon="10.67781911707959"><ele>21.5</ele><time>2026-04-06T09:23:11Z</time></trkpt><trkpt lat="43.6538403693912" lon="10.677633707579087"><ele>21.0</ele><time>2026-04-06T09:23:12Z</time></trkpt><trkpt lat="43.65383438203228" lon="10.677435621375928"><ele>20.5</ele><time>2026-04-06T09:23:13Z</time></trkpt><trkpt lat="43.653829532752326" lon="10.677237339678095"><ele>20.0</ele><time>2026-04-06T09:23:14Z</time></trkpt><trkpt lat="43.653829120320914" lon="10.677034051678937"><ele>20.0</ele><time>2026-04-06T09:23:15Z</time></trkpt><trkpt lat="43.65383058197054" lon="10.676828870422293"><ele>20.0</ele><time>2026-04-06T09:23:16Z</time></trkpt><trkpt lat="43.653838131228255" lon="10.676623665837152"><ele>20.0</ele><time>2026-04-06T09:23:17Z</time></trkpt><trkpt lat="43.65384800152584" lon="10.67641725711294"><ele>20.0</ele><time>2026-04-06T09:23:18Z</time></trkpt><trkpt lat="43.65386044507706" lon="10.67620461060941"><ele>20.0</ele><time>2026-04-06T09:23:19Z</time></trkpt><trkpt lat="43.653878627979736" lon="10.675988132153906"><ele>20.0</ele><time>2026-04-06T09:23:20Z</time></trkpt><trkpt lat="43.65389915150054" lon="10.675770301008445"><ele>20.0</ele><time>2026-04-06T09:23:21Z</time></trkpt><trkpt lat="43.65392090973708" lon="10.675552853953183"><ele>20.0</ele><time>2026-04-06T09:23:22Z</time></trkpt><trkpt lat="43.65394481971867" lon="10.675333101039605"><ele>20.0</ele><time>2026-04-06T09:23:23Z</time></trkpt><trkpt lat="43.653974870696054" lon="10.675106548497059"><ele>20.0</ele><time>2026-04-06T09:23:24Z</time></trkpt><trkpt lat="43.65400312867148" lon="10.674884736796368"><ele>20.0</ele><time>2026-04-06T09:23:25Z</time></trkpt><trkpt lat="43.65403836720461" lon="10.674659956314457"><ele>20.0</ele><time>2026-04-06T09:23:26Z</time></trkpt><trkpt lat="43.65408141378075" lon="10.674431451421814"><ele>20.0</ele><time>2026-04-06T09:23:27Z</time></trkpt><trkpt lat="43.6541293769649" lon="10.674198661946521"><ele>19.666666666666668</ele><time>2026-04-06T09:23:28Z</time></trkpt><trkpt lat="43.65417927750458" lon="10.673964581275529"><ele>19.333333333333332</ele><time>2026-04-06T09:23:29Z</time></trkpt><trkpt lat="43.654234926197915" lon="10.67372715251737"><ele>19.0</ele><time>2026-04-06T09:23:30Z</time></trkpt><trkpt lat="43.65428981595082" lon="10.673488430058836"><ele>18.333333333333332</ele><time>2026-04-06T09:23:31Z</time></trkpt><trkpt lat="43.6543452681491" lon="10.67324938779609"><ele>17.666666666666668</ele><time>2026-04-06T09:23:32Z</time></trkpt><trkpt lat="43.65440242803299" lon="10.673009140096147"><ele>17.0</ele><time>2026-04-06T09:23:33Z</time></trkpt><trkpt lat="43.65446364253402" lon="10.67276936914367"><ele>17.0</ele><time>2026-04-06T09:23:33.999Z</time></trkpt><trkpt lat="43.65452587188371" lon="10.672537886937286"><ele>17.0</ele><time>2026-04-06T09:23:34.999Z</time></trkpt><trkpt lat="43.654590898896075" lon="10.672309501226518"><ele>17.0</ele><time>2026-04-06T09:23:35.999Z</time></trkpt><trkpt lat="43.65465567496947" lon="10.672084759209007"><ele>17.666666666666668</ele><time>2026-04-06T09:23:36.999Z</time></trkpt><trkpt lat="43.6547203302707" lon="10.671863792362581"><ele>18.333333333333332</ele><time>2026-04-06T09:23:37.999Z</time></trkpt><trkpt lat="43.654778567532176" lon="10.671647613423364"><ele>19.0</ele><time>2026-04-06T09:23:38.999Z</time></trkpt><trkpt lat="43.65483672738682" lon="10.671420956236952"><ele>19.0</ele><time>2026-04-06T09:23:39.999Z</time></trkpt><trkpt lat="43.65488911110936" lon="10.671192233912079"><ele>19.0</ele><time>2026-04-06T09:23:40.999Z</time></trkpt><trkpt lat="43.654936717933445" lon="10.670961371334752"><ele>19.0</ele><time>2026-04-06T09:23:41.999Z</time></trkpt><trkpt lat="43.65498554318764" lon="10.670726609798148"><ele>19.333333333333332</ele><time>2026-04-06T09:23:42.999Z</time></trkpt><trkpt lat="43.655032977975985" lon="10.670487477292756"><ele>19.666666666666668</ele><time>2026-04-06T09:23:43.999Z</time></trkpt><trkpt lat="43.65507320144731" lon="10.670255977267868"><ele>20.0</ele><time>2026-04-06T09:23:44.999Z</time></trkpt><trkpt lat="43.6551152012543" lon="10.670018356078948"><ele>19.333333333333336</ele><time>2026-04-06T09:23:45.999Z</time></trkpt><trkpt lat="43.655158660326705" lon="10.669779223941305"><ele>18.666666666666668</ele><time>2026-04-06T09:23:46.999Z</time></trkpt><trkpt lat="43.655198667240114" lon="10.669545573181093"><ele>18.0</ele><time>2026-04-06T09:23:47.999Z</time></trkpt><trkpt lat="43.655233090521946" lon="10.669319888494142"><ele>17.75</ele><time>2026-04-06T09:23:48.999Z</time></trkpt><trkpt lat="43.65526052476257" lon="10.66911307402427"><ele>17.5</ele><time>2026-04-06T09:23:49.999Z</time></trkpt><trkpt lat="43.655283266889036" lon="10.668911645999566"><ele>17.25</ele><time>2026-04-06T09:23:50.999Z</time></trkpt><trkpt lat="43.65530077076254" lon="10.668719736547107"><ele>17.0</ele><time>2026-04-06T09:23:51.999Z</time></trkpt><trkpt lat="43.6553174972922" lon="10.668536216215912"><ele>16.75</ele><time>2026-04-06T09:23:52.999Z</time></trkpt><trkpt lat="43.655330016266795" lon="10.668363207417306"><ele>16.5</ele><time>2026-04-06T09:23:53.999Z</time></trkpt><trkpt lat="43.65534092894631" lon="10.6681999056377"><ele>16.25</ele><time>2026-04-06T09:23:54.999Z</time></trkpt><trkpt lat="43.65535057932297" lon="10.668041611658897"><ele>16.0</ele><time>2026-04-06T09:23:55.999Z</time></trkpt><trkpt lat="43.65535875139526" lon="10.667883834023964"><ele>16.25</ele><time>2026-04-06T09:23:56.999Z</time></trkpt><trkpt lat="43.655366498795196" lon="10.667727165719066"><ele>16.5</ele><time>2026-04-06T09:23:57.999Z</time></trkpt><trkpt lat="43.6553741929579" lon="10.667568384217423"><ele>16.75</ele><time>2026-04-06T09:23:58.999Z</time></trkpt><trkpt lat="43.65537957052845" lon="10.667411974462086"><ele>17.0</ele><time>2026-04-06T09:23:59.999Z</time></trkpt><trkpt lat="43.65538285679147" lon="10.667259945621113"><ele>17.0</ele><time>2026-04-06T09:24:00.999Z</time></trkpt><trkpt lat="43.65538424389308" lon="10.667107354230959"><ele>17.0</ele><time>2026-04-06T09:24:01.999Z</time></trkpt><trkpt lat="43.6553822644856" lon="10.666959110334535"><ele>17.0</ele><time>2026-04-06T09:24:02.999Z</time></trkpt><trkpt lat="43.655379286271845" lon="10.66681430411701"><ele>17.0</ele><time>2026-04-06T09:24:03.999Z</time></trkpt><trkpt lat="43.65537553802468" lon="10.666670850390773"><ele>17.0</ele><time>2026-04-06T09:24:04.999Z</time></trkpt><trkpt lat="43.655370695124645" lon="10.666529204244737"><ele>16.6</ele><time>2026-04-06T09:24:05.999Z</time></trkpt><trkpt lat="43.655363752779586" lon="10.666391322792268"><ele>16.2</ele><time>2026-04-06T09:24:06.999Z</time></trkpt><trkpt lat="43.65535600721272" lon="10.666253620441493"><ele>15.8</ele><time>2026-04-06T09:24:07.999Z</time></trkpt><trkpt lat="43.65534744295903" lon="10.666121534141627"><ele>15.4</ele><time>2026-04-06T09:24:08.999Z</time></trkpt><trkpt lat="43.65533741967017" lon="10.665987692362945"><ele>15.0</ele><time>2026-04-06T09:24:09.999Z</time></trkpt><trkpt lat="43.6553271032835" lon="10.665856802176865"><ele>15.0</ele><time>2026-04-06T09:24:10.999Z</time></trkpt><trkpt lat="43.65531698688607" lon="10.665725110375462"><ele>15.0</ele><time>2026-04-06T09:24:11.999Z</time></trkpt><trkpt lat="43.65530652756846" lon="10.665609457696378"><ele>15.0</ele><time>2026-04-06T09:24:12.999Z</time></trkpt><trkpt lat="43.65529737337012" lon="10.66549394620156"><ele>15.0</ele><time>2026-04-06T09:24:13.999Z</time></trkpt><trkpt lat="43.655285040028396" lon="10.665389757485029"><ele>15.0</ele><time>2026-04-06T09:24:14.999Z</time></trkpt><trkpt lat="43.65526933075694" lon="10.66523303957165"><ele>14.6</ele><time>2026-04-06T09:24:16.999Z</time></trkpt><trkpt lat="43.65524825842259" lon="10.665082227169167"><ele>14.2</ele><time>2026-04-06T09:24:18.999Z</time></trkpt><trkpt lat="43.65522775197088" lon="10.66494059002339"><ele>13.8</ele><time>2026-04-06T09:24:20.999Z</time></trkpt><trkpt lat="43.65520665673087" lon="10.664798363762133"><ele>13.4</ele><time>2026-04-06T09:24:22.999Z</time></trkpt><trkpt lat="43.65518456285254" lon="10.664643260426681"><ele>13.0</ele><time>2026-04-06T09:24:24.999Z</time></trkpt><trkpt lat="43.65515717018033" lon="10.66448125446331"><ele>13.0</ele><time>2026-04-06T09:24:26.999Z</time></trkpt><trkpt lat="43.655142645666665" lon="10.664395592564393"><ele>13.0</ele><time>2026-04-06T09:24:27.999Z</time></trkpt><trkpt lat="43.65511378873954" lon="10.664230576384055"><ele>13.0</ele><time>2026-04-06T09:24:29.999Z</time></trkpt><trkpt lat="43.65509800575526" lon="10.664145841072996"><ele>13.0</ele><time>2026-04-06T09:24:30.999Z</time></trkpt><trkpt lat="43.65506363956846" lon="10.663985325791915"><ele>13.0</ele><time>2026-04-06T09:24:32.999Z</time></trkpt><trkpt lat="43.65502907807996" lon="10.663821626837173"><ele>12.999999999999998</ele><time>2026-04-06T09:24:34.999Z</time></trkpt><trkpt lat="43.654992069437924" lon="10.663670625981256"><ele>13.0</ele><time>2026-04-06T09:24:36.999Z</time></trkpt><trkpt lat="43.65495473141849" lon="10.663531646367662"><ele>13.0</ele><time>2026-04-06T09:24:38.999Z</time></trkpt><trkpt lat="43.65492617443973" lon="10.66342543426641"><ele>13.0</ele><time>2026-04-06T09:24:40.999Z</time></trkpt><trkpt lat="43.6549081808844" lon="10.663337764159788"><ele>12.999999999999998</ele><time>2026-04-06T09:24:43.999Z</time></trkpt><trkpt lat="43.654881515965286" lon="10.663240640767158"><ele>13.0</ele><time>2026-04-06T09:24:46.999Z</time></trkpt><trkpt lat="43.654859624050324" lon="10.663153952772547"><ele>13.166666666666666</ele><time>2026-04-06T09:24:48.999Z</time></trkpt><trkpt lat="43.65483043695887" lon="10.6630419943476"><ele>13.333333333333332</ele><time>2026-04-06T09:24:51.999Z</time></trkpt><trkpt lat="43.65480085386146" lon="10.662936872273841"><ele>13.5</ele><time>2026-04-06T09:24:54.999Z</time></trkpt><trkpt lat="43.654767655982496" lon="10.662843838533542"><ele>13.666666666666668</ele><time>2026-04-06T09:24:57.999Z</time></trkpt><trkpt lat="43.65474250948335" lon="10.662760076633797"><ele>13.833333333333334</ele><time>2026-04-06T09:25:00.999Z</time></trkpt><trkpt lat="43.654717205245106" lon="10.662669865036401"><ele>14.0</ele><time>2026-04-06T09:25:04.999Z</time></trkpt><trkpt lat="43.65468488734363" lon="10.662562940932224"><ele>14.166666666666668</ele><time>2026-04-06T09:25:27.999Z</time></trkpt><trkpt lat="43.654656195345375" lon="10.662476672493607"><ele>14.333333333333334</ele><time>2026-04-06T09:25:29.999Z</time></trkpt><trkpt lat="43.65461317252355" lon="10.662352091638933"><ele>14.5</ele><time>2026-04-06T09:25:32.999Z</time></trkpt><trkpt lat="43.65457996298608" lon="10.662259039670833"><ele>14.666666666666668</ele><time>2026-04-06T09:25:34.999Z</time></trkpt><trkpt lat="43.65455094637318" lon="10.662171801182868"><ele>14.833333333333334</ele><time>2026-04-06T09:25:36.999Z</time></trkpt><trkpt lat="43.654511814713935" lon="10.662069864142076"><ele>15.0</ele><time>2026-04-06T09:25:39.999Z</time></trkpt><trkpt lat="43.65446741442565" lon="10.661950472205346"><ele>15.8</ele><time>2026-04-06T09:25:42.999Z</time></trkpt><trkpt lat="43.65442718718852" lon="10.661849062435184"><ele>16.6</ele><time>2026-04-06T09:25:44.999Z</time></trkpt><trkpt lat="43.65438145636949" lon="10.66172746702694"><ele>17.4</ele><time>2026-04-06T09:25:46.999Z</time></trkpt><trkpt lat="43.654331438269445" lon="10.66159993465967"><ele>18.2</ele><time>2026-04-06T09:25:48.999Z</time></trkpt><trkpt lat="43.65427693811862" lon="10.661468537923986"><ele>19.0</ele><time>2026-04-06T09:25:50.999Z</time></trkpt><trkpt lat="43.65422344344797" lon="10.661333737023556"><ele>19.0</ele><time>2026-04-06T09:25:52.999Z</time></trkpt><trkpt lat="43.654168761215644" lon="10.66119202238401"><ele>19.0</ele><time>2026-04-06T09:25:54.999Z</time></trkpt><trkpt lat="43.65409422453682" lon="10.661035799565413"><ele>19.0</ele><time>2026-04-06T09:25:56.999Z</time></trkpt><trkpt lat="43.6540490799979" lon="10.660947189945238"><ele>19.0</ele><time>2026-04-06T09:25:57.999Z</time></trkpt><trkpt lat="43.65399588635534" lon="10.660834408900419"><ele>19.0</ele><time>2026-04-06T09:25:58.999Z</time></trkpt><trkpt lat="43.653942942721955" lon="10.66072611034588"><ele>18.666666666666664</ele><time>2026-04-06T09:25:59.999Z</time></trkpt><trkpt lat="43.6538908570559" lon="10.660617377286764"><ele>18.333333333333332</ele><time>2026-04-06T09:26:00.999Z</time></trkpt><trkpt lat="43.65383735696706" lon="10.660513000840583"><ele>18.0</ele><time>2026-04-06T09:26:01.999Z</time></trkpt><trkpt lat="43.65379045588684" lon="10.660412401941437"><ele>17.666666666666668</ele><time>2026-04-06T09:26:02.999Z</time></trkpt><trkpt lat="43.65374934151374" lon="10.660319363389409"><ele>17.333333333333336</ele><time>2026-04-06T09:26:03.999Z</time></trkpt><trkpt lat="43.65370590724631" lon="10.660228723360023"><ele>17.0</ele><time>2026-04-06T09:26:04.999Z</time></trkpt><trkpt lat="43.653655417775475" lon="10.660134842093031"><ele>17.0</ele><time>2026-04-06T09:26:05.999Z</time></trkpt><trkpt lat="43.65361052086676" lon="10.660041884773694"><ele>17.0</ele><time>2026-04-06T09:26:06.999Z</time></trkpt><trkpt lat="43.65355942996681" lon="10.65994053274938"><ele>17.0</ele><time>2026-04-06T09:26:07.999Z</time></trkpt><trkpt lat="43.65350756198324" lon="10.659843906826442"><ele>17.0</ele><time>2026-04-06T09:26:08.999Z</time></trkpt><trkpt lat="43.65344884758544" lon="10.65973768444588"><ele>17.0</ele><time>2026-04-06T09:26:09.999Z</time></trkpt><trkpt lat="43.65339257220779" lon="10.659629937777485"><ele>17.0</ele><time>2026-04-06T09:26:10.999Z</time></trkpt><trkpt lat="43.653329415932085" lon="10.659522032886954"><ele>17.0</ele><time>2026-04-06T09:26:11.999Z</time></trkpt><trkpt lat="43.65326542733875" lon="10.659411148657847"><ele>17.0</ele><time>2026-04-06T09:26:12.999Z</time></trkpt><trkpt lat="43.65320404493317" lon="10.659300155283391"><ele>17.0</ele><time>2026-04-06T09:26:13.999Z</time></trkpt><trkpt lat="43.65313851460517" lon="10.659185385545753"><ele>17.0</ele><time>2026-04-06T09:26:14.999Z</time></trkpt><trkpt lat="43.65307157802032" lon="10.659061492319898"><ele>17.8</ele><time>2026-04-06T09:26:15.999Z</time></trkpt><trkpt lat="43.65300371004605" lon="10.658941035598431"><ele>18.6</ele><time>2026-04-06T09:26:16.999Z</time></trkpt><trkpt lat="43.65293796293567" lon="10.658823262395817"><ele>19.400000000000002</ele><time>2026-04-06T09:26:17.999Z</time></trkpt><trkpt lat="43.652874384188664" lon="10.658707704530627"><ele>20.2</ele><time>2026-04-06T09:26:18.999Z</time></trkpt><trkpt lat="43.65280927107363" lon="10.658588201135577"><ele>21.0</ele><time>2026-04-06T09:26:19.999Z</time></trkpt><trkpt lat="43.65274053010331" lon="10.658468953376223"><ele>21.4</ele><time>2026-04-06T09:26:20.999Z</time></trkpt><trkpt lat="43.65267356561949" lon="10.658352241279257"><ele>21.8</ele><time>2026-04-06T09:26:21.999Z</time></trkpt><trkpt lat="43.6526035672453" lon="10.658232915154814"><ele>22.2</ele><time>2026-04-06T09:26:22.999Z</time></trkpt><trkpt lat="43.652532801567816" lon="10.658120072998125"><ele>22.599999999999998</ele><time>2026-04-06T09:26:23.999Z</time></trkpt><trkpt lat="43.65246764169765" lon="10.658007562288525"><ele>23.0</ele><time>2026-04-06T09:26:24.999Z</time></trkpt><trkpt lat="43.65240786890538" lon="10.657907558392038"><ele>23.0</ele><time>2026-04-06T09:26:25.999Z</time></trkpt><trkpt lat="43.65234780898813" lon="10.65779009396658"><ele>23.0</ele><time>2026-04-06T09:26:26.999Z</time></trkpt><trkpt lat="43.6522876825198" lon="10.65769437216276"><ele>23.0</ele><time>2026-04-06T09:26:27.999Z</time></trkpt><trkpt lat="43.65224042428352" lon="10.657611708716871"><ele>23.0</ele><time>2026-04-06T09:26:28.999Z</time></trkpt><trkpt lat="43.65217759514092" lon="10.65750261465591"><ele>23.0</ele><time>2026-04-06T09:26:30.999Z</time></trkpt><trkpt lat="43.65213251087055" lon="10.657420963013521"><ele>23.0</ele><time>2026-04-06T09:26:40.999Z</time></trkpt><trkpt lat="43.65208896742882" lon="10.65734644338051"><ele>23.166666666666668</ele><time>2026-04-06T09:26:47.999Z</time></trkpt><trkpt lat="43.652047987763254" lon="10.657280239528465"><ele>23.333333333333336</ele><time>2026-04-06T09:26:54.999Z</time></trkpt><trkpt lat="43.65199582020164" lon="10.657191927514425"><ele>23.5</ele><time>2026-04-06T09:27:00.999Z</time></trkpt><trkpt lat="43.651953310116184" lon="10.657120067821735"><ele>23.666666666666668</ele><time>2026-04-06T09:27:04.999Z</time></trkpt><trkpt lat="43.65191114429787" lon="10.657047427305624"><ele>23.833333333333332</ele><time>2026-04-06T09:27:07.999Z</time></trkpt><trkpt lat="43.65186472740808" lon="10.656965691492559"><ele>24.0</ele><time>2026-04-06T09:27:10.999Z</time></trkpt><trkpt lat="43.651800213359856" lon="10.656854147727898"><ele>24.0</ele><time>2026-04-06T09:27:13.999Z</time></trkpt><trkpt lat="43.6517464381403" lon="10.656766404633846"><ele>24.0</ele><time>2026-04-06T09:27:15.999Z</time></trkpt><trkpt lat="43.651676889360424" lon="10.656645359314533"><ele>24.0</ele><time>2026-04-06T09:27:17.999Z</time></trkpt><trkpt lat="43.6516359843738" lon="10.656571635780958"><ele>24.0</ele><time>2026-04-06T09:27:18.999Z</time></trkpt><trkpt lat="43.65159718177114" lon="10.65650092816322"><ele>24.0</ele><time>2026-04-06T09:27:19.999Z</time></trkpt><trkpt lat="43.65154834981549" lon="10.656418302468216"><ele>24.0</ele><time>2026-04-06T09:27:20.999Z</time></trkpt><trkpt lat="43.65149748406009" lon="10.656329351660826"><ele>24.0</ele><time>2026-04-06T09:27:21.999Z</time></trkpt><trkpt lat="43.65144190751892" lon="10.656236452272198"><ele>24.0</ele><time>2026-04-06T09:27:22.999Z</time></trkpt><trkpt lat="43.65138420741451" lon="10.656136230889105"><ele>24.0</ele><time>2026-04-06T09:27:23.999Z</time></trkpt><trkpt lat="43.65132800047112" lon="10.656036601110737"><ele>24.0</ele><time>2026-04-06T09:27:24.999Z</time></trkpt><trkpt lat="43.65126539908314" lon="10.655923088330189"><ele>24.0</ele><time>2026-04-06T09:27:25.999Z</time></trkpt><trkpt lat="43.65119851502092" lon="10.655805571821643"><ele>24.5</ele><time>2026-04-06T09:27:26.999Z</time></trkpt><trkpt lat="43.651132243679925" lon="10.65568310473481"><ele>25.0</ele><time>2026-04-06T09:27:27.999Z</time></trkpt><trkpt lat="43.651062197414795" lon="10.6555565691283"><ele>25.5</ele><time>2026-04-06T09:27:28.999Z</time></trkpt><trkpt lat="43.65098946258737" lon="10.655433215886827"><ele>26.0</ele><time>2026-04-06T09:27:29.999Z</time></trkpt><trkpt lat="43.650923762922325" lon="10.655312126379622"><ele>25.6</ele><time>2026-04-06T09:27:30.999Z</time></trkpt><trkpt lat="43.65085942036916" lon="10.655196720271865"><ele>25.200000000000003</ele><time>2026-04-06T09:27:31.999Z</time></trkpt><trkpt lat="43.65079246459693" lon="10.655085206333318"><ele>24.799999999999997</ele><time>2026-04-06T09:27:32.999Z</time></trkpt><trkpt lat="43.65072278022846" lon="10.654967729181752"><ele>24.4</ele><time>2026-04-06T09:27:33.999Z</time></trkpt><trkpt lat="43.65065386131397" lon="10.654845157296142"><ele>24.0</ele><time>2026-04-06T09:27:34.999Z</time></trkpt><trkpt lat="43.65058480507832" lon="10.654726256037414"><ele>24.0</ele><time>2026-04-06T09:27:35.999Z</time></trkpt><trkpt lat="43.6505172232198" lon="10.654611795277493"><ele>24.0</ele><time>2026-04-06T09:27:36.999Z</time></trkpt><trkpt lat="43.65044991209998" lon="10.654492215639305"><ele>24.0</ele><time>2026-04-06T09:27:37.999Z</time></trkpt><trkpt lat="43.65038157015687" lon="10.65437386327804"><ele>24.0</ele><time>2026-04-06T09:27:38.999Z</time></trkpt><trkpt lat="43.650313661788395" lon="10.654251630366348"><ele>24.0</ele><time>2026-04-06T09:27:39.999Z</time></trkpt><trkpt lat="43.650244499868776" lon="10.654133004964521"><ele>23.6</ele><time>2026-04-06T09:27:40.999Z</time></trkpt><trkpt lat="43.65017557415063" lon="10.654013075313232"><ele>23.2</ele><time>2026-04-06T09:27:41.999Z</time></trkpt><trkpt lat="43.65010734219356" lon="10.653893009512641"><ele>22.8</ele><time>2026-04-06T09:27:42.999Z</time></trkpt><trkpt lat="43.65003940404468" lon="10.653773744903473"><ele>22.400000000000002</ele><time>2026-04-06T09:27:43.999Z</time></trkpt><trkpt lat="43.649972570781046" lon="10.653654564806343"><ele>22.0</ele><time>2026-04-06T09:27:44.999Z</time></trkpt><trkpt lat="43.64990556141256" lon="10.653536912389361"><ele>21.8</ele><time>2026-04-06T09:27:45.999Z</time></trkpt><trkpt lat="43.64983972921833" lon="10.653416635873612"><ele>21.6</ele><time>2026-04-06T09:27:46.999Z</time></trkpt><trkpt lat="43.64977208856022" lon="10.653293014675828"><ele>21.400000000000002</ele><time>2026-04-06T09:27:47.999Z</time></trkpt><trkpt lat="43.64970005138409" lon="10.653175739983457"><ele>21.200000000000003</ele><time>2026-04-06T09:27:48.999Z</time></trkpt><trkpt lat="43.6496309653729" lon="10.653055230341915"><ele>21.0</ele><time>2026-04-06T09:27:49.999Z</time></trkpt><trkpt lat="43.64956259551783" lon="10.652936083780125"><ele>21.0</ele><time>2026-04-06T09:27:50.999Z</time></trkpt><trkpt lat="43.64949038242631" lon="10.652812132657791"><ele>21.0</ele><time>2026-04-06T09:27:51.999Z</time></trkpt><trkpt lat="43.64942056043211" lon="10.652688620434354"><ele>21.0</ele><time>2026-04-06T09:27:52.999Z</time></trkpt><trkpt lat="43.64935073472037" lon="10.652564699071618"><ele>21.0</ele><time>2026-04-06T09:27:53.999Z</time></trkpt><trkpt lat="43.64928164176639" lon="10.652445901448464"><ele>20.6</ele><time>2026-04-06T09:27:54.999Z</time></trkpt><trkpt lat="43.64921189201889" lon="10.652325510773542"><ele>20.200000000000003</ele><time>2026-04-06T09:27:55.999Z</time></trkpt><trkpt lat="43.64914417752575" lon="10.652208668825372"><ele>19.799999999999997</ele><time>2026-04-06T09:27:56.999Z</time></trkpt><trkpt lat="43.64907509415222" lon="10.65208631334237"><ele>19.4</ele><time>2026-04-06T09:27:57.999Z</time></trkpt><trkpt lat="43.64900606454542" lon="10.651966455846999"><ele>19.0</ele><time>2026-04-06T09:27:58.999Z</time></trkpt><trkpt lat="43.648938580412064" lon="10.651847530484977"><ele>18.5</ele><time>2026-04-06T09:27:59.999Z</time></trkpt><trkpt lat="43.64886976249058" lon="10.6517275040061"><ele>18.0</ele><time>2026-04-06T09:28:00.999Z</time></trkpt><trkpt lat="43.64879841536833" lon="10.651606690084572"><ele>17.5</ele><time>2026-04-06T09:28:01.999Z</time></trkpt><trkpt lat="43.64872530572282" lon="10.651482760164106"><ele>17.0</ele><time>2026-04-06T09:28:02.999Z</time></trkpt><trkpt lat="43.64865159976548" lon="10.651357348906725"><ele>16.75</ele><time>2026-04-06T09:28:03.999Z</time></trkpt><trkpt lat="43.64857980944943" lon="10.651233974838167"><ele>16.5</ele><time>2026-04-06T09:28:04.999Z</time></trkpt><trkpt lat="43.648507582654105" lon="10.651103223521593"><ele>16.25</ele><time>2026-04-06T09:28:05.999Z</time></trkpt><trkpt lat="43.648434954150815" lon="10.650975130531231"><ele>16.0</ele><time>2026-04-06T09:28:06.999Z</time></trkpt><trkpt lat="43.64836480656913" lon="10.650846886687782"><ele>15.75</ele><time>2026-04-06T09:28:07.999Z</time></trkpt><trkpt lat="43.64828954034192" lon="10.65070861894386"><ele>15.5</ele><time>2026-04-06T09:28:08.999Z</time></trkpt><trkpt lat="43.64821346035149" lon="10.65056804047307"><ele>15.25</ele><time>2026-04-06T09:28:09.999Z</time></trkpt><trkpt lat="43.648134150839724" lon="10.650421659624767"><ele>15.0</ele><time>2026-04-06T09:28:10.999Z</time></trkpt><trkpt lat="43.648058751143786" lon="10.650277207062793"><ele>14.75</ele><time>2026-04-06T09:28:11.999Z</time></trkpt><trkpt lat="43.64798304542817" lon="10.650128207627342"><ele>14.5</ele><time>2026-04-06T09:28:12.999Z</time></trkpt><trkpt lat="43.647908609077035" lon="10.649981098973567"><ele>14.25</ele><time>2026-04-06T09:28:13.999Z</time></trkpt><trkpt lat="43.647837030986494" lon="10.649824921704035"><ele>14.0</ele><time>2026-04-06T09:28:14.999Z</time></trkpt><trkpt lat="43.64776714344304" lon="10.649670755877445"><ele>14.0</ele><time>2026-04-06T09:28:15.999Z</time></trkpt><trkpt lat="43.64770275490381" lon="10.649520165854277"><ele>14.0</ele><time>2026-04-06T09:28:16.999Z</time></trkpt><trkpt lat="43.647643545159276" lon="10.649370455394378"><ele>14.0</ele><time>2026-04-06T09:28:17.999Z</time></trkpt><trkpt lat="43.64758639802729" lon="10.649225845206919"><ele>14.0</ele><time>2026-04-06T09:28:18.999Z</time></trkpt><trkpt lat="43.6475322143088" lon="10.649079482045266"><ele>13.75</ele><time>2026-04-06T09:28:19.999Z</time></trkpt><trkpt lat="43.647477614882625" lon="10.648929894509077"><ele>13.5</ele><time>2026-04-06T09:28:20.999Z</time></trkpt><trkpt lat="43.64742854122326" lon="10.648777910301009"><ele>13.25</ele><time>2026-04-06T09:28:21.999Z</time></trkpt><trkpt lat="43.647377138283396" lon="10.648617721967321"><ele>13.0</ele><time>2026-04-06T09:28:22.999Z</time></trkpt><trkpt lat="43.64733068570014" lon="10.648461430604726"><ele>13.8</ele><time>2026-04-06T09:28:23.999Z</time></trkpt><trkpt lat="43.64728705384324" lon="10.648302270861038"><ele>14.600000000000001</ele><time>2026-04-06T09:28:24.999Z</time></trkpt><trkpt lat="43.64724474695835" lon="10.648153758656509"><ele>15.399999999999999</ele><time>2026-04-06T09:28:25.999Z</time></trkpt><trkpt lat="43.64720850943646" lon="10.648012489181037"><ele>16.2</ele><time>2026-04-06T09:28:26.999Z</time></trkpt><trkpt lat="43.64717287666719" lon="10.647881860449383"><ele>17.0</ele><time>2026-04-06T09:28:27.999Z</time></trkpt><trkpt lat="43.64714326687415" lon="10.64775604212564"><ele>17.6</ele><time>2026-04-06T09:28:28.999Z</time></trkpt><trkpt lat="43.647117283382784" lon="10.647631797108424"><ele>18.2</ele><time>2026-04-06T09:28:29.999Z</time></trkpt><trkpt lat="43.647090195242605" lon="10.647507729987165"><ele>18.8</ele><time>2026-04-06T09:28:30.999Z</time></trkpt><trkpt lat="43.64706343505542" lon="10.647373565535219"><ele>19.4</ele><time>2026-04-06T09:28:31.999Z</time></trkpt><trkpt lat="43.64704096960838" lon="10.647221298226873"><ele>20.0</ele><time>2026-04-06T09:28:32.999Z</time></trkpt><trkpt lat="43.647017310118706" lon="10.647057889188188"><ele>20.5</ele><time>2026-04-06T09:28:33.999Z</time></trkpt><trkpt lat="43.64699107074911" lon="10.64689740213319"><ele>21.0</ele><time>2026-04-06T09:28:34.999Z</time></trkpt><trkpt lat="43.64696826884143" lon="10.64674239008006"><ele>21.5</ele><time>2026-04-06T09:28:35.999Z</time></trkpt><trkpt lat="43.6469402451252" lon="10.646584274350678"><ele>22.0</ele><time>2026-04-06T09:28:36.999Z</time></trkpt><trkpt lat="43.64691279994904" lon="10.646420825712553"><ele>22.0</ele><time>2026-04-06T09:28:37.999Z</time></trkpt><trkpt lat="43.646897702426315" lon="10.646241539498007"><ele>22.0</ele><time>2026-04-06T09:28:38.999Z</time></trkpt><trkpt lat="43.64688628284714" lon="10.646103317397424"><ele>22.0</ele><time>2026-04-06T09:28:39.999Z</time></trkpt><trkpt lat="43.646871183341666" lon="10.645885836345778"><ele>22.0</ele><time>2026-04-06T09:28:40.999Z</time></trkpt><trkpt lat="43.646849668143325" lon="10.645680801109666"><ele>22.0</ele><time>2026-04-06T09:28:41.999Z</time></trkpt><trkpt lat="43.646830222080844" lon="10.645474864945651"><ele>22.0</ele><time>2026-04-06T09:28:42.999Z</time></trkpt><trkpt lat="43.64680556497416" lon="10.645275759206687"><ele>22.0</ele><time>2026-04-06T09:28:43.999Z</time></trkpt><trkpt lat="43.64677733821605" lon="10.644959132588264"><ele>22.0</ele><time>2026-04-06T09:28:44.999Z</time></trkpt><trkpt lat="43.64677730396855" lon="10.64472158636611"><ele>22.0</ele><time>2026-04-06T09:28:45.999Z</time></trkpt><trkpt lat="43.64677907629953" lon="10.644459464256597"><ele>22.0</ele><time>2026-04-06T09:28:46.999Z</time></trkpt><trkpt lat="43.64687460789093" lon="10.645286078588184"><ele>22.0</ele><time>2026-04-06T09:28:47.999Z</time></trkpt><trkpt lat="43.64686272563379" lon="10.64510500790031"><ele>22.0</ele><time>2026-04-06T09:28:48.999Z</time></trkpt><trkpt lat="43.646856692340286" lon="10.644937332857669"><ele>22.0</ele><time>2026-04-06T09:28:49.999Z</time></trkpt><trkpt lat="43.64686009197889" lon="10.64475862201287"><ele>22.0</ele><time>2026-04-06T09:28:50.999Z</time></trkpt><trkpt lat="43.646858929146624" lon="10.644581832888054"><ele>22.0</ele><time>2026-04-06T09:28:51.999Z</time></trkpt><trkpt lat="43.64685938239542" lon="10.64440941841165"><ele>22.0</ele><time>2026-04-06T09:28:52.999Z</time></trkpt><trkpt lat="43.646858412900954" lon="10.644237964126143"><ele>22.0</ele><time>2026-04-06T09:28:53.999Z</time></trkpt><trkpt lat="43.64685729761747" lon="10.644074374518734"><ele>22.0</ele><time>2026-04-06T09:28:54.999Z</time></trkpt><trkpt lat="43.64685954974282" lon="10.643917325239403"><ele>22.0</ele><time>2026-04-06T09:28:55.999Z</time></trkpt><trkpt lat="43.64686356525705" lon="10.643782372903148"><ele>22.0</ele><time>2026-04-06T09:28:56.999Z</time></trkpt><trkpt lat="43.646866110514665" lon="10.643914593094511"><ele>22.0</ele><time>2026-04-06T09:28:57.999Z</time></trkpt><trkpt lat="43.64686515709642" lon="10.643747150461492"><ele>22.0</ele><time>2026-04-06T09:29:00Z</time></trkpt><trkpt lat="43.646871487239856" lon="10.643578323237744"><ele>22.0</ele><time>2026-04-06T09:29:01Z</time></trkpt><trkpt lat="43.64687215488373" lon="10.64340411813442"><ele>21.5</ele><time>2026-04-06T09:29:02Z</time></trkpt><trkpt lat="43.6468775537925" lon="10.64322943390337"><ele>21.0</ele><time>2026-04-06T09:29:03Z</time></trkpt><trkpt lat="43.64688424615242" lon="10.643045194034617"><ele>20.5</ele><time>2026-04-06T09:29:04Z</time></trkpt><trkpt lat="43.646888274859975" lon="10.642860902820837"><ele>20.0</ele><time>2026-04-06T09:29:05Z</time></trkpt><trkpt lat="43.646893424608656" lon="10.642673018447168"><ele>19.75</ele><time>2026-04-06T09:29:06Z</time></trkpt><trkpt lat="43.64689504072949" lon="10.642484772532905"><ele>19.5</ele><time>2026-04-06T09:29:07Z</time></trkpt><trkpt lat="43.646898870958594" lon="10.642286486569011"><ele>19.25</ele><time>2026-04-06T09:29:08Z</time></trkpt><trkpt lat="43.64689065679624" lon="10.642065500957356"><ele>19.0</ele><time>2026-04-06T09:29:09Z</time></trkpt><trkpt lat="43.64689694048514" lon="10.6418631045945"><ele>18.666666666666664</ele><time>2026-04-06T09:29:10Z</time></trkpt><trkpt lat="43.646903008162425" lon="10.64165418126841"><ele>18.333333333333332</ele><time>2026-04-06T09:29:11Z</time></trkpt><trkpt lat="43.646901183425854" lon="10.641445954255538"><ele>18.0</ele><time>2026-04-06T09:29:12Z</time></trkpt><trkpt lat="43.646906401192716" lon="10.641229121357732"><ele>17.333333333333332</ele><time>2026-04-06T09:29:13Z</time></trkpt><trkpt lat="43.64690951095831" lon="10.641028020562489"><ele>16.666666666666664</ele><time>2026-04-06T09:29:14Z</time></trkpt><trkpt lat="43.64691062001223" lon="10.640811196364059"><ele>16.0</ele><time>2026-04-06T09:29:15Z</time></trkpt><trkpt lat="43.64691311721011" lon="10.64060058133066"><ele>16.0</ele><time>2026-04-06T09:29:16Z</time></trkpt><trkpt lat="43.64691737167113" lon="10.640389473355858"><ele>16.0</ele><time>2026-04-06T09:29:17Z</time></trkpt><trkpt lat="43.6469224792011" lon="10.640181520209586"><ele>16.0</ele><time>2026-04-06T09:29:18Z</time></trkpt><trkpt lat="43.6469242748322" lon="10.639981210905752"><ele>16.0</ele><time>2026-04-06T09:29:19Z</time></trkpt><trkpt lat="43.646926887614605" lon="10.639781118307901"><ele>16.0</ele><time>2026-04-06T09:29:19.999Z</time></trkpt><trkpt lat="43.646931310949746" lon="10.639585699174551"><ele>16.0</ele><time>2026-04-06T09:29:20.999Z</time></trkpt><trkpt lat="43.64693521626828" lon="10.639395672959173"><ele>16.0</ele><time>2026-04-06T09:29:21.999Z</time></trkpt><trkpt lat="43.64693947548433" lon="10.63920855285606"><ele>16.0</ele><time>2026-04-06T09:29:22.999Z</time></trkpt><trkpt lat="43.646942189586674" lon="10.639031197173976"><ele>16.2</ele><time>2026-04-06T09:29:23.999Z</time></trkpt><trkpt lat="43.64694416516258" lon="10.638856604711311"><ele>16.400000000000002</ele><time>2026-04-06T09:29:24.999Z</time></trkpt><trkpt lat="43.64694543786301" lon="10.63870176598573"><ele>16.6</ele><time>2026-04-06T09:29:25.999Z</time></trkpt><trkpt lat="43.64695035227482" lon="10.638569937464853"><ele>16.8</ele><time>2026-04-06T09:29:26.999Z</time></trkpt><trkpt lat="43.64695438759662" lon="10.638450751207083"><ele>17.0</ele><time>2026-04-06T09:29:27.999Z</time></trkpt><trkpt lat="43.64695375960371" lon="10.638334853314415"><ele>17.0</ele><time>2026-04-06T09:29:28.999Z</time></trkpt><trkpt lat="43.64695620192797" lon="10.6382313672564"><ele>17.0</ele><time>2026-04-06T09:29:29.999Z</time></trkpt><trkpt lat="43.64695807097997" lon="10.638123506804487"><ele>17.0</ele><time>2026-04-06T09:29:30.999Z</time></trkpt><trkpt lat="43.64695964134768" lon="10.638014445600223"><ele>17.0</ele><time>2026-04-06T09:29:31.999Z</time></trkpt><trkpt lat="43.6469629408214" lon="10.637910216711525"><ele>17.0</ele><time>2026-04-06T09:29:32.999Z</time></trkpt><trkpt lat="43.64696361456282" lon="10.637799269729745"><ele>17.0</ele><time>2026-04-06T09:29:33.999Z</time></trkpt><trkpt lat="43.646966105981086" lon="10.637690321156722"><ele>17.0</ele><time>2026-04-06T09:29:34.999Z</time></trkpt><trkpt lat="43.64696556938545" lon="10.637574639324123"><ele>17.0</ele><time>2026-04-06T09:29:35.999Z</time></trkpt><trkpt lat="43.64696956005064" lon="10.637466971715488"><ele>17.0</ele><time>2026-04-06T09:29:36.999Z</time></trkpt><trkpt lat="43.64697382900648" lon="10.637330358732633"><ele>17.0</ele><time>2026-04-06T09:29:38.999Z</time></trkpt><trkpt lat="43.64698297969373" lon="10.637242331368553"><ele>17.0</ele><time>2026-04-06T09:30:14.999Z</time></trkpt><trkpt lat="43.646983702686356" lon="10.637129069147537"><ele>17.0</ele><time>2026-04-06T09:30:16.999Z</time></trkpt><trkpt lat="43.64698675797269" lon="10.63695715527976"><ele>17.0</ele><time>2026-04-06T09:30:18.999Z</time></trkpt><trkpt lat="43.64698820225153" lon="10.63685552326806"><ele>17.0</ele><time>2026-04-06T09:30:19.999Z</time></trkpt><trkpt lat="43.64699005599362" lon="10.636754053659763"><ele>17.0</ele><time>2026-04-06T09:30:20.999Z</time></trkpt><trkpt lat="43.64698985504528" lon="10.636649049709629"><ele>17.0</ele><time>2026-04-06T09:30:21.999Z</time></trkpt><trkpt lat="43.64699133639004" lon="10.636560834686087"><ele>17.0</ele><time>2026-04-06T09:30:22.999Z</time></trkpt><trkpt lat="43.64699194608968" lon="10.636472366297788"><ele>17.0</ele><time>2026-04-06T09:30:23.999Z</time></trkpt><trkpt lat="43.646994528281105" lon="10.636301068815577"><ele>17.0</ele><time>2026-04-06T09:30:25.999Z</time></trkpt><trkpt lat="43.646996085512235" lon="10.636213315299953"><ele>17.0</ele><time>2026-04-06T09:30:26.999Z</time></trkpt><trkpt lat="43.646998484467915" lon="10.636124671093269"><ele>17.0</ele><time>2026-04-06T09:30:27.999Z</time></trkpt><trkpt lat="43.64699996959049" lon="10.636023081846911"><ele>17.0</ele><time>2026-04-06T09:30:28.999Z</time></trkpt><trkpt lat="43.64700145170556" lon="10.63590870568771"><ele>17.0</ele><time>2026-04-06T09:30:29.999Z</time></trkpt><trkpt lat="43.64700398161295" lon="10.635791063422259"><ele>17.0</ele><time>2026-04-06T09:30:30.999Z</time></trkpt><trkpt lat="43.64700818690012" lon="10.635661931627617"><ele>17.0</ele><time>2026-04-06T09:30:31.999Z</time></trkpt><trkpt lat="43.64701149350591" lon="10.63551842119454"><ele>17.0</ele><time>2026-04-06T09:30:32.999Z</time></trkpt><trkpt lat="43.6470152677074" lon="10.635374490791188"><ele>17.0</ele><time>2026-04-06T09:30:33.999Z</time></trkpt><trkpt lat="43.64701829725449" lon="10.635215036669534"><ele>17.0</ele><time>2026-04-06T09:30:34.999Z</time></trkpt><trkpt lat="43.6470192949756" lon="10.63505930012711"><ele>17.0</ele><time>2026-04-06T09:30:35.999Z</time></trkpt><trkpt lat="43.64702195063276" lon="10.634895739210439"><ele>17.0</ele><time>2026-04-06T09:30:36.999Z</time></trkpt><trkpt lat="43.64702378901823" lon="10.634730575080331"><ele>17.0</ele><time>2026-04-06T09:30:37.999Z</time></trkpt><trkpt lat="43.647024758450655" lon="10.63456310042346"><ele>17.0</ele><time>2026-04-06T09:30:38.999Z</time></trkpt><trkpt lat="43.64702749803802" lon="10.634400713037785"><ele>17.0</ele><time>2026-04-06T09:30:39.999Z</time></trkpt><trkpt lat="43.647029186145836" lon="10.63423661824366"><ele>17.0</ele><time>2026-04-06T09:30:40.999Z</time></trkpt><trkpt lat="43.6470337145167" lon="10.634063049558021"><ele>17.0</ele><time>2026-04-06T09:30:41.999Z</time></trkpt><trkpt lat="43.647036128079684" lon="10.6338973581528"><ele>17.0</ele><time>2026-04-06T09:30:42.999Z</time></trkpt><trkpt lat="43.647039692959794" lon="10.633737221720784"><ele>17.0</ele><time>2026-04-06T09:30:43.999Z</time></trkpt><trkpt lat="43.64704297938284" lon="10.633581299305497"><ele>16.4</ele><time>2026-04-06T09:30:44.999Z</time></trkpt><trkpt lat="43.64704630518727" lon="10.633442661480847"><ele>15.799999999999999</ele><time>2026-04-06T09:30:45.999Z</time></trkpt><trkpt lat="43.647048485046724" lon="10.633311300359992"><ele>15.2</ele><time>2026-04-06T09:30:46.999Z</time></trkpt><trkpt lat="43.64705224995453" lon="10.63320167461056"><ele>14.6</ele><time>2026-04-06T09:30:47.999Z</time></trkpt><trkpt lat="43.64705389920542" lon="10.633105942252431"><ele>14.0</ele><time>2026-04-06T09:30:48.999Z</time></trkpt><trkpt lat="43.647059303264335" lon="10.632939159427302"><ele>14.166666666666668</ele><time>2026-04-06T09:30:50.999Z</time></trkpt><trkpt lat="43.647060215634816" lon="10.632768393716248"><ele>14.333333333333334</ele><time>2026-04-06T09:30:52.999Z</time></trkpt><trkpt lat="43.647062033606225" lon="10.632673382299066"><ele>14.5</ele><time>2026-04-06T09:30:53.999Z</time></trkpt><trkpt lat="43.647065813317" lon="10.632564834008567"><ele>14.666666666666668</ele><time>2026-04-06T09:30:54.999Z</time></trkpt><trkpt lat="43.64706926372781" lon="10.632461584226046"><ele>14.833333333333334</ele><time>2026-04-06T09:30:55.999Z</time></trkpt><trkpt lat="43.64707424440602" lon="10.632333754838442"><ele>15.0</ele><time>2026-04-06T09:30:56.999Z</time></trkpt><trkpt lat="43.64707720479112" lon="10.632202098546525"><ele>15.0</ele><time>2026-04-06T09:30:57.999Z</time></trkpt><trkpt lat="43.64708027499587" lon="10.632063152618269"><ele>15.0</ele><time>2026-04-06T09:30:58.999Z</time></trkpt><trkpt lat="43.6470828705243" lon="10.631924392350543"><ele>15.0</ele><time>2026-04-06T09:30:59.999Z</time></trkpt><trkpt lat="43.6470821503674" lon="10.631782682030344"><ele>15.0</ele><time>2026-04-06T09:31:00.999Z</time></trkpt><trkpt lat="43.64708135945784" lon="10.631646435786147"><ele>15.0</ele><time>2026-04-06T09:31:01.999Z</time></trkpt><trkpt lat="43.64708409799535" lon="10.631498265154965"><ele>15.6</ele><time>2026-04-06T09:31:02.999Z</time></trkpt><trkpt lat="43.64708674134384" lon="10.631354970266058"><ele>16.2</ele><time>2026-04-06T09:31:03.999Z</time></trkpt><trkpt lat="43.64708940628251" lon="10.631219347368184"><ele>16.8</ele><time>2026-04-06T09:31:04.999Z</time></trkpt><trkpt lat="43.64709222041435" lon="10.631106008668276"><ele>17.4</ele><time>2026-04-06T09:31:06Z</time></trkpt><trkpt lat="43.64709498003057" lon="10.631012966511731"><ele>18.0</ele><time>2026-04-06T09:31:07Z</time></trkpt><trkpt lat="43.64709534821801" lon="10.630863343122323"><ele>18.0</ele><time>2026-04-06T09:31:09Z</time></trkpt><trkpt lat="43.647098623230455" lon="10.630712507664324"><ele>18.0</ele><time>2026-04-06T09:31:11Z</time></trkpt><trkpt lat="43.64710187905945" lon="10.630580393093727"><ele>18.0</ele><time>2026-04-06T09:31:13Z</time></trkpt><trkpt lat="43.64710313135967" lon="10.63044287450618"><ele>18.0</ele><time>2026-04-06T09:31:15Z</time></trkpt><trkpt lat="43.64710368920255" lon="10.63029793048323"><ele>18.0</ele><time>2026-04-06T09:31:17Z</time></trkpt><trkpt lat="43.647106517466426" lon="10.63015450569339"><ele>17.833333333333332</ele><time>2026-04-06T09:31:19Z</time></trkpt><trkpt lat="43.647108759805" lon="10.629986390943733"><ele>17.666666666666668</ele><time>2026-04-06T09:31:21Z</time></trkpt><trkpt lat="43.647111083376224" lon="10.629896738473846"><ele>17.5</ele><time>2026-04-06T09:31:22Z</time></trkpt><trkpt lat="43.64711365769304" lon="10.629800324902789"><ele>17.333333333333336</ele><time>2026-04-06T09:31:23Z</time></trkpt><trkpt lat="43.64711669323892" lon="10.629686647927034"><ele>17.166666666666668</ele><time>2026-04-06T09:31:24Z</time></trkpt><trkpt lat="43.64711844905446" lon="10.629576709575412"><ele>17.0</ele><time>2026-04-06T09:31:25Z</time></trkpt><trkpt lat="43.647120048106146" lon="10.629460019639952"><ele>17.0</ele><time>2026-04-06T09:31:26Z</time></trkpt><trkpt lat="43.64712141129922" lon="10.629344503695737"><ele>17.0</ele><time>2026-04-06T09:31:27Z</time></trkpt><trkpt lat="43.64712278075341" lon="10.62923084910559"><ele>17.0</ele><time>2026-04-06T09:31:28Z</time></trkpt><trkpt lat="43.64712408376201" lon="10.629116525377206"><ele>17.0</ele><time>2026-04-06T09:31:29Z</time></trkpt><trkpt lat="43.64712711465874" lon="10.628999834119877"><ele>17.0</ele><time>2026-04-06T09:31:30Z</time></trkpt><trkpt lat="43.647128498850776" lon="10.62889454937218"><ele>17.0</ele><time>2026-04-06T09:31:31Z</time></trkpt><trkpt lat="43.64712982368859" lon="10.628799031376355"><ele>17.0</ele><time>2026-04-06T09:31:32Z</time></trkpt><trkpt lat="43.64713047112382" lon="10.62870676926226"><ele>17.0</ele><time>2026-04-06T09:31:33Z</time></trkpt><trkpt lat="43.64713087196886" lon="10.628553879103118"><ele>17.0</ele><time>2026-04-06T09:31:35Z</time></trkpt><trkpt lat="43.64713018702292" lon="10.628434980872434"><ele>17.0</ele><time>2026-04-06T09:31:37Z</time></trkpt><trkpt lat="43.647127419228326" lon="10.6283104346268"><ele>17.0</ele><time>2026-04-06T09:31:39Z</time></trkpt><trkpt lat="43.64712263706697" lon="10.6281684474369"><ele>16.833333333333336</ele><time>2026-04-06T09:31:41Z</time></trkpt><trkpt lat="43.64711726349769" lon="10.628019168783513"><ele>16.666666666666668</ele><time>2026-04-06T09:31:42.999Z</time></trkpt><trkpt lat="43.64711527172125" lon="10.627849845486445"><ele>16.5</ele><time>2026-04-06T09:31:44.999Z</time></trkpt><trkpt lat="43.64711279882847" lon="10.627754950370818"><ele>16.333333333333332</ele><time>2026-04-06T09:31:45.999Z</time></trkpt><trkpt lat="43.6471096555893" lon="10.627658119849087"><ele>16.166666666666664</ele><time>2026-04-06T09:31:46.999Z</time></trkpt><trkpt lat="43.64710609666993" lon="10.627560892198746"><ele>16.0</ele><time>2026-04-06T09:31:47.999Z</time></trkpt><trkpt lat="43.64710193245648" lon="10.627463947961102"><ele>15.999999999999998</ele><time>2026-04-06T09:31:48.999Z</time></trkpt><trkpt lat="43.64709766552638" lon="10.627365346287878"><ele>16.0</ele><time>2026-04-06T09:31:49.999Z</time></trkpt><trkpt lat="43.64709239626817" lon="10.627267351495723"><ele>16.0</ele><time>2026-04-06T09:31:50.999Z</time></trkpt><trkpt lat="43.64708507891999" lon="10.6271740254214"><ele>16.0</ele><time>2026-04-06T09:31:51.999Z</time></trkpt><trkpt lat="43.647071011471105" lon="10.627016604228105"><ele>15.999999999999998</ele><time>2026-04-06T09:31:53.999Z</time></trkpt><trkpt lat="43.64705938107778" lon="10.62688638726312"><ele>16.0</ele><time>2026-04-06T09:31:55.999Z</time></trkpt><trkpt lat="43.647048023041364" lon="10.626754868338049"><ele>16.2</ele><time>2026-04-06T09:31:57.999Z</time></trkpt><trkpt lat="43.64703737871746" lon="10.626615565996541"><ele>16.400000000000002</ele><time>2026-04-06T09:31:59.999Z</time></trkpt><trkpt lat="43.64702146590631" lon="10.626473859382603"><ele>16.6</ele><time>2026-04-06T09:32:01.999Z</time></trkpt><trkpt lat="43.646997289618504" lon="10.626325456154367"><ele>16.8</ele><time>2026-04-06T09:32:03.999Z</time></trkpt><trkpt lat="43.646970859209695" lon="10.62616519541797"><ele>17.0</ele><time>2026-04-06T09:32:05.999Z</time></trkpt><trkpt lat="43.646958109907956" lon="10.626074704944461"><ele>16.666666666666668</ele><time>2026-04-06T09:32:06.999Z</time></trkpt><trkpt lat="43.64694440072282" lon="10.625980381286945"><ele>16.333333333333336</ele><time>2026-04-06T09:32:07.999Z</time></trkpt><trkpt lat="43.64692874808555" lon="10.62588351242504"><ele>16.0</ele><time>2026-04-06T09:32:08.999Z</time></trkpt><trkpt lat="43.64691132047646" lon="10.625787785453534"><ele>15.666666666666668</ele><time>2026-04-06T09:32:09.999Z</time></trkpt><trkpt lat="43.64689416681455" lon="10.625701878790682"><ele>15.333333333333334</ele><time>2026-04-06T09:32:10.999Z</time></trkpt><trkpt lat="43.64686685364092" lon="10.62557579406734"><ele>15.0</ele><time>2026-04-06T09:32:12.999Z</time></trkpt><trkpt lat="43.64684241190871" lon="10.625468382664112"><ele>15.0</ele><time>2026-04-06T09:32:14.999Z</time></trkpt><trkpt lat="43.646819583211006" lon="10.625368450882359"><ele>15.0</ele><time>2026-04-06T09:32:16.999Z</time></trkpt><trkpt lat="43.64679625942532" lon="10.625261126957652"><ele>15.0</ele><time>2026-04-06T09:32:18.999Z</time></trkpt><trkpt lat="43.64676550610246" lon="10.625133113111298"><ele>15.0</ele><time>2026-04-06T09:32:20.999Z</time></trkpt><trkpt lat="43.646727951251236" lon="10.624993237447109"><ele>15.0</ele><time>2026-04-06T09:32:22.999Z</time></trkpt><trkpt lat="43.64668487784349" lon="10.6248369288202"><ele>15.0</ele><time>2026-04-06T09:32:24.999Z</time></trkpt><trkpt lat="43.646647692454955" lon="10.624703748252431"><ele>15.0</ele><time>2026-04-06T09:32:26.999Z</time></trkpt><trkpt lat="43.646617728110016" lon="10.624594092285143"><ele>15.0</ele><time>2026-04-06T09:32:28.999Z</time></trkpt><trkpt lat="43.64659176234661" lon="10.624503985253865"><ele>15.0</ele><time>2026-04-06T09:32:30.999Z</time></trkpt><trkpt lat="43.64656506183318" lon="10.624423253124407"><ele>15.0</ele><time>2026-04-06T09:32:32.999Z</time></trkpt><trkpt lat="43.64653225136264" lon="10.624320129640253"><ele>15.0</ele><time>2026-04-06T09:32:43.999Z</time></trkpt><trkpt lat="43.64649881163236" lon="10.624230498072091"><ele>14.833333333333334</ele><time>2026-04-06T09:32:45.999Z</time></trkpt><trkpt lat="43.64646430048398" lon="10.624127972772136"><ele>14.666666666666668</ele><time>2026-04-06T09:32:47.999Z</time></trkpt><trkpt lat="43.64643567830287" lon="10.624038036479991"><ele>14.5</ele><time>2026-04-06T09:32:49.999Z</time></trkpt><trkpt lat="43.64640233704243" lon="10.623955469944335"><ele>14.333333333333334</ele><time>2026-04-06T09:33:15Z</time></trkpt><trkpt lat="43.646359400958346" lon="10.623845324628189"><ele>14.166666666666668</ele><time>2026-04-06T09:33:18Z</time></trkpt><trkpt lat="43.64631568770226" lon="10.623739485328619"><ele>14.0</ele><time>2026-04-06T09:33:20Z</time></trkpt><trkpt lat="43.64627363591373" lon="10.623638066852237"><ele>14.000000000000002</ele><time>2026-04-06T09:33:22Z</time></trkpt><trkpt lat="43.64623096278463" lon="10.623537721421162"><ele>14.0</ele><time>2026-04-06T09:33:24Z</time></trkpt><trkpt lat="43.646187702682106" lon="10.623439055992579"><ele>14.0</ele><time>2026-04-06T09:33:26Z</time></trkpt><trkpt lat="43.64614697266235" lon="10.623340700675877"><ele>14.0</ele><time>2026-04-06T09:33:28Z</time></trkpt><trkpt lat="43.64610362938571" lon="10.62324129663345"><ele>14.000000000000002</ele><time>2026-04-06T09:33:30Z</time></trkpt><trkpt lat="43.64605215262434" lon="10.623140594610607"><ele>14.0</ele><time>2026-04-06T09:33:32Z</time></trkpt><trkpt lat="43.6460005195686" lon="10.623038295035345"><ele>14.166666666666668</ele><time>2026-04-06T09:33:34Z</time></trkpt><trkpt lat="43.645952822228956" lon="10.622932282706952"><ele>14.333333333333334</ele><time>2026-04-06T09:33:36Z</time></trkpt><trkpt lat="43.64589645488051" lon="10.622826059905831"><ele>14.5</ele><time>2026-04-06T09:33:38Z</time></trkpt><trkpt lat="43.64582588583929" lon="10.622703771127476"><ele>14.666666666666668</ele><time>2026-04-06T09:33:40Z</time></trkpt><trkpt lat="43.645786949881845" lon="10.62263183293479"><ele>14.833333333333334</ele><time>2026-04-06T09:33:41Z</time></trkpt><trkpt lat="43.64574160415714" lon="10.622548376937514"><ele>15.0</ele><time>2026-04-06T09:33:42Z</time></trkpt><trkpt lat="43.645687866563264" lon="10.62245503557853"><ele>15.0</ele><time>2026-04-06T09:33:43Z</time></trkpt><trkpt lat="43.64563190295311" lon="10.622360716875036"><ele>15.0</ele><time>2026-04-06T09:33:44Z</time></trkpt><trkpt lat="43.64557204348585" lon="10.622260889276488"><ele>15.0</ele><time>2026-04-06T09:33:45Z</time></trkpt><trkpt lat="43.64551207234146" lon="10.622164083238719"><ele>15.0</ele><time>2026-04-06T09:33:46Z</time></trkpt><trkpt lat="43.645452883599305" lon="10.622070153940916"><ele>15.0</ele><time>2026-04-06T09:33:46.999Z</time></trkpt><trkpt lat="43.64539301742438" lon="10.621977500241378"><ele>15.0</ele><time>2026-04-06T09:33:47.999Z</time></trkpt><trkpt lat="43.645330127147076" lon="10.62188109253095"><ele>15.0</ele><time>2026-04-06T09:33:48.999Z</time></trkpt><trkpt lat="43.645265026112796" lon="10.621784974471948"><ele>15.0</ele><time>2026-04-06T09:33:49.999Z</time></trkpt><trkpt lat="43.645196104062244" lon="10.621686479952329"><ele>15.0</ele><time>2026-04-06T09:33:50.999Z</time></trkpt><trkpt lat="43.645123800783765" lon="10.62158626679167"><ele>15.0</ele><time>2026-04-06T09:33:51.999Z</time></trkpt><trkpt lat="43.64505167495092" lon="10.621486155640271"><ele>15.2</ele><time>2026-04-06T09:33:52.999Z</time></trkpt><trkpt lat="43.64497933990369" lon="10.621386261717413"><ele>15.4</ele><time>2026-04-06T09:33:53.999Z</time></trkpt><trkpt lat="43.64490543062154" lon="10.621285631213222"><ele>15.600000000000001</ele><time>2026-04-06T09:33:54.999Z</time></trkpt><trkpt lat="43.64483116781868" lon="10.621187016998741"><ele>15.8</ele><time>2026-04-06T09:33:55.999Z</time></trkpt><trkpt lat="43.64475526816648" lon="10.621086436368198"><ele>16.0</ele><time>2026-04-06T09:33:56.999Z</time></trkpt><trkpt lat="43.64467835226117" lon="10.620984137227806"><ele>15.8</ele><time>2026-04-06T09:33:57.999Z</time></trkpt><trkpt lat="43.64460032940327" lon="10.62088242468115"><ele>15.600000000000001</ele><time>2026-04-06T09:33:58.999Z</time></trkpt><trkpt lat="43.64452066132185" lon="10.620780395645795"><ele>15.4</ele><time>2026-04-06T09:33:59.999Z</time></trkpt><trkpt lat="43.644440720393376" lon="10.620675827614145"><ele>15.2</ele><time>2026-04-06T09:34:00.999Z</time></trkpt><trkpt lat="43.64436161043587" lon="10.620568839765431"><ele>15.0</ele><time>2026-04-06T09:34:01.999Z</time></trkpt><trkpt lat="43.644279788833245" lon="10.620458940717226"><ele>15.0</ele><time>2026-04-06T09:34:02.999Z</time></trkpt><trkpt lat="43.64418804352106" lon="10.62033705413413"><ele>15.0</ele><time>2026-04-06T09:34:03.999Z</time></trkpt><trkpt lat="43.6441029458494" lon="10.620222359695848"><ele>15.0</ele><time>2026-04-06T09:34:04.999Z</time></trkpt><trkpt lat="43.644030589606054" lon="10.620127789375376"><ele>15.0</ele><time>2026-04-06T09:34:05.999Z</time></trkpt><trkpt lat="43.643950978550016" lon="10.620024530827813"><ele>15.25</ele><time>2026-04-06T09:34:06.999Z</time></trkpt><trkpt lat="43.64387091308168" lon="10.619920598990776"><ele>15.5</ele><time>2026-04-06T09:34:07.999Z</time></trkpt><trkpt lat="43.643789925727155" lon="10.619814408516403"><ele>15.75</ele><time>2026-04-06T09:34:08.999Z</time></trkpt><trkpt lat="43.64370449884182" lon="10.619701207711401"><ele>16.0</ele><time>2026-04-06T09:34:09.999Z</time></trkpt><trkpt lat="43.64361804588515" lon="10.61958666619119"><ele>15.5</ele><time>2026-04-06T09:34:10.999Z</time></trkpt><trkpt lat="43.64352996628803" lon="10.619470937549547"><ele>15.0</ele><time>2026-04-06T09:34:11.999Z</time></trkpt><trkpt lat="43.643438119430925" lon="10.619352507021805"><ele>14.5</ele><time>2026-04-06T09:34:12.999Z</time></trkpt><trkpt lat="43.64334584411741" lon="10.61923481062919"><ele>14.0</ele><time>2026-04-06T09:34:13.999Z</time></trkpt><trkpt lat="43.6432570548856" lon="10.619118128308546"><ele>14.0</ele><time>2026-04-06T09:34:14.999Z</time></trkpt><trkpt lat="43.643168736377696" lon="10.619002960400158"><ele>14.0</ele><time>2026-04-06T09:34:15.999Z</time></trkpt><trkpt lat="43.643076783809924" lon="10.618883306106003"><ele>14.0</ele><time>2026-04-06T09:34:16.999Z</time></trkpt><trkpt lat="43.64298229361646" lon="10.618758753325992"><ele>14.0</ele><time>2026-04-06T09:34:17.999Z</time></trkpt><trkpt lat="43.64288852689783" lon="10.618635686338925"><ele>14.25</ele><time>2026-04-06T09:34:18.999Z</time></trkpt><trkpt lat="43.64279610403376" lon="10.618511590812608"><ele>14.5</ele><time>2026-04-06T09:34:19.999Z</time></trkpt><trkpt lat="43.642701153647415" lon="10.61838501296574"><ele>14.75</ele><time>2026-04-06T09:34:20.999Z</time></trkpt><trkpt lat="43.642607390390154" lon="10.6182588008747"><ele>15.0</ele><time>2026-04-06T09:34:21.999Z</time></trkpt><trkpt lat="43.64251201247888" lon="10.618131127110912"><ele>15.0</ele><time>2026-04-06T09:34:22.999Z</time></trkpt><trkpt lat="43.64241550275902" lon="10.618005458334023"><ele>15.0</ele><time>2026-04-06T09:34:23.999Z</time></trkpt><trkpt lat="43.64231724006183" lon="10.617881806983846"><ele>15.0</ele><time>2026-04-06T09:34:24.999Z</time></trkpt><trkpt lat="43.64222173542535" lon="10.617757250607855"><ele>15.0</ele><time>2026-04-06T09:34:25.999Z</time></trkpt><trkpt lat="43.64212336991103" lon="10.617630841564836"><ele>15.0</ele><time>2026-04-06T09:34:26.999Z</time></trkpt><trkpt lat="43.64202731512047" lon="10.617502493063043"><ele>15.0</ele><time>2026-04-06T09:34:27.999Z</time></trkpt><trkpt lat="43.641931649434795" lon="10.617379653928815"><ele>15.0</ele><time>2026-04-06T09:34:28.999Z</time></trkpt><trkpt lat="43.64183509512727" lon="10.617251623666194"><ele>15.0</ele><time>2026-04-06T09:34:29.999Z</time></trkpt><trkpt lat="43.6417367368339" lon="10.617122367102823"><ele>15.0</ele><time>2026-04-06T09:34:30.999Z</time></trkpt><trkpt lat="43.641639244993506" lon="10.616995322175919"><ele>15.0</ele><time>2026-04-06T09:34:31.999Z</time></trkpt><trkpt lat="43.641542276181994" lon="10.616869510668732"><ele>15.0</ele><time>2026-04-06T09:34:32.999Z</time></trkpt><trkpt lat="43.64145079944619" lon="10.616750595682571"><ele>15.0</ele><time>2026-04-06T09:34:33.999Z</time></trkpt><trkpt lat="43.64136089740255" lon="10.616635113108993"><ele>15.0</ele><time>2026-04-06T09:34:34.999Z</time></trkpt><trkpt lat="43.64127355795246" lon="10.616521451102605"><ele>15.0</ele><time>2026-04-06T09:34:35.999Z</time></trkpt><trkpt lat="43.641192182171515" lon="10.61641283786379"><ele>15.0</ele><time>2026-04-06T09:34:36.999Z</time></trkpt><trkpt lat="43.64111373120162" lon="10.616308053244609"><ele>15.0</ele><time>2026-04-06T09:34:37.999Z</time></trkpt><trkpt lat="43.64104913238563" lon="10.616218927279773"><ele>15.0</ele><time>2026-04-06T09:34:38.999Z</time></trkpt><trkpt lat="43.640996364707604" lon="10.616148439066555"><ele>15.2</ele><time>2026-04-06T09:34:39.999Z</time></trkpt><trkpt lat="43.64090730564808" lon="10.616031840356714"><ele>15.4</ele><time>2026-04-06T09:34:41.999Z</time></trkpt><trkpt lat="43.640828562628926" lon="10.615931715158741"><ele>15.600000000000001</ele><time>2026-04-06T09:34:43.999Z</time></trkpt><trkpt lat="43.64075870834728" lon="10.615842352225277"><ele>15.8</ele><time>2026-04-06T09:34:45.999Z</time></trkpt><trkpt lat="43.64069058471717" lon="10.615755711571763"><ele>16.0</ele><time>2026-04-06T09:34:47.999Z</time></trkpt><trkpt lat="43.64062583161582" lon="10.615655053016443"><ele>15.999999999999998</ele><time>2026-04-06T09:34:49.999Z</time></trkpt><trkpt lat="43.64053718871836" lon="10.615533355939808"><ele>16.0</ele><time>2026-04-06T09:34:51.999Z</time></trkpt><trkpt lat="43.64049058390129" lon="10.61547001590892"><ele>16.0</ele><time>2026-04-06T09:34:52.999Z</time></trkpt><trkpt lat="43.64044101283465" lon="10.615404690469946"><ele>16.0</ele><time>2026-04-06T09:34:53.999Z</time></trkpt><trkpt lat="43.64039092732536" lon="10.615341015112485"><ele>15.999999999999998</ele><time>2026-04-06T09:34:54.999Z</time></trkpt><trkpt lat="43.640340696602294" lon="10.615276728467428"><ele>16.0</ele><time>2026-04-06T09:34:55.999Z</time></trkpt><trkpt lat="43.6402911584473" lon="10.61521012650157"><ele>15.999999999999998</ele><time>2026-04-06T09:34:56.999Z</time></trkpt><trkpt lat="43.64024227641236" lon="10.615142417115214"><ele>16.0</ele><time>2026-04-06T09:34:57.999Z</time></trkpt><trkpt lat="43.640190912700874" lon="10.615071619191717"><ele>16.0</ele><time>2026-04-06T09:34:58.999Z</time></trkpt><trkpt lat="43.640136409601666" lon="10.614999694542107"><ele>16.0</ele><time>2026-04-06T09:34:59.999Z</time></trkpt><trkpt lat="43.64007948332649" lon="10.614929315654216"><ele>15.999999999999998</ele><time>2026-04-06T09:35:00.999Z</time></trkpt><trkpt lat="43.64001878138483" lon="10.6148565843147"><ele>16.0</ele><time>2026-04-06T09:35:01.999Z</time></trkpt><trkpt lat="43.63995610418074" lon="10.614777297046306"><ele>15.999999999999998</ele><time>2026-04-06T09:35:02.999Z</time></trkpt><trkpt lat="43.63989436397538" lon="10.614694640288574"><ele>16.0</ele><time>2026-04-06T09:35:03.999Z</time></trkpt><trkpt lat="43.63983319541113" lon="10.614611205966025"><ele>16.0</ele><time>2026-04-06T09:35:04.999Z</time></trkpt><trkpt lat="43.639772255587886" lon="10.614529245348464"><ele>16.0</ele><time>2026-04-06T09:35:05.999Z</time></trkpt><trkpt lat="43.63971263491163" lon="10.61445258941562"><ele>15.999999999999998</ele><time>2026-04-06T09:35:06.999Z</time></trkpt><trkpt lat="43.639657901092335" lon="10.614381963780842"><ele>16.0</ele><time>2026-04-06T09:35:07.999Z</time></trkpt><trkpt lat="43.63961047775905" lon="10.614322353168326"><ele>15.8</ele><time>2026-04-06T09:35:08.999Z</time></trkpt><trkpt lat="43.63952567938877" lon="10.614215554594162"><ele>15.600000000000001</ele><time>2026-04-06T09:35:10.999Z</time></trkpt><trkpt lat="43.639448714487656" lon="10.614117496721576"><ele>15.4</ele><time>2026-04-06T09:35:12.999Z</time></trkpt><trkpt lat="43.63935566247531" lon="10.613998737161527"><ele>15.2</ele><time>2026-04-06T09:35:14.999Z</time></trkpt><trkpt lat="43.63930488623891" lon="10.613931835941328"><ele>15.0</ele><time>2026-04-06T09:35:15.999Z</time></trkpt><trkpt lat="43.63925149004898" lon="10.613859425512334"><ele>15.0</ele><time>2026-04-06T09:35:16.999Z</time></trkpt><trkpt lat="43.63919493302993" lon="10.613782999107896"><ele>15.0</ele><time>2026-04-06T09:35:18Z</time></trkpt><trkpt lat="43.63913334127201" lon="10.613702695016018"><ele>15.0</ele><time>2026-04-06T09:35:19Z</time></trkpt><trkpt lat="43.639071758010026" lon="10.6136206631188"><ele>15.0</ele><time>2026-04-06T09:35:20Z</time></trkpt><trkpt lat="43.63900847685269" lon="10.613536479280615"><ele>15.0</ele><time>2026-04-06T09:35:21Z</time></trkpt><trkpt lat="43.63894377922505" lon="10.613451194505073"><ele>15.0</ele><time>2026-04-06T09:35:22Z</time></trkpt><trkpt lat="43.638881587582944" lon="10.613370164413137"><ele>15.0</ele><time>2026-04-06T09:35:23Z</time></trkpt><trkpt lat="43.63881893047587" lon="10.613290408305913"><ele>15.0</ele><time>2026-04-06T09:35:24Z</time></trkpt><trkpt lat="43.638755602458595" lon="10.613213006151916"><ele>15.0</ele><time>2026-04-06T09:35:25Z</time></trkpt><trkpt lat="43.63869426082659" lon="10.61313600310495"><ele>15.0</ele><time>2026-04-06T09:35:26Z</time></trkpt><trkpt lat="43.63863034325484" lon="10.613052476275152"><ele>15.0</ele><time>2026-04-06T09:35:27Z</time></trkpt><trkpt lat="43.63857352897" lon="10.612978421104655"><ele>15.0</ele><time>2026-04-06T09:35:28Z</time></trkpt><trkpt lat="43.63850688266455" lon="10.612887644868023"><ele>15.2</ele><time>2026-04-06T09:35:29Z</time></trkpt><trkpt lat="43.638436337753795" lon="10.61279124552112"><ele>15.4</ele><time>2026-04-06T09:35:30Z</time></trkpt><trkpt lat="43.63836122559868" lon="10.612691893424804"><ele>15.600000000000001</ele><time>2026-04-06T09:35:31Z</time></trkpt><trkpt lat="43.638283085165035" lon="10.612588820459731"><ele>15.8</ele><time>2026-04-06T09:35:32Z</time></trkpt><trkpt lat="43.63819968319568" lon="10.612487514550084"><ele>16.0</ele><time>2026-04-06T09:35:33Z</time></trkpt><trkpt lat="43.63811636826993" lon="10.61237612954836"><ele>16.0</ele><time>2026-04-06T09:35:34Z</time></trkpt><trkpt lat="43.63803260777545" lon="10.61226909582527"><ele>16.0</ele><time>2026-04-06T09:35:35Z</time></trkpt><trkpt lat="43.637955224565516" lon="10.612166108213511"><ele>16.0</ele><time>2026-04-06T09:35:36Z</time></trkpt><trkpt lat="43.637883564419226" lon="10.612072569735293"><ele>16.0</ele><time>2026-04-06T09:35:37Z</time></trkpt><trkpt lat="43.63781352203578" lon="10.611981390802127"><ele>16.0</ele><time>2026-04-06T09:35:38Z</time></trkpt><trkpt lat="43.637743683186535" lon="10.611888162803304"><ele>16.0</ele><time>2026-04-06T09:35:39Z</time></trkpt><trkpt lat="43.63767499149895" lon="10.611799299068435"><ele>16.0</ele><time>2026-04-06T09:35:40Z</time></trkpt><trkpt lat="43.637607162345745" lon="10.611709660744932"><ele>16.0</ele><time>2026-04-06T09:35:41Z</time></trkpt><trkpt lat="43.637538173143305" lon="10.61161720060097"><ele>16.0</ele><time>2026-04-06T09:35:42Z</time></trkpt><trkpt lat="43.63746959327138" lon="10.611525720176553"><ele>16.0</ele><time>2026-04-06T09:35:43Z</time></trkpt><trkpt lat="43.63740092024475" lon="10.611434884315926"><ele>16.0</ele><time>2026-04-06T09:35:44Z</time></trkpt><trkpt lat="43.63732939290037" lon="10.611338905878322"><ele>16.0</ele><time>2026-04-06T09:35:45Z</time></trkpt><trkpt lat="43.637258605969166" lon="10.611241457195872"><ele>16.0</ele><time>2026-04-06T09:35:46Z</time></trkpt><trkpt lat="43.63718442814291" lon="10.611143033026236"><ele>16.0</ele><time>2026-04-06T09:35:47Z</time></trkpt><trkpt lat="43.63710649630099" lon="10.611043433929428"><ele>16.0</ele><time>2026-04-06T09:35:48Z</time></trkpt><trkpt lat="43.63702531485478" lon="10.610936498890785"><ele>15.8</ele><time>2026-04-06T09:35:49Z</time></trkpt><trkpt lat="43.63694330822694" lon="10.610829503627363"><ele>15.600000000000001</ele><time>2026-04-06T09:35:50Z</time></trkpt><trkpt lat="43.636862569991585" lon="10.610724356260704"><ele>15.4</ele><time>2026-04-06T09:35:51Z</time></trkpt><trkpt lat="43.636784616326835" lon="10.610620012729523"><ele>15.2</ele><time>2026-04-06T09:35:52Z</time></trkpt><trkpt lat="43.63670615070853" lon="10.61051413335994"><ele>15.0</ele><time>2026-04-06T09:35:53Z</time></trkpt><trkpt lat="43.63662842608528" lon="10.610410380717765"><ele>14.8</ele><time>2026-04-06T09:35:54Z</time></trkpt><trkpt lat="43.636553189471364" lon="10.610312652926062"><ele>14.6</ele><time>2026-04-06T09:35:55Z</time></trkpt><trkpt lat="43.6364817567418" lon="10.610219448645312"><ele>14.399999999999999</ele><time>2026-04-06T09:35:56Z</time></trkpt><trkpt lat="43.636409244374185" lon="10.610122617029617"><ele>14.2</ele><time>2026-04-06T09:35:57Z</time></trkpt><trkpt lat="43.636336763571414" lon="10.610022589129152"><ele>14.0</ele><time>2026-04-06T09:35:58Z</time></trkpt><trkpt lat="43.63626533642069" lon="10.609927248940082"><ele>14.000000000000002</ele><time>2026-04-06T09:35:59Z</time></trkpt><trkpt lat="43.63619444135835" lon="10.60983341539495"><ele>14.0</ele><time>2026-04-06T09:36:00Z</time></trkpt><trkpt lat="43.6361321447269" lon="10.609747319365752"><ele>14.0</ele><time>2026-04-06T09:36:01Z</time></trkpt><trkpt lat="43.6360745314809" lon="10.609671535953408"><ele>14.0</ele><time>2026-04-06T09:36:02Z</time></trkpt><trkpt lat="43.63602046627253" lon="10.609599335291385"><ele>14.000000000000002</ele><time>2026-04-06T09:36:03Z</time></trkpt><trkpt lat="43.635971209510934" lon="10.609533956083963"><ele>14.0</ele><time>2026-04-06T09:36:04Z</time></trkpt><trkpt lat="43.63592575966448" lon="10.609471423906713"><ele>14.166666666666668</ele><time>2026-04-06T09:36:05Z</time></trkpt><trkpt lat="43.63587925929731" lon="10.609405622018846"><ele>14.333333333333334</ele><time>2026-04-06T09:36:06Z</time></trkpt><trkpt lat="43.63583322656662" lon="10.609341261295036"><ele>14.5</ele><time>2026-04-06T09:36:07Z</time></trkpt><trkpt lat="43.635786445651924" lon="10.609275801608833"><ele>14.666666666666668</ele><time>2026-04-06T09:36:07.999Z</time></trkpt><trkpt lat="43.63570167578287" lon="10.609154844375823"><ele>14.833333333333334</ele><time>2026-04-06T09:36:09.999Z</time></trkpt><trkpt lat="43.63562190279346" lon="10.609039028570725"><ele>15.0</ele><time>2026-04-06T09:36:11.999Z</time></trkpt><trkpt lat="43.63554195977453" lon="10.60892196241481"><ele>15.0</ele><time>2026-04-06T09:36:13.999Z</time></trkpt><trkpt lat="43.63546533118201" lon="10.608813578838717"><ele>15.0</ele><time>2026-04-06T09:36:15.999Z</time></trkpt><trkpt lat="43.63541975880775" lon="10.608748404360204"><ele>15.0</ele><time>2026-04-06T09:36:29.999Z</time></trkpt><trkpt lat="43.63536438268364" lon="10.608670219382782"><ele>15.0</ele><time>2026-04-06T09:36:31.999Z</time></trkpt><trkpt lat="43.63530311678777" lon="10.6085769816055"><ele>15.0</ele><time>2026-04-06T09:36:33.999Z</time></trkpt><trkpt lat="43.63523635822406" lon="10.608474152635093"><ele>15.0</ele><time>2026-04-06T09:36:35.999Z</time></trkpt><trkpt lat="43.6351607199567" lon="10.608356177066717"><ele>15.0</ele><time>2026-04-06T09:36:37.999Z</time></trkpt><trkpt lat="43.63508575571395" lon="10.60823720953143"><ele>15.0</ele><time>2026-04-06T09:36:39.999Z</time></trkpt><trkpt lat="43.63503759751598" lon="10.60815866347741"><ele>15.0</ele><time>2026-04-06T09:36:40.999Z</time></trkpt><trkpt lat="43.634985641910426" lon="10.608070823269573"><ele>15.0</ele><time>2026-04-06T09:36:41.999Z</time></trkpt><trkpt lat="43.63493228672771" lon="10.607980517046709"><ele>15.0</ele><time>2026-04-06T09:36:42.999Z</time></trkpt><trkpt lat="43.6348783586081" lon="10.607886021290726"><ele>15.0</ele><time>2026-04-06T09:36:43.999Z</time></trkpt><trkpt lat="43.634824460422635" lon="10.607790701863467"><ele>15.0</ele><time>2026-04-06T09:36:44.999Z</time></trkpt><trkpt lat="43.634769036285974" lon="10.607693270753895"><ele>15.0</ele><time>2026-04-06T09:36:45.999Z</time></trkpt><trkpt lat="43.63471808980164" lon="10.607602238905086"><ele>15.0</ele><time>2026-04-06T09:36:46.999Z</time></trkpt><trkpt lat="43.634668695532774" lon="10.607514378307982"><ele>15.0</ele><time>2026-04-06T09:36:47.999Z</time></trkpt><trkpt lat="43.6346293698048" lon="10.607445399793775"><ele>15.0</ele><time>2026-04-06T09:36:48.999Z</time></trkpt><trkpt lat="43.634564310948186" lon="10.607332115734248"><ele>15.0</ele><time>2026-04-06T09:36:50.999Z</time></trkpt><trkpt lat="43.63450219544132" lon="10.60721434741446"><ele>15.0</ele><time>2026-04-06T09:36:52.999Z</time></trkpt><trkpt lat="43.63446726433519" lon="10.60714165412415"><ele>15.0</ele><time>2026-04-06T09:36:53.999Z</time></trkpt><trkpt lat="43.63442608091134" lon="10.607056983155777"><ele>15.0</ele><time>2026-04-06T09:36:54.999Z</time></trkpt><trkpt lat="43.634381957000826" lon="10.606965085453245"><ele>15.0</ele><time>2026-04-06T09:36:55.999Z</time></trkpt><trkpt lat="43.63433341552251" lon="10.606868008573468"><ele>15.0</ele><time>2026-04-06T09:36:56.999Z</time></trkpt><trkpt lat="43.63428555703398" lon="10.606773810672852"><ele>15.0</ele><time>2026-04-06T09:36:57.999Z</time></trkpt><trkpt lat="43.63424214653583" lon="10.606686327305363"><ele>15.166666666666666</ele><time>2026-04-06T09:36:58.999Z</time></trkpt><trkpt lat="43.63420202678589" lon="10.606604735833136"><ele>15.333333333333332</ele><time>2026-04-06T09:36:59.999Z</time></trkpt><trkpt lat="43.63416547314668" lon="10.606521433179212"><ele>15.5</ele><time>2026-04-06T09:37:00.999Z</time></trkpt><trkpt lat="43.63413074522319" lon="10.606440188369113"><ele>15.666666666666666</ele><time>2026-04-06T09:37:01.999Z</time></trkpt><trkpt lat="43.634097288517594" lon="10.606361337284167"><ele>15.833333333333332</ele><time>2026-04-06T09:37:02.999Z</time></trkpt><trkpt lat="43.634038731998096" lon="10.606218465722886"><ele>16.0</ele><time>2026-04-06T09:37:04.999Z</time></trkpt><trkpt lat="43.63397583896251" lon="10.60606548215555"><ele>15.714285714285714</ele><time>2026-04-06T09:37:06.999Z</time></trkpt><trkpt lat="43.63394357098646" lon="10.605985762626196"><ele>15.428571428571427</ele><time>2026-04-06T09:37:07.999Z</time></trkpt><trkpt lat="43.633912783370526" lon="10.605906579348975"><ele>15.142857142857142</ele><time>2026-04-06T09:37:08.999Z</time></trkpt><trkpt lat="43.63388362281422" lon="10.605828228018833"><ele>14.857142857142858</ele><time>2026-04-06T09:37:09.999Z</time></trkpt><trkpt lat="43.6338538136633" lon="10.605750001273124"><ele>14.571428571428571</ele><time>2026-04-06T09:37:10.999Z</time></trkpt><trkpt lat="43.63382233980824" lon="10.605669542130004"><ele>14.285714285714285</ele><time>2026-04-06T09:37:11.999Z</time></trkpt><trkpt lat="43.633790439051374" lon="10.605584861799663"><ele>14.0</ele><time>2026-04-06T09:37:12.999Z</time></trkpt><trkpt lat="43.63375908741845" lon="10.605496561283484"><ele>14.000000000000002</ele><time>2026-04-06T09:37:13.999Z</time></trkpt><trkpt lat="43.633726539437944" lon="10.605402327970257"><ele>14.0</ele><time>2026-04-06T09:37:14.999Z</time></trkpt><trkpt lat="43.633698324697676" lon="10.60531778860961"><ele>14.0</ele><time>2026-04-06T09:37:15.999Z</time></trkpt><trkpt lat="43.633670226184755" lon="10.60523443261899"><ele>14.0</ele><time>2026-04-06T09:37:16.999Z</time></trkpt><trkpt lat="43.633623477157855" lon="10.605097163034955"><ele>14.000000000000002</ele><time>2026-04-06T09:37:18.999Z</time></trkpt><trkpt lat="43.63357714445996" lon="10.604955794394611"><ele>14.0</ele><time>2026-04-06T09:37:20.999Z</time></trkpt><trkpt lat="43.63353373022314" lon="10.604817161781925"><ele>14.500000000000002</ele><time>2026-04-06T09:37:22.999Z</time></trkpt><trkpt lat="43.63349687773528" lon="10.60469540381498"><ele>15.0</ele><time>2026-04-06T09:37:25Z</time></trkpt><trkpt lat="43.63347254567522" lon="10.604604694294093"><ele>15.5</ele><time>2026-04-06T09:37:27Z</time></trkpt><trkpt lat="43.633442388005186" lon="10.60450121789989"><ele>16.0</ele><time>2026-04-06T09:37:30Z</time></trkpt><trkpt lat="43.63340794462245" lon="10.604400495384384"><ele>16.5</ele><time>2026-04-06T09:37:34Z</time></trkpt><trkpt lat="43.633369492304645" lon="10.604269695822722"><ele>17.0</ele><time>2026-04-06T09:37:37Z</time></trkpt><trkpt lat="43.63334571975119" lon="10.604186812088315"><ele>16.999999999999996</ele><time>2026-04-06T09:37:44Z</time></trkpt><trkpt lat="43.633327141738114" lon="10.604103098291807"><ele>17.0</ele><time>2026-04-06T09:37:49Z</time></trkpt><trkpt lat="43.63330194110197" lon="10.604002845533003"><ele>17.0</ele><time>2026-04-06T09:37:52Z</time></trkpt><trkpt lat="43.63327397464258" lon="10.603901438895424"><ele>17.0</ele><time>2026-04-06T09:37:55Z</time></trkpt><trkpt lat="43.63324548466158" lon="10.603808599175476"><ele>17.0</ele><time>2026-04-06T09:37:57Z</time></trkpt><trkpt lat="43.63321790588236" lon="10.603687704269886"><ele>16.999999999999996</ele><time>2026-04-06T09:38:00Z</time></trkpt><trkpt lat="43.633202618846866" lon="10.603602847072718"><ele>17.0</ele><time>2026-04-06T09:38:02Z</time></trkpt><trkpt lat="43.63317785544046" lon="10.603472282203416"><ele>16.833333333333336</ele><time>2026-04-06T09:38:05Z</time></trkpt><trkpt lat="43.63314732751083" lon="10.603348973061054"><ele>16.666666666666668</ele><time>2026-04-06T09:38:07Z</time></trkpt><trkpt lat="43.633118650721535" lon="10.603196498822525"><ele>16.5</ele><time>2026-04-06T09:38:09Z</time></trkpt><trkpt lat="43.633099536184666" lon="10.603094824416658"><ele>16.333333333333332</ele><time>2026-04-06T09:38:10Z</time></trkpt><trkpt lat="43.633083598854554" lon="10.602998934977348"><ele>16.166666666666664</ele><time>2026-04-06T09:38:11Z</time></trkpt><trkpt lat="43.63306775882491" lon="10.602902511729495"><ele>16.0</ele><time>2026-04-06T09:38:12Z</time></trkpt><trkpt lat="43.633052506819446" lon="10.60279552243887"><ele>15.999999999999998</ele><time>2026-04-06T09:38:13Z</time></trkpt><trkpt lat="43.6330331994681" lon="10.602692897042985"><ele>16.0</ele><time>2026-04-06T09:38:14Z</time></trkpt><trkpt lat="43.633012420533504" lon="10.602597711061875"><ele>16.0</ele><time>2026-04-06T09:38:15Z</time></trkpt><trkpt lat="43.632998963803004" lon="10.602483579844572"><ele>16.0</ele><time>2026-04-06T09:38:15.999Z</time></trkpt><trkpt lat="43.63298270323027" lon="10.602381062320594"><ele>15.999999999999998</ele><time>2026-04-06T09:38:16.999Z</time></trkpt><trkpt lat="43.632967348297925" lon="10.602280253212717"><ele>16.0</ele><time>2026-04-06T09:38:17.999Z</time></trkpt><trkpt lat="43.63295533494572" lon="10.602175801487538"><ele>15.999999999999998</ele><time>2026-04-06T09:38:18.999Z</time></trkpt><trkpt lat="43.63294318277278" lon="10.602072511851011"><ele>16.0</ele><time>2026-04-06T09:38:19.999Z</time></trkpt><trkpt lat="43.63293143840246" lon="10.601964948459337"><ele>16.0</ele><time>2026-04-06T09:38:20.999Z</time></trkpt><trkpt lat="43.632917100177345" lon="10.601864106680459"><ele>16.0</ele><time>2026-04-06T09:38:21.999Z</time></trkpt><trkpt lat="43.63290565501721" lon="10.601761411222357"><ele>15.999999999999998</ele><time>2026-04-06T09:38:22.999Z</time></trkpt><trkpt lat="43.63288999094183" lon="10.60166526367834"><ele>16.0</ele><time>2026-04-06T09:38:23.999Z</time></trkpt><trkpt lat="43.6328857103103" lon="10.601562992219554"><ele>16.166666666666664</ele><time>2026-04-06T09:38:24.999Z</time></trkpt><trkpt lat="43.63287843523749" lon="10.60146386006032"><ele>16.333333333333332</ele><time>2026-04-06T09:38:25.999Z</time></trkpt><trkpt lat="43.63287294324329" lon="10.601360653892302"><ele>16.5</ele><time>2026-04-06T09:38:26.999Z</time></trkpt><trkpt lat="43.63287073606814" lon="10.60125372762429"><ele>16.666666666666668</ele><time>2026-04-06T09:38:27.999Z</time></trkpt><trkpt lat="43.63286040659009" lon="10.60113696636631"><ele>16.833333333333336</ele><time>2026-04-06T09:38:28.999Z</time></trkpt><trkpt lat="43.63285381053153" lon="10.601014102293083"><ele>17.0</ele><time>2026-04-06T09:38:29.999Z</time></trkpt><trkpt lat="43.632845511870606" lon="10.600885681869384"><ele>16.6</ele><time>2026-04-06T09:38:30.999Z</time></trkpt><trkpt lat="43.63283866184904" lon="10.600752622937229"><ele>16.2</ele><time>2026-04-06T09:38:31.999Z</time></trkpt><trkpt lat="43.63283485608847" lon="10.60061579459691"><ele>15.8</ele><time>2026-04-06T09:38:32.999Z</time></trkpt><trkpt lat="43.63282933638525" lon="10.60048989030668"><ele>15.4</ele><time>2026-04-06T09:38:33.999Z</time></trkpt><trkpt lat="43.63282874713896" lon="10.600368907273774"><ele>15.0</ele><time>2026-04-06T09:38:34.999Z</time></trkpt><trkpt lat="43.632828392219004" lon="10.600252439048349"><ele>14.6</ele><time>2026-04-06T09:38:35.999Z</time></trkpt><trkpt lat="43.63282618989428" lon="10.60013330403124"><ele>14.2</ele><time>2026-04-06T09:38:36.999Z</time></trkpt><trkpt lat="43.63282438497333" lon="10.600010282789501"><ele>13.8</ele><time>2026-04-06T09:38:37.999Z</time></trkpt><trkpt lat="43.63282489915908" lon="10.599873930422559"><ele>13.4</ele><time>2026-04-06T09:38:38.999Z</time></trkpt><trkpt lat="43.63282359143489" lon="10.599730847745377"><ele>13.0</ele><time>2026-04-06T09:38:39.999Z</time></trkpt><trkpt lat="43.632830606827156" lon="10.599592137893485"><ele>13.0</ele><time>2026-04-06T09:38:40.999Z</time></trkpt><trkpt lat="43.63283415990996" lon="10.59944580990094"><ele>13.0</ele><time>2026-04-06T09:38:41.999Z</time></trkpt><trkpt lat="43.632840899388476" lon="10.599301020688175"><ele>13.0</ele><time>2026-04-06T09:38:42.999Z</time></trkpt><trkpt lat="43.63284778332431" lon="10.599155201815092"><ele>13.0</ele><time>2026-04-06T09:38:43.999Z</time></trkpt><trkpt lat="43.632854541668785" lon="10.599011258393174"><ele>13.0</ele><time>2026-04-06T09:38:44.999Z</time></trkpt><trkpt lat="43.63286202306938" lon="10.59886501904593"><ele>13.0</ele><time>2026-04-06T09:38:45.999Z</time></trkpt><trkpt lat="43.63287457084453" lon="10.59872037773681"><ele>13.0</ele><time>2026-04-06T09:38:46.999Z</time></trkpt><trkpt lat="43.63288457120326" lon="10.598577606088512"><ele>13.0</ele><time>2026-04-06T09:38:47.999Z</time></trkpt><trkpt lat="43.63289335525438" lon="10.598437171808412"><ele>13.0</ele><time>2026-04-06T09:38:48.999Z</time></trkpt><trkpt lat="43.63290404042602" lon="10.598293453244539"><ele>13.0</ele><time>2026-04-06T09:38:49.999Z</time></trkpt><trkpt lat="43.63291433682948" lon="10.598154474531407"><ele>13.0</ele><time>2026-04-06T09:38:50.999Z</time></trkpt><trkpt lat="43.63292557243768" lon="10.598012103931488"><ele>13.0</ele><time>2026-04-06T09:38:51.999Z</time></trkpt><trkpt lat="43.63293873295374" lon="10.59787895528002"><ele>13.0</ele><time>2026-04-06T09:38:52.999Z</time></trkpt><trkpt lat="43.6329506254928" lon="10.597748295621694"><ele>13.0</ele><time>2026-04-06T09:38:53.999Z</time></trkpt><trkpt lat="43.63296298942707" lon="10.59762371036325"><ele>13.0</ele><time>2026-04-06T09:38:54.999Z</time></trkpt><trkpt lat="43.63297542865665" lon="10.597498244219913"><ele>12.833333333333332</ele><time>2026-04-06T09:38:55.999Z</time></trkpt><trkpt lat="43.63298615654967" lon="10.597371415139408"><ele>12.666666666666666</ele><time>2026-04-06T09:38:56.999Z</time></trkpt><trkpt lat="43.63300170860699" lon="10.597251072946856"><ele>12.5</ele><time>2026-04-06T09:38:57.999Z</time></trkpt><trkpt lat="43.63301238141829" lon="10.597131505428761"><ele>12.333333333333332</ele><time>2026-04-06T09:38:58.999Z</time></trkpt><trkpt lat="43.6330265197151" lon="10.597019447052624"><ele>12.166666666666666</ele><time>2026-04-06T09:38:59.999Z</time></trkpt><trkpt lat="43.633041781073" lon="10.59689929177087"><ele>12.0</ele><time>2026-04-06T09:39:00.999Z</time></trkpt><trkpt lat="43.63305583944078" lon="10.596772975956307"><ele>12.0</ele><time>2026-04-06T09:39:01.999Z</time></trkpt><trkpt lat="43.633070843796844" lon="10.59664501074218"><ele>12.0</ele><time>2026-04-06T09:39:02.999Z</time></trkpt><trkpt lat="43.63308600839591" lon="10.596510256576144"><ele>12.0</ele><time>2026-04-06T09:39:03.999Z</time></trkpt><trkpt lat="43.6331046192719" lon="10.596370805192535"><ele>12.0</ele><time>2026-04-06T09:39:04.999Z</time></trkpt><trkpt lat="43.63312107144558" lon="10.596232150807005"><ele>12.0</ele><time>2026-04-06T09:39:05.999Z</time></trkpt><trkpt lat="43.633136672485605" lon="10.596097215391078"><ele>12.0</ele><time>2026-04-06T09:39:06.999Z</time></trkpt><trkpt lat="43.63315492180791" lon="10.595958851039786"><ele>12.0</ele><time>2026-04-06T09:39:07.999Z</time></trkpt><trkpt lat="43.633171304951844" lon="10.595822093982294"><ele>12.0</ele><time>2026-04-06T09:39:08.999Z</time></trkpt><trkpt lat="43.63319053457873" lon="10.595677952049197"><ele>12.0</ele><time>2026-04-06T09:39:09.999Z</time></trkpt><trkpt lat="43.633210429279885" lon="10.595526972645446"><ele>12.0</ele><time>2026-04-06T09:39:10.999Z</time></trkpt><trkpt lat="43.63323026538941" lon="10.595361072216319"><ele>12.25</ele><time>2026-04-06T09:39:11.999Z</time></trkpt><trkpt lat="43.63325331689031" lon="10.595190451387346"><ele>12.5</ele><time>2026-04-06T09:39:12.999Z</time></trkpt><trkpt lat="43.633276420070864" lon="10.595017379157095"><ele>12.75</ele><time>2026-04-06T09:39:13.999Z</time></trkpt><trkpt lat="43.63329919061224" lon="10.594848617291458"><ele>13.0</ele><time>2026-04-06T09:39:14.999Z</time></trkpt><trkpt lat="43.63332092681784" lon="10.594687525988688"><ele>13.0</ele><time>2026-04-06T09:39:15.999Z</time></trkpt><trkpt lat="43.63334138661043" lon="10.594522440128669"><ele>13.0</ele><time>2026-04-06T09:39:16.999Z</time></trkpt><trkpt lat="43.633361370306204" lon="10.59435171644125"><ele>13.0</ele><time>2026-04-06T09:39:17.999Z</time></trkpt><trkpt lat="43.63338173115566" lon="10.594174601788392"><ele>13.0</ele><time>2026-04-06T09:39:18.999Z</time></trkpt><trkpt lat="43.63340424295287" lon="10.593985970278176"><ele>13.25</ele><time>2026-04-06T09:39:19.999Z</time></trkpt><trkpt lat="43.63344058859255" lon="10.59379855550349"><ele>13.5</ele><time>2026-04-06T09:39:20.999Z</time></trkpt><trkpt lat="43.63345952189564" lon="10.593604032000352"><ele>13.75</ele><time>2026-04-06T09:39:21.999Z</time></trkpt><trkpt lat="43.63348329521586" lon="10.593417682778712"><ele>14.0</ele><time>2026-04-06T09:39:22.999Z</time></trkpt><trkpt lat="43.63350899731212" lon="10.593234383062914"><ele>14.0</ele><time>2026-04-06T09:39:23.999Z</time></trkpt><trkpt lat="43.63353181143723" lon="10.593063406305633"><ele>14.0</ele><time>2026-04-06T09:39:24.999Z</time></trkpt><trkpt lat="43.63355352825308" lon="10.592903135862324"><ele>14.0</ele><time>2026-04-06T09:39:25.999Z</time></trkpt><trkpt lat="43.63357208364416" lon="10.592747948147368"><ele>14.0</ele><time>2026-04-06T09:39:26.999Z</time></trkpt><trkpt lat="43.63358907798322" lon="10.592603963608516"><ele>13.799999999999999</ele><time>2026-04-06T09:39:27.999Z</time></trkpt><trkpt lat="43.63360699178475" lon="10.592463240781088"><ele>13.599999999999998</ele><time>2026-04-06T09:39:28.999Z</time></trkpt><trkpt lat="43.63362617341191" lon="10.592315093286869"><ele>13.4</ele><time>2026-04-06T09:39:30Z</time></trkpt><trkpt lat="43.63364494840537" lon="10.592164541934867"><ele>13.2</ele><time>2026-04-06T09:39:31Z</time></trkpt><trkpt lat="43.63366559923525" lon="10.592004454494065"><ele>13.0</ele><time>2026-04-06T09:39:32Z</time></trkpt><trkpt lat="43.633685272793365" lon="10.591839910493414"><ele>12.75</ele><time>2026-04-06T09:39:33Z</time></trkpt><trkpt lat="43.63370768414187" lon="10.591675595618378"><ele>12.5</ele><time>2026-04-06T09:39:34Z</time></trkpt><trkpt lat="43.63372624485243" lon="10.591516872255692"><ele>12.25</ele><time>2026-04-06T09:39:35Z</time></trkpt><trkpt lat="43.6337456411718" lon="10.591358297903252"><ele>12.0</ele><time>2026-04-06T09:39:36Z</time></trkpt><trkpt lat="43.633765175336826" lon="10.591206907581457"><ele>12.25</ele><time>2026-04-06T09:39:37Z</time></trkpt><trkpt lat="43.63378692001539" lon="10.591055185504182"><ele>12.5</ele><time>2026-04-06T09:39:38Z</time></trkpt><trkpt lat="43.633808680573296" lon="10.590902903640247"><ele>12.75</ele><time>2026-04-06T09:39:39Z</time></trkpt><trkpt lat="43.63383119677949" lon="10.590747131272899"><ele>13.0</ele><time>2026-04-06T09:39:40Z</time></trkpt><trkpt lat="43.633851190010354" lon="10.590588220875233"><ele>13.0</ele><time>2026-04-06T09:39:41Z</time></trkpt><trkpt lat="43.63387156544732" lon="10.590424945829087"><ele>13.0</ele><time>2026-04-06T09:39:42Z</time></trkpt><trkpt lat="43.63389660668017" lon="10.59025274570635"><ele>13.0</ele><time>2026-04-06T09:39:43Z</time></trkpt><trkpt lat="43.633912718579204" lon="10.590103225587436"><ele>13.0</ele><time>2026-04-06T09:39:44Z</time></trkpt><trkpt lat="43.63393278379694" lon="10.589932203299398"><ele>13.25</ele><time>2026-04-06T09:39:45Z</time></trkpt><trkpt lat="43.63395663860597" lon="10.589757791226111"><ele>13.5</ele><time>2026-04-06T09:39:46Z</time></trkpt><trkpt lat="43.633979708453104" lon="10.58957050700963"><ele>13.75</ele><time>2026-04-06T09:39:47Z</time></trkpt><trkpt lat="43.63400187190485" lon="10.589374912187182"><ele>14.0</ele><time>2026-04-06T09:39:48Z</time></trkpt><trkpt lat="43.63402466989536" lon="10.589190351536693"><ele>14.25</ele><time>2026-04-06T09:39:49Z</time></trkpt><trkpt lat="43.634047702960835" lon="10.589002800540587"><ele>14.5</ele><time>2026-04-06T09:39:50Z</time></trkpt><trkpt lat="43.63407136741788" lon="10.588820324534112"><ele>14.75</ele><time>2026-04-06T09:39:51Z</time></trkpt><trkpt lat="43.63409900360731" lon="10.58863647184593"><ele>15.0</ele><time>2026-04-06T09:39:52Z</time></trkpt><trkpt lat="43.63412088990753" lon="10.588454649466351"><ele>14.0</ele><time>2026-04-06T09:39:53Z</time></trkpt><trkpt lat="43.63414289583118" lon="10.58828245376441"><ele>13.0</ele><time>2026-04-06T09:39:54Z</time></trkpt><trkpt lat="43.634166202274706" lon="10.588116328665764"><ele>12.0</ele><time>2026-04-06T09:39:55Z</time></trkpt><trkpt lat="43.634189288165615" lon="10.587956160021708"><ele>11.0</ele><time>2026-04-06T09:39:56Z</time></trkpt><trkpt lat="43.63420933410593" lon="10.587804657549936"><ele>10.25</ele><time>2026-04-06T09:39:57Z</time></trkpt><trkpt lat="43.63422563304665" lon="10.587652449080887"><ele>9.5</ele><time>2026-04-06T09:39:58Z</time></trkpt><trkpt lat="43.634242447442574" lon="10.587500542192316"><ele>8.75</ele><time>2026-04-06T09:39:59Z</time></trkpt><trkpt lat="43.63425980947842" lon="10.587338605431885"><ele>8.0</ele><time>2026-04-06T09:40:00Z</time></trkpt><trkpt lat="43.63427845117933" lon="10.587166818081101"><ele>8.75</ele><time>2026-04-06T09:40:01Z</time></trkpt><trkpt lat="43.63429183652901" lon="10.586987416957232"><ele>9.5</ele><time>2026-04-06T09:40:02Z</time></trkpt><trkpt lat="43.634306786651294" lon="10.586805882109312"><ele>10.25</ele><time>2026-04-06T09:40:03Z</time></trkpt><trkpt lat="43.634323392689566" lon="10.58661260213986"><ele>11.0</ele><time>2026-04-06T09:40:04Z</time></trkpt><trkpt lat="43.63433671314448" lon="10.586418687775625"><ele>11.0</ele><time>2026-04-06T09:40:05Z</time></trkpt><trkpt lat="43.63435009922303" lon="10.586213706552627"><ele>11.0</ele><time>2026-04-06T09:40:06Z</time></trkpt><trkpt lat="43.63435927047914" lon="10.586003475896854"><ele>11.0</ele><time>2026-04-06T09:40:07Z</time></trkpt><trkpt lat="43.634363968512105" lon="10.58578031525945"><ele>11.666666666666666</ele><time>2026-04-06T09:40:08Z</time></trkpt><trkpt lat="43.63437075565026" lon="10.585568320426246"><ele>12.333333333333332</ele><time>2026-04-06T09:40:09Z</time></trkpt><trkpt lat="43.63437543401961" lon="10.585347981021023"><ele>13.0</ele><time>2026-04-06T09:40:10Z</time></trkpt><trkpt lat="43.63438252070923" lon="10.585125734729516"><ele>13.0</ele><time>2026-04-06T09:40:11Z</time></trkpt><trkpt lat="43.634386647064225" lon="10.584915021622038"><ele>13.0</ele><time>2026-04-06T09:40:12Z</time></trkpt><trkpt lat="43.63438104073764" lon="10.584675670738006"><ele>13.0</ele><time>2026-04-06T09:40:13Z</time></trkpt><trkpt lat="43.634380249772626" lon="10.584443131711048"><ele>11.666666666666666</ele><time>2026-04-06T09:40:14Z</time></trkpt><trkpt lat="43.634379463166184" lon="10.584211859140096"><ele>10.333333333333332</ele><time>2026-04-06T09:40:15Z</time></trkpt><trkpt lat="43.63437759986302" lon="10.583977614180121"><ele>9.0</ele><time>2026-04-06T09:40:16Z</time></trkpt><trkpt lat="43.63437374479107" lon="10.583735660925868"><ele>9.333333333333334</ele><time>2026-04-06T09:40:17Z</time></trkpt><trkpt lat="43.63437167006038" lon="10.583496656445075"><ele>9.666666666666668</ele><time>2026-04-06T09:40:18Z</time></trkpt><trkpt lat="43.63437010210017" lon="10.583258896462254"><ele>10.0</ele><time>2026-04-06T09:40:19Z</time></trkpt><trkpt lat="43.634365943793874" lon="10.583014094440946"><ele>10.666666666666668</ele><time>2026-04-06T09:40:20Z</time></trkpt><trkpt lat="43.63436045011443" lon="10.582761162705324"><ele>11.333333333333334</ele><time>2026-04-06T09:40:20.999Z</time></trkpt><trkpt lat="43.63435491741641" lon="10.582517579997425"><ele>12.0</ele><time>2026-04-06T09:40:21.999Z</time></trkpt><trkpt lat="43.63435054024422" lon="10.582262829639902"><ele>11.666666666666666</ele><time>2026-04-06T09:40:22.999Z</time></trkpt><trkpt lat="43.63434611446799" lon="10.582008036990757"><ele>11.333333333333332</ele><time>2026-04-06T09:40:23.999Z</time></trkpt><trkpt lat="43.63434258177648" lon="10.581758788386043"><ele>11.0</ele><time>2026-04-06T09:40:24.999Z</time></trkpt><trkpt lat="43.63433984220418" lon="10.581503490051624"><ele>11.0</ele><time>2026-04-06T09:40:25.999Z</time></trkpt><trkpt lat="43.634336190495254" lon="10.581242169270233"><ele>11.0</ele><time>2026-04-06T09:40:26.999Z</time></trkpt><trkpt lat="43.63433274859753" lon="10.580986595016082"><ele>11.0</ele><time>2026-04-06T09:40:27.999Z</time></trkpt><trkpt lat="43.63433077568917" lon="10.580726655514756"><ele>11.0</ele><time>2026-04-06T09:40:28.999Z</time></trkpt><trkpt lat="43.634327522344336" lon="10.58046233834072"><ele>11.0</ele><time>2026-04-06T09:40:29.999Z</time></trkpt><trkpt lat="43.63432392831837" lon="10.58019950505956"><ele>11.0</ele><time>2026-04-06T09:40:30.999Z</time></trkpt><trkpt lat="43.63431749849483" lon="10.579940761618623"><ele>10.333333333333332</ele><time>2026-04-06T09:40:31.999Z</time></trkpt><trkpt lat="43.63431239998996" lon="10.579673711431886"><ele>9.666666666666666</ele><time>2026-04-06T09:40:32.999Z</time></trkpt><trkpt lat="43.634306677678275" lon="10.579412032547054"><ele>9.0</ele><time>2026-04-06T09:40:33.999Z</time></trkpt><trkpt lat="43.63430090278145" lon="10.57915654599326"><ele>9.0</ele><time>2026-04-06T09:40:34.999Z</time></trkpt><trkpt lat="43.6342970133603" lon="10.578881685191057"><ele>9.0</ele><time>2026-04-06T09:40:35.999Z</time></trkpt><trkpt lat="43.63429283470904" lon="10.578611594317001"><ele>9.0</ele><time>2026-04-06T09:40:36.999Z</time></trkpt><trkpt lat="43.63429317640372" lon="10.57835854127657"><ele>9.0</ele><time>2026-04-06T09:40:37.999Z</time></trkpt><trkpt lat="43.63428965907244" lon="10.578081491087481"><ele>9.0</ele><time>2026-04-06T09:40:38.999Z</time></trkpt><trkpt lat="43.634284913953174" lon="10.577814767960811"><ele>9.0</ele><time>2026-04-06T09:40:39.999Z</time></trkpt><trkpt lat="43.63427687460759" lon="10.5775474311345"><ele>9.0</ele><time>2026-04-06T09:40:40.999Z</time></trkpt><trkpt lat="43.63427600188745" lon="10.57727355594284"><ele>9.0</ele><time>2026-04-06T09:40:41.999Z</time></trkpt><trkpt lat="43.63427281154805" lon="10.577004933094317"><ele>9.0</ele><time>2026-04-06T09:40:42.999Z</time></trkpt><trkpt lat="43.63426840017338" lon="10.576738300670897"><ele>8.666666666666666</ele><time>2026-04-06T09:40:43.999Z</time></trkpt><trkpt lat="43.634264962338875" lon="10.5764685273379"><ele>8.333333333333332</ele><time>2026-04-06T09:40:44.999Z</time></trkpt><trkpt lat="43.63425903182668" lon="10.576202479008513"><ele>8.0</ele><time>2026-04-06T09:40:45.999Z</time></trkpt><trkpt lat="43.63425564874088" lon="10.57592513447873"><ele>8.0</ele><time>2026-04-06T09:40:46.999Z</time></trkpt><trkpt lat="43.63424990067887" lon="10.575650898979951"><ele>8.0</ele><time>2026-04-06T09:40:47.999Z</time></trkpt><trkpt lat="43.63424565418114" lon="10.5753709207542"><ele>8.0</ele><time>2026-04-06T09:40:48.999Z</time></trkpt><trkpt lat="43.634240295258145" lon="10.57509508435974"><ele>8.666666666666666</ele><time>2026-04-06T09:40:49.999Z</time></trkpt><trkpt lat="43.63423670176396" lon="10.574811800944396"><ele>9.333333333333334</ele><time>2026-04-06T09:40:50.999Z</time></trkpt><trkpt lat="43.63422939632942" lon="10.574524032456592"><ele>10.0</ele><time>2026-04-06T09:40:51.999Z</time></trkpt><trkpt lat="43.63421684487113" lon="10.57424178272843"><ele>10.0</ele><time>2026-04-06T09:40:52.999Z</time></trkpt><trkpt lat="43.63420471509211" lon="10.573948773617285"><ele>10.0</ele><time>2026-04-06T09:40:53.999Z</time></trkpt><trkpt lat="43.63418469864862" lon="10.573669978649455"><ele>10.0</ele><time>2026-04-06T09:40:54.999Z</time></trkpt><trkpt lat="43.63416294813674" lon="10.57338642727292"><ele>9.333333333333334</ele><time>2026-04-06T09:40:55.999Z</time></trkpt><trkpt lat="43.634138633147884" lon="10.5731079758714"><ele>8.666666666666666</ele><time>2026-04-06T09:40:56.999Z</time></trkpt><trkpt lat="43.63411485349054" lon="10.572822833664318"><ele>8.0</ele><time>2026-04-06T09:40:57.999Z</time></trkpt><trkpt lat="43.634087000438754" lon="10.572542076916287"><ele>8.0</ele><time>2026-04-06T09:40:58.999Z</time></trkpt><trkpt lat="43.63405412121928" lon="10.572265197529859"><ele>8.0</ele><time>2026-04-06T09:40:59.999Z</time></trkpt><trkpt lat="43.634021714920074" lon="10.571985857988002"><ele>8.0</ele><time>2026-04-06T09:41:00.999Z</time></trkpt><trkpt lat="43.63399045132439" lon="10.571701846015998"><ele>8.0</ele><time>2026-04-06T09:41:01.999Z</time></trkpt><trkpt lat="43.63395530987703" lon="10.571423881378577"><ele>8.0</ele><time>2026-04-06T09:41:02.999Z</time></trkpt><trkpt lat="43.63391527973263" lon="10.571144187230592"><ele>8.0</ele><time>2026-04-06T09:41:03.999Z</time></trkpt><trkpt lat="43.63387090108369" lon="10.57086404996694"><ele>8.333333333333332</ele><time>2026-04-06T09:41:04.999Z</time></trkpt><trkpt lat="43.63382219535068" lon="10.570589165796918"><ele>8.666666666666666</ele><time>2026-04-06T09:41:05.999Z</time></trkpt><trkpt lat="43.63377320198055" lon="10.570307718175114"><ele>9.0</ele><time>2026-04-06T09:41:06.999Z</time></trkpt><trkpt lat="43.63372432294509" lon="10.570019108765567"><ele>9.0</ele><time>2026-04-06T09:41:07.999Z</time></trkpt><trkpt lat="43.63367441874188" lon="10.569743234399413"><ele>9.0</ele><time>2026-04-06T09:41:08.999Z</time></trkpt><trkpt lat="43.63362501060032" lon="10.569460245225498"><ele>9.0</ele><time>2026-04-06T09:41:09.999Z</time></trkpt><trkpt lat="43.63357247507252" lon="10.56919509734994"><ele>9.0</ele><time>2026-04-06T09:41:10.999Z</time></trkpt><trkpt lat="43.6335217186104" lon="10.568915172195567"><ele>9.0</ele><time>2026-04-06T09:41:11.999Z</time></trkpt><trkpt lat="43.633471700586036" lon="10.56864229734831"><ele>9.0</ele><time>2026-04-06T09:41:12.999Z</time></trkpt><trkpt lat="43.63342164067804" lon="10.568369878495368"><ele>9.0</ele><time>2026-04-06T09:41:13.999Z</time></trkpt><trkpt lat="43.633372964988865" lon="10.568093320352553"><ele>9.0</ele><time>2026-04-06T09:41:14.999Z</time></trkpt><trkpt lat="43.633323857829204" lon="10.567823605892833"><ele>9.0</ele><time>2026-04-06T09:41:15.999Z</time></trkpt><trkpt lat="43.63327593345029" lon="10.567552115198353"><ele>9.0</ele><time>2026-04-06T09:41:16.999Z</time></trkpt><trkpt lat="43.63322857330711" lon="10.567281032283248"><ele>9.0</ele><time>2026-04-06T09:41:17.999Z</time></trkpt><trkpt lat="43.633175598776354" lon="10.56700916766995"><ele>9.0</ele><time>2026-04-06T09:41:18.999Z</time></trkpt><trkpt lat="43.63312823083184" lon="10.566742384317672"><ele>9.0</ele><time>2026-04-06T09:41:19.999Z</time></trkpt><trkpt lat="43.63307840699803" lon="10.566468056950665"><ele>9.0</ele><time>2026-04-06T09:41:20.999Z</time></trkpt><trkpt lat="43.63303106455417" lon="10.566193389919874"><ele>9.0</ele><time>2026-04-06T09:41:21.999Z</time></trkpt><trkpt lat="43.63298140712049" lon="10.565919733565204"><ele>9.0</ele><time>2026-04-06T09:41:22.999Z</time></trkpt><trkpt lat="43.63293449464645" lon="10.565643836007684"><ele>9.0</ele><time>2026-04-06T09:41:23.999Z</time></trkpt><trkpt lat="43.632882260620654" lon="10.565373942140726"><ele>9.0</ele><time>2026-04-06T09:41:24.999Z</time></trkpt><trkpt lat="43.632833721260674" lon="10.565097896017223"><ele>8.666666666666666</ele><time>2026-04-06T09:41:25.999Z</time></trkpt><trkpt lat="43.632783986452324" lon="10.564822557589707"><ele>8.333333333333332</ele><time>2026-04-06T09:41:26.999Z</time></trkpt><trkpt lat="43.63273780963816" lon="10.564542951478346"><ele>8.0</ele><time>2026-04-06T09:41:27.999Z</time></trkpt><trkpt lat="43.632687498262044" lon="10.564267807577139"><ele>8.0</ele><time>2026-04-06T09:41:28.999Z</time></trkpt><trkpt lat="43.63263834784842" lon="10.563986853096958"><ele>8.0</ele><time>2026-04-06T09:41:29.999Z</time></trkpt><trkpt lat="43.63259193735127" lon="10.563700439912305"><ele>8.0</ele><time>2026-04-06T09:41:30.999Z</time></trkpt><trkpt lat="43.632537520638614" lon="10.563424805163134"><ele>8.0</ele><time>2026-04-06T09:41:31.999Z</time></trkpt><trkpt lat="43.632485703010154" lon="10.563143044182615"><ele>8.0</ele><time>2026-04-06T09:41:32.999Z</time></trkpt><trkpt lat="43.63243429879569" lon="10.562860225452186"><ele>8.0</ele><time>2026-04-06T09:41:33.999Z</time></trkpt><trkpt lat="43.632383587175894" lon="10.562580462764414"><ele>8.0</ele><time>2026-04-06T09:41:34.999Z</time></trkpt><trkpt lat="43.632333470945504" lon="10.562296466598879"><ele>8.0</ele><time>2026-04-06T09:41:36Z</time></trkpt><trkpt lat="43.63228387565323" lon="10.562012427866858"><ele>8.0</ele><time>2026-04-06T09:41:37Z</time></trkpt><trkpt lat="43.63223118967585" lon="10.561737330572896"><ele>8.0</ele><time>2026-04-06T09:41:38Z</time></trkpt><trkpt lat="43.632183282827924" lon="10.56144846668354"><ele>8.0</ele><time>2026-04-06T09:41:39Z</time></trkpt><trkpt lat="43.63213209763409" lon="10.561166062430718"><ele>8.0</ele><time>2026-04-06T09:41:40Z</time></trkpt><trkpt lat="43.63208203785039" lon="10.560879944121552"><ele>8.0</ele><time>2026-04-06T09:41:41Z</time></trkpt><trkpt lat="43.63203098882773" lon="10.560596938815502"><ele>8.0</ele><time>2026-04-06T09:41:42Z</time></trkpt><trkpt lat="43.63197816077563" lon="10.560315395763501"><ele>8.0</ele><time>2026-04-06T09:41:43Z</time></trkpt><trkpt lat="43.63192811468019" lon="10.560026138913466"><ele>8.333333333333332</ele><time>2026-04-06T09:41:44Z</time></trkpt><trkpt lat="43.631876095163975" lon="10.559748913273975"><ele>8.666666666666666</ele><time>2026-04-06T09:41:45Z</time></trkpt><trkpt lat="43.63182490039088" lon="10.559465202222297"><ele>9.0</ele><time>2026-04-06T09:41:46Z</time></trkpt><trkpt lat="43.6317739399872" lon="10.559184411960882"><ele>8.333333333333334</ele><time>2026-04-06T09:41:47Z</time></trkpt><trkpt lat="43.631723312764166" lon="10.558903258358107"><ele>7.666666666666667</ele><time>2026-04-06T09:41:48Z</time></trkpt><trkpt lat="43.631671340662" lon="10.55862522812929"><ele>7.0</ele><time>2026-04-06T09:41:49Z</time></trkpt><trkpt lat="43.63162042498294" lon="10.558346137742726"><ele>7.0</ele><time>2026-04-06T09:41:50Z</time></trkpt><trkpt lat="43.6315702767212" lon="10.558066274104029"><ele>7.0</ele><time>2026-04-06T09:41:51Z</time></trkpt><trkpt lat="43.631520443901486" lon="10.557786200944566"><ele>7.0</ele><time>2026-04-06T09:41:52Z</time></trkpt><trkpt lat="43.63147354378736" lon="10.557506295055305"><ele>7.333333333333334</ele><time>2026-04-06T09:41:53Z</time></trkpt><trkpt lat="43.631423706585714" lon="10.557226114802557"><ele>7.666666666666666</ele><time>2026-04-06T09:41:54Z</time></trkpt><trkpt lat="43.63137645862117" lon="10.556943754071034"><ele>8.0</ele><time>2026-04-06T09:41:55Z</time></trkpt><trkpt lat="43.63132547914908" lon="10.556665804538309"><ele>8.0</ele><time>2026-04-06T09:41:56Z</time></trkpt><trkpt lat="43.631277971158454" lon="10.556382489059525"><ele>8.0</ele><time>2026-04-06T09:41:57Z</time></trkpt><trkpt lat="43.631231113302796" lon="10.556098178864376"><ele>8.0</ele><time>2026-04-06T09:41:58Z</time></trkpt><trkpt lat="43.631182241811985" lon="10.555816095465067"><ele>8.333333333333332</ele><time>2026-04-06T09:41:59Z</time></trkpt><trkpt lat="43.63113291519662" lon="10.555531005880399"><ele>8.666666666666666</ele><time>2026-04-06T09:42:00Z</time></trkpt><trkpt lat="43.631082481763826" lon="10.555245262045956"><ele>9.0</ele><time>2026-04-06T09:42:01Z</time></trkpt><trkpt lat="43.631030600014604" lon="10.554960413878357"><ele>8.0</ele><time>2026-04-06T09:42:02Z</time></trkpt><trkpt lat="43.63097664090128" lon="10.554680604318175"><ele>7.0</ele><time>2026-04-06T09:42:03Z</time></trkpt><trkpt lat="43.630924255574726" lon="10.554398314208347"><ele>6.0</ele><time>2026-04-06T09:42:04Z</time></trkpt><trkpt lat="43.630874980207196" lon="10.554112341154195"><ele>5.666666666666667</ele><time>2026-04-06T09:42:05Z</time></trkpt><trkpt lat="43.63082675216672" lon="10.55382688501342"><ele>5.333333333333334</ele><time>2026-04-06T09:42:06Z</time></trkpt><trkpt lat="43.630778468397" lon="10.553541447196094"><ele>5.0</ele><time>2026-04-06T09:42:07Z</time></trkpt><trkpt lat="43.63072586587868" lon="10.553262308551101"><ele>5.666666666666667</ele><time>2026-04-06T09:42:08Z</time></trkpt><trkpt lat="43.630675983745874" lon="10.55298122760647"><ele>6.333333333333334</ele><time>2026-04-06T09:42:09Z</time></trkpt><trkpt lat="43.630626442248065" lon="10.552694206190155"><ele>7.0</ele><time>2026-04-06T09:42:10Z</time></trkpt><trkpt lat="43.630573791035815" lon="10.55240889870974"><ele>7.0</ele><time>2026-04-06T09:42:11Z</time></trkpt><trkpt lat="43.63052153063109" lon="10.552128264915021"><ele>7.0</ele><time>2026-04-06T09:42:12Z</time></trkpt><trkpt lat="43.63046940497319" lon="10.5518446868521"><ele>7.0</ele><time>2026-04-06T09:42:13Z</time></trkpt><trkpt lat="43.63041731235725" lon="10.551552347619213"><ele>7.0</ele><time>2026-04-06T09:42:14Z</time></trkpt><trkpt lat="43.63036744047667" lon="10.551260083940756"><ele>7.0</ele><time>2026-04-06T09:42:15Z</time></trkpt><trkpt lat="43.63031851237131" lon="10.550966838915876"><ele>7.0</ele><time>2026-04-06T09:42:16Z</time></trkpt><trkpt lat="43.63027096377447" lon="10.550676387130455"><ele>7.0</ele><time>2026-04-06T09:42:17Z</time></trkpt><trkpt lat="43.63022233797008" lon="10.550383371337633"><ele>7.0</ele><time>2026-04-06T09:42:18Z</time></trkpt><trkpt lat="43.630174232555035" lon="10.550093728965075"><ele>7.0</ele><time>2026-04-06T09:42:19Z</time></trkpt><trkpt lat="43.630126277022185" lon="10.549809186083127"><ele>7.333333333333334</ele><time>2026-04-06T09:42:20Z</time></trkpt><trkpt lat="43.63007909189876" lon="10.54952779222797"><ele>7.666666666666666</ele><time>2026-04-06T09:42:21Z</time></trkpt><trkpt lat="43.630031549091534" lon="10.549259366309846"><ele>8.0</ele><time>2026-04-06T09:42:22Z</time></trkpt><trkpt lat="43.629988068464534" lon="10.548975061842196"><ele>8.0</ele><time>2026-04-06T09:42:22.999Z</time></trkpt><trkpt lat="43.62994598488909" lon="10.548692590023492"><ele>8.0</ele><time>2026-04-06T09:42:23.999Z</time></trkpt><trkpt lat="43.629906230804465" lon="10.548417202264359"><ele>8.0</ele><time>2026-04-06T09:42:24.999Z</time></trkpt><trkpt lat="43.629861561426395" lon="10.548138210204822"><ele>8.0</ele><time>2026-04-06T09:42:25.999Z</time></trkpt><trkpt lat="43.62981334868622" lon="10.547866348497044"><ele>8.0</ele><time>2026-04-06T09:42:26.999Z</time></trkpt><trkpt lat="43.62976187780268" lon="10.547599374400583"><ele>8.0</ele><time>2026-04-06T09:42:27.999Z</time></trkpt><trkpt lat="43.629715509699636" lon="10.547320206401011"><ele>8.0</ele><time>2026-04-06T09:42:28.999Z</time></trkpt><trkpt lat="43.62967072966023" lon="10.547047247196089"><ele>8.0</ele><time>2026-04-06T09:42:29.999Z</time></trkpt><trkpt lat="43.6296253586168" lon="10.546773416148945"><ele>8.0</ele><time>2026-04-06T09:42:30.999Z</time></trkpt><trkpt lat="43.629579623848315" lon="10.546495863059675"><ele>8.0</ele><time>2026-04-06T09:42:31.999Z</time></trkpt><trkpt lat="43.6295354301521" lon="10.546220475289667"><ele>8.0</ele><time>2026-04-06T09:42:32.999Z</time></trkpt><trkpt lat="43.629489752154754" lon="10.545946173770838"><ele>8.0</ele><time>2026-04-06T09:42:33.999Z</time></trkpt><trkpt lat="43.62944550407182" lon="10.545665744998535"><ele>8.0</ele><time>2026-04-06T09:42:34.999Z</time></trkpt><trkpt lat="43.6294006903544" lon="10.545386848101794"><ele>8.0</ele><time>2026-04-06T09:42:35.999Z</time></trkpt><trkpt lat="43.62935445924006" lon="10.545108640981766"><ele>8.0</ele><time>2026-04-06T09:42:36.999Z</time></trkpt><trkpt lat="43.62930764488598" lon="10.544829644410813"><ele>8.0</ele><time>2026-04-06T09:42:37.999Z</time></trkpt><trkpt lat="43.62926141233239" lon="10.544552438870584"><ele>8.0</ele><time>2026-04-06T09:42:38.999Z</time></trkpt><trkpt lat="43.62921692157915" lon="10.54426502495434"><ele>8.0</ele><time>2026-04-06T09:42:39.999Z</time></trkpt><trkpt lat="43.62916969701363" lon="10.543993354803728"><ele>8.0</ele><time>2026-04-06T09:42:40.999Z</time></trkpt><trkpt lat="43.62912250083418" lon="10.543708927531451"><ele>8.0</ele><time>2026-04-06T09:42:41.999Z</time></trkpt><trkpt lat="43.629076160714604" lon="10.543428527738355"><ele>8.0</ele><time>2026-04-06T09:42:42.999Z</time></trkpt><trkpt lat="43.62903103329299" lon="10.543144615499408"><ele>7.666666666666666</ele><time>2026-04-06T09:42:43.999Z</time></trkpt><trkpt lat="43.62898489562233" lon="10.54286161210269"><ele>7.333333333333334</ele><time>2026-04-06T09:42:44.999Z</time></trkpt><trkpt lat="43.62893807484805" lon="10.542579240388433"><ele>7.0</ele><time>2026-04-06T09:42:45.999Z</time></trkpt><trkpt lat="43.628889780600296" lon="10.542292997442752"><ele>7.0</ele><time>2026-04-06T09:42:46.999Z</time></trkpt><trkpt lat="43.628841481763445" lon="10.542003918371034"><ele>7.0</ele><time>2026-04-06T09:42:47.999Z</time></trkpt><trkpt lat="43.62879360226901" lon="10.541713273587343"><ele>7.0</ele><time>2026-04-06T09:42:48.999Z</time></trkpt><trkpt lat="43.62874595423227" lon="10.541425425575504"><ele>7.0</ele><time>2026-04-06T09:42:49.999Z</time></trkpt><trkpt lat="43.62869912954618" lon="10.541151274798013"><ele>7.0</ele><time>2026-04-06T09:42:50.999Z</time></trkpt><trkpt lat="43.62865418348897" lon="10.54086425952283"><ele>7.0</ele><time>2026-04-06T09:42:51.999Z</time></trkpt><trkpt lat="43.628608873215846" lon="10.540582456235096"><ele>7.333333333333334</ele><time>2026-04-06T09:42:52.999Z</time></trkpt><trkpt lat="43.62856403221357" lon="10.540297294607367"><ele>7.666666666666666</ele><time>2026-04-06T09:42:53.999Z</time></trkpt><trkpt lat="43.62851696441696" lon="10.540016631839762"><ele>8.0</ele><time>2026-04-06T09:42:54.999Z</time></trkpt><trkpt lat="43.62847103456462" lon="10.539730027836471"><ele>8.0</ele><time>2026-04-06T09:42:55.999Z</time></trkpt><trkpt lat="43.62842193349662" lon="10.539440201839868"><ele>8.0</ele><time>2026-04-06T09:42:56.999Z</time></trkpt><trkpt lat="43.62837512785878" lon="10.539153251549475"><ele>8.0</ele><time>2026-04-06T09:42:57.999Z</time></trkpt><trkpt lat="43.628323375257246" lon="10.538858560798761"><ele>8.0</ele><time>2026-04-06T09:42:58.999Z</time></trkpt><trkpt lat="43.628273919503854" lon="10.538566203655156"><ele>8.0</ele><time>2026-04-06T09:42:59.999Z</time></trkpt><trkpt lat="43.628225531540735" lon="10.538278486617397"><ele>8.0</ele><time>2026-04-06T09:43:00.999Z</time></trkpt><trkpt lat="43.628175090407346" lon="10.537985099908628"><ele>8.0</ele><time>2026-04-06T09:43:01.999Z</time></trkpt><trkpt lat="43.62812291501835" lon="10.537692591674544"><ele>8.0</ele><time>2026-04-06T09:43:02.999Z</time></trkpt><trkpt lat="43.62806933545305" lon="10.53740496106393"><ele>8.0</ele><time>2026-04-06T09:43:03.999Z</time></trkpt><trkpt lat="43.62801596502304" lon="10.537118939980937"><ele>7.666666666666666</ele><time>2026-04-06T09:43:04.999Z</time></trkpt><trkpt lat="43.627958874804484" lon="10.536831839704769"><ele>7.333333333333334</ele><time>2026-04-06T09:43:05.999Z</time></trkpt><trkpt lat="43.62790191948299" lon="10.536540185856836"><ele>7.0</ele><time>2026-04-06T09:43:06.999Z</time></trkpt><trkpt lat="43.62784552610135" lon="10.536254030298903"><ele>7.333333333333334</ele><time>2026-04-06T09:43:07.999Z</time></trkpt><trkpt lat="43.6277871421168" lon="10.535967934688765"><ele>7.666666666666666</ele><time>2026-04-06T09:43:08.999Z</time></trkpt><trkpt lat="43.627725813632594" lon="10.535679177290165"><ele>8.0</ele><time>2026-04-06T09:43:09.999Z</time></trkpt><trkpt lat="43.62766135411541" lon="10.53539090208404"><ele>8.0</ele><time>2026-04-06T09:43:10.999Z</time></trkpt><trkpt lat="43.6275958805074" lon="10.535100641147844"><ele>8.0</ele><time>2026-04-06T09:43:11.999Z</time></trkpt><trkpt lat="43.62753152786647" lon="10.534807616985994"><ele>8.0</ele><time>2026-04-06T09:43:12.999Z</time></trkpt><trkpt lat="43.62746855267305" lon="10.534514570735345"><ele>8.0</ele><time>2026-04-06T09:43:13.999Z</time></trkpt><trkpt lat="43.62740353015527" lon="10.534224502698555"><ele>8.0</ele><time>2026-04-06T09:43:14.999Z</time></trkpt><trkpt lat="43.62733410272056" lon="10.533934581123885"><ele>8.0</ele><time>2026-04-06T09:43:15.999Z</time></trkpt><trkpt lat="43.62726309486956" lon="10.533640123126695"><ele>7.333333333333333</ele><time>2026-04-06T09:43:16.999Z</time></trkpt><trkpt lat="43.62718958716262" lon="10.533350221341301"><ele>6.666666666666666</ele><time>2026-04-06T09:43:17.999Z</time></trkpt><trkpt lat="43.62711488900827" lon="10.533065879849442"><ele>6.0</ele><time>2026-04-06T09:43:18.999Z</time></trkpt><trkpt lat="43.62704006563001" lon="10.532783028841306"><ele>6.0</ele><time>2026-04-06T09:43:19.999Z</time></trkpt><trkpt lat="43.62696643516297" lon="10.532501614487488"><ele>6.0</ele><time>2026-04-06T09:43:20.999Z</time></trkpt><trkpt lat="43.62689593686845" lon="10.532228183037164"><ele>6.0</ele><time>2026-04-06T09:43:21.999Z</time></trkpt><trkpt lat="43.62682381769713" lon="10.531956930971576"><ele>6.0</ele><time>2026-04-06T09:43:22.999Z</time></trkpt><trkpt lat="43.62675073367402" lon="10.531690456894749"><ele>6.0</ele><time>2026-04-06T09:43:23.999Z</time></trkpt><trkpt lat="43.62668172845222" lon="10.531440245291737"><ele>6.0</ele><time>2026-04-06T09:43:24.999Z</time></trkpt><trkpt lat="43.62661556379868" lon="10.531202273897044"><ele>6.333333333333334</ele><time>2026-04-06T09:43:25.999Z</time></trkpt><trkpt lat="43.62654780424086" lon="10.53096980886242"><ele>6.666666666666667</ele><time>2026-04-06T09:43:26.999Z</time></trkpt><trkpt lat="43.62648344425191" lon="10.53073998492017"><ele>7.0</ele><time>2026-04-06T09:43:27.999Z</time></trkpt><trkpt lat="43.62642243021125" lon="10.530526709936122"><ele>7.333333333333334</ele><time>2026-04-06T09:43:28.999Z</time></trkpt><trkpt lat="43.62636179803462" lon="10.530316641337443"><ele>7.666666666666666</ele><time>2026-04-06T09:43:29.999Z</time></trkpt><trkpt lat="43.62630163988457" lon="10.530112223935287"><ele>8.0</ele><time>2026-04-06T09:43:30.999Z</time></trkpt><trkpt lat="43.6262459206455" lon="10.529926239632701"><ele>8.0</ele><time>2026-04-06T09:43:31.999Z</time></trkpt><trkpt lat="43.62620061879377" lon="10.529756934360766"><ele>8.0</ele><time>2026-04-06T09:43:32.999Z</time></trkpt><trkpt lat="43.626169254313155" lon="10.529589575448005"><ele>8.0</ele><time>2026-04-06T09:43:33.999Z</time></trkpt><trkpt lat="43.62613125296382" lon="10.529432384584329"><ele>8.0</ele><time>2026-04-06T09:43:34.999Z</time></trkpt><trkpt lat="43.62617738391861" lon="10.529249793698254"><ele>7.75</ele><time>2026-04-06T09:43:35.999Z</time></trkpt><trkpt lat="43.626227987577145" lon="10.529106914581318"><ele>7.5</ele><time>2026-04-06T09:43:36.999Z</time></trkpt><trkpt lat="43.62631702009324" lon="10.529002635709798"><ele>7.25</ele><time>2026-04-06T09:43:37.999Z</time></trkpt><trkpt lat="43.62639644876456" lon="10.528871941121375"><ele>7.0</ele><time>2026-04-06T09:43:38.999Z</time></trkpt><trkpt lat="43.626505539035776" lon="10.528774203879998"><ele>7.0</ele><time>2026-04-06T09:43:39.999Z</time></trkpt><trkpt lat="43.62666133297432" lon="10.528757803089851"><ele>7.0</ele><time>2026-04-06T09:43:40.999Z</time></trkpt><trkpt lat="43.62678471829177" lon="10.528674325310565"><ele>7.0</ele><time>2026-04-06T09:43:42Z</time></trkpt><trkpt lat="43.62691928404814" lon="10.528601580032444"><ele>7.0</ele><time>2026-04-06T09:43:43Z</time></trkpt><trkpt lat="43.627056660364275" lon="10.528521934191584"><ele>7.333333333333334</ele><time>2026-04-06T09:43:44Z</time></trkpt><trkpt lat="43.62719902727934" lon="10.528443613454439"><ele>7.666666666666666</ele><time>2026-04-06T09:43:45Z</time></trkpt><trkpt lat="43.62733585474608" lon="10.528366583415822"><ele>8.0</ele><time>2026-04-06T09:43:46Z</time></trkpt><trkpt lat="43.62748007577425" lon="10.528287401173795"><ele>8.0</ele><time>2026-04-06T09:43:47Z</time></trkpt><trkpt lat="43.627624123885624" lon="10.528205315246815"><ele>8.0</ele><time>2026-04-06T09:43:48Z</time></trkpt><trkpt lat="43.627765012647046" lon="10.52814825118155"><ele>8.0</ele><time>2026-04-06T09:43:49Z</time></trkpt><trkpt lat="43.62790079889344" lon="10.528133057175088"><ele>8.0</ele><time>2026-04-06T09:43:50Z</time></trkpt><trkpt lat="43.62802760848457" lon="10.528165074077645"><ele>8.0</ele><time>2026-04-06T09:43:51Z</time></trkpt><trkpt lat="43.62813630255906" lon="10.528252591046812"><ele>8.0</ele><time>2026-04-06T09:43:52Z</time></trkpt><trkpt lat="43.62822857337516" lon="10.52834861974464"><ele>8.0</ele><time>2026-04-06T09:43:53Z</time></trkpt><trkpt lat="43.628306335802584" lon="10.528472721158476"><ele>8.0</ele><time>2026-04-06T09:43:54Z</time></trkpt><trkpt lat="43.6283653516968" lon="10.528622884739335"><ele>7.75</ele><time>2026-04-06T09:43:55Z</time></trkpt><trkpt lat="43.62839247728351" lon="10.528795493326559"><ele>7.5</ele><time>2026-04-06T09:43:56Z</time></trkpt><trkpt lat="43.628393014198934" lon="10.528974137942154"><ele>7.25</ele><time>2026-04-06T09:43:57Z</time></trkpt><trkpt lat="43.62837970238313" lon="10.529144391895704"><ele>7.0</ele><time>2026-04-06T09:43:58Z</time></trkpt><trkpt lat="43.62837136185113" lon="10.529305089205534"><ele>7.0</ele><time>2026-04-06T09:43:59Z</time></trkpt><trkpt lat="43.62834196268203" lon="10.529445692968832"><ele>6.999999999999999</ele><time>2026-04-06T09:44:00Z</time></trkpt><trkpt lat="43.62831705920779" lon="10.529573802680314"><ele>6.999999999999999</ele><time>2026-04-06T09:44:01Z</time></trkpt><trkpt lat="43.62830299573489" lon="10.529662407883716"><ele>7.0</ele><time>2026-04-06T09:44:02Z</time></trkpt><trkpt lat="43.6281605288068" lon="10.529683523513784"><ele>7.0</ele><time>2026-04-06T09:44:03Z</time></trkpt><trkpt lat="43.628073884841555" lon="10.529712888093082"><ele>7.0</ele><time>2026-04-06T09:44:04Z</time></trkpt><trkpt lat="43.62799140210482" lon="10.52973235693978"><ele>6.999999999999999</ele><time>2026-04-06T09:44:05Z</time></trkpt><trkpt lat="43.62791386280141" lon="10.529765215299555"><ele>6.999999999999999</ele><time>2026-04-06T09:44:06Z</time></trkpt><trkpt lat="43.627813324536696" lon="10.52965544227307"><ele>7.0</ele><time>2026-04-06T09:44:07Z</time></trkpt><trkpt lat="43.62770648301504" lon="10.529644902437306"><ele>7.0</ele><time>2026-04-06T09:44:08.999Z</time></trkpt><trkpt lat="43.62764186053972" lon="10.529612154819214"><ele>7.0</ele><time>2026-04-06T09:44:11.999Z</time></trkpt><trkpt lat="43.62753068860756" lon="10.52962697053637"><ele>6.999999999999999</ele><time>2026-04-06T09:44:53.999Z</time></trkpt><trkpt lat="43.627457674132586" lon="10.5296265063074"><ele>6.999999999999999</ele><time>2026-04-06T09:44:54.999Z</time></trkpt><trkpt lat="43.627378803229746" lon="10.529621319549555"><ele>7.0</ele><time>2026-04-06T09:44:55.999Z</time></trkpt><trkpt lat="43.627278803502726" lon="10.529610807798464"><ele>7.0</ele><time>2026-04-06T09:44:56.999Z</time></trkpt><trkpt lat="43.627179570100886" lon="10.529591367252383"><ele>7.0</ele><time>2026-04-06T09:44:57.999Z</time></trkpt><trkpt lat="43.627068201799375" lon="10.529566029003943"><ele>7.0</ele><time>2026-04-06T09:44:58.999Z</time></trkpt><trkpt lat="43.62694757121416" lon="10.529535599210032"><ele>7.0</ele><time>2026-04-06T09:44:59.999Z</time></trkpt><trkpt lat="43.62681387640472" lon="10.529502104141992"><ele>7.0</ele><time>2026-04-06T09:45:00.999Z</time></trkpt><trkpt lat="43.6266793520468" lon="10.52946983868579"><ele>7.0</ele><time>2026-04-06T09:45:01.999Z</time></trkpt><trkpt lat="43.62653846424842" lon="10.52943570970053"><ele>7.0</ele><time>2026-04-06T09:45:02.999Z</time></trkpt><trkpt lat="43.626411609175136" lon="10.529402823008812"><ele>7.0</ele><time>2026-04-06T09:45:03.999Z</time></trkpt><trkpt lat="43.62628424578833" lon="10.52937120544994"><ele>7.0</ele><time>2026-04-06T09:45:04.999Z</time></trkpt><trkpt lat="43.62615766842752" lon="10.529339145873173"><ele>7.5</ele><time>2026-04-06T09:45:05.999Z</time></trkpt><trkpt lat="43.62602994771627" lon="10.529310384486374"><ele>8.0</ele><time>2026-04-06T09:45:06.999Z</time></trkpt><trkpt lat="43.62590002484068" lon="10.52927706850605"><ele>8.5</ele><time>2026-04-06T09:45:07.999Z</time></trkpt><trkpt lat="43.625769363611184" lon="10.529243463064034"><ele>9.0</ele><time>2026-04-06T09:45:08.999Z</time></trkpt><trkpt lat="43.62563607831464" lon="10.529209006370413"><ele>9.0</ele><time>2026-04-06T09:45:09.999Z</time></trkpt><trkpt lat="43.62549860075385" lon="10.529175559562136"><ele>9.0</ele><time>2026-04-06T09:45:10.999Z</time></trkpt><trkpt lat="43.62536205186702" lon="10.529142163407956"><ele>9.0</ele><time>2026-04-06T09:45:11.999Z</time></trkpt><trkpt lat="43.625226088147244" lon="10.529108165696451"><ele>9.0</ele><time>2026-04-06T09:45:12.999Z</time></trkpt><trkpt lat="43.62509815641749" lon="10.529077541064304"><ele>8.5</ele><time>2026-04-06T09:45:13.999Z</time></trkpt><trkpt lat="43.62497769513187" lon="10.529046224540282"><ele>8.0</ele><time>2026-04-06T09:45:14.999Z</time></trkpt><trkpt lat="43.624864679178565" lon="10.529018005037523"><ele>7.5</ele><time>2026-04-06T09:45:15.999Z</time></trkpt><trkpt lat="43.62475568591955" lon="10.528990918996945"><ele>7.0</ele><time>2026-04-06T09:45:16.999Z</time></trkpt><trkpt lat="43.62465205800286" lon="10.52896577417492"><ele>7.0</ele><time>2026-04-06T09:45:17.999Z</time></trkpt><trkpt lat="43.624552314175894" lon="10.52893856835172"><ele>6.999999999999999</ele><time>2026-04-06T09:45:18.999Z</time></trkpt><trkpt lat="43.62446019488892" lon="10.52889934403724"><ele>6.999999999999999</ele><time>2026-04-06T09:45:19.999Z</time></trkpt><trkpt lat="43.62437393101936" lon="10.528839096258675"><ele>7.0</ele><time>2026-04-06T09:45:20.999Z</time></trkpt><trkpt lat="43.624295178894066" lon="10.5287635522798"><ele>7.0</ele><time>2026-04-06T09:45:21.999Z</time></trkpt><trkpt lat="43.624224474706544" lon="10.528675178003782"><ele>6.8</ele><time>2026-04-06T09:45:22.999Z</time></trkpt><trkpt lat="43.624157768760824" lon="10.528577407621752"><ele>6.6</ele><time>2026-04-06T09:45:23.999Z</time></trkpt><trkpt lat="43.624053977735365" lon="10.528529316161988"><ele>6.3999999999999995</ele><time>2026-04-06T09:45:24.999Z</time></trkpt><trkpt lat="43.62394031678157" lon="10.52858305689302"><ele>6.199999999999999</ele><time>2026-04-06T09:45:25.999Z</time></trkpt><trkpt lat="43.62384055737703" lon="10.52862556245163"><ele>6.0</ele><time>2026-04-06T09:45:26.999Z</time></trkpt><trkpt lat="43.62375010798169" lon="10.528668546023177"><ele>6.0</ele><time>2026-04-06T09:45:27.999Z</time></trkpt><trkpt lat="43.62365742686982" lon="10.52867751960871"><ele>6.0</ele><time>2026-04-06T09:45:28.999Z</time></trkpt><trkpt lat="43.623558606105895" lon="10.528666956042596"><ele>6.0</ele><time>2026-04-06T09:45:29.999Z</time></trkpt><trkpt lat="43.62345577547423" lon="10.528651781512584"><ele>6.0</ele><time>2026-04-06T09:45:30.999Z</time></trkpt><trkpt lat="43.62334878121418" lon="10.528631142915845"><ele>6.0</ele><time>2026-04-06T09:45:31.999Z</time></trkpt><trkpt lat="43.62324439441859" lon="10.528606786923355"><ele>6.199999999999999</ele><time>2026-04-06T09:45:32.999Z</time></trkpt><trkpt lat="43.62314080869112" lon="10.528582894113953"><ele>6.3999999999999995</ele><time>2026-04-06T09:45:33.999Z</time></trkpt><trkpt lat="43.62303907747035" lon="10.528556368984809"><ele>6.6</ele><time>2026-04-06T09:45:34.999Z</time></trkpt><trkpt lat="43.6229392509473" lon="10.528530713822505"><ele>6.8</ele><time>2026-04-06T09:45:35.999Z</time></trkpt><trkpt lat="43.622841701469675" lon="10.528506937919772"><ele>7.0</ele><time>2026-04-06T09:45:36.999Z</time></trkpt><trkpt lat="43.62274268664056" lon="10.52848525889955"><ele>7.0</ele><time>2026-04-06T09:45:37.999Z</time></trkpt><trkpt lat="43.62264414170313" lon="10.528460103680109"><ele>6.999999999999999</ele><time>2026-04-06T09:45:38.999Z</time></trkpt><trkpt lat="43.62254805810697" lon="10.52843593718296"><ele>6.999999999999999</ele><time>2026-04-06T09:45:39.999Z</time></trkpt><trkpt lat="43.622447222585016" lon="10.528412681554627"><ele>7.0</ele><time>2026-04-06T09:45:40.999Z</time></trkpt><trkpt lat="43.62234475316456" lon="10.52839001021333"><ele>7.0</ele><time>2026-04-06T09:45:41.999Z</time></trkpt><trkpt lat="43.62224141276176" lon="10.528366517463365"><ele>7.0</ele><time>2026-04-06T09:45:42.999Z</time></trkpt><trkpt lat="43.62213364427284" lon="10.528339424959142"><ele>6.999999999999999</ele><time>2026-04-06T09:45:43.999Z</time></trkpt><trkpt lat="43.62202797845593" lon="10.528315059378695"><ele>6.999999999999999</ele><time>2026-04-06T09:45:44.999Z</time></trkpt><trkpt lat="43.62192353258294" lon="10.528288223410584"><ele>7.0</ele><time>2026-04-06T09:45:45.999Z</time></trkpt><trkpt lat="43.62181921749732" lon="10.528262888430712"><ele>7.0</ele><time>2026-04-06T09:45:46.999Z</time></trkpt><trkpt lat="43.62172590571499" lon="10.528240606659454"><ele>7.333333333333334</ele><time>2026-04-06T09:45:48Z</time></trkpt><trkpt lat="43.62164393512579" lon="10.528218729985825"><ele>7.666666666666667</ele><time>2026-04-06T09:45:49Z</time></trkpt><trkpt lat="43.62157447550321" lon="10.528183201195848"><ele>8.0</ele><time>2026-04-06T09:45:50Z</time></trkpt><trkpt lat="43.62151394673442" lon="10.528137322436955"><ele>8.333333333333334</ele><time>2026-04-06T09:45:51Z</time></trkpt><trkpt lat="43.6214482447289" lon="10.528081967561475"><ele>8.666666666666666</ele><time>2026-04-06T09:45:52Z</time></trkpt><trkpt lat="43.621386779127306" lon="10.528018656277686"><ele>9.0</ele><time>2026-04-06T09:45:53Z</time></trkpt><trkpt lat="43.62129828466464" lon="10.52799700101135"><ele>9.0</ele><time>2026-04-06T09:45:54Z</time></trkpt><trkpt lat="43.62119979069453" lon="10.52803381525706"><ele>9.0</ele><time>2026-04-06T09:45:55Z</time></trkpt><trkpt lat="43.62110126493267" lon="10.528054554400834"><ele>9.0</ele><time>2026-04-06T09:45:56Z</time></trkpt><trkpt lat="43.62100162141904" lon="10.52805340798184"><ele>9.0</ele><time>2026-04-06T09:45:57Z</time></trkpt><trkpt lat="43.62090189218363" lon="10.52803467812028"><ele>9.0</ele><time>2026-04-06T09:45:58Z</time></trkpt><trkpt lat="43.62080434731079" lon="10.528008716175421"><ele>9.2</ele><time>2026-04-06T09:45:59Z</time></trkpt><trkpt lat="43.620707207737375" lon="10.527983175070604"><ele>9.4</ele><time>2026-04-06T09:46:00Z</time></trkpt><trkpt lat="43.62060548050408" lon="10.527958892362387"><ele>9.6</ele><time>2026-04-06T09:46:01Z</time></trkpt><trkpt lat="43.62049679785632" lon="10.527933092713573"><ele>9.8</ele><time>2026-04-06T09:46:02Z</time></trkpt><trkpt lat="43.62038614242574" lon="10.527907165754595"><ele>10.0</ele><time>2026-04-06T09:46:03Z</time></trkpt><trkpt lat="43.6202677285013" lon="10.527873310396604"><ele>9.5</ele><time>2026-04-06T09:46:04Z</time></trkpt><trkpt lat="43.620145442372134" lon="10.52784170949104"><ele>9.0</ele><time>2026-04-06T09:46:05Z</time></trkpt><trkpt lat="43.62002011869918" lon="10.527809979688765"><ele>8.5</ele><time>2026-04-06T09:46:06Z</time></trkpt><trkpt lat="43.61989315755462" lon="10.52777724771879"><ele>8.0</ele><time>2026-04-06T09:46:07Z</time></trkpt><trkpt lat="43.61976027412245" lon="10.52774480400948"><ele>8.0</ele><time>2026-04-06T09:46:08Z</time></trkpt><trkpt lat="43.619623595532325" lon="10.527708785416001"><ele>8.0</ele><time>2026-04-06T09:46:09Z</time></trkpt><trkpt lat="43.61948496262473" lon="10.527673955814757"><ele>8.0</ele><time>2026-04-06T09:46:10Z</time></trkpt><trkpt lat="43.61933873776426" lon="10.527639670757607"><ele>8.0</ele><time>2026-04-06T09:46:11Z</time></trkpt><trkpt lat="43.61919776529072" lon="10.527616635768243"><ele>8.75</ele><time>2026-04-06T09:46:12Z</time></trkpt><trkpt lat="43.61904994693952" lon="10.527596881400303"><ele>9.5</ele><time>2026-04-06T09:46:13Z</time></trkpt><trkpt lat="43.61890380595167" lon="10.527587491387681"><ele>10.25</ele><time>2026-04-06T09:46:14Z</time></trkpt><trkpt lat="43.618759322520795" lon="10.527583015430627"><ele>11.0</ele><time>2026-04-06T09:46:15Z</time></trkpt><trkpt lat="43.61861778839548" lon="10.52758492699978"><ele>11.0</ele><time>2026-04-06T09:46:16Z</time></trkpt><trkpt lat="43.61847970618641" lon="10.5275937467136"><ele>11.0</ele><time>2026-04-06T09:46:17Z</time></trkpt><trkpt lat="43.618343738694925" lon="10.527607006370875"><ele>11.0</ele><time>2026-04-06T09:46:18Z</time></trkpt><trkpt lat="43.618212890892515" lon="10.527622901285232"><ele>11.0</ele><time>2026-04-06T09:46:19Z</time></trkpt><trkpt lat="43.61808544408241" lon="10.527639659254799"><ele>11.0</ele><time>2026-04-06T09:46:20Z</time></trkpt><trkpt lat="43.61796271528024" lon="10.527655796584963"><ele>11.0</ele><time>2026-04-06T09:46:21Z</time></trkpt><trkpt lat="43.61784138193396" lon="10.527674441819954"><ele>11.0</ele><time>2026-04-06T09:46:22Z</time></trkpt><trkpt lat="43.617720268063685" lon="10.52769359333473"><ele>11.0</ele><time>2026-04-06T09:46:23Z</time></trkpt><trkpt lat="43.61759899107505" lon="10.527713196072702"><ele>11.25</ele><time>2026-04-06T09:46:24Z</time></trkpt><trkpt lat="43.61747743168933" lon="10.527732024013664"><ele>11.5</ele><time>2026-04-06T09:46:25Z</time></trkpt><trkpt lat="43.617350983536596" lon="10.527753819858022"><ele>11.75</ele><time>2026-04-06T09:46:26Z</time></trkpt><trkpt lat="43.61722131210962" lon="10.52777067485555"><ele>12.0</ele><time>2026-04-06T09:46:27Z</time></trkpt><trkpt lat="43.61708959422419" lon="10.52778740605732"><ele>11.5</ele><time>2026-04-06T09:46:28Z</time></trkpt><trkpt lat="43.6169558096473" lon="10.527806227375015"><ele>11.0</ele><time>2026-04-06T09:46:29Z</time></trkpt><trkpt lat="43.61682351008241" lon="10.527825121873573"><ele>10.5</ele><time>2026-04-06T09:46:30Z</time></trkpt><trkpt lat="43.61669317948616" lon="10.527843304661374"><ele>10.0</ele><time>2026-04-06T09:46:31Z</time></trkpt><trkpt lat="43.61656289928313" lon="10.527860872865226"><ele>10.0</ele><time>2026-04-06T09:46:32Z</time></trkpt><trkpt lat="43.61643316605581" lon="10.527878658274991"><ele>10.0</ele><time>2026-04-06T09:46:33Z</time></trkpt><trkpt lat="43.61630565647639" lon="10.52789593016522"><ele>10.0</ele><time>2026-04-06T09:46:34Z</time></trkpt><trkpt lat="43.616177337395904" lon="10.527915313185954"><ele>10.0</ele><time>2026-04-06T09:46:35Z</time></trkpt><trkpt lat="43.61604494238475" lon="10.527937248994808"><ele>10.5</ele><time>2026-04-06T09:46:35.999Z</time></trkpt><trkpt lat="43.615908508657284" lon="10.52796042734124"><ele>11.0</ele><time>2026-04-06T09:46:36.999Z</time></trkpt><trkpt lat="43.61576716692185" lon="10.527982811481003"><ele>11.5</ele><time>2026-04-06T09:46:37.999Z</time></trkpt><trkpt lat="43.615621695661424" lon="10.528004016681274"><ele>12.0</ele><time>2026-04-06T09:46:38.999Z</time></trkpt><trkpt lat="43.61547391554371" lon="10.528025050450951"><ele>12.0</ele><time>2026-04-06T09:46:39.999Z</time></trkpt><trkpt lat="43.615325315136495" lon="10.528044622098683"><ele>12.0</ele><time>2026-04-06T09:46:40.999Z</time></trkpt><trkpt lat="43.61517229036175" lon="10.528065646780497"><ele>12.0</ele><time>2026-04-06T09:46:41.999Z</time></trkpt><trkpt lat="43.615020656956176" lon="10.528088907982317"><ele>12.333333333333332</ele><time>2026-04-06T09:46:42.999Z</time></trkpt><trkpt lat="43.61486470574669" lon="10.528112800986454"><ele>12.666666666666666</ele><time>2026-04-06T09:46:43.999Z</time></trkpt><trkpt lat="43.61470940556869" lon="10.528136272200278"><ele>13.0</ele><time>2026-04-06T09:46:44.999Z</time></trkpt><trkpt lat="43.61455662356144" lon="10.52815696982826"><ele>12.666666666666666</ele><time>2026-04-06T09:46:45.999Z</time></trkpt><trkpt lat="43.61440306765707" lon="10.528176483178207"><ele>12.333333333333332</ele><time>2026-04-06T09:46:46.999Z</time></trkpt><trkpt lat="43.61425182981093" lon="10.528194425891362"><ele>12.0</ele><time>2026-04-06T09:46:47.999Z</time></trkpt><trkpt lat="43.6141039898999" lon="10.528210407147565"><ele>12.0</ele><time>2026-04-06T09:46:48.999Z</time></trkpt><trkpt lat="43.61395561703261" lon="10.528225216433308"><ele>12.0</ele><time>2026-04-06T09:46:49.999Z</time></trkpt><trkpt lat="43.613807564428434" lon="10.52823748819721"><ele>12.0</ele><time>2026-04-06T09:46:50.999Z</time></trkpt><trkpt lat="43.61365908738638" lon="10.528248796276571"><ele>12.0</ele><time>2026-04-06T09:46:51.999Z</time></trkpt><trkpt lat="43.61351400509252" lon="10.528257982063206"><ele>12.5</ele><time>2026-04-06T09:46:52.999Z</time></trkpt><trkpt lat="43.61336861581342" lon="10.528264329800745"><ele>13.0</ele><time>2026-04-06T09:46:53.999Z</time></trkpt><trkpt lat="43.61321932862698" lon="10.528271322365647"><ele>13.5</ele><time>2026-04-06T09:46:54.999Z</time></trkpt><trkpt lat="43.6130673315101" lon="10.528279402148279"><ele>14.0</ele><time>2026-04-06T09:46:55.999Z</time></trkpt><trkpt lat="43.61291304491624" lon="10.528288133907015"><ele>14.333333333333334</ele><time>2026-04-06T09:46:56.999Z</time></trkpt><trkpt lat="43.612754533885806" lon="10.528296852931915"><ele>14.666666666666668</ele><time>2026-04-06T09:46:57.999Z</time></trkpt><trkpt lat="43.61259575460379" lon="10.528304540369634"><ele>15.0</ele><time>2026-04-06T09:46:58.999Z</time></trkpt><trkpt lat="43.6124322608329" lon="10.528312133148617"><ele>15.0</ele><time>2026-04-06T09:46:59.999Z</time></trkpt><trkpt lat="43.612269565863706" lon="10.528320850016177"><ele>15.0</ele><time>2026-04-06T09:47:00.999Z</time></trkpt><trkpt lat="43.61210527037561" lon="10.528328853466162"><ele>15.0</ele><time>2026-04-06T09:47:01.999Z</time></trkpt><trkpt lat="43.61193574596392" lon="10.528339141248608"><ele>13.666666666666666</ele><time>2026-04-06T09:47:02.999Z</time></trkpt><trkpt lat="43.611769907229736" lon="10.528343109465165"><ele>12.333333333333332</ele><time>2026-04-06T09:47:03.999Z</time></trkpt><trkpt lat="43.611599380102966" lon="10.528337489393737"><ele>11.0</ele><time>2026-04-06T09:47:04.999Z</time></trkpt><trkpt lat="43.61142433649857" lon="10.528317155564766"><ele>11.0</ele><time>2026-04-06T09:47:05.999Z</time></trkpt><trkpt lat="43.61125092394462" lon="10.528275157275045"><ele>11.0</ele><time>2026-04-06T09:47:06.999Z</time></trkpt><trkpt lat="43.611075119782065" lon="10.528212605471525"><ele>11.0</ele><time>2026-04-06T09:47:07.999Z</time></trkpt><trkpt lat="43.610904082690936" lon="10.528138445313086"><ele>10.666666666666666</ele><time>2026-04-06T09:47:08.999Z</time></trkpt><trkpt lat="43.61073654417275" lon="10.528051566268866"><ele>10.333333333333334</ele><time>2026-04-06T09:47:09.999Z</time></trkpt><trkpt lat="43.610571275650805" lon="10.527964160949523"><ele>10.0</ele><time>2026-04-06T09:47:10.999Z</time></trkpt><trkpt lat="43.61041020981732" lon="10.52787505125301"><ele>11.0</ele><time>2026-04-06T09:47:11.999Z</time></trkpt><trkpt lat="43.610254053447804" lon="10.527779605364186"><ele>12.0</ele><time>2026-04-06T09:47:12.999Z</time></trkpt><trkpt lat="43.610109840348734" lon="10.527688304473802"><ele>13.0</ele><time>2026-04-06T09:47:13.999Z</time></trkpt><trkpt lat="43.60997635400361" lon="10.527604114607103"><ele>13.0</ele><time>2026-04-06T09:47:14.999Z</time></trkpt><trkpt lat="43.6098495961808" lon="10.527523699794846"><ele>13.0</ele><time>2026-04-06T09:47:15.999Z</time></trkpt><trkpt lat="43.60972947989825" lon="10.527446141600457"><ele>13.0</ele><time>2026-04-06T09:47:16.999Z</time></trkpt><trkpt lat="43.60961810270503" lon="10.527373774045968"><ele>13.0</ele><time>2026-04-06T09:47:17.999Z</time></trkpt><trkpt lat="43.60951725906784" lon="10.52730878744672"><ele>13.75</ele><time>2026-04-06T09:47:18.999Z</time></trkpt><trkpt lat="43.609419097922284" lon="10.527245843594898"><ele>14.5</ele><time>2026-04-06T09:47:19.999Z</time></trkpt><trkpt lat="43.609315618582634" lon="10.527184459131442"><ele>15.25</ele><time>2026-04-06T09:47:20.999Z</time></trkpt><trkpt lat="43.60920999112367" lon="10.52711843019819"><ele>16.0</ele><time>2026-04-06T09:47:21.999Z</time></trkpt><trkpt lat="43.60910605395789" lon="10.527047788848392"><ele>16.0</ele><time>2026-04-06T09:47:22.999Z</time></trkpt><trkpt lat="43.609004259337155" lon="10.52697619197749"><ele>16.0</ele><time>2026-04-06T09:47:23.999Z</time></trkpt><trkpt lat="43.60890586316149" lon="10.526913983976543"><ele>16.0</ele><time>2026-04-06T09:47:24.999Z</time></trkpt><trkpt lat="43.60881478645677" lon="10.526860023450919"><ele>16.0</ele><time>2026-04-06T09:47:25.999Z</time></trkpt><trkpt lat="43.608738198828604" lon="10.52681214392144"><ele>16.0</ele><time>2026-04-06T09:47:26.999Z</time></trkpt><trkpt lat="43.6086793309533" lon="10.526770175738086"><ele>15.999999999999998</ele><time>2026-04-06T09:47:27.999Z</time></trkpt><trkpt lat="43.608604533056564" lon="10.526715169800879"><ele>16.0</ele><time>2026-04-06T09:47:29.999Z</time></trkpt><trkpt lat="43.608545679441384" lon="10.526668226512086"><ele>16.0</ele><time>2026-04-06T09:47:33.999Z</time></trkpt><trkpt lat="43.60849318133263" lon="10.526611830877053"><ele>16.0</ele><time>2026-04-06T09:47:36.999Z</time></trkpt><trkpt lat="43.608480719614406" lon="10.52652388428365"><ele>15.999999999999998</ele><time>2026-04-06T09:47:39.999Z</time></trkpt><trkpt lat="43.60843883136398" lon="10.526428305397426"><ele>16.0</ele><time>2026-04-06T09:47:42.999Z</time></trkpt><trkpt lat="43.60841205453727" lon="10.526269082104996"><ele>15.8</ele><time>2026-04-06T09:47:44.999Z</time></trkpt><trkpt lat="43.60836608227292" lon="10.526189667231407"><ele>15.600000000000001</ele><time>2026-04-06T09:47:45.999Z</time></trkpt><trkpt lat="43.608221417467405" lon="10.526118777069865"><ele>15.4</ele><time>2026-04-06T09:47:47.999Z</time></trkpt><trkpt lat="43.608148470848896" lon="10.526146636088495"><ele>15.2</ele><time>2026-04-06T09:47:48.999Z</time></trkpt><trkpt lat="43.60806579821361" lon="10.52616285740433"><ele>15.0</ele><time>2026-04-06T09:47:49.999Z</time></trkpt><trkpt lat="43.607973358944555" lon="10.52618007908904"><ele>15.0</ele><time>2026-04-06T09:47:50.999Z</time></trkpt><trkpt lat="43.607875983274816" lon="10.526177333279827"><ele>15.0</ele><time>2026-04-06T09:47:51.999Z</time></trkpt><trkpt lat="43.60777249905033" lon="10.526144373394292"><ele>15.0</ele><time>2026-04-06T09:47:52.999Z</time></trkpt><trkpt lat="43.60766512838995" lon="10.526091956472769"><ele>15.0</ele><time>2026-04-06T09:47:54Z</time></trkpt><trkpt lat="43.60756583050065" lon="10.526008373780998"><ele>15.0</ele><time>2026-04-06T09:47:55Z</time></trkpt><trkpt lat="43.607454326521825" lon="10.525933518853256"><ele>15.0</ele><time>2026-04-06T09:47:56Z</time></trkpt><trkpt lat="43.607337729858955" lon="10.525853828456631"><ele>15.0</ele><time>2026-04-06T09:47:57Z</time></trkpt><trkpt lat="43.60721759280896" lon="10.525770269603562"><ele>15.0</ele><time>2026-04-06T09:47:58Z</time></trkpt><trkpt lat="43.6070939310282" lon="10.525682469739573"><ele>15.0</ele><time>2026-04-06T09:47:59Z</time></trkpt><trkpt lat="43.60697051430006" lon="10.525589228839896"><ele>15.0</ele><time>2026-04-06T09:48:00Z</time></trkpt><trkpt lat="43.60684680385851" lon="10.525490223675876"><ele>15.0</ele><time>2026-04-06T09:48:01Z</time></trkpt><trkpt lat="43.606717711138906" lon="10.525377860380031"><ele>15.0</ele><time>2026-04-06T09:48:02Z</time></trkpt><trkpt lat="43.60658666638815" lon="10.525252859020874"><ele>15.0</ele><time>2026-04-06T09:48:03Z</time></trkpt><trkpt lat="43.60645616863508" lon="10.525120467277969"><ele>15.0</ele><time>2026-04-06T09:48:04Z</time></trkpt><trkpt lat="43.60632965674235" lon="10.524973865339327"><ele>15.0</ele><time>2026-04-06T09:48:05Z</time></trkpt><trkpt lat="43.60620633982009" lon="10.524823101901525"><ele>14.666666666666668</ele><time>2026-04-06T09:48:06Z</time></trkpt><trkpt lat="43.6060883820942" lon="10.52466630675941"><ele>14.333333333333334</ele><time>2026-04-06T09:48:07Z</time></trkpt><trkpt lat="43.60597382987091" lon="10.524506083821251"><ele>14.0</ele><time>2026-04-06T09:48:08Z</time></trkpt><trkpt lat="43.60584336099949" lon="10.524360965580515"><ele>14.0</ele><time>2026-04-06T09:48:09Z</time></trkpt><trkpt lat="43.605727479586236" lon="10.524202105925385"><ele>14.0</ele><time>2026-04-06T09:48:10Z</time></trkpt><trkpt lat="43.605616541088295" lon="10.524027692162822"><ele>14.0</ele><time>2026-04-06T09:48:11Z</time></trkpt><trkpt lat="43.60548604438107" lon="10.523873323495188"><ele>14.0</ele><time>2026-04-06T09:48:12Z</time></trkpt><trkpt lat="43.60536046316892" lon="10.523751600048044"><ele>14.0</ele><time>2026-04-06T09:48:13Z</time></trkpt><trkpt lat="43.60522193240837" lon="10.523619559463478"><ele>14.0</ele><time>2026-04-06T09:48:14Z</time></trkpt><trkpt lat="43.60507775736743" lon="10.523497019413822"><ele>14.0</ele><time>2026-04-06T09:48:15Z</time></trkpt><trkpt lat="43.60492807031443" lon="10.523374713301978"><ele>14.0</ele><time>2026-04-06T09:48:16Z</time></trkpt><trkpt lat="43.60477428397879" lon="10.5232707295714"><ele>14.0</ele><time>2026-04-06T09:48:17Z</time></trkpt><trkpt lat="43.60461727950842" lon="10.523174399096343"><ele>14.333333333333334</ele><time>2026-04-06T09:48:18Z</time></trkpt><trkpt lat="43.60445398368699" lon="10.523083354355707"><ele>14.666666666666668</ele><time>2026-04-06T09:48:19Z</time></trkpt><trkpt lat="43.60428886291287" lon="10.523000757421531"><ele>15.0</ele><time>2026-04-06T09:48:20Z</time></trkpt><trkpt lat="43.60411745057736" lon="10.522923168969344"><ele>15.0</ele><time>2026-04-06T09:48:21Z</time></trkpt><trkpt lat="43.60393837365537" lon="10.522866164925748"><ele>15.0</ele><time>2026-04-06T09:48:22Z</time></trkpt><trkpt lat="43.60375899755761" lon="10.52282499254514"><ele>15.0</ele><time>2026-04-06T09:48:23Z</time></trkpt><trkpt lat="43.60357447240339" lon="10.522773955167228"><ele>15.0</ele><time>2026-04-06T09:48:24Z</time></trkpt><trkpt lat="43.60338757854271" lon="10.522736125553818"><ele>15.0</ele><time>2026-04-06T09:48:25Z</time></trkpt><trkpt lat="43.603199625260736" lon="10.522719595977673"><ele>15.0</ele><time>2026-04-06T09:48:26Z</time></trkpt><trkpt lat="43.603004653206085" lon="10.52272418158434"><ele>15.333333333333332</ele><time>2026-04-06T09:48:27Z</time></trkpt><trkpt lat="43.60280930793776" lon="10.522753061190992"><ele>15.666666666666666</ele><time>2026-04-06T09:48:28Z</time></trkpt><trkpt lat="43.60261796402975" lon="10.522807018725626"><ele>16.0</ele><time>2026-04-06T09:48:29Z</time></trkpt><trkpt lat="43.602426256392796" lon="10.522877451293096"><ele>15.666666666666666</ele><time>2026-04-06T09:48:30Z</time></trkpt><trkpt lat="43.60223839605302" lon="10.52297445340854"><ele>15.333333333333332</ele><time>2026-04-06T09:48:31Z</time></trkpt><trkpt lat="43.602058974284745" lon="10.523092581363015"><ele>15.0</ele><time>2026-04-06T09:48:32Z</time></trkpt><trkpt lat="43.60188248778884" lon="10.52324148714023"><ele>17.0</ele><time>2026-04-06T09:48:33Z</time></trkpt><trkpt lat="43.60171554054021" lon="10.523409966290753"><ele>19.0</ele><time>2026-04-06T09:48:34Z</time></trkpt><trkpt lat="43.60154958132199" lon="10.523591817108972"><ele>21.0</ele><time>2026-04-06T09:48:35Z</time></trkpt><trkpt lat="43.60138073730617" lon="10.523753119594963"><ele>21.0</ele><time>2026-04-06T09:48:36Z</time></trkpt><trkpt lat="43.60121034861775" lon="10.52392058201343"><ele>21.0</ele><time>2026-04-06T09:48:37Z</time></trkpt><trkpt lat="43.60103878356725" lon="10.524092179854419"><ele>21.0</ele><time>2026-04-06T09:48:38Z</time></trkpt><trkpt lat="43.60086713310264" lon="10.524258021772129"><ele>19.333333333333332</ele><time>2026-04-06T09:48:39Z</time></trkpt><trkpt lat="43.60069468677535" lon="10.524423920729486"><ele>17.666666666666664</ele><time>2026-04-06T09:48:39.999Z</time></trkpt><trkpt lat="43.600523572064645" lon="10.52460369550236"><ele>16.0</ele><time>2026-04-06T09:48:40.999Z</time></trkpt><trkpt lat="43.60035862577717" lon="10.524783954282386"><ele>15.666666666666666</ele><time>2026-04-06T09:48:41.999Z</time></trkpt><trkpt lat="43.600200867410564" lon="10.524975728948885"><ele>15.333333333333332</ele><time>2026-04-06T09:48:42.999Z</time></trkpt><trkpt lat="43.60004824676212" lon="10.525171650558262"><ele>15.0</ele><time>2026-04-06T09:48:43.999Z</time></trkpt><trkpt lat="43.59989893926729" lon="10.525370227095484"><ele>15.0</ele><time>2026-04-06T09:48:44.999Z</time></trkpt><trkpt lat="43.59975239145738" lon="10.525564634778435"><ele>15.0</ele><time>2026-04-06T09:48:45.999Z</time></trkpt><trkpt lat="43.599604903404696" lon="10.525750764397118"><ele>15.0</ele><time>2026-04-06T09:48:46.999Z</time></trkpt><trkpt lat="43.599456407607704" lon="10.525932783984846"><ele>15.0</ele><time>2026-04-06T09:48:47.999Z</time></trkpt><trkpt lat="43.59930567238329" lon="10.52611152117721"><ele>15.0</ele><time>2026-04-06T09:48:48.999Z</time></trkpt><trkpt lat="43.599153895953314" lon="10.526281806765361"><ele>15.0</ele><time>2026-04-06T09:48:49.999Z</time></trkpt><trkpt lat="43.59899587694069" lon="10.526443031971684"><ele>15.333333333333332</ele><time>2026-04-06T09:48:50.999Z</time></trkpt><trkpt lat="43.59883344968632" lon="10.526581774765768"><ele>15.666666666666666</ele><time>2026-04-06T09:48:51.999Z</time></trkpt><trkpt lat="43.59866566344479" lon="10.52670103766595"><ele>16.0</ele><time>2026-04-06T09:48:52.999Z</time></trkpt><trkpt lat="43.59848907031644" lon="10.526821898777882"><ele>16.0</ele><time>2026-04-06T09:48:53.999Z</time></trkpt><trkpt lat="43.59831827078683" lon="10.526935891503463"><ele>16.0</ele><time>2026-04-06T09:48:54.999Z</time></trkpt><trkpt lat="43.598147316163754" lon="10.527049496460132"><ele>16.0</ele><time>2026-04-06T09:48:55.999Z</time></trkpt><trkpt lat="43.597973991849784" lon="10.527164671112441"><ele>16.333333333333332</ele><time>2026-04-06T09:48:56.999Z</time></trkpt><trkpt lat="43.59780505317164" lon="10.52728611622769"><ele>16.666666666666668</ele><time>2026-04-06T09:48:57.999Z</time></trkpt><trkpt lat="43.59763091108883" lon="10.527405280808617"><ele>17.0</ele><time>2026-04-06T09:48:58.999Z</time></trkpt><trkpt lat="43.59746426202731" lon="10.52751932009846"><ele>17.0</ele><time>2026-04-06T09:48:59.999Z</time></trkpt><trkpt lat="43.59729639486833" lon="10.52763530367204"><ele>17.0</ele><time>2026-04-06T09:49:00.999Z</time></trkpt><trkpt lat="43.5971333443103" lon="10.527747249599518"><ele>17.0</ele><time>2026-04-06T09:49:01.999Z</time></trkpt><trkpt lat="43.59696999319088" lon="10.527857649048867"><ele>17.0</ele><time>2026-04-06T09:49:02.999Z</time></trkpt><trkpt lat="43.59680978577788" lon="10.52796619608527"><ele>17.0</ele><time>2026-04-06T09:49:03.999Z</time></trkpt><trkpt lat="43.596651675795535" lon="10.528073618668513"><ele>17.0</ele><time>2026-04-06T09:49:04.999Z</time></trkpt><trkpt lat="43.59649560281312" lon="10.528179618232805"><ele>17.0</ele><time>2026-04-06T09:49:05.999Z</time></trkpt><trkpt lat="43.5963416363848" lon="10.528286643964572"><ele>17.0</ele><time>2026-04-06T09:49:06.999Z</time></trkpt><trkpt lat="43.596187608649316" lon="10.52839154606622"><ele>17.0</ele><time>2026-04-06T09:49:07.999Z</time></trkpt><trkpt lat="43.596029337372656" lon="10.528487248393953"><ele>17.666666666666668</ele><time>2026-04-06T09:49:08.999Z</time></trkpt><trkpt lat="43.59587160617536" lon="10.528570592462872"><ele>18.333333333333332</ele><time>2026-04-06T09:49:09.999Z</time></trkpt><trkpt lat="43.59571425023799" lon="10.528640576484607"><ele>19.0</ele><time>2026-04-06T09:49:10.999Z</time></trkpt><trkpt lat="43.5955630838205" lon="10.528696493511871"><ele>18.666666666666664</ele><time>2026-04-06T09:49:11.999Z</time></trkpt><trkpt lat="43.595410830828484" lon="10.52874422070562"><ele>18.333333333333332</ele><time>2026-04-06T09:49:12.999Z</time></trkpt><trkpt lat="43.59526164521403" lon="10.528777486156095"><ele>18.0</ele><time>2026-04-06T09:49:13.999Z</time></trkpt><trkpt lat="43.595113683240484" lon="10.528802374633175"><ele>18.0</ele><time>2026-04-06T09:49:14.999Z</time></trkpt><trkpt lat="43.594973036386264" lon="10.52882316129898"><ele>18.0</ele><time>2026-04-06T09:49:15.999Z</time></trkpt><trkpt lat="43.594842753912346" lon="10.528844529122166"><ele>18.0</ele><time>2026-04-06T09:49:16.999Z</time></trkpt><trkpt lat="43.59472488243435" lon="10.528863003506926"><ele>18.0</ele><time>2026-04-06T09:49:17.999Z</time></trkpt><trkpt lat="43.594606193236494" lon="10.528883148876986"><ele>18.0</ele><time>2026-04-06T09:49:18.999Z</time></trkpt><trkpt lat="43.59448092132718" lon="10.5289055865119"><ele>18.0</ele><time>2026-04-06T09:49:19.999Z</time></trkpt><trkpt lat="43.59434593408025" lon="10.528930527087802"><ele>18.0</ele><time>2026-04-06T09:49:20.999Z</time></trkpt><trkpt lat="43.594205084938324" lon="10.528956339092636"><ele>18.0</ele><time>2026-04-06T09:49:21.999Z</time></trkpt><trkpt lat="43.59405675290642" lon="10.528982487381748"><ele>18.0</ele><time>2026-04-06T09:49:22.999Z</time></trkpt><trkpt lat="43.59390666744218" lon="10.529009061421002"><ele>18.0</ele><time>2026-04-06T09:49:23.999Z</time></trkpt><trkpt lat="43.59375486880774" lon="10.529035918162581"><ele>18.0</ele><time>2026-04-06T09:49:24.999Z</time></trkpt><trkpt lat="43.59359811951177" lon="10.529064111896819"><ele>18.333333333333332</ele><time>2026-04-06T09:49:25.999Z</time></trkpt><trkpt lat="43.59344163927608" lon="10.52909176242552"><ele>18.666666666666664</ele><time>2026-04-06T09:49:26.999Z</time></trkpt><trkpt lat="43.593277759022435" lon="10.529121134052621"><ele>19.0</ele><time>2026-04-06T09:49:27.999Z</time></trkpt><trkpt lat="43.593116828693205" lon="10.529149627669648"><ele>19.0</ele><time>2026-04-06T09:49:28.999Z</time></trkpt><trkpt lat="43.592952815386326" lon="10.529177680564013"><ele>19.0</ele><time>2026-04-06T09:49:29.999Z</time></trkpt><trkpt lat="43.59278636349926" lon="10.529208095287409"><ele>19.0</ele><time>2026-04-06T09:49:30.999Z</time></trkpt><trkpt lat="43.59262057916836" lon="10.52924008775489"><ele>19.333333333333332</ele><time>2026-04-06T09:49:31.999Z</time></trkpt><trkpt lat="43.59246015436731" lon="10.52926969621088"><ele>19.666666666666668</ele><time>2026-04-06T09:49:32.999Z</time></trkpt><trkpt lat="43.59230221780436" lon="10.529298452984548"><ele>20.0</ele><time>2026-04-06T09:49:33.999Z</time></trkpt><trkpt lat="43.59214460078575" lon="10.52932642926322"><ele>20.5</ele><time>2026-04-06T09:49:34.999Z</time></trkpt><trkpt lat="43.59199268938384" lon="10.52935054678108"><ele>21.0</ele><time>2026-04-06T09:49:35.999Z</time></trkpt><trkpt lat="43.59185042394255" lon="10.529374647109167"><ele>21.5</ele><time>2026-04-06T09:49:36.999Z</time></trkpt><trkpt lat="43.59172023346731" lon="10.529398519597128"><ele>22.0</ele><time>2026-04-06T09:49:37.999Z</time></trkpt><trkpt lat="43.59159376372356" lon="10.529420489707096"><ele>22.0</ele><time>2026-04-06T09:49:38.999Z</time></trkpt><trkpt lat="43.59147641544175" lon="10.529439943759526"><ele>22.0</ele><time>2026-04-06T09:49:39.999Z</time></trkpt><trkpt lat="43.59135237770025" lon="10.529458633262948"><ele>22.0</ele><time>2026-04-06T09:49:40.999Z</time></trkpt><trkpt lat="43.591219855510204" lon="10.529480765722722"><ele>22.0</ele><time>2026-04-06T09:49:41.999Z</time></trkpt><trkpt lat="43.591080673803745" lon="10.529502324783651"><ele>22.0</ele><time>2026-04-06T09:49:42.999Z</time></trkpt><trkpt lat="43.590940017965025" lon="10.52951865766058"><ele>22.0</ele><time>2026-04-06T09:49:43.999Z</time></trkpt><trkpt lat="43.590797355930754" lon="10.529526767155692"><ele>22.0</ele><time>2026-04-06T09:49:44.999Z</time></trkpt><trkpt lat="43.59065571603654" lon="10.529515416106985"><ele>22.0</ele><time>2026-04-06T09:49:45.999Z</time></trkpt><trkpt lat="43.59051207087729" lon="10.52949285485891"><ele>22.0</ele><time>2026-04-06T09:49:46.999Z</time></trkpt><trkpt lat="43.59037184371926" lon="10.529455760651866"><ele>22.0</ele><time>2026-04-06T09:49:47.999Z</time></trkpt><trkpt lat="43.59023074162709" lon="10.529412501187013"><ele>22.0</ele><time>2026-04-06T09:49:48.999Z</time></trkpt><trkpt lat="43.59008864901164" lon="10.529359189731883"><ele>22.0</ele><time>2026-04-06T09:49:49.999Z</time></trkpt><trkpt lat="43.589949369540946" lon="10.529304144446927"><ele>21.75</ele><time>2026-04-06T09:49:50.999Z</time></trkpt><trkpt lat="43.58981170088634" lon="10.52924596644726"><ele>21.5</ele><time>2026-04-06T09:49:51.999Z</time></trkpt><trkpt lat="43.58967059736831" lon="10.529187921691415"><ele>21.25</ele><time>2026-04-06T09:49:52.999Z</time></trkpt><trkpt lat="43.589535288946685" lon="10.52912935295123"><ele>21.0</ele><time>2026-04-06T09:49:53.999Z</time></trkpt><trkpt lat="43.58939707097699" lon="10.529073252667374"><ele>21.0</ele><time>2026-04-06T09:49:54.999Z</time></trkpt><trkpt lat="43.589254062273675" lon="10.529021673651492"><ele>21.0</ele><time>2026-04-06T09:49:55.999Z</time></trkpt><trkpt lat="43.589110768152096" lon="10.528980248745668"><ele>21.0</ele><time>2026-04-06T09:49:56.999Z</time></trkpt><trkpt lat="43.58896971199553" lon="10.528953704227247"><ele>21.0</ele><time>2026-04-06T09:49:57.999Z</time></trkpt><trkpt lat="43.58882778997357" lon="10.52894788226942"><ele>21.0</ele><time>2026-04-06T09:49:58.999Z</time></trkpt><trkpt lat="43.58868380015313" lon="10.528962321455406"><ele>21.0</ele><time>2026-04-06T09:50:00Z</time></trkpt><trkpt lat="43.588543083546256" lon="10.528975015864768"><ele>21.0</ele><time>2026-04-06T09:50:01Z</time></trkpt><trkpt lat="43.588404903806875" lon="10.529040093225888"><ele>21.0</ele><time>2026-04-06T09:50:02Z</time></trkpt><trkpt lat="43.588266938583565" lon="10.52909040131449"><ele>21.25</ele><time>2026-04-06T09:50:03Z</time></trkpt><trkpt lat="43.588125168450766" lon="10.529143962973862"><ele>21.5</ele><time>2026-04-06T09:50:04Z</time></trkpt><trkpt lat="43.5879802417236" lon="10.529199171053005"><ele>21.75</ele><time>2026-04-06T09:50:05Z</time></trkpt><trkpt lat="43.58783980714019" lon="10.52925663431875"><ele>22.0</ele><time>2026-04-06T09:50:06Z</time></trkpt><trkpt lat="43.58769739514149" lon="10.529314743379112"><ele>22.0</ele><time>2026-04-06T09:50:07Z</time></trkpt><trkpt lat="43.58755226874268" lon="10.529373588348628"><ele>22.0</ele><time>2026-04-06T09:50:08Z</time></trkpt><trkpt lat="43.58740896490322" lon="10.529432817623828"><ele>22.0</ele><time>2026-04-06T09:50:09Z</time></trkpt><trkpt lat="43.58726217149588" lon="10.529491218439885"><ele>22.0</ele><time>2026-04-06T09:50:10Z</time></trkpt><trkpt lat="43.58711622610997" lon="10.529550193998293"><ele>22.0</ele><time>2026-04-06T09:50:11Z</time></trkpt><trkpt lat="43.58697153444664" lon="10.529609431488216"><ele>22.0</ele><time>2026-04-06T09:50:12Z</time></trkpt><trkpt lat="43.58682539289588" lon="10.529670375060721"><ele>22.333333333333332</ele><time>2026-04-06T09:50:13Z</time></trkpt><trkpt lat="43.58668160161657" lon="10.529731855395097"><ele>22.666666666666668</ele><time>2026-04-06T09:50:14Z</time></trkpt><trkpt lat="43.58653289511289" lon="10.529791112797596"><ele>23.0</ele><time>2026-04-06T09:50:15Z</time></trkpt><trkpt lat="43.58638607639172" lon="10.52985236263483"><ele>23.0</ele><time>2026-04-06T09:50:16Z</time></trkpt><trkpt lat="43.58623608977247" lon="10.529915106419635"><ele>23.0</ele><time>2026-04-06T09:50:17Z</time></trkpt><trkpt lat="43.5860875627702" lon="10.52998040482854"><ele>23.0</ele><time>2026-04-06T09:50:18Z</time></trkpt><trkpt lat="43.58593363779276" lon="10.530049050810872"><ele>22.666666666666668</ele><time>2026-04-06T09:50:19Z</time></trkpt><trkpt lat="43.58577897132866" lon="10.530115275428711"><ele>22.333333333333332</ele><time>2026-04-06T09:50:20Z</time></trkpt><trkpt lat="43.5856198315244" lon="10.53017917267916"><ele>22.0</ele><time>2026-04-06T09:50:21Z</time></trkpt><trkpt lat="43.58546131561114" lon="10.530240265565364"><ele>22.0</ele><time>2026-04-06T09:50:21.999Z</time></trkpt><trkpt lat="43.58530647355781" lon="10.530297670014457"><ele>22.0</ele><time>2026-04-06T09:50:22.999Z</time></trkpt><trkpt lat="43.58515601318671" lon="10.530357159379305"><ele>22.0</ele><time>2026-04-06T09:50:23.999Z</time></trkpt><trkpt lat="43.58500593646311" lon="10.530418689039589"><ele>22.0</ele><time>2026-04-06T09:50:24.999Z</time></trkpt><trkpt lat="43.58485787091268" lon="10.530480382856133"><ele>22.0</ele><time>2026-04-06T09:50:25.999Z</time></trkpt><trkpt lat="43.58470667692797" lon="10.530542960727493"><ele>22.0</ele><time>2026-04-06T09:50:26.999Z</time></trkpt><trkpt lat="43.58455525567101" lon="10.530607842231337"><ele>22.666666666666664</ele><time>2026-04-06T09:50:27.999Z</time></trkpt><trkpt lat="43.584401837590484" lon="10.530672404620553"><ele>23.333333333333332</ele><time>2026-04-06T09:50:28.999Z</time></trkpt><trkpt lat="43.58424790277804" lon="10.53073790026011"><ele>24.0</ele><time>2026-04-06T09:50:29.999Z</time></trkpt><trkpt lat="43.584086046432645" lon="10.530801498924022"><ele>24.0</ele><time>2026-04-06T09:50:30.999Z</time></trkpt><trkpt lat="43.58392318975601" lon="10.530868412045004"><ele>24.0</ele><time>2026-04-06T09:50:31.999Z</time></trkpt><trkpt lat="43.58375974526983" lon="10.530937205698919"><ele>24.0</ele><time>2026-04-06T09:50:32.999Z</time></trkpt><trkpt lat="43.58359056334774" lon="10.531005533421643"><ele>24.666666666666664</ele><time>2026-04-06T09:50:33.999Z</time></trkpt><trkpt lat="43.58342445449011" lon="10.531076220887734"><ele>25.333333333333332</ele><time>2026-04-06T09:50:34.999Z</time></trkpt><trkpt lat="43.583259553853956" lon="10.531144792371304"><ele>26.0</ele><time>2026-04-06T09:50:35.999Z</time></trkpt><trkpt lat="43.583094341242116" lon="10.53121251454654"><ele>25.666666666666664</ele><time>2026-04-06T09:50:36.999Z</time></trkpt><trkpt lat="43.58292507399789" lon="10.531279111315934"><ele>25.333333333333336</ele><time>2026-04-06T09:50:37.999Z</time></trkpt><trkpt lat="43.582761669051294" lon="10.531343942110453"><ele>25.0</ele><time>2026-04-06T09:50:38.999Z</time></trkpt><trkpt lat="43.58259606849074" lon="10.53141071058821"><ele>24.666666666666668</ele><time>2026-04-06T09:50:39.999Z</time></trkpt><trkpt lat="43.582428948908024" lon="10.53147871790112"><ele>24.333333333333336</ele><time>2026-04-06T09:50:40.999Z</time></trkpt><trkpt lat="43.58226543755693" lon="10.531545429814557"><ele>24.0</ele><time>2026-04-06T09:50:41.999Z</time></trkpt><trkpt lat="43.58210022584008" lon="10.531611986760048"><ele>23.666666666666668</ele><time>2026-04-06T09:50:42.999Z</time></trkpt><trkpt lat="43.58193085335371" lon="10.53168059853374"><ele>23.333333333333336</ele><time>2026-04-06T09:50:43.999Z</time></trkpt><trkpt lat="43.581757251686476" lon="10.531751861162597"><ele>23.0</ele><time>2026-04-06T09:50:44.999Z</time></trkpt><trkpt lat="43.581583542502386" lon="10.531824312124805"><ele>23.0</ele><time>2026-04-06T09:50:45.999Z</time></trkpt><trkpt lat="43.58140632154892" lon="10.531897394071363"><ele>23.0</ele><time>2026-04-06T09:50:46.999Z</time></trkpt><trkpt lat="43.58122873986116" lon="10.531971993816303"><ele>23.0</ele><time>2026-04-06T09:50:47.999Z</time></trkpt><trkpt lat="43.58105213480552" lon="10.532047282622095"><ele>24.0</ele><time>2026-04-06T09:50:48.999Z</time></trkpt><trkpt lat="43.58086896871467" lon="10.532123193504662"><ele>25.0</ele><time>2026-04-06T09:50:49.999Z</time></trkpt><trkpt lat="43.58068290401509" lon="10.532198567973252"><ele>26.0</ele><time>2026-04-06T09:50:50.999Z</time></trkpt><trkpt lat="43.58050105589353" lon="10.53227298350357"><ele>25.666666666666664</ele><time>2026-04-06T09:50:51.999Z</time></trkpt><trkpt lat="43.58031577847783" lon="10.532347777725947"><ele>25.333333333333336</ele><time>2026-04-06T09:50:52.999Z</time></trkpt><trkpt lat="43.58013739959333" lon="10.532423947442451"><ele>25.0</ele><time>2026-04-06T09:50:53.999Z</time></trkpt><trkpt lat="43.57997232550258" lon="10.532490721450715"><ele>25.0</ele><time>2026-04-06T09:50:54.999Z</time></trkpt><trkpt lat="43.57981674313895" lon="10.53255795051076"><ele>25.0</ele><time>2026-04-06T09:50:55.999Z</time></trkpt><trkpt lat="43.57967065490323" lon="10.532618279090178"><ele>25.0</ele><time>2026-04-06T09:50:56.999Z</time></trkpt><trkpt lat="43.57952629068443" lon="10.532676834083583"><ele>25.333333333333336</ele><time>2026-04-06T09:50:57.999Z</time></trkpt><trkpt lat="43.57937811513172" lon="10.532737041605921"><ele>25.666666666666664</ele><time>2026-04-06T09:50:58.999Z</time></trkpt><trkpt lat="43.579226793747516" lon="10.53280076221209"><ele>26.0</ele><time>2026-04-06T09:50:59.999Z</time></trkpt><trkpt lat="43.57907024851129" lon="10.532865242374466"><ele>26.0</ele><time>2026-04-06T09:51:00.999Z</time></trkpt><trkpt lat="43.57891322321777" lon="10.53293238024578"><ele>26.0</ele><time>2026-04-06T09:51:01.999Z</time></trkpt><trkpt lat="43.578752089637064" lon="10.533000084149212"><ele>26.0</ele><time>2026-04-06T09:51:02.999Z</time></trkpt><trkpt lat="43.57859172574679" lon="10.533067691255262"><ele>26.333333333333332</ele><time>2026-04-06T09:51:03.999Z</time></trkpt><trkpt lat="43.57842555805669" lon="10.533138432251052"><ele>26.666666666666664</ele><time>2026-04-06T09:51:04.999Z</time></trkpt><trkpt lat="43.5782603835636" lon="10.533207104388921"><ele>27.0</ele><time>2026-04-06T09:51:05.999Z</time></trkpt><trkpt lat="43.57809344265045" lon="10.533275638364735"><ele>27.0</ele><time>2026-04-06T09:51:06.999Z</time></trkpt><trkpt lat="43.57792745489649" lon="10.533344465431176"><ele>27.0</ele><time>2026-04-06T09:51:07.999Z</time></trkpt><trkpt lat="43.577756587823856" lon="10.533417392350728"><ele>27.0</ele><time>2026-04-06T09:51:08.999Z</time></trkpt><trkpt lat="43.57758901458808" lon="10.53348731854303"><ele>26.666666666666664</ele><time>2026-04-06T09:51:09.999Z</time></trkpt><trkpt lat="43.577423252742726" lon="10.533555126023186"><ele>26.333333333333332</ele><time>2026-04-06T09:51:10.999Z</time></trkpt><trkpt lat="43.57726254323167" lon="10.533621489712964"><ele>26.0</ele><time>2026-04-06T09:51:11.999Z</time></trkpt><trkpt lat="43.57710272975671" lon="10.533687462330569"><ele>26.333333333333332</ele><time>2026-04-06T09:51:12.998Z</time></trkpt><trkpt lat="43.57694371518533" lon="10.533753177462781"><ele>26.666666666666664</ele><time>2026-04-06T09:51:13.998Z</time></trkpt><trkpt lat="43.57678633730771" lon="10.533818319491479"><ele>27.0</ele><time>2026-04-06T09:51:14.998Z</time></trkpt><trkpt lat="43.57662588187642" lon="10.533888089142728"><ele>27.0</ele><time>2026-04-06T09:51:15.998Z</time></trkpt><trkpt lat="43.576462792585446" lon="10.53395830152216"><ele>27.0</ele><time>2026-04-06T09:51:16.998Z</time></trkpt><trkpt lat="43.5762993952777" lon="10.534027866403452"><ele>27.0</ele><time>2026-04-06T09:51:17.998Z</time></trkpt><trkpt lat="43.57613402678554" lon="10.53409979141476"><ele>27.0</ele><time>2026-04-06T09:51:18.998Z</time></trkpt><trkpt lat="43.57596670401427" lon="10.534168798323753"><ele>27.0</ele><time>2026-04-06T09:51:19.998Z</time></trkpt><trkpt lat="43.57579498479975" lon="10.534238601351658"><ele>27.0</ele><time>2026-04-06T09:51:20.998Z</time></trkpt><trkpt lat="43.575623157683324" lon="10.534307076583842"><ele>27.0</ele><time>2026-04-06T09:51:21.998Z</time></trkpt><trkpt lat="43.57544905124315" lon="10.53437871200667"><ele>27.0</ele><time>2026-04-06T09:51:22.998Z</time></trkpt><trkpt lat="43.57527293315488" lon="10.534452277864794"><ele>27.0</ele><time>2026-04-06T09:51:23.998Z</time></trkpt><trkpt lat="43.57509614088032" lon="10.534525882010586"><ele>27.333333333333336</ele><time>2026-04-06T09:51:24.998Z</time></trkpt><trkpt lat="43.57491882483958" lon="10.534599169861309"><ele>27.666666666666668</ele><time>2026-04-06T09:51:25.998Z</time></trkpt><trkpt lat="43.574739710848846" lon="10.53467534183835"><ele>28.0</ele><time>2026-04-06T09:51:26.998Z</time></trkpt><trkpt lat="43.57455967275407" lon="10.534755125107012"><ele>28.333333333333336</ele><time>2026-04-06T09:51:27.998Z</time></trkpt><trkpt lat="43.574382258024016" lon="10.534830853249112"><ele>28.666666666666664</ele><time>2026-04-06T09:51:28.998Z</time></trkpt><trkpt lat="43.57420243535273" lon="10.534906235811855"><ele>29.0</ele><time>2026-04-06T09:51:29.998Z</time></trkpt><trkpt lat="43.57402225820352" lon="10.534982131562302"><ele>29.0</ele><time>2026-04-06T09:51:30.998Z</time></trkpt><trkpt lat="43.57384750457597" lon="10.535058222757614"><ele>29.0</ele><time>2026-04-06T09:51:31.998Z</time></trkpt><trkpt lat="43.57367528496584" lon="10.535132200758733"><ele>29.0</ele><time>2026-04-06T09:51:32.998Z</time></trkpt><trkpt lat="43.57350675351724" lon="10.535204364674831"><ele>29.0</ele><time>2026-04-06T09:51:33.998Z</time></trkpt><trkpt lat="43.573339454353984" lon="10.535274995442064"><ele>29.0</ele><time>2026-04-06T09:51:34.998Z</time></trkpt><trkpt lat="43.573172765287566" lon="10.535341579483946"><ele>29.0</ele><time>2026-04-06T09:51:35.998Z</time></trkpt><trkpt lat="43.57300711461986" lon="10.53540141556275"><ele>29.666666666666664</ele><time>2026-04-06T09:51:36.998Z</time></trkpt><trkpt lat="43.57284159452304" lon="10.535451225323783"><ele>30.333333333333336</ele><time>2026-04-06T09:51:37.998Z</time></trkpt><trkpt lat="43.57267549467738" lon="10.535487369687193"><ele>31.0</ele><time>2026-04-06T09:51:38.998Z</time></trkpt><trkpt lat="43.572512306170104" lon="10.535508126511369"><ele>31.0</ele><time>2026-04-06T09:51:39.998Z</time></trkpt><trkpt lat="43.572355927257355" lon="10.535514962045864"><ele>31.0</ele><time>2026-04-06T09:51:40.998Z</time></trkpt><trkpt lat="43.57220795972426" lon="10.535513341184906"><ele>31.0</ele><time>2026-04-06T09:51:41.998Z</time></trkpt><trkpt lat="43.572063431528086" lon="10.535507591810394"><ele>31.0</ele><time>2026-04-06T09:51:42.998Z</time></trkpt><trkpt lat="43.57193307765819" lon="10.535471374777163"><ele>31.6</ele><time>2026-04-06T09:51:43.998Z</time></trkpt><trkpt lat="43.571811969792265" lon="10.535448901117691"><ele>32.2</ele><time>2026-04-06T09:51:44.998Z</time></trkpt><trkpt lat="43.571700907576215" lon="10.535422288084314"><ele>32.8</ele><time>2026-04-06T09:51:45.998Z</time></trkpt><trkpt lat="43.57159773059321" lon="10.535416438389777"><ele>33.4</ele><time>2026-04-06T09:51:46.998Z</time></trkpt><trkpt lat="43.57150453099432" lon="10.535387486103485"><ele>34.0</ele><time>2026-04-06T09:51:47.998Z</time></trkpt><trkpt lat="43.57141541438342" lon="10.53535878934228"><ele>34.2</ele><time>2026-04-06T09:51:48.998Z</time></trkpt><trkpt lat="43.57132240129994" lon="10.53532516594177"><ele>34.4</ele><time>2026-04-06T09:51:49.998Z</time></trkpt><trkpt lat="43.57122505155107" lon="10.535288187932832"><ele>34.6</ele><time>2026-04-06T09:51:50.998Z</time></trkpt><trkpt lat="43.571121043621375" lon="10.535243103137445"><ele>34.8</ele><time>2026-04-06T09:51:51.998Z</time></trkpt><trkpt lat="43.57100977697129" lon="10.535192765631827"><ele>35.0</ele><time>2026-04-06T09:51:52.998Z</time></trkpt><trkpt lat="43.570892327574015" lon="10.535138072080295"><ele>35.0</ele><time>2026-04-06T09:51:53.998Z</time></trkpt><trkpt lat="43.57077118216857" lon="10.535055305921192"><ele>35.0</ele><time>2026-04-06T09:51:54.998Z</time></trkpt><trkpt lat="43.57063859756277" lon="10.535009673086297"><ele>35.0</ele><time>2026-04-06T09:51:55.998Z</time></trkpt><trkpt lat="43.57050365763405" lon="10.534932690138563"><ele>35.0</ele><time>2026-04-06T09:51:56.998Z</time></trkpt><trkpt lat="43.57036342052333" lon="10.534845517747431"><ele>35.33333333333333</ele><time>2026-04-06T09:51:57.998Z</time></trkpt><trkpt lat="43.57021248182998" lon="10.534749107630224"><ele>35.666666666666664</ele><time>2026-04-06T09:51:58.998Z</time></trkpt><trkpt lat="43.57007020320851" lon="10.534619595010122"><ele>36.0</ele><time>2026-04-06T09:51:59.998Z</time></trkpt><trkpt lat="43.56992168297102" lon="10.534504449988063"><ele>37.0</ele><time>2026-04-06T09:52:00.998Z</time></trkpt><trkpt lat="43.56977076545561" lon="10.534384646042229"><ele>38.0</ele><time>2026-04-06T09:52:01.998Z</time></trkpt><trkpt lat="43.56961166927114" lon="10.534283981143178"><ele>39.0</ele><time>2026-04-06T09:52:02.998Z</time></trkpt><trkpt lat="43.56946514751788" lon="10.534166801762042"><ele>39.666666666666664</ele><time>2026-04-06T09:52:03.998Z</time></trkpt><trkpt lat="43.569314576035055" lon="10.534047924994386"><ele>40.33333333333333</ele><time>2026-04-06T09:52:04.998Z</time></trkpt><trkpt lat="43.56917450140244" lon="10.53393163921071"><ele>41.0</ele><time>2026-04-06T09:52:05.999Z</time></trkpt><trkpt lat="43.56903651083896" lon="10.533825157892846"><ele>41.0</ele><time>2026-04-06T09:52:06.999Z</time></trkpt><trkpt lat="43.56889629550729" lon="10.53372501289314"><ele>41.0</ele><time>2026-04-06T09:52:07.999Z</time></trkpt><trkpt lat="43.568753067853564" lon="10.533642107225809"><ele>41.0</ele><time>2026-04-06T09:52:08.999Z</time></trkpt><trkpt lat="43.568607272406744" lon="10.53357451812459"><ele>40.666666666666664</ele><time>2026-04-06T09:52:09.999Z</time></trkpt><trkpt lat="43.56845096727669" lon="10.533520958098727"><ele>40.333333333333336</ele><time>2026-04-06T09:52:10.999Z</time></trkpt><trkpt lat="43.56829040383852" lon="10.53348106942819"><ele>40.0</ele><time>2026-04-06T09:52:11.999Z</time></trkpt><trkpt lat="43.56812076441176" lon="10.533455481886634"><ele>40.0</ele><time>2026-04-06T09:52:12.999Z</time></trkpt><trkpt lat="43.567954086044345" lon="10.533450690429975"><ele>40.0</ele><time>2026-04-06T09:52:13.999Z</time></trkpt><trkpt lat="43.567780598640056" lon="10.533453057051432"><ele>40.0</ele><time>2026-04-06T09:52:14.999Z</time></trkpt><trkpt lat="43.56760259634249" lon="10.533455471434365"><ele>39.0</ele><time>2026-04-06T09:52:16Z</time></trkpt><trkpt lat="43.56741910822072" lon="10.533456277164698"><ele>38.0</ele><time>2026-04-06T09:52:17Z</time></trkpt><trkpt lat="43.567233049656394" lon="10.533454021314377"><ele>37.0</ele><time>2026-04-06T09:52:18Z</time></trkpt><trkpt lat="43.56704211514358" lon="10.533452406621159"><ele>37.0</ele><time>2026-04-06T09:52:19Z</time></trkpt><trkpt lat="43.566851876796704" lon="10.53345025177681"><ele>37.0</ele><time>2026-04-06T09:52:20Z</time></trkpt><trkpt lat="43.56666309074044" lon="10.53344696657555"><ele>37.0</ele><time>2026-04-06T09:52:21Z</time></trkpt><trkpt lat="43.566467980575744" lon="10.533448373252693"><ele>37.0</ele><time>2026-04-06T09:52:22Z</time></trkpt><trkpt lat="43.566281722369794" lon="10.533443301198067"><ele>37.0</ele><time>2026-04-06T09:52:23Z</time></trkpt><trkpt lat="43.56609667854118" lon="10.533441026013932"><ele>37.0</ele><time>2026-04-06T09:52:24Z</time></trkpt><trkpt lat="43.56591466848465" lon="10.533436609555949"><ele>36.66666666666667</ele><time>2026-04-06T09:52:25Z</time></trkpt><trkpt lat="43.56572995278486" lon="10.533437701727497"><ele>36.333333333333336</ele><time>2026-04-06T09:52:26Z</time></trkpt><trkpt lat="43.56554826171281" lon="10.533450394362358"><ele>36.0</ele><time>2026-04-06T09:52:27Z</time></trkpt><trkpt lat="43.56537197768107" lon="10.533490390009216"><ele>35.333333333333336</ele><time>2026-04-06T09:52:28Z</time></trkpt><trkpt lat="43.565204978308294" lon="10.533554393768027"><ele>34.66666666666667</ele><time>2026-04-06T09:52:29Z</time></trkpt><trkpt lat="43.56505576627539" lon="10.533645353944408"><ele>34.0</ele><time>2026-04-06T09:52:30Z</time></trkpt><trkpt lat="43.56492264616487" lon="10.533755203853499"><ele>34.0</ele><time>2026-04-06T09:52:31Z</time></trkpt><trkpt lat="43.56480104842067" lon="10.53387199821303"><ele>34.0</ele><time>2026-04-06T09:52:32Z</time></trkpt><trkpt lat="43.56468079452084" lon="10.533993221139387"><ele>34.0</ele><time>2026-04-06T09:52:33Z</time></trkpt><trkpt lat="43.564557736669116" lon="10.53412175496894"><ele>35.0</ele><time>2026-04-06T09:52:34Z</time></trkpt><trkpt lat="43.56442815232373" lon="10.53425089553797"><ele>36.0</ele><time>2026-04-06T09:52:35Z</time></trkpt><trkpt lat="43.56429989095354" lon="10.534375948585097"><ele>37.0</ele><time>2026-04-06T09:52:36Z</time></trkpt><trkpt lat="43.56416748889148" lon="10.534504924125633"><ele>36.0</ele><time>2026-04-06T09:52:37Z</time></trkpt><trkpt lat="43.5640361856358" lon="10.534635820013365"><ele>35.0</ele><time>2026-04-06T09:52:38Z</time></trkpt><trkpt lat="43.56390593539342" lon="10.534761807504978"><ele>34.0</ele><time>2026-04-06T09:52:39Z</time></trkpt><trkpt lat="43.5637777066547" lon="10.534884637128508"><ele>34.333333333333336</ele><time>2026-04-06T09:52:40Z</time></trkpt><trkpt lat="43.56364999326852" lon="10.53500267538282"><ele>34.666666666666664</ele><time>2026-04-06T09:52:41Z</time></trkpt><trkpt lat="43.56352329703205" lon="10.53511400590014"><ele>35.0</ele><time>2026-04-06T09:52:42Z</time></trkpt><trkpt lat="43.563393760891564" lon="10.5352181382895"><ele>35.0</ele><time>2026-04-06T09:52:43Z</time></trkpt><trkpt lat="43.563260155747685" lon="10.53531277772111"><ele>35.0</ele><time>2026-04-06T09:52:44Z</time></trkpt><trkpt lat="43.5631219605256" lon="10.535406861785106"><ele>35.0</ele><time>2026-04-06T09:52:45Z</time></trkpt><trkpt lat="43.56298457134053" lon="10.535508247267625"><ele>35.0</ele><time>2026-04-06T09:52:46Z</time></trkpt><trkpt lat="43.56284292804885" lon="10.53560760745898"><ele>35.0</ele><time>2026-04-06T09:52:46.999Z</time></trkpt><trkpt lat="43.562695982153045" lon="10.535719575036863"><ele>35.0</ele><time>2026-04-06T09:52:47.999Z</time></trkpt><trkpt lat="43.56255275000975" lon="10.535817261734984"><ele>35.0</ele><time>2026-04-06T09:52:48.999Z</time></trkpt><trkpt lat="43.5624037337751" lon="10.535923355813855"><ele>35.0</ele><time>2026-04-06T09:52:49.999Z</time></trkpt><trkpt lat="43.56225625673033" lon="10.536026338593848"><ele>35.0</ele><time>2026-04-06T09:52:50.999Z</time></trkpt><trkpt lat="43.56210978356644" lon="10.53613062176295"><ele>36.0</ele><time>2026-04-06T09:52:51.999Z</time></trkpt><trkpt lat="43.561962887266326" lon="10.536237402022609"><ele>37.0</ele><time>2026-04-06T09:52:52.999Z</time></trkpt><trkpt lat="43.56181566281432" lon="10.536341989467651"><ele>38.0</ele><time>2026-04-06T09:52:53.999Z</time></trkpt><trkpt lat="43.56166664786016" lon="10.536446573048426"><ele>38.0</ele><time>2026-04-06T09:52:54.999Z</time></trkpt><trkpt lat="43.56151904822059" lon="10.536550542333778"><ele>38.0</ele><time>2026-04-06T09:52:55.999Z</time></trkpt><trkpt lat="43.561370496011406" lon="10.536659720424993"><ele>38.0</ele><time>2026-04-06T09:52:56.999Z</time></trkpt><trkpt lat="43.561224917479116" lon="10.536763663712069"><ele>37.666666666666664</ele><time>2026-04-06T09:52:57.999Z</time></trkpt><trkpt lat="43.56107956235429" lon="10.53686613715633"><ele>37.333333333333336</ele><time>2026-04-06T09:52:58.999Z</time></trkpt><trkpt lat="43.56093143425991" lon="10.536970172063906"><ele>37.0</ele><time>2026-04-06T09:52:59.999Z</time></trkpt><trkpt lat="43.560779472252186" lon="10.537064343348796"><ele>37.0</ele><time>2026-04-06T09:53:00.999Z</time></trkpt><trkpt lat="43.560625867393455" lon="10.53713297370777"><ele>37.0</ele><time>2026-04-06T09:53:01.999Z</time></trkpt><trkpt lat="43.56046938253986" lon="10.537179518735629"><ele>37.0</ele><time>2026-04-06T09:53:02.999Z</time></trkpt><trkpt lat="43.56031725766164" lon="10.537192510392902"><ele>38.0</ele><time>2026-04-06T09:53:03.999Z</time></trkpt><trkpt lat="43.56017141984509" lon="10.53718658647305"><ele>39.0</ele><time>2026-04-06T09:53:04.999Z</time></trkpt><trkpt lat="43.56003690340871" lon="10.537163968645356"><ele>40.0</ele><time>2026-04-06T09:53:05.999Z</time></trkpt><trkpt lat="43.55990678113428" lon="10.537126363980676"><ele>41.0</ele><time>2026-04-06T09:53:06.999Z</time></trkpt><trkpt lat="43.55978875434289" lon="10.537060413071213"><ele>41.199999999999996</ele><time>2026-04-06T09:53:07.999Z</time></trkpt><trkpt lat="43.55967673639749" lon="10.537003380971006"><ele>41.4</ele><time>2026-04-06T09:53:08.999Z</time></trkpt><trkpt lat="43.559565311030305" lon="10.53696799146658"><ele>41.6</ele><time>2026-04-06T09:53:09.999Z</time></trkpt><trkpt lat="43.559470373408516" lon="10.536894987498396"><ele>41.8</ele><time>2026-04-06T09:53:10.999Z</time></trkpt><trkpt lat="43.55937385036169" lon="10.53684550740902"><ele>42.0</ele><time>2026-04-06T09:53:11.999Z</time></trkpt><trkpt lat="43.55928259537762" lon="10.5367987278379"><ele>42.5</ele><time>2026-04-06T09:53:12.999Z</time></trkpt><trkpt lat="43.55919828128003" lon="10.53677987057574"><ele>43.0</ele><time>2026-04-06T09:53:13.999Z</time></trkpt><trkpt lat="43.55911407109481" lon="10.53673623960136"><ele>43.5</ele><time>2026-04-06T09:53:15.999Z</time></trkpt><trkpt lat="43.55905217026612" lon="10.536680606117205"><ele>44.0</ele><time>2026-04-06T09:53:18.999Z</time></trkpt><trkpt lat="43.55897293443485" lon="10.53666196885256"><ele>44.5</ele><time>2026-04-06T09:53:23.999Z</time></trkpt><trkpt lat="43.55891281659656" lon="10.536632603553429"><ele>45.0</ele><time>2026-04-06T09:53:25.999Z</time></trkpt><trkpt lat="43.55885265598238" lon="10.53657833009678"><ele>45.0</ele><time>2026-04-06T09:53:29.999Z</time></trkpt><trkpt lat="43.558782381632476" lon="10.53656049092728"><ele>45.0</ele><time>2026-04-06T09:53:32.999Z</time></trkpt><trkpt lat="43.558718228114486" lon="10.536531712985923"><ele>45.0</ele><time>2026-04-06T09:53:36.999Z</time></trkpt><trkpt lat="43.558663752968016" lon="10.536480116337598"><ele>45.0</ele><time>2026-04-06T09:53:56.999Z</time></trkpt><trkpt lat="43.55860576450657" lon="10.536444470235242"><ele>45.0</ele><time>2026-04-06T09:53:59.999Z</time></trkpt><trkpt lat="43.558544149362255" lon="10.536415967646924"><ele>45.0</ele><time>2026-04-06T09:54:02.999Z</time></trkpt><trkpt lat="43.55848363077803" lon="10.536391069331504"><ele>45.0</ele><time>2026-04-06T09:54:06.999Z</time></trkpt><trkpt lat="43.55841853437779" lon="10.536358904708868"><ele>45.5</ele><time>2026-04-06T09:54:12Z</time></trkpt><trkpt lat="43.55835541443997" lon="10.536332603755373"><ele>46.0</ele><time>2026-04-06T09:54:17Z</time></trkpt><trkpt lat="43.55827263224009" lon="10.536300233507287"><ele>46.5</ele><time>2026-04-06T09:54:21Z</time></trkpt><trkpt lat="43.558210786039226" lon="10.536280013773677"><ele>47.0</ele><time>2026-04-06T09:54:23Z</time></trkpt><trkpt lat="43.558147864895815" lon="10.536268480130591"><ele>47.5</ele><time>2026-04-06T09:54:27Z</time></trkpt><trkpt lat="43.55804641473694" lon="10.536251827622632"><ele>48.0</ele><time>2026-04-06T09:54:30Z</time></trkpt><trkpt lat="43.557956898375274" lon="10.536245053364611"><ele>48.0</ele><time>2026-04-06T09:54:32Z</time></trkpt><trkpt lat="43.557874901416085" lon="10.536241217307113"><ele>48.0</ele><time>2026-04-06T09:54:34Z</time></trkpt><trkpt lat="43.557799116026025" lon="10.536239344384985"><ele>48.0</ele><time>2026-04-06T09:54:37Z</time></trkpt><trkpt lat="43.55770412765009" lon="10.536237760426499"><ele>48.0</ele><time>2026-04-06T09:54:40Z</time></trkpt><trkpt lat="43.5576370445752" lon="10.536236943839011"><ele>48.0</ele><time>2026-04-06T09:54:43Z</time></trkpt><trkpt lat="43.55755810294349" lon="10.536236452795162"><ele>48.0</ele><time>2026-04-06T09:54:46Z</time></trkpt><trkpt lat="43.557476147176395" lon="10.536232665010832"><ele>48.333333333333336</ele><time>2026-04-06T09:54:48Z</time></trkpt><trkpt lat="43.55740014264153" lon="10.536231036402828"><ele>48.66666666666667</ele><time>2026-04-06T09:54:50Z</time></trkpt><trkpt lat="43.55732668587783" lon="10.536229365204166"><ele>49.0</ele><time>2026-04-06T09:54:52Z</time></trkpt><trkpt lat="43.55724529896327" lon="10.536226300290117"><ele>49.333333333333336</ele><time>2026-04-06T09:54:53.999Z</time></trkpt><trkpt lat="43.55713860891396" lon="10.536222083716604"><ele>49.66666666666667</ele><time>2026-04-06T09:54:55.999Z</time></trkpt><trkpt lat="43.55706865515792" lon="10.536221740294843"><ele>50.0</ele><time>2026-04-06T09:54:56.999Z</time></trkpt><trkpt lat="43.55699001179874" lon="10.536223790313903"><ele>50.8</ele><time>2026-04-06T09:54:57.999Z</time></trkpt><trkpt lat="43.55690045352542" lon="10.536228141537537"><ele>51.6</ele><time>2026-04-06T09:54:58.999Z</time></trkpt><trkpt lat="43.55681131842489" lon="10.536233797508523"><ele>52.400000000000006</ele><time>2026-04-06T09:54:59.999Z</time></trkpt><trkpt lat="43.55671675086689" lon="10.536238035665646"><ele>53.2</ele><time>2026-04-06T09:55:00.999Z</time></trkpt><trkpt lat="43.556622007329224" lon="10.536214904542478"><ele>54.0</ele><time>2026-04-06T09:55:01.999Z</time></trkpt><trkpt lat="43.55651743653322" lon="10.536211994428653"><ele>54.400000000000006</ele><time>2026-04-06T09:55:02.999Z</time></trkpt><trkpt lat="43.55641381233891" lon="10.536209267987582"><ele>54.800000000000004</ele><time>2026-04-06T09:55:03.999Z</time></trkpt><trkpt lat="43.55630433448981" lon="10.536206399040944"><ele>55.199999999999996</ele><time>2026-04-06T09:55:04.999Z</time></trkpt><trkpt lat="43.55619708233688" lon="10.536203588419747"><ele>55.599999999999994</ele><time>2026-04-06T09:55:05.999Z</time></trkpt><trkpt lat="43.55609344694413" lon="10.536200656312698"><ele>56.0</ele><time>2026-04-06T09:55:06.999Z</time></trkpt><trkpt lat="43.555994766599504" lon="10.536197706088945"><ele>57.0</ele><time>2026-04-06T09:55:07.999Z</time></trkpt><trkpt lat="43.55589661041072" lon="10.536194771539586"><ele>57.99999999999999</ele><time>2026-04-06T09:55:08.999Z</time></trkpt><trkpt lat="43.555802548537436" lon="10.536191959387683"><ele>58.99999999999999</ele><time>2026-04-06T09:55:09.999Z</time></trkpt><trkpt lat="43.55571244047527" lon="10.536189265446831"><ele>60.0</ele><time>2026-04-06T09:55:10.999Z</time></trkpt><trkpt lat="43.55562613113046" lon="10.53618668507797"><ele>61.0</ele><time>2026-04-06T09:55:11.999Z</time></trkpt><trkpt lat="43.5555448672317" lon="10.536184255548534"><ele>60.99999999999999</ele><time>2026-04-06T09:55:12.999Z</time></trkpt><trkpt lat="43.55546310677187" lon="10.536181811172204"><ele>61.0</ele><time>2026-04-06T09:55:13.999Z</time></trkpt><trkpt lat="43.55538273703576" lon="10.536179408376391"><ele>61.0</ele><time>2026-04-06T09:55:14.999Z</time></trkpt><trkpt lat="43.555300154214834" lon="10.536176939415755"><ele>61.0</ele><time>2026-04-06T09:55:15.999Z</time></trkpt><trkpt lat="43.555214171253404" lon="10.536174368803133"><ele>60.99999999999999</ele><time>2026-04-06T09:55:16.999Z</time></trkpt><trkpt lat="43.555126321619674" lon="10.536170172909106"><ele>61.0</ele><time>2026-04-06T09:55:17.999Z</time></trkpt><trkpt lat="43.55503503026555" lon="10.536166110164533"><ele>61.33333333333333</ele><time>2026-04-06T09:55:18.999Z</time></trkpt><trkpt lat="43.55494909369726" lon="10.536165183050015"><ele>61.666666666666664</ele><time>2026-04-06T09:55:19.999Z</time></trkpt><trkpt lat="43.55486910447821" lon="10.536164322016726"><ele>62.0</ele><time>2026-04-06T09:55:20.999Z</time></trkpt><trkpt lat="43.55478983801051" lon="10.536169642799232"><ele>62.33333333333333</ele><time>2026-04-06T09:55:21.999Z</time></trkpt><trkpt lat="43.5547014036285" lon="10.536174990324026"><ele>62.666666666666664</ele><time>2026-04-06T09:55:22.999Z</time></trkpt><trkpt lat="43.55460460153624" lon="10.53618670018853"><ele>63.0</ele><time>2026-04-06T09:55:23.999Z</time></trkpt><trkpt lat="43.55451766628905" lon="10.536236977387423"><ele>63.599999999999994</ele><time>2026-04-06T09:55:24.999Z</time></trkpt><trkpt lat="43.55443869090164" lon="10.536239484851075"><ele>64.19999999999999</ele><time>2026-04-06T09:55:25.999Z</time></trkpt><trkpt lat="43.55437561221143" lon="10.536249740439688"><ele>64.8</ele><time>2026-04-06T09:55:26.999Z</time></trkpt><trkpt lat="43.554278927452366" lon="10.536254777125055"><ele>65.39999999999999</ele><time>2026-04-06T09:55:28.999Z</time></trkpt><trkpt lat="43.55417736624201" lon="10.536210588188283"><ele>66.0</ele><time>2026-04-06T09:55:30.999Z</time></trkpt><trkpt lat="43.554069628463544" lon="10.536183471533347"><ele>66.0</ele><time>2026-04-06T09:55:32.999Z</time></trkpt><trkpt lat="43.55396765870173" lon="10.536131413626446"><ele>66.0</ele><time>2026-04-06T09:55:34.999Z</time></trkpt><trkpt lat="43.55388593688848" lon="10.536075462439682"><ele>66.0</ele><time>2026-04-06T09:55:38.999Z</time></trkpt><trkpt lat="43.55378038508025" lon="10.536003195244916"><ele>66.0</ele><time>2026-04-06T09:55:40.999Z</time></trkpt><trkpt lat="43.55370544647221" lon="10.535951887757454"><ele>66.0</ele><time>2026-04-06T09:55:41.999Z</time></trkpt><trkpt lat="43.55362423986988" lon="10.535896288704436"><ele>68.6</ele><time>2026-04-06T09:55:42.999Z</time></trkpt><trkpt lat="43.553540038246275" lon="10.535838141906627"><ele>71.19999999999999</ele><time>2026-04-06T09:55:43.999Z</time></trkpt><trkpt lat="43.553454974958775" lon="10.535778923214584"><ele>73.80000000000001</ele><time>2026-04-06T09:55:44.999Z</time></trkpt><trkpt lat="43.553371172140004" lon="10.535720582261803"><ele>76.4</ele><time>2026-04-06T09:55:45.999Z</time></trkpt><trkpt lat="43.55328785434989" lon="10.535662579100205"><ele>79.0</ele><time>2026-04-06T09:55:46.999Z</time></trkpt><trkpt lat="43.55320724808168" lon="10.535606463413611"><ele>79.0</ele><time>2026-04-06T09:55:47.999Z</time></trkpt><trkpt lat="43.5531286520415" lon="10.535551747256521"><ele>79.0</ele><time>2026-04-06T09:55:48.999Z</time></trkpt><trkpt lat="43.553051564568094" lon="10.535498081264892"><ele>79.0</ele><time>2026-04-06T09:55:49.999Z</time></trkpt><trkpt lat="43.55297654344443" lon="10.535445853927117"><ele>79.0</ele><time>2026-04-06T09:55:50.999Z</time></trkpt><trkpt lat="43.5529115669984" lon="10.535399831801328"><ele>79.0</ele><time>2026-04-06T09:55:51.999Z</time></trkpt><trkpt lat="43.55282970525679" lon="10.535364757058163"><ele>79.0</ele><time>2026-04-06T09:55:53.999Z</time></trkpt><trkpt lat="43.55277139936932" lon="10.535305239722124"><ele>78.60000000000001</ele><time>2026-04-06T09:55:57.999Z</time></trkpt><trkpt lat="43.5526989367325" lon="10.53526065190816"><ele>78.2</ele><time>2026-04-06T09:55:59.999Z</time></trkpt><trkpt lat="43.552632131407044" lon="10.535226470320067"><ele>77.80000000000001</ele><time>2026-04-06T09:56:01.999Z</time></trkpt><trkpt lat="43.55253918297133" lon="10.535194985850708"><ele>77.4</ele><time>2026-04-06T09:56:04.999Z</time></trkpt><trkpt lat="43.55241414903253" lon="10.535190032781804"><ele>77.0</ele><time>2026-04-06T09:56:06.999Z</time></trkpt><trkpt lat="43.55233601023929" lon="10.5352117068766"><ele>77.0</ele><time>2026-04-06T09:56:07.999Z</time></trkpt><trkpt lat="43.55225385496177" lon="10.535238386970912"><ele>77.0</ele><time>2026-04-06T09:56:08.999Z</time></trkpt><trkpt lat="43.55217472471" lon="10.535281745628902"><ele>77.0</ele><time>2026-04-06T09:56:09.999Z</time></trkpt><trkpt lat="43.552092706493646" lon="10.535295820066967"><ele>77.0</ele><time>2026-04-06T09:56:10.999Z</time></trkpt><trkpt lat="43.55202475829898" lon="10.53529854107821"><ele>77.0</ele><time>2026-04-06T09:56:11.999Z</time></trkpt><trkpt lat="43.55191804251047" lon="10.535255543591147"><ele>77.0</ele><time>2026-04-06T09:56:13.999Z</time></trkpt><trkpt lat="43.551852591782676" lon="10.535237693234361"><ele>78.83333333333334</ele><time>2026-04-06T09:56:14.999Z</time></trkpt><trkpt lat="43.551779021700604" lon="10.535211069899711"><ele>80.66666666666667</ele><time>2026-04-06T09:56:15.999Z</time></trkpt><trkpt lat="43.55170318312445" lon="10.53517659676263"><ele>82.5</ele><time>2026-04-06T09:56:16.999Z</time></trkpt><trkpt lat="43.55162912598713" lon="10.535144205843299"><ele>84.33333333333333</ele><time>2026-04-06T09:56:18Z</time></trkpt><trkpt lat="43.55155296697425" lon="10.535110895642605"><ele>86.16666666666666</ele><time>2026-04-06T09:56:19Z</time></trkpt><trkpt lat="43.55147928008801" lon="10.535077107374985"><ele>88.0</ele><time>2026-04-06T09:56:20Z</time></trkpt><trkpt lat="43.551404716297874" lon="10.535042566773937"><ele>88.0</ele><time>2026-04-06T09:56:21Z</time></trkpt><trkpt lat="43.55133129228467" lon="10.535006380933861"><ele>88.0</ele><time>2026-04-06T09:56:22Z</time></trkpt><trkpt lat="43.551258084402804" lon="10.53496911486538"><ele>88.0</ele><time>2026-04-06T09:56:23Z</time></trkpt><trkpt lat="43.551185934305366" lon="10.53492595755999"><ele>88.0</ele><time>2026-04-06T09:56:24Z</time></trkpt><trkpt lat="43.55111042961948" lon="10.534877500355275"><ele>88.0</ele><time>2026-04-06T09:56:25Z</time></trkpt><trkpt lat="43.55103655970789" lon="10.534816299932627"><ele>88.0</ele><time>2026-04-06T09:56:26Z</time></trkpt><trkpt lat="43.55095582589575" lon="10.534745213397569"><ele>87.0</ele><time>2026-04-06T09:56:27Z</time></trkpt><trkpt lat="43.55087228396512" lon="10.534669201734667"><ele>86.0</ele><time>2026-04-06T09:56:28Z</time></trkpt><trkpt lat="43.55077958931112" lon="10.534582090908627"><ele>85.0</ele><time>2026-04-06T09:56:29Z</time></trkpt><trkpt lat="43.55068181979585" lon="10.534489413140403"><ele>84.0</ele><time>2026-04-06T09:56:30Z</time></trkpt><trkpt lat="43.55057969364423" lon="10.534392605751364"><ele>84.0</ele><time>2026-04-06T09:56:31Z</time></trkpt><trkpt lat="43.55047496324979" lon="10.534293329671657"><ele>84.0</ele><time>2026-04-06T09:56:32Z</time></trkpt><trkpt lat="43.55036831885195" lon="10.534192239172334"><ele>84.0</ele><time>2026-04-06T09:56:33Z</time></trkpt><trkpt lat="43.55025659510189" lon="10.534086702713523"><ele>84.0</ele><time>2026-04-06T09:56:34Z</time></trkpt><trkpt lat="43.550145993640285" lon="10.53398290531464"><ele>84.25</ele><time>2026-04-06T09:56:35Z</time></trkpt><trkpt lat="43.55003560907837" lon="10.533879310127743"><ele>84.5</ele><time>2026-04-06T09:56:36Z</time></trkpt><trkpt lat="43.549931323676425" lon="10.533782841406156"><ele>84.75</ele><time>2026-04-06T09:56:37Z</time></trkpt><trkpt lat="43.549833193742344" lon="10.533692438018846"><ele>85.0</ele><time>2026-04-06T09:56:38Z</time></trkpt><trkpt lat="43.54973731322042" lon="10.533604106272513"><ele>85.0</ele><time>2026-04-06T09:56:39Z</time></trkpt><trkpt lat="43.54964120781112" lon="10.53351514081468"><ele>85.0</ele><time>2026-04-06T09:56:40Z</time></trkpt><trkpt lat="43.54954918176564" lon="10.53342868840685"><ele>85.0</ele><time>2026-04-06T09:56:41Z</time></trkpt><trkpt lat="43.54946402370609" lon="10.533347366855615"><ele>85.0</ele><time>2026-04-06T09:56:42Z</time></trkpt><trkpt lat="43.54938940842551" lon="10.533274105670683"><ele>85.0</ele><time>2026-04-06T09:56:43Z</time></trkpt><trkpt lat="43.5493267918428" lon="10.533210934900413"><ele>85.5</ele><time>2026-04-06T09:56:43.999Z</time></trkpt><trkpt lat="43.54927135420962" lon="10.53315275157069"><ele>86.0</ele><time>2026-04-06T09:56:44.999Z</time></trkpt><trkpt lat="43.549215156776384" lon="10.533089464295744"><ele>86.5</ele><time>2026-04-06T09:56:45.999Z</time></trkpt><trkpt lat="43.54915498433294" lon="10.533016757495297"><ele>87.0</ele><time>2026-04-06T09:56:46.999Z</time></trkpt><trkpt lat="43.549094887581624" lon="10.532936554010684"><ele>87.5</ele><time>2026-04-06T09:56:47.999Z</time></trkpt><trkpt lat="43.54903249757408" lon="10.532851692406085"><ele>88.0</ele><time>2026-04-06T09:56:48.999Z</time></trkpt><trkpt lat="43.54897089858855" lon="10.532765562572475"><ele>88.0</ele><time>2026-04-06T09:56:49.999Z</time></trkpt><trkpt lat="43.54890855202674" lon="10.532676728259561"><ele>88.0</ele><time>2026-04-06T09:56:50.999Z</time></trkpt><trkpt lat="43.54884657324057" lon="10.53258924997704"><ele>88.0</ele><time>2026-04-06T09:56:51.999Z</time></trkpt><trkpt lat="43.54878532783473" lon="10.53250773930017"><ele>88.0</ele><time>2026-04-06T09:56:52.999Z</time></trkpt><trkpt lat="43.54872763783776" lon="10.532434191442425"><ele>88.0</ele><time>2026-04-06T09:56:53.999Z</time></trkpt><trkpt lat="43.54866771929449" lon="10.532362239898342"><ele>88.0</ele><time>2026-04-06T09:56:54.999Z</time></trkpt><trkpt lat="43.54860417732079" lon="10.53229231988133"><ele>89.66666666666666</ele><time>2026-04-06T09:56:55.999Z</time></trkpt><trkpt lat="43.54853805116656" lon="10.532221929208998"><ele>91.33333333333333</ele><time>2026-04-06T09:56:56.999Z</time></trkpt><trkpt lat="43.54847799854378" lon="10.532161229456745"><ele>93.0</ele><time>2026-04-06T09:56:57.999Z</time></trkpt><trkpt lat="43.54842567656445" lon="10.53211160119449"><ele>94.66666666666666</ele><time>2026-04-06T09:56:58.999Z</time></trkpt><trkpt lat="43.54834815008168" lon="10.532049990015635"><ele>96.33333333333333</ele><time>2026-04-06T09:57:00.999Z</time></trkpt><trkpt lat="43.548287539269744" lon="10.532011388375695"><ele>98.0</ele><time>2026-04-06T09:57:02.999Z</time></trkpt><trkpt lat="43.5482046351522" lon="10.531983890552018"><ele>98.0</ele><time>2026-04-06T09:57:04.999Z</time></trkpt><trkpt lat="43.54812021308721" lon="10.531960653049872"><ele>98.0</ele><time>2026-04-06T09:57:06.999Z</time></trkpt><trkpt lat="43.54802412281039" lon="10.531932564496074"><ele>98.0</ele><time>2026-04-06T09:57:08.999Z</time></trkpt><trkpt lat="43.54794303650365" lon="10.531945921338947"><ele>98.0</ele><time>2026-04-06T09:57:09.999Z</time></trkpt><trkpt lat="43.547848616937976" lon="10.531975527304077"><ele>98.0</ele><time>2026-04-06T09:57:10.999Z</time></trkpt><trkpt lat="43.54774974065844" lon="10.532022487899681"><ele>98.0</ele><time>2026-04-06T09:57:11.999Z</time></trkpt><trkpt lat="43.54765802188951" lon="10.532116302128758"><ele>98.0</ele><time>2026-04-06T09:57:12.999Z</time></trkpt><trkpt lat="43.547556097899715" lon="10.532174264372916"><ele>98.0</ele><time>2026-04-06T09:57:13.999Z</time></trkpt><trkpt lat="43.547454677586046" lon="10.532235476023489"><ele>98.0</ele><time>2026-04-06T09:57:14.999Z</time></trkpt><trkpt lat="43.547354623253696" lon="10.532288558685073"><ele>98.0</ele><time>2026-04-06T09:57:15.999Z</time></trkpt><trkpt lat="43.54725223402999" lon="10.532303173892481"><ele>97.99999999999999</ele><time>2026-04-06T09:57:16.999Z</time></trkpt><trkpt lat="43.547159053541726" lon="10.532348259436818"><ele>98.0</ele><time>2026-04-06T09:57:17.999Z</time></trkpt><trkpt lat="43.54708000388081" lon="10.532380149995348"><ele>98.0</ele><time>2026-04-06T09:57:18.999Z</time></trkpt><trkpt lat="43.54700634812058" lon="10.532399168040088"><ele>98.0</ele><time>2026-04-06T09:57:19.999Z</time></trkpt><trkpt lat="43.546934492554804" lon="10.532411265334087"><ele>97.99999999999999</ele><time>2026-04-06T09:57:20.999Z</time></trkpt><trkpt lat="43.54686214521258" lon="10.532404778412516"><ele>98.0</ele><time>2026-04-06T09:57:21.999Z</time></trkpt><trkpt lat="43.54679228406867" lon="10.532392378782486"><ele>97.71428571428571</ele><time>2026-04-06T09:57:22.999Z</time></trkpt><trkpt lat="43.54672988116496" lon="10.532362148445985"><ele>97.42857142857143</ele><time>2026-04-06T09:57:23.999Z</time></trkpt><trkpt lat="43.54665975969404" lon="10.532330787156514"><ele>97.14285714285714</ele><time>2026-04-06T09:57:24.999Z</time></trkpt><trkpt lat="43.54661525877995" lon="10.532264459211016"><ele>96.85714285714286</ele><time>2026-04-06T09:57:25.999Z</time></trkpt><trkpt lat="43.54655224822046" lon="10.532226928106015"><ele>96.57142857142857</ele><time>2026-04-06T09:57:26.999Z</time></trkpt><trkpt lat="43.54651101928252" lon="10.532158053302341"><ele>96.28571428571428</ele><time>2026-04-06T09:57:27.999Z</time></trkpt><trkpt lat="43.54646977659756" lon="10.53208471409219"><ele>96.0</ele><time>2026-04-06T09:57:28.999Z</time></trkpt><trkpt lat="43.54642726369166" lon="10.532006980350523"><ele>97.0</ele><time>2026-04-06T09:57:29.999Z</time></trkpt><trkpt lat="43.54638440672624" lon="10.531928620569124"><ele>98.0</ele><time>2026-04-06T09:57:30.999Z</time></trkpt><trkpt lat="43.54634115885647" lon="10.531845255938624"><ele>99.0</ele><time>2026-04-06T09:57:31.999Z</time></trkpt><trkpt lat="43.54629657644782" lon="10.531753814596458"><ele>100.0</ele><time>2026-04-06T09:57:32.999Z</time></trkpt><trkpt lat="43.54625534921541" lon="10.531675214893117"><ele>101.0</ele><time>2026-04-06T09:57:33.999Z</time></trkpt><trkpt lat="43.546209186495595" lon="10.531581916066395"><ele>102.0</ele><time>2026-04-06T09:57:34.999Z</time></trkpt><trkpt lat="43.546177462297045" lon="10.53146953344299"><ele>99.83333333333333</ele><time>2026-04-06T09:57:35.999Z</time></trkpt><trkpt lat="43.5461310700212" lon="10.531393301347922"><ele>97.66666666666667</ele><time>2026-04-06T09:57:36.999Z</time></trkpt><trkpt lat="43.5460860278437" lon="10.531321083789466"><ele>95.5</ele><time>2026-04-06T09:57:37.999Z</time></trkpt><trkpt lat="43.54602879979263" lon="10.531230225440279"><ele>93.33333333333334</ele><time>2026-04-06T09:57:39.999Z</time></trkpt><trkpt lat="43.545966956955546" lon="10.531132606691648"><ele>91.16666666666667</ele><time>2026-04-06T09:58:07.999Z</time></trkpt><trkpt lat="43.54590198435376" lon="10.531035113012086"><ele>89.0</ele><time>2026-04-06T09:58:09.999Z</time></trkpt><trkpt lat="43.54584846476949" lon="10.53095480524913"><ele>89.0</ele><time>2026-04-06T09:58:11.999Z</time></trkpt><trkpt lat="43.54578397410593" lon="10.53085803511349"><ele>89.0</ele><time>2026-04-06T09:58:20.998Z</time></trkpt><trkpt lat="43.54573893302829" lon="10.530787450306962"><ele>89.0</ele><time>2026-04-06T09:58:21.998Z</time></trkpt><trkpt lat="43.54568773594726" lon="10.530706383107146"><ele>89.0</ele><time>2026-04-06T09:58:22.998Z</time></trkpt><trkpt lat="43.54563100886324" lon="10.530608360973952"><ele>89.0</ele><time>2026-04-06T09:58:24Z</time></trkpt><trkpt lat="43.54558046305911" lon="10.53050415713728"><ele>89.0</ele><time>2026-04-06T09:58:25Z</time></trkpt><trkpt lat="43.545526336922634" lon="10.530388409785333"><ele>93.0</ele><time>2026-04-06T09:58:26Z</time></trkpt><trkpt lat="43.54546142395073" lon="10.530263731662028"><ele>97.0</ele><time>2026-04-06T09:58:27Z</time></trkpt><trkpt lat="43.54537549941375" lon="10.530147156347073"><ele>101.0</ele><time>2026-04-06T09:58:28Z</time></trkpt><trkpt lat="43.54526832044802" lon="10.530046005295436"><ele>105.0</ele><time>2026-04-06T09:58:29Z</time></trkpt><trkpt lat="43.54516009336861" lon="10.529969722218699"><ele>100.4</ele><time>2026-04-06T09:58:30Z</time></trkpt><trkpt lat="43.54504884196417" lon="10.529897587665172"><ele>95.8</ele><time>2026-04-06T09:58:31Z</time></trkpt><trkpt lat="43.54495088065478" lon="10.529817566188107"><ele>91.19999999999999</ele><time>2026-04-06T09:58:32Z</time></trkpt><trkpt lat="43.54487153399197" lon="10.529724555326288"><ele>86.6</ele><time>2026-04-06T09:58:33Z</time></trkpt><trkpt lat="43.54483247289171" lon="10.529614079214234"><ele>82.0</ele><time>2026-04-06T09:58:34Z</time></trkpt><trkpt lat="43.54479163217063" lon="10.529466380948955"><ele>82.0</ele><time>2026-04-06T09:58:35Z</time></trkpt><trkpt lat="43.54475728938121" lon="10.529300704598919"><ele>82.0</ele><time>2026-04-06T09:58:36Z</time></trkpt><trkpt lat="43.5447273624222" lon="10.529126581879733"><ele>82.0</ele><time>2026-04-06T09:58:37Z</time></trkpt><trkpt lat="43.54470374684368" lon="10.528955279126498"><ele>82.0</ele><time>2026-04-06T09:58:38Z</time></trkpt><trkpt lat="43.54469578704925" lon="10.528776762907043"><ele>81.25</ele><time>2026-04-06T09:58:39Z</time></trkpt><trkpt lat="43.54471027792713" lon="10.528604618348698"><ele>80.5</ele><time>2026-04-06T09:58:40Z</time></trkpt><trkpt lat="43.544730981223786" lon="10.528438524337979"><ele>79.75</ele><time>2026-04-06T09:58:41Z</time></trkpt><trkpt lat="43.54474849549262" lon="10.528265345571018"><ele>79.0</ele><time>2026-04-06T09:58:42Z</time></trkpt><trkpt lat="43.54475251990727" lon="10.528102573738076"><ele>79.0</ele><time>2026-04-06T09:58:43Z</time></trkpt><trkpt lat="43.544733344570325" lon="10.5279340012593"><ele>79.0</ele><time>2026-04-06T09:58:44Z</time></trkpt><trkpt lat="43.54469188921333" lon="10.527777139603808"><ele>79.0</ele><time>2026-04-06T09:58:45Z</time></trkpt><trkpt lat="43.54465679677163" lon="10.52764441456789"><ele>79.0</ele><time>2026-04-06T09:58:46Z</time></trkpt><trkpt lat="43.54463134246516" lon="10.527509193715906"><ele>79.0</ele><time>2026-04-06T09:58:47Z</time></trkpt><trkpt lat="43.54462057809954" lon="10.527374158359283"><ele>76.25</ele><time>2026-04-06T09:58:48Z</time></trkpt><trkpt lat="43.54464846219736" lon="10.527251796075747"><ele>73.5</ele><time>2026-04-06T09:58:49Z</time></trkpt><trkpt lat="43.544705216923695" lon="10.527118824103074"><ele>70.75</ele><time>2026-04-06T09:58:50Z</time></trkpt><trkpt lat="43.54479105015624" lon="10.526996497451808"><ele>68.0</ele><time>2026-04-06T09:58:51Z</time></trkpt><trkpt lat="43.5448958161374" lon="10.526888499227313"><ele>64.25</ele><time>2026-04-06T09:58:52Z</time></trkpt><trkpt lat="43.54501677399573" lon="10.526799153905161"><ele>60.5</ele><time>2026-04-06T09:58:53Z</time></trkpt><trkpt lat="43.545121120253675" lon="10.526682938423898"><ele>56.75</ele><time>2026-04-06T09:58:54Z</time></trkpt><trkpt lat="43.54520636377656" lon="10.526529323140442"><ele>53.0</ele><time>2026-04-06T09:58:54.999Z</time></trkpt><trkpt lat="43.54528068282799" lon="10.526362804374934"><ele>53.75</ele><time>2026-04-06T09:58:55.999Z</time></trkpt><trkpt lat="43.54535767195166" lon="10.52618956449072"><ele>54.5</ele><time>2026-04-06T09:58:56.999Z</time></trkpt><trkpt lat="43.545442322626165" lon="10.526020746643834"><ele>55.25</ele><time>2026-04-06T09:58:57.999Z</time></trkpt><trkpt lat="43.545533987691634" lon="10.52585401680001"><ele>56.0</ele><time>2026-04-06T09:58:58.999Z</time></trkpt><trkpt lat="43.54562350153055" lon="10.52568667054609"><ele>56.0</ele><time>2026-04-06T09:58:59.999Z</time></trkpt><trkpt lat="43.545693090784745" lon="10.525506771221206"><ele>56.0</ele><time>2026-04-06T09:59:00.999Z</time></trkpt><trkpt lat="43.54572633299129" lon="10.525314011363259"><ele>56.0</ele><time>2026-04-06T09:59:01.999Z</time></trkpt><trkpt lat="43.54571250275347" lon="10.525118352713664"><ele>56.0</ele><time>2026-04-06T09:59:02.999Z</time></trkpt><trkpt lat="43.54565366546188" lon="10.524946042299034"><ele>51.75</ele><time>2026-04-06T09:59:03.999Z</time></trkpt><trkpt lat="43.54554896934509" lon="10.524810122792912"><ele>47.5</ele><time>2026-04-06T09:59:04.999Z</time></trkpt><trkpt lat="43.545415971941225" lon="10.524725978596768"><ele>43.25</ele><time>2026-04-06T09:59:05.999Z</time></trkpt><trkpt lat="43.54526575395749" lon="10.524709265663052"><ele>39.0</ele><time>2026-04-06T09:59:06.999Z</time></trkpt><trkpt lat="43.54511361192661" lon="10.524759683572526"><ele>38.666666666666664</ele><time>2026-04-06T09:59:07.999Z</time></trkpt><trkpt lat="43.544960853041246" lon="10.52485581037723"><ele>38.33333333333333</ele><time>2026-04-06T09:59:08.999Z</time></trkpt><trkpt lat="43.5448222357068" lon="10.524962508534035"><ele>38.0</ele><time>2026-04-06T09:59:09.999Z</time></trkpt><trkpt lat="43.54467773858546" lon="10.525032243255424"><ele>38.0</ele><time>2026-04-06T09:59:10.999Z</time></trkpt><trkpt lat="43.544553303107094" lon="10.525106409588938"><ele>38.0</ele><time>2026-04-06T09:59:11.999Z</time></trkpt><trkpt lat="43.54443873217844" lon="10.525174696327813"><ele>38.0</ele><time>2026-04-06T09:59:12.999Z</time></trkpt><trkpt lat="43.544330858191735" lon="10.525237868406881"><ele>38.0</ele><time>2026-04-06T09:59:13.999Z</time></trkpt><trkpt lat="43.54423634606235" lon="10.525317147915157"><ele>38.0</ele><time>2026-04-06T09:59:14.999Z</time></trkpt><trkpt lat="43.544141188624394" lon="10.525364992743976"><ele>38.0</ele><time>2026-04-06T09:59:15.999Z</time></trkpt><trkpt lat="43.54405547163364" lon="10.525403452911123"><ele>38.0</ele><time>2026-04-06T09:59:16.999Z</time></trkpt><trkpt lat="43.543964233903225" lon="10.525441508093696"><ele>38.0</ele><time>2026-04-06T09:59:18.999Z</time></trkpt><trkpt lat="43.543886622130465" lon="10.525504802139366"><ele>38.0</ele><time>2026-04-06T09:59:25.999Z</time></trkpt><trkpt lat="43.54390823457807" lon="10.525668717061006"><ele>38.599999999999994</ele><time>2026-04-06T09:59:26.999Z</time></trkpt><trkpt lat="43.54391509934561" lon="10.525786347708364"><ele>39.199999999999996</ele><time>2026-04-06T09:59:27.999Z</time></trkpt><trkpt lat="43.5439273493441" lon="10.525917487942067"><ele>39.8</ele><time>2026-04-06T09:59:28.999Z</time></trkpt><trkpt lat="43.54394177349241" lon="10.526046527826107"><ele>40.4</ele><time>2026-04-06T09:59:29.999Z</time></trkpt><trkpt lat="43.54394214299916" lon="10.526179886970167"><ele>41.0</ele><time>2026-04-06T09:59:30.999Z</time></trkpt><trkpt lat="43.54391595484901" lon="10.526312520333951"><ele>41.0</ele><time>2026-04-06T09:59:31.999Z</time></trkpt><trkpt lat="43.543859314617684" lon="10.526426938391811"><ele>41.0</ele><time>2026-04-06T09:59:32.999Z</time></trkpt><trkpt lat="43.5437724593604" lon="10.526522262501839"><ele>41.0</ele><time>2026-04-06T09:59:33.999Z</time></trkpt><trkpt lat="43.543665240020836" lon="10.52659438395502"><ele>41.0</ele><time>2026-04-06T09:59:34.999Z</time></trkpt><trkpt lat="43.543538335690045" lon="10.5266498774455"><ele>41.0</ele><time>2026-04-06T09:59:35.999Z</time></trkpt><trkpt lat="43.543405627205864" lon="10.526703912668987"><ele>41.0</ele><time>2026-04-06T09:59:36.999Z</time></trkpt><trkpt lat="43.5432744328414" lon="10.526759911887012"><ele>41.0</ele><time>2026-04-06T09:59:37.999Z</time></trkpt><trkpt lat="43.543142034848145" lon="10.52682222312058"><ele>41.0</ele><time>2026-04-06T09:59:38.999Z</time></trkpt><trkpt lat="43.543013295662476" lon="10.526884320085438"><ele>41.0</ele><time>2026-04-06T09:59:39.999Z</time></trkpt><trkpt lat="43.54288154419692" lon="10.526947950604006"><ele>41.0</ele><time>2026-04-06T09:59:40.999Z</time></trkpt><trkpt lat="43.54274821549813" lon="10.52700725808366"><ele>41.0</ele><time>2026-04-06T09:59:41.999Z</time></trkpt><trkpt lat="43.5426160409378" lon="10.527055242762401"><ele>41.0</ele><time>2026-04-06T09:59:42.999Z</time></trkpt><trkpt lat="43.54248543056304" lon="10.52708608267706"><ele>41.25</ele><time>2026-04-06T09:59:43.999Z</time></trkpt><trkpt lat="43.5423507602334" lon="10.527098939787185"><ele>41.5</ele><time>2026-04-06T09:59:44.999Z</time></trkpt><trkpt lat="43.54221175686835" lon="10.527104454318616"><ele>41.75</ele><time>2026-04-06T09:59:45.999Z</time></trkpt><trkpt lat="43.542067538834374" lon="10.527107985689094"><ele>42.0</ele><time>2026-04-06T09:59:46.999Z</time></trkpt><trkpt lat="43.54192142466503" lon="10.527112035346393"><ele>42.666666666666664</ele><time>2026-04-06T09:59:47.999Z</time></trkpt><trkpt lat="43.54177044720076" lon="10.52708341000326"><ele>43.33333333333333</ele><time>2026-04-06T09:59:48.999Z</time></trkpt><trkpt lat="43.541618068693936" lon="10.527064608231077"><ele>44.0</ele><time>2026-04-06T09:59:49.999Z</time></trkpt><trkpt lat="43.541467927091695" lon="10.527036513271032"><ele>42.666666666666664</ele><time>2026-04-06T09:59:50.999Z</time></trkpt><trkpt lat="43.54131937545773" lon="10.526999650639242"><ele>41.333333333333336</ele><time>2026-04-06T09:59:51.999Z</time></trkpt><trkpt lat="43.541173446251804" lon="10.526961591775049"><ele>40.0</ele><time>2026-04-06T09:59:52.999Z</time></trkpt><trkpt lat="43.5410240602258" lon="10.52692263123174"><ele>40.0</ele><time>2026-04-06T09:59:53.999Z</time></trkpt><trkpt lat="43.540871159291434" lon="10.526900771691206"><ele>40.0</ele><time>2026-04-06T09:59:54.999Z</time></trkpt><trkpt lat="43.54071982524447" lon="10.526832884001614"><ele>40.0</ele><time>2026-04-06T09:59:55.999Z</time></trkpt><trkpt lat="43.54056563275819" lon="10.526809033839141"><ele>40.0</ele><time>2026-04-06T09:59:56.999Z</time></trkpt><trkpt lat="43.540409773314245" lon="10.526740638616975"><ele>40.0</ele><time>2026-04-06T09:59:57.999Z</time></trkpt><trkpt lat="43.54026048337019" lon="10.526683792958107"><ele>40.0</ele><time>2026-04-06T09:59:58.999Z</time></trkpt><trkpt lat="43.5401177324807" lon="10.526617263393328"><ele>40.75</ele><time>2026-04-06T09:59:59.999Z</time></trkpt><trkpt lat="43.53997651991406" lon="10.526551726456285"><ele>41.5</ele><time>2026-04-06T10:00:00.999Z</time></trkpt><trkpt lat="43.53983913356104" lon="10.52649050354463"><ele>42.25</ele><time>2026-04-06T10:00:01.999Z</time></trkpt><trkpt lat="43.53969950580386" lon="10.526433246371699"><ele>43.0</ele><time>2026-04-06T10:00:02.999Z</time></trkpt><trkpt lat="43.5395650311967" lon="10.526385978928806"><ele>42.75</ele><time>2026-04-06T10:00:03.999Z</time></trkpt><trkpt lat="43.53942936479176" lon="10.526353273726327"><ele>42.5</ele><time>2026-04-06T10:00:04.999Z</time></trkpt><trkpt lat="43.539288274118626" lon="10.526336613780947"><ele>42.25</ele><time>2026-04-06T10:00:05.999Z</time></trkpt><trkpt lat="43.53914418278543" lon="10.526340266331282"><ele>42.0</ele><time>2026-04-06T10:00:06.999Z</time></trkpt><trkpt lat="43.5389967691002" lon="10.52636057581417"><ele>42.0</ele><time>2026-04-06T10:00:07.999Z</time></trkpt><trkpt lat="43.538848426546025" lon="10.52638509649338"><ele>42.0</ele><time>2026-04-06T10:00:08.999Z</time></trkpt><trkpt lat="43.538694612951915" lon="10.526384808163511"><ele>42.0</ele><time>2026-04-06T10:00:09.999Z</time></trkpt><trkpt lat="43.538551556351514" lon="10.526438790223546"><ele>42.25</ele><time>2026-04-06T10:00:10.999Z</time></trkpt><trkpt lat="43.53841540104842" lon="10.526467644772072"><ele>42.5</ele><time>2026-04-06T10:00:11.999Z</time></trkpt><trkpt lat="43.538290524668845" lon="10.526494996687358"><ele>42.75</ele><time>2026-04-06T10:00:12.999Z</time></trkpt><trkpt lat="43.53818181340066" lon="10.526518720065216"><ele>43.0</ele><time>2026-04-06T10:00:13.999Z</time></trkpt><trkpt lat="43.538090726807134" lon="10.526532895930131"><ele>43.0</ele><time>2026-04-06T10:00:14.999Z</time></trkpt><trkpt lat="43.53801026269378" lon="10.526529995057855"><ele>43.0</ele><time>2026-04-06T10:00:15.999Z</time></trkpt><trkpt lat="43.5379138488113" lon="10.526522287907783"><ele>43.0</ele><time>2026-04-06T10:00:16.999Z</time></trkpt><trkpt lat="43.537796913612524" lon="10.526526124559567"><ele>43.0</ele><time>2026-04-06T10:00:17.999Z</time></trkpt><trkpt lat="43.53765869817033" lon="10.526532619938221"><ele>43.0</ele><time>2026-04-06T10:00:18.999Z</time></trkpt><trkpt lat="43.53750504777871" lon="10.52652754580421"><ele>42.333333333333336</ele><time>2026-04-06T10:00:19.999Z</time></trkpt><trkpt lat="43.53734368710877" lon="10.52651689280246"><ele>41.666666666666664</ele><time>2026-04-06T10:00:20.999Z</time></trkpt><trkpt lat="43.53717300755509" lon="10.526518632138579"><ele>41.0</ele><time>2026-04-06T10:00:21.999Z</time></trkpt><trkpt lat="43.536998377986784" lon="10.52656898290082"><ele>41.0</ele><time>2026-04-06T10:00:22.999Z</time></trkpt><trkpt lat="43.5368295354102" lon="10.526662582860256"><ele>41.0</ele><time>2026-04-06T10:00:23.999Z</time></trkpt><trkpt lat="43.53666514156458" lon="10.526786305899009"><ele>41.0</ele><time>2026-04-06T10:00:24.999Z</time></trkpt><trkpt lat="43.53650843152628" lon="10.526924111164073"><ele>41.0</ele><time>2026-04-06T10:00:25.999Z</time></trkpt><trkpt lat="43.53634706898966" lon="10.527056790221723"><ele>41.0</ele><time>2026-04-06T10:00:26.999Z</time></trkpt><trkpt lat="43.53617181753784" lon="10.527113566380729"><ele>41.0</ele><time>2026-04-06T10:00:27.998Z</time></trkpt><trkpt lat="43.53599405800619" lon="10.52712958314024"><ele>41.666666666666664</ele><time>2026-04-06T10:00:28.998Z</time></trkpt><trkpt lat="43.53581098268866" lon="10.527141556671028"><ele>42.333333333333336</ele><time>2026-04-06T10:00:30Z</time></trkpt><trkpt lat="43.53562676927475" lon="10.52717392647908"><ele>43.0</ele><time>2026-04-06T10:00:31Z</time></trkpt><trkpt lat="43.53543807789738" lon="10.527175081759038"><ele>42.66666666666667</ele><time>2026-04-06T10:00:32Z</time></trkpt><trkpt lat="43.535250621607254" lon="10.527185589975607"><ele>42.333333333333336</ele><time>2026-04-06T10:00:33Z</time></trkpt><trkpt lat="43.535060097600386" lon="10.527198867544358"><ele>42.0</ele><time>2026-04-06T10:00:34Z</time></trkpt><trkpt lat="43.534865700008616" lon="10.527215680600305"><ele>42.0</ele><time>2026-04-06T10:00:35Z</time></trkpt><trkpt lat="43.53466533988789" lon="10.527245447725694"><ele>42.0</ele><time>2026-04-06T10:00:36Z</time></trkpt><trkpt lat="43.53446788548119" lon="10.527294525997211"><ele>42.0</ele><time>2026-04-06T10:00:37Z</time></trkpt><trkpt lat="43.53425914319656" lon="10.527359192990108"><ele>42.333333333333336</ele><time>2026-04-06T10:00:38Z</time></trkpt><trkpt lat="43.53406810052283" lon="10.527426829630175"><ele>42.66666666666667</ele><time>2026-04-06T10:00:39Z</time></trkpt><trkpt lat="43.53387379045132" lon="10.527501193317956"><ele>43.0</ele><time>2026-04-06T10:00:40Z</time></trkpt><trkpt lat="43.53367813413571" lon="10.527571013063003"><ele>43.0</ele><time>2026-04-06T10:00:41Z</time></trkpt><trkpt lat="43.5334761211861" lon="10.527624601547085"><ele>43.0</ele><time>2026-04-06T10:00:42Z</time></trkpt><trkpt lat="43.53327287055295" lon="10.527651746031427"><ele>43.0</ele><time>2026-04-06T10:00:43Z</time></trkpt><trkpt lat="43.53306695835505" lon="10.527660109295278"><ele>43.0</ele><time>2026-04-06T10:00:44Z</time></trkpt><trkpt lat="43.53285039734473" lon="10.527663115087147"><ele>43.0</ele><time>2026-04-06T10:00:45Z</time></trkpt><trkpt lat="43.53262880133749" lon="10.527663614257488"><ele>43.0</ele><time>2026-04-06T10:00:46Z</time></trkpt><trkpt lat="43.532402714866635" lon="10.527672476803481"><ele>43.0</ele><time>2026-04-06T10:00:47Z</time></trkpt><trkpt lat="43.532175563810924" lon="10.527697026529035"><ele>43.0</ele><time>2026-04-06T10:00:48Z</time></trkpt><trkpt lat="43.53194533430193" lon="10.527727188986741"><ele>43.5</ele><time>2026-04-06T10:00:49Z</time></trkpt><trkpt lat="43.53171655447223" lon="10.527758626228719"><ele>44.0</ele><time>2026-04-06T10:00:50Z</time></trkpt><trkpt lat="43.531487634077116" lon="10.527789520469991"><ele>44.0</ele><time>2026-04-06T10:00:51Z</time></trkpt><trkpt lat="43.53126938523762" lon="10.52782062067771"><ele>44.0</ele><time>2026-04-06T10:00:52Z</time></trkpt><trkpt lat="43.53105474854469" lon="10.527852261109947"><ele>44.0</ele><time>2026-04-06T10:00:53Z</time></trkpt><trkpt lat="43.53085723316993" lon="10.52787152728788"><ele>44.0</ele><time>2026-04-06T10:00:54Z</time></trkpt><trkpt lat="43.530671827938875" lon="10.52787680132512"><ele>44.0</ele><time>2026-04-06T10:00:55Z</time></trkpt><trkpt lat="43.53049968759999" lon="10.527828345194134"><ele>44.0</ele><time>2026-04-06T10:00:56Z</time></trkpt><trkpt lat="43.53032085792409" lon="10.527772541878589"><ele>44.666666666666664</ele><time>2026-04-06T10:00:57Z</time></trkpt><trkpt lat="43.530126159318804" lon="10.527705010451363"><ele>45.333333333333336</ele><time>2026-04-06T10:00:58Z</time></trkpt><trkpt lat="43.52992647621345" lon="10.527655557710565"><ele>46.0</ele><time>2026-04-06T10:00:59Z</time></trkpt><trkpt lat="43.52972044912358" lon="10.527569265863345"><ele>46.0</ele><time>2026-04-06T10:01:00Z</time></trkpt><trkpt lat="43.529512182686375" lon="10.52750471508111"><ele>46.0</ele><time>2026-04-06T10:01:01Z</time></trkpt><trkpt lat="43.52929406471993" lon="10.527458418402782"><ele>46.0</ele><time>2026-04-06T10:01:02Z</time></trkpt><trkpt lat="43.529074233996894" lon="10.527429354948755"><ele>46.0</ele><time>2026-04-06T10:01:02.999Z</time></trkpt><trkpt lat="43.52884878970602" lon="10.527415160441768"><ele>46.0</ele><time>2026-04-06T10:01:03.999Z</time></trkpt><trkpt lat="43.52861703369532" lon="10.527408414377602"><ele>46.0</ele><time>2026-04-06T10:01:04.999Z</time></trkpt><trkpt lat="43.52838302008763" lon="10.527395505640857"><ele>46.0</ele><time>2026-04-06T10:01:05.999Z</time></trkpt><trkpt lat="43.52814262278877" lon="10.527382008736323"><ele>46.0</ele><time>2026-04-06T10:01:06.999Z</time></trkpt><trkpt lat="43.52790605560809" lon="10.527364830066213"><ele>46.0</ele><time>2026-04-06T10:01:07.999Z</time></trkpt><trkpt lat="43.52766449636803" lon="10.527345337344128"><ele>45.5</ele><time>2026-04-06T10:01:08.999Z</time></trkpt><trkpt lat="43.52742824901726" lon="10.527311909059259"><ele>45.0</ele><time>2026-04-06T10:01:09.999Z</time></trkpt><trkpt lat="43.527201546227715" lon="10.527251282835133"><ele>44.0</ele><time>2026-04-06T10:01:10.999Z</time></trkpt><trkpt lat="43.52697769569317" lon="10.527157693232358"><ele>43.0</ele><time>2026-04-06T10:01:11.999Z</time></trkpt><trkpt lat="43.52676117059136" lon="10.527038860368483"><ele>43.0</ele><time>2026-04-06T10:01:12.999Z</time></trkpt><trkpt lat="43.526549590041554" lon="10.526893176133328"><ele>43.0</ele><time>2026-04-06T10:01:13.999Z</time></trkpt><trkpt lat="43.52635864137493" lon="10.526705935940512"><ele>45.0</ele><time>2026-04-06T10:01:14.999Z</time></trkpt><trkpt lat="43.52617637881583" lon="10.526528707742594"><ele>47.0</ele><time>2026-04-06T10:01:15.999Z</time></trkpt><trkpt lat="43.52600895394512" lon="10.52636152021959"><ele>49.0</ele><time>2026-04-06T10:01:16.999Z</time></trkpt><trkpt lat="43.525852836904846" lon="10.526203881860914"><ele>49.0</ele><time>2026-04-06T10:01:17.999Z</time></trkpt><trkpt lat="43.52569892690697" lon="10.526076238244261"><ele>49.0</ele><time>2026-04-06T10:01:18.999Z</time></trkpt><trkpt lat="43.525572460051464" lon="10.525922677535311"><ele>49.0</ele><time>2026-04-06T10:01:19.999Z</time></trkpt><trkpt lat="43.525442314149146" lon="10.525792368171738"><ele>48.25</ele><time>2026-04-06T10:01:20.999Z</time></trkpt><trkpt lat="43.525328048283235" lon="10.525677958830036"><ele>47.5</ele><time>2026-04-06T10:01:21.999Z</time></trkpt><trkpt lat="43.525222763131644" lon="10.525572541465436"><ele>46.75</ele><time>2026-04-06T10:01:22.999Z</time></trkpt><trkpt lat="43.525121823563936" lon="10.525471475138042"><ele>46.0</ele><time>2026-04-06T10:01:23.999Z</time></trkpt><trkpt lat="43.52501098666499" lon="10.52536006980599"><ele>46.0</ele><time>2026-04-06T10:01:24.999Z</time></trkpt><trkpt lat="43.524893055138115" lon="10.525241257989837"><ele>46.0</ele><time>2026-04-06T10:01:25.999Z</time></trkpt><trkpt lat="43.524768315114315" lon="10.525115586836543"><ele>46.0</ele><time>2026-04-06T10:01:26.999Z</time></trkpt><trkpt lat="43.524650449146655" lon="10.524996841138604"><ele>46.0</ele><time>2026-04-06T10:01:27.999Z</time></trkpt><trkpt lat="43.52454712432804" lon="10.52489274571095"><ele>46.0</ele><time>2026-04-06T10:01:28.999Z</time></trkpt><trkpt lat="43.524468673744536" lon="10.524813710034048"><ele>46.0</ele><time>2026-04-06T10:01:29.999Z</time></trkpt><trkpt lat="43.5243727435532" lon="10.524761897841408"><ele>46.0</ele><time>2026-04-06T10:01:30.999Z</time></trkpt><trkpt lat="43.524279670917764" lon="10.524676375656535"><ele>46.0</ele><time>2026-04-06T10:01:31.999Z</time></trkpt><trkpt lat="43.524171816860836" lon="10.524591279886959"><ele>46.0</ele><time>2026-04-06T10:01:32.999Z</time></trkpt><trkpt lat="43.52404974662244" lon="10.524510176000415"><ele>46.0</ele><time>2026-04-06T10:01:33.999Z</time></trkpt><trkpt lat="43.52391471630063" lon="10.524436771845709"><ele>46.0</ele><time>2026-04-06T10:01:34.999Z</time></trkpt><trkpt lat="43.52376414245858" lon="10.524366342118714"><ele>46.0</ele><time>2026-04-06T10:01:35.999Z</time></trkpt><trkpt lat="43.52360701105881" lon="10.524291144721714"><ele>46.66666666666667</ele><time>2026-04-06T10:01:36.999Z</time></trkpt><trkpt lat="43.52343642539797" lon="10.524217169817891"><ele>47.333333333333336</ele><time>2026-04-06T10:01:37.999Z</time></trkpt><trkpt lat="43.52324992680574" lon="10.524144671188584"><ele>48.0</ele><time>2026-04-06T10:01:38.999Z</time></trkpt><trkpt lat="43.52305544205917" lon="10.524050765018249"><ele>47.666666666666664</ele><time>2026-04-06T10:01:39.999Z</time></trkpt><trkpt lat="43.52285244985829" lon="10.523943149487067"><ele>47.33333333333333</ele><time>2026-04-06T10:01:40.999Z</time></trkpt><trkpt lat="43.5226463402869" lon="10.523839560787719"><ele>47.0</ele><time>2026-04-06T10:01:41.999Z</time></trkpt><trkpt lat="43.522433359430536" lon="10.523735041106068"><ele>46.0</ele><time>2026-04-06T10:01:42.999Z</time></trkpt><trkpt lat="43.52221150364825" lon="10.52362912732136"><ele>45.0</ele><time>2026-04-06T10:01:43.999Z</time></trkpt><trkpt lat="43.521989971113165" lon="10.523527138834886"><ele>44.5</ele><time>2026-04-06T10:01:44.999Z</time></trkpt><trkpt lat="43.52176900080707" lon="10.523423366581214"><ele>44.0</ele><time>2026-04-06T10:01:45.999Z</time></trkpt><trkpt lat="43.521545295683914" lon="10.523317805136791"><ele>44.0</ele><time>2026-04-06T10:01:46.999Z</time></trkpt><trkpt lat="43.52132296240824" lon="10.523195910626999"><ele>44.0</ele><time>2026-04-06T10:01:47.999Z</time></trkpt><trkpt lat="43.52111252139985" lon="10.523046161903777"><ele>45.0</ele><time>2026-04-06T10:01:48.999Z</time></trkpt><trkpt lat="43.520904008952755" lon="10.522869532894898"><ele>46.0</ele><time>2026-04-06T10:01:49.999Z</time></trkpt><trkpt lat="43.52070306482209" lon="10.522685034769484"><ele>46.0</ele><time>2026-04-06T10:01:50.999Z</time></trkpt><trkpt lat="43.520501823622226" lon="10.52249472563591"><ele>46.0</ele><time>2026-04-06T10:01:51.999Z</time></trkpt><trkpt lat="43.52030014877367" lon="10.52230783678102"><ele>47.0</ele><time>2026-04-06T10:01:52.999Z</time></trkpt><trkpt lat="43.52009827737083" lon="10.52212246362608"><ele>48.0</ele><time>2026-04-06T10:01:53.999Z</time></trkpt><trkpt lat="43.5199006910226" lon="10.521942637790564"><ele>48.0</ele><time>2026-04-06T10:01:54.999Z</time></trkpt><trkpt lat="43.51970075868098" lon="10.521762767816474"><ele>48.0</ele><time>2026-04-06T10:01:55.999Z</time></trkpt><trkpt lat="43.51950641691218" lon="10.521583439787062"><ele>48.0</ele><time>2026-04-06T10:01:56.999Z</time></trkpt><trkpt lat="43.51931812957327" lon="10.521403688077418"><ele>48.0</ele><time>2026-04-06T10:01:57.999Z</time></trkpt><trkpt lat="43.51913216429109" lon="10.521229613797026"><ele>48.0</ele><time>2026-04-06T10:01:58.999Z</time></trkpt><trkpt lat="43.51895751409989" lon="10.521077151010392"><ele>48.0</ele><time>2026-04-06T10:01:59.999Z</time></trkpt><trkpt lat="43.51878928406816" lon="10.52094117715507"><ele>48.0</ele><time>2026-04-06T10:02:00.999Z</time></trkpt><trkpt lat="43.518618492846876" lon="10.520842672340642"><ele>51.0</ele><time>2026-04-06T10:02:01.999Z</time></trkpt><trkpt lat="43.5184335292026" lon="10.520780018931156"><ele>54.0</ele><time>2026-04-06T10:02:02.999Z</time></trkpt><trkpt lat="43.518244313518444" lon="10.520747499007147"><ele>57.0</ele><time>2026-04-06T10:02:03.999Z</time></trkpt><trkpt lat="43.51806017667016" lon="10.520736107661584"><ele>57.66666666666667</ele><time>2026-04-06T10:02:04.999Z</time></trkpt><trkpt lat="43.51789376729766" lon="10.520761887878788"><ele>58.333333333333336</ele><time>2026-04-06T10:02:05.999Z</time></trkpt><trkpt lat="43.517745406703085" lon="10.520843056644997"><ele>59.0</ele><time>2026-04-06T10:02:06.999Z</time></trkpt><trkpt lat="43.5176168491855" lon="10.52097143809744"><ele>59.0</ele><time>2026-04-06T10:02:07.999Z</time></trkpt><trkpt lat="43.51751846498762" lon="10.521126233604857"><ele>59.0</ele><time>2026-04-06T10:02:08.999Z</time></trkpt><trkpt lat="43.51743031647156" lon="10.52130482525376"><ele>59.0</ele><time>2026-04-06T10:02:09.999Z</time></trkpt><trkpt lat="43.5173429418066" lon="10.521484251495812"><ele>60.0</ele><time>2026-04-06T10:02:10.999Z</time></trkpt><trkpt lat="43.517243787635074" lon="10.521664672446565"><ele>61.0</ele><time>2026-04-06T10:02:11.999Z</time></trkpt><trkpt lat="43.517144294122986" lon="10.521840060538285"><ele>62.0</ele><time>2026-04-06T10:02:12.999Z</time></trkpt><trkpt lat="43.51704882764525" lon="10.522007337466313"><ele>64.25</ele><time>2026-04-06T10:02:13.999Z</time></trkpt><trkpt lat="43.51696154723734" lon="10.522154335408779"><ele>66.5</ele><time>2026-04-06T10:02:14.999Z</time></trkpt><trkpt lat="43.51687218730721" lon="10.52230870377234"><ele>68.75</ele><time>2026-04-06T10:02:15.999Z</time></trkpt><trkpt lat="43.51677966915615" lon="10.522467109860022"><ele>71.0</ele><time>2026-04-06T10:02:16.999Z</time></trkpt><trkpt lat="43.5166853766098" lon="10.522624164560579"><ele>71.0</ele><time>2026-04-06T10:02:17.999Z</time></trkpt><trkpt lat="43.516578658783615" lon="10.522766711165877"><ele>71.0</ele><time>2026-04-06T10:02:18.999Z</time></trkpt><trkpt lat="43.51644323465131" lon="10.522871113019898"><ele>71.0</ele><time>2026-04-06T10:02:19.999Z</time></trkpt><trkpt lat="43.51629342256433" lon="10.522939819161351"><ele>73.66666666666667</ele><time>2026-04-06T10:02:20.999Z</time></trkpt><trkpt lat="43.516138101681044" lon="10.522973110749666"><ele>76.33333333333333</ele><time>2026-04-06T10:02:21.999Z</time></trkpt><trkpt lat="43.515975401853964" lon="10.522973169451433"><ele>79.0</ele><time>2026-04-06T10:02:22.999Z</time></trkpt><trkpt lat="43.51580669384834" lon="10.522944152705364"><ele>79.33333333333333</ele><time>2026-04-06T10:02:23.999Z</time></trkpt><trkpt lat="43.51562977568687" lon="10.522867086521522"><ele>79.66666666666667</ele><time>2026-04-06T10:02:24.999Z</time></trkpt><trkpt lat="43.515446564993056" lon="10.522772863830985"><ele>80.0</ele><time>2026-04-06T10:02:25.999Z</time></trkpt><trkpt lat="43.5152550185261" lon="10.522672393528419"><ele>80.0</ele><time>2026-04-06T10:02:26.999Z</time></trkpt><trkpt lat="43.51505739239098" lon="10.522567099943576"><ele>80.0</ele><time>2026-04-06T10:02:27.999Z</time></trkpt><trkpt lat="43.51486095849266" lon="10.522461310432902"><ele>80.0</ele><time>2026-04-06T10:02:28.999Z</time></trkpt><trkpt lat="43.51467339189117" lon="10.52236540925538"><ele>80.66666666666667</ele><time>2026-04-06T10:02:29.999Z</time></trkpt><trkpt lat="43.51450076967901" lon="10.522283100227439"><ele>81.33333333333333</ele><time>2026-04-06T10:02:30.999Z</time></trkpt><trkpt lat="43.51434069004293" lon="10.522205615582351"><ele>82.0</ele><time>2026-04-06T10:02:31.999Z</time></trkpt><trkpt lat="43.51418645201397" lon="10.52212733438686"><ele>81.66666666666666</ele><time>2026-04-06T10:02:32.999Z</time></trkpt><trkpt lat="43.51403114483124" lon="10.522037850677178"><ele>81.33333333333333</ele><time>2026-04-06T10:02:33.999Z</time></trkpt><trkpt lat="43.51387406318162" lon="10.52193921585253"><ele>81.0</ele><time>2026-04-06T10:02:34.999Z</time></trkpt><trkpt lat="43.5137139056672" lon="10.521838926642744"><ele>83.33333333333333</ele><time>2026-04-06T10:02:36Z</time></trkpt><trkpt lat="43.51355889580441" lon="10.521716737173868"><ele>85.66666666666666</ele><time>2026-04-06T10:02:37Z</time></trkpt><trkpt lat="43.51339772646658" lon="10.521614139011119"><ele>88.0</ele><time>2026-04-06T10:02:38Z</time></trkpt><trkpt lat="43.51324259886436" lon="10.521515386903827"><ele>88.0</ele><time>2026-04-06T10:02:39Z</time></trkpt><trkpt lat="43.51309368895645" lon="10.521420592867658"><ele>88.0</ele><time>2026-04-06T10:02:40Z</time></trkpt><trkpt lat="43.512958331460695" lon="10.521336541859688"><ele>88.0</ele><time>2026-04-06T10:02:41Z</time></trkpt><trkpt lat="43.512810098217884" lon="10.52124495682988"><ele>88.33333333333333</ele><time>2026-04-06T10:02:42Z</time></trkpt><trkpt lat="43.51266368514264" lon="10.521154496362366"><ele>88.66666666666667</ele><time>2026-04-06T10:02:43Z</time></trkpt><trkpt lat="43.51251390999468" lon="10.521061958621914"><ele>89.0</ele><time>2026-04-06T10:02:44Z</time></trkpt><trkpt lat="43.512372603330604" lon="10.520955285668903"><ele>89.0</ele><time>2026-04-06T10:02:45Z</time></trkpt><trkpt lat="43.512233724694234" lon="10.520826590116913"><ele>89.0</ele><time>2026-04-06T10:02:46Z</time></trkpt><trkpt lat="43.51209504884745" lon="10.52068446854206"><ele>89.0</ele><time>2026-04-06T10:02:47Z</time></trkpt><trkpt lat="43.511963085322336" lon="10.520524221223374"><ele>88.0</ele><time>2026-04-06T10:02:48Z</time></trkpt><trkpt lat="43.51183489008392" lon="10.52037273069951"><ele>87.0</ele><time>2026-04-06T10:02:49Z</time></trkpt><trkpt lat="43.51170923523465" lon="10.520225564044656"><ele>86.0</ele><time>2026-04-06T10:02:50Z</time></trkpt><trkpt lat="43.51158400027987" lon="10.520080499001816"><ele>86.0</ele><time>2026-04-06T10:02:51Z</time></trkpt><trkpt lat="43.51145578141374" lon="10.519931977583655"><ele>86.0</ele><time>2026-04-06T10:02:52Z</time></trkpt><trkpt lat="43.51131400076564" lon="10.519764153873043"><ele>86.0</ele><time>2026-04-06T10:02:53Z</time></trkpt><trkpt lat="43.5111635923989" lon="10.51958528145228"><ele>86.66666666666667</ele><time>2026-04-06T10:02:54Z</time></trkpt><trkpt lat="43.51101030049102" lon="10.519403330629029"><ele>87.33333333333333</ele><time>2026-04-06T10:02:55Z</time></trkpt><trkpt lat="43.51084322101831" lon="10.519206790591555"><ele>88.0</ele><time>2026-04-06T10:02:56Z</time></trkpt><trkpt lat="43.51067232570825" lon="10.519009567735715"><ele>88.0</ele><time>2026-04-06T10:02:57Z</time></trkpt><trkpt lat="43.510493598923944" lon="10.51880170180291"><ele>88.0</ele><time>2026-04-06T10:02:58Z</time></trkpt><trkpt lat="43.51032784221487" lon="10.518606400484606"><ele>89.0</ele><time>2026-04-06T10:02:59Z</time></trkpt><trkpt lat="43.510164144213164" lon="10.518411830865563"><ele>90.0</ele><time>2026-04-06T10:03:00Z</time></trkpt><trkpt lat="43.510007142576626" lon="10.518220358781004"><ele>91.0</ele><time>2026-04-06T10:03:01Z</time></trkpt><trkpt lat="43.50987491706406" lon="10.518033487191866"><ele>90.33333333333333</ele><time>2026-04-06T10:03:02Z</time></trkpt><trkpt lat="43.509748199384845" lon="10.517842497892126"><ele>89.66666666666667</ele><time>2026-04-06T10:03:03Z</time></trkpt><trkpt lat="43.50963095077447" lon="10.517667137249285"><ele>89.0</ele><time>2026-04-06T10:03:04Z</time></trkpt><trkpt lat="43.50951031557832" lon="10.517517813815639"><ele>90.75</ele><time>2026-04-06T10:03:05Z</time></trkpt><trkpt lat="43.509413217951916" lon="10.517366613111939"><ele>92.5</ele><time>2026-04-06T10:03:06Z</time></trkpt><trkpt lat="43.50932171733638" lon="10.517225286663711"><ele>94.25</ele><time>2026-04-06T10:03:07Z</time></trkpt><trkpt lat="43.50922040325002" lon="10.51708120784382"><ele>96.0</ele><time>2026-04-06T10:03:08Z</time></trkpt><trkpt lat="43.50910280199172" lon="10.516953239649968"><ele>96.0</ele><time>2026-04-06T10:03:09Z</time></trkpt><trkpt lat="43.508967673211856" lon="10.51685762823593"><ele>96.0</ele><time>2026-04-06T10:03:10Z</time></trkpt><trkpt lat="43.50882396565924" lon="10.516775374172264"><ele>96.0</ele><time>2026-04-06T10:03:11Z</time></trkpt><trkpt lat="43.508678824522484" lon="10.516696884133093"><ele>97.25</ele><time>2026-04-06T10:03:12Z</time></trkpt><trkpt lat="43.50853722116906" lon="10.516618829818325"><ele>98.5</ele><time>2026-04-06T10:03:13Z</time></trkpt><trkpt lat="43.50839849411842" lon="10.516542401722464"><ele>99.75</ele><time>2026-04-06T10:03:14Z</time></trkpt><trkpt lat="43.50827968955823" lon="10.516427915932665"><ele>101.0</ele><time>2026-04-06T10:03:15Z</time></trkpt><trkpt lat="43.50817445608981" lon="10.516307147490938"><ele>102.0</ele><time>2026-04-06T10:03:15.999Z</time></trkpt><trkpt lat="43.50808112716155" lon="10.516162852717272"><ele>103.0</ele><time>2026-04-06T10:03:16.999Z</time></trkpt><trkpt lat="43.508010328547385" lon="10.51599631408773"><ele>104.0</ele><time>2026-04-06T10:03:17.999Z</time></trkpt><trkpt lat="43.507939451431206" lon="10.515817662764892"><ele>105.0</ele><time>2026-04-06T10:03:18.999Z</time></trkpt><trkpt lat="43.507865524555854" lon="10.515626737476465"><ele>103.66666666666666</ele><time>2026-04-06T10:03:19.999Z</time></trkpt><trkpt lat="43.50778720187914" lon="10.515426907011927"><ele>102.33333333333333</ele><time>2026-04-06T10:03:20.999Z</time></trkpt><trkpt lat="43.50769378825912" lon="10.515238141985826"><ele>101.0</ele><time>2026-04-06T10:03:21.999Z</time></trkpt><trkpt lat="43.50761111243916" lon="10.515045995642788"><ele>101.0</ele><time>2026-04-06T10:03:22.999Z</time></trkpt><trkpt lat="43.5075084047428" lon="10.51487561864306"><ele>101.0</ele><time>2026-04-06T10:03:23.999Z</time></trkpt><trkpt lat="43.50737584367846" lon="10.514741719149928"><ele>101.0</ele><time>2026-04-06T10:03:24.999Z</time></trkpt><trkpt lat="43.507215385654455" lon="10.51466035949785"><ele>101.33333333333333</ele><time>2026-04-06T10:03:25.999Z</time></trkpt><trkpt lat="43.50703572511771" lon="10.514623582437158"><ele>101.66666666666666</ele><time>2026-04-06T10:03:26.999Z</time></trkpt><trkpt lat="43.50684714619736" lon="10.514554576636726"><ele>102.0</ele><time>2026-04-06T10:03:27.999Z</time></trkpt><trkpt lat="43.50664353168415" lon="10.51450234591068"><ele>102.66666666666666</ele><time>2026-04-06T10:03:28.999Z</time></trkpt><trkpt lat="43.506426083318864" lon="10.514445128001027"><ele>103.33333333333333</ele><time>2026-04-06T10:03:29.999Z</time></trkpt><trkpt lat="43.50620201798294" lon="10.514386434616524"><ele>104.0</ele><time>2026-04-06T10:03:30.999Z</time></trkpt><trkpt lat="43.505968568092044" lon="10.514345154285849"><ele>104.0</ele><time>2026-04-06T10:03:31.999Z</time></trkpt><trkpt lat="43.50572679710547" lon="10.514279667954213"><ele>104.0</ele><time>2026-04-06T10:03:32.999Z</time></trkpt><trkpt lat="43.50547723204095" lon="10.514218813893203"><ele>103.5</ele><time>2026-04-06T10:03:33.999Z</time></trkpt><trkpt lat="43.50522299019051" lon="10.514156387721169"><ele>103.0</ele><time>2026-04-06T10:03:34.999Z</time></trkpt><trkpt lat="43.50497350589769" lon="10.514092982986055"><ele>103.0</ele><time>2026-04-06T10:03:35.999Z</time></trkpt><trkpt lat="43.50472798310721" lon="10.514026162294389"><ele>103.0</ele><time>2026-04-06T10:03:36.999Z</time></trkpt><trkpt lat="43.504487193180836" lon="10.513958507920194"><ele>103.5</ele><time>2026-04-06T10:03:37.999Z</time></trkpt><trkpt lat="43.50425435319193" lon="10.513894645401114"><ele>104.0</ele><time>2026-04-06T10:03:38.999Z</time></trkpt><trkpt lat="43.50402988337492" lon="10.51386016651219"><ele>104.0</ele><time>2026-04-06T10:03:39.999Z</time></trkpt><trkpt lat="43.50381439192877" lon="10.513874781790275"><ele>104.0</ele><time>2026-04-06T10:03:40.999Z</time></trkpt><trkpt lat="43.50360281772301" lon="10.513946974289913"><ele>104.0</ele><time>2026-04-06T10:03:41.999Z</time></trkpt><trkpt lat="43.503398756256324" lon="10.514063035515882"><ele>105.5</ele><time>2026-04-06T10:03:42.999Z</time></trkpt><trkpt lat="43.50319486176935" lon="10.51419890614289"><ele>107.0</ele><time>2026-04-06T10:03:43.999Z</time></trkpt><trkpt lat="43.50298453683412" lon="10.51433579751107"><ele>109.0</ele><time>2026-04-06T10:03:44.999Z</time></trkpt><trkpt lat="43.50276913715372" lon="10.514464779563834"><ele>111.0</ele><time>2026-04-06T10:03:45.999Z</time></trkpt><trkpt lat="43.50255230867361" lon="10.514591453001135"><ele>111.33333333333334</ele><time>2026-04-06T10:03:46.999Z</time></trkpt><trkpt lat="43.5023520880685" lon="10.51473068006322"><ele>111.66666666666667</ele><time>2026-04-06T10:03:47.999Z</time></trkpt><trkpt lat="43.50216835922697" lon="10.514907898763576"><ele>112.0</ele><time>2026-04-06T10:03:48.999Z</time></trkpt><trkpt lat="43.50199874789724" lon="10.515110982090937"><ele>109.5</ele><time>2026-04-06T10:03:49.999Z</time></trkpt><trkpt lat="43.50182432129397" lon="10.515316645453535"><ele>107.0</ele><time>2026-04-06T10:03:50.999Z</time></trkpt><trkpt lat="43.50164579663677" lon="10.515516757655142"><ele>107.0</ele><time>2026-04-06T10:03:51.999Z</time></trkpt><trkpt lat="43.501468412962815" lon="10.515717780259061"><ele>107.0</ele><time>2026-04-06T10:03:52.999Z</time></trkpt><trkpt lat="43.501291066050904" lon="10.51591816560387"><ele>108.66666666666666</ele><time>2026-04-06T10:03:53.999Z</time></trkpt><trkpt lat="43.5011183700388" lon="10.516113304154286"><ele>110.33333333333334</ele><time>2026-04-06T10:03:54.999Z</time></trkpt><trkpt lat="43.50095131942313" lon="10.51629301991229"><ele>112.0</ele><time>2026-04-06T10:03:55.999Z</time></trkpt><trkpt lat="43.50078907944623" lon="10.516435002388485"><ele>112.66666666666667</ele><time>2026-04-06T10:03:56.999Z</time></trkpt><trkpt lat="43.500621985810795" lon="10.516533724055705"><ele>113.33333333333334</ele><time>2026-04-06T10:03:57.999Z</time></trkpt><trkpt lat="43.500463939214434" lon="10.516584579912495"><ele>114.0</ele><time>2026-04-06T10:03:58.999Z</time></trkpt><trkpt lat="43.50031919280568" lon="10.516610888799715"><ele>114.0</ele><time>2026-04-06T10:03:59.999Z</time></trkpt><trkpt lat="43.50019428160178" lon="10.51665124384472"><ele>114.0</ele><time>2026-04-06T10:04:00.999Z</time></trkpt><trkpt lat="43.500086372163366" lon="10.51674676196415"><ele>114.0</ele><time>2026-04-06T10:04:01.999Z</time></trkpt><trkpt lat="43.499978338249804" lon="10.516890243413561"><ele>114.0</ele><time>2026-04-06T10:04:02.999Z</time></trkpt><trkpt lat="43.49987282047497" lon="10.517070225683447"><ele>114.66666666666666</ele><time>2026-04-06T10:04:03.999Z</time></trkpt><trkpt lat="43.499767880568776" lon="10.517252763437513"><ele>115.33333333333333</ele><time>2026-04-06T10:04:04.999Z</time></trkpt><trkpt lat="43.49964766969309" lon="10.517447179997694"><ele>116.0</ele><time>2026-04-06T10:04:05.999Z</time></trkpt><trkpt lat="43.499511843973124" lon="10.517633286583946"><ele>114.33333333333333</ele><time>2026-04-06T10:04:06.999Z</time></trkpt><trkpt lat="43.49935802184791" lon="10.517799308290385"><ele>112.66666666666666</ele><time>2026-04-06T10:04:07.999Z</time></trkpt><trkpt lat="43.49918237824935" lon="10.517939120178768"><ele>111.0</ele><time>2026-04-06T10:04:08.999Z</time></trkpt><trkpt lat="43.49899560701593" lon="10.518036452806456"><ele>111.0</ele><time>2026-04-06T10:04:09.999Z</time></trkpt><trkpt lat="43.49879686774472" lon="10.51805763003595"><ele>111.0</ele><time>2026-04-06T10:04:10.999Z</time></trkpt><trkpt lat="43.49860904888147" lon="10.518039631469842"><ele>111.0</ele><time>2026-04-06T10:04:11.999Z</time></trkpt><trkpt lat="43.498431097063595" lon="10.517973019285357"><ele>110.0</ele><time>2026-04-06T10:04:12.999Z</time></trkpt><trkpt lat="43.4982645566999" lon="10.517863335923488"><ele>109.0</ele><time>2026-04-06T10:04:13.999Z</time></trkpt><trkpt lat="43.49811209280311" lon="10.517710081261239"><ele>108.0</ele><time>2026-04-06T10:04:14.999Z</time></trkpt><trkpt lat="43.49794655360104" lon="10.517548292721902"><ele>109.33333333333334</ele><time>2026-04-06T10:04:15.999Z</time></trkpt><trkpt lat="43.49777288073332" lon="10.517388280751753"><ele>110.66666666666667</ele><time>2026-04-06T10:04:16.999Z</time></trkpt><trkpt lat="43.4975994388762" lon="10.517220924296558"><ele>112.0</ele><time>2026-04-06T10:04:17.999Z</time></trkpt><trkpt lat="43.497420553263694" lon="10.51705121583162"><ele>112.0</ele><time>2026-04-06T10:04:18.999Z</time></trkpt><trkpt lat="43.49724345914936" lon="10.516880531797552"><ele>112.0</ele><time>2026-04-06T10:04:19.999Z</time></trkpt><trkpt lat="43.49706598059679" lon="10.516712000875168"><ele>112.0</ele><time>2026-04-06T10:04:20.999Z</time></trkpt><trkpt lat="43.49688753841241" lon="10.516534839901754"><ele>113.66666666666667</ele><time>2026-04-06T10:04:21.999Z</time></trkpt><trkpt lat="43.496711425407284" lon="10.516360822172546"><ele>115.33333333333334</ele><time>2026-04-06T10:04:22.999Z</time></trkpt><trkpt lat="43.49653878868767" lon="10.516190607430108"><ele>117.0</ele><time>2026-04-06T10:04:23.999Z</time></trkpt><trkpt lat="43.49637286540109" lon="10.516024136824587"><ele>118.66666666666666</ele><time>2026-04-06T10:04:24.999Z</time></trkpt><trkpt lat="43.496209014661076" lon="10.515866433631448"><ele>120.33333333333333</ele><time>2026-04-06T10:04:25.999Z</time></trkpt><trkpt lat="43.49606006256408" lon="10.515713165108611"><ele>122.0</ele><time>2026-04-06T10:04:26.999Z</time></trkpt><trkpt lat="43.49595009198664" lon="10.515527241480465"><ele>122.0</ele><time>2026-04-06T10:04:27.999Z</time></trkpt><trkpt lat="43.49586400387323" lon="10.51533458129271"><ele>122.0</ele><time>2026-04-06T10:04:28.999Z</time></trkpt><trkpt lat="43.4958059050781" lon="10.515111367772828"><ele>122.0</ele><time>2026-04-06T10:04:29.999Z</time></trkpt><trkpt lat="43.49575618572313" lon="10.514887751203393"><ele>122.0</ele><time>2026-04-06T10:04:30.999Z</time></trkpt><trkpt lat="43.49570901508073" lon="10.51467218344039"><ele>122.0</ele><time>2026-04-06T10:04:31.999Z</time></trkpt><trkpt lat="43.495663651848105" lon="10.514464875012994"><ele>122.0</ele><time>2026-04-06T10:04:32.999Z</time></trkpt><trkpt lat="43.49561893350167" lon="10.514263512891516"><ele>122.0</ele><time>2026-04-06T10:04:33.999Z</time></trkpt><trkpt lat="43.49557682200377" lon="10.514069930500533"><ele>122.0</ele><time>2026-04-06T10:04:34.999Z</time></trkpt><trkpt lat="43.49553564351692" lon="10.513883366727129"><ele>122.0</ele><time>2026-04-06T10:04:35.999Z</time></trkpt><trkpt lat="43.49549533022852" lon="10.513700228922856"><ele>122.0</ele><time>2026-04-06T10:04:36.999Z</time></trkpt><trkpt lat="43.49545741287438" lon="10.513526165622336"><ele>121.8</ele><time>2026-04-06T10:04:37.999Z</time></trkpt><trkpt lat="43.495398238923634" lon="10.513371522590417"><ele>121.6</ele><time>2026-04-06T10:04:38.999Z</time></trkpt><trkpt lat="43.49536370736016" lon="10.513217145410266"><ele>121.39999999999999</ele><time>2026-04-06T10:04:39.999Z</time></trkpt><trkpt lat="43.49533390673713" lon="10.51307483127981"><ele>121.19999999999999</ele><time>2026-04-06T10:04:40.999Z</time></trkpt><trkpt lat="43.495306730639484" lon="10.512946081199154"><ele>121.0</ele><time>2026-04-06T10:04:42Z</time></trkpt><trkpt lat="43.49528258175252" lon="10.512827593605968"><ele>121.00000000000001</ele><time>2026-04-06T10:04:43Z</time></trkpt><trkpt lat="43.49525935308557" lon="10.512711716107608"><ele>121.0</ele><time>2026-04-06T10:04:44Z</time></trkpt><trkpt lat="43.4952539755756" lon="10.512597328812422"><ele>121.0</ele><time>2026-04-06T10:04:45Z</time></trkpt><trkpt lat="43.495230937981916" lon="10.51249242681993"><ele>121.0</ele><time>2026-04-06T10:04:46Z</time></trkpt><trkpt lat="43.49520800715389" lon="10.512388010962333"><ele>121.00000000000001</ele><time>2026-04-06T10:04:47Z</time></trkpt><trkpt lat="43.49518236476704" lon="10.512274628972017"><ele>121.0</ele><time>2026-04-06T10:04:48Z</time></trkpt><trkpt lat="43.49515554389086" lon="10.512157609111547"><ele>120.71428571428571</ele><time>2026-04-06T10:04:49Z</time></trkpt><trkpt lat="43.49511361821001" lon="10.51205346414795"><ele>120.42857142857142</ele><time>2026-04-06T10:04:50Z</time></trkpt><trkpt lat="43.49510321690855" lon="10.511952512711016"><ele>120.14285714285714</ele><time>2026-04-06T10:04:51Z</time></trkpt><trkpt lat="43.49506725184853" lon="10.511863314790507"><ele>119.85714285714286</ele><time>2026-04-06T10:04:52Z</time></trkpt><trkpt lat="43.49502581802356" lon="10.51178307055902"><ele>119.57142857142857</ele><time>2026-04-06T10:04:53Z</time></trkpt><trkpt lat="43.49498023022397" lon="10.51171150876444"><ele>119.28571428571428</ele><time>2026-04-06T10:04:54Z</time></trkpt><trkpt lat="43.49493591841263" lon="10.511642851574031"><ele>119.0</ele><time>2026-04-06T10:04:55Z</time></trkpt><trkpt lat="43.49489160837031" lon="10.511577287133619"><ele>119.0</ele><time>2026-04-06T10:04:56Z</time></trkpt><trkpt lat="43.49484660647624" lon="10.511510698961454"><ele>119.0</ele><time>2026-04-06T10:04:57Z</time></trkpt><trkpt lat="43.49478116557454" lon="10.511413908963664"><ele>119.0</ele><time>2026-04-06T10:04:59Z</time></trkpt><trkpt lat="43.49470103418315" lon="10.511297295992415"><ele>119.0</ele><time>2026-04-06T10:05:02Z</time></trkpt><trkpt lat="43.49464573386386" lon="10.511216818918097"><ele>119.0</ele><time>2026-04-06T10:05:03Z</time></trkpt><trkpt lat="43.494572826259734" lon="10.511110718570983"><ele>118.83333333333333</ele><time>2026-04-06T10:05:04Z</time></trkpt><trkpt lat="43.49450227817116" lon="10.511008052030853"><ele>118.66666666666666</ele><time>2026-04-06T10:05:05Z</time></trkpt><trkpt lat="43.49443555259383" lon="10.510911282674114"><ele>118.5</ele><time>2026-04-06T10:05:06Z</time></trkpt><trkpt lat="43.49438270725958" lon="10.51083516662553"><ele>118.33333333333334</ele><time>2026-04-06T10:05:07Z</time></trkpt><trkpt lat="43.49431873211936" lon="10.51074704623731"><ele>118.16666666666667</ele><time>2026-04-06T10:05:09Z</time></trkpt><trkpt lat="43.49426494471814" lon="10.510674477767271"><ele>118.0</ele><time>2026-04-06T10:05:12Z</time></trkpt><trkpt lat="43.49420785114159" lon="10.51059904578359"><ele>118.00000000000001</ele><time>2026-04-06T10:05:15Z</time></trkpt><trkpt lat="43.49415815819612" lon="10.510539986835129"><ele>118.0</ele><time>2026-04-06T10:05:20Z</time></trkpt><trkpt lat="43.494030432340246" lon="10.510586952033554"><ele>118.0</ele><time>2026-04-06T10:05:22.999Z</time></trkpt><trkpt lat="43.493963127387616" lon="10.510628458036551"><ele>118.0</ele><time>2026-04-06T10:05:23.999Z</time></trkpt><trkpt lat="43.4938905158632" lon="10.510678089049282"><ele>118.00000000000001</ele><time>2026-04-06T10:05:24.999Z</time></trkpt><trkpt lat="43.49381720412968" lon="10.51071479153624"><ele>118.0</ele><time>2026-04-06T10:05:25.999Z</time></trkpt><trkpt lat="43.4937505320838" lon="10.510724708949237"><ele>117.2</ele><time>2026-04-06T10:05:26.999Z</time></trkpt><trkpt lat="43.49368005961563" lon="10.510725543992052"><ele>116.4</ele><time>2026-04-06T10:05:30.999Z</time></trkpt><trkpt lat="43.49357405740851" lon="10.510711190601437"><ele>115.60000000000001</ele><time>2026-04-06T10:05:33.999Z</time></trkpt><trkpt lat="43.49345300124191" lon="10.510702264006708"><ele>114.80000000000001</ele><time>2026-04-06T10:05:35.999Z</time></trkpt><trkpt lat="43.49337713279003" lon="10.510702539188651"><ele>114.0</ele><time>2026-04-06T10:05:36.999Z</time></trkpt><trkpt lat="43.49329691563738" lon="10.510697691079297"><ele>114.0</ele><time>2026-04-06T10:05:37.999Z</time></trkpt><trkpt lat="43.493206398007594" lon="10.510687649629316"><ele>114.0</ele><time>2026-04-06T10:05:38.999Z</time></trkpt><trkpt lat="43.493136657685916" lon="10.510692031999781"><ele>114.0</ele><time>2026-04-06T10:05:39.999Z</time></trkpt><trkpt lat="43.49307167801652" lon="10.510687614152625"><ele>114.0</ele><time>2026-04-06T10:05:40.999Z</time></trkpt><trkpt lat="43.492959238273905" lon="10.510662870471059"><ele>114.0</ele><time>2026-04-06T10:05:42.999Z</time></trkpt><trkpt lat="43.49290055652706" lon="10.51060118878724"><ele>114.0</ele><time>2026-04-06T10:05:43.999Z</time></trkpt><trkpt lat="43.49283964143358" lon="10.510372218960232"><ele>112.4</ele><time>2026-04-06T10:05:45.999Z</time></trkpt><trkpt lat="43.49282198761383" lon="10.51024474156003"><ele>110.80000000000001</ele><time>2026-04-06T10:05:46.999Z</time></trkpt><trkpt lat="43.49279143965999" lon="10.510111880599123"><ele>109.19999999999999</ele><time>2026-04-06T10:05:47.999Z</time></trkpt><trkpt lat="43.49274793296877" lon="10.5099713252099"><ele>107.6</ele><time>2026-04-06T10:05:48.999Z</time></trkpt><trkpt lat="43.49268801647124" lon="10.509827324672797"><ele>106.0</ele><time>2026-04-06T10:05:49.999Z</time></trkpt><trkpt lat="43.492619263272246" lon="10.509682568569742"><ele>103.6</ele><time>2026-04-06T10:05:50.999Z</time></trkpt><trkpt lat="43.49254892534194" lon="10.50954884063775"><ele>101.19999999999999</ele><time>2026-04-06T10:05:51.999Z</time></trkpt><trkpt lat="43.49247912273134" lon="10.509423901527466"><ele>98.80000000000001</ele><time>2026-04-06T10:05:52.999Z</time></trkpt><trkpt lat="43.492408993177285" lon="10.509315476428839"><ele>96.4</ele><time>2026-04-06T10:05:53.999Z</time></trkpt><trkpt lat="43.49234351591952" lon="10.509214041776005"><ele>94.0</ele><time>2026-04-06T10:05:54.999Z</time></trkpt><trkpt lat="43.492268676172635" lon="10.509142599461008"><ele>94.0</ele><time>2026-04-06T10:05:55.999Z</time></trkpt><trkpt lat="43.49218894151741" lon="10.50906051144358"><ele>94.0</ele><time>2026-04-06T10:05:56.999Z</time></trkpt><trkpt lat="43.49214612229465" lon="10.508881835278627"><ele>94.0</ele><time>2026-04-06T10:05:57.999Z</time></trkpt><trkpt lat="43.49206572877267" lon="10.508765077948446"><ele>94.0</ele><time>2026-04-06T10:05:58.999Z</time></trkpt><trkpt lat="43.49196483343909" lon="10.508683791992997"><ele>93.0</ele><time>2026-04-06T10:05:59.999Z</time></trkpt><trkpt lat="43.491854586606436" lon="10.508648155340747"><ele>92.0</ele><time>2026-04-06T10:06:00.999Z</time></trkpt><trkpt lat="43.491741049047086" lon="10.508670709111394"><ele>91.0</ele><time>2026-04-06T10:06:01.999Z</time></trkpt><trkpt lat="43.49164137828127" lon="10.508744609365518"><ele>90.0</ele><time>2026-04-06T10:06:02.999Z</time></trkpt><trkpt lat="43.4915635009733" lon="10.508842439027214"><ele>89.0</ele><time>2026-04-06T10:06:03.999Z</time></trkpt><trkpt lat="43.49149432587288" lon="10.508928000365083"><ele>89.0</ele><time>2026-04-06T10:06:04.999Z</time></trkpt><trkpt lat="43.4913565048784" lon="10.50886351899132"><ele>89.0</ele><time>2026-04-06T10:06:06.999Z</time></trkpt><trkpt lat="43.491285079682484" lon="10.508751044725798"><ele>89.0</ele><time>2026-04-06T10:06:07.999Z</time></trkpt><trkpt lat="43.491199698915416" lon="10.508616435463138"><ele>89.0</ele><time>2026-04-06T10:06:08.999Z</time></trkpt><trkpt lat="43.49110030346086" lon="10.508457552764831"><ele>87.0</ele><time>2026-04-06T10:06:09.999Z</time></trkpt><trkpt lat="43.49099609861259" lon="10.508290982276174"><ele>85.0</ele><time>2026-04-06T10:06:10.999Z</time></trkpt><trkpt lat="43.49087978003441" lon="10.508105048084667"><ele>83.0</ele><time>2026-04-06T10:06:11.999Z</time></trkpt><trkpt lat="43.49075293601139" lon="10.507903898921466"><ele>83.0</ele><time>2026-04-06T10:06:12.999Z</time></trkpt><trkpt lat="43.49061891519285" lon="10.50769278893765"><ele>83.0</ele><time>2026-04-06T10:06:13.999Z</time></trkpt><trkpt lat="43.49048111485166" lon="10.507476290217367"><ele>83.0</ele><time>2026-04-06T10:06:14.999Z</time></trkpt><trkpt lat="43.490337819452876" lon="10.507248553754605"><ele>85.0</ele><time>2026-04-06T10:06:15.999Z</time></trkpt><trkpt lat="43.49019223860033" lon="10.507016920958048"><ele>87.0</ele><time>2026-04-06T10:06:16.999Z</time></trkpt><trkpt lat="43.49005550243622" lon="10.506798911327113"><ele>89.0</ele><time>2026-04-06T10:06:17.999Z</time></trkpt><trkpt lat="43.489933326841296" lon="10.506603948134918"><ele>89.0</ele><time>2026-04-06T10:06:18.999Z</time></trkpt><trkpt lat="43.48982306154249" lon="10.506427957383675"><ele>89.0</ele><time>2026-04-06T10:06:19.999Z</time></trkpt><trkpt lat="43.48971320975611" lon="10.506254057589315"><ele>89.0</ele><time>2026-04-06T10:06:20.999Z</time></trkpt><trkpt lat="43.489593152414265" lon="10.506096970155344"><ele>93.0</ele><time>2026-04-06T10:06:21.999Z</time></trkpt><trkpt lat="43.48949082117867" lon="10.505926759532402"><ele>97.0</ele><time>2026-04-06T10:06:22.999Z</time></trkpt><trkpt lat="43.4893940478476" lon="10.505769586540154"><ele>101.0</ele><time>2026-04-06T10:06:23.999Z</time></trkpt><trkpt lat="43.48930131633833" lon="10.505619040537216"><ele>101.0</ele><time>2026-04-06T10:06:24.999Z</time></trkpt><trkpt lat="43.48920680175074" lon="10.50547548890698"><ele>101.0</ele><time>2026-04-06T10:06:25.999Z</time></trkpt><trkpt lat="43.48910100676948" lon="10.50533636843588"><ele>101.0</ele><time>2026-04-06T10:06:26.999Z</time></trkpt><trkpt lat="43.488973049348125" lon="10.505219332653615"><ele>101.0</ele><time>2026-04-06T10:06:27.999Z</time></trkpt><trkpt lat="43.48883660790366" lon="10.50512021447733"><ele>102.0</ele><time>2026-04-06T10:06:28.999Z</time></trkpt><trkpt lat="43.488694961509765" lon="10.505024663682018"><ele>103.0</ele><time>2026-04-06T10:06:29.999Z</time></trkpt><trkpt lat="43.488549528970985" lon="10.504940706605131"><ele>104.0</ele><time>2026-04-06T10:06:30.999Z</time></trkpt><trkpt lat="43.48842171928717" lon="10.504868342869479"><ele>104.0</ele><time>2026-04-06T10:06:31.999Z</time></trkpt><trkpt lat="43.48830042053811" lon="10.504809633140246"><ele>104.0</ele><time>2026-04-06T10:06:32.999Z</time></trkpt><trkpt lat="43.488179056762824" lon="10.504745467280818"><ele>104.0</ele><time>2026-04-06T10:06:33.999Z</time></trkpt><trkpt lat="43.48805791297868" lon="10.504682110901006"><ele>104.0</ele><time>2026-04-06T10:06:34.999Z</time></trkpt><trkpt lat="43.4879355496452" lon="10.504612530071407"><ele>104.0</ele><time>2026-04-06T10:06:35.999Z</time></trkpt><trkpt lat="43.487812118622216" lon="10.504547467506379"><ele>104.0</ele><time>2026-04-06T10:06:36.999Z</time></trkpt><trkpt lat="43.48768270803271" lon="10.504484244088431"><ele>104.0</ele><time>2026-04-06T10:06:37.999Z</time></trkpt><trkpt lat="43.487551884718734" lon="10.5044188099108"><ele>104.0</ele><time>2026-04-06T10:06:38.999Z</time></trkpt><trkpt lat="43.48742044014098" lon="10.504349420295297"><ele>104.0</ele><time>2026-04-06T10:06:39.999Z</time></trkpt><trkpt lat="43.48728934383931" lon="10.504280056177953"><ele>104.0</ele><time>2026-04-06T10:06:40.999Z</time></trkpt><trkpt lat="43.4871592276682" lon="10.504210619367747"><ele>104.0</ele><time>2026-04-06T10:06:41.999Z</time></trkpt><trkpt lat="43.48703525947787" lon="10.50414740396876"><ele>104.0</ele><time>2026-04-06T10:06:42.999Z</time></trkpt><trkpt lat="43.486915151538284" lon="10.504084610831308"><ele>106.0</ele><time>2026-04-06T10:06:43.999Z</time></trkpt><trkpt lat="43.48679704229881" lon="10.504019421495837"><ele>108.0</ele><time>2026-04-06T10:06:44.999Z</time></trkpt><trkpt lat="43.486675651282034" lon="10.503953408112919"><ele>110.0</ele><time>2026-04-06T10:06:45.999Z</time></trkpt><trkpt lat="43.486554918319754" lon="10.503888198549525"><ele>112.0</ele><time>2026-04-06T10:06:46.999Z</time></trkpt><trkpt lat="43.4864384039574" lon="10.50383390082318"><ele>112.0</ele><time>2026-04-06T10:06:48Z</time></trkpt><trkpt lat="43.48633048953859" lon="10.503790510066043"><ele>111.99999999999999</ele><time>2026-04-06T10:06:49Z</time></trkpt><trkpt lat="43.48621960375914" lon="10.503760020854013"><ele>111.99999999999999</ele><time>2026-04-06T10:06:50Z</time></trkpt><trkpt lat="43.486105615907114" lon="10.503737669075727"><ele>112.0</ele><time>2026-04-06T10:06:51Z</time></trkpt><trkpt lat="43.486015804870995" lon="10.503731536611909"><ele>112.0</ele><time>2026-04-06T10:06:52Z</time></trkpt><trkpt lat="43.485943178723396" lon="10.503729444213656"><ele>112.19999999999999</ele><time>2026-04-06T10:06:53Z</time></trkpt><trkpt lat="43.485869241272326" lon="10.503736618278781"><ele>112.39999999999999</ele><time>2026-04-06T10:06:54Z</time></trkpt><trkpt lat="43.485778282845345" lon="10.503739379153243"><ele>112.60000000000001</ele><time>2026-04-06T10:06:55Z</time></trkpt><trkpt lat="43.485679105742875" lon="10.503753392588324"><ele>112.80000000000001</ele><time>2026-04-06T10:06:56Z</time></trkpt><trkpt lat="43.485581080460825" lon="10.503777110865583"><ele>113.0</ele><time>2026-04-06T10:06:57Z</time></trkpt><trkpt lat="43.485479857006396" lon="10.503807202684573"><ele>113.75</ele><time>2026-04-06T10:06:58Z</time></trkpt><trkpt lat="43.48537293319892" lon="10.503858592660194"><ele>114.5</ele><time>2026-04-06T10:06:59Z</time></trkpt><trkpt lat="43.48526702749443" lon="10.503916475275528"><ele>115.25</ele><time>2026-04-06T10:07:00Z</time></trkpt><trkpt lat="43.48515754348089" lon="10.50398245704875"><ele>116.0</ele><time>2026-04-06T10:07:01Z</time></trkpt><trkpt lat="43.4850440233479" lon="10.50405453040368"><ele>116.0</ele><time>2026-04-06T10:07:02Z</time></trkpt><trkpt lat="43.48493429077663" lon="10.504125526399049"><ele>116.0</ele><time>2026-04-06T10:07:03Z</time></trkpt><trkpt lat="43.48482191240263" lon="10.504197625457032"><ele>116.0</ele><time>2026-04-06T10:07:04Z</time></trkpt><trkpt lat="43.48470629415182" lon="10.504274143869115"><ele>116.0</ele><time>2026-04-06T10:07:05Z</time></trkpt><trkpt lat="43.48458603210585" lon="10.504349603093086"><ele>115.75</ele><time>2026-04-06T10:07:06Z</time></trkpt><trkpt lat="43.48445770155382" lon="10.504423511530334"><ele>115.5</ele><time>2026-04-06T10:07:07Z</time></trkpt><trkpt lat="43.48432213914219" lon="10.504502892032491"><ele>115.25</ele><time>2026-04-06T10:07:08Z</time></trkpt><trkpt lat="43.484185183071546" lon="10.504592013847462"><ele>115.0</ele><time>2026-04-06T10:07:09Z</time></trkpt><trkpt lat="43.484043224729604" lon="10.504686687480339"><ele>115.66666666666667</ele><time>2026-04-06T10:07:10Z</time></trkpt><trkpt lat="43.48389290847554" lon="10.504782410011199"><ele>116.33333333333334</ele><time>2026-04-06T10:07:11Z</time></trkpt><trkpt lat="43.48373812720278" lon="10.504881787368259"><ele>117.0</ele><time>2026-04-06T10:07:12Z</time></trkpt><trkpt lat="43.4835837331025" lon="10.504982208410352"><ele>117.0</ele><time>2026-04-06T10:07:13Z</time></trkpt><trkpt lat="43.48341897656734" lon="10.505066837926746"><ele>117.0</ele><time>2026-04-06T10:07:14Z</time></trkpt><trkpt lat="43.4832411166596" lon="10.505139862022496"><ele>117.0</ele><time>2026-04-06T10:07:15Z</time></trkpt><trkpt lat="43.48306083403778" lon="10.505189022007183"><ele>113.66666666666666</ele><time>2026-04-06T10:07:16Z</time></trkpt><trkpt lat="43.482877693003154" lon="10.505215579476893"><ele>110.33333333333333</ele><time>2026-04-06T10:07:17Z</time></trkpt><trkpt lat="43.48268383628257" lon="10.50521881974232"><ele>107.0</ele><time>2026-04-06T10:07:18Z</time></trkpt><trkpt lat="43.482484660543456" lon="10.505157219806456"><ele>107.0</ele><time>2026-04-06T10:07:19Z</time></trkpt><trkpt lat="43.482269322963695" lon="10.50510193484954"><ele>107.0</ele><time>2026-04-06T10:07:20Z</time></trkpt><trkpt lat="43.482038174397694" lon="10.505042777443126"><ele>103.0</ele><time>2026-04-06T10:07:21Z</time></trkpt><trkpt lat="43.48179931932794" lon="10.504981647723778"><ele>99.0</ele><time>2026-04-06T10:07:22Z</time></trkpt><trkpt lat="43.48154650200344" lon="10.504919652879842"><ele>99.0</ele><time>2026-04-06T10:07:23Z</time></trkpt><trkpt lat="43.48128934511206" lon="10.50485711406353"><ele>99.0</ele><time>2026-04-06T10:07:24Z</time></trkpt><trkpt lat="43.48102809641289" lon="10.504794112672911"><ele>95.5</ele><time>2026-04-06T10:07:25Z</time></trkpt><trkpt lat="43.480761945258735" lon="10.504730726124183"><ele>92.0</ele><time>2026-04-06T10:07:26Z</time></trkpt><trkpt lat="43.48048928938267" lon="10.504667940591553"><ele>91.0</ele><time>2026-04-06T10:07:27Z</time></trkpt><trkpt lat="43.48022018945895" lon="10.504605607195426"><ele>90.0</ele><time>2026-04-06T10:07:27.999Z</time></trkpt><trkpt lat="43.479956260745936" lon="10.504544471183639"><ele>90.0</ele><time>2026-04-06T10:07:28.999Z</time></trkpt><trkpt lat="43.47969964970163" lon="10.504485021672018"><ele>90.0</ele><time>2026-04-06T10:07:29.999Z</time></trkpt><trkpt lat="43.47944527147657" lon="10.504426089455373"><ele>88.0</ele><time>2026-04-06T10:07:30.999Z</time></trkpt><trkpt lat="43.47919436742534" lon="10.504367962146581"><ele>86.0</ele><time>2026-04-06T10:07:31.999Z</time></trkpt><trkpt lat="43.47894463369285" lon="10.504309929593202"><ele>84.5</ele><time>2026-04-06T10:07:32.999Z</time></trkpt><trkpt lat="43.47870268909725" lon="10.504253489571616"><ele>83.0</ele><time>2026-04-06T10:07:33.999Z</time></trkpt><trkpt lat="43.47846477353402" lon="10.504197989373951"><ele>83.0</ele><time>2026-04-06T10:07:34.999Z</time></trkpt><trkpt lat="43.47822829856219" lon="10.504162027051255"><ele>83.0</ele><time>2026-04-06T10:07:35.999Z</time></trkpt><trkpt lat="43.47799343565357" lon="10.504102835714615"><ele>83.0</ele><time>2026-04-06T10:07:36.999Z</time></trkpt><trkpt lat="43.47775956199045" lon="10.504052114109973"><ele>83.0</ele><time>2026-04-06T10:07:37.999Z</time></trkpt><trkpt lat="43.47753908653953" lon="10.503979872247685"><ele>83.0</ele><time>2026-04-06T10:07:38.999Z</time></trkpt><trkpt lat="43.477329646654454" lon="10.503912215302943"><ele>83.0</ele><time>2026-04-06T10:07:39.999Z</time></trkpt><trkpt lat="43.47713753339221" lon="10.503790118141934"><ele>83.0</ele><time>2026-04-06T10:07:40.999Z</time></trkpt><trkpt lat="43.476967709043656" lon="10.503615480839109"><ele>82.33333333333334</ele><time>2026-04-06T10:07:41.999Z</time></trkpt><trkpt lat="43.47684088074682" lon="10.503386119911042"><ele>81.66666666666667</ele><time>2026-04-06T10:07:42.999Z</time></trkpt><trkpt lat="43.476729938899304" lon="10.503129231923735"><ele>81.0</ele><time>2026-04-06T10:07:43.999Z</time></trkpt><trkpt lat="43.47661919631405" lon="10.502866273163253"><ele>81.0</ele><time>2026-04-06T10:07:44.999Z</time></trkpt><trkpt lat="43.476503023856885" lon="10.502612751555105"><ele>81.0</ele><time>2026-04-06T10:07:45.999Z</time></trkpt><trkpt lat="43.47639262014102" lon="10.502355524925973"><ele>81.0</ele><time>2026-04-06T10:07:46.999Z</time></trkpt><trkpt lat="43.47628627220976" lon="10.502105128201292"><ele>82.33333333333333</ele><time>2026-04-06T10:07:47.999Z</time></trkpt><trkpt lat="43.47619929609817" lon="10.501851952478859"><ele>83.66666666666666</ele><time>2026-04-06T10:07:48.999Z</time></trkpt><trkpt lat="43.476105003905445" lon="10.501623635905657"><ele>85.0</ele><time>2026-04-06T10:07:49.999Z</time></trkpt><trkpt lat="43.47601648478288" lon="10.501409297026854"><ele>84.0</ele><time>2026-04-06T10:07:50.999Z</time></trkpt><trkpt lat="43.47593090008896" lon="10.501202063543456"><ele>83.0</ele><time>2026-04-06T10:07:51.999Z</time></trkpt><trkpt lat="43.47584811357001" lon="10.501001605450032"><ele>82.0</ele><time>2026-04-06T10:07:52.999Z</time></trkpt><trkpt lat="43.47576068192388" lon="10.50078990235643"><ele>82.0</ele><time>2026-04-06T10:07:53.999Z</time></trkpt><trkpt lat="43.47565668482837" lon="10.50058815870855"><ele>82.0</ele><time>2026-04-06T10:07:54.999Z</time></trkpt><trkpt lat="43.475566646513975" lon="10.50037744125061"><ele>82.0</ele><time>2026-04-06T10:07:55.999Z</time></trkpt><trkpt lat="43.47547207249576" lon="10.500161900661466"><ele>81.33333333333333</ele><time>2026-04-06T10:07:56.999Z</time></trkpt><trkpt lat="43.47537830312077" lon="10.499944581382843"><ele>80.66666666666667</ele><time>2026-04-06T10:07:57.999Z</time></trkpt><trkpt lat="43.475290770774954" lon="10.499740438273442"><ele>80.0</ele><time>2026-04-06T10:07:58.999Z</time></trkpt><trkpt lat="43.4752355772901" lon="10.49951848831084"><ele>79.66666666666667</ele><time>2026-04-06T10:07:59.999Z</time></trkpt><trkpt lat="43.475153649866485" lon="10.4993222776405"><ele>79.33333333333333</ele><time>2026-04-06T10:08:00.999Z</time></trkpt><trkpt lat="43.47506715580084" lon="10.499123698358556"><ele>79.0</ele><time>2026-04-06T10:08:01.999Z</time></trkpt><trkpt lat="43.47497151957498" lon="10.49892134933569"><ele>77.66666666666666</ele><time>2026-04-06T10:08:02.999Z</time></trkpt><trkpt lat="43.47486713849661" lon="10.498719927927514"><ele>76.33333333333333</ele><time>2026-04-06T10:08:03.999Z</time></trkpt><trkpt lat="43.474756948237584" lon="10.498527322030323"><ele>75.0</ele><time>2026-04-06T10:08:04.999Z</time></trkpt><trkpt lat="43.47464160999923" lon="10.498347860604316"><ele>74.0</ele><time>2026-04-06T10:08:05.999Z</time></trkpt><trkpt lat="43.4745173597826" lon="10.498183887863602"><ele>73.0</ele><time>2026-04-06T10:08:06.999Z</time></trkpt><trkpt lat="43.47438047080065" lon="10.498035672679132"><ele>72.0</ele><time>2026-04-06T10:08:07.999Z</time></trkpt><trkpt lat="43.47422851566933" lon="10.49790540047222"><ele>70.33333333333333</ele><time>2026-04-06T10:08:08.999Z</time></trkpt><trkpt lat="43.474092207061" lon="10.497736668228837"><ele>68.66666666666666</ele><time>2026-04-06T10:08:09.999Z</time></trkpt><trkpt lat="43.4739476140249" lon="10.497586687666974"><ele>67.0</ele><time>2026-04-06T10:08:10.999Z</time></trkpt><trkpt lat="43.47380339569809" lon="10.497436109765594"><ele>67.0</ele><time>2026-04-06T10:08:11.999Z</time></trkpt><trkpt lat="43.47366077688649" lon="10.497286905162213"><ele>67.0</ele><time>2026-04-06T10:08:12.999Z</time></trkpt><trkpt lat="43.473522587043824" lon="10.497142334052668"><ele>67.0</ele><time>2026-04-06T10:08:13.999Z</time></trkpt><trkpt lat="43.47338779622047" lon="10.497001318778532"><ele>64.66666666666666</ele><time>2026-04-06T10:08:14.999Z</time></trkpt><trkpt lat="43.47324884930733" lon="10.496856153844071"><ele>62.33333333333333</ele><time>2026-04-06T10:08:15.999Z</time></trkpt><trkpt lat="43.47310337710994" lon="10.496704295746593"><ele>60.0</ele><time>2026-04-06T10:08:16.999Z</time></trkpt><trkpt lat="43.47295388503477" lon="10.49654481261319"><ele>59.66666666666667</ele><time>2026-04-06T10:08:17.999Z</time></trkpt><trkpt lat="43.47280585090716" lon="10.496366483510203"><ele>59.333333333333336</ele><time>2026-04-06T10:08:18.999Z</time></trkpt><trkpt lat="43.472668795659395" lon="10.496151123322527"><ele>59.0</ele><time>2026-04-06T10:08:19.999Z</time></trkpt><trkpt lat="43.47255172644863" lon="10.495893276762155"><ele>57.0</ele><time>2026-04-06T10:08:20.999Z</time></trkpt><trkpt lat="43.47245204630174" lon="10.495612203879208"><ele>55.0</ele><time>2026-04-06T10:08:21.999Z</time></trkpt><trkpt lat="43.47236298013072" lon="10.4953229020504"><ele>54.0</ele><time>2026-04-06T10:08:22.999Z</time></trkpt><trkpt lat="43.47228013354963" lon="10.495041671995528"><ele>53.0</ele><time>2026-04-06T10:08:23.999Z</time></trkpt><trkpt lat="43.47220117254579" lon="10.494773631800042"><ele>52.0</ele><time>2026-04-06T10:08:24.999Z</time></trkpt><trkpt lat="43.4721253740929" lon="10.494514434579044"><ele>52.0</ele><time>2026-04-06T10:08:25.999Z</time></trkpt><trkpt lat="43.47205020103401" lon="10.494256935269405"><ele>52.0</ele><time>2026-04-06T10:08:26.999Z</time></trkpt><trkpt lat="43.471972769284406" lon="10.493995180924328"><ele>52.0</ele><time>2026-04-06T10:08:27.999Z</time></trkpt><trkpt lat="43.47189622751167" lon="10.49373939050217"><ele>50.666666666666664</ele><time>2026-04-06T10:08:28.999Z</time></trkpt><trkpt lat="43.47181544003855" lon="10.493485404175816"><ele>49.33333333333333</ele><time>2026-04-06T10:08:29.999Z</time></trkpt><trkpt lat="43.471721517198496" lon="10.493238801686584"><ele>48.0</ele><time>2026-04-06T10:08:30.999Z</time></trkpt><trkpt lat="43.471600635974156" lon="10.493018496795019"><ele>47.333333333333336</ele><time>2026-04-06T10:08:31.999Z</time></trkpt><trkpt lat="43.47149159913976" lon="10.49279717898637"><ele>46.66666666666667</ele><time>2026-04-06T10:08:32.999Z</time></trkpt><trkpt lat="43.471372358808104" lon="10.492587610977795"><ele>46.0</ele><time>2026-04-06T10:08:33.999Z</time></trkpt><trkpt lat="43.47124795007729" lon="10.492397242278637"><ele>46.0</ele><time>2026-04-06T10:08:34.999Z</time></trkpt><trkpt lat="43.471115845628894" lon="10.492216333075751"><ele>46.0</ele><time>2026-04-06T10:08:35.999Z</time></trkpt><trkpt lat="43.47098968790727" lon="10.492056679282456"><ele>46.0</ele><time>2026-04-06T10:08:36.999Z</time></trkpt><trkpt lat="43.470860728169974" lon="10.491890475131333"><ele>46.333333333333336</ele><time>2026-04-06T10:08:37.999Z</time></trkpt><trkpt lat="43.47074693439859" lon="10.491708042806078"><ele>46.666666666666664</ele><time>2026-04-06T10:08:38.999Z</time></trkpt><trkpt lat="43.47061824048949" lon="10.491537023275786"><ele>47.0</ele><time>2026-04-06T10:08:39.999Z</time></trkpt><trkpt lat="43.47049254075986" lon="10.491369594053324"><ele>47.33333333333333</ele><time>2026-04-06T10:08:40.999Z</time></trkpt><trkpt lat="43.47035269258504" lon="10.491210263464108"><ele>47.666666666666664</ele><time>2026-04-06T10:08:41.999Z</time></trkpt><trkpt lat="43.47022633386044" lon="10.491041748721692"><ele>48.0</ele><time>2026-04-06T10:08:42.999Z</time></trkpt><trkpt lat="43.470113515785776" lon="10.490862167270993"><ele>48.0</ele><time>2026-04-06T10:08:43.999Z</time></trkpt><trkpt lat="43.46999295020254" lon="10.490700959383163"><ele>48.0</ele><time>2026-04-06T10:08:44.999Z</time></trkpt><trkpt lat="43.46987188914991" lon="10.490539088962853"><ele>48.0</ele><time>2026-04-06T10:08:45.999Z</time></trkpt><trkpt lat="43.46975180644591" lon="10.490378998782809"><ele>47.666666666666664</ele><time>2026-04-06T10:08:46.999Z</time></trkpt><trkpt lat="43.46963017884855" lon="10.49021650314128"><ele>47.33333333333333</ele><time>2026-04-06T10:08:47.999Z</time></trkpt><trkpt lat="43.46949659531608" lon="10.490068884218456"><ele>47.0</ele><time>2026-04-06T10:08:48.999Z</time></trkpt><trkpt lat="43.46937552317328" lon="10.489904675313472"><ele>47.0</ele><time>2026-04-06T10:08:49.999Z</time></trkpt><trkpt lat="43.469253286239024" lon="10.489738025627013"><ele>47.0</ele><time>2026-04-06T10:08:50.999Z</time></trkpt><trkpt lat="43.469127972839736" lon="10.489567322818203"><ele>47.0</ele><time>2026-04-06T10:08:51.999Z</time></trkpt><trkpt lat="43.46899533619297" lon="10.489404547906974"><ele>47.0</ele><time>2026-04-06T10:08:52.999Z</time></trkpt><trkpt lat="43.4688517164726" lon="10.489255036531299"><ele>47.0</ele><time>2026-04-06T10:08:54Z</time></trkpt><trkpt lat="43.46869388226065" lon="10.489134792736838"><ele>47.0</ele><time>2026-04-06T10:08:55Z</time></trkpt><trkpt lat="43.46852977814814" lon="10.48902993654871"><ele>47.0</ele><time>2026-04-06T10:08:56Z</time></trkpt><trkpt lat="43.46835757059812" lon="10.488938827843391"><ele>47.0</ele><time>2026-04-06T10:08:57Z</time></trkpt><trkpt lat="43.46817831134215" lon="10.488874310917922"><ele>47.0</ele><time>2026-04-06T10:08:58Z</time></trkpt><trkpt lat="43.46799371602128" lon="10.488833990120417"><ele>48.0</ele><time>2026-04-06T10:08:59Z</time></trkpt><trkpt lat="43.4678021101424" lon="10.488810026207219"><ele>49.0</ele><time>2026-04-06T10:09:00Z</time></trkpt><trkpt lat="43.4676086343918" lon="10.488786394172045"><ele>50.0</ele><time>2026-04-06T10:09:01Z</time></trkpt><trkpt lat="43.46741501116344" lon="10.48876596398736"><ele>50.0</ele><time>2026-04-06T10:09:02Z</time></trkpt><trkpt lat="43.46722149935841" lon="10.488742922991923"><ele>50.0</ele><time>2026-04-06T10:09:03Z</time></trkpt><trkpt lat="43.46703194993617" lon="10.488717785683843"><ele>50.0</ele><time>2026-04-06T10:09:04Z</time></trkpt><trkpt lat="43.466842718500295" lon="10.48869100402315"><ele>50.0</ele><time>2026-04-06T10:09:05Z</time></trkpt><trkpt lat="43.46666724819188" lon="10.488647491501464"><ele>50.0</ele><time>2026-04-06T10:09:06Z</time></trkpt><trkpt lat="43.46648971854112" lon="10.488586157322105"><ele>50.0</ele><time>2026-04-06T10:09:07Z</time></trkpt><trkpt lat="43.46631711365294" lon="10.488510829905428"><ele>50.0</ele><time>2026-04-06T10:09:08Z</time></trkpt><trkpt lat="43.46615067737978" lon="10.488398146529784"><ele>50.0</ele><time>2026-04-06T10:09:09Z</time></trkpt><trkpt lat="43.46598176560128" lon="10.488294328729292"><ele>50.0</ele><time>2026-04-06T10:09:10Z</time></trkpt><trkpt lat="43.46580486853202" lon="10.4881740671387"><ele>50.0</ele><time>2026-04-06T10:09:11Z</time></trkpt><trkpt lat="43.46563989054162" lon="10.488055158304176"><ele>50.0</ele><time>2026-04-06T10:09:12Z</time></trkpt><trkpt lat="43.46546355826298" lon="10.4879508744238"><ele>50.0</ele><time>2026-04-06T10:09:13Z</time></trkpt><trkpt lat="43.465293645497304" lon="10.487826081268805"><ele>49.0</ele><time>2026-04-06T10:09:14Z</time></trkpt><trkpt lat="43.46512592735697" lon="10.48770122773505"><ele>48.0</ele><time>2026-04-06T10:09:15Z</time></trkpt><trkpt lat="43.46495910271423" lon="10.487574923825667"><ele>47.0</ele><time>2026-04-06T10:09:16Z</time></trkpt><trkpt lat="43.46479208761444" lon="10.487451083936328"><ele>47.0</ele><time>2026-04-06T10:09:17Z</time></trkpt><trkpt lat="43.46462298865289" lon="10.487327634580302"><ele>47.0</ele><time>2026-04-06T10:09:18Z</time></trkpt><trkpt lat="43.46445692432038" lon="10.487207434598533"><ele>47.0</ele><time>2026-04-06T10:09:19Z</time></trkpt><trkpt lat="43.464293969646555" lon="10.487084018628059"><ele>45.0</ele><time>2026-04-06T10:09:20Z</time></trkpt><trkpt lat="43.46412584449754" lon="10.486958055117206"><ele>43.0</ele><time>2026-04-06T10:09:21Z</time></trkpt><trkpt lat="43.4639641008668" lon="10.486838020436597"><ele>41.0</ele><time>2026-04-06T10:09:22Z</time></trkpt><trkpt lat="43.46380393351706" lon="10.486720819955629"><ele>41.666666666666664</ele><time>2026-04-06T10:09:22.999Z</time></trkpt><trkpt lat="43.46364137159216" lon="10.486595714017778"><ele>42.333333333333336</ele><time>2026-04-06T10:09:23.999Z</time></trkpt><trkpt lat="43.46347724099963" lon="10.486465400793987"><ele>43.0</ele><time>2026-04-06T10:09:24.999Z</time></trkpt><trkpt lat="43.463313651332165" lon="10.486333558342572"><ele>43.0</ele><time>2026-04-06T10:09:25.999Z</time></trkpt><trkpt lat="43.46314845905459" lon="10.4862043865183"><ele>43.0</ele><time>2026-04-06T10:09:26.999Z</time></trkpt><trkpt lat="43.46298608293467" lon="10.486081253316673"><ele>43.0</ele><time>2026-04-06T10:09:27.999Z</time></trkpt><trkpt lat="43.462824943155034" lon="10.485960177795796"><ele>43.0</ele><time>2026-04-06T10:09:28.999Z</time></trkpt><trkpt lat="43.46266389668342" lon="10.485843526608184"><ele>43.0</ele><time>2026-04-06T10:09:29.999Z</time></trkpt><trkpt lat="43.46250409129055" lon="10.485732130820676"><ele>43.0</ele><time>2026-04-06T10:09:30.999Z</time></trkpt><trkpt lat="43.46234971156399" lon="10.485625434690162"><ele>43.0</ele><time>2026-04-06T10:09:31.999Z</time></trkpt><trkpt lat="43.46219413358394" lon="10.485515914088268"><ele>43.0</ele><time>2026-04-06T10:09:32.999Z</time></trkpt><trkpt lat="43.46203613887214" lon="10.485401334973567"><ele>43.0</ele><time>2026-04-06T10:09:33.999Z</time></trkpt><trkpt lat="43.46187892400427" lon="10.485288677507311"><ele>42.66666666666667</ele><time>2026-04-06T10:09:34.999Z</time></trkpt><trkpt lat="43.46172477017837" lon="10.485178918644852"><ele>42.333333333333336</ele><time>2026-04-06T10:09:35.999Z</time></trkpt><trkpt lat="43.4615777730497" lon="10.485071715270895"><ele>42.0</ele><time>2026-04-06T10:09:36.999Z</time></trkpt><trkpt lat="43.46143183780536" lon="10.484963915384407"><ele>42.0</ele><time>2026-04-06T10:09:37.999Z</time></trkpt><trkpt lat="43.46129044569204" lon="10.484853286897335"><ele>42.0</ele><time>2026-04-06T10:09:38.999Z</time></trkpt><trkpt lat="43.46116514640191" lon="10.484715497952424"><ele>42.0</ele><time>2026-04-06T10:09:39.999Z</time></trkpt><trkpt lat="43.461035152760964" lon="10.484575626753642"><ele>43.0</ele><time>2026-04-06T10:09:40.999Z</time></trkpt><trkpt lat="43.46090174594633" lon="10.484440949737449"><ele>44.0</ele><time>2026-04-06T10:09:41.999Z</time></trkpt><trkpt lat="43.46079941506217" lon="10.48424315961049"><ele>45.0</ele><time>2026-04-06T10:09:42.999Z</time></trkpt><trkpt lat="43.4606771188159" lon="10.484069991045121"><ele>45.0</ele><time>2026-04-06T10:09:43.999Z</time></trkpt><trkpt lat="43.4605713227846" lon="10.483873181314031"><ele>45.0</ele><time>2026-04-06T10:09:44.999Z</time></trkpt><trkpt lat="43.4604605581279" lon="10.483672969590987"><ele>45.0</ele><time>2026-04-06T10:09:45.999Z</time></trkpt><trkpt lat="43.46035271048317" lon="10.483478612478647"><ele>45.0</ele><time>2026-04-06T10:09:46.999Z</time></trkpt><trkpt lat="43.460238554040494" lon="10.483274532748775"><ele>45.0</ele><time>2026-04-06T10:09:47.999Z</time></trkpt><trkpt lat="43.46012751236783" lon="10.483075343273079"><ele>45.0</ele><time>2026-04-06T10:09:48.999Z</time></trkpt><trkpt lat="43.46001583593252" lon="10.482874061006262"><ele>45.0</ele><time>2026-04-06T10:09:49.999Z</time></trkpt><trkpt lat="43.45990052063088" lon="10.482663479911675"><ele>45.0</ele><time>2026-04-06T10:09:50.999Z</time></trkpt><trkpt lat="43.459792745934074" lon="10.482467564342654"><ele>45.0</ele><time>2026-04-06T10:09:51.999Z</time></trkpt><trkpt lat="43.45967939561592" lon="10.482258201110401"><ele>46.33333333333333</ele><time>2026-04-06T10:09:52.999Z</time></trkpt><trkpt lat="43.45956721386108" lon="10.48205240074987"><ele>47.666666666666664</ele><time>2026-04-06T10:09:53.999Z</time></trkpt><trkpt lat="43.45945337146389" lon="10.481853368259172"><ele>49.0</ele><time>2026-04-06T10:09:54.999Z</time></trkpt><trkpt lat="43.45933331659105" lon="10.48165784384852"><ele>49.0</ele><time>2026-04-06T10:09:55.999Z</time></trkpt><trkpt lat="43.45920358598427" lon="10.481483903182317"><ele>49.0</ele><time>2026-04-06T10:09:56.999Z</time></trkpt><trkpt lat="43.45906494157991" lon="10.481350452607407"><ele>49.0</ele><time>2026-04-06T10:09:57.999Z</time></trkpt><trkpt lat="43.45891422976464" lon="10.481238491244511"><ele>50.5</ele><time>2026-04-06T10:09:58.999Z</time></trkpt><trkpt lat="43.45877351941165" lon="10.481141929874173"><ele>52.0</ele><time>2026-04-06T10:09:59.999Z</time></trkpt><trkpt lat="43.45864380050692" lon="10.481045502887495"><ele>53.5</ele><time>2026-04-06T10:10:00.999Z</time></trkpt><trkpt lat="43.45852044408456" lon="10.480951881557015"><ele>55.0</ele><time>2026-04-06T10:10:01.999Z</time></trkpt><trkpt lat="43.45839378357648" lon="10.480856194940857"><ele>55.0</ele><time>2026-04-06T10:10:02.999Z</time></trkpt><trkpt lat="43.458266829790354" lon="10.480759276530122"><ele>55.0</ele><time>2026-04-06T10:10:03.999Z</time></trkpt><trkpt lat="43.458147592166966" lon="10.480657986654922"><ele>55.0</ele><time>2026-04-06T10:10:04.999Z</time></trkpt><trkpt lat="43.45804049196091" lon="10.480553710941187"><ele>55.0</ele><time>2026-04-06T10:10:05.999Z</time></trkpt><trkpt lat="43.45794477061267" lon="10.480448008167295"><ele>54.0</ele><time>2026-04-06T10:10:06.999Z</time></trkpt><trkpt lat="43.45786164543917" lon="10.480331059881117"><ele>53.0</ele><time>2026-04-06T10:10:07.999Z</time></trkpt><trkpt lat="43.45778708637449" lon="10.480195879681373"><ele>52.0</ele><time>2026-04-06T10:10:08.999Z</time></trkpt><trkpt lat="43.45772894763267" lon="10.480037393222911"><ele>51.0</ele><time>2026-04-06T10:10:09.999Z</time></trkpt><trkpt lat="43.4577005629775" lon="10.479864218804206"><ele>51.0</ele><time>2026-04-06T10:10:10.999Z</time></trkpt><trkpt lat="43.45764097194293" lon="10.479693891448955"><ele>51.0</ele><time>2026-04-06T10:10:11.999Z</time></trkpt><trkpt lat="43.45759880345543" lon="10.479515794406243"><ele>51.0</ele><time>2026-04-06T10:10:12.999Z</time></trkpt><trkpt lat="43.45755693954812" lon="10.479344206351833"><ele>51.0</ele><time>2026-04-06T10:10:13.999Z</time></trkpt><trkpt lat="43.45751471677081" lon="10.479183483846574"><ele>50.25</ele><time>2026-04-06T10:10:14.999Z</time></trkpt><trkpt lat="43.45747462058859" lon="10.479026974463892"><ele>49.5</ele><time>2026-04-06T10:10:15.999Z</time></trkpt><trkpt lat="43.45743687305814" lon="10.478874066436097"><ele>48.75</ele><time>2026-04-06T10:10:16.999Z</time></trkpt><trkpt lat="43.457397880405715" lon="10.478726178842134"><ele>48.0</ele><time>2026-04-06T10:10:17.999Z</time></trkpt><trkpt lat="43.457362520187665" lon="10.478582262746771"><ele>48.0</ele><time>2026-04-06T10:10:18.999Z</time></trkpt><trkpt lat="43.45732595336183" lon="10.478434605613161"><ele>48.0</ele><time>2026-04-06T10:10:19.999Z</time></trkpt><trkpt lat="43.457270894778645" lon="10.478282654920374"><ele>48.0</ele><time>2026-04-06T10:10:20.999Z</time></trkpt><trkpt lat="43.457203331867035" lon="10.478135324188553"><ele>48.0</ele><time>2026-04-06T10:10:21.999Z</time></trkpt><trkpt lat="43.45711117282646" lon="10.47800185326207"><ele>48.0</ele><time>2026-04-06T10:10:22.999Z</time></trkpt><trkpt lat="43.45700608649278" lon="10.477890116368997"><ele>48.0</ele><time>2026-04-06T10:10:23.999Z</time></trkpt><trkpt lat="43.456903923176185" lon="10.477792442840212"><ele>48.0</ele><time>2026-04-06T10:10:24.999Z</time></trkpt><trkpt lat="43.45680543085559" lon="10.477702744222478"><ele>48.0</ele><time>2026-04-06T10:10:25.999Z</time></trkpt><trkpt lat="43.45672474774797" lon="10.477592872100702"><ele>48.0</ele><time>2026-04-06T10:10:26.999Z</time></trkpt><trkpt lat="43.45663764732015" lon="10.4775042872804"><ele>48.0</ele><time>2026-04-06T10:10:27.999Z</time></trkpt><trkpt lat="43.456555554674274" lon="10.477421058158255"><ele>48.0</ele><time>2026-04-06T10:10:28.999Z</time></trkpt><trkpt lat="43.45647839726956" lon="10.477342832547402"><ele>48.0</ele><time>2026-04-06T10:10:29.999Z</time></trkpt><trkpt lat="43.45639813441032" lon="10.477261458546739"><ele>48.0</ele><time>2026-04-06T10:10:30.999Z</time></trkpt><trkpt lat="43.456307763867414" lon="10.47719708743056"><ele>47.4</ele><time>2026-04-06T10:10:31.999Z</time></trkpt><trkpt lat="43.456232554424524" lon="10.477093586057027"><ele>46.8</ele><time>2026-04-06T10:10:32.999Z</time></trkpt><trkpt lat="43.45614433392744" lon="10.47700414553983"><ele>46.2</ele><time>2026-04-06T10:10:33.999Z</time></trkpt><trkpt lat="43.45605052996936" lon="10.476908587046166"><ele>45.6</ele><time>2026-04-06T10:10:34.999Z</time></trkpt><trkpt lat="43.45596064401908" lon="10.476817126046932"><ele>45.0</ele><time>2026-04-06T10:10:35.999Z</time></trkpt><trkpt lat="43.45586615434002" lon="10.476720980494761"><ele>45.0</ele><time>2026-04-06T10:10:36.999Z</time></trkpt><trkpt lat="43.455772773500456" lon="10.476625963196344"><ele>45.0</ele><time>2026-04-06T10:10:37.999Z</time></trkpt><trkpt lat="43.45567690893794" lon="10.476528322862935"><ele>45.0</ele><time>2026-04-06T10:10:38.999Z</time></trkpt><trkpt lat="43.45558540574611" lon="10.476435026839141"><ele>45.0</ele><time>2026-04-06T10:10:39.999Z</time></trkpt><trkpt lat="43.45550654448391" lon="10.476354620347259"><ele>45.0</ele><time>2026-04-06T10:10:40.999Z</time></trkpt><trkpt lat="43.45543808786751" lon="10.476284821870037"><ele>44.333333333333336</ele><time>2026-04-06T10:10:41.999Z</time></trkpt><trkpt lat="43.45535981962157" lon="10.476202505942883"><ele>43.666666666666664</ele><time>2026-04-06T10:10:43.999Z</time></trkpt><trkpt lat="43.45530060196816" lon="10.476165193661881"><ele>43.0</ele><time>2026-04-06T10:10:46.999Z</time></trkpt><trkpt lat="43.45525291792035" lon="10.476081411587048"><ele>42.33333333333333</ele><time>2026-04-06T10:11:01Z</time></trkpt><trkpt lat="43.45520434755437" lon="10.475999994130678"><ele>41.666666666666664</ele><time>2026-04-06T10:11:05Z</time></trkpt><trkpt lat="43.45516551838496" lon="10.475904163977901"><ele>41.0</ele><time>2026-04-06T10:11:09Z</time></trkpt><trkpt lat="43.45513131289541" lon="10.475826599277264"><ele>41.0</ele><time>2026-04-06T10:11:14Z</time></trkpt><trkpt lat="43.45509319294355" lon="10.47575244664879"><ele>41.0</ele><time>2026-04-06T10:11:17Z</time></trkpt><trkpt lat="43.45502593785389" lon="10.475652497259281"><ele>41.0</ele><time>2026-04-06T10:11:28Z</time></trkpt><trkpt lat="43.45487453414409" lon="10.475727236165364"><ele>41.0</ele><time>2026-04-06T10:11:29Z</time></trkpt><trkpt lat="43.45477818745374" lon="10.475752011827353"><ele>41.0</ele><time>2026-04-06T10:11:30Z</time></trkpt><trkpt lat="43.454658622251785" lon="10.475771209191977"><ele>40.75</ele><time>2026-04-06T10:11:31Z</time></trkpt><trkpt lat="43.45453135093307" lon="10.475785502466078"><ele>40.5</ele><time>2026-04-06T10:11:32Z</time></trkpt><trkpt lat="43.45438524754935" lon="10.475790307385871"><ele>40.25</ele><time>2026-04-06T10:11:33Z</time></trkpt><trkpt lat="43.45428989844451" lon="10.475799809234733"><ele>40.0</ele><time>2026-04-06T10:11:34Z</time></trkpt><trkpt lat="43.454153619529116" lon="10.475801519412741"><ele>40.0</ele><time>2026-04-06T10:11:35Z</time></trkpt><trkpt lat="43.45400066276942" lon="10.475804710402858"><ele>40.0</ele><time>2026-04-06T10:11:36Z</time></trkpt><trkpt lat="43.453827923507355" lon="10.475809914484808"><ele>40.0</ele><time>2026-04-06T10:11:36.999Z</time></trkpt><trkpt lat="43.453644354982025" lon="10.475814574504385"><ele>40.66666666666667</ele><time>2026-04-06T10:11:37.999Z</time></trkpt><trkpt lat="43.453452834002086" lon="10.47582105069457"><ele>41.333333333333336</ele><time>2026-04-06T10:11:38.999Z</time></trkpt><trkpt lat="43.45326540584626" lon="10.475829568626345"><ele>42.0</ele><time>2026-04-06T10:11:39.999Z</time></trkpt><trkpt lat="43.45307672224653" lon="10.475839507461412"><ele>42.666666666666664</ele><time>2026-04-06T10:11:40.999Z</time></trkpt><trkpt lat="43.452887963845775" lon="10.475859724177722"><ele>43.33333333333333</ele><time>2026-04-06T10:11:41.999Z</time></trkpt><trkpt lat="43.45269818770633" lon="10.475899794411664"><ele>44.0</ele><time>2026-04-06T10:11:42.999Z</time></trkpt><trkpt lat="43.452511570559054" lon="10.475949309740258"><ele>44.0</ele><time>2026-04-06T10:11:43.999Z</time></trkpt><trkpt lat="43.452322107355094" lon="10.47600398994335"><ele>44.0</ele><time>2026-04-06T10:11:44.999Z</time></trkpt><trkpt lat="43.45213200437534" lon="10.476068389863421"><ele>44.0</ele><time>2026-04-06T10:11:45.999Z</time></trkpt><trkpt lat="43.45194297189349" lon="10.47613905941525"><ele>43.666666666666664</ele><time>2026-04-06T10:11:46.999Z</time></trkpt><trkpt lat="43.45175101144695" lon="10.476211732077623"><ele>43.333333333333336</ele><time>2026-04-06T10:11:47.999Z</time></trkpt><trkpt lat="43.451558290706934" lon="10.47627953275493"><ele>43.0</ele><time>2026-04-06T10:11:48.999Z</time></trkpt><trkpt lat="43.45136189813517" lon="10.476347806253548"><ele>43.333333333333336</ele><time>2026-04-06T10:11:49.999Z</time></trkpt><trkpt lat="43.45116709952837" lon="10.476422168070163"><ele>43.666666666666664</ele><time>2026-04-06T10:11:50.999Z</time></trkpt><trkpt lat="43.4509688975084" lon="10.476498949557136"><ele>44.0</ele><time>2026-04-06T10:11:51.999Z</time></trkpt><trkpt lat="43.450774396749466" lon="10.476582486445057"><ele>44.0</ele><time>2026-04-06T10:11:52.999Z</time></trkpt><trkpt lat="43.45057627546121" lon="10.476673920139076"><ele>44.0</ele><time>2026-04-06T10:11:53.999Z</time></trkpt><trkpt lat="43.45038014133522" lon="10.476776173133866"><ele>44.0</ele><time>2026-04-06T10:11:54.999Z</time></trkpt><trkpt lat="43.4501860309942" lon="10.476888295273481"><ele>44.33333333333333</ele><time>2026-04-06T10:11:55.999Z</time></trkpt><trkpt lat="43.44999482833442" lon="10.477007076328373"><ele>44.666666666666664</ele><time>2026-04-06T10:11:56.999Z</time></trkpt><trkpt lat="43.44979917804104" lon="10.477123466181295"><ele>45.0</ele><time>2026-04-06T10:11:57.999Z</time></trkpt><trkpt lat="43.44960411896903" lon="10.477240861863665"><ele>44.0</ele><time>2026-04-06T10:11:58.999Z</time></trkpt><trkpt lat="43.44941535911427" lon="10.477360374511633"><ele>43.0</ele><time>2026-04-06T10:11:59.999Z</time></trkpt><trkpt lat="43.449224457255724" lon="10.477480112118187"><ele>42.0</ele><time>2026-04-06T10:12:00.999Z</time></trkpt><trkpt lat="43.449039542916296" lon="10.477592745714526"><ele>42.0</ele><time>2026-04-06T10:12:01.999Z</time></trkpt><trkpt lat="43.44885549571209" lon="10.477694153497547"><ele>42.0</ele><time>2026-04-06T10:12:02.999Z</time></trkpt><trkpt lat="43.448672813305116" lon="10.477743471328237"><ele>42.0</ele><time>2026-04-06T10:12:03.999Z</time></trkpt><trkpt lat="43.448489007063515" lon="10.477770726956193"><ele>42.666666666666664</ele><time>2026-04-06T10:12:04.999Z</time></trkpt><trkpt lat="43.448302457926864" lon="10.477783834634756"><ele>43.33333333333333</ele><time>2026-04-06T10:12:05.999Z</time></trkpt><trkpt lat="43.44811217970593" lon="10.477753172694309"><ele>44.0</ele><time>2026-04-06T10:12:06.999Z</time></trkpt><trkpt lat="43.4479244649117" lon="10.477717609999882"><ele>42.666666666666664</ele><time>2026-04-06T10:12:07.999Z</time></trkpt><trkpt lat="43.44773422599531" lon="10.47771843187449"><ele>41.333333333333336</ele><time>2026-04-06T10:12:08.999Z</time></trkpt><trkpt lat="43.44753926706044" lon="10.477760657123367"><ele>40.0</ele><time>2026-04-06T10:12:09.999Z</time></trkpt><trkpt lat="43.4473386639332" lon="10.47783094028115"><ele>40.0</ele><time>2026-04-06T10:12:10.999Z</time></trkpt><trkpt lat="43.44713584375133" lon="10.477910869755355"><ele>40.0</ele><time>2026-04-06T10:12:11.999Z</time></trkpt><trkpt lat="43.446930009862285" lon="10.477990893135594"><ele>40.0</ele><time>2026-04-06T10:12:12.999Z</time></trkpt><trkpt lat="43.44672477243449" lon="10.478065612440025"><ele>39.66666666666667</ele><time>2026-04-06T10:12:13.999Z</time></trkpt><trkpt lat="43.446520195634044" lon="10.478135071316858"><ele>39.333333333333336</ele><time>2026-04-06T10:12:14.999Z</time></trkpt><trkpt lat="43.446318049575844" lon="10.478206247130213"><ele>39.0</ele><time>2026-04-06T10:12:15.999Z</time></trkpt><trkpt lat="43.446123811986894" lon="10.478270536720277"><ele>39.0</ele><time>2026-04-06T10:12:16.999Z</time></trkpt><trkpt lat="43.4459312233948" lon="10.478332662942723"><ele>39.0</ele><time>2026-04-06T10:12:17.999Z</time></trkpt><trkpt lat="43.445737901237045" lon="10.478398515933193"><ele>39.0</ele><time>2026-04-06T10:12:18.999Z</time></trkpt><trkpt lat="43.445548021965394" lon="10.478472982940662"><ele>40.666666666666664</ele><time>2026-04-06T10:12:19.999Z</time></trkpt><trkpt lat="43.44536247050337" lon="10.478552199303518"><ele>42.33333333333333</ele><time>2026-04-06T10:12:20.999Z</time></trkpt><trkpt lat="43.445173286527165" lon="10.478638240600958"><ele>44.0</ele><time>2026-04-06T10:12:21.999Z</time></trkpt><trkpt lat="43.44498430425191" lon="10.478723691233169"><ele>42.666666666666664</ele><time>2026-04-06T10:12:22.999Z</time></trkpt><trkpt lat="43.44479465240234" lon="10.478811248484238"><ele>41.333333333333336</ele><time>2026-04-06T10:12:23.999Z</time></trkpt><trkpt lat="43.44460273015537" lon="10.478900474353441"><ele>40.0</ele><time>2026-04-06T10:12:24.999Z</time></trkpt><trkpt lat="43.44441888496627" lon="10.478984358062482"><ele>40.0</ele><time>2026-04-06T10:12:25.999Z</time></trkpt><trkpt lat="43.44423766256831" lon="10.479063893255011"><ele>40.0</ele><time>2026-04-06T10:12:26.999Z</time></trkpt><trkpt lat="43.44406470214664" lon="10.479140155722382"><ele>40.0</ele><time>2026-04-06T10:12:27.999Z</time></trkpt><trkpt lat="43.44389804894856" lon="10.479213984699355"><ele>39.66666666666667</ele><time>2026-04-06T10:12:28.999Z</time></trkpt><trkpt lat="43.4437357130922" lon="10.479300437981601"><ele>39.333333333333336</ele><time>2026-04-06T10:12:29.999Z</time></trkpt><trkpt lat="43.44357910727553" lon="10.479416726884441"><ele>39.0</ele><time>2026-04-06T10:12:30.999Z</time></trkpt><trkpt lat="43.44343344849446" lon="10.479559427022389"><ele>39.0</ele><time>2026-04-06T10:12:31.999Z</time></trkpt><trkpt lat="43.443306238788544" lon="10.479741247790695"><ele>39.0</ele><time>2026-04-06T10:12:32.999Z</time></trkpt><trkpt lat="43.443193355676456" lon="10.479941277627871"><ele>39.0</ele><time>2026-04-06T10:12:33.999Z</time></trkpt><trkpt lat="43.44309416353472" lon="10.480153385454948"><ele>39.0</ele><time>2026-04-06T10:12:34.999Z</time></trkpt><trkpt lat="43.44299144768527" lon="10.480370930472747"><ele>39.0</ele><time>2026-04-06T10:12:35.999Z</time></trkpt><trkpt lat="43.44288277233489" lon="10.480582711962134"><ele>39.0</ele><time>2026-04-06T10:12:36.999Z</time></trkpt><trkpt lat="43.44276328955041" lon="10.480785930855369"><ele>38.333333333333336</ele><time>2026-04-06T10:12:37.999Z</time></trkpt><trkpt lat="43.442632961150224" lon="10.480983913746353"><ele>37.66666666666667</ele><time>2026-04-06T10:12:38.999Z</time></trkpt><trkpt lat="43.44249361875555" lon="10.481175507561893"><ele>37.0</ele><time>2026-04-06T10:12:39.999Z</time></trkpt><trkpt lat="43.44234690857549" lon="10.48134908303766"><ele>37.0</ele><time>2026-04-06T10:12:40.999Z</time></trkpt><trkpt lat="43.442186636759594" lon="10.481493250436069"><ele>37.0</ele><time>2026-04-06T10:12:41.999Z</time></trkpt><trkpt lat="43.44203124434526" lon="10.48163306302974"><ele>37.0</ele><time>2026-04-06T10:12:42.999Z</time></trkpt><trkpt lat="43.44187006979391" lon="10.481763314131845"><ele>38.0</ele><time>2026-04-06T10:12:43.999Z</time></trkpt><trkpt lat="43.441705444282896" lon="10.48187650590265"><ele>39.0</ele><time>2026-04-06T10:12:44.999Z</time></trkpt><trkpt lat="43.44154270205495" lon="10.481972816159697"><ele>40.0</ele><time>2026-04-06T10:12:45.999Z</time></trkpt><trkpt lat="43.441383506711176" lon="10.482053497030885"><ele>39.333333333333336</ele><time>2026-04-06T10:12:46.999Z</time></trkpt><trkpt lat="43.44123382624869" lon="10.482120282454815"><ele>38.666666666666664</ele><time>2026-04-06T10:12:47.999Z</time></trkpt><trkpt lat="43.44108858104824" lon="10.482177455869978"><ele>38.0</ele><time>2026-04-06T10:12:48.999Z</time></trkpt><trkpt lat="43.440951666483386" lon="10.482249314343347"><ele>38.0</ele><time>2026-04-06T10:12:49.999Z</time></trkpt><trkpt lat="43.440819274256924" lon="10.482293446114852"><ele>38.0</ele><time>2026-04-06T10:12:50.999Z</time></trkpt><trkpt lat="43.440694051357156" lon="10.482338458792526"><ele>38.0</ele><time>2026-04-06T10:12:51.999Z</time></trkpt><trkpt lat="43.440573079670884" lon="10.482382447051245"><ele>38.0</ele><time>2026-04-06T10:12:52.999Z</time></trkpt><trkpt lat="43.44045225928127" lon="10.482423408159304"><ele>37.5</ele><time>2026-04-06T10:12:53.999Z</time></trkpt><trkpt lat="43.44032971551086" lon="10.482466680838504"><ele>37.0</ele><time>2026-04-06T10:12:54.999Z</time></trkpt><trkpt lat="43.44019968971462" lon="10.482512021728109"><ele>36.5</ele><time>2026-04-06T10:12:55.999Z</time></trkpt><trkpt lat="43.44006595830894" lon="10.482560845928205"><ele>36.0</ele><time>2026-04-06T10:12:56.999Z</time></trkpt><trkpt lat="43.43992324213848" lon="10.482611930740223"><ele>36.0</ele><time>2026-04-06T10:12:57.999Z</time></trkpt><trkpt lat="43.439776477877544" lon="10.482665010062405"><ele>36.0</ele><time>2026-04-06T10:12:58.999Z</time></trkpt><trkpt lat="43.439625428401655" lon="10.482720858458181"><ele>36.0</ele><time>2026-04-06T10:12:59.999Z</time></trkpt><trkpt lat="43.439475096273796" lon="10.482777331111459"><ele>36.0</ele><time>2026-04-06T10:13:00.999Z</time></trkpt><trkpt lat="43.43932427404216" lon="10.482833332877744"><ele>36.0</ele><time>2026-04-06T10:13:01.999Z</time></trkpt><trkpt lat="43.4391763797568" lon="10.482885754790555"><ele>36.0</ele><time>2026-04-06T10:13:02.999Z</time></trkpt><trkpt lat="43.43902984244417" lon="10.482940214641804"><ele>36.0</ele><time>2026-04-06T10:13:03.999Z</time></trkpt><trkpt lat="43.4388801557812" lon="10.482993487830205"><ele>36.0</ele><time>2026-04-06T10:13:04.999Z</time></trkpt><trkpt lat="43.43872740569027" lon="10.48304777032004"><ele>36.0</ele><time>2026-04-06T10:13:06Z</time></trkpt><trkpt lat="43.43857568504202" lon="10.483101788421981"><ele>36.333333333333336</ele><time>2026-04-06T10:13:07Z</time></trkpt><trkpt lat="43.43842258244237" lon="10.483155699954454"><ele>36.66666666666667</ele><time>2026-04-06T10:13:08Z</time></trkpt><trkpt lat="43.43826974432288" lon="10.48321422689309"><ele>37.0</ele><time>2026-04-06T10:13:09Z</time></trkpt><trkpt lat="43.43811632998968" lon="10.483270651180689"><ele>35.66666666666667</ele><time>2026-04-06T10:13:10Z</time></trkpt><trkpt lat="43.43796613481324" lon="10.483323592736653"><ele>34.333333333333336</ele><time>2026-04-06T10:13:11Z</time></trkpt><trkpt lat="43.43781293992739" lon="10.483377507528818"><ele>33.0</ele><time>2026-04-06T10:13:12Z</time></trkpt><trkpt lat="43.43766040841246" lon="10.483433045270198"><ele>33.0</ele><time>2026-04-06T10:13:13Z</time></trkpt><trkpt lat="43.43750259703563" lon="10.483488900504767"><ele>33.0</ele><time>2026-04-06T10:13:14Z</time></trkpt><trkpt lat="43.43734218318342" lon="10.483545717166585"><ele>33.0</ele><time>2026-04-06T10:13:15Z</time></trkpt><trkpt lat="43.437175904282206" lon="10.483602171832983"><ele>31.666666666666664</ele><time>2026-04-06T10:13:16Z</time></trkpt><trkpt lat="43.43701055482393" lon="10.483657063232672"><ele>30.333333333333332</ele><time>2026-04-06T10:13:17Z</time></trkpt><trkpt lat="43.436846647559925" lon="10.483716612507253"><ele>29.0</ele><time>2026-04-06T10:13:18Z</time></trkpt><trkpt lat="43.43667884841452" lon="10.483779133482374"><ele>29.0</ele><time>2026-04-06T10:13:19Z</time></trkpt><trkpt lat="43.436510640973026" lon="10.483833400200322"><ele>29.0</ele><time>2026-04-06T10:13:20Z</time></trkpt><trkpt lat="43.43633803666379" lon="10.483890348206396"><ele>29.0</ele><time>2026-04-06T10:13:21Z</time></trkpt><trkpt lat="43.436155153528716" lon="10.483945790643345"><ele>29.666666666666664</ele><time>2026-04-06T10:13:22Z</time></trkpt><trkpt lat="43.43597410240036" lon="10.483990521426435"><ele>30.333333333333336</ele><time>2026-04-06T10:13:23Z</time></trkpt><trkpt lat="43.43578669139633" lon="10.484021211578797"><ele>31.0</ele><time>2026-04-06T10:13:24Z</time></trkpt><trkpt lat="43.43559308326681" lon="10.48403677217728"><ele>31.0</ele><time>2026-04-06T10:13:25Z</time></trkpt><trkpt lat="43.435402469950425" lon="10.484030296218258"><ele>31.0</ele><time>2026-04-06T10:13:26Z</time></trkpt><trkpt lat="43.435202313527114" lon="10.484011572451411"><ele>31.0</ele><time>2026-04-06T10:13:27Z</time></trkpt><trkpt lat="43.43500116912458" lon="10.483977763105248"><ele>31.0</ele><time>2026-04-06T10:13:28Z</time></trkpt><trkpt lat="43.434797551803946" lon="10.483929001086818"><ele>31.0</ele><time>2026-04-06T10:13:29Z</time></trkpt><trkpt lat="43.4345989998576" lon="10.483867076702824"><ele>31.0</ele><time>2026-04-06T10:13:30Z</time></trkpt><trkpt lat="43.43440804257942" lon="10.483802015549049"><ele>30.666666666666668</ele><time>2026-04-06T10:13:31Z</time></trkpt><trkpt lat="43.43422681519066" lon="10.483740240996955"><ele>30.333333333333336</ele><time>2026-04-06T10:13:32Z</time></trkpt><trkpt lat="43.434052051011896" lon="10.483679674316095"><ele>30.0</ele><time>2026-04-06T10:13:33Z</time></trkpt><trkpt lat="43.43388219288898" lon="10.483619765596728"><ele>29.666666666666664</ele><time>2026-04-06T10:13:34Z</time></trkpt><trkpt lat="43.43371642344496" lon="10.483561018126563"><ele>29.333333333333332</ele><time>2026-04-06T10:13:35Z</time></trkpt><trkpt lat="43.43355429107793" lon="10.483506388044681"><ele>29.0</ele><time>2026-04-06T10:13:36Z</time></trkpt><trkpt lat="43.43339349417934" lon="10.483453991334544"><ele>29.0</ele><time>2026-04-06T10:13:37Z</time></trkpt><trkpt lat="43.4332306684506" lon="10.483401711526955"><ele>29.0</ele><time>2026-04-06T10:13:38Z</time></trkpt><trkpt lat="43.43306733850785" lon="10.483349157878811"><ele>29.0</ele><time>2026-04-06T10:13:39Z</time></trkpt><trkpt lat="43.432901569392534" lon="10.483294674972505"><ele>28.0</ele><time>2026-04-06T10:13:40Z</time></trkpt><trkpt lat="43.432727991379174" lon="10.483232646488615"><ele>27.0</ele><time>2026-04-06T10:13:41Z</time></trkpt><trkpt lat="43.43255585024404" lon="10.48317405308941"><ele>26.0</ele><time>2026-04-06T10:13:42Z</time></trkpt><trkpt lat="43.43238499885474" lon="10.483117971350737"><ele>26.0</ele><time>2026-04-06T10:13:43Z</time></trkpt><trkpt lat="43.432207975405305" lon="10.483056677907113"><ele>26.0</ele><time>2026-04-06T10:13:44Z</time></trkpt><trkpt lat="43.43202818061843" lon="10.48299533903467"><ele>26.0</ele><time>2026-04-06T10:13:45Z</time></trkpt><trkpt lat="43.431849784415654" lon="10.482935988194804"><ele>28.333333333333332</ele><time>2026-04-06T10:13:45.999Z</time></trkpt><trkpt lat="43.43166907517683" lon="10.482874129483434"><ele>30.666666666666664</ele><time>2026-04-06T10:13:46.999Z</time></trkpt><trkpt lat="43.43148942445958" lon="10.48281278779638"><ele>33.0</ele><time>2026-04-06T10:13:47.999Z</time></trkpt><trkpt lat="43.43130682680764" lon="10.482750555191213"><ele>34.333333333333336</ele><time>2026-04-06T10:13:48.999Z</time></trkpt><trkpt lat="43.4311255061215" lon="10.482688550823378"><ele>35.66666666666667</ele><time>2026-04-06T10:13:49.999Z</time></trkpt><trkpt lat="43.43094476219799" lon="10.48262763545518"><ele>37.0</ele><time>2026-04-06T10:13:50.999Z</time></trkpt><trkpt lat="43.43076674565156" lon="10.482568393681204"><ele>37.0</ele><time>2026-04-06T10:13:51.999Z</time></trkpt><trkpt lat="43.43059121501895" lon="10.482512316800536"><ele>37.0</ele><time>2026-04-06T10:13:52.999Z</time></trkpt><trkpt lat="43.430415843018494" lon="10.482451389840545"><ele>37.0</ele><time>2026-04-06T10:13:53.999Z</time></trkpt><trkpt lat="43.43024444691272" lon="10.482392380363011"><ele>35.333333333333336</ele><time>2026-04-06T10:13:54.999Z</time></trkpt><trkpt lat="43.43007680319242" lon="10.482334555425647"><ele>33.666666666666664</ele><time>2026-04-06T10:13:55.999Z</time></trkpt><trkpt lat="43.42991272059641" lon="10.482281924067626"><ele>32.0</ele><time>2026-04-06T10:13:56.999Z</time></trkpt><trkpt lat="43.429752930875544" lon="10.482230944185561"><ele>31.0</ele><time>2026-04-06T10:13:57.999Z</time></trkpt><trkpt lat="43.42959766421538" lon="10.482177508220499"><ele>30.0</ele><time>2026-04-06T10:13:58.999Z</time></trkpt><trkpt lat="43.429444283980494" lon="10.482122394229005"><ele>29.0</ele><time>2026-04-06T10:13:59.999Z</time></trkpt><trkpt lat="43.42929947743638" lon="10.482074208749848"><ele>29.0</ele><time>2026-04-06T10:14:00.999Z</time></trkpt><trkpt lat="43.429161982761705" lon="10.482028083706112"><ele>29.0</ele><time>2026-04-06T10:14:01.999Z</time></trkpt><trkpt lat="43.42903298584238" lon="10.481982528819572"><ele>29.0</ele><time>2026-04-06T10:14:02.999Z</time></trkpt><trkpt lat="43.42890727616669" lon="10.481937590314272"><ele>29.0</ele><time>2026-04-06T10:14:03.999Z</time></trkpt><trkpt lat="43.42878067288741" lon="10.481894995898898"><ele>29.5</ele><time>2026-04-06T10:14:04.999Z</time></trkpt><trkpt lat="43.42864551246116" lon="10.481851953351631"><ele>30.0</ele><time>2026-04-06T10:14:05.999Z</time></trkpt><trkpt lat="43.42850194744534" lon="10.481809640316596"><ele>30.5</ele><time>2026-04-06T10:14:06.999Z</time></trkpt><trkpt lat="43.42835242371273" lon="10.481767491591029"><ele>31.0</ele><time>2026-04-06T10:14:07.999Z</time></trkpt><trkpt lat="43.42820158654371" lon="10.48173560423583"><ele>31.0</ele><time>2026-04-06T10:14:08.999Z</time></trkpt><trkpt lat="43.428041064971666" lon="10.481718333208462"><ele>31.0</ele><time>2026-04-06T10:14:09.999Z</time></trkpt><trkpt lat="43.42787433859206" lon="10.481712119985302"><ele>31.0</ele><time>2026-04-06T10:14:10.999Z</time></trkpt><trkpt lat="43.42770084504447" lon="10.481709743744931"><ele>31.0</ele><time>2026-04-06T10:14:11.999Z</time></trkpt><trkpt lat="43.427526732467825" lon="10.481702637279827"><ele>31.0</ele><time>2026-04-06T10:14:12.999Z</time></trkpt><trkpt lat="43.42734995886227" lon="10.481693594407888"><ele>31.0</ele><time>2026-04-06T10:14:13.999Z</time></trkpt><trkpt lat="43.42716937418845" lon="10.481683335717534"><ele>31.333333333333336</ele><time>2026-04-06T10:14:14.999Z</time></trkpt><trkpt lat="43.42698995650768" lon="10.481671655496614"><ele>31.666666666666664</ele><time>2026-04-06T10:14:15.999Z</time></trkpt><trkpt lat="43.4268085858201" lon="10.481660988687032"><ele>32.0</ele><time>2026-04-06T10:14:16.999Z</time></trkpt><trkpt lat="43.42662561643986" lon="10.481649062832599"><ele>32.0</ele><time>2026-04-06T10:14:17.999Z</time></trkpt><trkpt lat="43.4264383222371" lon="10.48163618618445"><ele>32.0</ele><time>2026-04-06T10:14:18.999Z</time></trkpt><trkpt lat="43.426250772352304" lon="10.481623999459769"><ele>32.0</ele><time>2026-04-06T10:14:19.999Z</time></trkpt><trkpt lat="43.426057658224785" lon="10.48161255416414"><ele>32.33333333333333</ele><time>2026-04-06T10:14:20.999Z</time></trkpt><trkpt lat="43.42586783395468" lon="10.48157931171047"><ele>32.666666666666664</ele><time>2026-04-06T10:14:21.999Z</time></trkpt><trkpt lat="43.42567440073901" lon="10.481565976319764"><ele>33.0</ele><time>2026-04-06T10:14:22.999Z</time></trkpt><trkpt lat="43.42547852618476" lon="10.481552472622154"><ele>32.333333333333336</ele><time>2026-04-06T10:14:23.999Z</time></trkpt><trkpt lat="43.425281757016734" lon="10.481538566078028"><ele>31.666666666666668</ele><time>2026-04-06T10:14:24.999Z</time></trkpt><trkpt lat="43.425087517199806" lon="10.481524697957852"><ele>31.0</ele><time>2026-04-06T10:14:25.999Z</time></trkpt><trkpt lat="43.42489182651275" lon="10.481529658939248"><ele>31.0</ele><time>2026-04-06T10:14:26.999Z</time></trkpt><trkpt lat="43.4247002887963" lon="10.48151580098153"><ele>31.0</ele><time>2026-04-06T10:14:27.999Z</time></trkpt><trkpt lat="43.42450637132061" lon="10.481499969710724"><ele>31.0</ele><time>2026-04-06T10:14:28.999Z</time></trkpt><trkpt lat="43.4243141178863" lon="10.481483382133316"><ele>31.0</ele><time>2026-04-06T10:14:29.999Z</time></trkpt><trkpt lat="43.424130787212775" lon="10.48147027521242"><ele>31.0</ele><time>2026-04-06T10:14:30.999Z</time></trkpt><trkpt lat="43.423953222323654" lon="10.481457295031792"><ele>31.0</ele><time>2026-04-06T10:14:31.999Z</time></trkpt><trkpt lat="43.42378808999453" lon="10.481448798153247"><ele>31.333333333333336</ele><time>2026-04-06T10:14:32.999Z</time></trkpt><trkpt lat="43.42363367250168" lon="10.481448080797204"><ele>31.666666666666664</ele><time>2026-04-06T10:14:33.999Z</time></trkpt><trkpt lat="43.42348352032584" lon="10.48145516731201"><ele>32.0</ele><time>2026-04-06T10:14:34.999Z</time></trkpt><trkpt lat="43.4233304612906" lon="10.481468702043461"><ele>32.0</ele><time>2026-04-06T10:14:35.999Z</time></trkpt><trkpt lat="43.42317014377619" lon="10.48148864844495"><ele>32.0</ele><time>2026-04-06T10:14:36.999Z</time></trkpt><trkpt lat="43.42300847715709" lon="10.481517334411318"><ele>32.0</ele><time>2026-04-06T10:14:37.999Z</time></trkpt><trkpt lat="43.4228472549821" lon="10.481554728246067"><ele>31.666666666666664</ele><time>2026-04-06T10:14:38.999Z</time></trkpt><trkpt lat="43.42268307496527" lon="10.481598178477455"><ele>31.333333333333336</ele><time>2026-04-06T10:14:39.999Z</time></trkpt><trkpt lat="43.4225184399375" lon="10.481644464839247"><ele>31.0</ele><time>2026-04-06T10:14:40.999Z</time></trkpt><trkpt lat="43.42235902729751" lon="10.481692741349503"><ele>31.0</ele><time>2026-04-06T10:14:41.999Z</time></trkpt><trkpt lat="43.42219306645715" lon="10.481739133323796"><ele>31.0</ele><time>2026-04-06T10:14:42.999Z</time></trkpt><trkpt lat="43.42203322756888" lon="10.481783633507645"><ele>31.0</ele><time>2026-04-06T10:14:43.999Z</time></trkpt><trkpt lat="43.42187049727068" lon="10.481832885892759"><ele>31.666666666666668</ele><time>2026-04-06T10:14:44.999Z</time></trkpt><trkpt lat="43.421710507576975" lon="10.481881671290214"><ele>32.333333333333336</ele><time>2026-04-06T10:14:45.999Z</time></trkpt><trkpt lat="43.42155329675999" lon="10.48192687457453"><ele>33.0</ele><time>2026-04-06T10:14:46.999Z</time></trkpt><trkpt lat="43.4213971651616" lon="10.481972388328526"><ele>34.0</ele><time>2026-04-06T10:14:47.999Z</time></trkpt><trkpt lat="43.42124231607338" lon="10.482016656520447"><ele>35.0</ele><time>2026-04-06T10:14:48.999Z</time></trkpt><trkpt lat="43.42108850770711" lon="10.482062581634343"><ele>36.0</ele><time>2026-04-06T10:14:49.999Z</time></trkpt><trkpt lat="43.42093945364952" lon="10.482110107604107"><ele>34.0</ele><time>2026-04-06T10:14:50.999Z</time></trkpt><trkpt lat="43.42079618522376" lon="10.482149959805895"><ele>32.0</ele><time>2026-04-06T10:14:51.999Z</time></trkpt><trkpt lat="43.420642720791975" lon="10.48218685920811"><ele>30.0</ele><time>2026-04-06T10:14:52.999Z</time></trkpt><trkpt lat="43.42048796870495" lon="10.482215713625648"><ele>30.333333333333336</ele><time>2026-04-06T10:14:53.999Z</time></trkpt><trkpt lat="43.4203306382357" lon="10.48223329796476"><ele>30.666666666666668</ele><time>2026-04-06T10:14:54.999Z</time></trkpt><trkpt lat="43.420170067898695" lon="10.482234141847036"><ele>31.0</ele><time>2026-04-06T10:14:55.999Z</time></trkpt><trkpt lat="43.42001211880806" lon="10.48223054545579"><ele>31.0</ele><time>2026-04-06T10:14:56.999Z</time></trkpt><trkpt lat="43.419850986561066" lon="10.482207078857877"><ele>31.0</ele><time>2026-04-06T10:14:57.999Z</time></trkpt><trkpt lat="43.419684416657425" lon="10.482176571143022"><ele>31.0</ele><time>2026-04-06T10:14:58.999Z</time></trkpt><trkpt lat="43.41951165950103" lon="10.482146749976122"><ele>30.666666666666668</ele><time>2026-04-06T10:14:59.999Z</time></trkpt><trkpt lat="43.4193331119275" lon="10.482120150138872"><ele>30.333333333333336</ele><time>2026-04-06T10:15:00.999Z</time></trkpt><trkpt lat="43.419143259028694" lon="10.482067503159294"><ele>30.0</ele><time>2026-04-06T10:15:01.999Z</time></trkpt><trkpt lat="43.41895045400902" lon="10.482031947598111"><ele>32.0</ele><time>2026-04-06T10:15:02.999Z</time></trkpt><trkpt lat="43.41875310484291" lon="10.482015607774157"><ele>34.0</ele><time>2026-04-06T10:15:03.999Z</time></trkpt><trkpt lat="43.41856949534535" lon="10.481967103540509"><ele>36.0</ele><time>2026-04-06T10:15:04.999Z</time></trkpt><trkpt lat="43.41839696451549" lon="10.481934919139745"><ele>36.0</ele><time>2026-04-06T10:15:05.999Z</time></trkpt><trkpt lat="43.41822618035476" lon="10.48193884742187"><ele>36.0</ele><time>2026-04-06T10:15:06.999Z</time></trkpt><trkpt lat="43.418058438030606" lon="10.481976659334292"><ele>36.0</ele><time>2026-04-06T10:15:07.999Z</time></trkpt><trkpt lat="43.41789694724991" lon="10.482058968983205"><ele>36.0</ele><time>2026-04-06T10:15:08.999Z</time></trkpt><trkpt lat="43.41773801609861" lon="10.482167900728559"><ele>36.0</ele><time>2026-04-06T10:15:09.999Z</time></trkpt><trkpt lat="43.41759051510135" lon="10.482311030281702"><ele>36.0</ele><time>2026-04-06T10:15:10.999Z</time></trkpt><trkpt lat="43.417448855674685" lon="10.482457300470816"><ele>36.0</ele><time>2026-04-06T10:15:12Z</time></trkpt><trkpt lat="43.417306280548445" lon="10.482596519821945"><ele>36.0</ele><time>2026-04-06T10:15:13Z</time></trkpt><trkpt lat="43.417167187310426" lon="10.482721097886072"><ele>36.0</ele><time>2026-04-06T10:15:14Z</time></trkpt><trkpt lat="43.417025205552726" lon="10.482842668339885"><ele>35.333333333333336</ele><time>2026-04-06T10:15:15Z</time></trkpt><trkpt lat="43.41687435787131" lon="10.482974944078498"><ele>34.66666666666667</ele><time>2026-04-06T10:15:16Z</time></trkpt><trkpt lat="43.41672131606043" lon="10.483109531269749"><ele>34.0</ele><time>2026-04-06T10:15:17Z</time></trkpt><trkpt lat="43.41656737499804" lon="10.4832437864786"><ele>34.0</ele><time>2026-04-06T10:15:18Z</time></trkpt><trkpt lat="43.41642188682246" lon="10.483369002507798"><ele>34.0</ele><time>2026-04-06T10:15:19Z</time></trkpt><trkpt lat="43.41627912315432" lon="10.483493393594223"><ele>34.0</ele><time>2026-04-06T10:15:20Z</time></trkpt><trkpt lat="43.41614127462078" lon="10.48361313938694"><ele>33.333333333333336</ele><time>2026-04-06T10:15:21Z</time></trkpt><trkpt lat="43.41600350104827" lon="10.483734206052926"><ele>32.666666666666664</ele><time>2026-04-06T10:15:22Z</time></trkpt><trkpt lat="43.41586263187775" lon="10.483860134665857"><ele>32.0</ele><time>2026-04-06T10:15:23Z</time></trkpt><trkpt lat="43.41572117290251" lon="10.483985071327243"><ele>31.333333333333332</ele><time>2026-04-06T10:15:24Z</time></trkpt><trkpt lat="43.415580873740105" lon="10.484108704782306"><ele>30.666666666666664</ele><time>2026-04-06T10:15:25Z</time></trkpt><trkpt lat="43.41544019260398" lon="10.484230579853937"><ele>30.0</ele><time>2026-04-06T10:15:26Z</time></trkpt><trkpt lat="43.41529864635715" lon="10.484355996073111"><ele>30.0</ele><time>2026-04-06T10:15:27Z</time></trkpt><trkpt lat="43.41515044978243" lon="10.484485943408002"><ele>30.0</ele><time>2026-04-06T10:15:28Z</time></trkpt><trkpt lat="43.41500195958569" lon="10.484614207100375"><ele>30.0</ele><time>2026-04-06T10:15:29Z</time></trkpt><trkpt lat="43.41485140758775" lon="10.48474610768965"><ele>29.666666666666664</ele><time>2026-04-06T10:15:30Z</time></trkpt><trkpt lat="43.4147006377958" lon="10.48487893202285"><ele>29.333333333333332</ele><time>2026-04-06T10:15:31Z</time></trkpt><trkpt lat="43.41455660498428" lon="10.485004440042164"><ele>29.0</ele><time>2026-04-06T10:15:32Z</time></trkpt><trkpt lat="43.414414503156536" lon="10.48512767749321"><ele>29.0</ele><time>2026-04-06T10:15:33Z</time></trkpt><trkpt lat="43.41427692324329" lon="10.485248687908578"><ele>29.0</ele><time>2026-04-06T10:15:34Z</time></trkpt><trkpt lat="43.414138381802964" lon="10.48536886941814"><ele>29.0</ele><time>2026-04-06T10:15:35Z</time></trkpt><trkpt lat="43.41400317414812" lon="10.485487181511223"><ele>29.666666666666664</ele><time>2026-04-06T10:15:36Z</time></trkpt><trkpt lat="43.41386866941374" lon="10.48560644358258"><ele>30.333333333333336</ele><time>2026-04-06T10:15:37Z</time></trkpt><trkpt lat="43.413735785041375" lon="10.485727353293884"><ele>31.0</ele><time>2026-04-06T10:15:38Z</time></trkpt><trkpt lat="43.41360792674776" lon="10.485848329021023"><ele>31.0</ele><time>2026-04-06T10:15:39Z</time></trkpt><trkpt lat="43.41348512605696" lon="10.485989677674578"><ele>31.0</ele><time>2026-04-06T10:15:40Z</time></trkpt><trkpt lat="43.41337459227033" lon="10.48615090809251"><ele>31.0</ele><time>2026-04-06T10:15:41Z</time></trkpt><trkpt lat="43.41326654442344" lon="10.486327660026541"><ele>30.333333333333336</ele><time>2026-04-06T10:15:42Z</time></trkpt><trkpt lat="43.41316528843915" lon="10.486516980188657"><ele>29.666666666666664</ele><time>2026-04-06T10:15:43Z</time></trkpt><trkpt lat="43.41306210789307" lon="10.486710844504554"><ele>29.0</ele><time>2026-04-06T10:15:44Z</time></trkpt><trkpt lat="43.412955799816714" lon="10.486912440037345"><ele>29.0</ele><time>2026-04-06T10:15:45Z</time></trkpt><trkpt lat="43.41284457110501" lon="10.487120740592246"><ele>29.0</ele><time>2026-04-06T10:15:46Z</time></trkpt><trkpt lat="43.412722841050766" lon="10.487344721216912"><ele>29.0</ele><time>2026-04-06T10:15:47Z</time></trkpt><trkpt lat="43.41258880754258" lon="10.487577428362476"><ele>29.0</ele><time>2026-04-06T10:15:48Z</time></trkpt><trkpt lat="43.41245134535825" lon="10.487817251410915"><ele>29.0</ele><time>2026-04-06T10:15:49Z</time></trkpt><trkpt lat="43.412311471841505" lon="10.48805943102292"><ele>29.0</ele><time>2026-04-06T10:15:50Z</time></trkpt><trkpt lat="43.41217724654389" lon="10.48830495400355"><ele>29.333333333333332</ele><time>2026-04-06T10:15:51Z</time></trkpt><trkpt lat="43.41204859235412" lon="10.48853279313888"><ele>29.666666666666664</ele><time>2026-04-06T10:15:52Z</time></trkpt><trkpt lat="43.41193069994294" lon="10.488749526297237"><ele>30.0</ele><time>2026-04-06T10:15:53Z</time></trkpt><trkpt lat="43.41181240512169" lon="10.48894993391285"><ele>30.0</ele><time>2026-04-06T10:15:54Z</time></trkpt><trkpt lat="43.41168334488805" lon="10.489124902365358"><ele>30.0</ele><time>2026-04-06T10:15:55Z</time></trkpt><trkpt lat="43.41154287775245" lon="10.489275367341557"><ele>30.0</ele><time>2026-04-06T10:15:56Z</time></trkpt><trkpt lat="43.41139033740135" lon="10.48939556709538"><ele>28.0</ele><time>2026-04-06T10:15:56.999Z</time></trkpt><trkpt lat="43.41123207774952" lon="10.489489571100078"><ele>26.0</ele><time>2026-04-06T10:15:57.999Z</time></trkpt><trkpt lat="43.41106567628891" lon="10.48955757410702"><ele>24.0</ele><time>2026-04-06T10:15:58.999Z</time></trkpt><trkpt lat="43.410893118766" lon="10.489631637739448"><ele>24.0</ele><time>2026-04-06T10:15:59.999Z</time></trkpt><trkpt lat="43.41072809813274" lon="10.489711435679926"><ele>24.0</ele><time>2026-04-06T10:16:00.999Z</time></trkpt><trkpt lat="43.410566067766716" lon="10.489788492138818"><ele>24.0</ele><time>2026-04-06T10:16:01.999Z</time></trkpt><trkpt lat="43.41040260828095" lon="10.489861299004843"><ele>25.666666666666664</ele><time>2026-04-06T10:16:02.999Z</time></trkpt><trkpt lat="43.41024038126873" lon="10.489938804089498"><ele>27.333333333333332</ele><time>2026-04-06T10:16:03.999Z</time></trkpt><trkpt lat="43.41008126277584" lon="10.490017640741371"><ele>29.0</ele><time>2026-04-06T10:16:04.999Z</time></trkpt><trkpt lat="43.40992322353347" lon="10.490102653278564"><ele>29.0</ele><time>2026-04-06T10:16:05.999Z</time></trkpt><trkpt lat="43.40976666549488" lon="10.49019595626868"><ele>29.0</ele><time>2026-04-06T10:16:06.999Z</time></trkpt><trkpt lat="43.40961516327039" lon="10.490299942190662"><ele>29.0</ele><time>2026-04-06T10:16:07.999Z</time></trkpt><trkpt lat="43.40946146493509" lon="10.49040673199245"><ele>28.666666666666664</ele><time>2026-04-06T10:16:08.999Z</time></trkpt><trkpt lat="43.40931254581814" lon="10.490509290902523"><ele>28.333333333333336</ele><time>2026-04-06T10:16:09.999Z</time></trkpt><trkpt lat="43.409170503519746" lon="10.490605773525273"><ele>28.0</ele><time>2026-04-06T10:16:10.999Z</time></trkpt><trkpt lat="43.40903077297214" lon="10.490704228575744"><ele>28.0</ele><time>2026-04-06T10:16:11.999Z</time></trkpt><trkpt lat="43.40889372881296" lon="10.4908005526242"><ele>28.0</ele><time>2026-04-06T10:16:12.999Z</time></trkpt><trkpt lat="43.40875869744157" lon="10.490890771573502"><ele>28.0</ele><time>2026-04-06T10:16:13.999Z</time></trkpt><trkpt lat="43.408624749258536" lon="10.490985108983136"><ele>33.333333333333336</ele><time>2026-04-06T10:16:14.999Z</time></trkpt><trkpt lat="43.40848171533243" lon="10.49108356204676"><ele>38.666666666666664</ele><time>2026-04-06T10:16:15.999Z</time></trkpt><trkpt lat="43.408336287028675" lon="10.491176973754197"><ele>44.0</ele><time>2026-04-06T10:16:16.999Z</time></trkpt><trkpt lat="43.40819558468047" lon="10.49125381857335"><ele>39.33333333333333</ele><time>2026-04-06T10:16:17.999Z</time></trkpt><trkpt lat="43.40805029132391" lon="10.491321846313374"><ele>34.666666666666664</ele><time>2026-04-06T10:16:18.999Z</time></trkpt><trkpt lat="43.40789152856995" lon="10.491323407703952"><ele>30.0</ele><time>2026-04-06T10:16:19.999Z</time></trkpt><trkpt lat="43.40774203705918" lon="10.491350229687024"><ele>29.0</ele><time>2026-04-06T10:16:20.999Z</time></trkpt><trkpt lat="43.40759693138734" lon="10.491326589783098"><ele>28.0</ele><time>2026-04-06T10:16:21.999Z</time></trkpt><trkpt lat="43.40746248836731" lon="10.491294360295411"><ele>27.0</ele><time>2026-04-06T10:16:22.999Z</time></trkpt><trkpt lat="43.40734949219057" lon="10.49125421810253"><ele>26.0</ele><time>2026-04-06T10:16:23.999Z</time></trkpt><trkpt lat="43.40724185070453" lon="10.491209463836558"><ele>25.5</ele><time>2026-04-06T10:16:24.999Z</time></trkpt><trkpt lat="43.40712298620705" lon="10.49115356400755"><ele>25.0</ele><time>2026-04-06T10:16:25.999Z</time></trkpt><trkpt lat="43.40698508017231" lon="10.491091852976892"><ele>24.5</ele><time>2026-04-06T10:16:26.999Z</time></trkpt><trkpt lat="43.40683893706634" lon="10.491032643874924"><ele>24.0</ele><time>2026-04-06T10:16:27.999Z</time></trkpt><trkpt lat="43.406685664583094" lon="10.490970847040751"><ele>24.0</ele><time>2026-04-06T10:16:28.999Z</time></trkpt><trkpt lat="43.40652777247553" lon="10.490903948694173"><ele>24.0</ele><time>2026-04-06T10:16:29.999Z</time></trkpt><trkpt lat="43.40636570008203" lon="10.490827108642357"><ele>24.0</ele><time>2026-04-06T10:16:30.999Z</time></trkpt><trkpt lat="43.40619398669609" lon="10.490747710226593"><ele>25.666666666666664</ele><time>2026-04-06T10:16:31.999Z</time></trkpt><trkpt lat="43.40602614054443" lon="10.490671881848394"><ele>27.333333333333332</ele><time>2026-04-06T10:16:32.999Z</time></trkpt><trkpt lat="43.40584573440988" lon="10.490595131138992"><ele>29.0</ele><time>2026-04-06T10:16:33.999Z</time></trkpt><trkpt lat="43.40566581819367" lon="10.49051701338547"><ele>27.666666666666664</ele><time>2026-04-06T10:16:34.999Z</time></trkpt><trkpt lat="43.40548548099438" lon="10.490437497656366"><ele>26.333333333333336</ele><time>2026-04-06T10:16:35.999Z</time></trkpt><trkpt lat="43.4053009722864" lon="10.49036060968864"><ele>25.0</ele><time>2026-04-06T10:16:36.999Z</time></trkpt><trkpt lat="43.40511955884" lon="10.49028631410345"><ele>25.0</ele><time>2026-04-06T10:16:37.999Z</time></trkpt><trkpt lat="43.40493760842736" lon="10.490223995832045"><ele>25.0</ele><time>2026-04-06T10:16:38.999Z</time></trkpt><trkpt lat="43.40475527760164" lon="10.490171999758793"><ele>25.0</ele><time>2026-04-06T10:16:39.999Z</time></trkpt><trkpt lat="43.40456558863275" lon="10.490136158272382"><ele>24.333333333333336</ele><time>2026-04-06T10:16:40.999Z</time></trkpt><trkpt lat="43.404380539622764" lon="10.49011968087235"><ele>23.666666666666668</ele><time>2026-04-06T10:16:41.999Z</time></trkpt><trkpt lat="43.40419267280936" lon="10.490122629203885"><ele>23.0</ele><time>2026-04-06T10:16:42.999Z</time></trkpt><trkpt lat="43.40400311194491" lon="10.490145304165637"><ele>23.0</ele><time>2026-04-06T10:16:43.999Z</time></trkpt><trkpt lat="43.40381427979244" lon="10.49018236749686"><ele>23.0</ele><time>2026-04-06T10:16:44.999Z</time></trkpt><trkpt lat="43.403625893828945" lon="10.490221398053945"><ele>23.0</ele><time>2026-04-06T10:16:45.999Z</time></trkpt><trkpt lat="43.40343655981122" lon="10.490262191800836"><ele>23.0</ele><time>2026-04-06T10:16:46.999Z</time></trkpt><trkpt lat="43.40324557850808" lon="10.490308108545321"><ele>23.0</ele><time>2026-04-06T10:16:47.999Z</time></trkpt><trkpt lat="43.4030586948411" lon="10.490376906710075"><ele>23.0</ele><time>2026-04-06T10:16:48.999Z</time></trkpt><trkpt lat="43.402878580627686" lon="10.490487510990148"><ele>22.333333333333336</ele><time>2026-04-06T10:16:49.999Z</time></trkpt><trkpt lat="43.40271587919577" lon="10.490644940417907"><ele>21.666666666666668</ele><time>2026-04-06T10:16:50.999Z</time></trkpt><trkpt lat="43.40257167158594" lon="10.490833646925273"><ele>21.0</ele><time>2026-04-06T10:16:51.999Z</time></trkpt><trkpt lat="43.40243730556939" lon="10.49104582429222"><ele>20.333333333333332</ele><time>2026-04-06T10:16:52.999Z</time></trkpt><trkpt lat="43.4023008982053" lon="10.491267191924244"><ele>19.666666666666664</ele><time>2026-04-06T10:16:53.999Z</time></trkpt><trkpt lat="43.402161644449116" lon="10.491483058542206"><ele>19.0</ele><time>2026-04-06T10:16:54.999Z</time></trkpt><trkpt lat="43.40202158980712" lon="10.491696132048096"><ele>19.0</ele><time>2026-04-06T10:16:55.999Z</time></trkpt><trkpt lat="43.40188460036097" lon="10.491904069749676"><ele>19.0</ele><time>2026-04-06T10:16:56.999Z</time></trkpt><trkpt lat="43.40175166922188" lon="10.492105725405722"><ele>19.0</ele><time>2026-04-06T10:16:57.999Z</time></trkpt><trkpt lat="43.40162448105595" lon="10.492300184356509"><ele>19.0</ele><time>2026-04-06T10:16:58.999Z</time></trkpt><trkpt lat="43.401496299159014" lon="10.492494066816164"><ele>19.0</ele><time>2026-04-06T10:16:59.999Z</time></trkpt><trkpt lat="43.401373055931074" lon="10.49268480126116"><ele>19.0</ele><time>2026-04-06T10:17:00.999Z</time></trkpt><trkpt lat="43.40125368330875" lon="10.49286566076101"><ele>18.333333333333332</ele><time>2026-04-06T10:17:01.999Z</time></trkpt><trkpt lat="43.40113177062577" lon="10.493045346278167"><ele>17.666666666666668</ele><time>2026-04-06T10:17:02.999Z</time></trkpt><trkpt lat="43.401009432871945" lon="10.493222347544865"><ele>17.0</ele><time>2026-04-06T10:17:03.999Z</time></trkpt><trkpt lat="43.400887622772835" lon="10.493406359080694"><ele>17.0</ele><time>2026-04-06T10:17:04.999Z</time></trkpt><trkpt lat="43.40076528462475" lon="10.493589232659279"><ele>17.0</ele><time>2026-04-06T10:17:05.999Z</time></trkpt><trkpt lat="43.4006522891867" lon="10.493756756749754"><ele>17.0</ele><time>2026-04-06T10:17:06.999Z</time></trkpt><trkpt lat="43.40055231792103" lon="10.493903823822688"><ele>17.5</ele><time>2026-04-06T10:17:07.999Z</time></trkpt><trkpt lat="43.40046780823296" lon="10.494031535943423"><ele>18.0</ele><time>2026-04-06T10:17:08.999Z</time></trkpt><trkpt lat="43.40039052215676" lon="10.494149057418571"><ele>18.5</ele><time>2026-04-06T10:17:09.999Z</time></trkpt><trkpt lat="43.400314909886426" lon="10.49426598939907"><ele>19.0</ele><time>2026-04-06T10:17:10.999Z</time></trkpt><trkpt lat="43.40023311355819" lon="10.494394793336134"><ele>19.0</ele><time>2026-04-06T10:17:11.999Z</time></trkpt><trkpt lat="43.40014673280679" lon="10.494530870532817"><ele>19.0</ele><time>2026-04-06T10:17:12.999Z</time></trkpt><trkpt lat="43.40005365534536" lon="10.494671739926872"><ele>19.0</ele><time>2026-04-06T10:17:13.999Z</time></trkpt><trkpt lat="43.39995477513755" lon="10.494818277244363"><ele>19.0</ele><time>2026-04-06T10:17:14.999Z</time></trkpt><trkpt lat="43.39985354548831" lon="10.494965918369171"><ele>19.0</ele><time>2026-04-06T10:17:15.999Z</time></trkpt><trkpt lat="43.39974764897125" lon="10.495112088616805"><ele>19.0</ele><time>2026-04-06T10:17:16.999Z</time></trkpt><trkpt lat="43.39963837844531" lon="10.495249542348246"><ele>19.0</ele><time>2026-04-06T10:17:18Z</time></trkpt><trkpt lat="43.399525000691305" lon="10.49537761351333"><ele>19.0</ele><time>2026-04-06T10:17:19Z</time></trkpt><trkpt lat="43.399408514520694" lon="10.495491320861479"><ele>19.25</ele><time>2026-04-06T10:17:20Z</time></trkpt><trkpt lat="43.39929590799067" lon="10.49558918071437"><ele>19.5</ele><time>2026-04-06T10:17:21Z</time></trkpt><trkpt lat="43.39918813825253" lon="10.495676871995665"><ele>19.75</ele><time>2026-04-06T10:17:22Z</time></trkpt><trkpt lat="43.3990848586556" lon="10.495751066391017"><ele>20.0</ele><time>2026-04-06T10:17:23Z</time></trkpt><trkpt lat="43.39898563118748" lon="10.495813326986527"><ele>20.0</ele><time>2026-04-06T10:17:24Z</time></trkpt><trkpt lat="43.39890234389759" lon="10.495861325296124"><ele>20.0</ele><time>2026-04-06T10:17:25Z</time></trkpt><trkpt lat="43.3988199660401" lon="10.495905915777739"><ele>20.0</ele><time>2026-04-06T10:17:26Z</time></trkpt><trkpt lat="43.398742904942196" lon="10.495945992470473"><ele>20.0</ele><time>2026-04-06T10:17:27Z</time></trkpt><trkpt lat="43.398665255612016" lon="10.495984064061611"><ele>20.0</ele><time>2026-04-06T10:17:28Z</time></trkpt><trkpt lat="43.39857023840454" lon="10.496022527328956"><ele>20.0</ele><time>2026-04-06T10:17:29Z</time></trkpt><trkpt lat="43.39846255064027" lon="10.496054756303323"><ele>19.6</ele><time>2026-04-06T10:17:30Z</time></trkpt><trkpt lat="43.39834014798163" lon="10.496077468219829"><ele>19.2</ele><time>2026-04-06T10:17:31Z</time></trkpt><trkpt lat="43.3982306536952" lon="10.496081264546202"><ele>18.8</ele><time>2026-04-06T10:17:32Z</time></trkpt><trkpt lat="43.39812795284901" lon="10.496087919164603"><ele>18.4</ele><time>2026-04-06T10:17:33Z</time></trkpt><trkpt lat="43.39802903620652" lon="10.49610772264533"><ele>18.0</ele><time>2026-04-06T10:17:34Z</time></trkpt><trkpt lat="43.39792489294223" lon="10.49611788103483"><ele>18.0</ele><time>2026-04-06T10:17:35Z</time></trkpt><trkpt lat="43.397814477930034" lon="10.496114225551615"><ele>18.0</ele><time>2026-04-06T10:17:36Z</time></trkpt><trkpt lat="43.397697238544836" lon="10.496105093794764"><ele>18.0</ele><time>2026-04-06T10:17:37Z</time></trkpt><trkpt lat="43.39757242149399" lon="10.496090391499806"><ele>18.0</ele><time>2026-04-06T10:17:38Z</time></trkpt><trkpt lat="43.397444538260665" lon="10.496078775078297"><ele>18.0</ele><time>2026-04-06T10:17:39Z</time></trkpt><trkpt lat="43.39731330123288" lon="10.496070238548977"><ele>18.0</ele><time>2026-04-06T10:17:40Z</time></trkpt><trkpt lat="43.397182714224925" lon="10.496066782677326"><ele>18.0</ele><time>2026-04-06T10:17:41Z</time></trkpt><trkpt lat="43.39706105974846" lon="10.49605943902634"><ele>18.0</ele><time>2026-04-06T10:17:42Z</time></trkpt><trkpt lat="43.39694626249819" lon="10.496052404293717"><ele>18.2</ele><time>2026-04-06T10:17:43Z</time></trkpt><trkpt lat="43.396832801839736" lon="10.496041443449883"><ele>18.4</ele><time>2026-04-06T10:17:44Z</time></trkpt><trkpt lat="43.3967231213393" lon="10.496030221349265"><ele>18.599999999999998</ele><time>2026-04-06T10:17:45Z</time></trkpt><trkpt lat="43.39661512653188" lon="10.496016815113471"><ele>18.8</ele><time>2026-04-06T10:17:46Z</time></trkpt><trkpt lat="43.396507634246525" lon="10.49600729117419"><ele>19.0</ele><time>2026-04-06T10:17:47Z</time></trkpt><trkpt lat="43.3963989838375" lon="10.496002872713246"><ele>20.0</ele><time>2026-04-06T10:17:48Z</time></trkpt><trkpt lat="43.39628901395199" lon="10.496011620575084"><ele>21.0</ele><time>2026-04-06T10:17:49Z</time></trkpt><trkpt lat="43.396173525733914" lon="10.496046764420127"><ele>22.0</ele><time>2026-04-06T10:17:50Z</time></trkpt><trkpt lat="43.39605950420095" lon="10.496116116633678"><ele>23.0</ele><time>2026-04-06T10:17:51Z</time></trkpt><trkpt lat="43.39595716365599" lon="10.496215305621282"><ele>22.75</ele><time>2026-04-06T10:17:52Z</time></trkpt><trkpt lat="43.39586794569972" lon="10.496343285800124"><ele>22.5</ele><time>2026-04-06T10:17:53Z</time></trkpt><trkpt lat="43.395784898937464" lon="10.496481975636245"><ele>22.25</ele><time>2026-04-06T10:17:54Z</time></trkpt><trkpt lat="43.39572168236956" lon="10.49664720342586"><ele>22.0</ele><time>2026-04-06T10:17:55Z</time></trkpt><trkpt lat="43.395679135362386" lon="10.496821300909092"><ele>22.0</ele><time>2026-04-06T10:17:56Z</time></trkpt><trkpt lat="43.39565372920291" lon="10.4970008550594"><ele>22.0</ele><time>2026-04-06T10:17:57Z</time></trkpt><trkpt lat="43.39564997473915" lon="10.49718086430749"><ele>22.0</ele><time>2026-04-06T10:17:58Z</time></trkpt><trkpt lat="43.39564888441084" lon="10.497353632854326"><ele>22.0</ele><time>2026-04-06T10:17:59Z</time></trkpt><trkpt lat="43.39564736656651" lon="10.497516770856958"><ele>22.5</ele><time>2026-04-06T10:18:00Z</time></trkpt><trkpt lat="43.395638729729754" lon="10.497690431434954"><ele>23.0</ele><time>2026-04-06T10:18:01Z</time></trkpt><trkpt lat="43.3956294147801" lon="10.49785470409334"><ele>23.5</ele><time>2026-04-06T10:18:01.999Z</time></trkpt><trkpt lat="43.395617529409584" lon="10.498025465698149"><ele>24.0</ele><time>2026-04-06T10:18:02.999Z</time></trkpt><trkpt lat="43.39558848472251" lon="10.498196679893868"><ele>24.0</ele><time>2026-04-06T10:18:03.999Z</time></trkpt><trkpt lat="43.39553996124332" lon="10.498361797587105"><ele>24.0</ele><time>2026-04-06T10:18:04.999Z</time></trkpt><trkpt lat="43.39546540239329" lon="10.498522590655233"><ele>24.0</ele><time>2026-04-06T10:18:05.999Z</time></trkpt><trkpt lat="43.39537195700751" lon="10.498668733538532"><ele>24.0</ele><time>2026-04-06T10:18:06.999Z</time></trkpt><trkpt lat="43.395265798947285" lon="10.498807886756751"><ele>27.666666666666664</ele><time>2026-04-06T10:18:07.999Z</time></trkpt><trkpt lat="43.39515464523697" lon="10.498945871687974"><ele>31.333333333333332</ele><time>2026-04-06T10:18:08.999Z</time></trkpt><trkpt lat="43.395041143260094" lon="10.49908686436767"><ele>35.0</ele><time>2026-04-06T10:18:09.999Z</time></trkpt><trkpt lat="43.39492657895385" lon="10.499232074546216"><ele>35.0</ele><time>2026-04-06T10:18:10.999Z</time></trkpt><trkpt lat="43.39480763232942" lon="10.499385731567996"><ele>35.0</ele><time>2026-04-06T10:18:11.999Z</time></trkpt><trkpt lat="43.39468690914655" lon="10.499540619997948"><ele>35.0</ele><time>2026-04-06T10:18:12.999Z</time></trkpt><trkpt lat="43.39456528102519" lon="10.499693896504397"><ele>37.33333333333333</ele><time>2026-04-06T10:18:13.999Z</time></trkpt><trkpt lat="43.394444682401314" lon="10.499848962744142"><ele>39.666666666666664</ele><time>2026-04-06T10:18:14.999Z</time></trkpt><trkpt lat="43.39432109613117" lon="10.500005990732232"><ele>42.0</ele><time>2026-04-06T10:18:15.999Z</time></trkpt><trkpt lat="43.394195286946164" lon="10.5001655201954"><ele>42.0</ele><time>2026-04-06T10:18:16.999Z</time></trkpt><trkpt lat="43.394066841284506" lon="10.500327031689155"><ele>42.0</ele><time>2026-04-06T10:18:17.999Z</time></trkpt><trkpt lat="43.39393482375783" lon="10.500481383864617"><ele>42.0</ele><time>2026-04-06T10:18:18.999Z</time></trkpt><trkpt lat="43.393793024940244" lon="10.500609855581827"><ele>41.333333333333336</ele><time>2026-04-06T10:18:19.999Z</time></trkpt><trkpt lat="43.39363361769893" lon="10.50070690625688"><ele>40.66666666666667</ele><time>2026-04-06T10:18:20.999Z</time></trkpt><trkpt lat="43.393471750400124" lon="10.500748395270309"><ele>40.0</ele><time>2026-04-06T10:18:21.999Z</time></trkpt><trkpt lat="43.39330973915668" lon="10.500736704870587"><ele>40.0</ele><time>2026-04-06T10:18:22.999Z</time></trkpt><trkpt lat="43.393151716961235" lon="10.500746254757555"><ele>40.0</ele><time>2026-04-06T10:18:23.999Z</time></trkpt><trkpt lat="43.392993076428645" lon="10.500718173144229"><ele>40.0</ele><time>2026-04-06T10:18:24.999Z</time></trkpt><trkpt lat="43.392820925736" lon="10.500689125777646"><ele>38.333333333333336</ele><time>2026-04-06T10:18:25.999Z</time></trkpt><trkpt lat="43.39265188355362" lon="10.500666984309834"><ele>36.666666666666664</ele><time>2026-04-06T10:18:26.999Z</time></trkpt><trkpt lat="43.39247758482382" lon="10.500650754729486"><ele>35.0</ele><time>2026-04-06T10:18:27.999Z</time></trkpt><trkpt lat="43.39229968152698" lon="10.500633594377799"><ele>34.666666666666664</ele><time>2026-04-06T10:18:28.999Z</time></trkpt><trkpt lat="43.39211823328175" lon="10.500612583940825"><ele>34.333333333333336</ele><time>2026-04-06T10:18:29.999Z</time></trkpt><trkpt lat="43.39193275578441" lon="10.500591391571753"><ele>34.0</ele><time>2026-04-06T10:18:30.999Z</time></trkpt><trkpt lat="43.39174842545976" lon="10.50057555541052"><ele>34.0</ele><time>2026-04-06T10:18:31.999Z</time></trkpt><trkpt lat="43.39156769728699" lon="10.500560323666376"><ele>34.0</ele><time>2026-04-06T10:18:32.999Z</time></trkpt><trkpt lat="43.391390806852755" lon="10.500537592886385"><ele>34.0</ele><time>2026-04-06T10:18:33.999Z</time></trkpt><trkpt lat="43.39121739752995" lon="10.50049054447568"><ele>35.0</ele><time>2026-04-06T10:18:34.999Z</time></trkpt><trkpt lat="43.39106269839514" lon="10.500408307633355"><ele>36.0</ele><time>2026-04-06T10:18:35.999Z</time></trkpt><trkpt lat="43.39090729177853" lon="10.50028987832017"><ele>37.0</ele><time>2026-04-06T10:18:36.999Z</time></trkpt><trkpt lat="43.39075243371673" lon="10.500146766649685"><ele>37.0</ele><time>2026-04-06T10:18:37.999Z</time></trkpt><trkpt lat="43.390609169751066" lon="10.499993233142103"><ele>37.0</ele><time>2026-04-06T10:18:38.999Z</time></trkpt><trkpt lat="43.390467716780186" lon="10.49983638781524"><ele>37.0</ele><time>2026-04-06T10:18:39.999Z</time></trkpt><trkpt lat="43.39032618910812" lon="10.499692787015421"><ele>35.0</ele><time>2026-04-06T10:18:40.999Z</time></trkpt><trkpt lat="43.39017482124098" lon="10.499579604056573"><ele>33.0</ele><time>2026-04-06T10:18:41.999Z</time></trkpt><trkpt lat="43.39000986965196" lon="10.499492839839348"><ele>31.0</ele><time>2026-04-06T10:18:42.999Z</time></trkpt><trkpt lat="43.38983430666238" lon="10.499436037376011"><ele>29.666666666666668</ele><time>2026-04-06T10:18:43.999Z</time></trkpt><trkpt lat="43.389650194882066" lon="10.499419666572221"><ele>28.333333333333336</ele><time>2026-04-06T10:18:44.999Z</time></trkpt><trkpt lat="43.38945987856163" lon="10.499436402570872"><ele>27.0</ele><time>2026-04-06T10:18:45.999Z</time></trkpt><trkpt lat="43.38926949785718" lon="10.499463685210824"><ele>27.0</ele><time>2026-04-06T10:18:46.999Z</time></trkpt><trkpt lat="43.38906883735205" lon="10.499486023719285"><ele>27.0</ele><time>2026-04-06T10:18:47.999Z</time></trkpt><trkpt lat="43.388873303800935" lon="10.499503130014382"><ele>27.0</ele><time>2026-04-06T10:18:48.999Z</time></trkpt><trkpt lat="43.38868181374784" lon="10.49951286426374"><ele>26.666666666666664</ele><time>2026-04-06T10:18:49.999Z</time></trkpt><trkpt lat="43.38849665009305" lon="10.499525242638567"><ele>26.333333333333332</ele><time>2026-04-06T10:18:50.999Z</time></trkpt><trkpt lat="43.38831360338687" lon="10.499536104395398"><ele>26.0</ele><time>2026-04-06T10:18:51.999Z</time></trkpt><trkpt lat="43.38813847856049" lon="10.499550146121434"><ele>27.333333333333332</ele><time>2026-04-06T10:18:52.999Z</time></trkpt><trkpt lat="43.38797053071886" lon="10.499559334512224"><ele>28.666666666666664</ele><time>2026-04-06T10:18:53.999Z</time></trkpt><trkpt lat="43.3878021796312" lon="10.499566504037004"><ele>30.0</ele><time>2026-04-06T10:18:54.999Z</time></trkpt><trkpt lat="43.38764007620272" lon="10.499577598380805"><ele>31.0</ele><time>2026-04-06T10:18:55.999Z</time></trkpt><trkpt lat="43.38747601562354" lon="10.499590579098474"><ele>32.0</ele><time>2026-04-06T10:18:56.999Z</time></trkpt><trkpt lat="43.387316019754344" lon="10.499607096929642"><ele>33.0</ele><time>2026-04-06T10:18:57.999Z</time></trkpt><trkpt lat="43.38715715178849" lon="10.499623638119274"><ele>34.333333333333336</ele><time>2026-04-06T10:18:58.999Z</time></trkpt><trkpt lat="43.386997197565755" lon="10.499638466755474"><ele>35.66666666666667</ele><time>2026-04-06T10:18:59.999Z</time></trkpt><trkpt lat="43.38683363455253" lon="10.499651536219417"><ele>37.0</ele><time>2026-04-06T10:19:00.999Z</time></trkpt><trkpt lat="43.3866720234842" lon="10.499665823223921"><ele>37.0</ele><time>2026-04-06T10:19:01.999Z</time></trkpt><trkpt lat="43.3865085280594" lon="10.499680976115483"><ele>37.0</ele><time>2026-04-06T10:19:02.999Z</time></trkpt><trkpt lat="43.38634667362934" lon="10.499694959412919"><ele>37.0</ele><time>2026-04-06T10:19:03.999Z</time></trkpt><trkpt lat="43.38618070500533" lon="10.4997116530424"><ele>39.0</ele><time>2026-04-06T10:19:04.999Z</time></trkpt><trkpt lat="43.38601958234216" lon="10.499726618691366"><ele>41.0</ele><time>2026-04-06T10:19:05.999Z</time></trkpt><trkpt lat="43.38586096883023" lon="10.499747163589428"><ele>43.0</ele><time>2026-04-06T10:19:06.999Z</time></trkpt><trkpt lat="43.38571153504076" lon="10.499761636844472"><ele>43.0</ele><time>2026-04-06T10:19:07.999Z</time></trkpt><trkpt lat="43.385575736684686" lon="10.499768571204191"><ele>43.0</ele><time>2026-04-06T10:19:08.999Z</time></trkpt><trkpt lat="43.38545108682395" lon="10.499752956700254"><ele>43.0</ele><time>2026-04-06T10:19:09.999Z</time></trkpt><trkpt lat="43.38532788017391" lon="10.499711693232586"><ele>43.0</ele><time>2026-04-06T10:19:10.999Z</time></trkpt><trkpt lat="43.38521151910171" lon="10.499619429246529"><ele>44.75</ele><time>2026-04-06T10:19:11.999Z</time></trkpt><trkpt lat="43.38510935708729" lon="10.499497375629101"><ele>46.5</ele><time>2026-04-06T10:19:12.999Z</time></trkpt><trkpt lat="43.38505694126885" lon="10.4993250105952"><ele>48.25</ele><time>2026-04-06T10:19:13.999Z</time></trkpt><trkpt lat="43.38500216952594" lon="10.499154340162011"><ele>50.0</ele><time>2026-04-06T10:19:14.999Z</time></trkpt><trkpt lat="43.38498695717079" lon="10.498971892711547"><ele>50.0</ele><time>2026-04-06T10:19:15.999Z</time></trkpt><trkpt lat="43.384976069770666" lon="10.498779453300028"><ele>50.0</ele><time>2026-04-06T10:19:16.999Z</time></trkpt><trkpt lat="43.38498683089539" lon="10.498600866285683"><ele>50.0</ele><time>2026-04-06T10:19:17.999Z</time></trkpt><trkpt lat="43.38498633955807" lon="10.498416880699903"><ele>50.0</ele><time>2026-04-06T10:19:18.999Z</time></trkpt><trkpt lat="43.38496452048337" lon="10.4982291086094"><ele>50.0</ele><time>2026-04-06T10:19:19.999Z</time></trkpt><trkpt lat="43.38491979952035" lon="10.498049196120954"><ele>50.0</ele><time>2026-04-06T10:19:20.999Z</time></trkpt><trkpt lat="43.38484730093477" lon="10.497875735832077"><ele>50.0</ele><time>2026-04-06T10:19:21.999Z</time></trkpt><trkpt lat="43.384745005402934" lon="10.497726477162663"><ele>50.0</ele><time>2026-04-06T10:19:22.999Z</time></trkpt><trkpt lat="43.384618413019226" lon="10.49760762589686"><ele>53.333333333333336</ele><time>2026-04-06T10:19:24Z</time></trkpt><trkpt lat="43.38447407065329" lon="10.497534086243805"><ele>56.66666666666667</ele><time>2026-04-06T10:19:25Z</time></trkpt><trkpt lat="43.384310553634194" lon="10.49750581849592"><ele>60.0</ele><time>2026-04-06T10:19:26Z</time></trkpt><trkpt lat="43.38414543550253" lon="10.497503623517586"><ele>60.0</ele><time>2026-04-06T10:19:27Z</time></trkpt><trkpt lat="43.38398193422149" lon="10.497492509048836"><ele>60.0</ele><time>2026-04-06T10:19:28Z</time></trkpt><trkpt lat="43.38381554934495" lon="10.497468243719974"><ele>60.0</ele><time>2026-04-06T10:19:29Z</time></trkpt><trkpt lat="43.3836466139809" lon="10.497441003516181"><ele>61.0</ele><time>2026-04-06T10:19:30Z</time></trkpt><trkpt lat="43.38347535874553" lon="10.49742091229439"><ele>62.0</ele><time>2026-04-06T10:19:31Z</time></trkpt><trkpt lat="43.38330404503821" lon="10.497422211924365"><ele>63.0</ele><time>2026-04-06T10:19:32Z</time></trkpt><trkpt lat="43.38312951280251" lon="10.49744542460572"><ele>63.66666666666667</ele><time>2026-04-06T10:19:33Z</time></trkpt><trkpt lat="43.38295474298433" lon="10.49748575295505"><ele>64.33333333333334</ele><time>2026-04-06T10:19:34Z</time></trkpt><trkpt lat="43.382783621013665" lon="10.497548027816489"><ele>65.0</ele><time>2026-04-06T10:19:35Z</time></trkpt><trkpt lat="43.3826217399823" lon="10.497636587955446"><ele>65.0</ele><time>2026-04-06T10:19:36Z</time></trkpt><trkpt lat="43.3824628720472" lon="10.497744363031979"><ele>65.0</ele><time>2026-04-06T10:19:37Z</time></trkpt><trkpt lat="43.38230741062132" lon="10.497865305488826"><ele>65.0</ele><time>2026-04-06T10:19:38Z</time></trkpt><trkpt lat="43.38215611554918" lon="10.497997026857169"><ele>64.33333333333334</ele><time>2026-04-06T10:19:39Z</time></trkpt><trkpt lat="43.38201170026045" lon="10.498139524211904"><ele>63.66666666666667</ele><time>2026-04-06T10:19:40Z</time></trkpt><trkpt lat="43.381875947512924" lon="10.49828790917498"><ele>63.0</ele><time>2026-04-06T10:19:41Z</time></trkpt><trkpt lat="43.381753244168756" lon="10.498439195751407"><ele>63.0</ele><time>2026-04-06T10:19:42Z</time></trkpt><trkpt lat="43.38163618325287" lon="10.498590289938429"><ele>63.0</ele><time>2026-04-06T10:19:43Z</time></trkpt><trkpt lat="43.38152568953371" lon="10.498737508132356"><ele>63.0</ele><time>2026-04-06T10:19:44Z</time></trkpt><trkpt lat="43.38142298282478" lon="10.49887220370828"><ele>62.75</ele><time>2026-04-06T10:19:45Z</time></trkpt><trkpt lat="43.38131933694978" lon="10.499000670827696"><ele>62.5</ele><time>2026-04-06T10:19:46Z</time></trkpt><trkpt lat="43.381218796782775" lon="10.499123297730987"><ele>62.25</ele><time>2026-04-06T10:19:47Z</time></trkpt><trkpt lat="43.38112032200806" lon="10.499244549055863"><ele>62.0</ele><time>2026-04-06T10:19:48Z</time></trkpt><trkpt lat="43.381019954445065" lon="10.499369015317763"><ele>62.0</ele><time>2026-04-06T10:19:49Z</time></trkpt><trkpt lat="43.38090619460029" lon="10.499503064199944"><ele>62.0</ele><time>2026-04-06T10:19:50Z</time></trkpt><trkpt lat="43.380789052058155" lon="10.499630884384322"><ele>62.0</ele><time>2026-04-06T10:19:51Z</time></trkpt><trkpt lat="43.380666575181394" lon="10.499764991219793"><ele>63.0</ele><time>2026-04-06T10:19:52Z</time></trkpt><trkpt lat="43.38054517926086" lon="10.499896457939114"><ele>64.0</ele><time>2026-04-06T10:19:53Z</time></trkpt><trkpt lat="43.38042339427569" lon="10.500025935048614"><ele>65.0</ele><time>2026-04-06T10:19:54Z</time></trkpt><trkpt lat="43.38030100572062" lon="10.500157446084941"><ele>63.0</ele><time>2026-04-06T10:19:55Z</time></trkpt><trkpt lat="43.38017608635913" lon="10.500294045407305"><ele>61.0</ele><time>2026-04-06T10:19:56Z</time></trkpt><trkpt lat="43.380043570962876" lon="10.500430630536709"><ele>59.0</ele><time>2026-04-06T10:19:57Z</time></trkpt><trkpt lat="43.37990999181729" lon="10.500569196454192"><ele>59.0</ele><time>2026-04-06T10:19:58Z</time></trkpt><trkpt lat="43.37976824801063" lon="10.500712987015056"><ele>59.0</ele><time>2026-04-06T10:19:59Z</time></trkpt><trkpt lat="43.37962754409002" lon="10.500858933617897"><ele>59.0</ele><time>2026-04-06T10:20:00Z</time></trkpt><trkpt lat="43.379483515904006" lon="10.501010182120233"><ele>57.66666666666667</ele><time>2026-04-06T10:20:01Z</time></trkpt><trkpt lat="43.37934004207268" lon="10.501164889352006"><ele>56.33333333333333</ele><time>2026-04-06T10:20:02Z</time></trkpt><trkpt lat="43.37919674114635" lon="10.501318571281136"><ele>55.0</ele><time>2026-04-06T10:20:03Z</time></trkpt><trkpt lat="43.37905550480569" lon="10.501470065496115"><ele>55.0</ele><time>2026-04-06T10:20:04Z</time></trkpt><trkpt lat="43.378913588104446" lon="10.501618007854576"><ele>55.0</ele><time>2026-04-06T10:20:05Z</time></trkpt><trkpt lat="43.378772945453164" lon="10.501763871933427"><ele>55.0</ele><time>2026-04-06T10:20:06Z</time></trkpt><trkpt lat="43.378631468627724" lon="10.501905552572246"><ele>55.33333333333333</ele><time>2026-04-06T10:20:06.999Z</time></trkpt><trkpt lat="43.37848633753256" lon="10.502037380371725"><ele>55.66666666666667</ele><time>2026-04-06T10:20:07.999Z</time></trkpt><trkpt lat="43.37833628470149" lon="10.50215666678938"><ele>56.0</ele><time>2026-04-06T10:20:08.999Z</time></trkpt><trkpt lat="43.37818451709321" lon="10.502262847181278"><ele>56.0</ele><time>2026-04-06T10:20:09.999Z</time></trkpt><trkpt lat="43.37802786382011" lon="10.502359973168218"><ele>56.0</ele><time>2026-04-06T10:20:10.999Z</time></trkpt><trkpt lat="43.377866675276756" lon="10.502447253999062"><ele>56.0</ele><time>2026-04-06T10:20:11.999Z</time></trkpt><trkpt lat="43.37770261568237" lon="10.50252742799334"><ele>55.0</ele><time>2026-04-06T10:20:12.999Z</time></trkpt><trkpt lat="43.377538697415496" lon="10.502599225148526"><ele>54.0</ele><time>2026-04-06T10:20:13.999Z</time></trkpt><trkpt lat="43.377373573533355" lon="10.502661493880861"><ele>53.0</ele><time>2026-04-06T10:20:14.999Z</time></trkpt><trkpt lat="43.377205233415424" lon="10.502708256727761"><ele>53.333333333333336</ele><time>2026-04-06T10:20:15.999Z</time></trkpt><trkpt lat="43.377038088167396" lon="10.502740274424571"><ele>53.66666666666667</ele><time>2026-04-06T10:20:16.999Z</time></trkpt><trkpt lat="43.37687191549914" lon="10.502759983573165"><ele>54.0</ele><time>2026-04-06T10:20:17.999Z</time></trkpt><trkpt lat="43.37670655591785" lon="10.502771638585893"><ele>54.0</ele><time>2026-04-06T10:20:18.999Z</time></trkpt><trkpt lat="43.37654580961312" lon="10.502780412546066"><ele>54.0</ele><time>2026-04-06T10:20:19.999Z</time></trkpt><trkpt lat="43.37638901280082" lon="10.502787476022212"><ele>54.0</ele><time>2026-04-06T10:20:20.999Z</time></trkpt><trkpt lat="43.37623822901299" lon="10.502798524666968"><ele>53.6</ele><time>2026-04-06T10:20:21.999Z</time></trkpt><trkpt lat="43.376111780059006" lon="10.502805101872802"><ele>53.2</ele><time>2026-04-06T10:20:22.999Z</time></trkpt><trkpt lat="43.37600611060043" lon="10.502808890083154"><ele>52.800000000000004</ele><time>2026-04-06T10:20:23.999Z</time></trkpt><trkpt lat="43.37590504520048" lon="10.502812068497937"><ele>52.400000000000006</ele><time>2026-04-06T10:20:24.999Z</time></trkpt><trkpt lat="43.375804538974634" lon="10.502814975258723"><ele>52.0</ele><time>2026-04-06T10:20:25.999Z</time></trkpt><trkpt lat="43.37570522101388" lon="10.502818820707093"><ele>52.0</ele><time>2026-04-06T10:20:26.999Z</time></trkpt><trkpt lat="43.37560053712057" lon="10.502822714356672"><ele>52.0</ele><time>2026-04-06T10:20:27.999Z</time></trkpt><trkpt lat="43.375488986383694" lon="10.502827254297351"><ele>52.0</ele><time>2026-04-06T10:20:28.999Z</time></trkpt><trkpt lat="43.37537184989952" lon="10.502831803604739"><ele>52.0</ele><time>2026-04-06T10:20:29.999Z</time></trkpt><trkpt lat="43.375250978978336" lon="10.502836051938184"><ele>51.75</ele><time>2026-04-06T10:20:30.999Z</time></trkpt><trkpt lat="43.37512773782097" lon="10.502842286464098"><ele>51.5</ele><time>2026-04-06T10:20:31.999Z</time></trkpt><trkpt lat="43.37500603980474" lon="10.502852251078975"><ele>51.25</ele><time>2026-04-06T10:20:32.999Z</time></trkpt><trkpt lat="43.374890030362835" lon="10.502867540883075"><ele>51.0</ele><time>2026-04-06T10:20:33.999Z</time></trkpt><trkpt lat="43.374780881432756" lon="10.502887350347248"><ele>50.599999999999994</ele><time>2026-04-06T10:20:34.999Z</time></trkpt><trkpt lat="43.37467732135952" lon="10.502913044178307"><ele>50.2</ele><time>2026-04-06T10:20:35.999Z</time></trkpt><trkpt lat="43.37457339571961" lon="10.502946990347857"><ele>49.8</ele><time>2026-04-06T10:20:36.999Z</time></trkpt><trkpt lat="43.374469502525905" lon="10.502992126042916"><ele>49.400000000000006</ele><time>2026-04-06T10:20:37.999Z</time></trkpt><trkpt lat="43.374365890338375" lon="10.503046098350596"><ele>49.0</ele><time>2026-04-06T10:20:38.999Z</time></trkpt><trkpt lat="43.374263065158914" lon="10.503110741026449"><ele>48.75</ele><time>2026-04-06T10:20:39.999Z</time></trkpt><trkpt lat="43.37416186069979" lon="10.503190375961509"><ele>48.5</ele><time>2026-04-06T10:20:40.999Z</time></trkpt><trkpt lat="43.37406123502803" lon="10.503280245207996"><ele>48.25</ele><time>2026-04-06T10:20:41.999Z</time></trkpt><trkpt lat="43.373961242242814" lon="10.50337245782194"><ele>48.0</ele><time>2026-04-06T10:20:42.999Z</time></trkpt><trkpt lat="43.37386133018364" lon="10.503464340853332"><ele>47.25</ele><time>2026-04-06T10:20:43.999Z</time></trkpt><trkpt lat="43.37376390044884" lon="10.503554481924848"><ele>46.5</ele><time>2026-04-06T10:20:44.999Z</time></trkpt><trkpt lat="43.37366977267158" lon="10.503647324639436"><ele>45.75</ele><time>2026-04-06T10:20:45.999Z</time></trkpt><trkpt lat="43.373574038007554" lon="10.503740233293533"><ele>45.0</ele><time>2026-04-06T10:20:46.999Z</time></trkpt><trkpt lat="43.3734781676723" lon="10.50383168080537"><ele>45.0</ele><time>2026-04-06T10:20:47.999Z</time></trkpt><trkpt lat="43.37341281114316" lon="10.503897687574588"><ele>45.0</ele><time>2026-04-06T10:20:48.999Z</time></trkpt><trkpt lat="43.37333770079183" lon="10.503961582330735"><ele>45.0</ele><time>2026-04-06T10:20:49.999Z</time></trkpt><trkpt lat="43.37327017430782" lon="10.504021219523546"><ele>45.0</ele><time>2026-04-06T10:20:50.999Z</time></trkpt><trkpt lat="43.373198353520635" lon="10.504088314002685"><ele>45.0</ele><time>2026-04-06T10:20:52.999Z</time></trkpt><trkpt lat="43.3731444961345" lon="10.504136097218755"><ele>45.0</ele><time>2026-04-06T10:20:54.999Z</time></trkpt><trkpt lat="43.37308759104694" lon="10.504174442081124"><ele>44.5</ele><time>2026-04-06T10:20:56.999Z</time></trkpt><trkpt lat="43.37302058394206" lon="10.504197110514006"><ele>44.0</ele><time>2026-04-06T10:20:59.999Z</time></trkpt><trkpt lat="43.372932012293006" lon="10.504192395985296"><ele>43.5</ele><time>2026-04-06T10:21:01.999Z</time></trkpt><trkpt lat="43.37281658835547" lon="10.504244950962514"><ele>43.0</ele><time>2026-04-06T10:21:03.999Z</time></trkpt><trkpt lat="43.37277348643966" lon="10.504317119464002"><ele>42.5</ele><time>2026-04-06T10:21:04.999Z</time></trkpt><trkpt lat="43.37273899924717" lon="10.504403042502606"><ele>42.0</ele><time>2026-04-06T10:21:05.999Z</time></trkpt><trkpt lat="43.37270437589005" lon="10.504485914543876"><ele>42.0</ele><time>2026-04-06T10:21:06.999Z</time></trkpt><trkpt lat="43.37264624046636" lon="10.504562424175276"><ele>42.0</ele><time>2026-04-06T10:21:07.999Z</time></trkpt><trkpt lat="43.37257702826097" lon="10.50464042975727"><ele>42.0</ele><time>2026-04-06T10:21:08.999Z</time></trkpt><trkpt lat="43.3725127944631" lon="10.504710163554243"><ele>42.0</ele><time>2026-04-06T10:21:09.999Z</time></trkpt><trkpt lat="43.37243964074142" lon="10.504786700354"><ele>42.0</ele><time>2026-04-06T10:21:10.999Z</time></trkpt><trkpt lat="43.37235991025281" lon="10.504864564205256"><ele>42.0</ele><time>2026-04-06T10:21:11.999Z</time></trkpt><trkpt lat="43.37227880694824" lon="10.504940349438336"><ele>42.8</ele><time>2026-04-06T10:21:12.999Z</time></trkpt><trkpt lat="43.372197387340286" lon="10.505012597757728"><ele>43.6</ele><time>2026-04-06T10:21:13.999Z</time></trkpt><trkpt lat="43.37211285419657" lon="10.505081049183744"><ele>44.4</ele><time>2026-04-06T10:21:14.999Z</time></trkpt><trkpt lat="43.37202663975774" lon="10.505149782306125"><ele>45.199999999999996</ele><time>2026-04-06T10:21:15.999Z</time></trkpt><trkpt lat="43.37193574422314" lon="10.505215715814371"><ele>46.0</ele><time>2026-04-06T10:21:16.999Z</time></trkpt><trkpt lat="43.37184086013752" lon="10.505278116912395"><ele>46.0</ele><time>2026-04-06T10:21:17.999Z</time></trkpt><trkpt lat="43.37173642741226" lon="10.50533726620224"><ele>46.0</ele><time>2026-04-06T10:21:18.999Z</time></trkpt><trkpt lat="43.37162374200113" lon="10.505390680372026"><ele>46.0</ele><time>2026-04-06T10:21:19.999Z</time></trkpt><trkpt lat="43.37150473384262" lon="10.505438864276355"><ele>46.0</ele><time>2026-04-06T10:21:20.999Z</time></trkpt><trkpt lat="43.37138176278439" lon="10.505483627094328"><ele>47.333333333333336</ele><time>2026-04-06T10:21:21.999Z</time></trkpt><trkpt lat="43.371244928819515" lon="10.505532892797504"><ele>48.66666666666667</ele><time>2026-04-06T10:21:22.999Z</time></trkpt><trkpt lat="43.37109527347373" lon="10.505558335856662"><ele>50.0</ele><time>2026-04-06T10:21:23.999Z</time></trkpt><trkpt lat="43.37094185094341" lon="10.505606068994647"><ele>50.0</ele><time>2026-04-06T10:21:24.999Z</time></trkpt><trkpt lat="43.37078454986971" lon="10.505676201621085"><ele>50.0</ele><time>2026-04-06T10:21:25.999Z</time></trkpt><trkpt lat="43.37062740141332" lon="10.505724188550046"><ele>50.0</ele><time>2026-04-06T10:21:26.999Z</time></trkpt><trkpt lat="43.370469746471734" lon="10.505754592543628"><ele>51.0</ele><time>2026-04-06T10:21:27.999Z</time></trkpt><trkpt lat="43.37031931478988" lon="10.505824989655933"><ele>52.0</ele><time>2026-04-06T10:21:29Z</time></trkpt><trkpt lat="43.370167019271285" lon="10.505872039317953"><ele>53.0</ele><time>2026-04-06T10:21:30Z</time></trkpt><trkpt lat="43.370013365823475" lon="10.505915639831697"><ele>53.0</ele><time>2026-04-06T10:21:31Z</time></trkpt><trkpt lat="43.369864284802645" lon="10.505957013165512"><ele>53.0</ele><time>2026-04-06T10:21:32Z</time></trkpt><trkpt lat="43.36972030151477" lon="10.505998754091287"><ele>53.0</ele><time>2026-04-06T10:21:33Z</time></trkpt><trkpt lat="43.36958091656492" lon="10.506043613488801"><ele>53.0</ele><time>2026-04-06T10:21:34Z</time></trkpt><trkpt lat="43.36944302025573" lon="10.506088181295674"><ele>52.75</ele><time>2026-04-06T10:21:35Z</time></trkpt><trkpt lat="43.36930444666075" lon="10.506133289032908"><ele>52.5</ele><time>2026-04-06T10:21:36Z</time></trkpt><trkpt lat="43.36916648043936" lon="10.506177999926374"><ele>52.25</ele><time>2026-04-06T10:21:37Z</time></trkpt><trkpt lat="43.369023216485246" lon="10.506223100997332"><ele>52.0</ele><time>2026-04-06T10:21:38Z</time></trkpt><trkpt lat="43.368880110708" lon="10.506265971121865"><ele>52.25</ele><time>2026-04-06T10:21:39Z</time></trkpt><trkpt lat="43.368741462800166" lon="10.50630912403972"><ele>52.5</ele><time>2026-04-06T10:21:40Z</time></trkpt><trkpt lat="43.36860277480707" lon="10.506355411223762"><ele>52.75</ele><time>2026-04-06T10:21:41Z</time></trkpt><trkpt lat="43.36846624535262" lon="10.506402702669101"><ele>53.0</ele><time>2026-04-06T10:21:42Z</time></trkpt><trkpt lat="43.36833083833987" lon="10.506452219292823"><ele>53.0</ele><time>2026-04-06T10:21:43Z</time></trkpt><trkpt lat="43.36819063972443" lon="10.506506114178464"><ele>53.0</ele><time>2026-04-06T10:21:44Z</time></trkpt><trkpt lat="43.3680490035716" lon="10.50656317760748"><ele>53.0</ele><time>2026-04-06T10:21:45Z</time></trkpt><trkpt lat="43.36790995451956" lon="10.506621812423997"><ele>53.0</ele><time>2026-04-06T10:21:46Z</time></trkpt><trkpt lat="43.3677727574309" lon="10.506685842676006"><ele>53.25</ele><time>2026-04-06T10:21:47Z</time></trkpt><trkpt lat="43.367640103923925" lon="10.50675362611059"><ele>53.5</ele><time>2026-04-06T10:21:48Z</time></trkpt><trkpt lat="43.3675088420698" lon="10.506823951866608"><ele>53.75</ele><time>2026-04-06T10:21:49Z</time></trkpt><trkpt lat="43.367380245169514" lon="10.506895137227437"><ele>54.0</ele><time>2026-04-06T10:21:50Z</time></trkpt><trkpt lat="43.367252413906" lon="10.506968854966278"><ele>53.75</ele><time>2026-04-06T10:21:51Z</time></trkpt><trkpt lat="43.367125807215174" lon="10.507038511250913"><ele>53.5</ele><time>2026-04-06T10:21:52Z</time></trkpt><trkpt lat="43.36699435172487" lon="10.50710066220463"><ele>53.25</ele><time>2026-04-06T10:21:53Z</time></trkpt><trkpt lat="43.36686777631632" lon="10.507153118831509"><ele>53.0</ele><time>2026-04-06T10:21:54Z</time></trkpt><trkpt lat="43.36675520903379" lon="10.50719327518077"><ele>53.00000000000001</ele><time>2026-04-06T10:21:55Z</time></trkpt><trkpt lat="43.36666087515785" lon="10.507216097853654"><ele>53.0</ele><time>2026-04-06T10:21:56Z</time></trkpt><trkpt lat="43.36657995831352" lon="10.50722383331724"><ele>53.0</ele><time>2026-04-06T10:21:57Z</time></trkpt><trkpt lat="43.36650662966448" lon="10.507212846836918"><ele>53.0</ele><time>2026-04-06T10:21:58Z</time></trkpt><trkpt lat="43.366439592001704" lon="10.50718330916993"><ele>53.00000000000001</ele><time>2026-04-06T10:21:59Z</time></trkpt><trkpt lat="43.366373378127506" lon="10.507140774807457"><ele>53.0</ele><time>2026-04-06T10:22:00Z</time></trkpt><trkpt lat="43.36630907489254" lon="10.507100649019648"><ele>53.0</ele><time>2026-04-06T10:22:01Z</time></trkpt><trkpt lat="43.3662431221036" lon="10.507090419637723"><ele>53.0</ele><time>2026-04-06T10:22:02Z</time></trkpt><trkpt lat="43.36618001019039" lon="10.507113527111397"><ele>53.0</ele><time>2026-04-06T10:22:03Z</time></trkpt><trkpt lat="43.36612998328299" lon="10.507171187037558"><ele>53.0</ele><time>2026-04-06T10:22:04Z</time></trkpt><trkpt lat="43.36609123334302" lon="10.507247110155955"><ele>53.0</ele><time>2026-04-06T10:22:05Z</time></trkpt><trkpt lat="43.36604644588395" lon="10.507322959681664"><ele>53.0</ele><time>2026-04-06T10:22:06Z</time></trkpt><trkpt lat="43.365981396953025" lon="10.507385954010658"><ele>53.0</ele><time>2026-04-06T10:22:07Z</time></trkpt><trkpt lat="43.36589681903407" lon="10.507435373193683"><ele>53.0</ele><time>2026-04-06T10:22:08Z</time></trkpt><trkpt lat="43.365794802856435" lon="10.507484759762297"><ele>53.0</ele><time>2026-04-06T10:22:09Z</time></trkpt><trkpt lat="43.365684179905635" lon="10.507536541233943"><ele>53.0</ele><time>2026-04-06T10:22:10Z</time></trkpt><trkpt lat="43.36556564633043" lon="10.507583473766488"><ele>53.0</ele><time>2026-04-06T10:22:11Z</time></trkpt><trkpt lat="43.36544364667136" lon="10.507621546162618"><ele>52.5</ele><time>2026-04-06T10:22:12Z</time></trkpt><trkpt lat="43.365308915340115" lon="10.507663455648572"><ele>52.0</ele><time>2026-04-06T10:22:13Z</time></trkpt><trkpt lat="43.365166169140956" lon="10.50771224814647"><ele>51.5</ele><time>2026-04-06T10:22:14Z</time></trkpt><trkpt lat="43.36502295273934" lon="10.507770796708966"><ele>51.0</ele><time>2026-04-06T10:22:14.999Z</time></trkpt><trkpt lat="43.364877419235825" lon="10.507842635003371"><ele>50.66666666666667</ele><time>2026-04-06T10:22:15.999Z</time></trkpt><trkpt lat="43.364735207321964" lon="10.507928939475617"><ele>50.333333333333336</ele><time>2026-04-06T10:22:16.999Z</time></trkpt><trkpt lat="43.36459739418354" lon="10.508032708880505"><ele>50.0</ele><time>2026-04-06T10:22:17.999Z</time></trkpt><trkpt lat="43.364459363651086" lon="10.508144123773901"><ele>50.0</ele><time>2026-04-06T10:22:18.999Z</time></trkpt><trkpt lat="43.364321249322366" lon="10.508257213150927"><ele>50.0</ele><time>2026-04-06T10:22:19.999Z</time></trkpt><trkpt lat="43.36418595032953" lon="10.508368002577887"><ele>50.0</ele><time>2026-04-06T10:22:20.999Z</time></trkpt><trkpt lat="43.36404583483951" lon="10.508482556796109"><ele>50.0</ele><time>2026-04-06T10:22:21.999Z</time></trkpt><trkpt lat="43.363905878076444" lon="10.508597568368645"><ele>50.0</ele><time>2026-04-06T10:22:22.999Z</time></trkpt><trkpt lat="43.36376888834679" lon="10.508708971692933"><ele>50.0</ele><time>2026-04-06T10:22:23.999Z</time></trkpt><trkpt lat="43.36363191053731" lon="10.50882054952307"><ele>49.66666666666667</ele><time>2026-04-06T10:22:24.999Z</time></trkpt><trkpt lat="43.36349594523086" lon="10.508929881173088"><ele>49.33333333333333</ele><time>2026-04-06T10:22:25.999Z</time></trkpt><trkpt lat="43.36336094451732" lon="10.50904152657531"><ele>49.0</ele><time>2026-04-06T10:22:26.999Z</time></trkpt><trkpt lat="43.36322649121863" lon="10.509153063102481"><ele>49.0</ele><time>2026-04-06T10:22:27.999Z</time></trkpt><trkpt lat="43.36308989217465" lon="10.509264928671206"><ele>49.0</ele><time>2026-04-06T10:22:28.999Z</time></trkpt><trkpt lat="43.362953508849465" lon="10.509376843967994"><ele>49.0</ele><time>2026-04-06T10:22:29.999Z</time></trkpt><trkpt lat="43.36281481192589" lon="10.509488116593278"><ele>48.33333333333333</ele><time>2026-04-06T10:22:30.999Z</time></trkpt><trkpt lat="43.36267223871147" lon="10.509598041394256"><ele>47.666666666666664</ele><time>2026-04-06T10:22:31.999Z</time></trkpt><trkpt lat="43.36252371617685" lon="10.509702855246497"><ele>47.0</ele><time>2026-04-06T10:22:32.999Z</time></trkpt><trkpt lat="43.36237018856129" lon="10.509802786699028"><ele>47.0</ele><time>2026-04-06T10:22:33.999Z</time></trkpt><trkpt lat="43.362210373992504" lon="10.509896785578565"><ele>47.0</ele><time>2026-04-06T10:22:34.999Z</time></trkpt><trkpt lat="43.36204818370793" lon="10.509983124251594"><ele>47.0</ele><time>2026-04-06T10:22:35.999Z</time></trkpt><trkpt lat="43.36188775689533" lon="10.510052930021532"><ele>47.33333333333333</ele><time>2026-04-06T10:22:36.999Z</time></trkpt><trkpt lat="43.361729098650784" lon="10.510112956661038"><ele>47.666666666666664</ele><time>2026-04-06T10:22:37.999Z</time></trkpt><trkpt lat="43.36157247813863" lon="10.510166806676489"><ele>48.0</ele><time>2026-04-06T10:22:38.999Z</time></trkpt><trkpt lat="43.36141842272217" lon="10.510213339675834"><ele>48.66666666666667</ele><time>2026-04-06T10:22:39.999Z</time></trkpt><trkpt lat="43.36126755891374" lon="10.510257415143222"><ele>49.333333333333336</ele><time>2026-04-06T10:22:40.999Z</time></trkpt><trkpt lat="43.361116476964185" lon="10.51030048667562"><ele>50.0</ele><time>2026-04-06T10:22:41.999Z</time></trkpt><trkpt lat="43.36096467916452" lon="10.51033441439654"><ele>50.0</ele><time>2026-04-06T10:22:42.999Z</time></trkpt><trkpt lat="43.36081388621501" lon="10.510347657350174"><ele>50.0</ele><time>2026-04-06T10:22:43.999Z</time></trkpt><trkpt lat="43.36066667955634" lon="10.51034827597087"><ele>50.0</ele><time>2026-04-06T10:22:44.999Z</time></trkpt><trkpt lat="43.360519686113435" lon="10.510336285048034"><ele>50.0</ele><time>2026-04-06T10:22:45.999Z</time></trkpt><trkpt lat="43.36037577581658" lon="10.510312699893747"><ele>49.75</ele><time>2026-04-06T10:22:46.999Z</time></trkpt><trkpt lat="43.360230817191024" lon="10.510275240215002"><ele>49.5</ele><time>2026-04-06T10:22:47.999Z</time></trkpt><trkpt lat="43.360090453927604" lon="10.510217953216708"><ele>49.25</ele><time>2026-04-06T10:22:48.999Z</time></trkpt><trkpt lat="43.359955456901076" lon="10.510143100711725"><ele>49.0</ele><time>2026-04-06T10:22:49.999Z</time></trkpt><trkpt lat="43.359826350572106" lon="10.51006111623733"><ele>49.0</ele><time>2026-04-06T10:22:50.999Z</time></trkpt><trkpt lat="43.35970568114262" lon="10.509983214867797"><ele>49.0</ele><time>2026-04-06T10:22:51.999Z</time></trkpt><trkpt lat="43.359591624896886" lon="10.509907088708472"><ele>49.0</ele><time>2026-04-06T10:22:52.999Z</time></trkpt><trkpt lat="43.359485446129" lon="10.509831134239974"><ele>49.0</ele><time>2026-04-06T10:22:53.999Z</time></trkpt><trkpt lat="43.35937511384885" lon="10.50974645543031"><ele>48.0</ele><time>2026-04-06T10:22:54.999Z</time></trkpt><trkpt lat="43.359260026705776" lon="10.509656236661472"><ele>47.0</ele><time>2026-04-06T10:22:55.999Z</time></trkpt><trkpt lat="43.35914101308147" lon="10.509555849145176"><ele>46.0</ele><time>2026-04-06T10:22:56.999Z</time></trkpt><trkpt lat="43.35901766232165" lon="10.509444278360489"><ele>45.0</ele><time>2026-04-06T10:22:57.999Z</time></trkpt><trkpt lat="43.35888905467652" lon="10.509328795353232"><ele>44.666666666666664</ele><time>2026-04-06T10:22:58.999Z</time></trkpt><trkpt lat="43.35875623653685" lon="10.509215280276738"><ele>44.33333333333333</ele><time>2026-04-06T10:22:59.999Z</time></trkpt><trkpt lat="43.35862067875751" lon="10.509095779576077"><ele>44.0</ele><time>2026-04-06T10:23:00.999Z</time></trkpt><trkpt lat="43.35848475125727" lon="10.508978658523754"><ele>44.0</ele><time>2026-04-06T10:23:01.999Z</time></trkpt><trkpt lat="43.3583486004556" lon="10.508860911351537"><ele>44.0</ele><time>2026-04-06T10:23:02.999Z</time></trkpt><trkpt lat="43.35821364375777" lon="10.508738171344323"><ele>44.0</ele><time>2026-04-06T10:23:03.999Z</time></trkpt><trkpt lat="43.3580905247502" lon="10.50862009158033"><ele>44.0</ele><time>2026-04-06T10:23:04.999Z</time></trkpt><trkpt lat="43.357951965558506" lon="10.50848883458115"><ele>44.0</ele><time>2026-04-06T10:23:05.999Z</time></trkpt><trkpt lat="43.35779352438908" lon="10.508346080809762"><ele>44.0</ele><time>2026-04-06T10:23:06.999Z</time></trkpt><trkpt lat="43.357697015584634" lon="10.508265055090748"><ele>44.0</ele><time>2026-04-06T10:23:07.999Z</time></trkpt><trkpt lat="43.35757088794569" lon="10.50815322821694"><ele>44.0</ele><time>2026-04-06T10:23:08.999Z</time></trkpt><trkpt lat="43.357441251546824" lon="10.508041707498741"><ele>44.0</ele><time>2026-04-06T10:23:09.999Z</time></trkpt><trkpt lat="43.357303993885715" lon="10.507931203640478"><ele>43.33333333333333</ele><time>2026-04-06T10:23:10.999Z</time></trkpt><trkpt lat="43.35716251007802" lon="10.507826768462605"><ele>42.666666666666664</ele><time>2026-04-06T10:23:11.999Z</time></trkpt><trkpt lat="43.35701192464821" lon="10.507730040889433"><ele>42.0</ele><time>2026-04-06T10:23:12.999Z</time></trkpt><trkpt lat="43.35686155039925" lon="10.507642592628882"><ele>42.0</ele><time>2026-04-06T10:23:13.999Z</time></trkpt><trkpt lat="43.356706763584405" lon="10.507582429003124"><ele>42.0</ele><time>2026-04-06T10:23:14.999Z</time></trkpt><trkpt lat="43.35655281835526" lon="10.507527199238373"><ele>42.0</ele><time>2026-04-06T10:23:15.999Z</time></trkpt><trkpt lat="43.35639460046291" lon="10.50747794410938"><ele>40.666666666666664</ele><time>2026-04-06T10:23:16.999Z</time></trkpt><trkpt lat="43.356247680307305" lon="10.50743388612934"><ele>39.33333333333333</ele><time>2026-04-06T10:23:17.999Z</time></trkpt><trkpt lat="43.35609655005476" lon="10.507396622478364"><ele>38.0</ele><time>2026-04-06T10:23:18.999Z</time></trkpt><trkpt lat="43.35594900467852" lon="10.507360866800948"><ele>38.0</ele><time>2026-04-06T10:23:19.999Z</time></trkpt><trkpt lat="43.35580946229898" lon="10.507326713199037"><ele>38.0</ele><time>2026-04-06T10:23:20.999Z</time></trkpt><trkpt lat="43.355677795832044" lon="10.507294805400822"><ele>38.0</ele><time>2026-04-06T10:23:21.999Z</time></trkpt><trkpt lat="43.355549957910604" lon="10.507264145621912"><ele>38.0</ele><time>2026-04-06T10:23:22.999Z</time></trkpt><trkpt lat="43.35542706300459" lon="10.507233828188134"><ele>38.4</ele><time>2026-04-06T10:23:23.999Z</time></trkpt><trkpt lat="43.35530749632815" lon="10.507206559130697"><ele>38.8</ele><time>2026-04-06T10:23:24.999Z</time></trkpt><trkpt lat="43.35519126796744" lon="10.50718016744166"><ele>39.2</ele><time>2026-04-06T10:23:25.999Z</time></trkpt><trkpt lat="43.3550853103194" lon="10.507157617970824"><ele>39.6</ele><time>2026-04-06T10:23:26.999Z</time></trkpt><trkpt lat="43.35498598237033" lon="10.507132884313432"><ele>40.0</ele><time>2026-04-06T10:23:27.999Z</time></trkpt><trkpt lat="43.354893817912355" lon="10.507098703254345"><ele>39.6</ele><time>2026-04-06T10:23:28.999Z</time></trkpt><trkpt lat="43.354804211141015" lon="10.507045286954831"><ele>39.2</ele><time>2026-04-06T10:23:29.999Z</time></trkpt><trkpt lat="43.354730252092544" lon="10.50694944906255"><ele>38.8</ele><time>2026-04-06T10:23:30.999Z</time></trkpt><trkpt lat="43.35462660743293" lon="10.506905903957268"><ele>38.4</ele><time>2026-04-06T10:23:31.999Z</time></trkpt><trkpt lat="43.354506367014714" lon="10.506942255048257"><ele>38.0</ele><time>2026-04-06T10:23:32.999Z</time></trkpt><trkpt lat="43.354384196052465" lon="10.506920148585587"><ele>37.5</ele><time>2026-04-06T10:23:34Z</time></trkpt><trkpt lat="43.35425437017081" lon="10.506871435779903"><ele>37.0</ele><time>2026-04-06T10:23:35Z</time></trkpt><trkpt lat="43.35412075939572" lon="10.506803709453278"><ele>36.5</ele><time>2026-04-06T10:23:36Z</time></trkpt><trkpt lat="43.35398156966615" lon="10.506721439070732"><ele>36.0</ele><time>2026-04-06T10:23:37Z</time></trkpt><trkpt lat="43.353837285862504" lon="10.506634775127939"><ele>36.0</ele><time>2026-04-06T10:23:38Z</time></trkpt><trkpt lat="43.35368745155051" lon="10.50654900704439"><ele>36.0</ele><time>2026-04-06T10:23:39Z</time></trkpt><trkpt lat="43.35354074705718" lon="10.506464877957109"><ele>36.0</ele><time>2026-04-06T10:23:40Z</time></trkpt><trkpt lat="43.35339996821644" lon="10.506384799132524"><ele>36.0</ele><time>2026-04-06T10:23:41Z</time></trkpt><trkpt lat="43.35325209933679" lon="10.506301266802295"><ele>36.0</ele><time>2026-04-06T10:23:42Z</time></trkpt><trkpt lat="43.353101541904415" lon="10.506218124791243"><ele>36.0</ele><time>2026-04-06T10:23:43Z</time></trkpt><trkpt lat="43.3529489271076" lon="10.506131855882817"><ele>36.0</ele><time>2026-04-06T10:23:44Z</time></trkpt><trkpt lat="43.352790305452146" lon="10.506042279401688"><ele>36.0</ele><time>2026-04-06T10:23:45Z</time></trkpt><trkpt lat="43.35263099402978" lon="10.505952353469533"><ele>36.0</ele><time>2026-04-06T10:23:46Z</time></trkpt><trkpt lat="43.35247164754818" lon="10.505861819840216"><ele>36.0</ele><time>2026-04-06T10:23:47Z</time></trkpt><trkpt lat="43.35231012500407" lon="10.505765933229434"><ele>36.0</ele><time>2026-04-06T10:23:48Z</time></trkpt><trkpt lat="43.35215260146253" lon="10.505675540282578"><ele>36.0</ele><time>2026-04-06T10:23:49Z</time></trkpt><trkpt lat="43.35199486327774" lon="10.505587641386267"><ele>35.666666666666664</ele><time>2026-04-06T10:23:50Z</time></trkpt><trkpt lat="43.35183919748897" lon="10.50549761042423"><ele>35.33333333333333</ele><time>2026-04-06T10:23:51Z</time></trkpt><trkpt lat="43.35168290369296" lon="10.505408792626772"><ele>35.0</ele><time>2026-04-06T10:23:52Z</time></trkpt><trkpt lat="43.351524647076424" lon="10.505319913717909"><ele>34.0</ele><time>2026-04-06T10:23:53Z</time></trkpt><trkpt lat="43.35136367678342" lon="10.505228407593503"><ele>33.0</ele><time>2026-04-06T10:23:54Z</time></trkpt><trkpt lat="43.35120062778866" lon="10.505134172705649"><ele>32.0</ele><time>2026-04-06T10:23:55Z</time></trkpt><trkpt lat="43.35103526242335" lon="10.505040596207133"><ele>32.0</ele><time>2026-04-06T10:23:56Z</time></trkpt><trkpt lat="43.350871325945576" lon="10.50494532910427"><ele>32.0</ele><time>2026-04-06T10:23:57Z</time></trkpt><trkpt lat="43.35070759316243" lon="10.504851522637992"><ele>32.0</ele><time>2026-04-06T10:23:58Z</time></trkpt><trkpt lat="43.35054477183395" lon="10.504757520917266"><ele>31.333333333333332</ele><time>2026-04-06T10:23:59Z</time></trkpt><trkpt lat="43.35038225443873" lon="10.504665583266762"><ele>30.666666666666664</ele><time>2026-04-06T10:24:00Z</time></trkpt><trkpt lat="43.35022135638761" lon="10.504574433991893"><ele>30.0</ele><time>2026-04-06T10:24:01Z</time></trkpt><trkpt lat="43.35005981206763" lon="10.504484348791857"><ele>30.0</ele><time>2026-04-06T10:24:02Z</time></trkpt><trkpt lat="43.34989874104837" lon="10.504398377724351"><ele>30.0</ele><time>2026-04-06T10:24:03Z</time></trkpt><trkpt lat="43.34973957183576" lon="10.504318173980376"><ele>30.0</ele><time>2026-04-06T10:24:04Z</time></trkpt><trkpt lat="43.34958086226206" lon="10.5042415320373"><ele>30.0</ele><time>2026-04-06T10:24:05Z</time></trkpt><trkpt lat="43.349422759548304" lon="10.504174490523434"><ele>30.0</ele><time>2026-04-06T10:24:06Z</time></trkpt><trkpt lat="43.34927393686776" lon="10.50411599259879"><ele>30.0</ele><time>2026-04-06T10:24:07Z</time></trkpt><trkpt lat="43.34913836645558" lon="10.504066900032214"><ele>30.0</ele><time>2026-04-06T10:24:08Z</time></trkpt><trkpt lat="43.34901250967521" lon="10.50402257480918"><ele>30.0</ele><time>2026-04-06T10:24:09Z</time></trkpt><trkpt lat="43.34889485292014" lon="10.503987949571997"><ele>30.0</ele><time>2026-04-06T10:24:10Z</time></trkpt><trkpt lat="43.34878380568315" lon="10.503958547627441"><ele>30.0</ele><time>2026-04-06T10:24:11Z</time></trkpt><trkpt lat="43.34867872438052" lon="10.503931178028692"><ele>30.0</ele><time>2026-04-06T10:24:12Z</time></trkpt><trkpt lat="43.348578757278446" lon="10.503903454239849"><ele>30.0</ele><time>2026-04-06T10:24:13Z</time></trkpt><trkpt lat="43.34848703028338" lon="10.503877913997767"><ele>30.0</ele><time>2026-04-06T10:24:14Z</time></trkpt><trkpt lat="43.34840354015726" lon="10.503851439133694"><ele>30.0</ele><time>2026-04-06T10:24:15Z</time></trkpt><trkpt lat="43.34833776988915" lon="10.503826555863162"><ele>30.0</ele><time>2026-04-06T10:24:16Z</time></trkpt><trkpt lat="43.348268789251364" lon="10.503795707071665"><ele>30.0</ele><time>2026-04-06T10:24:19Z</time></trkpt><trkpt lat="43.34820327718015" lon="10.503757211494854"><ele>29.833333333333332</ele><time>2026-04-06T10:24:22Z</time></trkpt><trkpt lat="43.34815943774258" lon="10.503681133569664"><ele>29.666666666666664</ele><time>2026-04-06T10:24:23Z</time></trkpt><trkpt lat="43.34808102271415" lon="10.503655978833889"><ele>29.5</ele><time>2026-04-06T10:24:24Z</time></trkpt><trkpt lat="43.34799869522424" lon="10.503707541698617"><ele>29.333333333333332</ele><time>2026-04-06T10:24:25Z</time></trkpt><trkpt lat="43.34793117140024" lon="10.50378561964267"><ele>29.166666666666664</ele><time>2026-04-06T10:24:26Z</time></trkpt><trkpt lat="43.34782368475814" lon="10.503808481799716"><ele>29.0</ele><time>2026-04-06T10:24:26.999Z</time></trkpt><trkpt lat="43.34773340000457" lon="10.503834821811525"><ele>28.75</ele><time>2026-04-06T10:24:27.999Z</time></trkpt><trkpt lat="43.3476256567756" lon="10.503859138957855"><ele>28.5</ele><time>2026-04-06T10:24:28.999Z</time></trkpt><trkpt lat="43.34750994850737" lon="10.503883140137816"><ele>28.25</ele><time>2026-04-06T10:24:29.999Z</time></trkpt><trkpt lat="43.34738938185465" lon="10.503905272551977"><ele>28.0</ele><time>2026-04-06T10:24:30.999Z</time></trkpt><trkpt lat="43.34726181421243" lon="10.503925348240298"><ele>28.25</ele><time>2026-04-06T10:24:31.999Z</time></trkpt><trkpt lat="43.34713243155006" lon="10.503943112312323"><ele>28.5</ele><time>2026-04-06T10:24:32.999Z</time></trkpt><trkpt lat="43.34699213084053" lon="10.503963351193155"><ele>28.75</ele><time>2026-04-06T10:24:33.999Z</time></trkpt><trkpt lat="43.34684705828503" lon="10.50398422753981"><ele>29.0</ele><time>2026-04-06T10:24:34.999Z</time></trkpt><trkpt lat="43.346700470952506" lon="10.504006858126951"><ele>29.0</ele><time>2026-04-06T10:24:35.999Z</time></trkpt><trkpt lat="43.346554684192995" lon="10.504028831536562"><ele>29.0</ele><time>2026-04-06T10:24:36.999Z</time></trkpt><trkpt lat="43.34640903615383" lon="10.504053340886749"><ele>29.0</ele><time>2026-04-06T10:24:37.999Z</time></trkpt><trkpt lat="43.34626351474501" lon="10.50407787474333"><ele>29.0</ele><time>2026-04-06T10:24:38.999Z</time></trkpt><trkpt lat="43.34611398729891" lon="10.504103958678513"><ele>28.25</ele><time>2026-04-06T10:24:39.999Z</time></trkpt><trkpt lat="43.34596250164991" lon="10.504129070264593"><ele>27.5</ele><time>2026-04-06T10:24:40.999Z</time></trkpt><trkpt lat="43.34581692010848" lon="10.504153542239365"><ele>26.75</ele><time>2026-04-06T10:24:41.999Z</time></trkpt><trkpt lat="43.34568337504025" lon="10.504178701774443"><ele>26.0</ele><time>2026-04-06T10:24:42.999Z</time></trkpt><trkpt lat="43.345554515806036" lon="10.504201176930625"><ele>26.0</ele><time>2026-04-06T10:24:43.999Z</time></trkpt><trkpt lat="43.34542263769857" lon="10.504221991972928"><ele>26.0</ele><time>2026-04-06T10:24:44.999Z</time></trkpt><trkpt lat="43.34528402562403" lon="10.504244038499671"><ele>26.0</ele><time>2026-04-06T10:24:45.999Z</time></trkpt><trkpt lat="43.34513542699062" lon="10.504270705392669"><ele>26.0</ele><time>2026-04-06T10:24:46.999Z</time></trkpt><trkpt lat="43.34498144354641" lon="10.504300619963434"><ele>26.0</ele><time>2026-04-06T10:24:47.999Z</time></trkpt><trkpt lat="43.34481418852358" lon="10.504311184892446"><ele>26.0</ele><time>2026-04-06T10:24:48.999Z</time></trkpt><trkpt lat="43.344640502633496" lon="10.504340254061749"><ele>26.0</ele><time>2026-04-06T10:24:49.999Z</time></trkpt><trkpt lat="43.344461339897734" lon="10.504370239880574"><ele>25.0</ele><time>2026-04-06T10:24:50.999Z</time></trkpt><trkpt lat="43.34427973385986" lon="10.504400634616774"><ele>24.0</ele><time>2026-04-06T10:24:51.999Z</time></trkpt><trkpt lat="43.34409766053078" lon="10.504430366566773"><ele>23.0</ele><time>2026-04-06T10:24:52.999Z</time></trkpt><trkpt lat="43.34391901628126" lon="10.504481086740936"><ele>22.666666666666668</ele><time>2026-04-06T10:24:53.999Z</time></trkpt><trkpt lat="43.343743934454935" lon="10.504508716428345"><ele>22.333333333333332</ele><time>2026-04-06T10:24:54.999Z</time></trkpt><trkpt lat="43.343578899205184" lon="10.504535459408242"><ele>22.0</ele><time>2026-04-06T10:24:55.999Z</time></trkpt><trkpt lat="43.34341940539087" lon="10.504561153713723"><ele>22.333333333333332</ele><time>2026-04-06T10:24:56.999Z</time></trkpt><trkpt lat="43.34326415043385" lon="10.50458540323537"><ele>22.666666666666668</ele><time>2026-04-06T10:24:57.999Z</time></trkpt><trkpt lat="43.34311098818953" lon="10.504610908000092"><ele>23.0</ele><time>2026-04-06T10:24:58.999Z</time></trkpt><trkpt lat="43.342959022923395" lon="10.504635676360046"><ele>22.333333333333336</ele><time>2026-04-06T10:24:59.999Z</time></trkpt><trkpt lat="43.34280676242104" lon="10.504660602784467"><ele>21.666666666666668</ele><time>2026-04-06T10:25:00.999Z</time></trkpt><trkpt lat="43.34265522144224" lon="10.504685221282994"><ele>21.0</ele><time>2026-04-06T10:25:01.999Z</time></trkpt><trkpt lat="43.342508240768076" lon="10.504708543843412"><ele>21.0</ele><time>2026-04-06T10:25:02.999Z</time></trkpt><trkpt lat="43.34236420088848" lon="10.504731006347798"><ele>21.0</ele><time>2026-04-06T10:25:03.999Z</time></trkpt><trkpt lat="43.34222573630258" lon="10.504754191062812"><ele>21.0</ele><time>2026-04-06T10:25:04.999Z</time></trkpt><trkpt lat="43.34209234440319" lon="10.504776128819485"><ele>21.0</ele><time>2026-04-06T10:25:05.999Z</time></trkpt><trkpt lat="43.3419624940736" lon="10.504795576521028"><ele>21.25</ele><time>2026-04-06T10:25:06.999Z</time></trkpt><trkpt lat="43.341833505909" lon="10.504815435825773"><ele>21.5</ele><time>2026-04-06T10:25:07.999Z</time></trkpt><trkpt lat="43.341702759570985" lon="10.504834357438064"><ele>21.75</ele><time>2026-04-06T10:25:08.999Z</time></trkpt><trkpt lat="43.34156968134861" lon="10.504853958892925"><ele>22.0</ele><time>2026-04-06T10:25:09.999Z</time></trkpt><trkpt lat="43.34143176186377" lon="10.50487532617564"><ele>21.5</ele><time>2026-04-06T10:25:10.999Z</time></trkpt><trkpt lat="43.341295779363676" lon="10.504895703551156"><ele>21.0</ele><time>2026-04-06T10:25:11.999Z</time></trkpt><trkpt lat="43.34116416519967" lon="10.504915096848162"><ele>20.5</ele><time>2026-04-06T10:25:12.999Z</time></trkpt><trkpt lat="43.34104086382056" lon="10.50493683367658"><ele>20.0</ele><time>2026-04-06T10:25:13.999Z</time></trkpt><trkpt lat="43.34092404971965" lon="10.50496016286043"><ele>20.0</ele><time>2026-04-06T10:25:14.999Z</time></trkpt><trkpt lat="43.34081556301748" lon="10.504983890985146"><ele>20.0</ele><time>2026-04-06T10:25:15.999Z</time></trkpt><trkpt lat="43.34071419976477" lon="10.505009130894063"><ele>20.0</ele><time>2026-04-06T10:25:16.999Z</time></trkpt><trkpt lat="43.34061973370357" lon="10.505035771128169"><ele>20.0</ele><time>2026-04-06T10:25:17.999Z</time></trkpt><trkpt lat="43.34053105562659" lon="10.505065538642516"><ele>20.0</ele><time>2026-04-06T10:25:18.999Z</time></trkpt><trkpt lat="43.340450602837855" lon="10.50509679681811"><ele>20.5</ele><time>2026-04-06T10:25:19.999Z</time></trkpt><trkpt lat="43.34037532630087" lon="10.5051244159196"><ele>21.0</ele><time>2026-04-06T10:25:20.999Z</time></trkpt><trkpt lat="43.34029981370035" lon="10.505146175627948"><ele>21.5</ele><time>2026-04-06T10:25:21.999Z</time></trkpt><trkpt lat="43.34023468829842" lon="10.505153717971194"><ele>22.0</ele><time>2026-04-06T10:25:22.999Z</time></trkpt><trkpt lat="43.3400994715978" lon="10.505141322638082"><ele>22.5</ele><time>2026-04-06T10:25:24.999Z</time></trkpt><trkpt lat="43.34001190207262" lon="10.50516043342926"><ele>23.0</ele><time>2026-04-06T10:25:25.999Z</time></trkpt><trkpt lat="43.33991042608998" lon="10.505185333816595"><ele>23.0</ele><time>2026-04-06T10:25:26.999Z</time></trkpt><trkpt lat="43.33979156849511" lon="10.505193289315377"><ele>23.0</ele><time>2026-04-06T10:25:27.999Z</time></trkpt><trkpt lat="43.33966720816485" lon="10.505193238409294"><ele>23.0</ele><time>2026-04-06T10:25:28.999Z</time></trkpt><trkpt lat="43.33953710281276" lon="10.505195743251496"><ele>23.0</ele><time>2026-04-06T10:25:29.999Z</time></trkpt><trkpt lat="43.33940093022822" lon="10.505207947327753"><ele>21.75</ele><time>2026-04-06T10:25:30.999Z</time></trkpt><trkpt lat="43.339261232103496" lon="10.505221351273867"><ele>20.5</ele><time>2026-04-06T10:25:31.999Z</time></trkpt><trkpt lat="43.339121301418466" lon="10.505238519118059"><ele>19.25</ele><time>2026-04-06T10:25:32.999Z</time></trkpt><trkpt lat="43.33897286197423" lon="10.505258725421138"><ele>18.0</ele><time>2026-04-06T10:25:33.999Z</time></trkpt><trkpt lat="43.33882404725626" lon="10.505273764985795"><ele>16.666666666666668</ele><time>2026-04-06T10:25:34.999Z</time></trkpt><trkpt lat="43.33867475783247" lon="10.505293465015273"><ele>15.333333333333334</ele><time>2026-04-06T10:25:35.999Z</time></trkpt><trkpt lat="43.33852513996841" lon="10.505316250515492"><ele>14.0</ele><time>2026-04-06T10:25:36.999Z</time></trkpt><trkpt lat="43.338374274942524" lon="10.505337168565998"><ele>14.0</ele><time>2026-04-06T10:25:37.999Z</time></trkpt><trkpt lat="43.3382271306887" lon="10.505359071841966"><ele>14.0</ele><time>2026-04-06T10:25:38.999Z</time></trkpt><trkpt lat="43.33807576842904" lon="10.505386098157205"><ele>14.0</ele><time>2026-04-06T10:25:40Z</time></trkpt><trkpt lat="43.337917236833704" lon="10.505410875374915"><ele>14.0</ele><time>2026-04-06T10:25:41Z</time></trkpt><trkpt lat="43.33775445360022" lon="10.505438116623642"><ele>14.0</ele><time>2026-04-06T10:25:42Z</time></trkpt><trkpt lat="43.337592314199085" lon="10.505464115247776"><ele>14.0</ele><time>2026-04-06T10:25:43Z</time></trkpt><trkpt lat="43.33742602427124" lon="10.505488770954289"><ele>14.0</ele><time>2026-04-06T10:25:44Z</time></trkpt><trkpt lat="43.3372566647907" lon="10.505516699022943"><ele>14.0</ele><time>2026-04-06T10:25:45Z</time></trkpt><trkpt lat="43.33708514546684" lon="10.505541722105143"><ele>14.0</ele><time>2026-04-06T10:25:46Z</time></trkpt><trkpt lat="43.33691244453367" lon="10.505567350222602"><ele>13.666666666666668</ele><time>2026-04-06T10:25:47Z</time></trkpt><trkpt lat="43.33674145511292" lon="10.505593049228906"><ele>13.333333333333332</ele><time>2026-04-06T10:25:48Z</time></trkpt><trkpt lat="43.33657464993166" lon="10.505619732183002"><ele>13.0</ele><time>2026-04-06T10:25:49Z</time></trkpt><trkpt lat="43.33641221119601" lon="10.505645696849827"><ele>12.333333333333332</ele><time>2026-04-06T10:25:50Z</time></trkpt><trkpt lat="43.33625036315476" lon="10.505669279496681"><ele>11.666666666666666</ele><time>2026-04-06T10:25:51Z</time></trkpt><trkpt lat="43.33609550344225" lon="10.505693008508244"><ele>11.0</ele><time>2026-04-06T10:25:52Z</time></trkpt><trkpt lat="43.335944335574034" lon="10.505717606634033"><ele>11.0</ele><time>2026-04-06T10:25:53Z</time></trkpt><trkpt lat="43.33579611352682" lon="10.505742639885467"><ele>11.0</ele><time>2026-04-06T10:25:54Z</time></trkpt><trkpt lat="43.33564895272708" lon="10.505768010308033"><ele>11.0</ele><time>2026-04-06T10:25:55Z</time></trkpt><trkpt lat="43.33550573005445" lon="10.505792671443599"><ele>11.0</ele><time>2026-04-06T10:25:56Z</time></trkpt><trkpt lat="43.335360012628975" lon="10.505812573491902"><ele>10.75</ele><time>2026-04-06T10:25:57Z</time></trkpt><trkpt lat="43.33521388125381" lon="10.505832945230356"><ele>10.5</ele><time>2026-04-06T10:25:58Z</time></trkpt><trkpt lat="43.33507012358011" lon="10.505853655054922"><ele>10.25</ele><time>2026-04-06T10:25:59Z</time></trkpt><trkpt lat="43.3349297399217" lon="10.505874035631713"><ele>10.0</ele><time>2026-04-06T10:26:00Z</time></trkpt><trkpt lat="43.33478783630891" lon="10.505896503217178"><ele>10.0</ele><time>2026-04-06T10:26:01Z</time></trkpt><trkpt lat="43.334649297852266" lon="10.505918645624119"><ele>10.0</ele><time>2026-04-06T10:26:02Z</time></trkpt><trkpt lat="43.33451196489222" lon="10.505940575052652"><ele>10.0</ele><time>2026-04-06T10:26:03Z</time></trkpt><trkpt lat="43.334374998071084" lon="10.505961557591792"><ele>10.0</ele><time>2026-04-06T10:26:04Z</time></trkpt><trkpt lat="43.3342404364191" lon="10.505980590614513"><ele>10.0</ele><time>2026-04-06T10:26:05Z</time></trkpt><trkpt lat="43.33410429104973" lon="10.506003592745758"><ele>10.0</ele><time>2026-04-06T10:26:06Z</time></trkpt><trkpt lat="43.33397110473511" lon="10.506026307569051"><ele>10.0</ele><time>2026-04-06T10:26:07Z</time></trkpt><trkpt lat="43.33384701884843" lon="10.506048082621849"><ele>10.0</ele><time>2026-04-06T10:26:08Z</time></trkpt><trkpt lat="43.3337310033238" lon="10.506067758121599"><ele>10.0</ele><time>2026-04-06T10:26:09Z</time></trkpt><trkpt lat="43.33362176355556" lon="10.506082635270314"><ele>10.0</ele><time>2026-04-06T10:26:10Z</time></trkpt><trkpt lat="43.33351865900838" lon="10.506095900847532"><ele>10.0</ele><time>2026-04-06T10:26:11Z</time></trkpt><trkpt lat="43.33342313346949" lon="10.506108968862408"><ele>10.0</ele><time>2026-04-06T10:26:12Z</time></trkpt><trkpt lat="43.33333406526796" lon="10.506124780323702"><ele>10.0</ele><time>2026-04-06T10:26:13Z</time></trkpt><trkpt lat="43.33325041041329" lon="10.506137629439904"><ele>10.0</ele><time>2026-04-06T10:26:14Z</time></trkpt><trkpt lat="43.3331650461109" lon="10.506152389476851"><ele>10.0</ele><time>2026-04-06T10:26:15Z</time></trkpt><trkpt lat="43.33307362748552" lon="10.50616777858891"><ele>10.0</ele><time>2026-04-06T10:26:16Z</time></trkpt><trkpt lat="43.332976851136856" lon="10.506181635415505"><ele>10.0</ele><time>2026-04-06T10:26:17Z</time></trkpt><trkpt lat="43.3328767434604" lon="10.506194633152639"><ele>10.0</ele><time>2026-04-06T10:26:18Z</time></trkpt><trkpt lat="43.33276953829588" lon="10.506209815593234"><ele>9.8</ele><time>2026-04-06T10:26:19Z</time></trkpt><trkpt lat="43.33266017888504" lon="10.506229503878226"><ele>9.6</ele><time>2026-04-06T10:26:20Z</time></trkpt><trkpt lat="43.33256287123187" lon="10.506249120409427"><ele>9.4</ele><time>2026-04-06T10:26:21Z</time></trkpt><trkpt lat="43.332481146499056" lon="10.50626322588216"><ele>9.2</ele><time>2026-04-06T10:26:22Z</time></trkpt><trkpt lat="43.332410753248055" lon="10.506274817439635"><ele>9.0</ele><time>2026-04-06T10:26:23Z</time></trkpt><trkpt lat="43.332299456372795" lon="10.506296602841546"><ele>9.0</ele><time>2026-04-06T10:26:25Z</time></trkpt><trkpt lat="43.33222042877868" lon="10.506309754713412"><ele>9.0</ele><time>2026-04-06T10:26:27Z</time></trkpt><trkpt lat="43.33214041610662" lon="10.506326605837254"><ele>9.0</ele><time>2026-04-06T10:26:30Z</time></trkpt><trkpt lat="43.332075323123085" lon="10.506339385149165"><ele>9.0</ele><time>2026-04-06T10:26:32Z</time></trkpt><trkpt lat="43.33199753420833" lon="10.50636029794728"><ele>9.0</ele><time>2026-04-06T10:26:33.999Z</time></trkpt><trkpt lat="43.33190779706273" lon="10.506396987969294"><ele>9.0</ele><time>2026-04-06T10:26:35.999Z</time></trkpt><trkpt lat="43.33180752482565" lon="10.506426277291009"><ele>9.000000000000002</ele><time>2026-04-06T10:26:37.999Z</time></trkpt><trkpt lat="43.33174044693547" lon="10.506431253484404"><ele>9.0</ele><time>2026-04-06T10:26:38.999Z</time></trkpt><trkpt lat="43.3316676679879" lon="10.506437545862521"><ele>9.0</ele><time>2026-04-06T10:26:39.999Z</time></trkpt><trkpt lat="43.331608945939635" lon="10.506485202511083"><ele>9.0</ele><time>2026-04-06T10:26:40.999Z</time></trkpt><trkpt lat="43.331580269572896" lon="10.506573993620865"><ele>9.0</ele><time>2026-04-06T10:26:41.999Z</time></trkpt><trkpt lat="43.33159293079732" lon="10.506672046037666"><ele>9.000000000000002</ele><time>2026-04-06T10:26:42.999Z</time></trkpt><trkpt lat="43.3316429259288" lon="10.50675581204413"><ele>9.0</ele><time>2026-04-06T10:26:43.999Z</time></trkpt><trkpt lat="43.33169975627198" lon="10.506848314664326"><ele>9.0</ele><time>2026-04-06T10:26:44.999Z</time></trkpt><trkpt lat="43.33173638942668" lon="10.506968231183398"><ele>9.0</ele><time>2026-04-06T10:26:45.999Z</time></trkpt><trkpt lat="43.331759979802136" lon="10.50711659594792"><ele>9.0</ele><time>2026-04-06T10:26:46.999Z</time></trkpt><trkpt lat="43.331781866413166" lon="10.507289443498646"><ele>9.0</ele><time>2026-04-06T10:26:47.999Z</time></trkpt><trkpt lat="43.33180699510301" lon="10.507472616429535"><ele>8.75</ele><time>2026-04-06T10:26:48.999Z</time></trkpt><trkpt lat="43.33183055332265" lon="10.507650844865251"><ele>8.5</ele><time>2026-04-06T10:26:49.999Z</time></trkpt><trkpt lat="43.331853975049654" lon="10.507830609162902"><ele>8.25</ele><time>2026-04-06T10:26:50.999Z</time></trkpt><trkpt lat="43.331879415773386" lon="10.508011504994775"><ele>8.0</ele><time>2026-04-06T10:26:51.999Z</time></trkpt><trkpt lat="43.33190505422177" lon="10.508192777144476"><ele>8.5</ele><time>2026-04-06T10:26:52.999Z</time></trkpt><trkpt lat="43.33193107004872" lon="10.508375585784286"><ele>9.0</ele><time>2026-04-06T10:26:53.999Z</time></trkpt><trkpt lat="43.33195653508052" lon="10.508558672838273"><ele>9.5</ele><time>2026-04-06T10:26:54.999Z</time></trkpt><trkpt lat="43.33198124806014" lon="10.508744234378392"><ele>10.0</ele><time>2026-04-06T10:26:55.999Z</time></trkpt><trkpt lat="43.33200607667082" lon="10.508931464886551"><ele>10.25</ele><time>2026-04-06T10:26:56.999Z</time></trkpt><trkpt lat="43.33203472166064" lon="10.509125286993383"><ele>10.5</ele><time>2026-04-06T10:26:57.999Z</time></trkpt><trkpt lat="43.332063669972705" lon="10.509326522027386"><ele>10.75</ele><time>2026-04-06T10:26:58.999Z</time></trkpt><trkpt lat="43.33209106794396" lon="10.509531390076356"><ele>11.0</ele><time>2026-04-06T10:26:59.999Z</time></trkpt><trkpt lat="43.33211927339268" lon="10.509738057181048"><ele>11.0</ele><time>2026-04-06T10:27:00.999Z</time></trkpt><trkpt lat="43.33214797244045" lon="10.509946223529008"><ele>11.0</ele><time>2026-04-06T10:27:01.999Z</time></trkpt><trkpt lat="43.332177342161884" lon="10.510152697544486"><ele>11.0</ele><time>2026-04-06T10:27:02.999Z</time></trkpt><trkpt lat="43.33220513237475" lon="10.510360575992676"><ele>11.0</ele><time>2026-04-06T10:27:03.999Z</time></trkpt><trkpt lat="43.332232568278435" lon="10.510567698685678"><ele>11.0</ele><time>2026-04-06T10:27:04.999Z</time></trkpt><trkpt lat="43.33225997707577" lon="10.510772899876763"><ele>11.0</ele><time>2026-04-06T10:27:05.999Z</time></trkpt><trkpt lat="43.332288393457716" lon="10.510973972741327"><ele>11.0</ele><time>2026-04-06T10:27:06.999Z</time></trkpt><trkpt lat="43.332315188902214" lon="10.511170874635326"><ele>11.0</ele><time>2026-04-06T10:27:07.999Z</time></trkpt><trkpt lat="43.332340310802756" lon="10.511366991607265"><ele>11.0</ele><time>2026-04-06T10:27:08.999Z</time></trkpt><trkpt lat="43.332364012475885" lon="10.511553346593498"><ele>11.0</ele><time>2026-04-06T10:27:09.999Z</time></trkpt><trkpt lat="43.33238702055324" lon="10.5117248380391"><ele>10.75</ele><time>2026-04-06T10:27:10.999Z</time></trkpt><trkpt lat="43.33241025331041" lon="10.51188763614307"><ele>10.5</ele><time>2026-04-06T10:27:11.999Z</time></trkpt><trkpt lat="43.33243281570756" lon="10.51204620247601"><ele>10.25</ele><time>2026-04-06T10:27:12.999Z</time></trkpt><trkpt lat="43.33245492801084" lon="10.512205550598612"><ele>10.0</ele><time>2026-04-06T10:27:13.999Z</time></trkpt><trkpt lat="43.332479008875914" lon="10.512366113424216"><ele>9.75</ele><time>2026-04-06T10:27:14.999Z</time></trkpt><trkpt lat="43.33251150006563" lon="10.51252830049993"><ele>9.5</ele><time>2026-04-06T10:27:15.999Z</time></trkpt><trkpt lat="43.33255468621379" lon="10.512688667559626"><ele>9.25</ele><time>2026-04-06T10:27:16.999Z</time></trkpt><trkpt lat="43.332613576716504" lon="10.51284391730563"><ele>9.0</ele><time>2026-04-06T10:27:17.999Z</time></trkpt><trkpt lat="43.332680495826004" lon="10.512998061518738"><ele>9.0</ele><time>2026-04-06T10:27:18.999Z</time></trkpt><trkpt lat="43.33276080856526" lon="10.51315242415471"><ele>9.0</ele><time>2026-04-06T10:27:19.999Z</time></trkpt><trkpt lat="43.3328515246386" lon="10.513302338868055"><ele>9.0</ele><time>2026-04-06T10:27:20.999Z</time></trkpt><trkpt lat="43.332953854357136" lon="10.513456766029101"><ele>9.0</ele><time>2026-04-06T10:27:21.999Z</time></trkpt><trkpt lat="43.333050496649186" lon="10.513634591267644"><ele>9.666666666666666</ele><time>2026-04-06T10:27:22.999Z</time></trkpt><trkpt lat="43.333162485045236" lon="10.513804094675073"><ele>10.333333333333332</ele><time>2026-04-06T10:27:23.999Z</time></trkpt><trkpt lat="43.33327749918575" lon="10.513980689618407"><ele>11.0</ele><time>2026-04-06T10:27:24.999Z</time></trkpt><trkpt lat="43.33340585087734" lon="10.514148112548693"><ele>11.0</ele><time>2026-04-06T10:27:25.999Z</time></trkpt><trkpt lat="43.333512191617885" lon="10.514326115544682"><ele>11.0</ele><time>2026-04-06T10:27:26.999Z</time></trkpt><trkpt lat="43.333614587459834" lon="10.514494466787148"><ele>11.0</ele><time>2026-04-06T10:27:27.999Z</time></trkpt><trkpt lat="43.33371529403831" lon="10.514658038651595"><ele>11.25</ele><time>2026-04-06T10:27:28.999Z</time></trkpt><trkpt lat="43.333802134009275" lon="10.51481543641511"><ele>11.5</ele><time>2026-04-06T10:27:29.999Z</time></trkpt><trkpt lat="43.333882678060995" lon="10.514987734024045"><ele>11.75</ele><time>2026-04-06T10:27:30.999Z</time></trkpt><trkpt lat="43.33394408020889" lon="10.515162981877566"><ele>12.0</ele><time>2026-04-06T10:27:31.999Z</time></trkpt><trkpt lat="43.33399441095207" lon="10.515333489913267"><ele>13.0</ele><time>2026-04-06T10:27:32.999Z</time></trkpt><trkpt lat="43.334026476766006" lon="10.515505997316653"><ele>14.0</ele><time>2026-04-06T10:27:33.999Z</time></trkpt><trkpt lat="43.334046492520905" lon="10.515682828635725"><ele>15.0</ele><time>2026-04-06T10:27:34.999Z</time></trkpt><trkpt lat="43.334050914320244" lon="10.515867708827306"><ele>16.0</ele><time>2026-04-06T10:27:35.999Z</time></trkpt><trkpt lat="43.33404704236293" lon="10.516058961668163"><ele>16.25</ele><time>2026-04-06T10:27:36.999Z</time></trkpt><trkpt lat="43.334034822067544" lon="10.516255600280202"><ele>16.5</ele><time>2026-04-06T10:27:37.999Z</time></trkpt><trkpt lat="43.33401983076321" lon="10.516454948428587"><ele>16.75</ele><time>2026-04-06T10:27:38.999Z</time></trkpt><trkpt lat="43.334003286438815" lon="10.516666879933993"><ele>17.0</ele><time>2026-04-06T10:27:39.999Z</time></trkpt><trkpt lat="43.333987169702276" lon="10.516887669615295"><ele>17.0</ele><time>2026-04-06T10:27:40.999Z</time></trkpt><trkpt lat="43.333969052536276" lon="10.517116860718374"><ele>17.0</ele><time>2026-04-06T10:27:41.999Z</time></trkpt><trkpt lat="43.333945159060015" lon="10.517362441215822"><ele>17.0</ele><time>2026-04-06T10:27:42.999Z</time></trkpt><trkpt lat="43.33391957057152" lon="10.517626144640001"><ele>17.0</ele><time>2026-04-06T10:27:43.999Z</time></trkpt><trkpt lat="43.33388874795832" lon="10.51790320389503"><ele>17.0</ele><time>2026-04-06T10:27:44.999Z</time></trkpt><trkpt lat="43.33386058674245" lon="10.518194630198806"><ele>17.0</ele><time>2026-04-06T10:27:46Z</time></trkpt><trkpt lat="43.33383343211531" lon="10.518490123996557"><ele>15.333333333333334</ele><time>2026-04-06T10:27:47Z</time></trkpt><trkpt lat="43.33380470093765" lon="10.518785350270395"><ele>13.666666666666668</ele><time>2026-04-06T10:27:48Z</time></trkpt><trkpt lat="43.333775860574775" lon="10.519084050109544"><ele>12.0</ele><time>2026-04-06T10:27:49Z</time></trkpt><trkpt lat="43.33374701426897" lon="10.51938500745531"><ele>11.0</ele><time>2026-04-06T10:27:50Z</time></trkpt><trkpt lat="43.33372169906674" lon="10.519689305918247"><ele>10.0</ele><time>2026-04-06T10:27:51Z</time></trkpt><trkpt lat="43.33369721093368" lon="10.51999307498702"><ele>9.0</ele><time>2026-04-06T10:27:52Z</time></trkpt><trkpt lat="43.333670598128734" lon="10.520295233258572"><ele>9.333333333333334</ele><time>2026-04-06T10:27:53Z</time></trkpt><trkpt lat="43.33364391605897" lon="10.52059132771381"><ele>9.666666666666668</ele><time>2026-04-06T10:27:54Z</time></trkpt><trkpt lat="43.33361879345644" lon="10.520881579825165"><ele>10.0</ele><time>2026-04-06T10:27:55Z</time></trkpt><trkpt lat="43.333594890369525" lon="10.521158210807576"><ele>10.0</ele><time>2026-04-06T10:27:56Z</time></trkpt><trkpt lat="43.33356897776876" lon="10.521433451592312"><ele>10.0</ele><time>2026-04-06T10:27:57Z</time></trkpt><trkpt lat="43.333536834128516" lon="10.521699638287963"><ele>10.0</ele><time>2026-04-06T10:27:58Z</time></trkpt><trkpt lat="43.3334882860789" lon="10.5219581676762"><ele>10.333333333333334</ele><time>2026-04-06T10:27:59Z</time></trkpt><trkpt lat="43.333421431232246" lon="10.522200075498358"><ele>10.666666666666666</ele><time>2026-04-06T10:28:00Z</time></trkpt><trkpt lat="43.333331069887315" lon="10.522417097274623"><ele>11.0</ele><time>2026-04-06T10:28:01Z</time></trkpt><trkpt lat="43.33321472469768" lon="10.522602606113661"><ele>11.0</ele><time>2026-04-06T10:28:02Z</time></trkpt><trkpt lat="43.333080957874024" lon="10.522763545171669"><ele>11.0</ele><time>2026-04-06T10:28:03Z</time></trkpt><trkpt lat="43.332938741411915" lon="10.52290728570891"><ele>11.0</ele><time>2026-04-06T10:28:04Z</time></trkpt><trkpt lat="43.332790956820965" lon="10.5230368043735"><ele>10.666666666666666</ele><time>2026-04-06T10:28:05Z</time></trkpt><trkpt lat="43.33263716296212" lon="10.523152217442327"><ele>10.333333333333334</ele><time>2026-04-06T10:28:06Z</time></trkpt><trkpt lat="43.33248332728487" lon="10.52326166692907"><ele>10.0</ele><time>2026-04-06T10:28:07Z</time></trkpt><trkpt lat="43.33233912736355" lon="10.523367955372732"><ele>9.5</ele><time>2026-04-06T10:28:08Z</time></trkpt><trkpt lat="43.332203628670484" lon="10.523469116488245"><ele>9.0</ele><time>2026-04-06T10:28:09Z</time></trkpt><trkpt lat="43.33207529444517" lon="10.523562462557493"><ele>8.5</ele><time>2026-04-06T10:28:10Z</time></trkpt><trkpt lat="43.33196044876719" lon="10.523637928573194"><ele>8.0</ele><time>2026-04-06T10:28:11Z</time></trkpt><trkpt lat="43.331851349714434" lon="10.523694541271272"><ele>8.0</ele><time>2026-04-06T10:28:12Z</time></trkpt><trkpt lat="43.33174294903095" lon="10.523730735267273"><ele>8.0</ele><time>2026-04-06T10:28:13Z</time></trkpt><trkpt lat="43.331636814876745" lon="10.523730664606493"><ele>8.0</ele><time>2026-04-06T10:28:14Z</time></trkpt><trkpt lat="43.33153266499559" lon="10.523709917023622"><ele>8.0</ele><time>2026-04-06T10:28:15Z</time></trkpt><trkpt lat="43.331438915168974" lon="10.523711405438195"><ele>8.0</ele><time>2026-04-06T10:28:16Z</time></trkpt><trkpt lat="43.33135609828297" lon="10.523751777032828"><ele>8.0</ele><time>2026-04-06T10:28:17Z</time></trkpt><trkpt lat="43.33128703453446" lon="10.523834397686741"><ele>8.0</ele><time>2026-04-06T10:28:18Z</time></trkpt><trkpt lat="43.33124756336137" lon="10.523950890178805"><ele>8.0</ele><time>2026-04-06T10:28:19Z</time></trkpt><trkpt lat="43.331249477385704" lon="10.52408396901942"><ele>8.0</ele><time>2026-04-06T10:28:20Z</time></trkpt><trkpt lat="43.33129499776775" lon="10.524204771777455"><ele>8.0</ele><time>2026-04-06T10:28:21Z</time></trkpt><trkpt lat="43.33136965515237" lon="10.524292946328435"><ele>8.4</ele><time>2026-04-06T10:28:22Z</time></trkpt><trkpt lat="43.33145587379984" lon="10.524353414699954"><ele>8.8</ele><time>2026-04-06T10:28:23Z</time></trkpt><trkpt lat="43.33153250935014" lon="10.524414579714314"><ele>9.2</ele><time>2026-04-06T10:28:24Z</time></trkpt><trkpt lat="43.33158758084162" lon="10.52448857668871"><ele>9.6</ele><time>2026-04-06T10:28:25Z</time></trkpt><trkpt lat="43.33162264352319" lon="10.524572268212504"><ele>10.0</ele><time>2026-04-06T10:28:26Z</time></trkpt><trkpt lat="43.33164242762949" lon="10.524732096586368"><ele>9.8</ele><time>2026-04-06T10:28:28Z</time></trkpt><trkpt lat="43.33160377641625" lon="10.524876742555715"><ele>9.6</ele><time>2026-04-06T10:28:30Z</time></trkpt><trkpt lat="43.33155188739794" lon="10.524951253653459"><ele>9.4</ele><time>2026-04-06T10:28:37.999Z</time></trkpt><trkpt lat="43.33145940615871" lon="10.525044288405853"><ele>9.2</ele><time>2026-04-06T10:28:39.999Z</time></trkpt><trkpt lat="43.33138141328564" lon="10.525079638541346"><ele>9.0</ele><time>2026-04-06T10:28:40.999Z</time></trkpt><trkpt lat="43.331290278911624" lon="10.525113398274906"><ele>9.0</ele><time>2026-04-06T10:28:41.999Z</time></trkpt><trkpt lat="43.33119897511962" lon="10.525148468748258"><ele>9.0</ele><time>2026-04-06T10:28:42.999Z</time></trkpt><trkpt lat="43.331103823242586" lon="10.525189494535855"><ele>9.0</ele><time>2026-04-06T10:28:43.999Z</time></trkpt><trkpt lat="43.33100519619912" lon="10.525232439779131"><ele>9.0</ele><time>2026-04-06T10:28:44.999Z</time></trkpt><trkpt lat="43.33090822069313" lon="10.525272839266917"><ele>9.0</ele><time>2026-04-06T10:28:45.999Z</time></trkpt><trkpt lat="43.33081376400566" lon="10.525309969724816"><ele>9.0</ele><time>2026-04-06T10:28:46.999Z</time></trkpt><trkpt lat="43.3307216071879" lon="10.525348043559413"><ele>9.0</ele><time>2026-04-06T10:28:47.999Z</time></trkpt><trkpt lat="43.33063395355958" lon="10.525390719654796"><ele>9.0</ele><time>2026-04-06T10:28:48.999Z</time></trkpt><trkpt lat="43.33055156684798" lon="10.525444086206875"><ele>9.0</ele><time>2026-04-06T10:28:49.999Z</time></trkpt><trkpt lat="43.33047452338254" lon="10.525508587938106"><ele>9.0</ele><time>2026-04-06T10:28:50.999Z</time></trkpt><trkpt lat="43.33040624249925" lon="10.525586938068487"><ele>9.0</ele><time>2026-04-06T10:28:51.999Z</time></trkpt><trkpt lat="43.33035076276065" lon="10.525681001416382"><ele>9.0</ele><time>2026-04-06T10:28:52.999Z</time></trkpt><trkpt lat="43.33030794777837" lon="10.52579067542744"><ele>9.0</ele><time>2026-04-06T10:28:53.999Z</time></trkpt><trkpt lat="43.33026863970192" lon="10.525913339254481"><ele>9.0</ele><time>2026-04-06T10:28:54.999Z</time></trkpt><trkpt lat="43.33023075607982" lon="10.526037621569154"><ele>9.0</ele><time>2026-04-06T10:28:55.999Z</time></trkpt><trkpt lat="43.33019274052219" lon="10.526163578783835"><ele>9.6</ele><time>2026-04-06T10:28:56.999Z</time></trkpt><trkpt lat="43.33015545597903" lon="10.526289379412972"><ele>10.2</ele><time>2026-04-06T10:28:57.999Z</time></trkpt><trkpt lat="43.33011694876529" lon="10.526411900854141"><ele>10.799999999999999</ele><time>2026-04-06T10:28:58.999Z</time></trkpt><trkpt lat="43.33007709416852" lon="10.526532370128859"><ele>11.4</ele><time>2026-04-06T10:28:59.999Z</time></trkpt><trkpt lat="43.330029160438585" lon="10.526649760673928"><ele>12.0</ele><time>2026-04-06T10:29:00.999Z</time></trkpt><trkpt lat="43.3299587737897" lon="10.526756212213973"><ele>12.0</ele><time>2026-04-06T10:29:01.999Z</time></trkpt><trkpt lat="43.32987334367661" lon="10.526847058942543"><ele>12.0</ele><time>2026-04-06T10:29:02.999Z</time></trkpt><trkpt lat="43.32976785749633" lon="10.526911160506877"><ele>12.0</ele><time>2026-04-06T10:29:03.999Z</time></trkpt><trkpt lat="43.32965143342163" lon="10.526965641739906"><ele>12.0</ele><time>2026-04-06T10:29:04.999Z</time></trkpt><trkpt lat="43.32953285457118" lon="10.527028352805045"><ele>11.333333333333334</ele><time>2026-04-06T10:29:05.999Z</time></trkpt><trkpt lat="43.32941695182134" lon="10.527122312112617"><ele>10.666666666666668</ele><time>2026-04-06T10:29:06.999Z</time></trkpt><trkpt lat="43.32926668422625" lon="10.527189091853216"><ele>10.0</ele><time>2026-04-06T10:29:07.999Z</time></trkpt><trkpt lat="43.32911404955493" lon="10.527283273648782"><ele>10.0</ele><time>2026-04-06T10:29:08.999Z</time></trkpt><trkpt lat="43.32895378311545" lon="10.527394348088047"><ele>10.0</ele><time>2026-04-06T10:29:09.999Z</time></trkpt><trkpt lat="43.32878825818402" lon="10.527506787701522"><ele>10.0</ele><time>2026-04-06T10:29:10.999Z</time></trkpt><trkpt lat="43.328608065098045" lon="10.527620025063689"><ele>9.333333333333334</ele><time>2026-04-06T10:29:11.999Z</time></trkpt><trkpt lat="43.32841394870996" lon="10.527736618464305"><ele>8.666666666666666</ele><time>2026-04-06T10:29:12.999Z</time></trkpt><trkpt lat="43.32821396138777" lon="10.527860622533602"><ele>8.0</ele><time>2026-04-06T10:29:13.999Z</time></trkpt><trkpt lat="43.32801111626407" lon="10.527990193490908"><ele>8.0</ele><time>2026-04-06T10:29:14.999Z</time></trkpt><trkpt lat="43.32780404675864" lon="10.528122276066318"><ele>8.0</ele><time>2026-04-06T10:29:15.999Z</time></trkpt><trkpt lat="43.32758584980021" lon="10.528260626636156"><ele>8.0</ele><time>2026-04-06T10:29:16.999Z</time></trkpt><trkpt lat="43.32735897147189" lon="10.528404677418457"><ele>8.0</ele><time>2026-04-06T10:29:17.999Z</time></trkpt><trkpt lat="43.327130078604846" lon="10.52854607954536"><ele>8.0</ele><time>2026-04-06T10:29:18.999Z</time></trkpt><trkpt lat="43.32689959118775" lon="10.528680824338117"><ele>8.0</ele><time>2026-04-06T10:29:19.999Z</time></trkpt><trkpt lat="43.32667772157364" lon="10.528811369210063"><ele>8.0</ele><time>2026-04-06T10:29:20.999Z</time></trkpt><trkpt lat="43.32646293521565" lon="10.52894576872254"><ele>8.0</ele><time>2026-04-06T10:29:21.999Z</time></trkpt><trkpt lat="43.32625973148288" lon="10.52907668771898"><ele>7.666666666666666</ele><time>2026-04-06T10:29:22.999Z</time></trkpt><trkpt lat="43.32606022870394" lon="10.529202231396837"><ele>7.333333333333334</ele><time>2026-04-06T10:29:23.999Z</time></trkpt><trkpt lat="43.32587139185359" lon="10.529323139597455"><ele>7.0</ele><time>2026-04-06T10:29:24.999Z</time></trkpt><trkpt lat="43.32568228789147" lon="10.529441199465916"><ele>6.666666666666667</ele><time>2026-04-06T10:29:25.999Z</time></trkpt><trkpt lat="43.325502292835374" lon="10.529553909737709"><ele>6.333333333333334</ele><time>2026-04-06T10:29:26.999Z</time></trkpt><trkpt lat="43.32531604858322" lon="10.52967580390491"><ele>6.0</ele><time>2026-04-06T10:29:27.999Z</time></trkpt><trkpt lat="43.325123892809856" lon="10.52980094704331"><ele>6.0</ele><time>2026-04-06T10:29:28.999Z</time></trkpt><trkpt lat="43.324916737104445" lon="10.52993561442867"><ele>6.0</ele><time>2026-04-06T10:29:29.999Z</time></trkpt><trkpt lat="43.324696609049646" lon="10.530068477471705"><ele>5.5</ele><time>2026-04-06T10:29:30.999Z</time></trkpt><trkpt lat="43.324463782682066" lon="10.530207089506572"><ele>5.0</ele><time>2026-04-06T10:29:31.999Z</time></trkpt><trkpt lat="43.324216660783165" lon="10.530348427276266"><ele>5.0</ele><time>2026-04-06T10:29:32.999Z</time></trkpt><trkpt lat="43.32396703388061" lon="10.530493846761441"><ele>5.0</ele><time>2026-04-06T10:29:33.999Z</time></trkpt><trkpt lat="43.323715121510226" lon="10.530642498451153"><ele>4.5</ele><time>2026-04-06T10:29:34.999Z</time></trkpt><trkpt lat="43.32346166186179" lon="10.530788045195752"><ele>4.0</ele><time>2026-04-06T10:29:35.999Z</time></trkpt><trkpt lat="43.323196944519005" lon="10.530941143646789"><ele>4.5</ele><time>2026-04-06T10:29:36.999Z</time></trkpt><trkpt lat="43.322936076230064" lon="10.531091676780079"><ele>5.0</ele><time>2026-04-06T10:29:37.999Z</time></trkpt><trkpt lat="43.32266728939818" lon="10.531244455960946"><ele>5.0</ele><time>2026-04-06T10:29:38.999Z</time></trkpt><trkpt lat="43.3223931630628" lon="10.531396637365688"><ele>5.0</ele><time>2026-04-06T10:29:39.999Z</time></trkpt><trkpt lat="43.322116182072094" lon="10.531548936757337"><ele>6.0</ele><time>2026-04-06T10:29:40.999Z</time></trkpt><trkpt lat="43.321841808249324" lon="10.531700796581678"><ele>7.0</ele><time>2026-04-06T10:29:41.999Z</time></trkpt><trkpt lat="43.321562778408975" lon="10.53185377859231"><ele>8.0</ele><time>2026-04-06T10:29:42.999Z</time></trkpt><trkpt lat="43.32128331873872" lon="10.532008108667512"><ele>9.0</ele><time>2026-04-06T10:29:43.999Z</time></trkpt><trkpt lat="43.32100330900454" lon="10.53216466005953"><ele>9.5</ele><time>2026-04-06T10:29:44.999Z</time></trkpt><trkpt lat="43.32071874808631" lon="10.532322153580012"><ele>10.0</ele><time>2026-04-06T10:29:45.999Z</time></trkpt><trkpt lat="43.32044046899209" lon="10.532478550802475"><ele>9.0</ele><time>2026-04-06T10:29:46.999Z</time></trkpt><trkpt lat="43.32016356987456" lon="10.532635029691619"><ele>8.0</ele><time>2026-04-06T10:29:47.999Z</time></trkpt><trkpt lat="43.31988233366007" lon="10.53279091304708"><ele>11.5</ele><time>2026-04-06T10:29:48.999Z</time></trkpt><trkpt lat="43.31960573163236" lon="10.532941005244027"><ele>15.0</ele><time>2026-04-06T10:29:49.999Z</time></trkpt><trkpt lat="43.31932639112354" lon="10.533093819870894"><ele>15.0</ele><time>2026-04-06T10:29:51Z</time></trkpt><trkpt lat="43.31905418972211" lon="10.533245123836503"><ele>15.0</ele><time>2026-04-06T10:29:52Z</time></trkpt><trkpt lat="43.31877844477199" lon="10.533396960127469"><ele>15.5</ele><time>2026-04-06T10:29:53Z</time></trkpt><trkpt lat="43.318502328773604" lon="10.533550144628268"><ele>16.0</ele><time>2026-04-06T10:29:54Z</time></trkpt><trkpt lat="43.31822962058578" lon="10.53370227278312"><ele>15.5</ele><time>2026-04-06T10:29:55Z</time></trkpt><trkpt lat="43.31795472996607" lon="10.533853616371761"><ele>15.0</ele><time>2026-04-06T10:29:56Z</time></trkpt><trkpt lat="43.31768380728427" lon="10.534000641184011"><ele>15.0</ele><time>2026-04-06T10:29:57Z</time></trkpt><trkpt lat="43.31741195933285" lon="10.534149480773609"><ele>15.0</ele><time>2026-04-06T10:29:58Z</time></trkpt><trkpt lat="43.31713641026737" lon="10.534300616174193"><ele>15.5</ele><time>2026-04-06T10:29:59Z</time></trkpt><trkpt lat="43.316866253053284" lon="10.534452381505266"><ele>16.0</ele><time>2026-04-06T10:30:00Z</time></trkpt><trkpt lat="43.316592971985024" lon="10.534602321263304"><ele>20.5</ele><time>2026-04-06T10:30:01Z</time></trkpt><trkpt lat="43.31632085472043" lon="10.534750941608644"><ele>25.0</ele><time>2026-04-06T10:30:02Z</time></trkpt><trkpt lat="43.31604652874144" lon="10.534899144146783"><ele>25.0</ele><time>2026-04-06T10:30:03Z</time></trkpt><trkpt lat="43.31577167994431" lon="10.5350505409232"><ele>25.0</ele><time>2026-04-06T10:30:03.999Z</time></trkpt><trkpt lat="43.31549954925613" lon="10.535204356031256"><ele>27.0</ele><time>2026-04-06T10:30:04.999Z</time></trkpt><trkpt lat="43.31522609403866" lon="10.535358499579099"><ele>29.0</ele><time>2026-04-06T10:30:05.999Z</time></trkpt><trkpt lat="43.3149537394271" lon="10.535512069167888"><ele>29.0</ele><time>2026-04-06T10:30:06.999Z</time></trkpt><trkpt lat="43.31467770914653" lon="10.53566253989264"><ele>29.0</ele><time>2026-04-06T10:30:07.999Z</time></trkpt><trkpt lat="43.31439960011854" lon="10.535811538787506"><ele>29.0</ele><time>2026-04-06T10:30:08.999Z</time></trkpt><trkpt lat="43.31412387596338" lon="10.535963567396909"><ele>29.0</ele><time>2026-04-06T10:30:09.999Z</time></trkpt><trkpt lat="43.31384036862895" lon="10.536118215361059"><ele>29.0</ele><time>2026-04-06T10:30:11Z</time></trkpt><trkpt lat="43.31357016307983" lon="10.536273777474303"><ele>29.0</ele><time>2026-04-06T10:30:12Z</time></trkpt><trkpt lat="43.313304868542446" lon="10.536432802127367"><ele>30.0</ele><time>2026-04-06T10:30:13Z</time></trkpt><trkpt lat="43.3130302894617" lon="10.536599539925888"><ele>31.0</ele><time>2026-04-06T10:30:14Z</time></trkpt><trkpt lat="43.312767050066604" lon="10.53677715674084"><ele>31.0</ele><time>2026-04-06T10:30:15Z</time></trkpt><trkpt lat="43.31250198474345" lon="10.536969728871329"><ele>31.0</ele><time>2026-04-06T10:30:16Z</time></trkpt><trkpt lat="43.31224293664616" lon="10.537172935117205"><ele>29.0</ele><time>2026-04-06T10:30:17Z</time></trkpt><trkpt lat="43.311984477139" lon="10.537391398657267"><ele>27.0</ele><time>2026-04-06T10:30:18Z</time></trkpt><trkpt lat="43.31173498009695" lon="10.537624402049483"><ele>27.0</ele><time>2026-04-06T10:30:19Z</time></trkpt><trkpt lat="43.311489220556275" lon="10.537869275028996"><ele>27.0</ele><time>2026-04-06T10:30:20Z</time></trkpt><trkpt lat="43.31124632446229" lon="10.538122555693915"><ele>25.0</ele><time>2026-04-06T10:30:21Z</time></trkpt><trkpt lat="43.31100835027449" lon="10.538385882027102"><ele>23.0</ele><time>2026-04-06T10:30:22Z</time></trkpt><trkpt lat="43.31077269178903" lon="10.538658834686503"><ele>22.5</ele><time>2026-04-06T10:30:23Z</time></trkpt><trkpt lat="43.31053570553476" lon="10.53893691329757"><ele>22.0</ele><time>2026-04-06T10:30:23.999Z</time></trkpt><trkpt lat="43.31029050340474" lon="10.539212793632261"><ele>22.0</ele><time>2026-04-06T10:30:24.999Z</time></trkpt><trkpt lat="43.3100469986303" lon="10.53948742308339"><ele>22.0</ele><time>2026-04-06T10:30:25.999Z</time></trkpt><trkpt lat="43.30980231109269" lon="10.53976427068161"><ele>24.0</ele><time>2026-04-06T10:30:26.999Z</time></trkpt><trkpt lat="43.30956085023023" lon="10.540045430624156"><ele>26.0</ele><time>2026-04-06T10:30:27.999Z</time></trkpt><trkpt lat="43.30931571689494" lon="10.5403264630371"><ele>26.5</ele><time>2026-04-06T10:30:28.999Z</time></trkpt><trkpt lat="43.30906991232896" lon="10.54060386883543"><ele>27.0</ele><time>2026-04-06T10:30:29.999Z</time></trkpt><trkpt lat="43.30882390936525" lon="10.540882570994977"><ele>27.0</ele><time>2026-04-06T10:30:30.999Z</time></trkpt><trkpt lat="43.308567563446935" lon="10.541166497554402"><ele>27.0</ele><time>2026-04-06T10:30:31.999Z</time></trkpt><trkpt lat="43.308325616119575" lon="10.541445187166198"><ele>27.0</ele><time>2026-04-06T10:30:32.999Z</time></trkpt><trkpt lat="43.30807406424617" lon="10.541728296479832"><ele>27.0</ele><time>2026-04-06T10:30:33.999Z</time></trkpt><trkpt lat="43.30782759128753" lon="10.542009430718828"><ele>28.5</ele><time>2026-04-06T10:30:34.999Z</time></trkpt><trkpt lat="43.3075797887051" lon="10.542289557785358"><ele>30.0</ele><time>2026-04-06T10:30:35.999Z</time></trkpt><trkpt lat="43.30732964808726" lon="10.542571144137593"><ele>29.5</ele><time>2026-04-06T10:30:36.999Z</time></trkpt><trkpt lat="43.307083380280815" lon="10.542851924803724"><ele>29.0</ele><time>2026-04-06T10:30:37.999Z</time></trkpt><trkpt lat="43.30683445395136" lon="10.543134296622698"><ele>29.0</ele><time>2026-04-06T10:30:38.999Z</time></trkpt><trkpt lat="43.306585211082876" lon="10.543416216129199"><ele>29.0</ele><time>2026-04-06T10:30:39.999Z</time></trkpt><trkpt lat="43.306336853408155" lon="10.543698032550154"><ele>29.5</ele><time>2026-04-06T10:30:40.999Z</time></trkpt><trkpt lat="43.30609060070915" lon="10.543981115497532"><ele>30.0</ele><time>2026-04-06T10:30:41.999Z</time></trkpt><trkpt lat="43.30584029506735" lon="10.54426288752848"><ele>30.5</ele><time>2026-04-06T10:30:42.999Z</time></trkpt><trkpt lat="43.3055872235336" lon="10.544547831456637"><ele>31.0</ele><time>2026-04-06T10:30:43.999Z</time></trkpt><trkpt lat="43.30533735191025" lon="10.544830294784179"><ele>29.0</ele><time>2026-04-06T10:30:44.999Z</time></trkpt><trkpt lat="43.305086095242295" lon="10.54511248605509"><ele>27.0</ele><time>2026-04-06T10:30:45.999Z</time></trkpt><trkpt lat="43.30483252998668" lon="10.545388129838956"><ele>26.5</ele><time>2026-04-06T10:30:46.999Z</time></trkpt><trkpt lat="43.304570895038914" lon="10.545659072660742"><ele>26.0</ele><time>2026-04-06T10:30:47.999Z</time></trkpt><trkpt lat="43.30430006916193" lon="10.545911808331153"><ele>26.0</ele><time>2026-04-06T10:30:48.999Z</time></trkpt><trkpt lat="43.30401963155559" lon="10.546146444756745"><ele>26.0</ele><time>2026-04-06T10:30:49.999Z</time></trkpt><trkpt lat="43.303736742797824" lon="10.546358449802606"><ele>27.5</ele><time>2026-04-06T10:30:50.999Z</time></trkpt><trkpt lat="43.30343848966015" lon="10.546549685828328"><ele>29.0</ele><time>2026-04-06T10:30:51.999Z</time></trkpt><trkpt lat="43.30313823202148" lon="10.54672127352241"><ele>29.5</ele><time>2026-04-06T10:30:52.999Z</time></trkpt><trkpt lat="43.302832829505135" lon="10.546873930051083"><ele>30.0</ele><time>2026-04-06T10:30:53.999Z</time></trkpt><trkpt lat="43.302521303183404" lon="10.547006205699136"><ele>29.5</ele><time>2026-04-06T10:30:54.999Z</time></trkpt><trkpt lat="43.302203121407175" lon="10.547115684849034"><ele>29.0</ele><time>2026-04-06T10:30:55.999Z</time></trkpt><trkpt lat="43.3018828705187" lon="10.54720413399309"><ele>29.0</ele><time>2026-04-06T10:30:56.999Z</time></trkpt><trkpt lat="43.30155721239252" lon="10.547264849290789"><ele>29.0</ele><time>2026-04-06T10:30:57.999Z</time></trkpt><trkpt lat="43.301234219631965" lon="10.547303866107391"><ele>27.5</ele><time>2026-04-06T10:30:58.999Z</time></trkpt><trkpt lat="43.30091349873704" lon="10.547330396139863"><ele>26.0</ele><time>2026-04-06T10:30:59.999Z</time></trkpt><trkpt lat="43.30059270048597" lon="10.5473275215694"><ele>27.0</ele><time>2026-04-06T10:31:00.999Z</time></trkpt><trkpt lat="43.30027643562929" lon="10.547310819853342"><ele>28.0</ele><time>2026-04-06T10:31:01.999Z</time></trkpt><trkpt lat="43.299959275077626" lon="10.547269823016386"><ele>28.0</ele><time>2026-04-06T10:31:02.999Z</time></trkpt><trkpt lat="43.29965039114147" lon="10.547205717363855"><ele>28.0</ele><time>2026-04-06T10:31:03.999Z</time></trkpt><trkpt lat="43.2993419174552" lon="10.547123937613991"><ele>27.5</ele><time>2026-04-06T10:31:04.999Z</time></trkpt><trkpt lat="43.29903791503596" lon="10.54703271458721"><ele>27.0</ele><time>2026-04-06T10:31:05.999Z</time></trkpt><trkpt lat="43.298755983798266" lon="10.54695064681847"><ele>25.5</ele><time>2026-04-06T10:31:06.999Z</time></trkpt><trkpt lat="43.298476389434484" lon="10.546807296364559"><ele>24.0</ele><time>2026-04-06T10:31:07.999Z</time></trkpt><trkpt lat="43.29815346817795" lon="10.546667309436836"><ele>25.0</ele><time>2026-04-06T10:31:08.999Z</time></trkpt><trkpt lat="43.29786068633078" lon="10.546526382188542"><ele>26.0</ele><time>2026-04-06T10:31:09.999Z</time></trkpt><trkpt lat="43.29756859569767" lon="10.546393764525188"><ele>26.0</ele><time>2026-04-06T10:31:10.999Z</time></trkpt><trkpt lat="43.29728243786835" lon="10.546253725798678"><ele>26.0</ele><time>2026-04-06T10:31:11.999Z</time></trkpt><trkpt lat="43.29699829866711" lon="10.54611604097364"><ele>26.0</ele><time>2026-04-06T10:31:12.999Z</time></trkpt><trkpt lat="43.296713574869536" lon="10.545983412074982"><ele>26.0</ele><time>2026-04-06T10:31:13.999Z</time></trkpt><trkpt lat="43.29642655322118" lon="10.545852944441778"><ele>25.0</ele><time>2026-04-06T10:31:14.999Z</time></trkpt><trkpt lat="43.29614223160766" lon="10.545717694258125"><ele>24.0</ele><time>2026-04-06T10:31:15.999Z</time></trkpt><trkpt lat="43.29585478059541" lon="10.545591447387048"><ele>23.0</ele><time>2026-04-06T10:31:16.999Z</time></trkpt><trkpt lat="43.29557130391175" lon="10.545449416054613"><ele>22.0</ele><time>2026-04-06T10:31:17.999Z</time></trkpt><trkpt lat="43.295284685206376" lon="10.545312530620606"><ele>21.5</ele><time>2026-04-06T10:31:18.999Z</time></trkpt><trkpt lat="43.2949981805179" lon="10.545177274533334"><ele>21.0</ele><time>2026-04-06T10:31:19.999Z</time></trkpt><trkpt lat="43.294709650166844" lon="10.54503745039826"><ele>19.5</ele><time>2026-04-06T10:31:20.999Z</time></trkpt><trkpt lat="43.29441814891067" lon="10.5449013716783"><ele>18.0</ele><time>2026-04-06T10:31:21.999Z</time></trkpt><trkpt lat="43.29412275912576" lon="10.544773313982944"><ele>18.0</ele><time>2026-04-06T10:31:22.999Z</time></trkpt><trkpt lat="43.29382734708535" lon="10.544643187188752"><ele>18.0</ele><time>2026-04-06T10:31:23.999Z</time></trkpt><trkpt lat="43.29352936162814" lon="10.544524327682414"><ele>17.5</ele><time>2026-04-06T10:31:24.999Z</time></trkpt><trkpt lat="43.29323071462781" lon="10.54440873065292"><ele>17.0</ele><time>2026-04-06T10:31:25.999Z</time></trkpt><trkpt lat="43.29292760529165" lon="10.544308003445721"><ele>18.0</ele><time>2026-04-06T10:31:26.999Z</time></trkpt><trkpt lat="43.29262671209484" lon="10.544200673022434"><ele>19.0</ele><time>2026-04-06T10:31:27.999Z</time></trkpt><trkpt lat="43.292322164000076" lon="10.544103436080137"><ele>18.5</ele><time>2026-04-06T10:31:28.999Z</time></trkpt><trkpt lat="43.292015188274604" lon="10.5440158150996"><ele>18.0</ele><time>2026-04-06T10:31:29.999Z</time></trkpt><trkpt lat="43.29170640663417" lon="10.543933362311542"><ele>18.0</ele><time>2026-04-06T10:31:30.999Z</time></trkpt><trkpt lat="43.29139674710203" lon="10.543864946084012"><ele>18.0</ele><time>2026-04-06T10:31:31.999Z</time></trkpt><trkpt lat="43.29108588718211" lon="10.54380811171471"><ele>18.0</ele><time>2026-04-06T10:31:32.999Z</time></trkpt><trkpt lat="43.29077371459418" lon="10.5437465519074"><ele>18.0</ele><time>2026-04-06T10:31:33.999Z</time></trkpt><trkpt lat="43.290463723300626" lon="10.54369008044274"><ele>16.0</ele><time>2026-04-06T10:31:34.999Z</time></trkpt><trkpt lat="43.29015272968025" lon="10.543626544283896"><ele>14.0</ele><time>2026-04-06T10:31:35.999Z</time></trkpt><trkpt lat="43.28984359455302" lon="10.543560956859567"><ele>13.0</ele><time>2026-04-06T10:31:36.999Z</time></trkpt><trkpt lat="43.28953662737561" lon="10.54348493127503"><ele>12.0</ele><time>2026-04-06T10:31:37.999Z</time></trkpt><trkpt lat="43.28922338079443" lon="10.543434680067156"><ele>12.0</ele><time>2026-04-06T10:31:38.999Z</time></trkpt><trkpt lat="43.28891707657623" lon="10.543386156100466"><ele>12.0</ele><time>2026-04-06T10:31:39.999Z</time></trkpt><trkpt lat="43.28861670539081" lon="10.54333338243246"><ele>12.0</ele><time>2026-04-06T10:31:40.999Z</time></trkpt><trkpt lat="43.28831994053176" lon="10.543277762387117"><ele>12.0</ele><time>2026-04-06T10:31:41.999Z</time></trkpt><trkpt lat="43.28802255230946" lon="10.543222176665191"><ele>12.0</ele><time>2026-04-06T10:31:42.999Z</time></trkpt><trkpt lat="43.2877298402003" lon="10.543161573116485"><ele>12.0</ele><time>2026-04-06T10:31:43.999Z</time></trkpt><trkpt lat="43.28743110328414" lon="10.543114888470782"><ele>12.0</ele><time>2026-04-06T10:31:44.999Z</time></trkpt><trkpt lat="43.287137806726136" lon="10.543061768605241"><ele>12.0</ele><time>2026-04-06T10:31:45.999Z</time></trkpt><trkpt lat="43.28684402873452" lon="10.543008297099854"><ele>12.0</ele><time>2026-04-06T10:31:46.999Z</time></trkpt><trkpt lat="43.28655064779972" lon="10.542951111510394"><ele>12.0</ele><time>2026-04-06T10:31:47.999Z</time></trkpt><trkpt lat="43.28625527405148" lon="10.542895693557899"><ele>11.5</ele><time>2026-04-06T10:31:48.999Z</time></trkpt><trkpt lat="43.28596544982264" lon="10.54282978517835"><ele>11.0</ele><time>2026-04-06T10:31:49.999Z</time></trkpt><trkpt lat="43.28567704332147" lon="10.542754960069388"><ele>11.0</ele><time>2026-04-06T10:31:50.999Z</time></trkpt><trkpt lat="43.2853883836475" lon="10.542671977114853"><ele>11.0</ele><time>2026-04-06T10:31:51.999Z</time></trkpt><trkpt lat="43.28510437737849" lon="10.54257948991226"><ele>11.0</ele><time>2026-04-06T10:31:52.999Z</time></trkpt><trkpt lat="43.28482264661733" lon="10.542481663229688"><ele>11.0</ele><time>2026-04-06T10:31:53.999Z</time></trkpt><trkpt lat="43.284535869825625" lon="10.542384028847762"><ele>12.0</ele><time>2026-04-06T10:31:54.999Z</time></trkpt><trkpt lat="43.28425937895291" lon="10.542276846964564"><ele>13.0</ele><time>2026-04-06T10:31:55.999Z</time></trkpt><trkpt lat="43.283977907809636" lon="10.542156019083214"><ele>13.0</ele><time>2026-04-06T10:31:57Z</time></trkpt><trkpt lat="43.28371185806676" lon="10.542039165784903"><ele>13.0</ele><time>2026-04-06T10:31:58Z</time></trkpt><trkpt lat="43.28343273173061" lon="10.541928872562446"><ele>13.0</ele><time>2026-04-06T10:31:59Z</time></trkpt><trkpt lat="43.283156336935214" lon="10.541813603027615"><ele>13.0</ele><time>2026-04-06T10:32:00Z</time></trkpt><trkpt lat="43.28288323148313" lon="10.541701701372954"><ele>12.0</ele><time>2026-04-06T10:32:01Z</time></trkpt><trkpt lat="43.2826066922333" lon="10.541596416305039"><ele>11.0</ele><time>2026-04-06T10:32:02Z</time></trkpt><trkpt lat="43.28233365039972" lon="10.54148329911174"><ele>10.0</ele><time>2026-04-06T10:32:03Z</time></trkpt><trkpt lat="43.282062060171484" lon="10.54136906801556"><ele>9.0</ele><time>2026-04-06T10:32:04Z</time></trkpt><trkpt lat="43.281787015389604" lon="10.541261380393653"><ele>9.0</ele><time>2026-04-06T10:32:05Z</time></trkpt><trkpt lat="43.28151720806543" lon="10.541147482653342"><ele>9.0</ele><time>2026-04-06T10:32:06Z</time></trkpt><trkpt lat="43.281248738713735" lon="10.541031906957466"><ele>9.0</ele><time>2026-04-06T10:32:07Z</time></trkpt><trkpt lat="43.2809785971147" lon="10.540924466696284"><ele>9.0</ele><time>2026-04-06T10:32:08Z</time></trkpt><trkpt lat="43.28070679254474" lon="10.540819041232002"><ele>8.5</ele><time>2026-04-06T10:32:09Z</time></trkpt><trkpt lat="43.28044353798112" lon="10.54070654016765"><ele>8.0</ele><time>2026-04-06T10:32:10Z</time></trkpt><trkpt lat="43.280172655944426" lon="10.540600151737197"><ele>8.0</ele><time>2026-04-06T10:32:11Z</time></trkpt><trkpt lat="43.27990299860308" lon="10.540494583956873"><ele>8.0</ele><time>2026-04-06T10:32:12Z</time></trkpt><trkpt lat="43.27963274686572" lon="10.540398616006161"><ele>9.0</ele><time>2026-04-06T10:32:13Z</time></trkpt><trkpt lat="43.27936296414573" lon="10.540299182938526"><ele>10.0</ele><time>2026-04-06T10:32:14Z</time></trkpt><trkpt lat="43.27909554589298" lon="10.540194982517571"><ele>8.5</ele><time>2026-04-06T10:32:15Z</time></trkpt><trkpt lat="43.278829302233206" lon="10.54008594915559"><ele>7.0</ele><time>2026-04-06T10:32:15.999Z</time></trkpt><trkpt lat="43.2785670024818" lon="10.539968389989687"><ele>7.0</ele><time>2026-04-06T10:32:16.999Z</time></trkpt><trkpt lat="43.278294683651666" lon="10.539859391276256"><ele>7.0</ele><time>2026-04-06T10:32:17.999Z</time></trkpt><trkpt lat="43.2780245473264" lon="10.539749189759151"><ele>6.5</ele><time>2026-04-06T10:32:18.999Z</time></trkpt><trkpt lat="43.27775802899159" lon="10.539635870416987"><ele>6.0</ele><time>2026-04-06T10:32:19.999Z</time></trkpt><trkpt lat="43.277493486539136" lon="10.53952387296954"><ele>6.5</ele><time>2026-04-06T10:32:20.999Z</time></trkpt><trkpt lat="43.277220563452474" lon="10.539423331400393"><ele>7.0</ele><time>2026-04-06T10:32:21.999Z</time></trkpt><trkpt lat="43.27695152731406" lon="10.539326128428764"><ele>7.0</ele><time>2026-04-06T10:32:22.999Z</time></trkpt><trkpt lat="43.27668172931829" lon="10.539238351648313"><ele>7.0</ele><time>2026-04-06T10:32:23.999Z</time></trkpt><trkpt lat="43.27641157867616" lon="10.539158767978666"><ele>7.0</ele><time>2026-04-06T10:32:24.999Z</time></trkpt><trkpt lat="43.2761386622263" lon="10.539094170830642"><ele>7.0</ele><time>2026-04-06T10:32:25.999Z</time></trkpt><trkpt lat="43.275860504948696" lon="10.539044503956003"><ele>7.0</ele><time>2026-04-06T10:32:26.999Z</time></trkpt><trkpt lat="43.27557800752681" lon="10.5390138226764"><ele>7.0</ele><time>2026-04-06T10:32:27.999Z</time></trkpt><trkpt lat="43.27529569615805" lon="10.538995628742576"><ele>7.0</ele><time>2026-04-06T10:32:28.999Z</time></trkpt><trkpt lat="43.27501411611539" lon="10.538991750732793"><ele>7.0</ele><time>2026-04-06T10:32:29.999Z</time></trkpt><trkpt lat="43.27472883075256" lon="10.539013661885141"><ele>6.5</ele><time>2026-04-06T10:32:30.999Z</time></trkpt><trkpt lat="43.27444640369961" lon="10.53904408599059"><ele>6.0</ele><time>2026-04-06T10:32:31.999Z</time></trkpt><trkpt lat="43.27416742583164" lon="10.539085414477658"><ele>6.0</ele><time>2026-04-06T10:32:32.999Z</time></trkpt><trkpt lat="43.27388754423725" lon="10.539141475130954"><ele>6.0</ele><time>2026-04-06T10:32:33.999Z</time></trkpt><trkpt lat="43.273607123696785" lon="10.539213192982022"><ele>6.0</ele><time>2026-04-06T10:32:34.999Z</time></trkpt><trkpt lat="43.27332448644938" lon="10.539300626268734"><ele>6.0</ele><time>2026-04-06T10:32:35.999Z</time></trkpt><trkpt lat="43.27304313788148" lon="10.539407301274139"><ele>6.0</ele><time>2026-04-06T10:32:36.999Z</time></trkpt><trkpt lat="43.27276331166536" lon="10.539513210106565"><ele>6.0</ele><time>2026-04-06T10:32:37.999Z</time></trkpt><trkpt lat="43.27248307878088" lon="10.539617586424967"><ele>7.0</ele><time>2026-04-06T10:32:38.999Z</time></trkpt><trkpt lat="43.27220233299706" lon="10.539714054716207"><ele>8.0</ele><time>2026-04-06T10:32:39.999Z</time></trkpt><trkpt lat="43.271916584528206" lon="10.539817140315156"><ele>8.0</ele><time>2026-04-06T10:32:40.999Z</time></trkpt><trkpt lat="43.271633058682916" lon="10.539916253030366"><ele>8.0</ele><time>2026-04-06T10:32:41.999Z</time></trkpt><trkpt lat="43.271348758561345" lon="10.540015715821069"><ele>7.5</ele><time>2026-04-06T10:32:42.999Z</time></trkpt><trkpt lat="43.271069311082016" lon="10.540113383093546"><ele>7.0</ele><time>2026-04-06T10:32:43.999Z</time></trkpt><trkpt lat="43.27078720078461" lon="10.54022523702042"><ele>7.5</ele><time>2026-04-06T10:32:44.999Z</time></trkpt><trkpt lat="43.27051391434428" lon="10.540310371485717"><ele>8.0</ele><time>2026-04-06T10:32:45.999Z</time></trkpt><trkpt lat="43.27023643124878" lon="10.540405381918324"><ele>8.0</ele><time>2026-04-06T10:32:46.999Z</time></trkpt><trkpt lat="43.26995625159454" lon="10.540516246234532"><ele>8.0</ele><time>2026-04-06T10:32:47.999Z</time></trkpt><trkpt lat="43.26967877889121" lon="10.540614679118264"><ele>8.5</ele><time>2026-04-06T10:32:48.999Z</time></trkpt><trkpt lat="43.26939967884557" lon="10.540720053323673"><ele>9.0</ele><time>2026-04-06T10:32:49.999Z</time></trkpt><trkpt lat="43.26912270914784" lon="10.540819399037478"><ele>8.5</ele><time>2026-04-06T10:32:50.998Z</time></trkpt><trkpt lat="43.268841663656836" lon="10.540920320494195"><ele>8.0</ele><time>2026-04-06T10:32:51.998Z</time></trkpt><trkpt lat="43.2685555657993" lon="10.541034452982924"><ele>8.0</ele><time>2026-04-06T10:32:52.998Z</time></trkpt><trkpt lat="43.26826223992646" lon="10.541162238072044"><ele>8.0</ele><time>2026-04-06T10:32:53.998Z</time></trkpt><trkpt lat="43.267992700938024" lon="10.541220235010336"><ele>9.0</ele><time>2026-04-06T10:32:54.998Z</time></trkpt><trkpt lat="43.2677087943413" lon="10.541306718248027"><ele>10.0</ele><time>2026-04-06T10:32:55.998Z</time></trkpt><trkpt lat="43.2674197453247" lon="10.54139787602271"><ele>9.5</ele><time>2026-04-06T10:32:56.998Z</time></trkpt><trkpt lat="43.26713093309393" lon="10.541491540879896"><ele>9.0</ele><time>2026-04-06T10:32:57.998Z</time></trkpt><trkpt lat="43.2668418734955" lon="10.54159216421803"><ele>9.0</ele><time>2026-04-06T10:32:58.998Z</time></trkpt><trkpt lat="43.266556006150104" lon="10.541698363369637"><ele>9.0</ele><time>2026-04-06T10:32:59.998Z</time></trkpt><trkpt lat="43.26627129879776" lon="10.541797496909297"><ele>9.0</ele><time>2026-04-06T10:33:00.998Z</time></trkpt><trkpt lat="43.265978301898734" lon="10.541909277605763"><ele>9.0</ele><time>2026-04-06T10:33:01.998Z</time></trkpt><trkpt lat="43.265671528490024" lon="10.542049367394831"><ele>8.5</ele><time>2026-04-06T10:33:02.998Z</time></trkpt><trkpt lat="43.26540169281632" lon="10.542117335414122"><ele>8.0</ele><time>2026-04-06T10:33:03.998Z</time></trkpt><trkpt lat="43.26510945528558" lon="10.542231973480872"><ele>8.0</ele><time>2026-04-06T10:33:04.998Z</time></trkpt><trkpt lat="43.264821616166074" lon="10.542334132940919"><ele>8.0</ele><time>2026-04-06T10:33:05.998Z</time></trkpt><trkpt lat="43.26452986078423" lon="10.542438153507836"><ele>7.5</ele><time>2026-04-06T10:33:06.998Z</time></trkpt><trkpt lat="43.264239712037245" lon="10.542544312639148"><ele>7.0</ele><time>2026-04-06T10:33:07.998Z</time></trkpt><trkpt lat="43.263952969563036" lon="10.54264140781926"><ele>6.5</ele><time>2026-04-06T10:33:08.998Z</time></trkpt><trkpt lat="43.263657416518605" lon="10.542759489987041"><ele>6.0</ele><time>2026-04-06T10:33:09.998Z</time></trkpt><trkpt lat="43.26336845058187" lon="10.542863577935726"><ele>6.0</ele><time>2026-04-06T10:33:10.998Z</time></trkpt><trkpt lat="43.26307811391082" lon="10.542977746357074"><ele>6.0</ele><time>2026-04-06T10:33:11.998Z</time></trkpt><trkpt lat="43.26278905030559" lon="10.54309942358072"><ele>6.0</ele><time>2026-04-06T10:33:12.998Z</time></trkpt><trkpt lat="43.26251035256881" lon="10.54321482299488"><ele>6.0</ele><time>2026-04-06T10:33:13.998Z</time></trkpt><trkpt lat="43.262222749192524" lon="10.543336988096655"><ele>6.0</ele><time>2026-04-06T10:33:14.998Z</time></trkpt><trkpt lat="43.26193350576532" lon="10.54346373775516"><ele>6.0</ele><time>2026-04-06T10:33:15.998Z</time></trkpt><trkpt lat="43.26164922988799" lon="10.543584984471204"><ele>6.0</ele><time>2026-04-06T10:33:16.998Z</time></trkpt><trkpt lat="43.261368086895494" lon="10.543704775119613"><ele>6.0</ele><time>2026-04-06T10:33:17.998Z</time></trkpt><trkpt lat="43.26108916043707" lon="10.543822991937663"><ele>6.0</ele><time>2026-04-06T10:33:18.998Z</time></trkpt><trkpt lat="43.260811073935415" lon="10.543944235782865"><ele>6.0</ele><time>2026-04-06T10:33:19.998Z</time></trkpt><trkpt lat="43.26053737867289" lon="10.544065507617626"><ele>6.5</ele><time>2026-04-06T10:33:20.998Z</time></trkpt><trkpt lat="43.26026490623434" lon="10.544188230839149"><ele>7.0</ele><time>2026-04-06T10:33:21.998Z</time></trkpt><trkpt lat="43.2599916729087" lon="10.544314449070168"><ele>6.5</ele><time>2026-04-06T10:33:22.998Z</time></trkpt><trkpt lat="43.25971103696626" lon="10.54444236578155"><ele>6.0</ele><time>2026-04-06T10:33:23.998Z</time></trkpt><trkpt lat="43.2594402433823" lon="10.544564796377701"><ele>6.0</ele><time>2026-04-06T10:33:24.998Z</time></trkpt><trkpt lat="43.25916104009988" lon="10.54468403675831"><ele>6.0</ele><time>2026-04-06T10:33:25.998Z</time></trkpt><trkpt lat="43.258884238759016" lon="10.544801262587816"><ele>7.0</ele><time>2026-04-06T10:33:26.998Z</time></trkpt><trkpt lat="43.25860605753723" lon="10.54491889063875"><ele>8.0</ele><time>2026-04-06T10:33:27.998Z</time></trkpt><trkpt lat="43.25833389462874" lon="10.545032289682503"><ele>8.0</ele><time>2026-04-06T10:33:28.998Z</time></trkpt><trkpt lat="43.25805211244898" lon="10.545153015487266"><ele>8.0</ele><time>2026-04-06T10:33:29.998Z</time></trkpt><trkpt lat="43.257770479140056" lon="10.545273370930373"><ele>7.5</ele><time>2026-04-06T10:33:30.998Z</time></trkpt><trkpt lat="43.25749087767266" lon="10.54538980886177"><ele>7.0</ele><time>2026-04-06T10:33:31.998Z</time></trkpt><trkpt lat="43.25721491616413" lon="10.545511358357409"><ele>6.5</ele><time>2026-04-06T10:33:32.998Z</time></trkpt><trkpt lat="43.25693139443256" lon="10.545630463872794"><ele>6.0</ele><time>2026-04-06T10:33:33.998Z</time></trkpt><trkpt lat="43.256651059089776" lon="10.545752279153906"><ele>5.0</ele><time>2026-04-06T10:33:34.998Z</time></trkpt><trkpt lat="43.256372165323256" lon="10.545872556856631"><ele>4.0</ele><time>2026-04-06T10:33:35.998Z</time></trkpt><trkpt lat="43.25609741756912" lon="10.545989215354824"><ele>4.0</ele><time>2026-04-06T10:33:36.998Z</time></trkpt><trkpt lat="43.25581691781667" lon="10.54610917495832"><ele>4.0</ele><time>2026-04-06T10:33:37.998Z</time></trkpt><trkpt lat="43.255534336075954" lon="10.546229486754454"><ele>4.5</ele><time>2026-04-06T10:33:38.998Z</time></trkpt><trkpt lat="43.25525291739143" lon="10.546344267941699"><ele>5.0</ele><time>2026-04-06T10:33:39.998Z</time></trkpt><trkpt lat="43.25497164250764" lon="10.546454322733082"><ele>5.0</ele><time>2026-04-06T10:33:40.998Z</time></trkpt><trkpt lat="43.25468964126025" lon="10.546564254570653"><ele>5.0</ele><time>2026-04-06T10:33:41.998Z</time></trkpt><trkpt lat="43.25440550296138" lon="10.546679231318397"><ele>5.0</ele><time>2026-04-06T10:33:42.998Z</time></trkpt><trkpt lat="43.25411123436268" lon="10.546800618208934"><ele>5.0</ele><time>2026-04-06T10:33:43.998Z</time></trkpt><trkpt lat="43.253829819003755" lon="10.546924362195096"><ele>4.5</ele><time>2026-04-06T10:33:44.998Z</time></trkpt><trkpt lat="43.253538500038275" lon="10.547047564666986"><ele>4.0</ele><time>2026-04-06T10:33:45.998Z</time></trkpt><trkpt lat="43.25325624425573" lon="10.547166754852046"><ele>4.0</ele><time>2026-04-06T10:33:46.998Z</time></trkpt><trkpt lat="43.25296015400766" lon="10.547287690171855"><ele>4.0</ele><time>2026-04-06T10:33:47.998Z</time></trkpt><trkpt lat="43.2526777931562" lon="10.547410435362126"><ele>4.0</ele><time>2026-04-06T10:33:48.998Z</time></trkpt><trkpt lat="43.252389191581905" lon="10.547537693194752"><ele>4.0</ele><time>2026-04-06T10:33:49.998Z</time></trkpt><trkpt lat="43.252104250349596" lon="10.547661197134936"><ele>4.5</ele><time>2026-04-06T10:33:50.998Z</time></trkpt><trkpt lat="43.25181533638532" lon="10.547785185971922"><ele>5.0</ele><time>2026-04-06T10:33:51.998Z</time></trkpt><trkpt lat="43.25153166778007" lon="10.547908562516245"><ele>6.0</ele><time>2026-04-06T10:33:52.998Z</time></trkpt><trkpt lat="43.25125094994104" lon="10.548032531788824"><ele>7.0</ele><time>2026-04-06T10:33:53.998Z</time></trkpt><trkpt lat="43.250969489177486" lon="10.548156965344896"><ele>7.0</ele><time>2026-04-06T10:33:54.998Z</time></trkpt><trkpt lat="43.25069003507436" lon="10.548280933837669"><ele>7.0</ele><time>2026-04-06T10:33:55.998Z</time></trkpt><trkpt lat="43.2504112393642" lon="10.548401966887777"><ele>6.5</ele><time>2026-04-06T10:33:56.998Z</time></trkpt><trkpt lat="43.25013195393282" lon="10.548529051681466"><ele>6.0</ele><time>2026-04-06T10:33:57.998Z</time></trkpt><trkpt lat="43.24985653804856" lon="10.548668019640095"><ele>7.0</ele><time>2026-04-06T10:33:58.998Z</time></trkpt><trkpt lat="43.249588045743195" lon="10.548826637771446"><ele>8.0</ele><time>2026-04-06T10:33:59.998Z</time></trkpt><trkpt lat="43.24933313653883" lon="10.549001528825894"><ele>8.0</ele><time>2026-04-06T10:34:00.998Z</time></trkpt><trkpt lat="43.24908091319712" lon="10.549196183698223"><ele>8.0</ele><time>2026-04-06T10:34:01.998Z</time></trkpt><trkpt lat="43.24884216181514" lon="10.549408338364296"><ele>7.0</ele><time>2026-04-06T10:34:02.999Z</time></trkpt><trkpt lat="43.24861082888836" lon="10.549636245937636"><ele>6.0</ele><time>2026-04-06T10:34:03.999Z</time></trkpt><trkpt lat="43.24839045893942" lon="10.54989615991628"><ele>6.0</ele><time>2026-04-06T10:34:04.999Z</time></trkpt><trkpt lat="43.24818559506763" lon="10.550169263337756"><ele>6.0</ele><time>2026-04-06T10:34:05.999Z</time></trkpt><trkpt lat="43.24798896811862" lon="10.550453233203635"><ele>8.0</ele><time>2026-04-06T10:34:06.999Z</time></trkpt><trkpt lat="43.24779492282939" lon="10.550743036655795"><ele>10.0</ele><time>2026-04-06T10:34:07.999Z</time></trkpt><trkpt lat="43.247598001051195" lon="10.551037809002196"><ele>10.0</ele><time>2026-04-06T10:34:08.999Z</time></trkpt><trkpt lat="43.247396505748476" lon="10.55133699966425"><ele>10.0</ele><time>2026-04-06T10:34:09.999Z</time></trkpt><trkpt lat="43.24719055719361" lon="10.551634213738991"><ele>9.5</ele><time>2026-04-06T10:34:10.999Z</time></trkpt><trkpt lat="43.246989237204204" lon="10.551889898627257"><ele>9.0</ele><time>2026-04-06T10:34:11.999Z</time></trkpt><trkpt lat="43.24677049955402" lon="10.552150364634"><ele>8.5</ele><time>2026-04-06T10:34:12.999Z</time></trkpt><trkpt lat="43.24654023926725" lon="10.552394221407688"><ele>8.0</ele><time>2026-04-06T10:34:13.999Z</time></trkpt><trkpt lat="43.24630109050434" lon="10.552618496436946"><ele>7.5</ele><time>2026-04-06T10:34:14.999Z</time></trkpt><trkpt lat="43.246054569733516" lon="10.552829749580441"><ele>7.0</ele><time>2026-04-06T10:34:15.999Z</time></trkpt><trkpt lat="43.245803459557585" lon="10.553038439470315"><ele>7.5</ele><time>2026-04-06T10:34:17Z</time></trkpt><trkpt lat="43.24554983431985" lon="10.55324680635019"><ele>8.0</ele><time>2026-04-06T10:34:18Z</time></trkpt><trkpt lat="43.245303793337115" lon="10.55344475954368"><ele>8.0</ele><time>2026-04-06T10:34:19Z</time></trkpt><trkpt lat="43.245049903880364" lon="10.55365273274527"><ele>8.0</ele><time>2026-04-06T10:34:20Z</time></trkpt><trkpt lat="43.244801374359035" lon="10.553854725655299"><ele>9.0</ele><time>2026-04-06T10:34:21Z</time></trkpt><trkpt lat="43.244552116772205" lon="10.554057601073339"><ele>10.0</ele><time>2026-04-06T10:34:22Z</time></trkpt><trkpt lat="43.24430226808958" lon="10.554257132966207"><ele>10.0</ele><time>2026-04-06T10:34:23Z</time></trkpt><trkpt lat="43.24404929865324" lon="10.554451070854377"><ele>10.0</ele><time>2026-04-06T10:34:24Z</time></trkpt><trkpt lat="43.24379470580866" lon="10.554634826835162"><ele>9.0</ele><time>2026-04-06T10:34:25Z</time></trkpt><trkpt lat="43.24353386680673" lon="10.554813394928244"><ele>8.0</ele><time>2026-04-06T10:34:26Z</time></trkpt><trkpt lat="43.24326815652628" lon="10.554982724619332"><ele>8.0</ele><time>2026-04-06T10:34:27Z</time></trkpt><trkpt lat="43.24300593460774" lon="10.555133465391341"><ele>8.0</ele><time>2026-04-06T10:34:28Z</time></trkpt><trkpt lat="43.2427298712126" lon="10.55528302646456"><ele>8.5</ele><time>2026-04-06T10:34:29Z</time></trkpt><trkpt lat="43.2424546150572" lon="10.555415417020159"><ele>9.0</ele><time>2026-04-06T10:34:30Z</time></trkpt><trkpt lat="43.242172790207306" lon="10.555541668318718"><ele>10.0</ele><time>2026-04-06T10:34:31Z</time></trkpt><trkpt lat="43.241890067329514" lon="10.555648515040579"><ele>11.0</ele><time>2026-04-06T10:34:32Z</time></trkpt><trkpt lat="43.2416095430286" lon="10.55573379979838"><ele>9.5</ele><time>2026-04-06T10:34:33Z</time></trkpt><trkpt lat="43.24132747158667" lon="10.555812592982871"><ele>8.0</ele><time>2026-04-06T10:34:34Z</time></trkpt><trkpt lat="43.24103933888792" lon="10.555885254748585"><ele>8.0</ele><time>2026-04-06T10:34:35Z</time></trkpt><trkpt lat="43.24075672043644" lon="10.5559410867541"><ele>8.0</ele><time>2026-04-06T10:34:36Z</time></trkpt><trkpt lat="43.240472685306045" lon="10.555982583358354"><ele>7.5</ele><time>2026-04-06T10:34:37Z</time></trkpt><trkpt lat="43.24018548729886" lon="10.556007110000015"><ele>7.0</ele><time>2026-04-06T10:34:38Z</time></trkpt><trkpt lat="43.23990797254846" lon="10.556018717006332"><ele>6.5</ele><time>2026-04-06T10:34:39Z</time></trkpt><trkpt lat="43.23962035385977" lon="10.556024305233928"><ele>6.0</ele><time>2026-04-06T10:34:40Z</time></trkpt><trkpt lat="43.23934212146733" lon="10.556029675895301"><ele>6.0</ele><time>2026-04-06T10:34:41Z</time></trkpt><trkpt lat="43.23906390146903" lon="10.556030583830513"><ele>6.0</ele><time>2026-04-06T10:34:42Z</time></trkpt><trkpt lat="43.23878380153824" lon="10.556026999083205"><ele>7.5</ele><time>2026-04-06T10:34:43Z</time></trkpt><trkpt lat="43.23850869403959" lon="10.556017098165784"><ele>9.0</ele><time>2026-04-06T10:34:44Z</time></trkpt><trkpt lat="43.238229853903206" lon="10.55600212092332"><ele>8.0</ele><time>2026-04-06T10:34:45Z</time></trkpt><trkpt lat="43.237950613363985" lon="10.555981424209342"><ele>7.0</ele><time>2026-04-06T10:34:46Z</time></trkpt><trkpt lat="43.237668523272625" lon="10.555954892242859"><ele>7.0</ele><time>2026-04-06T10:34:47Z</time></trkpt><trkpt lat="43.23739707887967" lon="10.555941569009457"><ele>7.0</ele><time>2026-04-06T10:34:48Z</time></trkpt><trkpt lat="43.23711950872708" lon="10.555931354148894"><ele>7.0</ele><time>2026-04-06T10:34:49Z</time></trkpt><trkpt lat="43.23683888548073" lon="10.555925277663682"><ele>7.0</ele><time>2026-04-06T10:34:50Z</time></trkpt><trkpt lat="43.23655772766591" lon="10.555918333831388"><ele>8.0</ele><time>2026-04-06T10:34:51Z</time></trkpt><trkpt lat="43.23627696651684" lon="10.555908594249837"><ele>9.0</ele><time>2026-04-06T10:34:52Z</time></trkpt><trkpt lat="43.23598976707685" lon="10.55589996064176"><ele>9.0</ele><time>2026-04-06T10:34:53Z</time></trkpt><trkpt lat="43.235708267335056" lon="10.555890272041864"><ele>9.0</ele><time>2026-04-06T10:34:54Z</time></trkpt><trkpt lat="43.23542166441927" lon="10.555883053378595"><ele>7.5</ele><time>2026-04-06T10:34:55Z</time></trkpt><trkpt lat="43.23513968007204" lon="10.55587400393949"><ele>6.0</ele><time>2026-04-06T10:34:56Z</time></trkpt><trkpt lat="43.2348510183019" lon="10.555873212106105"><ele>7.0</ele><time>2026-04-06T10:34:57Z</time></trkpt><trkpt lat="43.23456440366197" lon="10.555880158768199"><ele>8.0</ele><time>2026-04-06T10:34:58Z</time></trkpt><trkpt lat="43.23427188044802" lon="10.555902703236685"><ele>8.0</ele><time>2026-04-06T10:34:59Z</time></trkpt><trkpt lat="43.233987847234914" lon="10.555936019777604"><ele>8.0</ele><time>2026-04-06T10:35:00Z</time></trkpt><trkpt lat="43.23370357085581" lon="10.555979026306094"><ele>9.0</ele><time>2026-04-06T10:35:01Z</time></trkpt><trkpt lat="43.23341879340869" lon="10.556042128008135"><ele>10.0</ele><time>2026-04-06T10:35:02Z</time></trkpt><trkpt lat="43.23313996865423" lon="10.556115339871694"><ele>9.0</ele><time>2026-04-06T10:35:03Z</time></trkpt><trkpt lat="43.23285682086543" lon="10.556200973384296"><ele>8.0</ele><time>2026-04-06T10:35:04Z</time></trkpt><trkpt lat="43.232581252714894" lon="10.556298151769012"><ele>8.5</ele><time>2026-04-06T10:35:05Z</time></trkpt><trkpt lat="43.23230412048645" lon="10.556408166367618"><ele>9.0</ele><time>2026-04-06T10:35:06Z</time></trkpt><trkpt lat="43.23203045759153" lon="10.556525916445677"><ele>9.0</ele><time>2026-04-06T10:35:07Z</time></trkpt><trkpt lat="43.23175770582202" lon="10.556641353510715"><ele>9.0</ele><time>2026-04-06T10:35:08Z</time></trkpt><trkpt lat="43.23147935739724" lon="10.556763892705344"><ele>8.5</ele><time>2026-04-06T10:35:09Z</time></trkpt><trkpt lat="43.231206067611176" lon="10.556882586969177"><ele>8.0</ele><time>2026-04-06T10:35:10Z</time></trkpt><trkpt lat="43.23093233748947" lon="10.556998724297424"><ele>8.0</ele><time>2026-04-06T10:35:10.999Z</time></trkpt><trkpt lat="43.23066057270907" lon="10.557109249814985"><ele>8.0</ele><time>2026-04-06T10:35:11.999Z</time></trkpt><trkpt lat="43.23038845905346" lon="10.557228467414928"><ele>7.5</ele><time>2026-04-06T10:35:12.999Z</time></trkpt><trkpt lat="43.230114920386434" lon="10.557350041364742"><ele>7.0</ele><time>2026-04-06T10:35:13.999Z</time></trkpt><trkpt lat="43.22984405262434" lon="10.557456948138757"><ele>7.0</ele><time>2026-04-06T10:35:14.999Z</time></trkpt><trkpt lat="43.229571064355625" lon="10.557571086786956"><ele>7.0</ele><time>2026-04-06T10:35:15.999Z</time></trkpt><trkpt lat="43.22929807905729" lon="10.557686909217857"><ele>7.0</ele><time>2026-04-06T10:35:16.999Z</time></trkpt><trkpt lat="43.22902817434951" lon="10.557800030205764"><ele>7.0</ele><time>2026-04-06T10:35:17.999Z</time></trkpt><trkpt lat="43.22876062231286" lon="10.557910174079428"><ele>6.5</ele><time>2026-04-06T10:35:18.999Z</time></trkpt><trkpt lat="43.22848988182649" lon="10.558024105672986"><ele>6.0</ele><time>2026-04-06T10:35:19.999Z</time></trkpt><trkpt lat="43.228221236542794" lon="10.558135685035072"><ele>6.0</ele><time>2026-04-06T10:35:20.999Z</time></trkpt><trkpt lat="43.227949058389456" lon="10.558250968251343"><ele>6.0</ele><time>2026-04-06T10:35:21.999Z</time></trkpt><trkpt lat="43.22768101542878" lon="10.558358184352384"><ele>6.0</ele><time>2026-04-06T10:35:22.999Z</time></trkpt><trkpt lat="43.22740208634877" lon="10.558479080647874"><ele>6.0</ele><time>2026-04-06T10:35:23.999Z</time></trkpt><trkpt lat="43.22713009977139" lon="10.558595233560084"><ele>7.0</ele><time>2026-04-06T10:35:24.999Z</time></trkpt><trkpt lat="43.226852400389845" lon="10.558725315962514"><ele>8.0</ele><time>2026-04-06T10:35:25.999Z</time></trkpt><trkpt lat="43.226578752549955" lon="10.558858105650202"><ele>7.5</ele><time>2026-04-06T10:35:26.999Z</time></trkpt><trkpt lat="43.22630064077431" lon="10.558984411817823"><ele>7.0</ele><time>2026-04-06T10:35:27.999Z</time></trkpt><trkpt lat="43.226026307494934" lon="10.559098932448089"><ele>7.0</ele><time>2026-04-06T10:35:28.999Z</time></trkpt><trkpt lat="43.2257472480601" lon="10.559213547835807"><ele>7.0</ele><time>2026-04-06T10:35:29.999Z</time></trkpt><trkpt lat="43.22546592730827" lon="10.559329794850981"><ele>6.5</ele><time>2026-04-06T10:35:30.999Z</time></trkpt><trkpt lat="43.22518919270557" lon="10.55944098125956"><ele>6.0</ele><time>2026-04-06T10:35:31.999Z</time></trkpt><trkpt lat="43.22490962054709" lon="10.559548382695176"><ele>7.0</ele><time>2026-04-06T10:35:32.999Z</time></trkpt><trkpt lat="43.22462890319138" lon="10.559655355007562"><ele>8.0</ele><time>2026-04-06T10:35:33.999Z</time></trkpt><trkpt lat="43.22435086875448" lon="10.559766309646394"><ele>8.0</ele><time>2026-04-06T10:35:34.999Z</time></trkpt><trkpt lat="43.22407204138696" lon="10.559882950766404"><ele>8.0</ele><time>2026-04-06T10:35:35.999Z</time></trkpt><trkpt lat="43.22379414708007" lon="10.55999959973239"><ele>7.0</ele><time>2026-04-06T10:35:36.999Z</time></trkpt><trkpt lat="43.22351448044216" lon="10.560112666084446"><ele>6.0</ele><time>2026-04-06T10:35:37.999Z</time></trkpt><trkpt lat="43.2232380030695" lon="10.560212527097725"><ele>7.0</ele><time>2026-04-06T10:35:38.999Z</time></trkpt><trkpt lat="43.222957578533" lon="10.560310160468664"><ele>8.0</ele><time>2026-04-06T10:35:39.999Z</time></trkpt><trkpt lat="43.22268086293941" lon="10.560399796692929"><ele>8.0</ele><time>2026-04-06T10:35:40.999Z</time></trkpt><trkpt lat="43.22239678028198" lon="10.560486072832509"><ele>8.0</ele><time>2026-04-06T10:35:41.999Z</time></trkpt><trkpt lat="43.222121810041145" lon="10.560560011549246"><ele>7.0</ele><time>2026-04-06T10:35:42.999Z</time></trkpt><trkpt lat="43.22184472384599" lon="10.560629912413031"><ele>6.0</ele><time>2026-04-06T10:35:43.999Z</time></trkpt><trkpt lat="43.221563917136194" lon="10.560696242035316"><ele>6.0</ele><time>2026-04-06T10:35:44.999Z</time></trkpt><trkpt lat="43.22128414761164" lon="10.560752892105176"><ele>6.0</ele><time>2026-04-06T10:35:45.999Z</time></trkpt><trkpt lat="43.22100552113722" lon="10.56080140812165"><ele>6.0</ele><time>2026-04-06T10:35:46.999Z</time></trkpt><trkpt lat="43.220718131143514" lon="10.560849993686992"><ele>6.0</ele><time>2026-04-06T10:35:47.999Z</time></trkpt><trkpt lat="43.22044431013146" lon="10.560892362634931"><ele>6.0</ele><time>2026-04-06T10:35:48.999Z</time></trkpt><trkpt lat="43.22015735194866" lon="10.560937026717736"><ele>6.0</ele><time>2026-04-06T10:35:49.999Z</time></trkpt><trkpt lat="43.2198754956937" lon="10.560980815517418"><ele>6.0</ele><time>2026-04-06T10:35:50.999Z</time></trkpt><trkpt lat="43.219589127064104" lon="10.561029156147935"><ele>6.0</ele><time>2026-04-06T10:35:51.999Z</time></trkpt><trkpt lat="43.219299770863806" lon="10.561079347960149"><ele>6.0</ele><time>2026-04-06T10:35:52.999Z</time></trkpt><trkpt lat="43.219012712800186" lon="10.561126846767591"><ele>6.0</ele><time>2026-04-06T10:35:53.999Z</time></trkpt><trkpt lat="43.21873575994492" lon="10.561171081749627"><ele>6.5</ele><time>2026-04-06T10:35:54.999Z</time></trkpt><trkpt lat="43.21844459279666" lon="10.561216994602766"><ele>7.0</ele><time>2026-04-06T10:35:55.999Z</time></trkpt><trkpt lat="43.21815508045368" lon="10.561264968711562"><ele>7.0</ele><time>2026-04-06T10:35:56.999Z</time></trkpt><trkpt lat="43.21786853543525" lon="10.56131553563388"><ele>7.0</ele><time>2026-04-06T10:35:57.999Z</time></trkpt><trkpt lat="43.21757601227441" lon="10.56136959301793"><ele>7.5</ele><time>2026-04-06T10:35:58.999Z</time></trkpt><trkpt lat="43.21729387966844" lon="10.561415852854577"><ele>8.0</ele><time>2026-04-06T10:35:59.999Z</time></trkpt><trkpt lat="43.217004950839765" lon="10.561464397448413"><ele>8.0</ele><time>2026-04-06T10:36:00.999Z</time></trkpt><trkpt lat="43.21671602742286" lon="10.561515385392982"><ele>8.0</ele><time>2026-04-06T10:36:01.999Z</time></trkpt><trkpt lat="43.21642878049729" lon="10.561563766516127"><ele>7.5</ele><time>2026-04-06T10:36:02.999Z</time></trkpt><trkpt lat="43.21614672461072" lon="10.56161217971303"><ele>7.0</ele><time>2026-04-06T10:36:03.999Z</time></trkpt><trkpt lat="43.215855680337384" lon="10.56166348014969"><ele>6.0</ele><time>2026-04-06T10:36:04.999Z</time></trkpt><trkpt lat="43.215579225909636" lon="10.561712485235873"><ele>5.0</ele><time>2026-04-06T10:36:05.999Z</time></trkpt><trkpt lat="43.21529690682665" lon="10.561765090368512"><ele>5.0</ele><time>2026-04-06T10:36:06.999Z</time></trkpt><trkpt lat="43.215018266889984" lon="10.561817105252754"><ele>5.0</ele><time>2026-04-06T10:36:07.999Z</time></trkpt><trkpt lat="43.21473884780649" lon="10.56187175455955"><ele>6.0</ele><time>2026-04-06T10:36:09Z</time></trkpt><trkpt lat="43.214459328966086" lon="10.561927311250422"><ele>7.0</ele><time>2026-04-06T10:36:10Z</time></trkpt><trkpt lat="43.21418132511479" lon="10.561982185515369"><ele>7.0</ele><time>2026-04-06T10:36:11Z</time></trkpt><trkpt lat="43.21390558153467" lon="10.562033026444542"><ele>7.0</ele><time>2026-04-06T10:36:12Z</time></trkpt><trkpt lat="43.213622077751744" lon="10.56208762636463"><ele>7.0</ele><time>2026-04-06T10:36:13Z</time></trkpt><trkpt lat="43.21334924683694" lon="10.562135077598873"><ele>7.0</ele><time>2026-04-06T10:36:14Z</time></trkpt><trkpt lat="43.21306807487157" lon="10.56219028597103"><ele>7.0</ele><time>2026-04-06T10:36:15Z</time></trkpt><trkpt lat="43.21278721513851" lon="10.56224374042839"><ele>7.0</ele><time>2026-04-06T10:36:16Z</time></trkpt><trkpt lat="43.21250836312065" lon="10.562296199619734"><ele>7.5</ele><time>2026-04-06T10:36:17Z</time></trkpt><trkpt lat="43.21222770051108" lon="10.562350107639999"><ele>8.0</ele><time>2026-04-06T10:36:18Z</time></trkpt><trkpt lat="43.21194575145681" lon="10.562406756210985"><ele>8.0</ele><time>2026-04-06T10:36:19Z</time></trkpt><trkpt lat="43.21166069161084" lon="10.56246435894926"><ele>8.0</ele><time>2026-04-06T10:36:20Z</time></trkpt><trkpt lat="43.211373208985066" lon="10.56252331611314"><ele>6.5</ele><time>2026-04-06T10:36:21Z</time></trkpt><trkpt lat="43.211085842218814" lon="10.56257806997016"><ele>5.0</ele><time>2026-04-06T10:36:22Z</time></trkpt><trkpt lat="43.210801996612496" lon="10.562616979268928"><ele>6.0</ele><time>2026-04-06T10:36:23Z</time></trkpt><trkpt lat="43.2105139516333" lon="10.562676012432593"><ele>7.0</ele><time>2026-04-06T10:36:24Z</time></trkpt><trkpt lat="43.21023092284523" lon="10.562723848130839"><ele>7.0</ele><time>2026-04-06T10:36:25Z</time></trkpt><trkpt lat="43.20994903469139" lon="10.562771088058541"><ele>7.0</ele><time>2026-04-06T10:36:26Z</time></trkpt><trkpt lat="43.20967174784399" lon="10.5628180509986"><ele>8.0</ele><time>2026-04-06T10:36:27Z</time></trkpt><trkpt lat="43.209399458236376" lon="10.562866323180835"><ele>9.0</ele><time>2026-04-06T10:36:28Z</time></trkpt><trkpt lat="43.209115780052656" lon="10.562915665646432"><ele>8.5</ele><time>2026-04-06T10:36:29Z</time></trkpt><trkpt lat="43.20883302670955" lon="10.562962946712611"><ele>8.0</ele><time>2026-04-06T10:36:30Z</time></trkpt><trkpt lat="43.20855562031036" lon="10.562987775956293"><ele>8.0</ele><time>2026-04-06T10:36:31Z</time></trkpt><trkpt lat="43.208265332533756" lon="10.563004516517772"><ele>8.0</ele><time>2026-04-06T10:36:32Z</time></trkpt><trkpt lat="43.207985064440734" lon="10.563031797754636"><ele>9.0</ele><time>2026-04-06T10:36:33Z</time></trkpt><trkpt lat="43.20770667506017" lon="10.563069060235783"><ele>10.0</ele><time>2026-04-06T10:36:34Z</time></trkpt><trkpt lat="43.20742737497178" lon="10.563104221226242"><ele>9.0</ele><time>2026-04-06T10:36:35Z</time></trkpt><trkpt lat="43.207148253310706" lon="10.56313302496385"><ele>8.0</ele><time>2026-04-06T10:36:36Z</time></trkpt><trkpt lat="43.20686747927054" lon="10.563159236528321"><ele>8.0</ele><time>2026-04-06T10:36:37Z</time></trkpt><trkpt lat="43.20658905867975" lon="10.563190728090015"><ele>8.0</ele><time>2026-04-06T10:36:38Z</time></trkpt><trkpt lat="43.2063076219502" lon="10.563226018573918"><ele>8.0</ele><time>2026-04-06T10:36:39Z</time></trkpt><trkpt lat="43.206025817445855" lon="10.563253063656072"><ele>8.0</ele><time>2026-04-06T10:36:40Z</time></trkpt><trkpt lat="43.20574823025531" lon="10.563278443987059"><ele>7.0</ele><time>2026-04-06T10:36:41Z</time></trkpt><trkpt lat="43.205467521559875" lon="10.563306547263542"><ele>6.0</ele><time>2026-04-06T10:36:42Z</time></trkpt><trkpt lat="43.20519054912913" lon="10.56333808920081"><ele>6.0</ele><time>2026-04-06T10:36:43Z</time></trkpt><trkpt lat="43.20490799772644" lon="10.563367115666107"><ele>6.0</ele><time>2026-04-06T10:36:44Z</time></trkpt><trkpt lat="43.2046213593431" lon="10.56339324074254"><ele>6.5</ele><time>2026-04-06T10:36:45Z</time></trkpt><trkpt lat="43.20433821480987" lon="10.563420351118031"><ele>7.0</ele><time>2026-04-06T10:36:46Z</time></trkpt><trkpt lat="43.20404837931293" lon="10.563447774866773"><ele>7.0</ele><time>2026-04-06T10:36:47Z</time></trkpt><trkpt lat="43.203767818974036" lon="10.563480276679424"><ele>7.0</ele><time>2026-04-06T10:36:48Z</time></trkpt><trkpt lat="43.20348142754764" lon="10.563512060973235"><ele>7.0</ele><time>2026-04-06T10:36:49Z</time></trkpt><trkpt lat="43.20319572108663" lon="10.563542745839827"><ele>7.0</ele><time>2026-04-06T10:36:50Z</time></trkpt><trkpt lat="43.20291087112807" lon="10.56356962764058"><ele>6.0</ele><time>2026-04-06T10:36:51Z</time></trkpt><trkpt lat="43.2026257765644" lon="10.563596262058796"><ele>5.0</ele><time>2026-04-06T10:36:52Z</time></trkpt><trkpt lat="43.20234178546163" lon="10.563628540813085"><ele>5.0</ele><time>2026-04-06T10:36:53Z</time></trkpt><trkpt lat="43.202053920636246" lon="10.563443044511956"><ele>5.0</ele><time>2026-04-06T10:36:54Z</time></trkpt><trkpt lat="43.20177118685453" lon="10.56346757859716"><ele>5.5</ele><time>2026-04-06T10:36:55Z</time></trkpt><trkpt lat="43.201493806333715" lon="10.563497007595343"><ele>6.0</ele><time>2026-04-06T10:36:56Z</time></trkpt><trkpt lat="43.20122257226668" lon="10.563445036985161"><ele>6.0</ele><time>2026-04-06T10:36:57Z</time></trkpt><trkpt lat="43.200910669775425" lon="10.563522998201195"><ele>6.0</ele><time>2026-04-06T10:36:58Z</time></trkpt><trkpt lat="43.200647323781524" lon="10.56357168759828"><ele>5.5</ele><time>2026-04-06T10:36:59Z</time></trkpt><trkpt lat="43.20036869127378" lon="10.563604159199318"><ele>5.0</ele><time>2026-04-06T10:37:00Z</time></trkpt><trkpt lat="43.2000915754887" lon="10.563639691514261"><ele>4.5</ele><time>2026-04-06T10:37:01Z</time></trkpt><trkpt lat="43.19980987314295" lon="10.563667775007978"><ele>4.0</ele><time>2026-04-06T10:37:02Z</time></trkpt><trkpt lat="43.19952605427589" lon="10.563693512755842"><ele>4.0</ele><time>2026-04-06T10:37:03Z</time></trkpt><trkpt lat="43.19923822640249" lon="10.563724447235636"><ele>4.0</ele><time>2026-04-06T10:37:04Z</time></trkpt><trkpt lat="43.198963008659206" lon="10.563752531457114"><ele>4.5</ele><time>2026-04-06T10:37:05Z</time></trkpt><trkpt lat="43.19867777274595" lon="10.563776760449347"><ele>5.0</ele><time>2026-04-06T10:37:06Z</time></trkpt><trkpt lat="43.19840204997678" lon="10.563791138770567"><ele>5.5</ele><time>2026-04-06T10:37:07Z</time></trkpt><trkpt lat="43.19810622551211" lon="10.563807761626014"><ele>6.0</ele><time>2026-04-06T10:37:08Z</time></trkpt><trkpt lat="43.197815261453044" lon="10.563834193972815"><ele>6.0</ele><time>2026-04-06T10:37:09Z</time></trkpt><trkpt lat="43.19753364086099" lon="10.563872379405115"><ele>6.0</ele><time>2026-04-06T10:37:10Z</time></trkpt><trkpt lat="43.197260219794124" lon="10.563882032827955"><ele>6.0</ele><time>2026-04-06T10:37:11Z</time></trkpt><trkpt lat="43.19693948076111" lon="10.563933792031383"><ele>6.0</ele><time>2026-04-06T10:37:11.999Z</time></trkpt><trkpt lat="43.1966983650342" lon="10.564003038776102"><ele>6.0</ele><time>2026-04-06T10:37:12.999Z</time></trkpt><trkpt lat="43.196424369195334" lon="10.563977245902379"><ele>6.0</ele><time>2026-04-06T10:37:13.999Z</time></trkpt><trkpt lat="43.19613108824917" lon="10.563985650573889"><ele>6.0</ele><time>2026-04-06T10:37:14.999Z</time></trkpt><trkpt lat="43.19585714871705" lon="10.564002017770155"><ele>6.0</ele><time>2026-04-06T10:37:15.999Z</time></trkpt><trkpt lat="43.19557051337216" lon="10.56402644128485"><ele>5.5</ele><time>2026-04-06T10:37:16.999Z</time></trkpt><trkpt lat="43.195307979580555" lon="10.564045938783776"><ele>5.0</ele><time>2026-04-06T10:37:17.999Z</time></trkpt><trkpt lat="43.1950268579356" lon="10.56407998727762"><ele>5.5</ele><time>2026-04-06T10:37:18.999Z</time></trkpt><trkpt lat="43.19473971544231" lon="10.564099409946143"><ele>6.0</ele><time>2026-04-06T10:37:19.999Z</time></trkpt><trkpt lat="43.19443463603256" lon="10.564232929331892"><ele>6.0</ele><time>2026-04-06T10:37:20.999Z</time></trkpt><trkpt lat="43.194232133068695" lon="10.564463500447847"><ele>6.0</ele><time>2026-04-06T10:37:21.999Z</time></trkpt><trkpt lat="43.194039617615374" lon="10.564642156352933"><ele>6.0</ele><time>2026-04-06T10:37:22.999Z</time></trkpt><trkpt lat="43.19367429943564" lon="10.564498604604271"><ele>6.0</ele><time>2026-04-06T10:37:23.999Z</time></trkpt><trkpt lat="43.19341415131087" lon="10.56452498035153"><ele>5.5</ele><time>2026-04-06T10:37:24.999Z</time></trkpt><trkpt lat="43.193169433355635" lon="10.564564635908242"><ele>5.0</ele><time>2026-04-06T10:37:25.999Z</time></trkpt><trkpt lat="43.19288021067036" lon="10.564580527490973"><ele>5.0</ele><time>2026-04-06T10:37:26.999Z</time></trkpt><trkpt lat="43.19261067904484" lon="10.564610862400727"><ele>5.0</ele><time>2026-04-06T10:37:27.999Z</time></trkpt><trkpt lat="43.192338399689525" lon="10.56463398756532"><ele>4.5</ele><time>2026-04-06T10:37:28.999Z</time></trkpt><trkpt lat="43.192077230280155" lon="10.564660265886035"><ele>4.0</ele><time>2026-04-06T10:37:29.999Z</time></trkpt><trkpt lat="43.19180659546088" lon="10.564685303291231"><ele>4.0</ele><time>2026-04-06T10:37:30.999Z</time></trkpt><trkpt lat="43.19153175309955" lon="10.564720608306477"><ele>4.0</ele><time>2026-04-06T10:37:31.999Z</time></trkpt><trkpt lat="43.19126113469215" lon="10.56476242922045"><ele>5.0</ele><time>2026-04-06T10:37:32.999Z</time></trkpt><trkpt lat="43.1909910870027" lon="10.564806653794328"><ele>6.0</ele><time>2026-04-06T10:37:33.999Z</time></trkpt><trkpt lat="43.190723445478504" lon="10.564850750540215"><ele>5.0</ele><time>2026-04-06T10:37:34.999Z</time></trkpt><trkpt lat="43.190452350804954" lon="10.564896424709604"><ele>4.0</ele><time>2026-04-06T10:37:35.999Z</time></trkpt><trkpt lat="43.19018525950497" lon="10.564947579558215"><ele>4.0</ele><time>2026-04-06T10:37:36.999Z</time></trkpt><trkpt lat="43.189915246804574" lon="10.564995347870546"><ele>4.0</ele><time>2026-04-06T10:37:37.999Z</time></trkpt><trkpt lat="43.189648897858135" lon="10.565048381464075"><ele>4.0</ele><time>2026-04-06T10:37:38.999Z</time></trkpt><trkpt lat="43.18938282391826" lon="10.565103005883559"><ele>4.0</ele><time>2026-04-06T10:37:39.999Z</time></trkpt><trkpt lat="43.18912244161899" lon="10.565164298070046"><ele>5.0</ele><time>2026-04-06T10:37:40.999Z</time></trkpt><trkpt lat="43.18885357454402" lon="10.565217493753051"><ele>6.0</ele><time>2026-04-06T10:37:41.999Z</time></trkpt><trkpt lat="43.18859306356366" lon="10.565275410777552"><ele>6.0</ele><time>2026-04-06T10:37:42.999Z</time></trkpt><trkpt lat="43.18832855224912" lon="10.565326115542025"><ele>6.0</ele><time>2026-04-06T10:37:43.999Z</time></trkpt><trkpt lat="43.188068237130864" lon="10.565377299715834"><ele>6.0</ele><time>2026-04-06T10:37:44.999Z</time></trkpt><trkpt lat="43.18780818804403" lon="10.565432844083883"><ele>6.0</ele><time>2026-04-06T10:37:45.999Z</time></trkpt><trkpt lat="43.18755310594535" lon="10.565485747987383"><ele>6.5</ele><time>2026-04-06T10:37:46.999Z</time></trkpt><trkpt lat="43.187296990769056" lon="10.5655358024937"><ele>7.0</ele><time>2026-04-06T10:37:47.999Z</time></trkpt><trkpt lat="43.18703151067662" lon="10.565581044988232"><ele>7.0</ele><time>2026-04-06T10:37:48.999Z</time></trkpt><trkpt lat="43.18678371988199" lon="10.565633818274735"><ele>7.0</ele><time>2026-04-06T10:37:49.999Z</time></trkpt><trkpt lat="43.186524602174565" lon="10.565675289068883"><ele>7.0</ele><time>2026-04-06T10:37:50.999Z</time></trkpt><trkpt lat="43.186265247519096" lon="10.56570914140649"><ele>7.0</ele><time>2026-04-06T10:37:51.999Z</time></trkpt><trkpt lat="43.18600388424265" lon="10.565735910635496"><ele>7.0</ele><time>2026-04-06T10:37:52.999Z</time></trkpt><trkpt lat="43.18574776722892" lon="10.565756173835759"><ele>7.0</ele><time>2026-04-06T10:37:53.999Z</time></trkpt><trkpt lat="43.18548594010564" lon="10.565767870240728"><ele>8.0</ele><time>2026-04-06T10:37:54.999Z</time></trkpt><trkpt lat="43.18522458654248" lon="10.565774769701806"><ele>9.0</ele><time>2026-04-06T10:37:55.999Z</time></trkpt><trkpt lat="43.18496184678765" lon="10.565776268653897"><ele>9.0</ele><time>2026-04-06T10:37:56.999Z</time></trkpt><trkpt lat="43.18470276052459" lon="10.565772651203378"><ele>9.0</ele><time>2026-04-06T10:37:57.999Z</time></trkpt><trkpt lat="43.18443314495411" lon="10.565755587311044"><ele>9.0</ele><time>2026-04-06T10:37:58.999Z</time></trkpt><trkpt lat="43.18417005384278" lon="10.565733275476093"><ele>9.0</ele><time>2026-04-06T10:37:59.999Z</time></trkpt><trkpt lat="43.18390316821139" lon="10.565704668926616"><ele>9.0</ele><time>2026-04-06T10:38:00.999Z</time></trkpt><trkpt lat="43.183635772993924" lon="10.565668102939837"><ele>9.0</ele><time>2026-04-06T10:38:01.999Z</time></trkpt><trkpt lat="43.18337045003677" lon="10.56562391736181"><ele>9.5</ele><time>2026-04-06T10:38:02.999Z</time></trkpt><trkpt lat="43.18310223818858" lon="10.565572831370359"><ele>10.0</ele><time>2026-04-06T10:38:03.999Z</time></trkpt><trkpt lat="43.182833499737065" lon="10.56551455566136"><ele>10.0</ele><time>2026-04-06T10:38:04.999Z</time></trkpt><trkpt lat="43.182556089894724" lon="10.565453607411705"><ele>10.0</ele><time>2026-04-06T10:38:05.999Z</time></trkpt><trkpt lat="43.18227976430783" lon="10.565388897871266"><ele>10.5</ele><time>2026-04-06T10:38:06.999Z</time></trkpt><trkpt lat="43.182024323383224" lon="10.565323722009333"><ele>11.0</ele><time>2026-04-06T10:38:07.999Z</time></trkpt><trkpt lat="43.181750594543686" lon="10.565254825380293"><ele>11.5</ele><time>2026-04-06T10:38:08.999Z</time></trkpt><trkpt lat="43.181478871331244" lon="10.565188362513103"><ele>12.0</ele><time>2026-04-06T10:38:09.999Z</time></trkpt><trkpt lat="43.181207725828166" lon="10.565122008260593"><ele>12.0</ele><time>2026-04-06T10:38:10.999Z</time></trkpt><trkpt lat="43.18093645582328" lon="10.565052425532057"><ele>12.0</ele><time>2026-04-06T10:38:11.999Z</time></trkpt><trkpt lat="43.180665124262646" lon="10.564984315661105"><ele>13.0</ele><time>2026-04-06T10:38:12.999Z</time></trkpt><trkpt lat="43.18039335806169" lon="10.564920728891357"><ele>14.0</ele><time>2026-04-06T10:38:13.999Z</time></trkpt><trkpt lat="43.180113565407815" lon="10.564852687944217"><ele>13.0</ele><time>2026-04-06T10:38:15Z</time></trkpt><trkpt lat="43.17984734644255" lon="10.56478871875839"><ele>12.0</ele><time>2026-04-06T10:38:16Z</time></trkpt><trkpt lat="43.17956722753453" lon="10.564717920132512"><ele>12.0</ele><time>2026-04-06T10:38:17Z</time></trkpt><trkpt lat="43.179285450993376" lon="10.564657489597636"><ele>12.0</ele><time>2026-04-06T10:38:18Z</time></trkpt><trkpt lat="43.17901830310158" lon="10.564583235302749"><ele>13.5</ele><time>2026-04-06T10:38:19Z</time></trkpt><trkpt lat="43.17873420638474" lon="10.564510093113814"><ele>15.0</ele><time>2026-04-06T10:38:20Z</time></trkpt><trkpt lat="43.17845602311488" lon="10.564441124486507"><ele>15.5</ele><time>2026-04-06T10:38:21Z</time></trkpt><trkpt lat="43.178171789885845" lon="10.564369335262018"><ele>16.0</ele><time>2026-04-06T10:38:22Z</time></trkpt><trkpt lat="43.1778898872046" lon="10.564299775925571"><ele>16.0</ele><time>2026-04-06T10:38:23Z</time></trkpt><trkpt lat="43.17761160807498" lon="10.564221315609643"><ele>16.0</ele><time>2026-04-06T10:38:24Z</time></trkpt><trkpt lat="43.177329152959246" lon="10.564156825774205"><ele>14.5</ele><time>2026-04-06T10:38:25Z</time></trkpt><trkpt lat="43.177056055179776" lon="10.564092371886872"><ele>13.0</ele><time>2026-04-06T10:38:26Z</time></trkpt><trkpt lat="43.176774144070684" lon="10.564020565852573"><ele>14.5</ele><time>2026-04-06T10:38:27Z</time></trkpt><trkpt lat="43.17649768471672" lon="10.563952579783392"><ele>16.0</ele><time>2026-04-06T10:38:28Z</time></trkpt><trkpt lat="43.17622303913117" lon="10.563884828773189"><ele>16.0</ele><time>2026-04-06T10:38:29Z</time></trkpt><trkpt lat="43.175955547024095" lon="10.563822891102053"><ele>16.0</ele><time>2026-04-06T10:38:30Z</time></trkpt><trkpt lat="43.17567839237944" lon="10.563748939057831"><ele>15.5</ele><time>2026-04-06T10:38:31Z</time></trkpt><trkpt lat="43.175408307719366" lon="10.563682036650228"><ele>15.0</ele><time>2026-04-06T10:38:32Z</time></trkpt><trkpt lat="43.17514035690899" lon="10.563613654810515"><ele>15.0</ele><time>2026-04-06T10:38:33Z</time></trkpt><trkpt lat="43.1748675520398" lon="10.563550827906099"><ele>15.0</ele><time>2026-04-06T10:38:34Z</time></trkpt><trkpt lat="43.174595962647075" lon="10.563490907896242"><ele>15.0</ele><time>2026-04-06T10:38:35Z</time></trkpt><trkpt lat="43.17432158719849" lon="10.563440185076463"><ele>15.0</ele><time>2026-04-06T10:38:36Z</time></trkpt><trkpt lat="43.17404150624917" lon="10.563388563462688"><ele>15.5</ele><time>2026-04-06T10:38:37Z</time></trkpt><trkpt lat="43.17376767119616" lon="10.56334513910775"><ele>16.0</ele><time>2026-04-06T10:38:38Z</time></trkpt><trkpt lat="43.17348898113227" lon="10.563302721280223"><ele>16.0</ele><time>2026-04-06T10:38:39Z</time></trkpt><trkpt lat="43.173213460056616" lon="10.563265527492382"><ele>16.0</ele><time>2026-04-06T10:38:40Z</time></trkpt><trkpt lat="43.172938504572244" lon="10.563233598724304"><ele>16.5</ele><time>2026-04-06T10:38:41Z</time></trkpt><trkpt lat="43.17266410392336" lon="10.56320287612772"><ele>17.0</ele><time>2026-04-06T10:38:42Z</time></trkpt><trkpt lat="43.172392393447126" lon="10.56317382569282"><ele>16.5</ele><time>2026-04-06T10:38:43Z</time></trkpt><trkpt lat="43.17212178505671" lon="10.563147405287314"><ele>16.0</ele><time>2026-04-06T10:38:44Z</time></trkpt><trkpt lat="43.17184528712647" lon="10.563124653164468"><ele>16.0</ele><time>2026-04-06T10:38:45Z</time></trkpt><trkpt lat="43.171568350215196" lon="10.563103416614993"><ele>16.0</ele><time>2026-04-06T10:38:46Z</time></trkpt><trkpt lat="43.1712893086935" lon="10.563078860364472"><ele>16.5</ele><time>2026-04-06T10:38:47Z</time></trkpt><trkpt lat="43.17101084923466" lon="10.563050244157251"><ele>17.0</ele><time>2026-04-06T10:38:48Z</time></trkpt><trkpt lat="43.17073312485965" lon="10.563021465461995"><ele>17.0</ele><time>2026-04-06T10:38:49Z</time></trkpt><trkpt lat="43.17045568714613" lon="10.562995695723146"><ele>17.0</ele><time>2026-04-06T10:38:50Z</time></trkpt><trkpt lat="43.17016823627697" lon="10.562968948029772"><ele>17.0</ele><time>2026-04-06T10:38:51Z</time></trkpt><trkpt lat="43.16990367951261" lon="10.562941319990147"><ele>17.0</ele><time>2026-04-06T10:38:52Z</time></trkpt><trkpt lat="43.16961958154607" lon="10.562915238438721"><ele>17.0</ele><time>2026-04-06T10:38:53Z</time></trkpt><trkpt lat="43.16933821549052" lon="10.56289025856125"><ele>17.0</ele><time>2026-04-06T10:38:54Z</time></trkpt><trkpt lat="43.16906451985128" lon="10.562859205041752"><ele>16.0</ele><time>2026-04-06T10:38:55Z</time></trkpt><trkpt lat="43.16878054524399" lon="10.562830620078794"><ele>15.0</ele><time>2026-04-06T10:38:56Z</time></trkpt><trkpt lat="43.168502972123136" lon="10.562801849651457"><ele>15.0</ele><time>2026-04-06T10:38:57Z</time></trkpt><trkpt lat="43.16822265522658" lon="10.562769350935644"><ele>15.0</ele><time>2026-04-06T10:38:58Z</time></trkpt><trkpt lat="43.167937067632316" lon="10.562727691981795"><ele>16.5</ele><time>2026-04-06T10:38:59Z</time></trkpt><trkpt lat="43.167660404036624" lon="10.562675262304321"><ele>18.0</ele><time>2026-04-06T10:39:00Z</time></trkpt><trkpt lat="43.167383001430686" lon="10.562610699028221"><ele>18.5</ele><time>2026-04-06T10:39:01Z</time></trkpt><trkpt lat="43.16711351337778" lon="10.562546898810796"><ele>19.0</ele><time>2026-04-06T10:39:02Z</time></trkpt><trkpt lat="43.166834377212965" lon="10.562478222434503"><ele>19.0</ele><time>2026-04-06T10:39:03Z</time></trkpt><trkpt lat="43.16655203513555" lon="10.562407158114755"><ele>19.0</ele><time>2026-04-06T10:39:04Z</time></trkpt><trkpt lat="43.16627780550099" lon="10.562327683159522"><ele>18.5</ele><time>2026-04-06T10:39:05Z</time></trkpt><trkpt lat="43.16600147741755" lon="10.562240975049257"><ele>18.0</ele><time>2026-04-06T10:39:06Z</time></trkpt><trkpt lat="43.16571836575761" lon="10.562147521952642"><ele>18.5</ele><time>2026-04-06T10:39:07Z</time></trkpt><trkpt lat="43.16544370330225" lon="10.562052280564089"><ele>19.0</ele><time>2026-04-06T10:39:08Z</time></trkpt><trkpt lat="43.16517094701926" lon="10.56195367636364"><ele>18.0</ele><time>2026-04-06T10:39:09Z</time></trkpt><trkpt lat="43.16489606748179" lon="10.561847670544413"><ele>17.0</ele><time>2026-04-06T10:39:10Z</time></trkpt><trkpt lat="43.164629144267714" lon="10.561737889762"><ele>17.0</ele><time>2026-04-06T10:39:11Z</time></trkpt><trkpt lat="43.16435433796082" lon="10.561620892218052"><ele>17.0</ele><time>2026-04-06T10:39:12Z</time></trkpt><trkpt lat="43.164082975547544" lon="10.561499328632761"><ele>17.5</ele><time>2026-04-06T10:39:13Z</time></trkpt><trkpt lat="43.16382143896722" lon="10.561374856082754"><ele>18.0</ele><time>2026-04-06T10:39:14Z</time></trkpt><trkpt lat="43.1635569764862" lon="10.561241657336303"><ele>18.0</ele><time>2026-04-06T10:39:14.999Z</time></trkpt><trkpt lat="43.16329374158501" lon="10.561102353059878"><ele>18.0</ele><time>2026-04-06T10:39:15.999Z</time></trkpt><trkpt lat="43.1630318103083" lon="10.560953314957832"><ele>17.5</ele><time>2026-04-06T10:39:16.999Z</time></trkpt><trkpt lat="43.162779591840426" lon="10.560809241760603"><ele>17.0</ele><time>2026-04-06T10:39:17.999Z</time></trkpt><trkpt lat="43.16251280524568" lon="10.560657354681355"><ele>16.5</ele><time>2026-04-06T10:39:18.999Z</time></trkpt><trkpt lat="43.16224894877026" lon="10.560508657879433"><ele>16.0</ele><time>2026-04-06T10:39:19.999Z</time></trkpt><trkpt lat="43.16198481629517" lon="10.560360310171207"><ele>16.0</ele><time>2026-04-06T10:39:20.999Z</time></trkpt><trkpt lat="43.16172304512359" lon="10.560215969872655"><ele>16.0</ele><time>2026-04-06T10:39:21.999Z</time></trkpt><trkpt lat="43.16146745965978" lon="10.56006933490014"><ele>16.0</ele><time>2026-04-06T10:39:22.999Z</time></trkpt><trkpt lat="43.16120883402903" lon="10.55992118573004"><ele>16.0</ele><time>2026-04-06T10:39:23.999Z</time></trkpt><trkpt lat="43.160945368768445" lon="10.559771259623306"><ele>16.0</ele><time>2026-04-06T10:39:24.999Z</time></trkpt><trkpt lat="43.16068991172811" lon="10.559625103139675"><ele>16.0</ele><time>2026-04-06T10:39:25.999Z</time></trkpt><trkpt lat="43.160429808557915" lon="10.559476693199482"><ele>16.0</ele><time>2026-04-06T10:39:26.999Z</time></trkpt><trkpt lat="43.16017018746332" lon="10.559330457697387"><ele>16.0</ele><time>2026-04-06T10:39:27.999Z</time></trkpt><trkpt lat="43.159914223803675" lon="10.55918929004675"><ele>15.0</ele><time>2026-04-06T10:39:28.999Z</time></trkpt><trkpt lat="43.15965196688708" lon="10.559043541230926"><ele>14.0</ele><time>2026-04-06T10:39:29.999Z</time></trkpt><trkpt lat="43.15939843237839" lon="10.558899172826608"><ele>14.0</ele><time>2026-04-06T10:39:30.999Z</time></trkpt><trkpt lat="43.159139629441576" lon="10.558758017816116"><ele>14.0</ele><time>2026-04-06T10:39:31.999Z</time></trkpt><trkpt lat="43.15887411892716" lon="10.558619213243041"><ele>14.0</ele><time>2026-04-06T10:39:32.999Z</time></trkpt><trkpt lat="43.15861280309678" lon="10.558488357084386"><ele>14.0</ele><time>2026-04-06T10:39:33.999Z</time></trkpt><trkpt lat="43.158346063467135" lon="10.558360652891492"><ele>14.0</ele><time>2026-04-06T10:39:34.999Z</time></trkpt><trkpt lat="43.15808199424748" lon="10.558240759283605"><ele>14.0</ele><time>2026-04-06T10:39:35.999Z</time></trkpt><trkpt lat="43.15781493604676" lon="10.558124946930038"><ele>14.0</ele><time>2026-04-06T10:39:36.999Z</time></trkpt><trkpt lat="43.15754279195396" lon="10.558009137907643"><ele>14.0</ele><time>2026-04-06T10:39:37.999Z</time></trkpt><trkpt lat="43.157280965842766" lon="10.557893869707442"><ele>13.5</ele><time>2026-04-06T10:39:38.999Z</time></trkpt><trkpt lat="43.15701267832209" lon="10.557788030347849"><ele>13.0</ele><time>2026-04-06T10:39:39.999Z</time></trkpt><trkpt lat="43.156747432850615" lon="10.557684664972092"><ele>13.0</ele><time>2026-04-06T10:39:40.999Z</time></trkpt><trkpt lat="43.15647477920659" lon="10.557581128696366"><ele>13.0</ele><time>2026-04-06T10:39:41.999Z</time></trkpt><trkpt lat="43.156209051062056" lon="10.55748577498115"><ele>13.0</ele><time>2026-04-06T10:39:42.999Z</time></trkpt><trkpt lat="43.15594073536393" lon="10.557392935932574"><ele>13.0</ele><time>2026-04-06T10:39:43.999Z</time></trkpt><trkpt lat="43.155668908666655" lon="10.55730391545299"><ele>14.0</ele><time>2026-04-06T10:39:44.999Z</time></trkpt><trkpt lat="43.15539660833269" lon="10.557214547782374"><ele>15.0</ele><time>2026-04-06T10:39:45.999Z</time></trkpt><trkpt lat="43.155128921520145" lon="10.557124722176766"><ele>15.0</ele><time>2026-04-06T10:39:46.999Z</time></trkpt><trkpt lat="43.154853804283675" lon="10.557034982265407"><ele>15.0</ele><time>2026-04-06T10:39:47.999Z</time></trkpt><trkpt lat="43.15458399801246" lon="10.55694869974117"><ele>15.0</ele><time>2026-04-06T10:39:48.999Z</time></trkpt><trkpt lat="43.15431550099167" lon="10.556856502608895"><ele>15.0</ele><time>2026-04-06T10:39:49.999Z</time></trkpt><trkpt lat="43.15404943300021" lon="10.556765721263464"><ele>14.0</ele><time>2026-04-06T10:39:50.999Z</time></trkpt><trkpt lat="43.1537796898496" lon="10.556675386594206"><ele>13.0</ele><time>2026-04-06T10:39:51.999Z</time></trkpt><trkpt lat="43.153513071914446" lon="10.556584627732693"><ele>13.0</ele><time>2026-04-06T10:39:52.999Z</time></trkpt><trkpt lat="43.153241534176516" lon="10.556498588812595"><ele>13.0</ele><time>2026-04-06T10:39:53.999Z</time></trkpt><trkpt lat="43.15297373612803" lon="10.556412158670065"><ele>14.0</ele><time>2026-04-06T10:39:54.999Z</time></trkpt><trkpt lat="43.15270205889987" lon="10.556324671131994"><ele>15.0</ele><time>2026-04-06T10:39:55.999Z</time></trkpt><trkpt lat="43.15243206684171" lon="10.556241042146102"><ele>15.5</ele><time>2026-04-06T10:39:56.999Z</time></trkpt><trkpt lat="43.15216169867665" lon="10.556157617457055"><ele>16.0</ele><time>2026-04-06T10:39:57.999Z</time></trkpt><trkpt lat="43.151888031249186" lon="10.556068856473212"><ele>16.0</ele><time>2026-04-06T10:39:58.999Z</time></trkpt><trkpt lat="43.15162259414838" lon="10.555980294535168"><ele>16.0</ele><time>2026-04-06T10:39:59.999Z</time></trkpt><trkpt lat="43.151346764818896" lon="10.555888245819503"><ele>15.0</ele><time>2026-04-06T10:40:00.999Z</time></trkpt><trkpt lat="43.151072914406086" lon="10.555797606018748"><ele>14.0</ele><time>2026-04-06T10:40:01.999Z</time></trkpt><trkpt lat="43.15080050249504" lon="10.555710643670002"><ele>14.0</ele><time>2026-04-06T10:40:02.999Z</time></trkpt><trkpt lat="43.15052534296528" lon="10.555624551800804"><ele>14.0</ele><time>2026-04-06T10:40:03.999Z</time></trkpt><trkpt lat="43.150257821921336" lon="10.555535958742801"><ele>14.0</ele><time>2026-04-06T10:40:04.999Z</time></trkpt><trkpt lat="43.14999003063795" lon="10.555448734239944"><ele>14.0</ele><time>2026-04-06T10:40:05.999Z</time></trkpt><trkpt lat="43.14971430467246" lon="10.555356855832098"><ele>15.0</ele><time>2026-04-06T10:40:06.999Z</time></trkpt><trkpt lat="43.14944008835567" lon="10.555267422032854"><ele>16.0</ele><time>2026-04-06T10:40:07.999Z</time></trkpt><trkpt lat="43.14916818973212" lon="10.555179280466614"><ele>14.0</ele><time>2026-04-06T10:40:08.999Z</time></trkpt><trkpt lat="43.14889862070212" lon="10.55509399871395"><ele>12.0</ele><time>2026-04-06T10:40:09.999Z</time></trkpt><trkpt lat="43.14862999595088" lon="10.555000987952841"><ele>12.0</ele><time>2026-04-06T10:40:10.999Z</time></trkpt><trkpt lat="43.14836580223345" lon="10.554909871174859"><ele>12.0</ele><time>2026-04-06T10:40:11.999Z</time></trkpt><trkpt lat="43.14809678091496" lon="10.55480794072474"><ele>13.0</ele><time>2026-04-06T10:40:12.999Z</time></trkpt><trkpt lat="43.14783261434951" lon="10.55470834266219"><ele>14.0</ele><time>2026-04-06T10:40:13.999Z</time></trkpt><trkpt lat="43.1475584022667" lon="10.554605602697814"><ele>13.5</ele><time>2026-04-06T10:40:14.999Z</time></trkpt><trkpt lat="43.14729283563219" lon="10.554514615940066"><ele>13.0</ele><time>2026-04-06T10:40:15.999Z</time></trkpt><trkpt lat="43.14702241846769" lon="10.554414735207336"><ele>13.0</ele><time>2026-04-06T10:40:16.999Z</time></trkpt><trkpt lat="43.146747602093335" lon="10.554306913196367"><ele>13.0</ele><time>2026-04-06T10:40:17.999Z</time></trkpt><trkpt lat="43.14647649856647" lon="10.554188562323743"><ele>13.5</ele><time>2026-04-06T10:40:18.999Z</time></trkpt><trkpt lat="43.146201039876864" lon="10.554061543228702"><ele>14.0</ele><time>2026-04-06T10:40:19.999Z</time></trkpt><trkpt lat="43.145934414462026" lon="10.553933962719686"><ele>13.5</ele><time>2026-04-06T10:40:21Z</time></trkpt><trkpt lat="43.14566937138416" lon="10.55380367430346"><ele>13.0</ele><time>2026-04-06T10:40:22Z</time></trkpt><trkpt lat="43.145400169561285" lon="10.553667320584506"><ele>12.0</ele><time>2026-04-06T10:40:23Z</time></trkpt><trkpt lat="43.145128860014594" lon="10.55352931163113"><ele>11.0</ele><time>2026-04-06T10:40:24Z</time></trkpt><trkpt lat="43.144864607576835" lon="10.553402994901647"><ele>11.0</ele><time>2026-04-06T10:40:25Z</time></trkpt><trkpt lat="43.144596896102456" lon="10.553279414585184"><ele>11.0</ele><time>2026-04-06T10:40:26Z</time></trkpt><trkpt lat="43.144325191014225" lon="10.553149454043067"><ele>11.0</ele><time>2026-04-06T10:40:27Z</time></trkpt><trkpt lat="43.1440547726327" lon="10.553018702989151"><ele>11.0</ele><time>2026-04-06T10:40:28Z</time></trkpt><trkpt lat="43.143784670714176" lon="10.552891246610333"><ele>11.5</ele><time>2026-04-06T10:40:29Z</time></trkpt><trkpt lat="43.143513808037234" lon="10.552761651208781"><ele>12.0</ele><time>2026-04-06T10:40:30Z</time></trkpt><trkpt lat="43.14324667957586" lon="10.552637869124652"><ele>13.0</ele><time>2026-04-06T10:40:31Z</time></trkpt><trkpt lat="43.14297627810703" lon="10.55251122062684"><ele>14.0</ele><time>2026-04-06T10:40:32Z</time></trkpt><trkpt lat="43.14270735791507" lon="10.552388627023744"><ele>14.0</ele><time>2026-04-06T10:40:33Z</time></trkpt><trkpt lat="43.142436195120986" lon="10.552266380447612"><ele>14.0</ele><time>2026-04-06T10:40:34Z</time></trkpt><trkpt lat="43.14216215354564" lon="10.552141255896123"><ele>14.0</ele><time>2026-04-06T10:40:35Z</time></trkpt><trkpt lat="43.14189080295206" lon="10.552020063619844"><ele>14.0</ele><time>2026-04-06T10:40:36Z</time></trkpt><trkpt lat="43.141617069278006" lon="10.55190323536101"><ele>13.5</ele><time>2026-04-06T10:40:37Z</time></trkpt><trkpt lat="43.141344977645225" lon="10.551790325944642"><ele>13.0</ele><time>2026-04-06T10:40:38Z</time></trkpt><trkpt lat="43.141076477761615" lon="10.55168286488342"><ele>13.0</ele><time>2026-04-06T10:40:39Z</time></trkpt><trkpt lat="43.14080200868362" lon="10.551579386054776"><ele>13.0</ele><time>2026-04-06T10:40:40Z</time></trkpt><trkpt lat="43.140523154573" lon="10.551477037063561"><ele>13.0</ele><time>2026-04-06T10:40:41Z</time></trkpt><trkpt lat="43.14025138422589" lon="10.551380218599837"><ele>13.0</ele><time>2026-04-06T10:40:42Z</time></trkpt><trkpt lat="43.13997656515479" lon="10.551284015093245"><ele>13.5</ele><time>2026-04-06T10:40:43Z</time></trkpt><trkpt lat="43.139702962877514" lon="10.551189628922158"><ele>14.0</ele><time>2026-04-06T10:40:44Z</time></trkpt><trkpt lat="43.13942276671003" lon="10.551094615071005"><ele>14.0</ele><time>2026-04-06T10:40:45Z</time></trkpt><trkpt lat="43.13914632193419" lon="10.55100061008394"><ele>14.0</ele><time>2026-04-06T10:40:46Z</time></trkpt><trkpt lat="43.138868918530726" lon="10.550918196052184"><ele>14.0</ele><time>2026-04-06T10:40:47Z</time></trkpt><trkpt lat="43.138589677678844" lon="10.550840150507423"><ele>14.0</ele><time>2026-04-06T10:40:48Z</time></trkpt><trkpt lat="43.13830900664404" lon="10.550758769396497"><ele>13.0</ele><time>2026-04-06T10:40:49Z</time></trkpt><trkpt lat="43.13802308781951" lon="10.550678703213942"><ele>12.0</ele><time>2026-04-06T10:40:50Z</time></trkpt><trkpt lat="43.13772840290385" lon="10.550597033004646"><ele>12.0</ele><time>2026-04-06T10:40:51Z</time></trkpt><trkpt lat="43.13742792375409" lon="10.550530388003596"><ele>12.0</ele><time>2026-04-06T10:40:52Z</time></trkpt><trkpt lat="43.13716854491363" lon="10.550445423085117"><ele>11.5</ele><time>2026-04-06T10:40:53Z</time></trkpt><trkpt lat="43.13688077453196" lon="10.550369466657159"><ele>11.0</ele><time>2026-04-06T10:40:54Z</time></trkpt><trkpt lat="43.13659346709976" lon="10.550288016334148"><ele>11.0</ele><time>2026-04-06T10:40:55Z</time></trkpt><trkpt lat="43.13630358854354" lon="10.550203444963312"><ele>11.0</ele><time>2026-04-06T10:40:56Z</time></trkpt><trkpt lat="43.13601729737461" lon="10.550119178685124"><ele>11.0</ele><time>2026-04-06T10:40:57Z</time></trkpt><trkpt lat="43.135728082509964" lon="10.550032969918064"><ele>11.0</ele><time>2026-04-06T10:40:58Z</time></trkpt><trkpt lat="43.135449057470794" lon="10.549947598994342"><ele>11.0</ele><time>2026-04-06T10:40:59Z</time></trkpt><trkpt lat="43.13515774999412" lon="10.549858598621617"><ele>11.0</ele><time>2026-04-06T10:41:00Z</time></trkpt><trkpt lat="43.13487598599762" lon="10.549769830600404"><ele>11.5</ele><time>2026-04-06T10:41:01Z</time></trkpt><trkpt lat="43.134594398938916" lon="10.549678716093181"><ele>12.0</ele><time>2026-04-06T10:41:02Z</time></trkpt><trkpt lat="43.13430541417532" lon="10.549590242289778"><ele>11.0</ele><time>2026-04-06T10:41:03Z</time></trkpt><trkpt lat="43.13401794139658" lon="10.549502131889174"><ele>10.0</ele><time>2026-04-06T10:41:04Z</time></trkpt><trkpt lat="43.133734328912126" lon="10.54941686096834"><ele>10.0</ele><time>2026-04-06T10:41:05Z</time></trkpt><trkpt lat="43.13344618682385" lon="10.54933259563415"><ele>10.0</ele><time>2026-04-06T10:41:06Z</time></trkpt><trkpt lat="43.13315457754371" lon="10.549246426355262"><ele>10.5</ele><time>2026-04-06T10:41:07Z</time></trkpt><trkpt lat="43.13286761452816" lon="10.5491625775253"><ele>11.0</ele><time>2026-04-06T10:41:08Z</time></trkpt><trkpt lat="43.1325758828483" lon="10.54907518387255"><ele>11.5</ele><time>2026-04-06T10:41:09Z</time></trkpt><trkpt lat="43.13229285695047" lon="10.548993577620072"><ele>12.0</ele><time>2026-04-06T10:41:10Z</time></trkpt><trkpt lat="43.13201083403721" lon="10.548902840962826"><ele>12.0</ele><time>2026-04-06T10:41:11Z</time></trkpt><trkpt lat="43.131726258336386" lon="10.548815871097338"><ele>12.0</ele><time>2026-04-06T10:41:12Z</time></trkpt><trkpt lat="43.131439288635086" lon="10.548733068554952"><ele>11.5</ele><time>2026-04-06T10:41:13Z</time></trkpt><trkpt lat="43.13115266862714" lon="10.548642859966813"><ele>11.0</ele><time>2026-04-06T10:41:14Z</time></trkpt><trkpt lat="43.1308716651708" lon="10.548543627507796"><ele>11.5</ele><time>2026-04-06T10:41:15Z</time></trkpt><trkpt lat="43.13058166099332" lon="10.548432555357675"><ele>12.0</ele><time>2026-04-06T10:41:16Z</time></trkpt><trkpt lat="43.13031026983717" lon="10.548324981375442"><ele>12.0</ele><time>2026-04-06T10:41:17Z</time></trkpt><trkpt lat="43.130021317283045" lon="10.548213684645162"><ele>12.0</ele><time>2026-04-06T10:41:18Z</time></trkpt><trkpt lat="43.12974101327156" lon="10.548100982496273"><ele>12.0</ele><time>2026-04-06T10:41:19Z</time></trkpt><trkpt lat="43.12945635436822" lon="10.547991670092033"><ele>12.0</ele><time>2026-04-06T10:41:20Z</time></trkpt><trkpt lat="43.12917905471405" lon="10.547883140080156"><ele>11.0</ele><time>2026-04-06T10:41:21Z</time></trkpt><trkpt lat="43.12890622488345" lon="10.547773240194491"><ele>10.0</ele><time>2026-04-06T10:41:22Z</time></trkpt><trkpt lat="43.12863580683851" lon="10.547656439315734"><ele>10.0</ele><time>2026-04-06T10:41:23Z</time></trkpt><trkpt lat="43.12836110778309" lon="10.547537742760523"><ele>10.0</ele><time>2026-04-06T10:41:24Z</time></trkpt><trkpt lat="43.12809254267242" lon="10.54741914018156"><ele>10.0</ele><time>2026-04-06T10:41:25Z</time></trkpt><trkpt lat="43.12782234580579" lon="10.547310473144856"><ele>10.0</ele><time>2026-04-06T10:41:26Z</time></trkpt><trkpt lat="43.12755190836756" lon="10.547196891802544"><ele>10.0</ele><time>2026-04-06T10:41:27Z</time></trkpt><trkpt lat="43.127285467675414" lon="10.547078919247786"><ele>10.0</ele><time>2026-04-06T10:41:28Z</time></trkpt><trkpt lat="43.127014835936464" lon="10.54696813835886"><ele>10.0</ele><time>2026-04-06T10:41:29Z</time></trkpt><trkpt lat="43.12674721054741" lon="10.546858436351517"><ele>10.0</ele><time>2026-04-06T10:41:30Z</time></trkpt><trkpt lat="43.12648256997412" lon="10.546749457647207"><ele>10.0</ele><time>2026-04-06T10:41:31Z</time></trkpt><trkpt lat="43.12622250754388" lon="10.546638156668529"><ele>10.0</ele><time>2026-04-06T10:41:32Z</time></trkpt><trkpt lat="43.12596275496417" lon="10.54653189722315"><ele>9.0</ele><time>2026-04-06T10:41:32.999Z</time></trkpt><trkpt lat="43.125698227538756" lon="10.546421292416314"><ele>8.0</ele><time>2026-04-06T10:41:33.999Z</time></trkpt><trkpt lat="43.12544063111386" lon="10.546313136834664"><ele>8.0</ele><time>2026-04-06T10:41:34.999Z</time></trkpt><trkpt lat="43.12518690971966" lon="10.546203950545227"><ele>8.0</ele><time>2026-04-06T10:41:35.999Z</time></trkpt><trkpt lat="43.12492868900232" lon="10.54609595396283"><ele>8.0</ele><time>2026-04-06T10:41:36.999Z</time></trkpt><trkpt lat="43.12467289128213" lon="10.545990372739029"><ele>8.0</ele><time>2026-04-06T10:41:37.999Z</time></trkpt><trkpt lat="43.12442792121118" lon="10.545889214653023"><ele>8.0</ele><time>2026-04-06T10:41:38.999Z</time></trkpt><trkpt lat="43.12418526116646" lon="10.54578675899318"><ele>8.0</ele><time>2026-04-06T10:41:39.999Z</time></trkpt><trkpt lat="43.12393158949356" lon="10.545682514292954"><ele>9.0</ele><time>2026-04-06T10:41:40.999Z</time></trkpt><trkpt lat="43.12368034235458" lon="10.545581065584956"><ele>10.0</ele><time>2026-04-06T10:41:41.999Z</time></trkpt><trkpt lat="43.12342664583223" lon="10.545485327465748"><ele>10.0</ele><time>2026-04-06T10:41:42.999Z</time></trkpt><trkpt lat="43.123162736885114" lon="10.545386771757506"><ele>10.0</ele><time>2026-04-06T10:41:43.999Z</time></trkpt><trkpt lat="43.1228991384157" lon="10.545281009662379"><ele>10.0</ele><time>2026-04-06T10:41:44.999Z</time></trkpt><trkpt lat="43.12263499293079" lon="10.54517456050441"><ele>10.0</ele><time>2026-04-06T10:41:45.999Z</time></trkpt><trkpt lat="43.12235950963142" lon="10.545070745649635"><ele>10.0</ele><time>2026-04-06T10:41:46.999Z</time></trkpt><trkpt lat="43.12209079231734" lon="10.544973861417912"><ele>10.0</ele><time>2026-04-06T10:41:47.999Z</time></trkpt><trkpt lat="43.12181062655756" lon="10.544885624760685"><ele>10.0</ele><time>2026-04-06T10:41:48.999Z</time></trkpt><trkpt lat="43.121532381417694" lon="10.544810908163935"><ele>10.0</ele><time>2026-04-06T10:41:49.999Z</time></trkpt><trkpt lat="43.121244733033016" lon="10.544745790376133"><ele>10.0</ele><time>2026-04-06T10:41:50.999Z</time></trkpt><trkpt lat="43.12096054303597" lon="10.544684005328312"><ele>10.0</ele><time>2026-04-06T10:41:51.999Z</time></trkpt><trkpt lat="43.12067457851666" lon="10.544631427323628"><ele>11.0</ele><time>2026-04-06T10:41:52.999Z</time></trkpt><trkpt lat="43.12038817228756" lon="10.544586815828866"><ele>12.0</ele><time>2026-04-06T10:41:53.999Z</time></trkpt><trkpt lat="43.1201032735925" lon="10.544547932207557"><ele>11.0</ele><time>2026-04-06T10:41:54.999Z</time></trkpt><trkpt lat="43.11982312287579" lon="10.544509099433583"><ele>10.0</ele><time>2026-04-06T10:41:55.999Z</time></trkpt><trkpt lat="43.119539551342314" lon="10.544473170374603"><ele>10.0</ele><time>2026-04-06T10:41:56.999Z</time></trkpt><trkpt lat="43.11925457972388" lon="10.5444472270533"><ele>10.0</ele><time>2026-04-06T10:41:57.999Z</time></trkpt><trkpt lat="43.118969753424146" lon="10.544438007815074"><ele>10.0</ele><time>2026-04-06T10:41:58.999Z</time></trkpt><trkpt lat="43.118684133476435" lon="10.544442479685518"><ele>10.0</ele><time>2026-04-06T10:41:59.999Z</time></trkpt><trkpt lat="43.118399871294294" lon="10.544454721660477"><ele>10.0</ele><time>2026-04-06T10:42:00.999Z</time></trkpt><trkpt lat="43.118111195216294" lon="10.544472579490547"><ele>10.0</ele><time>2026-04-06T10:42:01.999Z</time></trkpt><trkpt lat="43.11782622137047" lon="10.544494987269626"><ele>10.0</ele><time>2026-04-06T10:42:02.999Z</time></trkpt><trkpt lat="43.117539535147465" lon="10.544519865732179"><ele>10.0</ele><time>2026-04-06T10:42:03.999Z</time></trkpt><trkpt lat="43.117251076516396" lon="10.544549175710335"><ele>10.0</ele><time>2026-04-06T10:42:04.999Z</time></trkpt><trkpt lat="43.11697011829775" lon="10.54457845699069"><ele>10.0</ele><time>2026-04-06T10:42:05.999Z</time></trkpt><trkpt lat="43.11668109202393" lon="10.544609027471482"><ele>11.0</ele><time>2026-04-06T10:42:06.999Z</time></trkpt><trkpt lat="43.11639417480141" lon="10.54464403029179"><ele>12.0</ele><time>2026-04-06T10:42:07.999Z</time></trkpt><trkpt lat="43.11611349015688" lon="10.54467670723966"><ele>12.0</ele><time>2026-04-06T10:42:08.999Z</time></trkpt><trkpt lat="43.11582594865694" lon="10.544708390999922"><ele>12.0</ele><time>2026-04-06T10:42:09.999Z</time></trkpt><trkpt lat="43.11554567099597" lon="10.544737043836111"><ele>12.0</ele><time>2026-04-06T10:42:10.999Z</time></trkpt><trkpt lat="43.11526152264531" lon="10.544766957404557"><ele>12.0</ele><time>2026-04-06T10:42:11.999Z</time></trkpt><trkpt lat="43.11498556510707" lon="10.544795070808595"><ele>13.0</ele><time>2026-04-06T10:42:12.999Z</time></trkpt><trkpt lat="43.11471138964629" lon="10.544824936607261"><ele>14.0</ele><time>2026-04-06T10:42:13.999Z</time></trkpt><trkpt lat="43.114427452235724" lon="10.54485237217563"><ele>14.0</ele><time>2026-04-06T10:42:14.999Z</time></trkpt><trkpt lat="43.11414726794364" lon="10.544880385644065"><ele>14.0</ele><time>2026-04-06T10:42:15.999Z</time></trkpt><trkpt lat="43.11386505090094" lon="10.544913228078912"><ele>13.5</ele><time>2026-04-06T10:42:16.999Z</time></trkpt><trkpt lat="43.11358846739774" lon="10.54494637313163"><ele>13.0</ele><time>2026-04-06T10:42:17.999Z</time></trkpt><trkpt lat="43.113311180822556" lon="10.544975699542867"><ele>14.5</ele><time>2026-04-06T10:42:18.999Z</time></trkpt><trkpt lat="43.113029432020745" lon="10.545003331650843"><ele>16.0</ele><time>2026-04-06T10:42:19.999Z</time></trkpt><trkpt lat="43.112752526799085" lon="10.545032590650482"><ele>16.0</ele><time>2026-04-06T10:42:20.999Z</time></trkpt><trkpt lat="43.11246906319783" lon="10.545064582928152"><ele>16.0</ele><time>2026-04-06T10:42:21.999Z</time></trkpt><trkpt lat="43.112196559385595" lon="10.545096406841534"><ele>17.5</ele><time>2026-04-06T10:42:22.999Z</time></trkpt><trkpt lat="43.11192196887127" lon="10.545124941222314"><ele>19.0</ele><time>2026-04-06T10:42:23.999Z</time></trkpt><trkpt lat="43.1116504719133" lon="10.545152168556832"><ele>20.5</ele><time>2026-04-06T10:42:24.999Z</time></trkpt><trkpt lat="43.11137595723851" lon="10.545183378740454"><ele>22.0</ele><time>2026-04-06T10:42:25.999Z</time></trkpt><trkpt lat="43.111101615911764" lon="10.545204433713556"><ele>22.0</ele><time>2026-04-06T10:42:27Z</time></trkpt><trkpt lat="43.11082884366595" lon="10.545243527531403"><ele>22.0</ele><time>2026-04-06T10:42:28Z</time></trkpt><trkpt lat="43.11055601348308" lon="10.545270394334704"><ele>24.0</ele><time>2026-04-06T10:42:29Z</time></trkpt><trkpt lat="43.110285508800565" lon="10.545297882836934"><ele>26.0</ele><time>2026-04-06T10:42:30Z</time></trkpt><trkpt lat="43.1100122380942" lon="10.545326618890213"><ele>25.5</ele><time>2026-04-06T10:42:31Z</time></trkpt><trkpt lat="43.10973963220674" lon="10.545357770855617"><ele>25.0</ele><time>2026-04-06T10:42:32Z</time></trkpt><trkpt lat="43.10946392852306" lon="10.545391632587128"><ele>23.0</ele><time>2026-04-06T10:42:33Z</time></trkpt><trkpt lat="43.109189925222886" lon="10.545428237253104"><ele>21.0</ele><time>2026-04-06T10:42:34Z</time></trkpt><trkpt lat="43.10891324514147" lon="10.545472350463138"><ele>17.5</ele><time>2026-04-06T10:42:35Z</time></trkpt><trkpt lat="43.10864155825312" lon="10.54552484740522"><ele>14.0</ele><time>2026-04-06T10:42:36Z</time></trkpt><trkpt lat="43.108372804025635" lon="10.54557663843246"><ele>15.0</ele><time>2026-04-06T10:42:37Z</time></trkpt><trkpt lat="43.10809622759068" lon="10.545635873422798"><ele>16.0</ele><time>2026-04-06T10:42:38Z</time></trkpt><trkpt lat="43.107831806979874" lon="10.545693388156106"><ele>16.0</ele><time>2026-04-06T10:42:39Z</time></trkpt><trkpt lat="43.10756317022866" lon="10.545755249833661"><ele>16.0</ele><time>2026-04-06T10:42:40Z</time></trkpt><trkpt lat="43.10729378207196" lon="10.545820040952922"><ele>15.5</ele><time>2026-04-06T10:42:41Z</time></trkpt><trkpt lat="43.10702860855604" lon="10.545891360459784"><ele>15.0</ele><time>2026-04-06T10:42:42Z</time></trkpt><trkpt lat="43.10675996088486" lon="10.545963430791701"><ele>16.0</ele><time>2026-04-06T10:42:43Z</time></trkpt><trkpt lat="43.106489726997964" lon="10.54604050296714"><ele>17.0</ele><time>2026-04-06T10:42:44Z</time></trkpt><trkpt lat="43.10623068553501" lon="10.546115327473151"><ele>17.0</ele><time>2026-04-06T10:42:45Z</time></trkpt><trkpt lat="43.10596683387177" lon="10.546189317351724"><ele>17.0</ele><time>2026-04-06T10:42:46Z</time></trkpt><trkpt lat="43.105698974702605" lon="10.546260866361248"><ele>26.5</ele><time>2026-04-06T10:42:47Z</time></trkpt><trkpt lat="43.105436756059554" lon="10.54633635327966"><ele>36.0</ele><time>2026-04-06T10:42:48Z</time></trkpt><trkpt lat="43.105182249054906" lon="10.546409971852942"><ele>36.0</ele><time>2026-04-06T10:42:49Z</time></trkpt><trkpt lat="43.10491672899819" lon="10.546485803173386"><ele>36.0</ele><time>2026-04-06T10:42:50Z</time></trkpt><trkpt lat="43.10465897572522" lon="10.546567656336189"><ele>44.5</ele><time>2026-04-06T10:42:51Z</time></trkpt><trkpt lat="43.10439910912472" lon="10.546649660725741"><ele>53.0</ele><time>2026-04-06T10:42:52Z</time></trkpt><trkpt lat="43.104137813550935" lon="10.54673302921551"><ele>58.0</ele><time>2026-04-06T10:42:53Z</time></trkpt><trkpt lat="43.10387680375014" lon="10.546817556444324"><ele>63.0</ele><time>2026-04-06T10:42:54Z</time></trkpt><trkpt lat="43.10362304507463" lon="10.546898995621419"><ele>63.0</ele><time>2026-04-06T10:42:55Z</time></trkpt><trkpt lat="43.10334495972848" lon="10.546989018352116"><ele>63.0</ele><time>2026-04-06T10:42:56.061Z</time></trkpt><trkpt lat="43.10038568978731" lon="10.547788991166994"><ele>43.0</ele><time>2026-04-06T10:43:00.2Z</time></trkpt><trkpt lat="43.09941832867714" lon="10.54807698118888"><ele>37.0</ele><time>2026-04-06T10:43:01.2Z</time></trkpt><trkpt lat="43.098459848288826" lon="10.548415354802376"><ele>30.0</ele><time>2026-04-06T10:43:02.2Z</time></trkpt><trkpt lat="43.097640585187584" lon="10.548572412709007"><ele>28.5</ele><time>2026-04-06T10:43:16Z</time></trkpt><trkpt lat="43.097478898616" lon="10.548765884895582"><ele>27.0</ele><time>2026-04-06T10:43:17Z</time></trkpt><trkpt lat="43.09723436957313" lon="10.548876004085422"><ele>27.0</ele><time>2026-04-06T10:43:18Z</time></trkpt><trkpt lat="43.09696364013543" lon="10.548989595000036"><ele>27.0</ele><time>2026-04-06T10:43:19Z</time></trkpt><trkpt lat="43.096725907578644" lon="10.549121636355734"><ele>24.5</ele><time>2026-04-06T10:43:20Z</time></trkpt><trkpt lat="43.09647180973061" lon="10.549251189107475"><ele>22.0</ele><time>2026-04-06T10:43:21Z</time></trkpt><trkpt lat="43.09620548298189" lon="10.549375196110518"><ele>22.0</ele><time>2026-04-06T10:43:22Z</time></trkpt><trkpt lat="43.095960234636024" lon="10.549494117078716"><ele>22.0</ele><time>2026-04-06T10:43:23Z</time></trkpt><trkpt lat="43.09571149986225" lon="10.549624354887426"><ele>21.5</ele><time>2026-04-06T10:43:24Z</time></trkpt><trkpt lat="43.0954664972629" lon="10.54976214723499"><ele>21.0</ele><time>2026-04-06T10:43:25Z</time></trkpt><trkpt lat="43.09522278268517" lon="10.549906381081772"><ele>21.0</ele><time>2026-04-06T10:43:26Z</time></trkpt><trkpt lat="43.094977976759445" lon="10.5500433439035"><ele>21.0</ele><time>2026-04-06T10:43:27Z</time></trkpt><trkpt lat="43.0947285427246" lon="10.55017575632185"><ele>21.0</ele><time>2026-04-06T10:43:28Z</time></trkpt><trkpt lat="43.09447971964727" lon="10.550311155270332"><ele>21.0</ele><time>2026-04-06T10:43:29Z</time></trkpt><trkpt lat="43.094235132278264" lon="10.550448505739618"><ele>21.5</ele><time>2026-04-06T10:43:30Z</time></trkpt><trkpt lat="43.093990162260184" lon="10.550585081995678"><ele>22.0</ele><time>2026-04-06T10:43:30.999Z</time></trkpt><trkpt lat="43.093738627741196" lon="10.550718365987285"><ele>22.0</ele><time>2026-04-06T10:43:31.999Z</time></trkpt><trkpt lat="43.09349172172164" lon="10.55085681122241"><ele>22.0</ele><time>2026-04-06T10:43:32.999Z</time></trkpt><trkpt lat="43.09324244543456" lon="10.55099211114556"><ele>22.0</ele><time>2026-04-06T10:43:33.999Z</time></trkpt><trkpt lat="43.092994961430456" lon="10.551126522151737"><ele>22.0</ele><time>2026-04-06T10:43:34.999Z</time></trkpt><trkpt lat="43.09275451263057" lon="10.55126028134758"><ele>22.0</ele><time>2026-04-06T10:43:35.999Z</time></trkpt><trkpt lat="43.09251850634117" lon="10.551389185166247"><ele>22.0</ele><time>2026-04-06T10:43:36.999Z</time></trkpt><trkpt lat="43.092280535050485" lon="10.551508681002714"><ele>23.0</ele><time>2026-04-06T10:43:37.999Z</time></trkpt><trkpt lat="43.09206343970024" lon="10.55163714247062"><ele>24.0</ele><time>2026-04-06T10:43:38.999Z</time></trkpt><trkpt lat="43.09184219611408" lon="10.551753019408302"><ele>24.0</ele><time>2026-04-06T10:43:39.999Z</time></trkpt><trkpt lat="43.09162345846885" lon="10.551866703652127"><ele>24.0</ele><time>2026-04-06T10:43:40.999Z</time></trkpt><trkpt lat="43.091408283682604" lon="10.551985252429258"><ele>25.0</ele><time>2026-04-06T10:43:41.999Z</time></trkpt><trkpt lat="43.09119359930682" lon="10.552103850406768"><ele>26.0</ele><time>2026-04-06T10:43:42.999Z</time></trkpt><trkpt lat="43.09098215191229" lon="10.552223718959752"><ele>26.0</ele><time>2026-04-06T10:43:43.999Z</time></trkpt><trkpt lat="43.09076729305695" lon="10.552341654958985"><ele>26.0</ele><time>2026-04-06T10:43:44.999Z</time></trkpt><trkpt lat="43.09055363182333" lon="10.552458988397815"><ele>25.0</ele><time>2026-04-06T10:43:45.999Z</time></trkpt><trkpt lat="43.090335808156034" lon="10.552570932605757"><ele>24.0</ele><time>2026-04-06T10:43:46.999Z</time></trkpt><trkpt lat="43.09012189266947" lon="10.5526876110776"><ele>23.5</ele><time>2026-04-06T10:43:47.999Z</time></trkpt><trkpt lat="43.08991027633996" lon="10.55280740924066"><ele>23.0</ele><time>2026-04-06T10:43:48.999Z</time></trkpt><trkpt lat="43.08969437888111" lon="10.55292245651178"><ele>24.0</ele><time>2026-04-06T10:43:49.999Z</time></trkpt><trkpt lat="43.089475413221734" lon="10.553036021272641"><ele>25.0</ele><time>2026-04-06T10:43:50.999Z</time></trkpt><trkpt lat="43.089255920201985" lon="10.553152954541376"><ele>25.5</ele><time>2026-04-06T10:43:51.999Z</time></trkpt><trkpt lat="43.089034878976996" lon="10.553271322435965"><ele>26.0</ele><time>2026-04-06T10:43:52.999Z</time></trkpt><trkpt lat="43.08879770111101" lon="10.553391831123172"><ele>26.0</ele><time>2026-04-06T10:43:53.999Z</time></trkpt><trkpt lat="43.08858461447579" lon="10.553523299090838"><ele>26.0</ele><time>2026-04-06T10:43:54.999Z</time></trkpt><trkpt lat="43.08835802817015" lon="10.55365309924255"><ele>27.0</ele><time>2026-04-06T10:43:55.999Z</time></trkpt><trkpt lat="43.08812799047819" lon="10.553780777850992"><ele>28.0</ele><time>2026-04-06T10:43:56.999Z</time></trkpt><trkpt lat="43.08789538315417" lon="10.553909541402065"><ele>28.0</ele><time>2026-04-06T10:43:57.999Z</time></trkpt><trkpt lat="43.087665660937354" lon="10.554047093794278"><ele>28.0</ele><time>2026-04-06T10:43:58.999Z</time></trkpt><trkpt lat="43.08743308394465" lon="10.554171768192257"><ele>27.0</ele><time>2026-04-06T10:43:59.999Z</time></trkpt><trkpt lat="43.08719757453099" lon="10.55429303549547"><ele>26.0</ele><time>2026-04-06T10:44:00.999Z</time></trkpt><trkpt lat="43.08697042928129" lon="10.5544308249827"><ele>27.5</ele><time>2026-04-06T10:44:01.999Z</time></trkpt><trkpt lat="43.086735675148496" lon="10.554554544514613"><ele>29.0</ele><time>2026-04-06T10:44:02.999Z</time></trkpt><trkpt lat="43.08649861970665" lon="10.554682133734387"><ele>29.5</ele><time>2026-04-06T10:44:03.999Z</time></trkpt><trkpt lat="43.086268716742424" lon="10.554822360432778"><ele>30.0</ele><time>2026-04-06T10:44:04.999Z</time></trkpt><trkpt lat="43.08603453888103" lon="10.554966313703359"><ele>30.0</ele><time>2026-04-06T10:44:05.999Z</time></trkpt><trkpt lat="43.08579660729155" lon="10.555105794331894"><ele>30.0</ele><time>2026-04-06T10:44:06.999Z</time></trkpt><trkpt lat="43.08555337921556" lon="10.55524322866996"><ele>31.5</ele><time>2026-04-06T10:44:07.999Z</time></trkpt><trkpt lat="43.08530584236018" lon="10.555374622720374"><ele>33.0</ele><time>2026-04-06T10:44:08.999Z</time></trkpt><trkpt lat="43.08505801171254" lon="10.555504550935295"><ele>33.0</ele><time>2026-04-06T10:44:09.999Z</time></trkpt><trkpt lat="43.08480869809412" lon="10.555634526450755"><ele>33.0</ele><time>2026-04-06T10:44:10.999Z</time></trkpt><trkpt lat="43.084555464973896" lon="10.555762101946211"><ele>33.0</ele><time>2026-04-06T10:44:11.999Z</time></trkpt><trkpt lat="43.0843046249432" lon="10.555903356718751"><ele>33.0</ele><time>2026-04-06T10:44:12.999Z</time></trkpt><trkpt lat="43.08404891155019" lon="10.556038656369461"><ele>33.0</ele><time>2026-04-06T10:44:13.999Z</time></trkpt><trkpt lat="43.083794567445594" lon="10.55618362547128"><ele>33.0</ele><time>2026-04-06T10:44:14.999Z</time></trkpt><trkpt lat="43.08353731691872" lon="10.55632368055251"><ele>33.5</ele><time>2026-04-06T10:44:15.999Z</time></trkpt><trkpt lat="43.083278437896155" lon="10.556466298625976"><ele>34.0</ele><time>2026-04-06T10:44:16.999Z</time></trkpt><trkpt lat="43.08301694819429" lon="10.556604651607854"><ele>34.5</ele><time>2026-04-06T10:44:17.999Z</time></trkpt><trkpt lat="43.082754738299656" lon="10.556743122669806"><ele>35.0</ele><time>2026-04-06T10:44:18.999Z</time></trkpt><trkpt lat="43.08249075317828" lon="10.556875162501896"><ele>34.5</ele><time>2026-04-06T10:44:19.999Z</time></trkpt><trkpt lat="43.08222338437102" lon="10.5570035678387"><ele>34.0</ele><time>2026-04-06T10:44:20.999Z</time></trkpt><trkpt lat="43.08195352938235" lon="10.557125922312038"><ele>35.0</ele><time>2026-04-06T10:44:21.999Z</time></trkpt><trkpt lat="43.0816815935898" lon="10.557231711999037"><ele>36.0</ele><time>2026-04-06T10:44:22.999Z</time></trkpt><trkpt lat="43.08140827984077" lon="10.557340057326522"><ele>36.5</ele><time>2026-04-06T10:44:23.999Z</time></trkpt><trkpt lat="43.08113325380025" lon="10.55744885884486"><ele>37.0</ele><time>2026-04-06T10:44:24.999Z</time></trkpt><trkpt lat="43.080864416760015" lon="10.5575463940128"><ele>36.5</ele><time>2026-04-06T10:44:25.999Z</time></trkpt><trkpt lat="43.08059648594741" lon="10.55764705355217"><ele>36.0</ele><time>2026-04-06T10:44:26.999Z</time></trkpt><trkpt lat="43.080326671606656" lon="10.557751947241247"><ele>36.0</ele><time>2026-04-06T10:44:27.999Z</time></trkpt><trkpt lat="43.080054577018494" lon="10.557854026924117"><ele>36.0</ele><time>2026-04-06T10:44:28.999Z</time></trkpt><trkpt lat="43.079786988327044" lon="10.557946117475986"><ele>36.5</ele><time>2026-04-06T10:44:29.999Z</time></trkpt><trkpt lat="43.07952286141256" lon="10.558022213738113"><ele>37.0</ele><time>2026-04-06T10:44:30.999Z</time></trkpt><trkpt lat="43.079255157153675" lon="10.558104151542764"><ele>38.5</ele><time>2026-04-06T10:44:32Z</time></trkpt><trkpt lat="43.07898456174124" lon="10.558191679271639"><ele>40.0</ele><time>2026-04-06T10:44:33Z</time></trkpt><trkpt lat="43.07871807145297" lon="10.558263478867818"><ele>40.0</ele><time>2026-04-06T10:44:34Z</time></trkpt><trkpt lat="43.07844599776552" lon="10.558338636425711"><ele>40.0</ele><time>2026-04-06T10:44:35Z</time></trkpt><trkpt lat="43.07817251991914" lon="10.55841003299865"><ele>38.5</ele><time>2026-04-06T10:44:36Z</time></trkpt><trkpt lat="43.07789982843192" lon="10.558473552204863"><ele>37.0</ele><time>2026-04-06T10:44:37Z</time></trkpt><trkpt lat="43.077625505250516" lon="10.558530488188966"><ele>38.5</ele><time>2026-04-06T10:44:38Z</time></trkpt><trkpt lat="43.07734464350976" lon="10.558591775297849"><ele>40.0</ele><time>2026-04-06T10:44:39Z</time></trkpt><trkpt lat="43.07706845522616" lon="10.558647844418076"><ele>40.0</ele><time>2026-04-06T10:44:40Z</time></trkpt><trkpt lat="43.076793402179526" lon="10.558698226843152"><ele>40.0</ele><time>2026-04-06T10:44:41Z</time></trkpt><trkpt lat="43.07651375452137" lon="10.55875616055568"><ele>40.0</ele><time>2026-04-06T10:44:42Z</time></trkpt><trkpt lat="43.076236698143425" lon="10.55880784203854"><ele>40.0</ele><time>2026-04-06T10:44:43Z</time></trkpt><trkpt lat="43.07595891548608" lon="10.558863903400637"><ele>40.5</ele><time>2026-04-06T10:44:44Z</time></trkpt><trkpt lat="43.075680380390374" lon="10.558921939680829"><ele>41.0</ele><time>2026-04-06T10:44:45Z</time></trkpt><trkpt lat="43.07540205145165" lon="10.558977830048931"><ele>41.0</ele><time>2026-04-06T10:44:46Z</time></trkpt><trkpt lat="43.07512508862431" lon="10.559036838736642"><ele>41.0</ele><time>2026-04-06T10:44:47Z</time></trkpt><trkpt lat="43.07484664060485" lon="10.559093093443291"><ele>40.0</ele><time>2026-04-06T10:44:48Z</time></trkpt><trkpt lat="43.07457065397936" lon="10.559148081583064"><ele>39.0</ele><time>2026-04-06T10:44:49Z</time></trkpt><trkpt lat="43.07428913806057" lon="10.559203659547098"><ele>39.0</ele><time>2026-04-06T10:44:50Z</time></trkpt><trkpt lat="43.074019948432024" lon="10.559254797282247"><ele>39.0</ele><time>2026-04-06T10:44:51Z</time></trkpt><trkpt lat="43.07375219338601" lon="10.559311019499631"><ele>39.0</ele><time>2026-04-06T10:44:52Z</time></trkpt><trkpt lat="43.073479288605256" lon="10.55936954220793"><ele>39.0</ele><time>2026-04-06T10:44:53Z</time></trkpt><trkpt lat="43.073204142273994" lon="10.559428819258034"><ele>39.5</ele><time>2026-04-06T10:44:54Z</time></trkpt><trkpt lat="43.07293078061396" lon="10.559482160566178"><ele>40.0</ele><time>2026-04-06T10:44:55Z</time></trkpt><trkpt lat="43.072656462226725" lon="10.559537056606707"><ele>38.5</ele><time>2026-04-06T10:44:56Z</time></trkpt><trkpt lat="43.072378428272785" lon="10.559598876550718"><ele>37.0</ele><time>2026-04-06T10:44:57Z</time></trkpt><trkpt lat="43.07208407710086" lon="10.559680825906051"><ele>37.0</ele><time>2026-04-06T10:44:58Z</time></trkpt><trkpt lat="43.0718172647976" lon="10.559715254631273"><ele>37.0</ele><time>2026-04-06T10:44:59Z</time></trkpt><trkpt lat="43.07153353757787" lon="10.559768603569827"><ele>37.0</ele><time>2026-04-06T10:45:00Z</time></trkpt><trkpt lat="43.071251648303154" lon="10.559815110925713"><ele>37.0</ele><time>2026-04-06T10:45:01Z</time></trkpt><trkpt lat="43.07096817861624" lon="10.559868985949382"><ele>36.5</ele><time>2026-04-06T10:45:02Z</time></trkpt><trkpt lat="43.07068282885338" lon="10.559929654139482"><ele>36.0</ele><time>2026-04-06T10:45:03Z</time></trkpt><trkpt lat="43.07040037874266" lon="10.559982520580887"><ele>36.0</ele><time>2026-04-06T10:45:04Z</time></trkpt><trkpt lat="43.07011473522749" lon="10.560043877806436"><ele>36.0</ele><time>2026-04-06T10:45:05Z</time></trkpt><trkpt lat="43.06983156431503" lon="10.560102986321656"><ele>35.5</ele><time>2026-04-06T10:45:06Z</time></trkpt><trkpt lat="43.06954622611477" lon="10.560165255119266"><ele>35.0</ele><time>2026-04-06T10:45:07Z</time></trkpt><trkpt lat="43.06926388926424" lon="10.560224832212592"><ele>34.5</ele><time>2026-04-06T10:45:08Z</time></trkpt><trkpt lat="43.06898388152074" lon="10.560280492748316"><ele>34.0</ele><time>2026-04-06T10:45:09Z</time></trkpt><trkpt lat="43.06870383975889" lon="10.560334588264736"><ele>33.5</ele><time>2026-04-06T10:45:10Z</time></trkpt><trkpt lat="43.06842401491338" lon="10.560390488218058"><ele>33.0</ele><time>2026-04-06T10:45:11Z</time></trkpt><trkpt lat="43.068142478758105" lon="10.560456041701183"><ele>33.0</ele><time>2026-04-06T10:45:12Z</time></trkpt><trkpt lat="43.06786581242913" lon="10.560505600762024"><ele>33.0</ele><time>2026-04-06T10:45:13Z</time></trkpt><trkpt lat="43.0675871506857" lon="10.560564754586366"><ele>32.5</ele><time>2026-04-06T10:45:14Z</time></trkpt><trkpt lat="43.06730991550424" lon="10.560623397709106"><ele>32.0</ele><time>2026-04-06T10:45:15Z</time></trkpt><trkpt lat="43.06703379235001" lon="10.560680259948407"><ele>32.0</ele><time>2026-04-06T10:45:16Z</time></trkpt><trkpt lat="43.06675761925754" lon="10.560739759227145"><ele>32.0</ele><time>2026-04-06T10:45:17Z</time></trkpt><trkpt lat="43.06648204423509" lon="10.560798068705113"><ele>30.0</ele><time>2026-04-06T10:45:18Z</time></trkpt><trkpt lat="43.066207325066216" lon="10.560848374364092"><ele>28.0</ele><time>2026-04-06T10:45:19Z</time></trkpt><trkpt lat="43.06593197784954" lon="10.56090285275578"><ele>28.0</ele><time>2026-04-06T10:45:20Z</time></trkpt><trkpt lat="43.06565925177374" lon="10.560958988838058"><ele>28.0</ele><time>2026-04-06T10:45:21Z</time></trkpt><trkpt lat="43.065389008658585" lon="10.561011968403387"><ele>28.0</ele><time>2026-04-06T10:45:22Z</time></trkpt><trkpt lat="43.06511811484566" lon="10.561069444533395"><ele>28.0</ele><time>2026-04-06T10:45:23Z</time></trkpt><trkpt lat="43.064846954294595" lon="10.561126352609614"><ele>28.5</ele><time>2026-04-06T10:45:24Z</time></trkpt><trkpt lat="43.0645775696916" lon="10.561178986053566"><ele>29.0</ele><time>2026-04-06T10:45:25Z</time></trkpt><trkpt lat="43.06431036128022" lon="10.561235192137294"><ele>28.5</ele><time>2026-04-06T10:45:26Z</time></trkpt><trkpt lat="43.0640443375633" lon="10.56128804049935"><ele>28.0</ele><time>2026-04-06T10:45:27Z</time></trkpt><trkpt lat="43.063771055588475" lon="10.561374138101703"><ele>28.0</ele><time>2026-04-06T10:45:28Z</time></trkpt><trkpt lat="43.06349851585289" lon="10.561433986972752"><ele>28.0</ele><time>2026-04-06T10:45:29Z</time></trkpt><trkpt lat="43.06324148184259" lon="10.561492248950671"><ele>27.5</ele><time>2026-04-06T10:45:30Z</time></trkpt><trkpt lat="43.062978574946825" lon="10.561567613349183"><ele>27.0</ele><time>2026-04-06T10:45:31Z</time></trkpt><trkpt lat="43.06271694124885" lon="10.561654634761583"><ele>27.0</ele><time>2026-04-06T10:45:32Z</time></trkpt><trkpt lat="43.06245241764062" lon="10.561759165299334"><ele>27.0</ele><time>2026-04-06T10:45:33Z</time></trkpt><trkpt lat="43.0621973224318" lon="10.561857404766712"><ele>26.0</ele><time>2026-04-06T10:45:34Z</time></trkpt><trkpt lat="43.06194338564248" lon="10.561963033760957"><ele>25.0</ele><time>2026-04-06T10:45:34.999Z</time></trkpt><trkpt lat="43.061686807533235" lon="10.562080167748293"><ele>29.0</ele><time>2026-04-06T10:45:35.999Z</time></trkpt><trkpt lat="43.06143827994002" lon="10.562183082639573"><ele>33.0</ele><time>2026-04-06T10:45:36.999Z</time></trkpt><trkpt lat="43.061193333512286" lon="10.562306938659853"><ele>33.0</ele><time>2026-04-06T10:45:37.999Z</time></trkpt><trkpt lat="43.060949381085635" lon="10.562439545889541"><ele>33.0</ele><time>2026-04-06T10:45:38.999Z</time></trkpt><trkpt lat="43.06070652638302" lon="10.56257982981271"><ele>33.0</ele><time>2026-04-06T10:45:39.999Z</time></trkpt><trkpt lat="43.060469978705775" lon="10.562720503034667"><ele>33.0</ele><time>2026-04-06T10:45:40.999Z</time></trkpt><trkpt lat="43.06023165275467" lon="10.562867638461544"><ele>33.0</ele><time>2026-04-06T10:45:41.999Z</time></trkpt><trkpt lat="43.05999571192896" lon="10.563018669806294"><ele>33.0</ele><time>2026-04-06T10:45:42.999Z</time></trkpt><trkpt lat="43.05976501383976" lon="10.563178292661153"><ele>33.5</ele><time>2026-04-06T10:45:43.999Z</time></trkpt><trkpt lat="43.0595340858744" lon="10.56334497730674"><ele>34.0</ele><time>2026-04-06T10:45:44.999Z</time></trkpt><trkpt lat="43.05930517893825" lon="10.56350499155341"><ele>34.0</ele><time>2026-04-06T10:45:45.999Z</time></trkpt><trkpt lat="43.05907653204743" lon="10.563671816340207"><ele>34.0</ele><time>2026-04-06T10:45:46.999Z</time></trkpt><trkpt lat="43.05885123811855" lon="10.563840695905276"><ele>34.0</ele><time>2026-04-06T10:45:47.999Z</time></trkpt><trkpt lat="43.058626738161145" lon="10.56401713232752"><ele>34.0</ele><time>2026-04-06T10:45:48.999Z</time></trkpt><trkpt lat="43.05839996496875" lon="10.56418665753405"><ele>34.0</ele><time>2026-04-06T10:45:49.999Z</time></trkpt><trkpt lat="43.05816883970382" lon="10.564355198837285"><ele>34.0</ele><time>2026-04-06T10:45:50.999Z</time></trkpt><trkpt lat="43.05793814842848" lon="10.564522416488744"><ele>34.5</ele><time>2026-04-06T10:45:51.999Z</time></trkpt><trkpt lat="43.05770857053419" lon="10.564690777907671"><ele>35.0</ele><time>2026-04-06T10:45:52.999Z</time></trkpt><trkpt lat="43.05747878398495" lon="10.564858144312357"><ele>36.0</ele><time>2026-04-06T10:45:53.999Z</time></trkpt><trkpt lat="43.057248797793626" lon="10.565034713610189"><ele>37.0</ele><time>2026-04-06T10:45:54.999Z</time></trkpt><trkpt lat="43.05702240298456" lon="10.565208531262872"><ele>37.0</ele><time>2026-04-06T10:45:55.999Z</time></trkpt><trkpt lat="43.056791089976336" lon="10.565383421756112"><ele>37.0</ele><time>2026-04-06T10:45:56.999Z</time></trkpt><trkpt lat="43.05655968571903" lon="10.565563521702023"><ele>37.0</ele><time>2026-04-06T10:45:57.999Z</time></trkpt><trkpt lat="43.05632840425929" lon="10.565729743252477"><ele>37.0</ele><time>2026-04-06T10:45:58.999Z</time></trkpt><trkpt lat="43.05609724698289" lon="10.565904784590268"><ele>37.0</ele><time>2026-04-06T10:45:59.999Z</time></trkpt><trkpt lat="43.055863603872986" lon="10.566075903916568"><ele>37.0</ele><time>2026-04-06T10:46:00.999Z</time></trkpt><trkpt lat="43.05563071986431" lon="10.566248400974146"><ele>38.0</ele><time>2026-04-06T10:46:01.999Z</time></trkpt><trkpt lat="43.055395927418196" lon="10.566409930266646"><ele>39.0</ele><time>2026-04-06T10:46:02.999Z</time></trkpt><trkpt lat="43.05515959817631" lon="10.566583782221132"><ele>36.5</ele><time>2026-04-06T10:46:03.999Z</time></trkpt><trkpt lat="43.054920375192964" lon="10.566742260220636"><ele>34.0</ele><time>2026-04-06T10:46:04.999Z</time></trkpt><trkpt lat="43.05467869860564" lon="10.566905708150868"><ele>35.0</ele><time>2026-04-06T10:46:05.999Z</time></trkpt><trkpt lat="43.054434555661516" lon="10.567061882836235"><ele>36.0</ele><time>2026-04-06T10:46:06.999Z</time></trkpt><trkpt lat="43.05418529558756" lon="10.567207678189025"><ele>34.0</ele><time>2026-04-06T10:46:07.999Z</time></trkpt><trkpt lat="43.05393244758495" lon="10.56734166167157"><ele>32.0</ele><time>2026-04-06T10:46:08.999Z</time></trkpt><trkpt lat="43.05367475996397" lon="10.567462446125937"><ele>32.0</ele><time>2026-04-06T10:46:09.999Z</time></trkpt><trkpt lat="43.053414730027896" lon="10.567578342371208"><ele>32.0</ele><time>2026-04-06T10:46:10.999Z</time></trkpt><trkpt lat="43.05315446614468" lon="10.56767866489972"><ele>31.5</ele><time>2026-04-06T10:46:11.999Z</time></trkpt><trkpt lat="43.052889262259285" lon="10.567771107508387"><ele>31.0</ele><time>2026-04-06T10:46:12.999Z</time></trkpt><trkpt lat="43.05262219238304" lon="10.567853011746879"><ele>30.0</ele><time>2026-04-06T10:46:13.999Z</time></trkpt><trkpt lat="43.052353515466784" lon="10.567916801234473"><ele>29.0</ele><time>2026-04-06T10:46:14.999Z</time></trkpt><trkpt lat="43.05208473345529" lon="10.567978502534125"><ele>29.0</ele><time>2026-04-06T10:46:15.999Z</time></trkpt><trkpt lat="43.05181385815631" lon="10.568027966994096"><ele>29.0</ele><time>2026-04-06T10:46:16.999Z</time></trkpt><trkpt lat="43.05154398622569" lon="10.5680639102041"><ele>29.0</ele><time>2026-04-06T10:46:17.999Z</time></trkpt><trkpt lat="43.05127165526894" lon="10.568080910149693"><ele>29.0</ele><time>2026-04-06T10:46:18.999Z</time></trkpt><trkpt lat="43.050997911702595" lon="10.568088216928698"><ele>28.0</ele><time>2026-04-06T10:46:19.999Z</time></trkpt><trkpt lat="43.05072593748" lon="10.568093903365789"><ele>27.0</ele><time>2026-04-06T10:46:20.999Z</time></trkpt><trkpt lat="43.05045344703261" lon="10.568090411400958"><ele>27.0</ele><time>2026-04-06T10:46:21.999Z</time></trkpt><trkpt lat="43.05018443926666" lon="10.568070209935362"><ele>27.0</ele><time>2026-04-06T10:46:22.999Z</time></trkpt><trkpt lat="43.04990371761232" lon="10.568050313950243"><ele>26.0</ele><time>2026-04-06T10:46:23.999Z</time></trkpt><trkpt lat="43.049635926123784" lon="10.568024781230234"><ele>25.0</ele><time>2026-04-06T10:46:24.999Z</time></trkpt><trkpt lat="43.04936916083597" lon="10.567993624971548"><ele>23.0</ele><time>2026-04-06T10:46:25.999Z</time></trkpt><trkpt lat="43.04910281573955" lon="10.567956653956653"><ele>21.0</ele><time>2026-04-06T10:46:26.999Z</time></trkpt><trkpt lat="43.048838191902114" lon="10.567925564668219"><ele>21.0</ele><time>2026-04-06T10:46:27.999Z</time></trkpt><trkpt lat="43.04857603452173" lon="10.567892758418676"><ele>21.0</ele><time>2026-04-06T10:46:28.999Z</time></trkpt><trkpt lat="43.04832650168148" lon="10.567858047891528"><ele>19.5</ele><time>2026-04-06T10:46:29.999Z</time></trkpt><trkpt lat="43.048096087192036" lon="10.567832069394756"><ele>18.0</ele><time>2026-04-06T10:46:30.999Z</time></trkpt><trkpt lat="43.04787118508434" lon="10.567803269192952"><ele>18.0</ele><time>2026-04-06T10:46:31.999Z</time></trkpt><trkpt lat="43.04765616341858" lon="10.567769546775938"><ele>18.0</ele><time>2026-04-06T10:46:32.999Z</time></trkpt><trkpt lat="43.04744735064339" lon="10.567723726580327"><ele>18.0</ele><time>2026-04-06T10:46:33.999Z</time></trkpt><trkpt lat="43.04724187257387" lon="10.567710941312868"><ele>17.333333333333332</ele><time>2026-04-06T10:46:34.999Z</time></trkpt><trkpt lat="43.04702696428817" lon="10.567683574522203"><ele>16.666666666666664</ele><time>2026-04-06T10:46:35.999Z</time></trkpt><trkpt lat="43.046809084948094" lon="10.567659053191331"><ele>16.0</ele><time>2026-04-06T10:46:36.999Z</time></trkpt><trkpt lat="43.04658597247261" lon="10.56763113133194"><ele>15.5</ele><time>2026-04-06T10:46:38Z</time></trkpt><trkpt lat="43.04636186616367" lon="10.567608583222507"><ele>15.0</ele><time>2026-04-06T10:46:39Z</time></trkpt><trkpt lat="43.046131547894625" lon="10.56758571347445"><ele>15.0</ele><time>2026-04-06T10:46:40Z</time></trkpt><trkpt lat="43.045902731893406" lon="10.567555020359826"><ele>15.0</ele><time>2026-04-06T10:46:41Z</time></trkpt><trkpt lat="43.04566636236092" lon="10.567530405345066"><ele>14.0</ele><time>2026-04-06T10:46:42Z</time></trkpt><trkpt lat="43.04542601758199" lon="10.56751197114796"><ele>13.0</ele><time>2026-04-06T10:46:43Z</time></trkpt><trkpt lat="43.0451798503373" lon="10.567503071076485"><ele>13.5</ele><time>2026-04-06T10:46:44Z</time></trkpt><trkpt lat="43.04493746985202" lon="10.567498694002389"><ele>14.0</ele><time>2026-04-06T10:46:45Z</time></trkpt><trkpt lat="43.0446828065719" lon="10.567484821965815"><ele>14.0</ele><time>2026-04-06T10:46:46Z</time></trkpt><trkpt lat="43.04442193360036" lon="10.567467251000018"><ele>14.0</ele><time>2026-04-06T10:46:47Z</time></trkpt><trkpt lat="43.04415804419285" lon="10.56744525428096"><ele>13.0</ele><time>2026-04-06T10:46:48Z</time></trkpt><trkpt lat="43.043897835511984" lon="10.567430357193341"><ele>12.0</ele><time>2026-04-06T10:46:49Z</time></trkpt><trkpt lat="43.04362827250898" lon="10.56741662498683"><ele>12.0</ele><time>2026-04-06T10:46:50Z</time></trkpt><trkpt lat="43.04336321142212" lon="10.567402051297018"><ele>12.0</ele><time>2026-04-06T10:46:51Z</time></trkpt><trkpt lat="43.043087488855896" lon="10.5673838968511"><ele>11.5</ele><time>2026-04-06T10:46:52Z</time></trkpt><trkpt lat="43.042814364458955" lon="10.567364161494652"><ele>11.0</ele><time>2026-04-06T10:46:53Z</time></trkpt><trkpt lat="43.04253785771888" lon="10.567350985887614"><ele>11.5</ele><time>2026-04-06T10:46:54Z</time></trkpt><trkpt lat="43.042254342474884" lon="10.567344988841363"><ele>12.0</ele><time>2026-04-06T10:46:55Z</time></trkpt><trkpt lat="43.041971464493464" lon="10.567350245355648"><ele>12.0</ele><time>2026-04-06T10:46:56Z</time></trkpt><trkpt lat="43.04169247420452" lon="10.567360747308875"><ele>12.0</ele><time>2026-04-06T10:46:57Z</time></trkpt><trkpt lat="43.041410986901475" lon="10.56737171181241"><ele>12.0</ele><time>2026-04-06T10:46:58Z</time></trkpt><trkpt lat="43.04113322365817" lon="10.56737933641092"><ele>12.0</ele><time>2026-04-06T10:46:59Z</time></trkpt><trkpt lat="43.04085013835466" lon="10.567376261062467"><ele>12.5</ele><time>2026-04-06T10:47:00Z</time></trkpt><trkpt lat="43.04056415053374" lon="10.567391524065236"><ele>13.0</ele><time>2026-04-06T10:47:01Z</time></trkpt><trkpt lat="43.0402808342119" lon="10.56740762071111"><ele>13.0</ele><time>2026-04-06T10:47:02Z</time></trkpt><trkpt lat="43.03999750223933" lon="10.56742712444657"><ele>13.0</ele><time>2026-04-06T10:47:03Z</time></trkpt><trkpt lat="43.03971637329046" lon="10.567442194635285"><ele>13.0</ele><time>2026-04-06T10:47:04Z</time></trkpt><trkpt lat="43.039434789434864" lon="10.567459839798094"><ele>13.0</ele><time>2026-04-06T10:47:05Z</time></trkpt><trkpt lat="43.03915617892007" lon="10.567475549916782"><ele>12.5</ele><time>2026-04-06T10:47:06Z</time></trkpt><trkpt lat="43.03887520127527" lon="10.567496429058497"><ele>12.0</ele><time>2026-04-06T10:47:07Z</time></trkpt><trkpt lat="43.03859853565661" lon="10.567513462214528"><ele>12.0</ele><time>2026-04-06T10:47:08Z</time></trkpt><trkpt lat="43.03832071225447" lon="10.567526463071994"><ele>12.0</ele><time>2026-04-06T10:47:09Z</time></trkpt><trkpt lat="43.03804242250602" lon="10.567546934158875"><ele>11.0</ele><time>2026-04-06T10:47:10Z</time></trkpt><trkpt lat="43.03776718551726" lon="10.567568021527869"><ele>10.0</ele><time>2026-04-06T10:47:11Z</time></trkpt><trkpt lat="43.03749121824976" lon="10.567589181853897"><ele>9.5</ele><time>2026-04-06T10:47:12Z</time></trkpt><trkpt lat="43.03721531368938" lon="10.56761240420106"><ele>9.0</ele><time>2026-04-06T10:47:13Z</time></trkpt><trkpt lat="43.0369394730358" lon="10.567640064980438"><ele>9.0</ele><time>2026-04-06T10:47:14Z</time></trkpt><trkpt lat="43.03666881684745" lon="10.567667601382182"><ele>9.0</ele><time>2026-04-06T10:47:15Z</time></trkpt><trkpt lat="43.03639793639585" lon="10.567702143561373"><ele>9.0</ele><time>2026-04-06T10:47:16Z</time></trkpt><trkpt lat="43.03612272298458" lon="10.567736467214173"><ele>9.0</ele><time>2026-04-06T10:47:17Z</time></trkpt><trkpt lat="43.03585341951445" lon="10.567785272522652"><ele>10.0</ele><time>2026-04-06T10:47:18Z</time></trkpt><trkpt lat="43.03557867415163" lon="10.567840418925401"><ele>11.0</ele><time>2026-04-06T10:47:19Z</time></trkpt><trkpt lat="43.035307886894685" lon="10.567895118427396"><ele>11.0</ele><time>2026-04-06T10:47:20Z</time></trkpt><trkpt lat="43.03503499071553" lon="10.567950168221092"><ele>11.0</ele><time>2026-04-06T10:47:21Z</time></trkpt><trkpt lat="43.03475708991096" lon="10.568018198386188"><ele>10.0</ele><time>2026-04-06T10:47:22Z</time></trkpt><trkpt lat="43.03447895595884" lon="10.56808955883121"><ele>9.0</ele><time>2026-04-06T10:47:23Z</time></trkpt><trkpt lat="43.03421050868821" lon="10.568169002187528"><ele>9.0</ele><time>2026-04-06T10:47:24Z</time></trkpt><trkpt lat="43.033937018467974" lon="10.568260904038038"><ele>9.0</ele><time>2026-04-06T10:47:24.999Z</time></trkpt><trkpt lat="43.033664762583086" lon="10.568355117550574"><ele>9.0</ele><time>2026-04-06T10:47:25.999Z</time></trkpt><trkpt lat="43.033395391168035" lon="10.568455199483527"><ele>9.0</ele><time>2026-04-06T10:47:26.999Z</time></trkpt><trkpt lat="43.0331236211373" lon="10.568568250273914"><ele>9.0</ele><time>2026-04-06T10:47:27.999Z</time></trkpt><trkpt lat="43.032852343062906" lon="10.568689592142038"><ele>9.0</ele><time>2026-04-06T10:47:28.999Z</time></trkpt><trkpt lat="43.03258385048581" lon="10.568819084457365"><ele>9.0</ele><time>2026-04-06T10:47:29.999Z</time></trkpt><trkpt lat="43.032315855276224" lon="10.56895493026621"><ele>9.0</ele><time>2026-04-06T10:47:30.999Z</time></trkpt><trkpt lat="43.03204989211472" lon="10.569098444183693"><ele>9.0</ele><time>2026-04-06T10:47:31.999Z</time></trkpt><trkpt lat="43.03178547445674" lon="10.56924765442453"><ele>9.0</ele><time>2026-04-06T10:47:32.999Z</time></trkpt><trkpt lat="43.031524952520776" lon="10.569403796957895"><ele>9.0</ele><time>2026-04-06T10:47:33.999Z</time></trkpt><trkpt lat="43.03126560841433" lon="10.569569782187719"><ele>9.0</ele><time>2026-04-06T10:47:34.999Z</time></trkpt><trkpt lat="43.031008717368145" lon="10.56974118986361"><ele>8.5</ele><time>2026-04-06T10:47:35.999Z</time></trkpt><trkpt lat="43.03075773195185" lon="10.56991765472149"><ele>8.0</ele><time>2026-04-06T10:47:36.999Z</time></trkpt><trkpt lat="43.03050789971297" lon="10.570103116044384"><ele>8.0</ele><time>2026-04-06T10:47:37.999Z</time></trkpt><trkpt lat="43.03026092986806" lon="10.570301327012437"><ele>8.0</ele><time>2026-04-06T10:47:38.999Z</time></trkpt><trkpt lat="43.0300180858333" lon="10.570506369830104"><ele>7.5</ele><time>2026-04-06T10:47:39.999Z</time></trkpt><trkpt lat="43.02978199507673" lon="10.570720337785593"><ele>7.0</ele><time>2026-04-06T10:47:40.999Z</time></trkpt><trkpt lat="43.029545446589566" lon="10.570936944132756"><ele>7.0</ele><time>2026-04-06T10:47:41.999Z</time></trkpt><trkpt lat="43.02931413714688" lon="10.571159433605686"><ele>7.0</ele><time>2026-04-06T10:47:42.999Z</time></trkpt><trkpt lat="43.029084080613984" lon="10.571386820126131"><ele>7.5</ele><time>2026-04-06T10:47:43.999Z</time></trkpt><trkpt lat="43.028858996861686" lon="10.571617213938987"><ele>8.0</ele><time>2026-04-06T10:47:44.999Z</time></trkpt><trkpt lat="43.02863803948507" lon="10.571857513227725"><ele>8.0</ele><time>2026-04-06T10:47:45.999Z</time></trkpt><trkpt lat="43.02842083292784" lon="10.572108761230242"><ele>8.0</ele><time>2026-04-06T10:47:46.999Z</time></trkpt><trkpt lat="43.02821049244322" lon="10.572356286184682"><ele>8.0</ele><time>2026-04-06T10:47:47.999Z</time></trkpt><trkpt lat="43.028001639222616" lon="10.572617063064824"><ele>8.0</ele><time>2026-04-06T10:47:48.999Z</time></trkpt><trkpt lat="43.027794068432655" lon="10.572878380095418"><ele>8.5</ele><time>2026-04-06T10:47:49.999Z</time></trkpt><trkpt lat="43.02759821863123" lon="10.573150765184234"><ele>9.0</ele><time>2026-04-06T10:47:50.999Z</time></trkpt><trkpt lat="43.02740212166803" lon="10.57342554003547"><ele>9.0</ele><time>2026-04-06T10:47:51.999Z</time></trkpt><trkpt lat="43.02721068954321" lon="10.573708152913934"><ele>9.0</ele><time>2026-04-06T10:47:52.999Z</time></trkpt><trkpt lat="43.02702313886165" lon="10.573994057093564"><ele>9.0</ele><time>2026-04-06T10:47:53.999Z</time></trkpt><trkpt lat="43.02683661095739" lon="10.574285510784843"><ele>9.0</ele><time>2026-04-06T10:47:54.999Z</time></trkpt><trkpt lat="43.026661089875525" lon="10.574571644712442"><ele>9.0</ele><time>2026-04-06T10:47:55.999Z</time></trkpt><trkpt lat="43.02648576137605" lon="10.574869535182378"><ele>9.0</ele><time>2026-04-06T10:47:56.999Z</time></trkpt><trkpt lat="43.02631488304452" lon="10.575171339302019"><ele>9.0</ele><time>2026-04-06T10:47:57.999Z</time></trkpt><trkpt lat="43.02614483506091" lon="10.57547157020126"><ele>9.0</ele><time>2026-04-06T10:47:58.999Z</time></trkpt><trkpt lat="43.02597733858962" lon="10.575771258513273"><ele>9.5</ele><time>2026-04-06T10:47:59.999Z</time></trkpt><trkpt lat="43.02580891005792" lon="10.576078252835172"><ele>10.0</ele><time>2026-04-06T10:48:00.999Z</time></trkpt><trkpt lat="43.02564726965888" lon="10.576387652433041"><ele>10.0</ele><time>2026-04-06T10:48:01.999Z</time></trkpt><trkpt lat="43.02548645497498" lon="10.576701117719395"><ele>10.0</ele><time>2026-04-06T10:48:02.999Z</time></trkpt><trkpt lat="43.025328678880896" lon="10.577014381304545"><ele>10.0</ele><time>2026-04-06T10:48:03.999Z</time></trkpt><trkpt lat="43.02517308971102" lon="10.577328374427491"><ele>10.0</ele><time>2026-04-06T10:48:04.999Z</time></trkpt><trkpt lat="43.02501881439025" lon="10.577642377915916"><ele>9.5</ele><time>2026-04-06T10:48:05.999Z</time></trkpt><trkpt lat="43.02486336021581" lon="10.577958304802836"><ele>9.0</ele><time>2026-04-06T10:48:06.999Z</time></trkpt><trkpt lat="43.024704671697464" lon="10.578273220112377"><ele>9.0</ele><time>2026-04-06T10:48:07.999Z</time></trkpt><trkpt lat="43.02455055706968" lon="10.578583579133294"><ele>9.0</ele><time>2026-04-06T10:48:08.999Z</time></trkpt><trkpt lat="43.02439800691589" lon="10.578898919131268"><ele>8.0</ele><time>2026-04-06T10:48:09.999Z</time></trkpt><trkpt lat="43.02424858812365" lon="10.579208335345545"><ele>7.0</ele><time>2026-04-06T10:48:10.999Z</time></trkpt><trkpt lat="43.02409177234064" lon="10.579529015018998"><ele>7.0</ele><time>2026-04-06T10:48:11.999Z</time></trkpt><trkpt lat="43.02393427103543" lon="10.57984641779423"><ele>7.0</ele><time>2026-04-06T10:48:12.999Z</time></trkpt><trkpt lat="43.023785143315045" lon="10.580151757611453"><ele>7.0</ele><time>2026-04-06T10:48:13.999Z</time></trkpt><trkpt lat="43.023632873033435" lon="10.580459818658666"><ele>7.0</ele><time>2026-04-06T10:48:14.999Z</time></trkpt><trkpt lat="43.02347861423144" lon="10.580772365019408"><ele>7.0</ele><time>2026-04-06T10:48:15.999Z</time></trkpt><trkpt lat="43.02332544383561" lon="10.581082224222737"><ele>7.0</ele><time>2026-04-06T10:48:16.999Z</time></trkpt><trkpt lat="43.02317054838387" lon="10.581396528214492"><ele>6.0</ele><time>2026-04-06T10:48:17.999Z</time></trkpt><trkpt lat="43.02301698652757" lon="10.581707283125606"><ele>5.0</ele><time>2026-04-06T10:48:18.999Z</time></trkpt><trkpt lat="43.022858342570835" lon="10.582021758878781"><ele>5.0</ele><time>2026-04-06T10:48:19.999Z</time></trkpt><trkpt lat="43.02270422737645" lon="10.5823354189638"><ele>5.0</ele><time>2026-04-06T10:48:20.999Z</time></trkpt><trkpt lat="43.02255108637297" lon="10.582650828017439"><ele>4.5</ele><time>2026-04-06T10:48:21.999Z</time></trkpt><trkpt lat="43.022396119671726" lon="10.582968552537588"><ele>4.0</ele><time>2026-04-06T10:48:22.999Z</time></trkpt><trkpt lat="43.0222410303303" lon="10.583289324941722"><ele>4.0</ele><time>2026-04-06T10:48:23.999Z</time></trkpt><trkpt lat="43.02209106916415" lon="10.583600311269898"><ele>4.0</ele><time>2026-04-06T10:48:24.999Z</time></trkpt><trkpt lat="43.02193340998197" lon="10.583922197816417"><ele>5.0</ele><time>2026-04-06T10:48:25.999Z</time></trkpt><trkpt lat="43.021775863853776" lon="10.584241295481625"><ele>6.0</ele><time>2026-04-06T10:48:26.999Z</time></trkpt><trkpt lat="43.0216158539534" lon="10.584565409876861"><ele>6.0</ele><time>2026-04-06T10:48:27.999Z</time></trkpt><trkpt lat="43.02145558757985" lon="10.584889977415221"><ele>6.0</ele><time>2026-04-06T10:48:28.999Z</time></trkpt><trkpt lat="43.02129766193106" lon="10.585209500538227"><ele>5.5</ele><time>2026-04-06T10:48:29.999Z</time></trkpt><trkpt lat="43.02113869480064" lon="10.585531189719475"><ele>5.0</ele><time>2026-04-06T10:48:30.999Z</time></trkpt><trkpt lat="43.02098331640093" lon="10.585845193230274"><ele>5.0</ele><time>2026-04-06T10:48:31.999Z</time></trkpt><trkpt lat="43.0208198542898" lon="10.586162552432945"><ele>5.0</ele><time>2026-04-06T10:48:32.999Z</time></trkpt><trkpt lat="43.02065294627192" lon="10.586475779668312"><ele>5.0</ele><time>2026-04-06T10:48:33.999Z</time></trkpt><trkpt lat="43.02048181004585" lon="10.586784914522411"><ele>5.0</ele><time>2026-04-06T10:48:34.999Z</time></trkpt><trkpt lat="43.02031067314371" lon="10.587089751021288"><ele>4.5</ele><time>2026-04-06T10:48:35.999Z</time></trkpt><trkpt lat="43.02013726528331" lon="10.587392643629647"><ele>4.0</ele><time>2026-04-06T10:48:36.999Z</time></trkpt><trkpt lat="43.01996245616086" lon="10.587693283312298"><ele>5.0</ele><time>2026-04-06T10:48:37.999Z</time></trkpt><trkpt lat="43.0197878809608" lon="10.58799161647928"><ele>6.0</ele><time>2026-04-06T10:48:38.999Z</time></trkpt><trkpt lat="43.01960841166491" lon="10.588298011639244"><ele>6.0</ele><time>2026-04-06T10:48:39.999Z</time></trkpt><trkpt lat="43.01942675829009" lon="10.588598599334082"><ele>6.0</ele><time>2026-04-06T10:48:40.999Z</time></trkpt><trkpt lat="43.019242858617424" lon="10.588889172174591"><ele>5.0</ele><time>2026-04-06T10:48:41.999Z</time></trkpt><trkpt lat="43.01904964279927" lon="10.589184236526947"><ele>4.0</ele><time>2026-04-06T10:48:42.999Z</time></trkpt><trkpt lat="43.01886006201736" lon="10.589472627102092"><ele>5.0</ele><time>2026-04-06T10:48:44Z</time></trkpt><trkpt lat="43.018668677854514" lon="10.589762110825989"><ele>6.0</ele><time>2026-04-06T10:48:45Z</time></trkpt><trkpt lat="43.01847285143649" lon="10.590053175636681"><ele>6.0</ele><time>2026-04-06T10:48:46Z</time></trkpt><trkpt lat="43.01827955702954" lon="10.590334566735894"><ele>6.0</ele><time>2026-04-06T10:48:47Z</time></trkpt><trkpt lat="43.01807689363017" lon="10.590622267625625"><ele>6.0</ele><time>2026-04-06T10:48:48Z</time></trkpt><trkpt lat="43.01788313227236" lon="10.590897239657421"><ele>6.0</ele><time>2026-04-06T10:48:49Z</time></trkpt><trkpt lat="43.017682771955684" lon="10.591186651434864"><ele>6.0</ele><time>2026-04-06T10:48:50Z</time></trkpt><trkpt lat="43.01748895475832" lon="10.591472424466108"><ele>6.0</ele><time>2026-04-06T10:48:51Z</time></trkpt><trkpt lat="43.01729275099452" lon="10.591758254161013"><ele>5.5</ele><time>2026-04-06T10:48:52Z</time></trkpt><trkpt lat="43.01709454218732" lon="10.592040100455538"><ele>5.0</ele><time>2026-04-06T10:48:53Z</time></trkpt><trkpt lat="43.016904741403266" lon="10.592316886204104"><ele>5.0</ele><time>2026-04-06T10:48:54Z</time></trkpt><trkpt lat="43.01671022868209" lon="10.592594223274535"><ele>5.0</ele><time>2026-04-06T10:48:55Z</time></trkpt><trkpt lat="43.01651730895806" lon="10.592870662090137"><ele>6.0</ele><time>2026-04-06T10:48:56Z</time></trkpt><trkpt lat="43.01632897242904" lon="10.59314661440718"><ele>7.0</ele><time>2026-04-06T10:48:57Z</time></trkpt><trkpt lat="43.01613486226223" lon="10.593424558106243"><ele>8.0</ele><time>2026-04-06T10:48:58Z</time></trkpt><trkpt lat="43.015943203963985" lon="10.593701644057301"><ele>9.0</ele><time>2026-04-06T10:48:59Z</time></trkpt><trkpt lat="43.01575529961241" lon="10.59397662126507"><ele>9.0</ele><time>2026-04-06T10:49:00Z</time></trkpt><trkpt lat="43.01557084432545" lon="10.594247316826245"><ele>9.0</ele><time>2026-04-06T10:49:01Z</time></trkpt><trkpt lat="43.015378100307885" lon="10.594516086651135"><ele>9.0</ele><time>2026-04-06T10:49:02Z</time></trkpt><trkpt lat="43.01518850938484" lon="10.594784808230944"><ele>9.0</ele><time>2026-04-06T10:49:03Z</time></trkpt><trkpt lat="43.014998337040176" lon="10.595052568301291"><ele>9.0</ele><time>2026-04-06T10:49:04Z</time></trkpt><trkpt lat="43.01480757094889" lon="10.595304849591443"><ele>9.0</ele><time>2026-04-06T10:49:05Z</time></trkpt><trkpt lat="43.0146332937385" lon="10.59554313599253"><ele>8.5</ele><time>2026-04-06T10:49:06Z</time></trkpt><trkpt lat="43.01447120489926" lon="10.595775815947691"><ele>8.0</ele><time>2026-04-06T10:49:07Z</time></trkpt><trkpt lat="43.014322676225355" lon="10.595988512020915"><ele>8.666666666666666</ele><time>2026-04-06T10:49:08Z</time></trkpt><trkpt lat="43.014185328922345" lon="10.596192878466484"><ele>9.333333333333334</ele><time>2026-04-06T10:49:09Z</time></trkpt><trkpt lat="43.014049826696755" lon="10.596385057489465"><ele>10.0</ele><time>2026-04-06T10:49:10Z</time></trkpt><trkpt lat="43.01390745220259" lon="10.596554743734272"><ele>10.0</ele><time>2026-04-06T10:49:11Z</time></trkpt><trkpt lat="43.01374858655553" lon="10.5966970939613"><ele>10.0</ele><time>2026-04-06T10:49:12Z</time></trkpt><trkpt lat="43.01356689172563" lon="10.596786980919052"><ele>10.0</ele><time>2026-04-06T10:49:13Z</time></trkpt><trkpt lat="43.013371972723334" lon="10.596814924341981"><ele>9.333333333333334</ele><time>2026-04-06T10:49:14Z</time></trkpt><trkpt lat="43.01317727969724" lon="10.596805280318534"><ele>8.666666666666666</ele><time>2026-04-06T10:49:15Z</time></trkpt><trkpt lat="43.01298737829509" lon="10.596762547800699"><ele>8.0</ele><time>2026-04-06T10:49:16Z</time></trkpt><trkpt lat="43.01280614344352" lon="10.596704605685451"><ele>8.0</ele><time>2026-04-06T10:49:17Z</time></trkpt><trkpt lat="43.01261441952058" lon="10.596659822670498"><ele>8.0</ele><time>2026-04-06T10:49:18Z</time></trkpt><trkpt lat="43.01243670372639" lon="10.596659213419207"><ele>8.0</ele><time>2026-04-06T10:49:19Z</time></trkpt><trkpt lat="43.012270097853694" lon="10.596714544865547"><ele>8.0</ele><time>2026-04-06T10:49:20Z</time></trkpt><trkpt lat="43.012126085546775" lon="10.596824307889158"><ele>8.0</ele><time>2026-04-06T10:49:21Z</time></trkpt><trkpt lat="43.012008487638724" lon="10.59697795747824"><ele>8.0</ele><time>2026-04-06T10:49:22Z</time></trkpt><trkpt lat="43.01192164085597" lon="10.597138098166486"><ele>8.0</ele><time>2026-04-06T10:49:23Z</time></trkpt><trkpt lat="43.01186351374143" lon="10.597314083237539"><ele>8.0</ele><time>2026-04-06T10:49:24Z</time></trkpt><trkpt lat="43.01182667234065" lon="10.597501203677465"><ele>8.0</ele><time>2026-04-06T10:49:25Z</time></trkpt><trkpt lat="43.01182229388527" lon="10.597692086254066"><ele>8.0</ele><time>2026-04-06T10:49:26Z</time></trkpt><trkpt lat="43.011857730591956" lon="10.597878650483375"><ele>8.666666666666666</ele><time>2026-04-06T10:49:27Z</time></trkpt><trkpt lat="43.01193562966447" lon="10.5980507834918"><ele>9.333333333333334</ele><time>2026-04-06T10:49:28Z</time></trkpt><trkpt lat="43.01203828768319" lon="10.598205721756932"><ele>10.0</ele><time>2026-04-06T10:49:29Z</time></trkpt><trkpt lat="43.01215595605387" lon="10.598349597972385"><ele>10.0</ele><time>2026-04-06T10:49:30Z</time></trkpt><trkpt lat="43.01227277362841" lon="10.598491541929196"><ele>10.0</ele><time>2026-04-06T10:49:31Z</time></trkpt><trkpt lat="43.012385508133455" lon="10.598637522130092"><ele>10.0</ele><time>2026-04-06T10:49:32Z</time></trkpt><trkpt lat="43.0125016994612" lon="10.598796912176214"><ele>10.333333333333334</ele><time>2026-04-06T10:49:33Z</time></trkpt><trkpt lat="43.012623478737225" lon="10.598951370081412"><ele>10.666666666666666</ele><time>2026-04-06T10:49:34Z</time></trkpt><trkpt lat="43.012759459771495" lon="10.599084369663506"><ele>11.0</ele><time>2026-04-06T10:49:35Z</time></trkpt><trkpt lat="43.01289151896528" lon="10.599228247077578"><ele>11.0</ele><time>2026-04-06T10:49:36Z</time></trkpt><trkpt lat="43.01303076065467" lon="10.599365541766465"><ele>11.0</ele><time>2026-04-06T10:49:37Z</time></trkpt><trkpt lat="43.013167969525696" lon="10.599498470344274"><ele>11.0</ele><time>2026-04-06T10:49:38Z</time></trkpt><trkpt lat="43.01331049180244" lon="10.599628647673997"><ele>9.666666666666666</ele><time>2026-04-06T10:49:39Z</time></trkpt><trkpt lat="43.013455779689586" lon="10.599761737515733"><ele>8.333333333333334</ele><time>2026-04-06T10:49:40Z</time></trkpt><trkpt lat="43.0136039253" lon="10.5998889100006"><ele>7.0</ele><time>2026-04-06T10:49:41Z</time></trkpt><trkpt lat="43.013756980534055" lon="10.60000573438289"><ele>7.0</ele><time>2026-04-06T10:49:42Z</time></trkpt><trkpt lat="43.01391892087649" lon="10.600111527282884"><ele>7.0</ele><time>2026-04-06T10:49:43Z</time></trkpt><trkpt lat="43.01408141995253" lon="10.600192958429597"><ele>7.0</ele><time>2026-04-06T10:49:44Z</time></trkpt><trkpt lat="43.01425253825243" lon="10.600261330139878"><ele>7.0</ele><time>2026-04-06T10:49:44.999Z</time></trkpt><trkpt lat="43.014427938359674" lon="10.600304605200984"><ele>7.0</ele><time>2026-04-06T10:49:45.999Z</time></trkpt><trkpt lat="43.014605039496786" lon="10.600323683383834"><ele>7.0</ele><time>2026-04-06T10:49:46.999Z</time></trkpt><trkpt lat="43.014785730047855" lon="10.600316416403157"><ele>7.0</ele><time>2026-04-06T10:49:47.999Z</time></trkpt><trkpt lat="43.014960308831384" lon="10.600280830061935"><ele>7.0</ele><time>2026-04-06T10:49:48.999Z</time></trkpt><trkpt lat="43.015129229110364" lon="10.600222067449321"><ele>7.0</ele><time>2026-04-06T10:49:49.999Z</time></trkpt><trkpt lat="43.015291454058854" lon="10.600147372680526"><ele>7.0</ele><time>2026-04-06T10:49:50.999Z</time></trkpt><trkpt lat="43.01544724022199" lon="10.600056219089646"><ele>7.0</ele><time>2026-04-06T10:49:51.999Z</time></trkpt><trkpt lat="43.01559962392366" lon="10.599946691284222"><ele>7.0</ele><time>2026-04-06T10:49:52.999Z</time></trkpt><trkpt lat="43.01573510614153" lon="10.599834044895635"><ele>7.5</ele><time>2026-04-06T10:49:53.999Z</time></trkpt><trkpt lat="43.01585190712142" lon="10.599722637170466"><ele>8.0</ele><time>2026-04-06T10:49:54.999Z</time></trkpt><trkpt lat="43.01596370500082" lon="10.599620933918345"><ele>8.5</ele><time>2026-04-06T10:49:55.999Z</time></trkpt><trkpt lat="43.01607484288304" lon="10.599546315500168"><ele>9.0</ele><time>2026-04-06T10:49:56.999Z</time></trkpt><trkpt lat="43.016178958115276" lon="10.599515879995048"><ele>9.0</ele><time>2026-04-06T10:49:57.999Z</time></trkpt><trkpt lat="43.016274249499496" lon="10.599512405540258"><ele>9.0</ele><time>2026-04-06T10:49:58.999Z</time></trkpt><trkpt lat="43.016364472029586" lon="10.599524909661634"><ele>9.0</ele><time>2026-04-06T10:49:59.999Z</time></trkpt><trkpt lat="43.01645171606933" lon="10.599547896035054"><ele>9.0</ele><time>2026-04-06T10:50:00.999Z</time></trkpt><trkpt lat="43.016550603291826" lon="10.599587001465844"><ele>9.0</ele><time>2026-04-06T10:50:01.999Z</time></trkpt><trkpt lat="43.016652512398814" lon="10.599626648541554"><ele>8.8</ele><time>2026-04-06T10:50:02.999Z</time></trkpt><trkpt lat="43.01676260604438" lon="10.59965542653797"><ele>8.600000000000001</ele><time>2026-04-06T10:50:03.999Z</time></trkpt><trkpt lat="43.01687248144772" lon="10.599657909262866"><ele>8.4</ele><time>2026-04-06T10:50:04.999Z</time></trkpt><trkpt lat="43.01697252310393" lon="10.59963288258948"><ele>8.200000000000001</ele><time>2026-04-06T10:50:05.999Z</time></trkpt><trkpt lat="43.01706241717145" lon="10.599587519627041"><ele>8.0</ele><time>2026-04-06T10:50:06.999Z</time></trkpt><trkpt lat="43.01714440101102" lon="10.599529294840414"><ele>8.333333333333332</ele><time>2026-04-06T10:50:07.999Z</time></trkpt><trkpt lat="43.01720825628351" lon="10.599452992006537"><ele>8.666666666666666</ele><time>2026-04-06T10:50:08.999Z</time></trkpt><trkpt lat="43.01725922309193" lon="10.599359101946717"><ele>9.0</ele><time>2026-04-06T10:50:09.999Z</time></trkpt><trkpt lat="43.0172951878146" lon="10.599247727353964"><ele>9.333333333333334</ele><time>2026-04-06T10:50:10.999Z</time></trkpt><trkpt lat="43.01731939418065" lon="10.599137039842374"><ele>9.666666666666668</ele><time>2026-04-06T10:50:11.999Z</time></trkpt><trkpt lat="43.01733321691269" lon="10.59900660275152"><ele>10.0</ele><time>2026-04-06T10:50:12.999Z</time></trkpt><trkpt lat="43.0173188549648" lon="10.598856753041154"><ele>10.0</ele><time>2026-04-06T10:50:13.999Z</time></trkpt><trkpt lat="43.01728664882927" lon="10.598707330839016"><ele>10.0</ele><time>2026-04-06T10:50:14.999Z</time></trkpt><trkpt lat="43.01722497747666" lon="10.598571465157486"><ele>10.0</ele><time>2026-04-06T10:50:15.999Z</time></trkpt><trkpt lat="43.01714301244587" lon="10.598444442858936"><ele>10.0</ele><time>2026-04-06T10:50:16.999Z</time></trkpt><trkpt lat="43.017047456876135" lon="10.598332407324216"><ele>10.5</ele><time>2026-04-06T10:50:17.999Z</time></trkpt><trkpt lat="43.016936200430465" lon="10.598224386126637"><ele>11.0</ele><time>2026-04-06T10:50:18.999Z</time></trkpt><trkpt lat="43.01681186786675" lon="10.598132558937948"><ele>11.5</ele><time>2026-04-06T10:50:19.999Z</time></trkpt><trkpt lat="43.01667806614273" lon="10.59806052923413"><ele>12.0</ele><time>2026-04-06T10:50:20.999Z</time></trkpt><trkpt lat="43.01653937802851" lon="10.598016245673268"><ele>12.333333333333332</ele><time>2026-04-06T10:50:21.999Z</time></trkpt><trkpt lat="43.01638202623229" lon="10.597974463037357"><ele>12.666666666666666</ele><time>2026-04-06T10:50:22.999Z</time></trkpt><trkpt lat="43.016221076118185" lon="10.597897121282868"><ele>13.0</ele><time>2026-04-06T10:50:23.999Z</time></trkpt><trkpt lat="43.01604527531278" lon="10.59782547590472"><ele>13.333333333333332</ele><time>2026-04-06T10:50:24.999Z</time></trkpt><trkpt lat="43.01585790938121" lon="10.597756380523103"><ele>13.666666666666668</ele><time>2026-04-06T10:50:25.999Z</time></trkpt><trkpt lat="43.01566822297149" lon="10.597700447976079"><ele>14.0</ele><time>2026-04-06T10:50:26.999Z</time></trkpt><trkpt lat="43.015471801119574" lon="10.597595670260194"><ele>14.0</ele><time>2026-04-06T10:50:27.999Z</time></trkpt><trkpt lat="43.015278351474045" lon="10.597474669227067"><ele>14.0</ele><time>2026-04-06T10:50:28.999Z</time></trkpt><trkpt lat="43.015081492720725" lon="10.597339345255827"><ele>14.0</ele><time>2026-04-06T10:50:29.999Z</time></trkpt><trkpt lat="43.01487172759594" lon="10.597192091321723"><ele>13.0</ele><time>2026-04-06T10:50:30.999Z</time></trkpt><trkpt lat="43.01471775556316" lon="10.597047223797988"><ele>12.0</ele><time>2026-04-06T10:50:31.999Z</time></trkpt><trkpt lat="43.014571866612904" lon="10.596882747761446"><ele>11.0</ele><time>2026-04-06T10:50:32.999Z</time></trkpt><trkpt lat="43.014371031335024" lon="10.596711534191027"><ele>10.5</ele><time>2026-04-06T10:50:33.999Z</time></trkpt><trkpt lat="43.01414203691408" lon="10.596562844556422"><ele>10.0</ele><time>2026-04-06T10:50:34.999Z</time></trkpt><trkpt lat="43.01391998916502" lon="10.59638152351481"><ele>10.0</ele><time>2026-04-06T10:50:35.999Z</time></trkpt><trkpt lat="43.01374383907318" lon="10.596212972347946"><ele>10.0</ele><time>2026-04-06T10:50:36.999Z</time></trkpt><trkpt lat="43.013540108126556" lon="10.596033673294867"><ele>9.5</ele><time>2026-04-06T10:50:37.999Z</time></trkpt><trkpt lat="43.013335937504834" lon="10.595861168283948"><ele>9.0</ele><time>2026-04-06T10:50:38.999Z</time></trkpt><trkpt lat="43.01312850293363" lon="10.595689340811072"><ele>8.5</ele><time>2026-04-06T10:50:39.999Z</time></trkpt><trkpt lat="43.01291915765066" lon="10.595515536674627"><ele>8.0</ele><time>2026-04-06T10:50:40.999Z</time></trkpt><trkpt lat="43.012709827281796" lon="10.59534738426571"><ele>9.0</ele><time>2026-04-06T10:50:41.999Z</time></trkpt><trkpt lat="43.012493721600485" lon="10.595178532424141"><ele>10.0</ele><time>2026-04-06T10:50:42.999Z</time></trkpt><trkpt lat="43.01227771929474" lon="10.59501339218644"><ele>10.0</ele><time>2026-04-06T10:50:43.999Z</time></trkpt><trkpt lat="43.012056646090855" lon="10.59484806905596"><ele>10.0</ele><time>2026-04-06T10:50:44.999Z</time></trkpt><trkpt lat="43.01183711424066" lon="10.594686570773135"><ele>10.0</ele><time>2026-04-06T10:50:45.999Z</time></trkpt><trkpt lat="43.011611219852554" lon="10.594523577620192"><ele>10.0</ele><time>2026-04-06T10:50:46.999Z</time></trkpt><trkpt lat="43.01138664037342" lon="10.59436497839259"><ele>10.0</ele><time>2026-04-06T10:50:47.999Z</time></trkpt><trkpt lat="43.01115597532004" lon="10.594209170780621"><ele>10.0</ele><time>2026-04-06T10:50:49Z</time></trkpt><trkpt lat="43.010921216959" lon="10.594055264466123"><ele>9.5</ele><time>2026-04-06T10:50:50Z</time></trkpt><trkpt lat="43.01068695359558" lon="10.593908155926"><ele>9.0</ele><time>2026-04-06T10:50:51Z</time></trkpt><trkpt lat="43.01045038348567" lon="10.593761468485742"><ele>9.0</ele><time>2026-04-06T10:50:52Z</time></trkpt><trkpt lat="43.01020983469742" lon="10.593613610392149"><ele>9.0</ele><time>2026-04-06T10:50:53Z</time></trkpt><trkpt lat="43.009972876352805" lon="10.593470940875989"><ele>9.0</ele><time>2026-04-06T10:50:54Z</time></trkpt><trkpt lat="43.00972993886932" lon="10.59331350359064"><ele>9.0</ele><time>2026-04-06T10:50:55Z</time></trkpt><trkpt lat="43.00948984689621" lon="10.593162928360647"><ele>9.0</ele><time>2026-04-06T10:50:56Z</time></trkpt><trkpt lat="43.009248538634935" lon="10.59301096114374"><ele>9.0</ele><time>2026-04-06T10:50:57Z</time></trkpt><trkpt lat="43.00900187922482" lon="10.59285374151968"><ele>8.0</ele><time>2026-04-06T10:50:58Z</time></trkpt><trkpt lat="43.008765658433525" lon="10.592701070129785"><ele>7.0</ele><time>2026-04-06T10:50:59Z</time></trkpt><trkpt lat="43.008527948163085" lon="10.592544143868661"><ele>9.0</ele><time>2026-04-06T10:51:00Z</time></trkpt><trkpt lat="43.008288694504415" lon="10.59237500687094"><ele>11.0</ele><time>2026-04-06T10:51:01Z</time></trkpt><trkpt lat="43.00806057581569" lon="10.592207041760446"><ele>11.0</ele><time>2026-04-06T10:51:02Z</time></trkpt><trkpt lat="43.007828682586485" lon="10.592026573775104"><ele>11.0</ele><time>2026-04-06T10:51:03Z</time></trkpt><trkpt lat="43.007605309765815" lon="10.59185161412862"><ele>11.5</ele><time>2026-04-06T10:51:04Z</time></trkpt><trkpt lat="43.00738159956005" lon="10.591671552122552"><ele>12.0</ele><time>2026-04-06T10:51:05Z</time></trkpt><trkpt lat="43.007159329122345" lon="10.591485212597194"><ele>12.0</ele><time>2026-04-06T10:51:06Z</time></trkpt><trkpt lat="43.00693972544021" lon="10.591295608418147"><ele>12.0</ele><time>2026-04-06T10:51:07Z</time></trkpt><trkpt lat="43.00672190110968" lon="10.591099920706073"><ele>10.0</ele><time>2026-04-06T10:51:08Z</time></trkpt><trkpt lat="43.006506569923445" lon="10.590902669655486"><ele>8.0</ele><time>2026-04-06T10:51:09Z</time></trkpt><trkpt lat="43.00629555350246" lon="10.590707572615798"><ele>8.0</ele><time>2026-04-06T10:51:10Z</time></trkpt><trkpt lat="43.006078414440154" lon="10.590508099282953"><ele>8.0</ele><time>2026-04-06T10:51:11Z</time></trkpt><trkpt lat="43.00584983926699" lon="10.590334545876164"><ele>8.0</ele><time>2026-04-06T10:51:12Z</time></trkpt><trkpt lat="43.00574961109468" lon="10.589766909416323"><ele>8.0</ele><time>2026-04-06T10:51:13Z</time></trkpt><trkpt lat="43.005558007787826" lon="10.589562015451667"><ele>7.5</ele><time>2026-04-06T10:51:14Z</time></trkpt><trkpt lat="43.005335549617705" lon="10.589377579784761"><ele>7.0</ele><time>2026-04-06T10:51:15Z</time></trkpt><trkpt lat="43.00510255382269" lon="10.58923941092837"><ele>7.0</ele><time>2026-04-06T10:51:16Z</time></trkpt><trkpt lat="43.0047837077339" lon="10.589318595391596"><ele>7.0</ele><time>2026-04-06T10:51:17Z</time></trkpt><trkpt lat="43.00456807200674" lon="10.589120483147402"><ele>7.0</ele><time>2026-04-06T10:51:18Z</time></trkpt><trkpt lat="43.004355242934615" lon="10.588923776207514"><ele>7.0</ele><time>2026-04-06T10:51:19Z</time></trkpt><trkpt lat="43.0041412094877" lon="10.588723777707568"><ele>7.0</ele><time>2026-04-06T10:51:20Z</time></trkpt><trkpt lat="43.003928421473375" lon="10.588521400379037"><ele>7.0</ele><time>2026-04-06T10:51:21Z</time></trkpt><trkpt lat="43.0037245776047" lon="10.588320666289473"><ele>7.0</ele><time>2026-04-06T10:51:22Z</time></trkpt><trkpt lat="43.00352750012965" lon="10.588092231679887"><ele>7.0</ele><time>2026-04-06T10:51:23Z</time></trkpt><trkpt lat="43.00334456794478" lon="10.58784664327611"><ele>7.0</ele><time>2026-04-06T10:51:24Z</time></trkpt><trkpt lat="43.00317276154539" lon="10.58758784107883"><ele>7.0</ele><time>2026-04-06T10:51:25Z</time></trkpt><trkpt lat="43.003010466689254" lon="10.58732122232122"><ele>7.0</ele><time>2026-04-06T10:51:26Z</time></trkpt><trkpt lat="43.002853016438635" lon="10.587052139295615"><ele>7.0</ele><time>2026-04-06T10:51:27Z</time></trkpt><trkpt lat="43.00269222424624" lon="10.58677953103425"><ele>7.0</ele><time>2026-04-06T10:51:28Z</time></trkpt><trkpt lat="43.00253199742884" lon="10.586517065243763"><ele>7.0</ele><time>2026-04-06T10:51:29Z</time></trkpt><trkpt lat="43.00236759004908" lon="10.586254228216498"><ele>6.5</ele><time>2026-04-06T10:51:30Z</time></trkpt><trkpt lat="43.00220104046712" lon="10.585992130752127"><ele>6.0</ele><time>2026-04-06T10:51:31Z</time></trkpt><trkpt lat="43.002039169872155" lon="10.585735739828072"><ele>6.0</ele><time>2026-04-06T10:51:32Z</time></trkpt><trkpt lat="43.00187522486383" lon="10.585471120483186"><ele>6.0</ele><time>2026-04-06T10:51:33Z</time></trkpt><trkpt lat="43.001710862776314" lon="10.58522045998632"><ele>6.0</ele><time>2026-04-06T10:51:34Z</time></trkpt><trkpt lat="43.00153953615791" lon="10.584970096186904"><ele>6.0</ele><time>2026-04-06T10:51:35Z</time></trkpt><trkpt lat="43.00136106593303" lon="10.584741653889887"><ele>6.0</ele><time>2026-04-06T10:51:36Z</time></trkpt><trkpt lat="43.001176064195825" lon="10.584518967692128"><ele>6.0</ele><time>2026-04-06T10:51:37Z</time></trkpt><trkpt lat="43.00099139126603" lon="10.584294730809074"><ele>5.5</ele><time>2026-04-06T10:51:38Z</time></trkpt><trkpt lat="43.000812594881545" lon="10.58406761434114"><ele>5.0</ele><time>2026-04-06T10:51:39Z</time></trkpt><trkpt lat="43.00063510084298" lon="10.58383675337896"><ele>5.0</ele><time>2026-04-06T10:51:40Z</time></trkpt><trkpt lat="43.00045824751361" lon="10.583613977395029"><ele>5.0</ele><time>2026-04-06T10:51:41Z</time></trkpt><trkpt lat="43.00028419476426" lon="10.583396205670496"><ele>5.0</ele><time>2026-04-06T10:51:41.999Z</time></trkpt><trkpt lat="43.00011007335312" lon="10.583177751763714"><ele>5.0</ele><time>2026-04-06T10:51:42.999Z</time></trkpt><trkpt lat="42.99994352626148" lon="10.58296345137647"><ele>4.5</ele><time>2026-04-06T10:51:43.999Z</time></trkpt><trkpt lat="42.99977718984542" lon="10.582748117218774"><ele>4.0</ele><time>2026-04-06T10:51:44.999Z</time></trkpt><trkpt lat="42.99960904981868" lon="10.582535984167128"><ele>4.0</ele><time>2026-04-06T10:51:45.999Z</time></trkpt><trkpt lat="42.99944996879391" lon="10.582334893892824"><ele>4.0</ele><time>2026-04-06T10:51:46.999Z</time></trkpt><trkpt lat="42.99928941495664" lon="10.582127311556398"><ele>4.0</ele><time>2026-04-06T10:51:47.999Z</time></trkpt><trkpt lat="42.99913130430164" lon="10.581916839811463"><ele>4.0</ele><time>2026-04-06T10:51:48.999Z</time></trkpt><trkpt lat="42.998971470331334" lon="10.581705827802057"><ele>4.0</ele><time>2026-04-06T10:51:49.999Z</time></trkpt><trkpt lat="42.99881068513646" lon="10.58149551976496"><ele>4.0</ele><time>2026-04-06T10:51:50.999Z</time></trkpt><trkpt lat="42.998651883507385" lon="10.581289666382968"><ele>3.6666666666666665</ele><time>2026-04-06T10:51:51.999Z</time></trkpt><trkpt lat="42.99849034577829" lon="10.581079738284458"><ele>3.333333333333333</ele><time>2026-04-06T10:51:52.999Z</time></trkpt><trkpt lat="42.99833150924332" lon="10.580873713093379"><ele>3.0</ele><time>2026-04-06T10:51:53.999Z</time></trkpt><trkpt lat="42.99816395656416" lon="10.580664299752572"><ele>3.333333333333333</ele><time>2026-04-06T10:51:54.999Z</time></trkpt><trkpt lat="42.99800606961322" lon="10.58045839226728"><ele>3.6666666666666665</ele><time>2026-04-06T10:51:55.999Z</time></trkpt><trkpt lat="42.997843058020855" lon="10.580248332677524"><ele>4.0</ele><time>2026-04-06T10:51:56.999Z</time></trkpt><trkpt lat="42.99768033072133" lon="10.58003916125182"><ele>4.0</ele><time>2026-04-06T10:51:57.999Z</time></trkpt><trkpt lat="42.997517186826975" lon="10.579833023786593"><ele>4.0</ele><time>2026-04-06T10:51:58.999Z</time></trkpt><trkpt lat="42.9973554361794" lon="10.579628008820489"><ele>4.0</ele><time>2026-04-06T10:51:59.999Z</time></trkpt><trkpt lat="42.99718867075258" lon="10.579421264497569"><ele>4.0</ele><time>2026-04-06T10:52:00.999Z</time></trkpt><trkpt lat="42.9970312135763" lon="10.579216798986264"><ele>4.0</ele><time>2026-04-06T10:52:01.999Z</time></trkpt><trkpt lat="42.996870869065006" lon="10.579005760404709"><ele>4.0</ele><time>2026-04-06T10:52:02.999Z</time></trkpt><trkpt lat="42.9967044922596" lon="10.578792773878519"><ele>4.0</ele><time>2026-04-06T10:52:03.999Z</time></trkpt><trkpt lat="42.99654016015252" lon="10.578583573380879"><ele>4.0</ele><time>2026-04-06T10:52:04.999Z</time></trkpt><trkpt lat="42.99637339326509" lon="10.578371676366055"><ele>4.0</ele><time>2026-04-06T10:52:05.999Z</time></trkpt><trkpt lat="42.99620758660326" lon="10.5781567376209"><ele>4.0</ele><time>2026-04-06T10:52:06.999Z</time></trkpt><trkpt lat="42.996041401498346" lon="10.57794013924315"><ele>3.0</ele><time>2026-04-06T10:52:07.999Z</time></trkpt><trkpt lat="42.9958732272942" lon="10.577723888550139"><ele>2.0</ele><time>2026-04-06T10:52:08.999Z</time></trkpt><trkpt lat="42.99570067158145" lon="10.57750575705696"><ele>2.0</ele><time>2026-04-06T10:52:09.999Z</time></trkpt><trkpt lat="42.99553097949623" lon="10.577291421017863"><ele>2.0</ele><time>2026-04-06T10:52:10.999Z</time></trkpt><trkpt lat="42.99536041896003" lon="10.57707490263847"><ele>3.0</ele><time>2026-04-06T10:52:11.999Z</time></trkpt><trkpt lat="42.99519068438332" lon="10.576857375357985"><ele>4.0</ele><time>2026-04-06T10:52:12.999Z</time></trkpt><trkpt lat="42.995023300475616" lon="10.57664085348821"><ele>4.0</ele><time>2026-04-06T10:52:13.999Z</time></trkpt><trkpt lat="42.99485042195227" lon="10.576419530268499"><ele>4.0</ele><time>2026-04-06T10:52:14.999Z</time></trkpt><trkpt lat="42.99467976817447" lon="10.576198826253732"><ele>3.5</ele><time>2026-04-06T10:52:15.999Z</time></trkpt><trkpt lat="42.994507698336136" lon="10.575979256245795"><ele>3.0</ele><time>2026-04-06T10:52:16.999Z</time></trkpt><trkpt lat="42.99433618974764" lon="10.575761430433568"><ele>3.0</ele><time>2026-04-06T10:52:17.999Z</time></trkpt><trkpt lat="42.994162209657816" lon="10.575539263321978"><ele>3.0</ele><time>2026-04-06T10:52:18.999Z</time></trkpt><trkpt lat="42.99399155013776" lon="10.575317820798801"><ele>3.0</ele><time>2026-04-06T10:52:19.999Z</time></trkpt><trkpt lat="42.993818287389225" lon="10.575094317488883"><ele>3.0</ele><time>2026-04-06T10:52:20.999Z</time></trkpt><trkpt lat="42.99364463527653" lon="10.574872323241575"><ele>3.0</ele><time>2026-04-06T10:52:21.999Z</time></trkpt><trkpt lat="42.99346957152215" lon="10.574647440412003"><ele>3.0</ele><time>2026-04-06T10:52:22.999Z</time></trkpt><trkpt lat="42.99329965471509" lon="10.574426621372476"><ele>2.5</ele><time>2026-04-06T10:52:23.999Z</time></trkpt><trkpt lat="42.993123749022374" lon="10.574203723443224"><ele>2.0</ele><time>2026-04-06T10:52:24.999Z</time></trkpt><trkpt lat="42.99294957824545" lon="10.573982060517723"><ele>2.0</ele><time>2026-04-06T10:52:25.999Z</time></trkpt><trkpt lat="42.99277520227267" lon="10.573759433724883"><ele>2.0</ele><time>2026-04-06T10:52:26.999Z</time></trkpt><trkpt lat="42.99259728296309" lon="10.57353387863175"><ele>2.0</ele><time>2026-04-06T10:52:27.999Z</time></trkpt><trkpt lat="42.992423188963045" lon="10.573309752487436"><ele>2.0</ele><time>2026-04-06T10:52:28.999Z</time></trkpt><trkpt lat="42.99224518252988" lon="10.573086315557395"><ele>2.0</ele><time>2026-04-06T10:52:29.999Z</time></trkpt><trkpt lat="42.992069951165874" lon="10.572863592089915"><ele>2.0</ele><time>2026-04-06T10:52:30.999Z</time></trkpt><trkpt lat="42.99189083464222" lon="10.572641213054151"><ele>2.0</ele><time>2026-04-06T10:52:31.999Z</time></trkpt><trkpt lat="42.99171801481173" lon="10.572418636951067"><ele>2.0</ele><time>2026-04-06T10:52:32.999Z</time></trkpt><trkpt lat="42.99154054450048" lon="10.572192736548415"><ele>2.5</ele><time>2026-04-06T10:52:33.999Z</time></trkpt><trkpt lat="42.99136519601299" lon="10.571965829502846"><ele>3.0</ele><time>2026-04-06T10:52:34.999Z</time></trkpt><trkpt lat="42.99118946328169" lon="10.5717387990157"><ele>3.0</ele><time>2026-04-06T10:52:35.999Z</time></trkpt><trkpt lat="42.99100968880826" lon="10.57151400787708"><ele>3.0</ele><time>2026-04-06T10:52:36.999Z</time></trkpt><trkpt lat="42.99083797098942" lon="10.571289057836507"><ele>3.5</ele><time>2026-04-06T10:52:37.999Z</time></trkpt><trkpt lat="42.99066216877213" lon="10.571065757519698"><ele>4.0</ele><time>2026-04-06T10:52:38.999Z</time></trkpt><trkpt lat="42.99048340995836" lon="10.570842962224983"><ele>4.0</ele><time>2026-04-06T10:52:39.999Z</time></trkpt><trkpt lat="42.99031706707665" lon="10.570618905790132"><ele>4.0</ele><time>2026-04-06T10:52:40.999Z</time></trkpt><trkpt lat="42.99014535496381" lon="10.570394290268831"><ele>3.5</ele><time>2026-04-06T10:52:41.999Z</time></trkpt><trkpt lat="42.98997860033818" lon="10.57016906155933"><ele>3.0</ele><time>2026-04-06T10:52:42.999Z</time></trkpt><trkpt lat="42.98979819748247" lon="10.569962600049918"><ele>3.0</ele><time>2026-04-06T10:52:43.999Z</time></trkpt><trkpt lat="42.98963831078998" lon="10.569723410039012"><ele>3.0</ele><time>2026-04-06T10:52:44.999Z</time></trkpt><trkpt lat="42.989472056429264" lon="10.569499699507814"><ele>2.5</ele><time>2026-04-06T10:52:45.999Z</time></trkpt><trkpt lat="42.989319213085416" lon="10.56927365489441"><ele>2.0</ele><time>2026-04-06T10:52:46.999Z</time></trkpt><trkpt lat="42.989166647912796" lon="10.569035999511302"><ele>2.0</ele><time>2026-04-06T10:52:47.999Z</time></trkpt><trkpt lat="42.98902184011731" lon="10.56879100611637"><ele>2.0</ele><time>2026-04-06T10:52:48.999Z</time></trkpt><trkpt lat="42.98887968751991" lon="10.568541659140706"><ele>2.0</ele><time>2026-04-06T10:52:49.999Z</time></trkpt><trkpt lat="42.98873946207807" lon="10.568291457015121"><ele>2.0</ele><time>2026-04-06T10:52:50.999Z</time></trkpt><trkpt lat="42.988599313034356" lon="10.568042031802644"><ele>1.5</ele><time>2026-04-06T10:52:51.999Z</time></trkpt><trkpt lat="42.988461958309784" lon="10.56779371070309"><ele>1.0</ele><time>2026-04-06T10:52:52.999Z</time></trkpt><trkpt lat="42.988322283288404" lon="10.567545553535803"><ele>0.5</ele><time>2026-04-06T10:52:54Z</time></trkpt><trkpt lat="42.9881805718024" lon="10.567297563662057"><ele>0.0</ele><time>2026-04-06T10:52:55Z</time></trkpt><trkpt lat="42.98804371663807" lon="10.567050619716646"><ele>-0.5</ele><time>2026-04-06T10:52:56Z</time></trkpt><trkpt lat="42.98790169277739" lon="10.566803573221973"><ele>-1.0</ele><time>2026-04-06T10:52:57Z</time></trkpt><trkpt lat="42.9877615698882" lon="10.566557219412207"><ele>-1.0</ele><time>2026-04-06T10:52:58Z</time></trkpt><trkpt lat="42.98761540926239" lon="10.566306559810348"><ele>-1.0</ele><time>2026-04-06T10:52:59Z</time></trkpt><trkpt lat="42.987476513568204" lon="10.566062711813169"><ele>-0.5</ele><time>2026-04-06T10:53:00Z</time></trkpt><trkpt lat="42.98731690694139" lon="10.565837281380768"><ele>0.0</ele><time>2026-04-06T10:53:01Z</time></trkpt><trkpt lat="42.98715723354119" lon="10.565583773143224"><ele>-0.5</ele><time>2026-04-06T10:53:02Z</time></trkpt><trkpt lat="42.987000274166334" lon="10.565339379187346"><ele>-1.0</ele><time>2026-04-06T10:53:03Z</time></trkpt><trkpt lat="42.986841033512405" lon="10.565093749686248"><ele>-1.0</ele><time>2026-04-06T10:53:04Z</time></trkpt><trkpt lat="42.98667886778166" lon="10.56485386493729"><ele>-1.0</ele><time>2026-04-06T10:53:05Z</time></trkpt><trkpt lat="42.98650680934772" lon="10.564621022464186"><ele>0.5</ele><time>2026-04-06T10:53:06Z</time></trkpt><trkpt lat="42.98633315724935" lon="10.564390405582442"><ele>2.0</ele><time>2026-04-06T10:53:07Z</time></trkpt><trkpt lat="42.98615118295055" lon="10.56416227554227"><ele>2.0</ele><time>2026-04-06T10:53:08Z</time></trkpt><trkpt lat="42.985963550732556" lon="10.56394302755526"><ele>2.0</ele><time>2026-04-06T10:53:09Z</time></trkpt><trkpt lat="42.985775388482296" lon="10.563731359522357"><ele>2.0</ele><time>2026-04-06T10:53:10Z</time></trkpt><trkpt lat="42.985572450804064" lon="10.563517025813578"><ele>2.0</ele><time>2026-04-06T10:53:11Z</time></trkpt><trkpt lat="42.98537597730306" lon="10.563290657402414"><ele>2.0</ele><time>2026-04-06T10:53:12Z</time></trkpt><trkpt lat="42.98516053286585" lon="10.563089535735168"><ele>2.0</ele><time>2026-04-06T10:53:13Z</time></trkpt><trkpt lat="42.98493885267687" lon="10.562890742130621"><ele>1.5</ele><time>2026-04-06T10:53:14Z</time></trkpt><trkpt lat="42.984705958399545" lon="10.562695820991639"><ele>1.0</ele><time>2026-04-06T10:53:15Z</time></trkpt><trkpt lat="42.984467912490565" lon="10.562503769628849"><ele>1.0</ele><time>2026-04-06T10:53:16Z</time></trkpt><trkpt lat="42.98423242344996" lon="10.562315975034894"><ele>1.0</ele><time>2026-04-06T10:53:17Z</time></trkpt><trkpt lat="42.983989257250265" lon="10.562131132872196"><ele>1.5</ele><time>2026-04-06T10:53:18Z</time></trkpt><trkpt lat="42.98374628999802" lon="10.561949134653897"><ele>2.0</ele><time>2026-04-06T10:53:19Z</time></trkpt><trkpt lat="42.98349297895108" lon="10.56179578634109"><ele>2.5</ele><time>2026-04-06T10:53:20Z</time></trkpt><trkpt lat="42.98324973766089" lon="10.561613878697402"><ele>3.0</ele><time>2026-04-06T10:53:21Z</time></trkpt><trkpt lat="42.98299683221999" lon="10.561468086191244"><ele>3.0</ele><time>2026-04-06T10:53:22Z</time></trkpt><trkpt lat="42.982739812015055" lon="10.561323672457513"><ele>3.0</ele><time>2026-04-06T10:53:23Z</time></trkpt><trkpt lat="42.98249045905162" lon="10.56118918660323"><ele>1.5</ele><time>2026-04-06T10:53:24Z</time></trkpt><trkpt lat="42.982229665648156" lon="10.561059776602228"><ele>0.0</ele><time>2026-04-06T10:53:25Z</time></trkpt><trkpt lat="42.98196865860564" lon="10.560939533131787"><ele>0.0</ele><time>2026-04-06T10:53:26Z</time></trkpt><trkpt lat="42.98170963216676" lon="10.560828167088532"><ele>0.0</ele><time>2026-04-06T10:53:27Z</time></trkpt><trkpt lat="42.9814464251593" lon="10.56072177836665"><ele>0.5</ele><time>2026-04-06T10:53:28Z</time></trkpt><trkpt lat="42.98118395930095" lon="10.560618576727991"><ele>1.0</ele><time>2026-04-06T10:53:29Z</time></trkpt><trkpt lat="42.98092291331545" lon="10.56051663870722"><ele>1.0</ele><time>2026-04-06T10:53:30Z</time></trkpt><trkpt lat="42.980659521963155" lon="10.560415709359212"><ele>1.0</ele><time>2026-04-06T10:53:31Z</time></trkpt><trkpt lat="42.980399719681564" lon="10.560312247882381"><ele>1.0</ele><time>2026-04-06T10:53:32Z</time></trkpt><trkpt lat="42.98013558832903" lon="10.560209246892095"><ele>1.0</ele><time>2026-04-06T10:53:33Z</time></trkpt><trkpt lat="42.97987897690776" lon="10.560109209057517"><ele>1.5</ele><time>2026-04-06T10:53:34Z</time></trkpt><trkpt lat="42.97962039034142" lon="10.560007210241178"><ele>2.0</ele><time>2026-04-06T10:53:35Z</time></trkpt><trkpt lat="42.97936169968785" lon="10.559905325501623"><ele>2.0</ele><time>2026-04-06T10:53:36Z</time></trkpt><trkpt lat="42.97910599921259" lon="10.55980521307358"><ele>2.0</ele><time>2026-04-06T10:53:37Z</time></trkpt><trkpt lat="42.97884304587526" lon="10.55970279033972"><ele>2.0</ele><time>2026-04-06T10:53:38Z</time></trkpt><trkpt lat="42.978585274094264" lon="10.55960683428069"><ele>2.0</ele><time>2026-04-06T10:53:39Z</time></trkpt><trkpt lat="42.97832831351972" lon="10.559512074619404"><ele>2.0</ele><time>2026-04-06T10:53:40Z</time></trkpt><trkpt lat="42.978071532124396" lon="10.559414605396643"><ele>2.0</ele><time>2026-04-06T10:53:41Z</time></trkpt><trkpt lat="42.97781351761469" lon="10.559316562555177"><ele>2.0</ele><time>2026-04-06T10:53:42Z</time></trkpt><trkpt lat="42.97755945698006" lon="10.559216898924184"><ele>2.0</ele><time>2026-04-06T10:53:43Z</time></trkpt><trkpt lat="42.97730663666105" lon="10.559121679131058"><ele>2.5</ele><time>2026-04-06T10:53:44Z</time></trkpt><trkpt lat="42.9770623170316" lon="10.559027745116698"><ele>3.0</ele><time>2026-04-06T10:53:45Z</time></trkpt><trkpt lat="42.976816252797434" lon="10.558925637563323"><ele>3.0</ele><time>2026-04-06T10:53:46Z</time></trkpt><trkpt lat="42.976573375712775" lon="10.55881780120068"><ele>3.0</ele><time>2026-04-06T10:53:47Z</time></trkpt><trkpt lat="42.976326934049006" lon="10.5587134375625"><ele>3.0</ele><time>2026-04-06T10:53:47.999Z</time></trkpt><trkpt lat="42.97607799283386" lon="10.558610266967715"><ele>3.0</ele><time>2026-04-06T10:53:48.999Z</time></trkpt><trkpt lat="42.975837259740345" lon="10.55851089800739"><ele>2.5</ele><time>2026-04-06T10:53:49.999Z</time></trkpt><trkpt lat="42.9755958834902" lon="10.558409142292293"><ele>2.0</ele><time>2026-04-06T10:53:50.999Z</time></trkpt><trkpt lat="42.975350418554676" lon="10.558305786416994"><ele>2.0</ele><time>2026-04-06T10:53:51.999Z</time></trkpt><trkpt lat="42.97509853801329" lon="10.558195663293525"><ele>2.0</ele><time>2026-04-06T10:53:52.999Z</time></trkpt><trkpt lat="42.9748589365919" lon="10.558090042287363"><ele>2.0</ele><time>2026-04-06T10:53:53.999Z</time></trkpt><trkpt lat="42.974615664612195" lon="10.557977589026507"><ele>2.0</ele><time>2026-04-06T10:53:54.999Z</time></trkpt><trkpt lat="42.97437806795556" lon="10.557866379070322"><ele>2.5</ele><time>2026-04-06T10:53:55.999Z</time></trkpt><trkpt lat="42.97413302509424" lon="10.557752169937224"><ele>3.0</ele><time>2026-04-06T10:53:56.999Z</time></trkpt><trkpt lat="42.97388961527206" lon="10.557634976996646"><ele>3.0</ele><time>2026-04-06T10:53:57.999Z</time></trkpt><trkpt lat="42.9736534300597" lon="10.557515183341145"><ele>3.0</ele><time>2026-04-06T10:53:58.999Z</time></trkpt><trkpt lat="42.97341736331125" lon="10.55739036255396"><ele>2.0</ele><time>2026-04-06T10:53:59.999Z</time></trkpt><trkpt lat="42.973175987586494" lon="10.557266683076598"><ele>1.0</ele><time>2026-04-06T10:54:00.999Z</time></trkpt><trkpt lat="42.97294581127457" lon="10.557147669587573"><ele>1.5</ele><time>2026-04-06T10:54:01.999Z</time></trkpt><trkpt lat="42.97271106405552" lon="10.557029614395212"><ele>2.0</ele><time>2026-04-06T10:54:02.999Z</time></trkpt><trkpt lat="42.97248517037505" lon="10.556914711445557"><ele>2.0</ele><time>2026-04-06T10:54:03.999Z</time></trkpt><trkpt lat="42.972268156479664" lon="10.556794485800314"><ele>2.0</ele><time>2026-04-06T10:54:04.999Z</time></trkpt><trkpt lat="42.97205603324353" lon="10.55667016516301"><ele>2.0</ele><time>2026-04-06T10:54:05.999Z</time></trkpt><trkpt lat="42.97184862183908" lon="10.556549977530432"><ele>2.0</ele><time>2026-04-06T10:54:06.999Z</time></trkpt><trkpt lat="42.97164691868967" lon="10.556436276946764"><ele>2.0</ele><time>2026-04-06T10:54:07.999Z</time></trkpt><trkpt lat="42.971451412566054" lon="10.556322957758637"><ele>2.0</ele><time>2026-04-06T10:54:08.999Z</time></trkpt><trkpt lat="42.971258638806134" lon="10.556213074900644"><ele>2.0</ele><time>2026-04-06T10:54:09.999Z</time></trkpt><trkpt lat="42.97107129524819" lon="10.55610278322022"><ele>2.0</ele><time>2026-04-06T10:54:10.999Z</time></trkpt><trkpt lat="42.97088764907249" lon="10.555999158232115"><ele>2.0</ele><time>2026-04-06T10:54:11.999Z</time></trkpt><trkpt lat="42.97070943294788" lon="10.555896160401199"><ele>2.0</ele><time>2026-04-06T10:54:12.999Z</time></trkpt><trkpt lat="42.970534628864314" lon="10.555793961517322"><ele>2.0</ele><time>2026-04-06T10:54:13.999Z</time></trkpt><trkpt lat="42.97036622269303" lon="10.555695490959513"><ele>2.0</ele><time>2026-04-06T10:54:14.999Z</time></trkpt><trkpt lat="42.97019792692223" lon="10.55559925927347"><ele>2.0</ele><time>2026-04-06T10:54:15.999Z</time></trkpt><trkpt lat="42.97003359682997" lon="10.555505982169382"><ele>2.0</ele><time>2026-04-06T10:54:16.999Z</time></trkpt><trkpt lat="42.969872827497596" lon="10.555414838933006"><ele>2.0</ele><time>2026-04-06T10:54:17.999Z</time></trkpt><trkpt lat="42.96971799266283" lon="10.555327119727485"><ele>2.0</ele><time>2026-04-06T10:54:18.999Z</time></trkpt><trkpt lat="42.9695640054943" lon="10.555240234698813"><ele>2.0</ele><time>2026-04-06T10:54:19.999Z</time></trkpt><trkpt lat="42.96942088002071" lon="10.55515676862456"><ele>2.0</ele><time>2026-04-06T10:54:20.999Z</time></trkpt><trkpt lat="42.969275540583226" lon="10.555075390372636"><ele>2.0</ele><time>2026-04-06T10:54:21.999Z</time></trkpt><trkpt lat="42.96914452813366" lon="10.555000853253373"><ele>2.0</ele><time>2026-04-06T10:54:22.999Z</time></trkpt><trkpt lat="42.969016758843814" lon="10.554929847194483"><ele>2.0</ele><time>2026-04-06T10:54:23.999Z</time></trkpt><trkpt lat="42.96889506372201" lon="10.554863371945634"><ele>2.25</ele><time>2026-04-06T10:54:24.999Z</time></trkpt><trkpt lat="42.96877576642738" lon="10.55479875194725"><ele>2.5</ele><time>2026-04-06T10:54:25.999Z</time></trkpt><trkpt lat="42.96866843084955" lon="10.554737950536309"><ele>2.75</ele><time>2026-04-06T10:54:26.999Z</time></trkpt><trkpt lat="42.96856452020052" lon="10.554676899450861"><ele>3.0</ele><time>2026-04-06T10:54:27.999Z</time></trkpt><trkpt lat="42.96847146620408" lon="10.55460087438296"><ele>2.8</ele><time>2026-04-06T10:54:28.999Z</time></trkpt><trkpt lat="42.96839865949488" lon="10.554504442866534"><ele>2.5999999999999996</ele><time>2026-04-06T10:54:29.999Z</time></trkpt><trkpt lat="42.96834844585922" lon="10.55438745442781"><ele>2.4000000000000004</ele><time>2026-04-06T10:54:30.999Z</time></trkpt><trkpt lat="42.9683270292976" lon="10.554262966765144"><ele>2.2</ele><time>2026-04-06T10:54:31.999Z</time></trkpt><trkpt lat="42.96830650676703" lon="10.554145241813986"><ele>2.0</ele><time>2026-04-06T10:54:32.999Z</time></trkpt><trkpt lat="42.96825379653288" lon="10.55404224043699"><ele>2.0</ele><time>2026-04-06T10:54:33.999Z</time></trkpt><trkpt lat="42.9681675765122" lon="10.553958532594347"><ele>2.0</ele><time>2026-04-06T10:54:34.999Z</time></trkpt><trkpt lat="42.96807519926198" lon="10.553866886012477"><ele>2.0</ele><time>2026-04-06T10:54:35.999Z</time></trkpt><trkpt lat="42.96801071427063" lon="10.553738305006839"><ele>2.0</ele><time>2026-04-06T10:54:36.999Z</time></trkpt><trkpt lat="42.968054041187386" lon="10.55351243085279"><ele>2.0</ele><time>2026-04-06T10:54:37.999Z</time></trkpt><trkpt lat="42.96794915333497" lon="10.553393394985665"><ele>2.0</ele><time>2026-04-06T10:54:38.999Z</time></trkpt><trkpt lat="42.967923794669844" lon="10.553209373315388"><ele>2.0</ele><time>2026-04-06T10:54:39.999Z</time></trkpt><trkpt lat="42.96789382724905" lon="10.55301119202383"><ele>2.0</ele><time>2026-04-06T10:54:40.999Z</time></trkpt><trkpt lat="42.96786514995042" lon="10.552815827304258"><ele>2.0</ele><time>2026-04-06T10:54:41.999Z</time></trkpt><trkpt lat="42.96783390275588" lon="10.552606688435159"><ele>2.0</ele><time>2026-04-06T10:54:42.999Z</time></trkpt><trkpt lat="42.96780372795478" lon="10.552397455223987"><ele>2.0</ele><time>2026-04-06T10:54:43.999Z</time></trkpt><trkpt lat="42.96777499031172" lon="10.552178043804263"><ele>2.0</ele><time>2026-04-06T10:54:44.999Z</time></trkpt><trkpt lat="42.96774965393056" lon="10.551975142542751"><ele>2.0</ele><time>2026-04-06T10:54:45.999Z</time></trkpt><trkpt lat="42.967724078520106" lon="10.551748241471277"><ele>2.0</ele><time>2026-04-06T10:54:46.999Z</time></trkpt><trkpt lat="42.96769903912832" lon="10.551530497676286"><ele>2.0</ele><time>2026-04-06T10:54:47.999Z</time></trkpt><trkpt lat="42.96767065884071" lon="10.55130787809146"><ele>2.0</ele><time>2026-04-06T10:54:48.999Z</time></trkpt><trkpt lat="42.96764163637923" lon="10.551078783523197"><ele>2.0</ele><time>2026-04-06T10:54:49.999Z</time></trkpt><trkpt lat="42.967612734122035" lon="10.550849830754217"><ele>2.0</ele><time>2026-04-06T10:54:50.999Z</time></trkpt><trkpt lat="42.96758160280565" lon="10.55061149328905"><ele>2.0</ele><time>2026-04-06T10:54:51.999Z</time></trkpt><trkpt lat="42.96754839550985" lon="10.550364988089367"><ele>2.0</ele><time>2026-04-06T10:54:52.999Z</time></trkpt><trkpt lat="42.967515135868545" lon="10.5501286462784"><ele>2.0</ele><time>2026-04-06T10:54:53.999Z</time></trkpt><trkpt lat="42.96748256105646" lon="10.549887295273061"><ele>2.0</ele><time>2026-04-06T10:54:54.999Z</time></trkpt><trkpt lat="42.96745004095362" lon="10.54963686954823"><ele>2.0</ele><time>2026-04-06T10:54:55.999Z</time></trkpt><trkpt lat="42.96741864133434" lon="10.549375154678506"><ele>2.0</ele><time>2026-04-06T10:54:56.999Z</time></trkpt><trkpt lat="42.96738562746735" lon="10.549108066615258"><ele>2.0</ele><time>2026-04-06T10:54:57.999Z</time></trkpt><trkpt lat="42.9673492642246" lon="10.548834970277062"><ele>2.0</ele><time>2026-04-06T10:54:58.999Z</time></trkpt><trkpt lat="42.967310618008064" lon="10.548551370427525"><ele>2.0</ele><time>2026-04-06T10:55:00Z</time></trkpt><trkpt lat="42.967269359782776" lon="10.548267863822007"><ele>2.0</ele><time>2026-04-06T10:55:01Z</time></trkpt><trkpt lat="42.967230723730076" lon="10.547964517135917"><ele>2.0</ele><time>2026-04-06T10:55:02Z</time></trkpt><trkpt lat="42.96719184097885" lon="10.547667746137813"><ele>2.5</ele><time>2026-04-06T10:55:03Z</time></trkpt><trkpt lat="42.96715373846617" lon="10.547359572559282"><ele>3.0</ele><time>2026-04-06T10:55:04Z</time></trkpt><trkpt lat="42.967117005206674" lon="10.547051852635505"><ele>3.0</ele><time>2026-04-06T10:55:05Z</time></trkpt><trkpt lat="42.967074363834556" lon="10.546742377164476"><ele>3.0</ele><time>2026-04-06T10:55:06Z</time></trkpt><trkpt lat="42.96702842320132" lon="10.546427014189362"><ele>2.5</ele><time>2026-04-06T10:55:07Z</time></trkpt><trkpt lat="42.96698446769352" lon="10.546098255977634"><ele>2.0</ele><time>2026-04-06T10:55:08Z</time></trkpt><trkpt lat="42.9669417931465" lon="10.545770731938966"><ele>2.0</ele><time>2026-04-06T10:55:09Z</time></trkpt><trkpt lat="42.96690066089096" lon="10.545455010029503"><ele>2.0</ele><time>2026-04-06T10:55:10Z</time></trkpt><trkpt lat="42.966859842666494" lon="10.545140311953439"><ele>2.0</ele><time>2026-04-06T10:55:11Z</time></trkpt><trkpt lat="42.966813895719405" lon="10.544835900204403"><ele>2.0</ele><time>2026-04-06T10:55:12Z</time></trkpt><trkpt lat="42.96677054046071" lon="10.544537252308407"><ele>2.333333333333333</ele><time>2026-04-06T10:55:13Z</time></trkpt><trkpt lat="42.96672890210856" lon="10.544235344616776"><ele>2.6666666666666665</ele><time>2026-04-06T10:55:14Z</time></trkpt><trkpt lat="42.966682887585165" lon="10.543938936615406"><ele>3.0</ele><time>2026-04-06T10:55:15Z</time></trkpt><trkpt lat="42.96662393181142" lon="10.543640355530503"><ele>3.333333333333333</ele><time>2026-04-06T10:55:16Z</time></trkpt><trkpt lat="42.966549697699065" lon="10.543361065763309"><ele>3.6666666666666665</ele><time>2026-04-06T10:55:17Z</time></trkpt><trkpt lat="42.96646633422456" lon="10.543089454690552"><ele>4.0</ele><time>2026-04-06T10:55:18Z</time></trkpt><trkpt lat="42.9663811452696" lon="10.542820230948205"><ele>4.0</ele><time>2026-04-06T10:55:19Z</time></trkpt><trkpt lat="42.966304621157335" lon="10.542549948799687"><ele>4.0</ele><time>2026-04-06T10:55:20Z</time></trkpt><trkpt lat="42.96622690782304" lon="10.542267713491292"><ele>4.0</ele><time>2026-04-06T10:55:21Z</time></trkpt><trkpt lat="42.96614741928977" lon="10.541993371837766"><ele>4.0</ele><time>2026-04-06T10:55:22Z</time></trkpt><trkpt lat="42.96606837959235" lon="10.541727667263578"><ele>4.0</ele><time>2026-04-06T10:55:23Z</time></trkpt><trkpt lat="42.965982299140244" lon="10.541465540326598"><ele>4.0</ele><time>2026-04-06T10:55:24Z</time></trkpt><trkpt lat="42.96588894426871" lon="10.5412035249801"><ele>5.0</ele><time>2026-04-06T10:55:25Z</time></trkpt><trkpt lat="42.96578837468989" lon="10.540950518268867"><ele>6.0</ele><time>2026-04-06T10:55:26Z</time></trkpt><trkpt lat="42.96568253580983" lon="10.540704036749698"><ele>7.0</ele><time>2026-04-06T10:55:27Z</time></trkpt><trkpt lat="42.96557701169443" lon="10.540462359120717"><ele>6.666666666666667</ele><time>2026-04-06T10:55:28Z</time></trkpt><trkpt lat="42.96547457121126" lon="10.540233730619137"><ele>6.333333333333334</ele><time>2026-04-06T10:55:29Z</time></trkpt><trkpt lat="42.965376920078704" lon="10.540016993692369"><ele>6.0</ele><time>2026-04-06T10:55:30Z</time></trkpt><trkpt lat="42.965288212526325" lon="10.53981393679135"><ele>6.0</ele><time>2026-04-06T10:55:31Z</time></trkpt><trkpt lat="42.96520418318138" lon="10.539618544455566"><ele>6.0</ele><time>2026-04-06T10:55:32Z</time></trkpt><trkpt lat="42.965121894312" lon="10.539430598075182"><ele>6.0</ele><time>2026-04-06T10:55:33Z</time></trkpt><trkpt lat="42.9650444086343" lon="10.539256233012303"><ele>7.25</ele><time>2026-04-06T10:55:34Z</time></trkpt><trkpt lat="42.964971869022385" lon="10.539086865052786"><ele>8.5</ele><time>2026-04-06T10:55:35Z</time></trkpt><trkpt lat="42.96490431248829" lon="10.538927902235828"><ele>9.75</ele><time>2026-04-06T10:55:36Z</time></trkpt><trkpt lat="42.9648376545046" lon="10.538773076030399"><ele>11.0</ele><time>2026-04-06T10:55:37Z</time></trkpt><trkpt lat="42.96476697568155" lon="10.53862417170699"><ele>11.0</ele><time>2026-04-06T10:55:38Z</time></trkpt><trkpt lat="42.9646975890384" lon="10.53847044429911"><ele>11.0</ele><time>2026-04-06T10:55:39Z</time></trkpt><trkpt lat="42.96462645713017" lon="10.538318621652456"><ele>11.0</ele><time>2026-04-06T10:55:40Z</time></trkpt><trkpt lat="42.964550607662325" lon="10.53815671780064"><ele>11.0</ele><time>2026-04-06T10:55:41Z</time></trkpt><trkpt lat="42.96447524398956" lon="10.537994923760365"><ele>11.8</ele><time>2026-04-06T10:55:42Z</time></trkpt><trkpt lat="42.964408841674164" lon="10.537843487722078"><ele>12.600000000000001</ele><time>2026-04-06T10:55:43Z</time></trkpt><trkpt lat="42.96435053408198" lon="10.537701216634467"><ele>13.4</ele><time>2026-04-06T10:55:44Z</time></trkpt><trkpt lat="42.964308886215676" lon="10.537569589036876"><ele>14.2</ele><time>2026-04-06T10:55:45Z</time></trkpt><trkpt lat="42.96427907029616" lon="10.537468469562143"><ele>15.0</ele><time>2026-04-06T10:55:46Z</time></trkpt><trkpt lat="42.964254683059515" lon="10.537383640288628"><ele>15.0</ele><time>2026-04-06T10:55:47Z</time></trkpt><trkpt lat="42.96423012359905" lon="10.5372425179683"><ele>15.0</ele><time>2026-04-06T10:55:48Z</time></trkpt><trkpt lat="42.96421081212162" lon="10.537128304266428"><ele>15.0</ele><time>2026-04-06T10:55:49Z</time></trkpt><trkpt lat="42.96419125562188" lon="10.53703024756031"><ele>15.0</ele><time>2026-04-06T10:55:50Z</time></trkpt><trkpt lat="42.96416749652851" lon="10.536945336884274"><ele>15.0</ele><time>2026-04-06T10:55:51Z</time></trkpt><trkpt lat="42.964144676570584" lon="10.536849638846343"><ele>15.0</ele><time>2026-04-06T10:55:52Z</time></trkpt><trkpt lat="42.96409080446621" lon="10.536710492149181"><ele>15.0</ele><time>2026-04-06T10:55:54Z</time></trkpt><trkpt lat="42.96405419786665" lon="10.536637888568235"><ele>15.0</ele><time>2026-04-06T10:55:55Z</time></trkpt><trkpt lat="42.9640027744287" lon="10.536580821094994"><ele>15.0</ele><time>2026-04-06T10:55:56Z</time></trkpt><trkpt lat="42.96393945405628" lon="10.536539205490143"><ele>15.0</ele><time>2026-04-06T10:55:57Z</time></trkpt><trkpt lat="42.96386363430484" lon="10.536516132101957"><ele>15.0</ele><time>2026-04-06T10:55:58Z</time></trkpt><trkpt lat="42.963772869085524" lon="10.536511670307588"><ele>15.0</ele><time>2026-04-06T10:55:59Z</time></trkpt><trkpt lat="42.963672997612356" lon="10.536492054811045"><ele>15.0</ele><time>2026-04-06T10:55:59.999Z</time></trkpt><trkpt lat="42.9635648803346" lon="10.536531220014004"><ele>15.0</ele><time>2026-04-06T10:56:00.999Z</time></trkpt><trkpt lat="42.96345704820849" lon="10.536545289667735"><ele>15.0</ele><time>2026-04-06T10:56:01.999Z</time></trkpt><trkpt lat="42.963345723031104" lon="10.53654882266998"><ele>15.0</ele><time>2026-04-06T10:56:02.999Z</time></trkpt><trkpt lat="42.96324062170016" lon="10.536567194598115"><ele>15.0</ele><time>2026-04-06T10:56:03.999Z</time></trkpt><trkpt lat="42.96313827527496" lon="10.536593709495355"><ele>14.25</ele><time>2026-04-06T10:56:04.999Z</time></trkpt><trkpt lat="42.96302689445359" lon="10.536616057510109"><ele>13.5</ele><time>2026-04-06T10:56:05.999Z</time></trkpt><trkpt lat="42.96291244674245" lon="10.536639140854788"><ele>12.75</ele><time>2026-04-06T10:56:06.999Z</time></trkpt><trkpt lat="42.96279712462528" lon="10.536665234056526"><ele>12.0</ele><time>2026-04-06T10:56:07.999Z</time></trkpt><trkpt lat="42.96268231854917" lon="10.536688191693798"><ele>12.0</ele><time>2026-04-06T10:56:08.999Z</time></trkpt><trkpt lat="42.96256580336384" lon="10.536714884767017"><ele>12.0</ele><time>2026-04-06T10:56:09.999Z</time></trkpt><trkpt lat="42.96244591540457" lon="10.536738582500304"><ele>12.0</ele><time>2026-04-06T10:56:10.999Z</time></trkpt><trkpt lat="42.96232428452458" lon="10.53676035874953"><ele>12.0</ele><time>2026-04-06T10:56:11.999Z</time></trkpt><trkpt lat="42.96220177073697" lon="10.53678050020437"><ele>11.25</ele><time>2026-04-06T10:56:12.999Z</time></trkpt><trkpt lat="42.96208138071021" lon="10.536805601618974"><ele>10.5</ele><time>2026-04-06T10:56:13.999Z</time></trkpt><trkpt lat="42.96195759716114" lon="10.536831847067221"><ele>9.75</ele><time>2026-04-06T10:56:14.999Z</time></trkpt><trkpt lat="42.9618234922784" lon="10.536860139809864"><ele>9.0</ele><time>2026-04-06T10:56:15.999Z</time></trkpt><trkpt lat="42.96168684772731" lon="10.536892215405011"><ele>9.0</ele><time>2026-04-06T10:56:16.999Z</time></trkpt><trkpt lat="42.96154688167466" lon="10.536916979813057"><ele>9.0</ele><time>2026-04-06T10:56:17.999Z</time></trkpt><trkpt lat="42.961407957893584" lon="10.536946779664012"><ele>9.0</ele><time>2026-04-06T10:56:18.999Z</time></trkpt><trkpt lat="42.96126402238867" lon="10.536973538012228"><ele>9.0</ele><time>2026-04-06T10:56:19.999Z</time></trkpt><trkpt lat="42.96112065447381" lon="10.53700108593266"><ele>9.0</ele><time>2026-04-06T10:56:20.999Z</time></trkpt><trkpt lat="42.96097787474337" lon="10.5370309132964"><ele>9.0</ele><time>2026-04-06T10:56:21.999Z</time></trkpt><trkpt lat="42.960836435500866" lon="10.537059711763625"><ele>9.0</ele><time>2026-04-06T10:56:22.999Z</time></trkpt><trkpt lat="42.96069783044206" lon="10.537089597354202"><ele>9.0</ele><time>2026-04-06T10:56:23.999Z</time></trkpt><trkpt lat="42.96055495483106" lon="10.537122012781223"><ele>8.75</ele><time>2026-04-06T10:56:24.999Z</time></trkpt><trkpt lat="42.96041746374229" lon="10.537151224196185"><ele>8.5</ele><time>2026-04-06T10:56:25.999Z</time></trkpt><trkpt lat="42.9602783334366" lon="10.537182200839306"><ele>8.25</ele><time>2026-04-06T10:56:26.999Z</time></trkpt><trkpt lat="42.960143608144044" lon="10.537215786483449"><ele>8.0</ele><time>2026-04-06T10:56:27.999Z</time></trkpt><trkpt lat="42.96000465436493" lon="10.5372479995614"><ele>8.0</ele><time>2026-04-06T10:56:28.999Z</time></trkpt><trkpt lat="42.95986404021671" lon="10.537279118812176"><ele>8.0</ele><time>2026-04-06T10:56:29.999Z</time></trkpt><trkpt lat="42.95972160678384" lon="10.537306558648641"><ele>8.0</ele><time>2026-04-06T10:56:30.999Z</time></trkpt><trkpt lat="42.95957860546331" lon="10.537335777758429"><ele>8.0</ele><time>2026-04-06T10:56:31.999Z</time></trkpt><trkpt lat="42.959434111138464" lon="10.537363309412784"><ele>8.0</ele><time>2026-04-06T10:56:32.999Z</time></trkpt><trkpt lat="42.95928831453992" lon="10.537393690565285"><ele>8.0</ele><time>2026-04-06T10:56:33.999Z</time></trkpt><trkpt lat="42.95914401115341" lon="10.537426290575874"><ele>8.0</ele><time>2026-04-06T10:56:34.999Z</time></trkpt><trkpt lat="42.95899780862352" lon="10.537454242575608"><ele>8.0</ele><time>2026-04-06T10:56:35.999Z</time></trkpt><trkpt lat="42.958855871292315" lon="10.53748323605517"><ele>8.0</ele><time>2026-04-06T10:56:36.999Z</time></trkpt><trkpt lat="42.958717824350416" lon="10.537516693498556"><ele>8.0</ele><time>2026-04-06T10:56:37.999Z</time></trkpt><trkpt lat="42.958580186246465" lon="10.537550075882626"><ele>8.0</ele><time>2026-04-06T10:56:38.999Z</time></trkpt><trkpt lat="42.958447719927904" lon="10.537589401435186"><ele>8.0</ele><time>2026-04-06T10:56:39.999Z</time></trkpt><trkpt lat="42.9583239126203" lon="10.537638174846856"><ele>8.0</ele><time>2026-04-06T10:56:40.999Z</time></trkpt><trkpt lat="42.958223710962265" lon="10.537713832847631"><ele>8.0</ele><time>2026-04-06T10:56:41.999Z</time></trkpt><trkpt lat="42.958142980432484" lon="10.537728250145406"><ele>8.0</ele><time>2026-04-06T10:56:42.999Z</time></trkpt><trkpt lat="42.95808185595907" lon="10.537756940089471"><ele>8.0</ele><time>2026-04-06T10:56:43.999Z</time></trkpt><trkpt lat="42.95796714764119" lon="10.53781098321391"><ele>8.0</ele><time>2026-04-06T10:56:45.999Z</time></trkpt><trkpt lat="42.957877733008154" lon="10.537781445394515"><ele>8.0</ele><time>2026-04-06T10:56:46.999Z</time></trkpt><trkpt lat="42.95776408374535" lon="10.537823014605808"><ele>8.0</ele><time>2026-04-06T10:56:47.999Z</time></trkpt><trkpt lat="42.957638925584604" lon="10.537849122183053"><ele>8.0</ele><time>2026-04-06T10:56:48.999Z</time></trkpt><trkpt lat="42.95750089348507" lon="10.537876164595358"><ele>8.0</ele><time>2026-04-06T10:56:49.999Z</time></trkpt><trkpt lat="42.95734916194891" lon="10.537899993516271"><ele>8.666666666666666</ele><time>2026-04-06T10:56:50.999Z</time></trkpt><trkpt lat="42.95719794768541" lon="10.537926089377008"><ele>9.333333333333334</ele><time>2026-04-06T10:56:51.999Z</time></trkpt><trkpt lat="42.95703178179797" lon="10.537963162457734"><ele>10.0</ele><time>2026-04-06T10:56:52.999Z</time></trkpt><trkpt lat="42.95686612707492" lon="10.538005081387373"><ele>11.666666666666668</ele><time>2026-04-06T10:56:53.999Z</time></trkpt><trkpt lat="42.95669745252937" lon="10.538050818475096"><ele>13.333333333333334</ele><time>2026-04-06T10:56:54.999Z</time></trkpt><trkpt lat="42.95651439551166" lon="10.538101219622755"><ele>15.0</ele><time>2026-04-06T10:56:55.999Z</time></trkpt><trkpt lat="42.95633577326415" lon="10.538150215331113"><ele>15.0</ele><time>2026-04-06T10:56:56.999Z</time></trkpt><trkpt lat="42.95615369234906" lon="10.538202668397346"><ele>15.0</ele><time>2026-04-06T10:56:57.999Z</time></trkpt><trkpt lat="42.95597482472659" lon="10.538255746017308"><ele>15.0</ele><time>2026-04-06T10:56:58.999Z</time></trkpt><trkpt lat="42.95579364459509" lon="10.53831048555841"><ele>17.333333333333332</ele><time>2026-04-06T10:56:59.999Z</time></trkpt><trkpt lat="42.95560982118904" lon="10.538365196217315"><ele>19.666666666666664</ele><time>2026-04-06T10:57:00.999Z</time></trkpt><trkpt lat="42.95542500049586" lon="10.538422867082998"><ele>22.0</ele><time>2026-04-06T10:57:01.999Z</time></trkpt><trkpt lat="42.95523860500639" lon="10.538482786791034"><ele>22.0</ele><time>2026-04-06T10:57:02.999Z</time></trkpt><trkpt lat="42.955057779899846" lon="10.538539862035275"><ele>22.0</ele><time>2026-04-06T10:57:03.999Z</time></trkpt><trkpt lat="42.954853697087984" lon="10.538594743880388"><ele>22.0</ele><time>2026-04-06T10:57:04.999Z</time></trkpt><trkpt lat="42.954649971158624" lon="10.538651100919305"><ele>21.333333333333332</ele><time>2026-04-06T10:57:06Z</time></trkpt><trkpt lat="42.954434271014705" lon="10.538712215937206"><ele>20.666666666666668</ele><time>2026-04-06T10:57:07Z</time></trkpt><trkpt lat="42.95421956676835" lon="10.538773398712355"><ele>20.0</ele><time>2026-04-06T10:57:08Z</time></trkpt><trkpt lat="42.95401755940865" lon="10.538839789958969"><ele>20.0</ele><time>2026-04-06T10:57:09Z</time></trkpt><trkpt lat="42.953819332942615" lon="10.538898727132937"><ele>20.0</ele><time>2026-04-06T10:57:10Z</time></trkpt><trkpt lat="42.953638105401275" lon="10.538939124935702"><ele>20.0</ele><time>2026-04-06T10:57:11Z</time></trkpt><trkpt lat="42.95346880654913" lon="10.538961052431643"><ele>17.333333333333336</ele><time>2026-04-06T10:57:12Z</time></trkpt><trkpt lat="42.95330549316018" lon="10.538961474769216"><ele>14.666666666666668</ele><time>2026-04-06T10:57:13Z</time></trkpt><trkpt lat="42.95316041018697" lon="10.538936319415386"><ele>12.0</ele><time>2026-04-06T10:57:14Z</time></trkpt><trkpt lat="42.95302180863043" lon="10.538883981785348"><ele>12.0</ele><time>2026-04-06T10:57:15Z</time></trkpt><trkpt lat="42.952903428494146" lon="10.538826092146328"><ele>12.0</ele><time>2026-04-06T10:57:16Z</time></trkpt><trkpt lat="42.95280441598364" lon="10.538796248024004"><ele>12.0</ele><time>2026-04-06T10:57:17Z</time></trkpt><trkpt lat="42.95270748366461" lon="10.53878311994743"><ele>12.0</ele><time>2026-04-06T10:57:18Z</time></trkpt><trkpt lat="42.95261863268606" lon="10.538880860360338"><ele>12.0</ele><time>2026-04-06T10:57:19Z</time></trkpt><trkpt lat="42.952527571295924" lon="10.538981029838174"><ele>11.0</ele><time>2026-04-06T10:57:20Z</time></trkpt><trkpt lat="42.952428415646985" lon="10.539083649766104"><ele>10.0</ele><time>2026-04-06T10:57:21Z</time></trkpt><trkpt lat="42.95230811905721" lon="10.539165781262293"><ele>9.0</ele><time>2026-04-06T10:57:22Z</time></trkpt><trkpt lat="42.9521681575932" lon="10.53923247567172"><ele>8.0</ele><time>2026-04-06T10:57:23Z</time></trkpt><trkpt lat="42.95201854726143" lon="10.539283970865656"><ele>8.0</ele><time>2026-04-06T10:57:24Z</time></trkpt><trkpt lat="42.95186705205865" lon="10.53931982979528"><ele>8.0</ele><time>2026-04-06T10:57:25Z</time></trkpt><trkpt lat="42.951717530473275" lon="10.539342120266307"><ele>8.0</ele><time>2026-04-06T10:57:26Z</time></trkpt><trkpt lat="42.951572644202486" lon="10.5393677594991"><ele>8.666666666666666</ele><time>2026-04-06T10:57:27Z</time></trkpt><trkpt lat="42.95142504475" lon="10.539394095704981"><ele>9.333333333333334</ele><time>2026-04-06T10:57:28Z</time></trkpt><trkpt lat="42.95127344650173" lon="10.539422282866331"><ele>10.0</ele><time>2026-04-06T10:57:29Z</time></trkpt><trkpt lat="42.95111839630402" lon="10.539451486441187"><ele>10.0</ele><time>2026-04-06T10:57:30Z</time></trkpt><trkpt lat="42.950951802163225" lon="10.539482553408709"><ele>10.0</ele><time>2026-04-06T10:57:31Z</time></trkpt><trkpt lat="42.95078621086286" lon="10.539518154500362"><ele>10.0</ele><time>2026-04-06T10:57:32Z</time></trkpt><trkpt lat="42.95061418237716" lon="10.539551238530738"><ele>9.0</ele><time>2026-04-06T10:57:33Z</time></trkpt><trkpt lat="42.950436192161774" lon="10.539581217142883"><ele>8.0</ele><time>2026-04-06T10:57:34Z</time></trkpt><trkpt lat="42.950254976721254" lon="10.539615417623436"><ele>7.0</ele><time>2026-04-06T10:57:35Z</time></trkpt><trkpt lat="42.950077992190934" lon="10.539649878273748"><ele>7.0</ele><time>2026-04-06T10:57:36Z</time></trkpt><trkpt lat="42.94989776568197" lon="10.539687801378331"><ele>7.0</ele><time>2026-04-06T10:57:37Z</time></trkpt><trkpt lat="42.94971378288349" lon="10.539732466110165"><ele>7.0</ele><time>2026-04-06T10:57:38Z</time></trkpt><trkpt lat="42.949528575841555" lon="10.539750483159983"><ele>7.0</ele><time>2026-04-06T10:57:39Z</time></trkpt><trkpt lat="42.949338732608325" lon="10.539785528453352"><ele>7.0</ele><time>2026-04-06T10:57:40Z</time></trkpt><trkpt lat="42.94915308364007" lon="10.539851036859277"><ele>7.0</ele><time>2026-04-06T10:57:41Z</time></trkpt><trkpt lat="42.94896711282793" lon="10.539888943620978"><ele>8.333333333333334</ele><time>2026-04-06T10:57:42Z</time></trkpt><trkpt lat="42.94877840810585" lon="10.539935839831802"><ele>9.666666666666666</ele><time>2026-04-06T10:57:43Z</time></trkpt><trkpt lat="42.948593966940514" lon="10.539992509597225"><ele>11.0</ele><time>2026-04-06T10:57:44Z</time></trkpt><trkpt lat="42.94841186314697" lon="10.540039897302806"><ele>12.666666666666666</ele><time>2026-04-06T10:57:45Z</time></trkpt><trkpt lat="42.948248440206434" lon="10.540128299594663"><ele>14.333333333333332</ele><time>2026-04-06T10:57:46Z</time></trkpt><trkpt lat="42.948092170773144" lon="10.540219339490775"><ele>16.0</ele><time>2026-04-06T10:57:47Z</time></trkpt><trkpt lat="42.947940844303886" lon="10.54030341239463"><ele>17.25</ele><time>2026-04-06T10:57:48Z</time></trkpt><trkpt lat="42.94779481287203" lon="10.540384349261846"><ele>18.5</ele><time>2026-04-06T10:57:49Z</time></trkpt><trkpt lat="42.947665406624566" lon="10.54045640176588"><ele>19.75</ele><time>2026-04-06T10:57:50Z</time></trkpt><trkpt lat="42.94755229456909" lon="10.540543582548576"><ele>21.0</ele><time>2026-04-06T10:57:51Z</time></trkpt><trkpt lat="42.94742274872428" lon="10.540612292566236"><ele>21.0</ele><time>2026-04-06T10:57:52Z</time></trkpt><trkpt lat="42.94729080514854" lon="10.540680008150696"><ele>21.0</ele><time>2026-04-06T10:57:53Z</time></trkpt><trkpt lat="42.94715558167337" lon="10.540745262112283"><ele>21.0</ele><time>2026-04-06T10:57:54Z</time></trkpt><trkpt lat="42.947019640721734" lon="10.540801507906256"><ele>21.0</ele><time>2026-04-06T10:57:55Z</time></trkpt><trkpt lat="42.94687776755734" lon="10.540844882746704"><ele>21.0</ele><time>2026-04-06T10:57:56Z</time></trkpt><trkpt lat="42.94673859096144" lon="10.540864714267373"><ele>21.0</ele><time>2026-04-06T10:57:57Z</time></trkpt><trkpt lat="42.94660169670171" lon="10.540854121102837"><ele>21.0</ele><time>2026-04-06T10:57:58Z</time></trkpt><trkpt lat="42.946474494947175" lon="10.540831343568856"><ele>21.0</ele><time>2026-04-06T10:57:59Z</time></trkpt><trkpt lat="42.94635107793817" lon="10.540813314668648"><ele>22.25</ele><time>2026-04-06T10:58:00Z</time></trkpt><trkpt lat="42.94623032059241" lon="10.540805375700364"><ele>23.5</ele><time>2026-04-06T10:58:01Z</time></trkpt><trkpt lat="42.94611014041679" lon="10.540800272133172"><ele>24.75</ele><time>2026-04-06T10:58:02Z</time></trkpt><trkpt lat="42.94597766111922" lon="10.540784778512652"><ele>26.0</ele><time>2026-04-06T10:58:03Z</time></trkpt><trkpt lat="42.9458354350102" lon="10.540763049014737"><ele>28.0</ele><time>2026-04-06T10:58:04Z</time></trkpt><trkpt lat="42.94569598063452" lon="10.54072552717391"><ele>30.0</ele><time>2026-04-06T10:58:05Z</time></trkpt><trkpt lat="42.945542815729496" lon="10.540665949229089"><ele>32.0</ele><time>2026-04-06T10:58:06Z</time></trkpt><trkpt lat="42.945383859029086" lon="10.540581604567947"><ele>32.0</ele><time>2026-04-06T10:58:07Z</time></trkpt><trkpt lat="42.94522815387672" lon="10.540470861155432"><ele>32.0</ele><time>2026-04-06T10:58:07.999Z</time></trkpt><trkpt lat="42.94508096317374" lon="10.540318548863468"><ele>32.0</ele><time>2026-04-06T10:58:08.999Z</time></trkpt><trkpt lat="42.94495982112748" lon="10.540123810054041"><ele>31.0</ele><time>2026-04-06T10:58:09.999Z</time></trkpt><trkpt lat="42.94486180149702" lon="10.539898326591327"><ele>30.0</ele><time>2026-04-06T10:58:10.999Z</time></trkpt><trkpt lat="42.9447813493826" lon="10.539654488229855"><ele>29.0</ele><time>2026-04-06T10:58:11.999Z</time></trkpt><trkpt lat="42.94471031861763" lon="10.539409862122955"><ele>31.333333333333332</ele><time>2026-04-06T10:58:12.999Z</time></trkpt><trkpt lat="42.944633721952144" lon="10.53916229129401"><ele>33.666666666666664</ele><time>2026-04-06T10:58:13.999Z</time></trkpt><trkpt lat="42.944539658815714" lon="10.53891134112569"><ele>36.0</ele><time>2026-04-06T10:58:14.999Z</time></trkpt><trkpt lat="42.944436659551954" lon="10.538669976736966"><ele>34.0</ele><time>2026-04-06T10:58:15.999Z</time></trkpt><trkpt lat="42.9443192169452" lon="10.538450128587348"><ele>32.0</ele><time>2026-04-06T10:58:16.999Z</time></trkpt><trkpt lat="42.944182086924165" lon="10.538241593288365"><ele>30.0</ele><time>2026-04-06T10:58:17.999Z</time></trkpt><trkpt lat="42.94402678394409" lon="10.53805420093618"><ele>30.666666666666664</ele><time>2026-04-06T10:58:18.999Z</time></trkpt><trkpt lat="42.943865124657655" lon="10.537883458711832"><ele>31.333333333333332</ele><time>2026-04-06T10:58:19.999Z</time></trkpt><trkpt lat="42.94370097667991" lon="10.537709403814175"><ele>32.0</ele><time>2026-04-06T10:58:20.999Z</time></trkpt><trkpt lat="42.943548030305564" lon="10.53753455066822"><ele>32.0</ele><time>2026-04-06T10:58:21.999Z</time></trkpt><trkpt lat="42.943402928917614" lon="10.53736301299319"><ele>32.0</ele><time>2026-04-06T10:58:22.999Z</time></trkpt><trkpt lat="42.94326132310639" lon="10.537195420118092"><ele>32.0</ele><time>2026-04-06T10:58:23.999Z</time></trkpt><trkpt lat="42.94312751337176" lon="10.537035497875102"><ele>31.333333333333332</ele><time>2026-04-06T10:58:24.999Z</time></trkpt><trkpt lat="42.94300673536911" lon="10.536894798192044"><ele>30.666666666666664</ele><time>2026-04-06T10:58:25.999Z</time></trkpt><trkpt lat="42.942901804630935" lon="10.536739105981155"><ele>30.0</ele><time>2026-04-06T10:58:26.999Z</time></trkpt><trkpt lat="42.94279010936409" lon="10.536620720333781"><ele>30.0</ele><time>2026-04-06T10:58:27.999Z</time></trkpt><trkpt lat="42.9427270542602" lon="10.536455031281946"><ele>30.0</ele><time>2026-04-06T10:58:28.999Z</time></trkpt><trkpt lat="42.94268114211299" lon="10.536299091568896"><ele>30.0</ele><time>2026-04-06T10:58:29.999Z</time></trkpt><trkpt lat="42.94262332039584" lon="10.536124592174522"><ele>30.0</ele><time>2026-04-06T10:58:30.999Z</time></trkpt><trkpt lat="42.942455498400584" lon="10.536085105964052"><ele>30.333333333333336</ele><time>2026-04-06T10:58:31.999Z</time></trkpt><trkpt lat="42.9423216951614" lon="10.535987870900355"><ele>30.666666666666668</ele><time>2026-04-06T10:58:32.999Z</time></trkpt><trkpt lat="42.94218368054969" lon="10.535892619346892"><ele>31.0</ele><time>2026-04-06T10:58:33.999Z</time></trkpt><trkpt lat="42.942053251519084" lon="10.535757300926283"><ele>31.0</ele><time>2026-04-06T10:58:34.999Z</time></trkpt><trkpt lat="42.94192392647098" lon="10.53560510927766"><ele>31.0</ele><time>2026-04-06T10:58:35.999Z</time></trkpt><trkpt lat="42.941792012116885" lon="10.535448606458104"><ele>31.0</ele><time>2026-04-06T10:58:36.999Z</time></trkpt><trkpt lat="42.94165462388614" lon="10.53529241734008"><ele>33.0</ele><time>2026-04-06T10:58:37.999Z</time></trkpt><trkpt lat="42.94151323923128" lon="10.535132731387423"><ele>35.0</ele><time>2026-04-06T10:58:38.999Z</time></trkpt><trkpt lat="42.94136814993665" lon="10.53496430666829"><ele>37.0</ele><time>2026-04-06T10:58:39.999Z</time></trkpt><trkpt lat="42.94122640901954" lon="10.534796913626675"><ele>37.0</ele><time>2026-04-06T10:58:40.999Z</time></trkpt><trkpt lat="42.941078546141334" lon="10.534625911157196"><ele>37.0</ele><time>2026-04-06T10:58:41.999Z</time></trkpt><trkpt lat="42.9409245627368" lon="10.534450065771486"><ele>37.0</ele><time>2026-04-06T10:58:42.999Z</time></trkpt><trkpt lat="42.9407657247499" lon="10.534267573949442"><ele>37.66666666666667</ele><time>2026-04-06T10:58:43.999Z</time></trkpt><trkpt lat="42.94060842652683" lon="10.534090132222504"><ele>38.333333333333336</ele><time>2026-04-06T10:58:44.999Z</time></trkpt><trkpt lat="42.94045038801932" lon="10.533902099269094"><ele>39.0</ele><time>2026-04-06T10:58:45.999Z</time></trkpt><trkpt lat="42.94029482907996" lon="10.53371681858612"><ele>40.333333333333336</ele><time>2026-04-06T10:58:46.999Z</time></trkpt><trkpt lat="42.940131121133355" lon="10.53353231091938"><ele>41.66666666666667</ele><time>2026-04-06T10:58:47.999Z</time></trkpt><trkpt lat="42.9399752379661" lon="10.53335318405527"><ele>43.0</ele><time>2026-04-06T10:58:48.999Z</time></trkpt><trkpt lat="42.93982799685013" lon="10.533181814988623"><ele>43.0</ele><time>2026-04-06T10:58:49.999Z</time></trkpt><trkpt lat="42.939687008558536" lon="10.533007428289615"><ele>43.0</ele><time>2026-04-06T10:58:50.999Z</time></trkpt><trkpt lat="42.93955432280397" lon="10.532831538986512"><ele>43.0</ele><time>2026-04-06T10:58:51.999Z</time></trkpt><trkpt lat="42.939429499584485" lon="10.532652029905234"><ele>43.0</ele><time>2026-04-06T10:58:52.999Z</time></trkpt><trkpt lat="42.939309608987735" lon="10.532481335738495"><ele>43.0</ele><time>2026-04-06T10:58:53.999Z</time></trkpt><trkpt lat="42.93919711769866" lon="10.53231967907027"><ele>43.0</ele><time>2026-04-06T10:58:54.999Z</time></trkpt><trkpt lat="42.93909028152993" lon="10.532169463165241"><ele>45.66666666666667</ele><time>2026-04-06T10:58:55.999Z</time></trkpt><trkpt lat="42.93898624376868" lon="10.532015169099013"><ele>48.333333333333336</ele><time>2026-04-06T10:58:56.999Z</time></trkpt><trkpt lat="42.938885357757385" lon="10.531874224208213"><ele>51.0</ele><time>2026-04-06T10:58:57.999Z</time></trkpt><trkpt lat="42.93878052135599" lon="10.531723157679"><ele>51.0</ele><time>2026-04-06T10:58:58.999Z</time></trkpt><trkpt lat="42.93866796161538" lon="10.531569739104516"><ele>51.0</ele><time>2026-04-06T10:58:59.999Z</time></trkpt><trkpt lat="42.938551982525844" lon="10.531408408215183"><ele>51.0</ele><time>2026-04-06T10:59:00.999Z</time></trkpt><trkpt lat="42.938435344988555" lon="10.531247722634827"><ele>48.0</ele><time>2026-04-06T10:59:01.999Z</time></trkpt><trkpt lat="42.93831601729441" lon="10.531083596308827"><ele>45.0</ele><time>2026-04-06T10:59:02.999Z</time></trkpt><trkpt lat="42.938198504313476" lon="10.530932683937191"><ele>42.0</ele><time>2026-04-06T10:59:03.999Z</time></trkpt><trkpt lat="42.93808418037519" lon="10.530756268565133"><ele>42.0</ele><time>2026-04-06T10:59:04.999Z</time></trkpt><trkpt lat="42.937953184456674" lon="10.530617287649962"><ele>42.0</ele><time>2026-04-06T10:59:05.999Z</time></trkpt><trkpt lat="42.937832086956014" lon="10.53046535600698"><ele>42.0</ele><time>2026-04-06T10:59:06.999Z</time></trkpt><trkpt lat="42.937721008113016" lon="10.530341124967823"><ele>43.0</ele><time>2026-04-06T10:59:07.999Z</time></trkpt><trkpt lat="42.937610595031465" lon="10.530227154214304"><ele>44.0</ele><time>2026-04-06T10:59:08.999Z</time></trkpt><trkpt lat="42.937507865998576" lon="10.530113109028775"><ele>45.0</ele><time>2026-04-06T10:59:09.999Z</time></trkpt><trkpt lat="42.93741514199906" lon="10.529995730336593"><ele>46.0</ele><time>2026-04-06T10:59:10.999Z</time></trkpt><trkpt lat="42.937347323299136" lon="10.52989603238054"><ele>45.833333333333336</ele><time>2026-04-06T10:59:12Z</time></trkpt><trkpt lat="42.93729108801667" lon="10.529801178410208"><ele>45.66666666666667</ele><time>2026-04-06T10:59:13Z</time></trkpt><trkpt lat="42.93725520886981" lon="10.52970130754909"><ele>45.5</ele><time>2026-04-06T10:59:14Z</time></trkpt><trkpt lat="42.937238055036275" lon="10.529598155957904"><ele>45.333333333333336</ele><time>2026-04-06T10:59:15Z</time></trkpt><trkpt lat="42.937232814733655" lon="10.529503124809064"><ele>45.166666666666664</ele><time>2026-04-06T10:59:16Z</time></trkpt><trkpt lat="42.93724017329455" lon="10.529395752377832"><ele>45.0</ele><time>2026-04-06T10:59:17Z</time></trkpt><trkpt lat="42.93716733186761" lon="10.529330342050848"><ele>45.0</ele><time>2026-04-06T10:59:18Z</time></trkpt><trkpt lat="42.93709573560134" lon="10.52928708596568"><ele>45.0</ele><time>2026-04-06T10:59:19Z</time></trkpt><trkpt lat="42.93701219117544" lon="10.529281602961415"><ele>45.0</ele><time>2026-04-06T10:59:20Z</time></trkpt><trkpt lat="42.93691435985415" lon="10.529289669750668"><ele>45.0</ele><time>2026-04-06T10:59:21Z</time></trkpt><trkpt lat="42.93682339908465" lon="10.529291093828338"><ele>45.0</ele><time>2026-04-06T10:59:22Z</time></trkpt><trkpt lat="42.93673145196342" lon="10.529270058973937"><ele>45.0</ele><time>2026-04-06T10:59:23Z</time></trkpt><trkpt lat="42.936647841920205" lon="10.52923108888082"><ele>39.0</ele><time>2026-04-06T10:59:24Z</time></trkpt><trkpt lat="42.93655364930699" lon="10.529214513167673"><ele>39.0</ele><time>2026-04-06T10:59:26Z</time></trkpt><trkpt lat="42.93649872325547" lon="10.529170796059885"><ele>39.0</ele><time>2026-04-06T10:59:30Z</time></trkpt></trkseg></trk></gpx>